<?xml version='1.0' encoding='UTF-8' ?>
<gpx version="1.1" creator="S Health_0.2" xmlns="http://www.topografix.com/GPX/1/1" xmlns:gpxtpx="http://www.garmin.com/xmlschemas/TrackPointExtension/v1" xmlns:xsi="http://www.w3.org/2001/XMLSchema-instance" xsi:schemaLocation="http://www.topografix.com/GPX/1/1 http://www.topografix.com/GPX/1/1/gpx.xsd http://www.garmin.com/xmlschemas/TrackPointExtension/v1 http://www.garmin.com/xmlschemas/TrackPointExtensionv1.xsd">
  <metadate>2022-03-31T07:04:56Z</metadate>
  <trk>
    <name>Montrieux-20220331_090455.gpx</name>
    <trkseg>
      <trkpt lat="47.55356" lon="1.7230288">
        <ele>136.0</ele>
        <time>2022-03-31T07:04:56Z</time>
      </trkpt>
      <trkpt lat="47.55356" lon="1.7230288">
        <ele>136.0</ele>
        <time>2022-03-31T07:04:57Z</time>
      </trkpt>
      <trkpt lat="47.55356" lon="1.7230288">
        <ele>136.0</ele>
        <time>2022-03-31T07:04:58Z</time>
      </trkpt>
      <trkpt lat="47.55356" lon="1.7230288">
        <ele>136.0</ele>
        <time>2022-03-31T07:04:59Z</time>
      </trkpt>
      <trkpt lat="47.55356" lon="1.7230288">
        <ele>136.0</ele>
        <time>2022-03-31T07:05:00Z</time>
      </trkpt>
      <trkpt lat="47.55356" lon="1.7230288">
        <ele>136.0</ele>
        <time>2022-03-31T07:05:01Z</time>
      </trkpt>
      <trkpt lat="47.55356" lon="1.7230288">
        <ele>136.0</ele>
        <time>2022-03-31T07:05:02Z</time>
      </trkpt>
      <trkpt lat="47.55356" lon="1.7230288">
        <ele>136.0</ele>
        <time>2022-03-31T07:05:03Z</time>
      </trkpt>
      <trkpt lat="47.55356" lon="1.7230288">
        <ele>136.0</ele>
        <time>2022-03-31T07:05:04Z</time>
      </trkpt>
      <trkpt lat="47.55356" lon="1.7230288">
        <ele>136.0</ele>
        <time>2022-03-31T07:05:05Z</time>
      </trkpt>
      <trkpt lat="47.55356" lon="1.7230288">
        <ele>136.0</ele>
        <time>2022-03-31T07:05:06Z</time>
      </trkpt>
      <trkpt lat="47.55356" lon="1.7230288">
        <ele>136.0</ele>
        <time>2022-03-31T07:05:07Z</time>
      </trkpt>
      <trkpt lat="47.553555" lon="1.7230256">
        <ele>138.0</ele>
        <time>2022-03-31T07:05:08Z</time>
      </trkpt>
      <trkpt lat="47.553547" lon="1.7230371">
        <ele>141.0</ele>
        <time>2022-03-31T07:05:10Z</time>
      </trkpt>
      <trkpt lat="47.553547" lon="1.7230363">
        <ele>141.0</ele>
        <time>2022-03-31T07:05:12Z</time>
      </trkpt>
      <trkpt lat="47.553547" lon="1.7230363">
        <ele>141.0</ele>
        <time>2022-03-31T07:05:12Z</time>
      </trkpt>
      <trkpt lat="47.553547" lon="1.7230363">
        <ele>141.0</ele>
        <time>2022-03-31T07:05:12Z</time>
      </trkpt>
      <trkpt lat="47.553513" lon="1.7230953">
        <ele>139.0</ele>
        <time>2022-03-31T07:05:41Z</time>
      </trkpt>
      <trkpt lat="47.553513" lon="1.7231022">
        <ele>139.0</ele>
        <time>2022-03-31T07:05:42Z</time>
      </trkpt>
      <trkpt lat="47.553513" lon="1.7231079">
        <ele>139.0</ele>
        <time>2022-03-31T07:05:43Z</time>
      </trkpt>
      <trkpt lat="47.553513" lon="1.7231126">
        <ele>140.0</ele>
        <time>2022-03-31T07:05:44Z</time>
      </trkpt>
      <trkpt lat="47.553516" lon="1.7231208">
        <ele>140.0</ele>
        <time>2022-03-31T07:05:45Z</time>
      </trkpt>
      <trkpt lat="47.55352" lon="1.7231266">
        <ele>140.0</ele>
        <time>2022-03-31T07:05:46Z</time>
      </trkpt>
      <trkpt lat="47.55352" lon="1.7231361">
        <ele>141.0</ele>
        <time>2022-03-31T07:05:48Z</time>
      </trkpt>
      <trkpt lat="47.553524" lon="1.7231383">
        <ele>141.0</ele>
        <time>2022-03-31T07:05:49Z</time>
      </trkpt>
      <trkpt lat="47.553524" lon="1.7231385">
        <ele>141.0</ele>
        <time>2022-03-31T07:05:50Z</time>
      </trkpt>
      <trkpt lat="47.553524" lon="1.7231385">
        <ele>141.0</ele>
        <time>2022-03-31T07:05:51Z</time>
      </trkpt>
      <trkpt lat="47.553524" lon="1.7231385">
        <ele>141.0</ele>
        <time>2022-03-31T07:05:52Z</time>
      </trkpt>
      <trkpt lat="47.553524" lon="1.7231385">
        <ele>141.0</ele>
        <time>2022-03-31T07:05:52Z</time>
      </trkpt>
      <trkpt lat="47.553524" lon="1.7231385">
        <ele>141.0</ele>
        <time>2022-03-31T07:05:52Z</time>
      </trkpt>
      <trkpt lat="47.55355" lon="1.7232665">
        <ele>146.0</ele>
        <time>2022-03-31T07:06:20Z</time>
      </trkpt>
      <trkpt lat="47.55355" lon="1.7232778">
        <ele>146.0</ele>
        <time>2022-03-31T07:06:21Z</time>
      </trkpt>
      <trkpt lat="47.553547" lon="1.7233061">
        <ele>146.0</ele>
        <time>2022-03-31T07:06:23Z</time>
      </trkpt>
      <trkpt lat="47.553547" lon="1.7233338">
        <ele>147.0</ele>
        <time>2022-03-31T07:06:25Z</time>
      </trkpt>
      <trkpt lat="47.553543" lon="1.7233673">
        <ele>148.0</ele>
        <time>2022-03-31T07:06:27Z</time>
      </trkpt>
      <trkpt lat="47.553547" lon="1.7233998">
        <ele>149.0</ele>
        <time>2022-03-31T07:06:29Z</time>
      </trkpt>
      <trkpt lat="47.553543" lon="1.7234304">
        <ele>149.0</ele>
        <time>2022-03-31T07:06:31Z</time>
      </trkpt>
      <trkpt lat="47.55354" lon="1.7234468">
        <ele>150.0</ele>
        <time>2022-03-31T07:06:32Z</time>
      </trkpt>
      <trkpt lat="47.55354" lon="1.723462">
        <ele>150.0</ele>
        <time>2022-03-31T07:06:33Z</time>
      </trkpt>
      <trkpt lat="47.553535" lon="1.7234781">
        <ele>150.0</ele>
        <time>2022-03-31T07:06:34Z</time>
      </trkpt>
      <trkpt lat="47.55353" lon="1.7234925">
        <ele>150.0</ele>
        <time>2022-03-31T07:06:35Z</time>
      </trkpt>
      <trkpt lat="47.55353" lon="1.7235063">
        <ele>151.0</ele>
        <time>2022-03-31T07:06:36Z</time>
      </trkpt>
      <trkpt lat="47.55353" lon="1.7235224">
        <ele>151.0</ele>
        <time>2022-03-31T07:06:37Z</time>
      </trkpt>
      <trkpt lat="47.55353" lon="1.7235407">
        <ele>152.0</ele>
        <time>2022-03-31T07:06:38Z</time>
      </trkpt>
      <trkpt lat="47.553535" lon="1.7235585">
        <ele>152.0</ele>
        <time>2022-03-31T07:06:39Z</time>
      </trkpt>
      <trkpt lat="47.553535" lon="1.723576">
        <ele>152.0</ele>
        <time>2022-03-31T07:06:40Z</time>
      </trkpt>
      <trkpt lat="47.55354" lon="1.7235936">
        <ele>152.0</ele>
        <time>2022-03-31T07:06:41Z</time>
      </trkpt>
      <trkpt lat="47.553547" lon="1.7236305">
        <ele>152.0</ele>
        <time>2022-03-31T07:06:43Z</time>
      </trkpt>
      <trkpt lat="47.553555" lon="1.7236621">
        <ele>153.0</ele>
        <time>2022-03-31T07:06:45Z</time>
      </trkpt>
      <trkpt lat="47.55356" lon="1.7236786">
        <ele>152.0</ele>
        <time>2022-03-31T07:06:46Z</time>
      </trkpt>
      <trkpt lat="47.553566" lon="1.7236975">
        <ele>153.0</ele>
        <time>2022-03-31T07:06:47Z</time>
      </trkpt>
      <trkpt lat="47.55357" lon="1.723718">
        <ele>153.0</ele>
        <time>2022-03-31T07:06:48Z</time>
      </trkpt>
      <trkpt lat="47.553574" lon="1.723736">
        <ele>153.0</ele>
        <time>2022-03-31T07:06:49Z</time>
      </trkpt>
      <trkpt lat="47.553574" lon="1.7237556">
        <ele>152.0</ele>
        <time>2022-03-31T07:06:50Z</time>
      </trkpt>
      <trkpt lat="47.553577" lon="1.7237698">
        <ele>152.0</ele>
        <time>2022-03-31T07:06:51Z</time>
      </trkpt>
      <trkpt lat="47.55358" lon="1.723777">
        <ele>153.0</ele>
        <time>2022-03-31T07:06:52Z</time>
      </trkpt>
      <trkpt lat="47.553585" lon="1.7237898">
        <ele>152.0</ele>
        <time>2022-03-31T07:06:53Z</time>
      </trkpt>
      <trkpt lat="47.55359" lon="1.7238034">
        <ele>152.0</ele>
        <time>2022-03-31T07:06:54Z</time>
      </trkpt>
      <trkpt lat="47.553593" lon="1.7238187">
        <ele>152.0</ele>
        <time>2022-03-31T07:06:55Z</time>
      </trkpt>
      <trkpt lat="47.553596" lon="1.723838">
        <ele>153.0</ele>
        <time>2022-03-31T07:06:56Z</time>
      </trkpt>
      <trkpt lat="47.5536" lon="1.7238551">
        <ele>153.0</ele>
        <time>2022-03-31T07:06:57Z</time>
      </trkpt>
      <trkpt lat="47.5536" lon="1.7238736">
        <ele>153.0</ele>
        <time>2022-03-31T07:06:58Z</time>
      </trkpt>
      <trkpt lat="47.553604" lon="1.723888">
        <ele>153.0</ele>
        <time>2022-03-31T07:06:59Z</time>
      </trkpt>
      <trkpt lat="47.553604" lon="1.7239039">
        <ele>153.0</ele>
        <time>2022-03-31T07:07:00Z</time>
      </trkpt>
      <trkpt lat="47.553608" lon="1.7239134">
        <ele>153.0</ele>
        <time>2022-03-31T07:07:01Z</time>
      </trkpt>
      <trkpt lat="47.55361" lon="1.7239248">
        <ele>153.0</ele>
        <time>2022-03-31T07:07:02Z</time>
      </trkpt>
      <trkpt lat="47.553616" lon="1.723933">
        <ele>154.0</ele>
        <time>2022-03-31T07:07:03Z</time>
      </trkpt>
      <trkpt lat="47.55362" lon="1.7239367">
        <ele>154.0</ele>
        <time>2022-03-31T07:07:04Z</time>
      </trkpt>
      <trkpt lat="47.55362" lon="1.7239406">
        <ele>154.0</ele>
        <time>2022-03-31T07:07:05Z</time>
      </trkpt>
      <trkpt lat="47.55362" lon="1.7239408">
        <ele>154.0</ele>
        <time>2022-03-31T07:07:06Z</time>
      </trkpt>
      <trkpt lat="47.55362" lon="1.7239423">
        <ele>154.0</ele>
        <time>2022-03-31T07:07:07Z</time>
      </trkpt>
      <trkpt lat="47.55362" lon="1.7239498">
        <ele>154.0</ele>
        <time>2022-03-31T07:07:08Z</time>
      </trkpt>
      <trkpt lat="47.553623" lon="1.7239633">
        <ele>153.0</ele>
        <time>2022-03-31T07:07:09Z</time>
      </trkpt>
      <trkpt lat="47.553623" lon="1.7239779">
        <ele>153.0</ele>
        <time>2022-03-31T07:07:10Z</time>
      </trkpt>
      <trkpt lat="47.553627" lon="1.7239927">
        <ele>153.0</ele>
        <time>2022-03-31T07:07:11Z</time>
      </trkpt>
      <trkpt lat="47.55363" lon="1.7240101">
        <ele>153.0</ele>
        <time>2022-03-31T07:07:12Z</time>
      </trkpt>
      <trkpt lat="47.553635" lon="1.7240267">
        <ele>152.0</ele>
        <time>2022-03-31T07:07:13Z</time>
      </trkpt>
      <trkpt lat="47.553646" lon="1.724041">
        <ele>152.0</ele>
        <time>2022-03-31T07:07:14Z</time>
      </trkpt>
      <trkpt lat="47.553654" lon="1.7240521">
        <ele>151.0</ele>
        <time>2022-03-31T07:07:15Z</time>
      </trkpt>
      <trkpt lat="47.55366" lon="1.7240686">
        <ele>151.0</ele>
        <time>2022-03-31T07:07:16Z</time>
      </trkpt>
      <trkpt lat="47.55367" lon="1.724084">
        <ele>151.0</ele>
        <time>2022-03-31T07:07:17Z</time>
      </trkpt>
      <trkpt lat="47.553673" lon="1.7241012">
        <ele>151.0</ele>
        <time>2022-03-31T07:07:18Z</time>
      </trkpt>
      <trkpt lat="47.553684" lon="1.7241352">
        <ele>151.0</ele>
        <time>2022-03-31T07:07:20Z</time>
      </trkpt>
      <trkpt lat="47.553688" lon="1.7241485">
        <ele>152.0</ele>
        <time>2022-03-31T07:07:21Z</time>
      </trkpt>
      <trkpt lat="47.55369" lon="1.7241598">
        <ele>151.0</ele>
        <time>2022-03-31T07:07:22Z</time>
      </trkpt>
      <trkpt lat="47.55369" lon="1.7241685">
        <ele>151.0</ele>
        <time>2022-03-31T07:07:23Z</time>
      </trkpt>
      <trkpt lat="47.553696" lon="1.7241774">
        <ele>151.0</ele>
        <time>2022-03-31T07:07:24Z</time>
      </trkpt>
      <trkpt lat="47.553703" lon="1.7241904">
        <ele>152.0</ele>
        <time>2022-03-31T07:07:25Z</time>
      </trkpt>
      <trkpt lat="47.553707" lon="1.7242011">
        <ele>152.0</ele>
        <time>2022-03-31T07:07:26Z</time>
      </trkpt>
      <trkpt lat="47.553707" lon="1.724219">
        <ele>152.0</ele>
        <time>2022-03-31T07:07:27Z</time>
      </trkpt>
      <trkpt lat="47.55371" lon="1.7242339">
        <ele>152.0</ele>
        <time>2022-03-31T07:07:28Z</time>
      </trkpt>
      <trkpt lat="47.553715" lon="1.7242475">
        <ele>152.0</ele>
        <time>2022-03-31T07:07:29Z</time>
      </trkpt>
      <trkpt lat="47.55372" lon="1.7242619">
        <ele>152.0</ele>
        <time>2022-03-31T07:07:30Z</time>
      </trkpt>
      <trkpt lat="47.553726" lon="1.7242751">
        <ele>152.0</ele>
        <time>2022-03-31T07:07:31Z</time>
      </trkpt>
      <trkpt lat="47.55373" lon="1.7242895">
        <ele>152.0</ele>
        <time>2022-03-31T07:07:32Z</time>
      </trkpt>
      <trkpt lat="47.553734" lon="1.7243029">
        <ele>152.0</ele>
        <time>2022-03-31T07:07:33Z</time>
      </trkpt>
      <trkpt lat="47.553738" lon="1.72432">
        <ele>152.0</ele>
        <time>2022-03-31T07:07:34Z</time>
      </trkpt>
      <trkpt lat="47.55374" lon="1.7243357">
        <ele>151.0</ele>
        <time>2022-03-31T07:07:35Z</time>
      </trkpt>
      <trkpt lat="47.553745" lon="1.7243483">
        <ele>151.0</ele>
        <time>2022-03-31T07:07:36Z</time>
      </trkpt>
      <trkpt lat="47.55375" lon="1.7243589">
        <ele>151.0</ele>
        <time>2022-03-31T07:07:37Z</time>
      </trkpt>
      <trkpt lat="47.553753" lon="1.7243692">
        <ele>151.0</ele>
        <time>2022-03-31T07:07:38Z</time>
      </trkpt>
      <trkpt lat="47.553757" lon="1.7243819">
        <ele>151.0</ele>
        <time>2022-03-31T07:07:39Z</time>
      </trkpt>
      <trkpt lat="47.55376" lon="1.7243977">
        <ele>152.0</ele>
        <time>2022-03-31T07:07:40Z</time>
      </trkpt>
      <trkpt lat="47.55376" lon="1.7244118">
        <ele>152.0</ele>
        <time>2022-03-31T07:07:41Z</time>
      </trkpt>
      <trkpt lat="47.55377" lon="1.7244246">
        <ele>152.0</ele>
        <time>2022-03-31T07:07:42Z</time>
      </trkpt>
      <trkpt lat="47.55377" lon="1.7244358">
        <ele>153.0</ele>
        <time>2022-03-31T07:07:43Z</time>
      </trkpt>
      <trkpt lat="47.553772" lon="1.7244514">
        <ele>153.0</ele>
        <time>2022-03-31T07:07:44Z</time>
      </trkpt>
      <trkpt lat="47.553772" lon="1.7244691">
        <ele>153.0</ele>
        <time>2022-03-31T07:07:45Z</time>
      </trkpt>
      <trkpt lat="47.553776" lon="1.724493">
        <ele>153.0</ele>
        <time>2022-03-31T07:07:46Z</time>
      </trkpt>
      <trkpt lat="47.55378" lon="1.7245405">
        <ele>153.0</ele>
        <time>2022-03-31T07:07:48Z</time>
      </trkpt>
      <trkpt lat="47.553795" lon="1.7245755">
        <ele>153.0</ele>
        <time>2022-03-31T07:07:50Z</time>
      </trkpt>
      <trkpt lat="47.553802" lon="1.7245924">
        <ele>153.0</ele>
        <time>2022-03-31T07:07:51Z</time>
      </trkpt>
      <trkpt lat="47.553802" lon="1.7246118">
        <ele>153.0</ele>
        <time>2022-03-31T07:07:52Z</time>
      </trkpt>
      <trkpt lat="47.553806" lon="1.7246269">
        <ele>153.0</ele>
        <time>2022-03-31T07:07:53Z</time>
      </trkpt>
      <trkpt lat="47.553814" lon="1.7246405">
        <ele>154.0</ele>
        <time>2022-03-31T07:07:54Z</time>
      </trkpt>
      <trkpt lat="47.553818" lon="1.724656">
        <ele>154.0</ele>
        <time>2022-03-31T07:07:55Z</time>
      </trkpt>
      <trkpt lat="47.55382" lon="1.7246705">
        <ele>154.0</ele>
        <time>2022-03-31T07:07:56Z</time>
      </trkpt>
      <trkpt lat="47.553825" lon="1.7246859">
        <ele>154.0</ele>
        <time>2022-03-31T07:07:57Z</time>
      </trkpt>
      <trkpt lat="47.553833" lon="1.7247032">
        <ele>154.0</ele>
        <time>2022-03-31T07:07:58Z</time>
      </trkpt>
      <trkpt lat="47.55384" lon="1.7247139">
        <ele>154.0</ele>
        <time>2022-03-31T07:07:59Z</time>
      </trkpt>
      <trkpt lat="47.553844" lon="1.7247272">
        <ele>154.0</ele>
        <time>2022-03-31T07:08:00Z</time>
      </trkpt>
      <trkpt lat="47.55385" lon="1.7247422">
        <ele>154.0</ele>
        <time>2022-03-31T07:08:01Z</time>
      </trkpt>
      <trkpt lat="47.553852" lon="1.7247556">
        <ele>154.0</ele>
        <time>2022-03-31T07:08:02Z</time>
      </trkpt>
      <trkpt lat="47.553856" lon="1.7247678">
        <ele>153.0</ele>
        <time>2022-03-31T07:08:03Z</time>
      </trkpt>
      <trkpt lat="47.55386" lon="1.7247802">
        <ele>153.0</ele>
        <time>2022-03-31T07:08:04Z</time>
      </trkpt>
      <trkpt lat="47.553856" lon="1.7247949">
        <ele>153.0</ele>
        <time>2022-03-31T07:08:05Z</time>
      </trkpt>
      <trkpt lat="47.553864" lon="1.7248117">
        <ele>152.0</ele>
        <time>2022-03-31T07:08:06Z</time>
      </trkpt>
      <trkpt lat="47.55387" lon="1.7248266">
        <ele>152.0</ele>
        <time>2022-03-31T07:08:07Z</time>
      </trkpt>
      <trkpt lat="47.55388" lon="1.7248373">
        <ele>152.0</ele>
        <time>2022-03-31T07:08:08Z</time>
      </trkpt>
      <trkpt lat="47.553886" lon="1.7248557">
        <ele>152.0</ele>
        <time>2022-03-31T07:08:09Z</time>
      </trkpt>
      <trkpt lat="47.553898" lon="1.724873">
        <ele>152.0</ele>
        <time>2022-03-31T07:08:10Z</time>
      </trkpt>
      <trkpt lat="47.553905" lon="1.7248893">
        <ele>152.0</ele>
        <time>2022-03-31T07:08:11Z</time>
      </trkpt>
      <trkpt lat="47.553913" lon="1.7249088">
        <ele>152.0</ele>
        <time>2022-03-31T07:08:12Z</time>
      </trkpt>
      <trkpt lat="47.553925" lon="1.72493">
        <ele>151.0</ele>
        <time>2022-03-31T07:08:13Z</time>
      </trkpt>
      <trkpt lat="47.55393" lon="1.7249484">
        <ele>151.0</ele>
        <time>2022-03-31T07:08:14Z</time>
      </trkpt>
      <trkpt lat="47.553936" lon="1.72497">
        <ele>151.0</ele>
        <time>2022-03-31T07:08:15Z</time>
      </trkpt>
      <trkpt lat="47.55394" lon="1.7249942">
        <ele>151.0</ele>
        <time>2022-03-31T07:08:16Z</time>
      </trkpt>
      <trkpt lat="47.55394" lon="1.7250257">
        <ele>151.0</ele>
        <time>2022-03-31T07:08:17Z</time>
      </trkpt>
      <trkpt lat="47.553944" lon="1.725053">
        <ele>152.0</ele>
        <time>2022-03-31T07:08:18Z</time>
      </trkpt>
      <trkpt lat="47.553947" lon="1.7250782">
        <ele>152.0</ele>
        <time>2022-03-31T07:08:19Z</time>
      </trkpt>
      <trkpt lat="47.55395" lon="1.7251025">
        <ele>153.0</ele>
        <time>2022-03-31T07:08:20Z</time>
      </trkpt>
      <trkpt lat="47.55395" lon="1.7251163">
        <ele>153.0</ele>
        <time>2022-03-31T07:08:21Z</time>
      </trkpt>
      <trkpt lat="47.553955" lon="1.7251271">
        <ele>153.0</ele>
        <time>2022-03-31T07:08:22Z</time>
      </trkpt>
      <trkpt lat="47.55396" lon="1.7251397">
        <ele>153.0</ele>
        <time>2022-03-31T07:08:23Z</time>
      </trkpt>
      <trkpt lat="47.553967" lon="1.7251503">
        <ele>153.0</ele>
        <time>2022-03-31T07:08:24Z</time>
      </trkpt>
      <trkpt lat="47.55397" lon="1.725173">
        <ele>154.0</ele>
        <time>2022-03-31T07:08:25Z</time>
      </trkpt>
      <trkpt lat="47.55397" lon="1.725189">
        <ele>153.0</ele>
        <time>2022-03-31T07:08:26Z</time>
      </trkpt>
      <trkpt lat="47.553974" lon="1.7252057">
        <ele>153.0</ele>
        <time>2022-03-31T07:08:27Z</time>
      </trkpt>
      <trkpt lat="47.553974" lon="1.7252182">
        <ele>153.0</ele>
        <time>2022-03-31T07:08:28Z</time>
      </trkpt>
      <trkpt lat="47.55398" lon="1.7252275">
        <ele>152.0</ele>
        <time>2022-03-31T07:08:29Z</time>
      </trkpt>
      <trkpt lat="47.55398" lon="1.7252395">
        <ele>153.0</ele>
        <time>2022-03-31T07:08:30Z</time>
      </trkpt>
      <trkpt lat="47.553986" lon="1.7252467">
        <ele>153.0</ele>
        <time>2022-03-31T07:08:31Z</time>
      </trkpt>
      <trkpt lat="47.55398" lon="1.7252498">
        <ele>153.0</ele>
        <time>2022-03-31T07:08:32Z</time>
      </trkpt>
      <trkpt lat="47.55399" lon="1.7252549">
        <ele>153.0</ele>
        <time>2022-03-31T07:08:33Z</time>
      </trkpt>
      <trkpt lat="47.553986" lon="1.7252597">
        <ele>153.0</ele>
        <time>2022-03-31T07:08:34Z</time>
      </trkpt>
      <trkpt lat="47.553986" lon="1.7252675">
        <ele>153.0</ele>
        <time>2022-03-31T07:08:35Z</time>
      </trkpt>
      <trkpt lat="47.55399" lon="1.7252727">
        <ele>153.0</ele>
        <time>2022-03-31T07:08:36Z</time>
      </trkpt>
      <trkpt lat="47.553986" lon="1.7252867">
        <ele>153.0</ele>
        <time>2022-03-31T07:08:37Z</time>
      </trkpt>
      <trkpt lat="47.553997" lon="1.7252978">
        <ele>153.0</ele>
        <time>2022-03-31T07:08:38Z</time>
      </trkpt>
      <trkpt lat="47.554" lon="1.7253113">
        <ele>153.0</ele>
        <time>2022-03-31T07:08:39Z</time>
      </trkpt>
      <trkpt lat="47.554005" lon="1.7253225">
        <ele>152.0</ele>
        <time>2022-03-31T07:08:40Z</time>
      </trkpt>
      <trkpt lat="47.55401" lon="1.7253324">
        <ele>152.0</ele>
        <time>2022-03-31T07:08:41Z</time>
      </trkpt>
      <trkpt lat="47.55401" lon="1.7253423">
        <ele>151.0</ele>
        <time>2022-03-31T07:08:42Z</time>
      </trkpt>
      <trkpt lat="47.55401" lon="1.7253535">
        <ele>151.0</ele>
        <time>2022-03-31T07:08:43Z</time>
      </trkpt>
      <trkpt lat="47.55401" lon="1.7253623">
        <ele>151.0</ele>
        <time>2022-03-31T07:08:44Z</time>
      </trkpt>
      <trkpt lat="47.55401" lon="1.7253726">
        <ele>151.0</ele>
        <time>2022-03-31T07:08:45Z</time>
      </trkpt>
      <trkpt lat="47.554012" lon="1.7253882">
        <ele>151.0</ele>
        <time>2022-03-31T07:08:46Z</time>
      </trkpt>
      <trkpt lat="47.554016" lon="1.7254033">
        <ele>151.0</ele>
        <time>2022-03-31T07:08:47Z</time>
      </trkpt>
      <trkpt lat="47.554016" lon="1.7254167">
        <ele>151.0</ele>
        <time>2022-03-31T07:08:48Z</time>
      </trkpt>
      <trkpt lat="47.554016" lon="1.7254299">
        <ele>151.0</ele>
        <time>2022-03-31T07:08:49Z</time>
      </trkpt>
      <trkpt lat="47.554016" lon="1.7254449">
        <ele>151.0</ele>
        <time>2022-03-31T07:08:50Z</time>
      </trkpt>
      <trkpt lat="47.554016" lon="1.7254602">
        <ele>151.0</ele>
        <time>2022-03-31T07:08:51Z</time>
      </trkpt>
      <trkpt lat="47.554016" lon="1.7254721">
        <ele>150.0</ele>
        <time>2022-03-31T07:08:52Z</time>
      </trkpt>
      <trkpt lat="47.554016" lon="1.7254825">
        <ele>150.0</ele>
        <time>2022-03-31T07:08:53Z</time>
      </trkpt>
      <trkpt lat="47.554016" lon="1.7254951">
        <ele>150.0</ele>
        <time>2022-03-31T07:08:54Z</time>
      </trkpt>
      <trkpt lat="47.554016" lon="1.7255064">
        <ele>149.0</ele>
        <time>2022-03-31T07:08:55Z</time>
      </trkpt>
      <trkpt lat="47.55402" lon="1.7255223">
        <ele>149.0</ele>
        <time>2022-03-31T07:08:56Z</time>
      </trkpt>
      <trkpt lat="47.55402" lon="1.7255402">
        <ele>148.0</ele>
        <time>2022-03-31T07:08:57Z</time>
      </trkpt>
      <trkpt lat="47.55402" lon="1.7255489">
        <ele>148.0</ele>
        <time>2022-03-31T07:08:58Z</time>
      </trkpt>
      <trkpt lat="47.55402" lon="1.725559">
        <ele>148.0</ele>
        <time>2022-03-31T07:08:59Z</time>
      </trkpt>
      <trkpt lat="47.554024" lon="1.72557">
        <ele>148.0</ele>
        <time>2022-03-31T07:09:00Z</time>
      </trkpt>
      <trkpt lat="47.554028" lon="1.7255776">
        <ele>148.0</ele>
        <time>2022-03-31T07:09:01Z</time>
      </trkpt>
      <trkpt lat="47.55403" lon="1.7255821">
        <ele>148.0</ele>
        <time>2022-03-31T07:09:02Z</time>
      </trkpt>
      <trkpt lat="47.55403" lon="1.7255911">
        <ele>147.0</ele>
        <time>2022-03-31T07:09:03Z</time>
      </trkpt>
      <trkpt lat="47.554035" lon="1.7256038">
        <ele>147.0</ele>
        <time>2022-03-31T07:09:04Z</time>
      </trkpt>
      <trkpt lat="47.554035" lon="1.725619">
        <ele>147.0</ele>
        <time>2022-03-31T07:09:05Z</time>
      </trkpt>
      <trkpt lat="47.55404" lon="1.7256346">
        <ele>146.0</ele>
        <time>2022-03-31T07:09:06Z</time>
      </trkpt>
      <trkpt lat="47.554047" lon="1.72565">
        <ele>146.0</ele>
        <time>2022-03-31T07:09:07Z</time>
      </trkpt>
      <trkpt lat="47.55405" lon="1.7256632">
        <ele>146.0</ele>
        <time>2022-03-31T07:09:08Z</time>
      </trkpt>
      <trkpt lat="47.554054" lon="1.7256747">
        <ele>145.0</ele>
        <time>2022-03-31T07:09:09Z</time>
      </trkpt>
      <trkpt lat="47.554058" lon="1.7256896">
        <ele>145.0</ele>
        <time>2022-03-31T07:09:10Z</time>
      </trkpt>
      <trkpt lat="47.55406" lon="1.7257117">
        <ele>145.0</ele>
        <time>2022-03-31T07:09:11Z</time>
      </trkpt>
      <trkpt lat="47.55406" lon="1.7257338">
        <ele>144.0</ele>
        <time>2022-03-31T07:09:12Z</time>
      </trkpt>
      <trkpt lat="47.55407" lon="1.725747">
        <ele>144.0</ele>
        <time>2022-03-31T07:09:13Z</time>
      </trkpt>
      <trkpt lat="47.554073" lon="1.725759">
        <ele>143.0</ele>
        <time>2022-03-31T07:09:14Z</time>
      </trkpt>
      <trkpt lat="47.554077" lon="1.725773">
        <ele>143.0</ele>
        <time>2022-03-31T07:09:15Z</time>
      </trkpt>
      <trkpt lat="47.55408" lon="1.7257831">
        <ele>143.0</ele>
        <time>2022-03-31T07:09:16Z</time>
      </trkpt>
      <trkpt lat="47.55408" lon="1.7257998">
        <ele>142.0</ele>
        <time>2022-03-31T07:09:17Z</time>
      </trkpt>
      <trkpt lat="47.554085" lon="1.7258159">
        <ele>142.0</ele>
        <time>2022-03-31T07:09:18Z</time>
      </trkpt>
      <trkpt lat="47.554085" lon="1.7258272">
        <ele>142.0</ele>
        <time>2022-03-31T07:09:19Z</time>
      </trkpt>
      <trkpt lat="47.55409" lon="1.7258359">
        <ele>142.0</ele>
        <time>2022-03-31T07:09:20Z</time>
      </trkpt>
      <trkpt lat="47.554092" lon="1.7258489">
        <ele>142.0</ele>
        <time>2022-03-31T07:09:21Z</time>
      </trkpt>
      <trkpt lat="47.554092" lon="1.7258689">
        <ele>142.0</ele>
        <time>2022-03-31T07:09:22Z</time>
      </trkpt>
      <trkpt lat="47.554096" lon="1.7258822">
        <ele>143.0</ele>
        <time>2022-03-31T07:09:23Z</time>
      </trkpt>
      <trkpt lat="47.5541" lon="1.7258947">
        <ele>143.0</ele>
        <time>2022-03-31T07:09:24Z</time>
      </trkpt>
      <trkpt lat="47.554104" lon="1.7259107">
        <ele>143.0</ele>
        <time>2022-03-31T07:09:25Z</time>
      </trkpt>
      <trkpt lat="47.554108" lon="1.7259277">
        <ele>143.0</ele>
        <time>2022-03-31T07:09:26Z</time>
      </trkpt>
      <trkpt lat="47.55411" lon="1.7259448">
        <ele>143.0</ele>
        <time>2022-03-31T07:09:27Z</time>
      </trkpt>
      <trkpt lat="47.55411" lon="1.7259588">
        <ele>143.0</ele>
        <time>2022-03-31T07:09:28Z</time>
      </trkpt>
      <trkpt lat="47.55411" lon="1.7259743">
        <ele>143.0</ele>
        <time>2022-03-31T07:09:29Z</time>
      </trkpt>
      <trkpt lat="47.554115" lon="1.7259872">
        <ele>142.0</ele>
        <time>2022-03-31T07:09:30Z</time>
      </trkpt>
      <trkpt lat="47.554115" lon="1.7260011">
        <ele>142.0</ele>
        <time>2022-03-31T07:09:31Z</time>
      </trkpt>
      <trkpt lat="47.554123" lon="1.7260185">
        <ele>142.0</ele>
        <time>2022-03-31T07:09:32Z</time>
      </trkpt>
      <trkpt lat="47.55413" lon="1.7260355">
        <ele>142.0</ele>
        <time>2022-03-31T07:09:33Z</time>
      </trkpt>
      <trkpt lat="47.554134" lon="1.7260509">
        <ele>142.0</ele>
        <time>2022-03-31T07:09:34Z</time>
      </trkpt>
      <trkpt lat="47.55414" lon="1.7260633">
        <ele>142.0</ele>
        <time>2022-03-31T07:09:35Z</time>
      </trkpt>
      <trkpt lat="47.554142" lon="1.7260818">
        <ele>142.0</ele>
        <time>2022-03-31T07:09:36Z</time>
      </trkpt>
      <trkpt lat="47.554142" lon="1.7261047">
        <ele>142.0</ele>
        <time>2022-03-31T07:09:37Z</time>
      </trkpt>
      <trkpt lat="47.55415" lon="1.7261254">
        <ele>141.0</ele>
        <time>2022-03-31T07:09:38Z</time>
      </trkpt>
      <trkpt lat="47.55415" lon="1.7261457">
        <ele>142.0</ele>
        <time>2022-03-31T07:09:39Z</time>
      </trkpt>
      <trkpt lat="47.55415" lon="1.7261629">
        <ele>141.0</ele>
        <time>2022-03-31T07:09:40Z</time>
      </trkpt>
      <trkpt lat="47.554157" lon="1.7261857">
        <ele>141.0</ele>
        <time>2022-03-31T07:09:41Z</time>
      </trkpt>
      <trkpt lat="47.554165" lon="1.7262043">
        <ele>140.0</ele>
        <time>2022-03-31T07:09:42Z</time>
      </trkpt>
      <trkpt lat="47.55417" lon="1.7262261">
        <ele>140.0</ele>
        <time>2022-03-31T07:09:43Z</time>
      </trkpt>
      <trkpt lat="47.554173" lon="1.7262406">
        <ele>140.0</ele>
        <time>2022-03-31T07:09:44Z</time>
      </trkpt>
      <trkpt lat="47.554176" lon="1.7262597">
        <ele>140.0</ele>
        <time>2022-03-31T07:09:45Z</time>
      </trkpt>
      <trkpt lat="47.554176" lon="1.7262806">
        <ele>140.0</ele>
        <time>2022-03-31T07:09:46Z</time>
      </trkpt>
      <trkpt lat="47.554176" lon="1.7263004">
        <ele>139.0</ele>
        <time>2022-03-31T07:09:47Z</time>
      </trkpt>
      <trkpt lat="47.55418" lon="1.7263155">
        <ele>139.0</ele>
        <time>2022-03-31T07:09:48Z</time>
      </trkpt>
      <trkpt lat="47.554184" lon="1.7263331">
        <ele>138.0</ele>
        <time>2022-03-31T07:09:49Z</time>
      </trkpt>
      <trkpt lat="47.554188" lon="1.726353">
        <ele>138.0</ele>
        <time>2022-03-31T07:09:50Z</time>
      </trkpt>
      <trkpt lat="47.55419" lon="1.7263741">
        <ele>138.0</ele>
        <time>2022-03-31T07:09:51Z</time>
      </trkpt>
      <trkpt lat="47.55419" lon="1.7263942">
        <ele>138.0</ele>
        <time>2022-03-31T07:09:52Z</time>
      </trkpt>
      <trkpt lat="47.554195" lon="1.726408">
        <ele>138.0</ele>
        <time>2022-03-31T07:09:53Z</time>
      </trkpt>
      <trkpt lat="47.554195" lon="1.7264247">
        <ele>138.0</ele>
        <time>2022-03-31T07:09:54Z</time>
      </trkpt>
      <trkpt lat="47.554195" lon="1.7264401">
        <ele>138.0</ele>
        <time>2022-03-31T07:09:55Z</time>
      </trkpt>
      <trkpt lat="47.554195" lon="1.7264556">
        <ele>138.0</ele>
        <time>2022-03-31T07:09:56Z</time>
      </trkpt>
      <trkpt lat="47.55419" lon="1.726474">
        <ele>139.0</ele>
        <time>2022-03-31T07:09:57Z</time>
      </trkpt>
      <trkpt lat="47.554195" lon="1.7264872">
        <ele>139.0</ele>
        <time>2022-03-31T07:09:58Z</time>
      </trkpt>
      <trkpt lat="47.5542" lon="1.7265012">
        <ele>139.0</ele>
        <time>2022-03-31T07:09:59Z</time>
      </trkpt>
      <trkpt lat="47.5542" lon="1.7265232">
        <ele>139.0</ele>
        <time>2022-03-31T07:10:00Z</time>
      </trkpt>
      <trkpt lat="47.554203" lon="1.726542">
        <ele>139.0</ele>
        <time>2022-03-31T07:10:01Z</time>
      </trkpt>
      <trkpt lat="47.554207" lon="1.7265594">
        <ele>139.0</ele>
        <time>2022-03-31T07:10:02Z</time>
      </trkpt>
      <trkpt lat="47.554207" lon="1.7265795">
        <ele>139.0</ele>
        <time>2022-03-31T07:10:03Z</time>
      </trkpt>
      <trkpt lat="47.554207" lon="1.7265983">
        <ele>140.0</ele>
        <time>2022-03-31T07:10:04Z</time>
      </trkpt>
      <trkpt lat="47.55421" lon="1.7266157">
        <ele>140.0</ele>
        <time>2022-03-31T07:10:05Z</time>
      </trkpt>
      <trkpt lat="47.55421" lon="1.7266335">
        <ele>140.0</ele>
        <time>2022-03-31T07:10:06Z</time>
      </trkpt>
      <trkpt lat="47.554214" lon="1.726656">
        <ele>140.0</ele>
        <time>2022-03-31T07:10:07Z</time>
      </trkpt>
      <trkpt lat="47.554214" lon="1.7266773">
        <ele>140.0</ele>
        <time>2022-03-31T07:10:08Z</time>
      </trkpt>
      <trkpt lat="47.554214" lon="1.726696">
        <ele>140.0</ele>
        <time>2022-03-31T07:10:09Z</time>
      </trkpt>
      <trkpt lat="47.55422" lon="1.7267151">
        <ele>140.0</ele>
        <time>2022-03-31T07:10:10Z</time>
      </trkpt>
      <trkpt lat="47.554222" lon="1.7267329">
        <ele>140.0</ele>
        <time>2022-03-31T07:10:11Z</time>
      </trkpt>
      <trkpt lat="47.554222" lon="1.7267485">
        <ele>140.0</ele>
        <time>2022-03-31T07:10:12Z</time>
      </trkpt>
      <trkpt lat="47.554226" lon="1.7267649">
        <ele>140.0</ele>
        <time>2022-03-31T07:10:13Z</time>
      </trkpt>
      <trkpt lat="47.554226" lon="1.7267852">
        <ele>140.0</ele>
        <time>2022-03-31T07:10:14Z</time>
      </trkpt>
      <trkpt lat="47.55423" lon="1.7268074">
        <ele>140.0</ele>
        <time>2022-03-31T07:10:15Z</time>
      </trkpt>
      <trkpt lat="47.55423" lon="1.7268257">
        <ele>140.0</ele>
        <time>2022-03-31T07:10:16Z</time>
      </trkpt>
      <trkpt lat="47.554234" lon="1.7268484">
        <ele>140.0</ele>
        <time>2022-03-31T07:10:17Z</time>
      </trkpt>
      <trkpt lat="47.554237" lon="1.726862">
        <ele>140.0</ele>
        <time>2022-03-31T07:10:18Z</time>
      </trkpt>
      <trkpt lat="47.554245" lon="1.7268834">
        <ele>140.0</ele>
        <time>2022-03-31T07:10:19Z</time>
      </trkpt>
      <trkpt lat="47.55425" lon="1.7269057">
        <ele>140.0</ele>
        <time>2022-03-31T07:10:20Z</time>
      </trkpt>
      <trkpt lat="47.554256" lon="1.7269278">
        <ele>140.0</ele>
        <time>2022-03-31T07:10:21Z</time>
      </trkpt>
      <trkpt lat="47.55426" lon="1.7269517">
        <ele>140.0</ele>
        <time>2022-03-31T07:10:22Z</time>
      </trkpt>
      <trkpt lat="47.554264" lon="1.7269723">
        <ele>141.0</ele>
        <time>2022-03-31T07:10:23Z</time>
      </trkpt>
      <trkpt lat="47.554268" lon="1.7269953">
        <ele>141.0</ele>
        <time>2022-03-31T07:10:24Z</time>
      </trkpt>
      <trkpt lat="47.55427" lon="1.7270168">
        <ele>142.0</ele>
        <time>2022-03-31T07:10:25Z</time>
      </trkpt>
      <trkpt lat="47.55428" lon="1.727035">
        <ele>142.0</ele>
        <time>2022-03-31T07:10:26Z</time>
      </trkpt>
      <trkpt lat="47.554287" lon="1.7270482">
        <ele>143.0</ele>
        <time>2022-03-31T07:10:27Z</time>
      </trkpt>
      <trkpt lat="47.554295" lon="1.7270616">
        <ele>143.0</ele>
        <time>2022-03-31T07:10:28Z</time>
      </trkpt>
      <trkpt lat="47.554306" lon="1.7270787">
        <ele>143.0</ele>
        <time>2022-03-31T07:10:29Z</time>
      </trkpt>
      <trkpt lat="47.554317" lon="1.7270945">
        <ele>144.0</ele>
        <time>2022-03-31T07:10:30Z</time>
      </trkpt>
      <trkpt lat="47.554325" lon="1.7271118">
        <ele>144.0</ele>
        <time>2022-03-31T07:10:31Z</time>
      </trkpt>
      <trkpt lat="47.554333" lon="1.727129">
        <ele>144.0</ele>
        <time>2022-03-31T07:10:32Z</time>
      </trkpt>
      <trkpt lat="47.55434" lon="1.7271439">
        <ele>144.0</ele>
        <time>2022-03-31T07:10:33Z</time>
      </trkpt>
      <trkpt lat="47.554344" lon="1.7271622">
        <ele>145.0</ele>
        <time>2022-03-31T07:10:34Z</time>
      </trkpt>
      <trkpt lat="47.554348" lon="1.727181">
        <ele>144.0</ele>
        <time>2022-03-31T07:10:35Z</time>
      </trkpt>
      <trkpt lat="47.554356" lon="1.7272024">
        <ele>145.0</ele>
        <time>2022-03-31T07:10:36Z</time>
      </trkpt>
      <trkpt lat="47.55436" lon="1.727223">
        <ele>145.0</ele>
        <time>2022-03-31T07:10:37Z</time>
      </trkpt>
      <trkpt lat="47.554367" lon="1.7272446">
        <ele>146.0</ele>
        <time>2022-03-31T07:10:38Z</time>
      </trkpt>
      <trkpt lat="47.554375" lon="1.7272629">
        <ele>146.0</ele>
        <time>2022-03-31T07:10:39Z</time>
      </trkpt>
      <trkpt lat="47.55438" lon="1.7272818">
        <ele>146.0</ele>
        <time>2022-03-31T07:10:40Z</time>
      </trkpt>
      <trkpt lat="47.55437" lon="1.7273041">
        <ele>146.0</ele>
        <time>2022-03-31T07:10:41Z</time>
      </trkpt>
      <trkpt lat="47.554363" lon="1.7273265">
        <ele>146.0</ele>
        <time>2022-03-31T07:10:42Z</time>
      </trkpt>
      <trkpt lat="47.55436" lon="1.7273493">
        <ele>146.0</ele>
        <time>2022-03-31T07:10:43Z</time>
      </trkpt>
      <trkpt lat="47.554356" lon="1.7273726">
        <ele>145.0</ele>
        <time>2022-03-31T07:10:44Z</time>
      </trkpt>
      <trkpt lat="47.554348" lon="1.7273967">
        <ele>145.0</ele>
        <time>2022-03-31T07:10:45Z</time>
      </trkpt>
      <trkpt lat="47.55434" lon="1.7274168">
        <ele>145.0</ele>
        <time>2022-03-31T07:10:46Z</time>
      </trkpt>
      <trkpt lat="47.55434" lon="1.7274381">
        <ele>146.0</ele>
        <time>2022-03-31T07:10:47Z</time>
      </trkpt>
      <trkpt lat="47.554337" lon="1.7274575">
        <ele>146.0</ele>
        <time>2022-03-31T07:10:48Z</time>
      </trkpt>
      <trkpt lat="47.554333" lon="1.7274791">
        <ele>146.0</ele>
        <time>2022-03-31T07:10:49Z</time>
      </trkpt>
      <trkpt lat="47.554325" lon="1.7274972">
        <ele>146.0</ele>
        <time>2022-03-31T07:10:50Z</time>
      </trkpt>
      <trkpt lat="47.554317" lon="1.7275133">
        <ele>146.0</ele>
        <time>2022-03-31T07:10:51Z</time>
      </trkpt>
      <trkpt lat="47.55431" lon="1.7275252">
        <ele>146.0</ele>
        <time>2022-03-31T07:10:52Z</time>
      </trkpt>
      <trkpt lat="47.554302" lon="1.7275355">
        <ele>146.0</ele>
        <time>2022-03-31T07:10:53Z</time>
      </trkpt>
      <trkpt lat="47.554295" lon="1.7275443">
        <ele>146.0</ele>
        <time>2022-03-31T07:10:54Z</time>
      </trkpt>
      <trkpt lat="47.55429" lon="1.7275608">
        <ele>146.0</ele>
        <time>2022-03-31T07:10:55Z</time>
      </trkpt>
      <trkpt lat="47.554287" lon="1.7275794">
        <ele>146.0</ele>
        <time>2022-03-31T07:10:56Z</time>
      </trkpt>
      <trkpt lat="47.554283" lon="1.7275996">
        <ele>146.0</ele>
        <time>2022-03-31T07:10:57Z</time>
      </trkpt>
      <trkpt lat="47.554283" lon="1.7276202">
        <ele>147.0</ele>
        <time>2022-03-31T07:10:58Z</time>
      </trkpt>
      <trkpt lat="47.55428" lon="1.7276372">
        <ele>147.0</ele>
        <time>2022-03-31T07:10:59Z</time>
      </trkpt>
      <trkpt lat="47.55428" lon="1.7276505">
        <ele>147.0</ele>
        <time>2022-03-31T07:11:00Z</time>
      </trkpt>
      <trkpt lat="47.554276" lon="1.7276639">
        <ele>147.0</ele>
        <time>2022-03-31T07:11:01Z</time>
      </trkpt>
      <trkpt lat="47.554276" lon="1.7276639">
        <ele>147.0</ele>
        <time>2022-03-31T07:11:02Z</time>
      </trkpt>
      <trkpt lat="47.55427" lon="1.7276918">
        <ele>147.0</ele>
        <time>2022-03-31T07:11:03Z</time>
      </trkpt>
      <trkpt lat="47.554268" lon="1.7277105">
        <ele>147.0</ele>
        <time>2022-03-31T07:11:04Z</time>
      </trkpt>
      <trkpt lat="47.554264" lon="1.727727">
        <ele>147.0</ele>
        <time>2022-03-31T07:11:05Z</time>
      </trkpt>
      <trkpt lat="47.554256" lon="1.7277437">
        <ele>147.0</ele>
        <time>2022-03-31T07:11:06Z</time>
      </trkpt>
      <trkpt lat="47.554253" lon="1.7277637">
        <ele>147.0</ele>
        <time>2022-03-31T07:11:07Z</time>
      </trkpt>
      <trkpt lat="47.55425" lon="1.7277828">
        <ele>147.0</ele>
        <time>2022-03-31T07:11:08Z</time>
      </trkpt>
      <trkpt lat="47.554245" lon="1.7278033">
        <ele>147.0</ele>
        <time>2022-03-31T07:11:09Z</time>
      </trkpt>
      <trkpt lat="47.554245" lon="1.7278244">
        <ele>148.0</ele>
        <time>2022-03-31T07:11:10Z</time>
      </trkpt>
      <trkpt lat="47.55424" lon="1.7278438">
        <ele>148.0</ele>
        <time>2022-03-31T07:11:11Z</time>
      </trkpt>
      <trkpt lat="47.55424" lon="1.7278627">
        <ele>148.0</ele>
        <time>2022-03-31T07:11:12Z</time>
      </trkpt>
      <trkpt lat="47.554237" lon="1.7278814">
        <ele>148.0</ele>
        <time>2022-03-31T07:11:13Z</time>
      </trkpt>
      <trkpt lat="47.554237" lon="1.7279037">
        <ele>148.0</ele>
        <time>2022-03-31T07:11:14Z</time>
      </trkpt>
      <trkpt lat="47.554234" lon="1.7279263">
        <ele>148.0</ele>
        <time>2022-03-31T07:11:15Z</time>
      </trkpt>
      <trkpt lat="47.554226" lon="1.7279489">
        <ele>148.0</ele>
        <time>2022-03-31T07:11:16Z</time>
      </trkpt>
      <trkpt lat="47.554222" lon="1.727967">
        <ele>148.0</ele>
        <time>2022-03-31T07:11:17Z</time>
      </trkpt>
      <trkpt lat="47.55422" lon="1.7279866">
        <ele>148.0</ele>
        <time>2022-03-31T07:11:18Z</time>
      </trkpt>
      <trkpt lat="47.554214" lon="1.7280064">
        <ele>148.0</ele>
        <time>2022-03-31T07:11:19Z</time>
      </trkpt>
      <trkpt lat="47.55421" lon="1.7280294">
        <ele>148.0</ele>
        <time>2022-03-31T07:11:20Z</time>
      </trkpt>
      <trkpt lat="47.554207" lon="1.7280463">
        <ele>149.0</ele>
        <time>2022-03-31T07:11:21Z</time>
      </trkpt>
      <trkpt lat="47.554203" lon="1.7280616">
        <ele>148.0</ele>
        <time>2022-03-31T07:11:22Z</time>
      </trkpt>
      <trkpt lat="47.554195" lon="1.7280788">
        <ele>149.0</ele>
        <time>2022-03-31T07:11:23Z</time>
      </trkpt>
      <trkpt lat="47.554195" lon="1.7280931">
        <ele>148.0</ele>
        <time>2022-03-31T07:11:24Z</time>
      </trkpt>
      <trkpt lat="47.554188" lon="1.7281119">
        <ele>148.0</ele>
        <time>2022-03-31T07:11:25Z</time>
      </trkpt>
      <trkpt lat="47.554188" lon="1.7281251">
        <ele>148.0</ele>
        <time>2022-03-31T07:11:26Z</time>
      </trkpt>
      <trkpt lat="47.554184" lon="1.7281371">
        <ele>149.0</ele>
        <time>2022-03-31T07:11:27Z</time>
      </trkpt>
      <trkpt lat="47.55418" lon="1.7281488">
        <ele>149.0</ele>
        <time>2022-03-31T07:11:28Z</time>
      </trkpt>
      <trkpt lat="47.554176" lon="1.7281632">
        <ele>148.0</ele>
        <time>2022-03-31T07:11:29Z</time>
      </trkpt>
      <trkpt lat="47.554176" lon="1.7281781">
        <ele>148.0</ele>
        <time>2022-03-31T07:11:30Z</time>
      </trkpt>
      <trkpt lat="47.554173" lon="1.7281946">
        <ele>148.0</ele>
        <time>2022-03-31T07:11:31Z</time>
      </trkpt>
      <trkpt lat="47.55417" lon="1.7282115">
        <ele>148.0</ele>
        <time>2022-03-31T07:11:32Z</time>
      </trkpt>
      <trkpt lat="47.55417" lon="1.7282294">
        <ele>148.0</ele>
        <time>2022-03-31T07:11:33Z</time>
      </trkpt>
      <trkpt lat="47.554165" lon="1.7282425">
        <ele>148.0</ele>
        <time>2022-03-31T07:11:34Z</time>
      </trkpt>
      <trkpt lat="47.554165" lon="1.7282584">
        <ele>148.0</ele>
        <time>2022-03-31T07:11:35Z</time>
      </trkpt>
      <trkpt lat="47.55416" lon="1.7282755">
        <ele>147.0</ele>
        <time>2022-03-31T07:11:36Z</time>
      </trkpt>
      <trkpt lat="47.554157" lon="1.7282913">
        <ele>147.0</ele>
        <time>2022-03-31T07:11:37Z</time>
      </trkpt>
      <trkpt lat="47.554153" lon="1.7283082">
        <ele>148.0</ele>
        <time>2022-03-31T07:11:38Z</time>
      </trkpt>
      <trkpt lat="47.55415" lon="1.7283248">
        <ele>148.0</ele>
        <time>2022-03-31T07:11:39Z</time>
      </trkpt>
      <trkpt lat="47.554146" lon="1.7283449">
        <ele>148.0</ele>
        <time>2022-03-31T07:11:40Z</time>
      </trkpt>
      <trkpt lat="47.554142" lon="1.7283657">
        <ele>148.0</ele>
        <time>2022-03-31T07:11:41Z</time>
      </trkpt>
      <trkpt lat="47.554134" lon="1.7283838">
        <ele>148.0</ele>
        <time>2022-03-31T07:11:42Z</time>
      </trkpt>
      <trkpt lat="47.554134" lon="1.7284036">
        <ele>147.0</ele>
        <time>2022-03-31T07:11:43Z</time>
      </trkpt>
      <trkpt lat="47.554134" lon="1.7284185">
        <ele>147.0</ele>
        <time>2022-03-31T07:11:44Z</time>
      </trkpt>
      <trkpt lat="47.554134" lon="1.728437">
        <ele>147.0</ele>
        <time>2022-03-31T07:11:45Z</time>
      </trkpt>
      <trkpt lat="47.55413" lon="1.7284567">
        <ele>147.0</ele>
        <time>2022-03-31T07:11:46Z</time>
      </trkpt>
      <trkpt lat="47.554127" lon="1.7284743">
        <ele>147.0</ele>
        <time>2022-03-31T07:11:47Z</time>
      </trkpt>
      <trkpt lat="47.554123" lon="1.7284942">
        <ele>147.0</ele>
        <time>2022-03-31T07:11:48Z</time>
      </trkpt>
      <trkpt lat="47.55412" lon="1.7285106">
        <ele>147.0</ele>
        <time>2022-03-31T07:11:49Z</time>
      </trkpt>
      <trkpt lat="47.554115" lon="1.7285286">
        <ele>147.0</ele>
        <time>2022-03-31T07:11:50Z</time>
      </trkpt>
      <trkpt lat="47.554115" lon="1.728548">
        <ele>147.0</ele>
        <time>2022-03-31T07:11:51Z</time>
      </trkpt>
      <trkpt lat="47.554108" lon="1.7285683">
        <ele>147.0</ele>
        <time>2022-03-31T07:11:52Z</time>
      </trkpt>
      <trkpt lat="47.554104" lon="1.7285919">
        <ele>147.0</ele>
        <time>2022-03-31T07:11:53Z</time>
      </trkpt>
      <trkpt lat="47.5541" lon="1.7286129">
        <ele>147.0</ele>
        <time>2022-03-31T07:11:54Z</time>
      </trkpt>
      <trkpt lat="47.554096" lon="1.7286348">
        <ele>147.0</ele>
        <time>2022-03-31T07:11:55Z</time>
      </trkpt>
      <trkpt lat="47.554096" lon="1.7286565">
        <ele>147.0</ele>
        <time>2022-03-31T07:11:56Z</time>
      </trkpt>
      <trkpt lat="47.554092" lon="1.7286769">
        <ele>147.0</ele>
        <time>2022-03-31T07:11:57Z</time>
      </trkpt>
      <trkpt lat="47.55409" lon="1.7286998">
        <ele>147.0</ele>
        <time>2022-03-31T07:11:58Z</time>
      </trkpt>
      <trkpt lat="47.554085" lon="1.7287208">
        <ele>147.0</ele>
        <time>2022-03-31T07:11:59Z</time>
      </trkpt>
      <trkpt lat="47.55408" lon="1.7287397">
        <ele>147.0</ele>
        <time>2022-03-31T07:12:00Z</time>
      </trkpt>
      <trkpt lat="47.55408" lon="1.7287587">
        <ele>147.0</ele>
        <time>2022-03-31T07:12:01Z</time>
      </trkpt>
      <trkpt lat="47.554077" lon="1.7287765">
        <ele>147.0</ele>
        <time>2022-03-31T07:12:02Z</time>
      </trkpt>
      <trkpt lat="47.55407" lon="1.7287948">
        <ele>147.0</ele>
        <time>2022-03-31T07:12:03Z</time>
      </trkpt>
      <trkpt lat="47.55407" lon="1.7288109">
        <ele>147.0</ele>
        <time>2022-03-31T07:12:04Z</time>
      </trkpt>
      <trkpt lat="47.554066" lon="1.7288287">
        <ele>148.0</ele>
        <time>2022-03-31T07:12:05Z</time>
      </trkpt>
      <trkpt lat="47.55406" lon="1.7288526">
        <ele>147.0</ele>
        <time>2022-03-31T07:12:06Z</time>
      </trkpt>
      <trkpt lat="47.554058" lon="1.7288713">
        <ele>147.0</ele>
        <time>2022-03-31T07:12:07Z</time>
      </trkpt>
      <trkpt lat="47.554054" lon="1.7288916">
        <ele>147.0</ele>
        <time>2022-03-31T07:12:08Z</time>
      </trkpt>
      <trkpt lat="47.554054" lon="1.728911">
        <ele>147.0</ele>
        <time>2022-03-31T07:12:09Z</time>
      </trkpt>
      <trkpt lat="47.55405" lon="1.7289295">
        <ele>147.0</ele>
        <time>2022-03-31T07:12:10Z</time>
      </trkpt>
      <trkpt lat="47.55405" lon="1.7289513">
        <ele>147.0</ele>
        <time>2022-03-31T07:12:11Z</time>
      </trkpt>
      <trkpt lat="47.554047" lon="1.7289717">
        <ele>147.0</ele>
        <time>2022-03-31T07:12:12Z</time>
      </trkpt>
      <trkpt lat="47.554043" lon="1.7289922">
        <ele>147.0</ele>
        <time>2022-03-31T07:12:13Z</time>
      </trkpt>
      <trkpt lat="47.554035" lon="1.7290117">
        <ele>147.0</ele>
        <time>2022-03-31T07:12:14Z</time>
      </trkpt>
      <trkpt lat="47.55403" lon="1.7290303">
        <ele>148.0</ele>
        <time>2022-03-31T07:12:15Z</time>
      </trkpt>
      <trkpt lat="47.554028" lon="1.7290491">
        <ele>148.0</ele>
        <time>2022-03-31T07:12:16Z</time>
      </trkpt>
      <trkpt lat="47.55402" lon="1.7290682">
        <ele>147.0</ele>
        <time>2022-03-31T07:12:17Z</time>
      </trkpt>
      <trkpt lat="47.554016" lon="1.7290902">
        <ele>148.0</ele>
        <time>2022-03-31T07:12:18Z</time>
      </trkpt>
      <trkpt lat="47.554012" lon="1.7291113">
        <ele>148.0</ele>
        <time>2022-03-31T07:12:19Z</time>
      </trkpt>
      <trkpt lat="47.554005" lon="1.7291296">
        <ele>148.0</ele>
        <time>2022-03-31T07:12:20Z</time>
      </trkpt>
      <trkpt lat="47.554" lon="1.729148">
        <ele>148.0</ele>
        <time>2022-03-31T07:12:21Z</time>
      </trkpt>
      <trkpt lat="47.553997" lon="1.729169">
        <ele>148.0</ele>
        <time>2022-03-31T07:12:22Z</time>
      </trkpt>
      <trkpt lat="47.553993" lon="1.7291943">
        <ele>148.0</ele>
        <time>2022-03-31T07:12:23Z</time>
      </trkpt>
      <trkpt lat="47.553986" lon="1.7292159">
        <ele>148.0</ele>
        <time>2022-03-31T07:12:24Z</time>
      </trkpt>
      <trkpt lat="47.55398" lon="1.7292327">
        <ele>148.0</ele>
        <time>2022-03-31T07:12:25Z</time>
      </trkpt>
      <trkpt lat="47.553974" lon="1.7292454">
        <ele>148.0</ele>
        <time>2022-03-31T07:12:26Z</time>
      </trkpt>
      <trkpt lat="47.553963" lon="1.729257">
        <ele>149.0</ele>
        <time>2022-03-31T07:12:27Z</time>
      </trkpt>
      <trkpt lat="47.55395" lon="1.729268">
        <ele>149.0</ele>
        <time>2022-03-31T07:12:28Z</time>
      </trkpt>
      <trkpt lat="47.553944" lon="1.7292854">
        <ele>149.0</ele>
        <time>2022-03-31T07:12:29Z</time>
      </trkpt>
      <trkpt lat="47.553936" lon="1.7293025">
        <ele>149.0</ele>
        <time>2022-03-31T07:12:30Z</time>
      </trkpt>
      <trkpt lat="47.55393" lon="1.7293135">
        <ele>149.0</ele>
        <time>2022-03-31T07:12:31Z</time>
      </trkpt>
      <trkpt lat="47.55392" lon="1.7293274">
        <ele>150.0</ele>
        <time>2022-03-31T07:12:32Z</time>
      </trkpt>
      <trkpt lat="47.553913" lon="1.7293411">
        <ele>150.0</ele>
        <time>2022-03-31T07:12:33Z</time>
      </trkpt>
      <trkpt lat="47.553905" lon="1.729354">
        <ele>150.0</ele>
        <time>2022-03-31T07:12:34Z</time>
      </trkpt>
      <trkpt lat="47.553898" lon="1.7293637">
        <ele>150.0</ele>
        <time>2022-03-31T07:12:35Z</time>
      </trkpt>
      <trkpt lat="47.553894" lon="1.7293738">
        <ele>150.0</ele>
        <time>2022-03-31T07:12:36Z</time>
      </trkpt>
      <trkpt lat="47.55389" lon="1.7293845">
        <ele>151.0</ele>
        <time>2022-03-31T07:12:37Z</time>
      </trkpt>
      <trkpt lat="47.55388" lon="1.7293973">
        <ele>150.0</ele>
        <time>2022-03-31T07:12:38Z</time>
      </trkpt>
      <trkpt lat="47.55387" lon="1.7294055">
        <ele>150.0</ele>
        <time>2022-03-31T07:12:39Z</time>
      </trkpt>
      <trkpt lat="47.553864" lon="1.7294159">
        <ele>151.0</ele>
        <time>2022-03-31T07:12:40Z</time>
      </trkpt>
      <trkpt lat="47.553856" lon="1.7294234">
        <ele>151.0</ele>
        <time>2022-03-31T07:12:41Z</time>
      </trkpt>
      <trkpt lat="47.553844" lon="1.7294266">
        <ele>151.0</ele>
        <time>2022-03-31T07:12:42Z</time>
      </trkpt>
      <trkpt lat="47.553833" lon="1.7294239">
        <ele>151.0</ele>
        <time>2022-03-31T07:12:43Z</time>
      </trkpt>
      <trkpt lat="47.553825" lon="1.7294219">
        <ele>151.0</ele>
        <time>2022-03-31T07:12:44Z</time>
      </trkpt>
      <trkpt lat="47.553818" lon="1.7294233">
        <ele>150.0</ele>
        <time>2022-03-31T07:12:45Z</time>
      </trkpt>
      <trkpt lat="47.553806" lon="1.7294247">
        <ele>150.0</ele>
        <time>2022-03-31T07:12:46Z</time>
      </trkpt>
      <trkpt lat="47.5538" lon="1.729425">
        <ele>150.0</ele>
        <time>2022-03-31T07:12:47Z</time>
      </trkpt>
      <trkpt lat="47.55379" lon="1.7294265">
        <ele>151.0</ele>
        <time>2022-03-31T07:12:48Z</time>
      </trkpt>
      <trkpt lat="47.55378" lon="1.7294294">
        <ele>151.0</ele>
        <time>2022-03-31T07:12:49Z</time>
      </trkpt>
      <trkpt lat="47.55377" lon="1.7294325">
        <ele>151.0</ele>
        <time>2022-03-31T07:12:50Z</time>
      </trkpt>
      <trkpt lat="47.553753" lon="1.7294335">
        <ele>151.0</ele>
        <time>2022-03-31T07:12:51Z</time>
      </trkpt>
      <trkpt lat="47.55374" lon="1.7294369">
        <ele>152.0</ele>
        <time>2022-03-31T07:12:52Z</time>
      </trkpt>
      <trkpt lat="47.55373" lon="1.7294385">
        <ele>152.0</ele>
        <time>2022-03-31T07:12:53Z</time>
      </trkpt>
      <trkpt lat="47.553722" lon="1.7294396">
        <ele>151.0</ele>
        <time>2022-03-31T07:12:54Z</time>
      </trkpt>
      <trkpt lat="47.55371" lon="1.7294457">
        <ele>151.0</ele>
        <time>2022-03-31T07:12:55Z</time>
      </trkpt>
      <trkpt lat="47.5537" lon="1.7294486">
        <ele>151.0</ele>
        <time>2022-03-31T07:12:56Z</time>
      </trkpt>
      <trkpt lat="47.553688" lon="1.7294494">
        <ele>151.0</ele>
        <time>2022-03-31T07:12:57Z</time>
      </trkpt>
      <trkpt lat="47.55368" lon="1.7294464">
        <ele>152.0</ele>
        <time>2022-03-31T07:12:58Z</time>
      </trkpt>
      <trkpt lat="47.55367" lon="1.729445">
        <ele>152.0</ele>
        <time>2022-03-31T07:12:59Z</time>
      </trkpt>
      <trkpt lat="47.553658" lon="1.7294474">
        <ele>152.0</ele>
        <time>2022-03-31T07:13:00Z</time>
      </trkpt>
      <trkpt lat="47.55365" lon="1.7294455">
        <ele>152.0</ele>
        <time>2022-03-31T07:13:01Z</time>
      </trkpt>
      <trkpt lat="47.553642" lon="1.7294431">
        <ele>152.0</ele>
        <time>2022-03-31T07:13:02Z</time>
      </trkpt>
      <trkpt lat="47.55363" lon="1.7294459">
        <ele>152.0</ele>
        <time>2022-03-31T07:13:03Z</time>
      </trkpt>
      <trkpt lat="47.553616" lon="1.729449">
        <ele>152.0</ele>
        <time>2022-03-31T07:13:04Z</time>
      </trkpt>
      <trkpt lat="47.553604" lon="1.7294515">
        <ele>152.0</ele>
        <time>2022-03-31T07:13:05Z</time>
      </trkpt>
      <trkpt lat="47.553593" lon="1.729452">
        <ele>152.0</ele>
        <time>2022-03-31T07:13:06Z</time>
      </trkpt>
      <trkpt lat="47.55358" lon="1.7294519">
        <ele>152.0</ele>
        <time>2022-03-31T07:13:07Z</time>
      </trkpt>
      <trkpt lat="47.55357" lon="1.7294545">
        <ele>152.0</ele>
        <time>2022-03-31T07:13:08Z</time>
      </trkpt>
      <trkpt lat="47.55356" lon="1.7294564">
        <ele>152.0</ele>
        <time>2022-03-31T07:13:09Z</time>
      </trkpt>
      <trkpt lat="47.553547" lon="1.7294568">
        <ele>152.0</ele>
        <time>2022-03-31T07:13:10Z</time>
      </trkpt>
      <trkpt lat="47.553535" lon="1.7294589">
        <ele>152.0</ele>
        <time>2022-03-31T07:13:11Z</time>
      </trkpt>
      <trkpt lat="47.553524" lon="1.7294605">
        <ele>152.0</ele>
        <time>2022-03-31T07:13:12Z</time>
      </trkpt>
      <trkpt lat="47.553513" lon="1.7294638">
        <ele>153.0</ele>
        <time>2022-03-31T07:13:13Z</time>
      </trkpt>
      <trkpt lat="47.553505" lon="1.729466">
        <ele>153.0</ele>
        <time>2022-03-31T07:13:14Z</time>
      </trkpt>
      <trkpt lat="47.553493" lon="1.7294675">
        <ele>153.0</ele>
        <time>2022-03-31T07:13:15Z</time>
      </trkpt>
      <trkpt lat="47.553482" lon="1.7294683">
        <ele>153.0</ele>
        <time>2022-03-31T07:13:16Z</time>
      </trkpt>
      <trkpt lat="47.55347" lon="1.7294691">
        <ele>153.0</ele>
        <time>2022-03-31T07:13:17Z</time>
      </trkpt>
      <trkpt lat="47.55346" lon="1.7294713">
        <ele>153.0</ele>
        <time>2022-03-31T07:13:18Z</time>
      </trkpt>
      <trkpt lat="47.553448" lon="1.7294722">
        <ele>153.0</ele>
        <time>2022-03-31T07:13:19Z</time>
      </trkpt>
      <trkpt lat="47.553436" lon="1.729471">
        <ele>153.0</ele>
        <time>2022-03-31T07:13:20Z</time>
      </trkpt>
      <trkpt lat="47.553425" lon="1.7294694">
        <ele>153.0</ele>
        <time>2022-03-31T07:13:21Z</time>
      </trkpt>
      <trkpt lat="47.55341" lon="1.7294652">
        <ele>153.0</ele>
        <time>2022-03-31T07:13:22Z</time>
      </trkpt>
      <trkpt lat="47.5534" lon="1.7294673">
        <ele>153.0</ele>
        <time>2022-03-31T07:13:23Z</time>
      </trkpt>
      <trkpt lat="47.553387" lon="1.7294693">
        <ele>153.0</ele>
        <time>2022-03-31T07:13:24Z</time>
      </trkpt>
      <trkpt lat="47.553375" lon="1.7294713">
        <ele>153.0</ele>
        <time>2022-03-31T07:13:25Z</time>
      </trkpt>
      <trkpt lat="47.553364" lon="1.7294654">
        <ele>152.0</ele>
        <time>2022-03-31T07:13:26Z</time>
      </trkpt>
      <trkpt lat="47.553352" lon="1.7294618">
        <ele>152.0</ele>
        <time>2022-03-31T07:13:27Z</time>
      </trkpt>
      <trkpt lat="47.553337" lon="1.7294586">
        <ele>151.0</ele>
        <time>2022-03-31T07:13:28Z</time>
      </trkpt>
      <trkpt lat="47.55333" lon="1.7294561">
        <ele>151.0</ele>
        <time>2022-03-31T07:13:29Z</time>
      </trkpt>
      <trkpt lat="47.553318" lon="1.7294549">
        <ele>151.0</ele>
        <time>2022-03-31T07:13:30Z</time>
      </trkpt>
      <trkpt lat="47.55331" lon="1.729454">
        <ele>150.0</ele>
        <time>2022-03-31T07:13:31Z</time>
      </trkpt>
      <trkpt lat="47.5533" lon="1.7294499">
        <ele>150.0</ele>
        <time>2022-03-31T07:13:32Z</time>
      </trkpt>
      <trkpt lat="47.55329" lon="1.7294464">
        <ele>150.0</ele>
        <time>2022-03-31T07:13:33Z</time>
      </trkpt>
      <trkpt lat="47.553284" lon="1.7294425">
        <ele>150.0</ele>
        <time>2022-03-31T07:13:34Z</time>
      </trkpt>
      <trkpt lat="47.55327" lon="1.7294388">
        <ele>150.0</ele>
        <time>2022-03-31T07:13:35Z</time>
      </trkpt>
      <trkpt lat="47.553253" lon="1.7294348">
        <ele>150.0</ele>
        <time>2022-03-31T07:13:36Z</time>
      </trkpt>
      <trkpt lat="47.55324" lon="1.7294347">
        <ele>149.0</ele>
        <time>2022-03-31T07:13:37Z</time>
      </trkpt>
      <trkpt lat="47.55323" lon="1.7294339">
        <ele>149.0</ele>
        <time>2022-03-31T07:13:38Z</time>
      </trkpt>
      <trkpt lat="47.55322" lon="1.7294345">
        <ele>149.0</ele>
        <time>2022-03-31T07:13:39Z</time>
      </trkpt>
      <trkpt lat="47.553207" lon="1.7294298">
        <ele>149.0</ele>
        <time>2022-03-31T07:13:40Z</time>
      </trkpt>
      <trkpt lat="47.553196" lon="1.729425">
        <ele>149.0</ele>
        <time>2022-03-31T07:13:41Z</time>
      </trkpt>
      <trkpt lat="47.553185" lon="1.7294194">
        <ele>149.0</ele>
        <time>2022-03-31T07:13:42Z</time>
      </trkpt>
      <trkpt lat="47.55317" lon="1.7294166">
        <ele>149.0</ele>
        <time>2022-03-31T07:13:43Z</time>
      </trkpt>
      <trkpt lat="47.55316" lon="1.7294104">
        <ele>148.0</ele>
        <time>2022-03-31T07:13:44Z</time>
      </trkpt>
      <trkpt lat="47.55315" lon="1.7294037">
        <ele>148.0</ele>
        <time>2022-03-31T07:13:45Z</time>
      </trkpt>
      <trkpt lat="47.55314" lon="1.7293973">
        <ele>148.0</ele>
        <time>2022-03-31T07:13:46Z</time>
      </trkpt>
      <trkpt lat="47.553127" lon="1.7293931">
        <ele>149.0</ele>
        <time>2022-03-31T07:13:47Z</time>
      </trkpt>
      <trkpt lat="47.553116" lon="1.7293817">
        <ele>149.0</ele>
        <time>2022-03-31T07:13:48Z</time>
      </trkpt>
      <trkpt lat="47.553104" lon="1.729373">
        <ele>149.0</ele>
        <time>2022-03-31T07:13:49Z</time>
      </trkpt>
      <trkpt lat="47.553093" lon="1.7293674">
        <ele>149.0</ele>
        <time>2022-03-31T07:13:50Z</time>
      </trkpt>
      <trkpt lat="47.55308" lon="1.7293603">
        <ele>149.0</ele>
        <time>2022-03-31T07:13:51Z</time>
      </trkpt>
      <trkpt lat="47.55307" lon="1.7293532">
        <ele>150.0</ele>
        <time>2022-03-31T07:13:52Z</time>
      </trkpt>
      <trkpt lat="47.553062" lon="1.7293463">
        <ele>150.0</ele>
        <time>2022-03-31T07:13:53Z</time>
      </trkpt>
      <trkpt lat="47.55305" lon="1.7293417">
        <ele>150.0</ele>
        <time>2022-03-31T07:13:54Z</time>
      </trkpt>
      <trkpt lat="47.55304" lon="1.729335">
        <ele>150.0</ele>
        <time>2022-03-31T07:13:55Z</time>
      </trkpt>
      <trkpt lat="47.553032" lon="1.7293274">
        <ele>149.0</ele>
        <time>2022-03-31T07:13:56Z</time>
      </trkpt>
      <trkpt lat="47.55302" lon="1.7293199">
        <ele>150.0</ele>
        <time>2022-03-31T07:13:57Z</time>
      </trkpt>
      <trkpt lat="47.55301" lon="1.7293098">
        <ele>149.0</ele>
        <time>2022-03-31T07:13:58Z</time>
      </trkpt>
      <trkpt lat="47.552998" lon="1.7293005">
        <ele>149.0</ele>
        <time>2022-03-31T07:13:59Z</time>
      </trkpt>
      <trkpt lat="47.552986" lon="1.7292904">
        <ele>149.0</ele>
        <time>2022-03-31T07:14:00Z</time>
      </trkpt>
      <trkpt lat="47.552975" lon="1.7292775">
        <ele>149.0</ele>
        <time>2022-03-31T07:14:01Z</time>
      </trkpt>
      <trkpt lat="47.552967" lon="1.7292646">
        <ele>149.0</ele>
        <time>2022-03-31T07:14:02Z</time>
      </trkpt>
      <trkpt lat="47.552956" lon="1.7292516">
        <ele>149.0</ele>
        <time>2022-03-31T07:14:03Z</time>
      </trkpt>
      <trkpt lat="47.552944" lon="1.7292408">
        <ele>149.0</ele>
        <time>2022-03-31T07:14:04Z</time>
      </trkpt>
      <trkpt lat="47.552933" lon="1.7292286">
        <ele>149.0</ele>
        <time>2022-03-31T07:14:05Z</time>
      </trkpt>
      <trkpt lat="47.552925" lon="1.7292135">
        <ele>149.0</ele>
        <time>2022-03-31T07:14:06Z</time>
      </trkpt>
      <trkpt lat="47.55292" lon="1.7292035">
        <ele>149.0</ele>
        <time>2022-03-31T07:14:07Z</time>
      </trkpt>
      <trkpt lat="47.55291" lon="1.729197">
        <ele>150.0</ele>
        <time>2022-03-31T07:14:08Z</time>
      </trkpt>
      <trkpt lat="47.5529" lon="1.7291876">
        <ele>150.0</ele>
        <time>2022-03-31T07:14:09Z</time>
      </trkpt>
      <trkpt lat="47.552887" lon="1.7291771">
        <ele>150.0</ele>
        <time>2022-03-31T07:14:10Z</time>
      </trkpt>
      <trkpt lat="47.55288" lon="1.7291653">
        <ele>150.0</ele>
        <time>2022-03-31T07:14:11Z</time>
      </trkpt>
      <trkpt lat="47.552868" lon="1.729154">
        <ele>151.0</ele>
        <time>2022-03-31T07:14:12Z</time>
      </trkpt>
      <trkpt lat="47.552856" lon="1.7291425">
        <ele>151.0</ele>
        <time>2022-03-31T07:14:13Z</time>
      </trkpt>
      <trkpt lat="47.552845" lon="1.7291292">
        <ele>151.0</ele>
        <time>2022-03-31T07:14:14Z</time>
      </trkpt>
      <trkpt lat="47.552834" lon="1.7291181">
        <ele>151.0</ele>
        <time>2022-03-31T07:14:15Z</time>
      </trkpt>
      <trkpt lat="47.552822" lon="1.7291063">
        <ele>151.0</ele>
        <time>2022-03-31T07:14:16Z</time>
      </trkpt>
      <trkpt lat="47.55281" lon="1.7290969">
        <ele>151.0</ele>
        <time>2022-03-31T07:14:17Z</time>
      </trkpt>
      <trkpt lat="47.552803" lon="1.7290865">
        <ele>151.0</ele>
        <time>2022-03-31T07:14:18Z</time>
      </trkpt>
      <trkpt lat="47.55279" lon="1.7290758">
        <ele>151.0</ele>
        <time>2022-03-31T07:14:19Z</time>
      </trkpt>
      <trkpt lat="47.552784" lon="1.7290651">
        <ele>150.0</ele>
        <time>2022-03-31T07:14:20Z</time>
      </trkpt>
      <trkpt lat="47.552776" lon="1.7290515">
        <ele>150.0</ele>
        <time>2022-03-31T07:14:21Z</time>
      </trkpt>
      <trkpt lat="47.552765" lon="1.7290399">
        <ele>150.0</ele>
        <time>2022-03-31T07:14:22Z</time>
      </trkpt>
      <trkpt lat="47.552753" lon="1.729028">
        <ele>150.0</ele>
        <time>2022-03-31T07:14:23Z</time>
      </trkpt>
      <trkpt lat="47.552742" lon="1.7290118">
        <ele>150.0</ele>
        <time>2022-03-31T07:14:24Z</time>
      </trkpt>
      <trkpt lat="47.55273" lon="1.7289984">
        <ele>151.0</ele>
        <time>2022-03-31T07:14:25Z</time>
      </trkpt>
      <trkpt lat="47.552715" lon="1.7289848">
        <ele>151.0</ele>
        <time>2022-03-31T07:14:26Z</time>
      </trkpt>
      <trkpt lat="47.552708" lon="1.728972">
        <ele>151.0</ele>
        <time>2022-03-31T07:14:27Z</time>
      </trkpt>
      <trkpt lat="47.5527" lon="1.7289602">
        <ele>151.0</ele>
        <time>2022-03-31T07:14:28Z</time>
      </trkpt>
      <trkpt lat="47.55269" lon="1.7289504">
        <ele>152.0</ele>
        <time>2022-03-31T07:14:29Z</time>
      </trkpt>
      <trkpt lat="47.552677" lon="1.728939">
        <ele>152.0</ele>
        <time>2022-03-31T07:14:30Z</time>
      </trkpt>
      <trkpt lat="47.55267" lon="1.7289289">
        <ele>152.0</ele>
        <time>2022-03-31T07:14:31Z</time>
      </trkpt>
      <trkpt lat="47.55266" lon="1.7289168">
        <ele>152.0</ele>
        <time>2022-03-31T07:14:32Z</time>
      </trkpt>
      <trkpt lat="47.552654" lon="1.728905">
        <ele>152.0</ele>
        <time>2022-03-31T07:14:33Z</time>
      </trkpt>
      <trkpt lat="47.55265" lon="1.7288932">
        <ele>152.0</ele>
        <time>2022-03-31T07:14:34Z</time>
      </trkpt>
      <trkpt lat="47.552643" lon="1.7288811">
        <ele>152.0</ele>
        <time>2022-03-31T07:14:35Z</time>
      </trkpt>
      <trkpt lat="47.552635" lon="1.7288699">
        <ele>152.0</ele>
        <time>2022-03-31T07:14:36Z</time>
      </trkpt>
      <trkpt lat="47.552624" lon="1.7288623">
        <ele>152.0</ele>
        <time>2022-03-31T07:14:37Z</time>
      </trkpt>
      <trkpt lat="47.552616" lon="1.7288549">
        <ele>151.0</ele>
        <time>2022-03-31T07:14:38Z</time>
      </trkpt>
      <trkpt lat="47.55261" lon="1.7288435">
        <ele>151.0</ele>
        <time>2022-03-31T07:14:39Z</time>
      </trkpt>
      <trkpt lat="47.552597" lon="1.7288315">
        <ele>151.0</ele>
        <time>2022-03-31T07:14:40Z</time>
      </trkpt>
      <trkpt lat="47.552586" lon="1.7288154">
        <ele>151.0</ele>
        <time>2022-03-31T07:14:41Z</time>
      </trkpt>
      <trkpt lat="47.552574" lon="1.7288048">
        <ele>151.0</ele>
        <time>2022-03-31T07:14:42Z</time>
      </trkpt>
      <trkpt lat="47.552567" lon="1.7287943">
        <ele>151.0</ele>
        <time>2022-03-31T07:14:43Z</time>
      </trkpt>
      <trkpt lat="47.552555" lon="1.7287802">
        <ele>151.0</ele>
        <time>2022-03-31T07:14:44Z</time>
      </trkpt>
      <trkpt lat="47.552547" lon="1.7287663">
        <ele>151.0</ele>
        <time>2022-03-31T07:14:45Z</time>
      </trkpt>
      <trkpt lat="47.552536" lon="1.728755">
        <ele>150.0</ele>
        <time>2022-03-31T07:14:46Z</time>
      </trkpt>
      <trkpt lat="47.55253" lon="1.7287445">
        <ele>150.0</ele>
        <time>2022-03-31T07:14:47Z</time>
      </trkpt>
      <trkpt lat="47.55252" lon="1.7287331">
        <ele>150.0</ele>
        <time>2022-03-31T07:14:48Z</time>
      </trkpt>
      <trkpt lat="47.552513" lon="1.7287198">
        <ele>150.0</ele>
        <time>2022-03-31T07:14:49Z</time>
      </trkpt>
      <trkpt lat="47.5525" lon="1.7287066">
        <ele>150.0</ele>
        <time>2022-03-31T07:14:50Z</time>
      </trkpt>
      <trkpt lat="47.552498" lon="1.7286968">
        <ele>150.0</ele>
        <time>2022-03-31T07:14:51Z</time>
      </trkpt>
      <trkpt lat="47.552486" lon="1.7286879">
        <ele>150.0</ele>
        <time>2022-03-31T07:14:52Z</time>
      </trkpt>
      <trkpt lat="47.552475" lon="1.7286817">
        <ele>149.0</ele>
        <time>2022-03-31T07:14:53Z</time>
      </trkpt>
      <trkpt lat="47.552467" lon="1.7286693">
        <ele>149.0</ele>
        <time>2022-03-31T07:14:54Z</time>
      </trkpt>
      <trkpt lat="47.55246" lon="1.7286613">
        <ele>148.0</ele>
        <time>2022-03-31T07:14:55Z</time>
      </trkpt>
      <trkpt lat="47.552452" lon="1.7286456">
        <ele>148.0</ele>
        <time>2022-03-31T07:14:56Z</time>
      </trkpt>
      <trkpt lat="47.55245" lon="1.7286327">
        <ele>148.0</ele>
        <time>2022-03-31T07:14:57Z</time>
      </trkpt>
      <trkpt lat="47.55244" lon="1.7286199">
        <ele>148.0</ele>
        <time>2022-03-31T07:14:58Z</time>
      </trkpt>
      <trkpt lat="47.55243" lon="1.728608">
        <ele>148.0</ele>
        <time>2022-03-31T07:14:59Z</time>
      </trkpt>
      <trkpt lat="47.55242" lon="1.7285974">
        <ele>148.0</ele>
        <time>2022-03-31T07:15:00Z</time>
      </trkpt>
      <trkpt lat="47.55241" lon="1.7285886">
        <ele>148.0</ele>
        <time>2022-03-31T07:15:01Z</time>
      </trkpt>
      <trkpt lat="47.552395" lon="1.7285821">
        <ele>148.0</ele>
        <time>2022-03-31T07:15:02Z</time>
      </trkpt>
      <trkpt lat="47.552387" lon="1.7285703">
        <ele>148.0</ele>
        <time>2022-03-31T07:15:03Z</time>
      </trkpt>
      <trkpt lat="47.55238" lon="1.7285618">
        <ele>148.0</ele>
        <time>2022-03-31T07:15:04Z</time>
      </trkpt>
      <trkpt lat="47.55237" lon="1.7285509">
        <ele>147.0</ele>
        <time>2022-03-31T07:15:05Z</time>
      </trkpt>
      <trkpt lat="47.552357" lon="1.7285396">
        <ele>148.0</ele>
        <time>2022-03-31T07:15:06Z</time>
      </trkpt>
      <trkpt lat="47.552345" lon="1.7285277">
        <ele>147.0</ele>
        <time>2022-03-31T07:15:07Z</time>
      </trkpt>
      <trkpt lat="47.552334" lon="1.7285173">
        <ele>147.0</ele>
        <time>2022-03-31T07:15:08Z</time>
      </trkpt>
      <trkpt lat="47.552322" lon="1.7285075">
        <ele>148.0</ele>
        <time>2022-03-31T07:15:09Z</time>
      </trkpt>
      <trkpt lat="47.552307" lon="1.7284981">
        <ele>148.0</ele>
        <time>2022-03-31T07:15:10Z</time>
      </trkpt>
      <trkpt lat="47.552296" lon="1.7284862">
        <ele>148.0</ele>
        <time>2022-03-31T07:15:11Z</time>
      </trkpt>
      <trkpt lat="47.55228" lon="1.7284714">
        <ele>148.0</ele>
        <time>2022-03-31T07:15:12Z</time>
      </trkpt>
      <trkpt lat="47.55227" lon="1.728456">
        <ele>148.0</ele>
        <time>2022-03-31T07:15:13Z</time>
      </trkpt>
      <trkpt lat="47.552254" lon="1.7284414">
        <ele>148.0</ele>
        <time>2022-03-31T07:15:14Z</time>
      </trkpt>
      <trkpt lat="47.552242" lon="1.728433">
        <ele>148.0</ele>
        <time>2022-03-31T07:15:15Z</time>
      </trkpt>
      <trkpt lat="47.55223" lon="1.7284217">
        <ele>148.0</ele>
        <time>2022-03-31T07:15:16Z</time>
      </trkpt>
      <trkpt lat="47.55222" lon="1.7284123">
        <ele>149.0</ele>
        <time>2022-03-31T07:15:17Z</time>
      </trkpt>
      <trkpt lat="47.552208" lon="1.7284007">
        <ele>149.0</ele>
        <time>2022-03-31T07:15:18Z</time>
      </trkpt>
      <trkpt lat="47.552197" lon="1.7283899">
        <ele>149.0</ele>
        <time>2022-03-31T07:15:19Z</time>
      </trkpt>
      <trkpt lat="47.552185" lon="1.7283809">
        <ele>149.0</ele>
        <time>2022-03-31T07:15:20Z</time>
      </trkpt>
      <trkpt lat="47.552174" lon="1.7283716">
        <ele>149.0</ele>
        <time>2022-03-31T07:15:21Z</time>
      </trkpt>
      <trkpt lat="47.552162" lon="1.7283591">
        <ele>148.0</ele>
        <time>2022-03-31T07:15:22Z</time>
      </trkpt>
      <trkpt lat="47.552155" lon="1.7283442">
        <ele>148.0</ele>
        <time>2022-03-31T07:15:23Z</time>
      </trkpt>
      <trkpt lat="47.552147" lon="1.7283285">
        <ele>148.0</ele>
        <time>2022-03-31T07:15:24Z</time>
      </trkpt>
      <trkpt lat="47.552135" lon="1.7283152">
        <ele>148.0</ele>
        <time>2022-03-31T07:15:25Z</time>
      </trkpt>
      <trkpt lat="47.552124" lon="1.7283025">
        <ele>148.0</ele>
        <time>2022-03-31T07:15:26Z</time>
      </trkpt>
      <trkpt lat="47.552116" lon="1.7282898">
        <ele>148.0</ele>
        <time>2022-03-31T07:15:27Z</time>
      </trkpt>
      <trkpt lat="47.55211" lon="1.7282784">
        <ele>148.0</ele>
        <time>2022-03-31T07:15:28Z</time>
      </trkpt>
      <trkpt lat="47.552097" lon="1.7282711">
        <ele>148.0</ele>
        <time>2022-03-31T07:15:29Z</time>
      </trkpt>
      <trkpt lat="47.55209" lon="1.7282614">
        <ele>148.0</ele>
        <time>2022-03-31T07:15:30Z</time>
      </trkpt>
      <trkpt lat="47.552082" lon="1.7282512">
        <ele>148.0</ele>
        <time>2022-03-31T07:15:31Z</time>
      </trkpt>
      <trkpt lat="47.55207" lon="1.7282425">
        <ele>148.0</ele>
        <time>2022-03-31T07:15:32Z</time>
      </trkpt>
      <trkpt lat="47.552063" lon="1.7282314">
        <ele>148.0</ele>
        <time>2022-03-31T07:15:33Z</time>
      </trkpt>
      <trkpt lat="47.552055" lon="1.7282176">
        <ele>147.0</ele>
        <time>2022-03-31T07:15:34Z</time>
      </trkpt>
      <trkpt lat="47.552048" lon="1.7282039">
        <ele>147.0</ele>
        <time>2022-03-31T07:15:35Z</time>
      </trkpt>
      <trkpt lat="47.55204" lon="1.7281928">
        <ele>147.0</ele>
        <time>2022-03-31T07:15:36Z</time>
      </trkpt>
      <trkpt lat="47.552036" lon="1.7281804">
        <ele>147.0</ele>
        <time>2022-03-31T07:15:37Z</time>
      </trkpt>
      <trkpt lat="47.552025" lon="1.7281697">
        <ele>147.0</ele>
        <time>2022-03-31T07:15:38Z</time>
      </trkpt>
      <trkpt lat="47.552017" lon="1.7281598">
        <ele>147.0</ele>
        <time>2022-03-31T07:15:39Z</time>
      </trkpt>
      <trkpt lat="47.552013" lon="1.7281543">
        <ele>147.0</ele>
        <time>2022-03-31T07:15:40Z</time>
      </trkpt>
      <trkpt lat="47.552002" lon="1.7281492">
        <ele>147.0</ele>
        <time>2022-03-31T07:15:41Z</time>
      </trkpt>
      <trkpt lat="47.551994" lon="1.7281437">
        <ele>147.0</ele>
        <time>2022-03-31T07:15:42Z</time>
      </trkpt>
      <trkpt lat="47.551987" lon="1.7281368">
        <ele>147.0</ele>
        <time>2022-03-31T07:15:43Z</time>
      </trkpt>
      <trkpt lat="47.55198" lon="1.7281299">
        <ele>146.0</ele>
        <time>2022-03-31T07:15:44Z</time>
      </trkpt>
      <trkpt lat="47.55197" lon="1.72812">
        <ele>146.0</ele>
        <time>2022-03-31T07:15:45Z</time>
      </trkpt>
      <trkpt lat="47.551964" lon="1.7281082">
        <ele>146.0</ele>
        <time>2022-03-31T07:15:46Z</time>
      </trkpt>
      <trkpt lat="47.551956" lon="1.7280957">
        <ele>146.0</ele>
        <time>2022-03-31T07:15:47Z</time>
      </trkpt>
      <trkpt lat="47.55195" lon="1.7280817">
        <ele>145.0</ele>
        <time>2022-03-31T07:15:48Z</time>
      </trkpt>
      <trkpt lat="47.55194" lon="1.7280645">
        <ele>145.0</ele>
        <time>2022-03-31T07:15:49Z</time>
      </trkpt>
      <trkpt lat="47.55193" lon="1.7280518">
        <ele>145.0</ele>
        <time>2022-03-31T07:15:50Z</time>
      </trkpt>
      <trkpt lat="47.551918" lon="1.7280408">
        <ele>145.0</ele>
        <time>2022-03-31T07:15:51Z</time>
      </trkpt>
      <trkpt lat="47.551907" lon="1.7280302">
        <ele>145.0</ele>
        <time>2022-03-31T07:15:52Z</time>
      </trkpt>
      <trkpt lat="47.5519" lon="1.7280211">
        <ele>145.0</ele>
        <time>2022-03-31T07:15:53Z</time>
      </trkpt>
      <trkpt lat="47.551888" lon="1.7280135">
        <ele>145.0</ele>
        <time>2022-03-31T07:15:54Z</time>
      </trkpt>
      <trkpt lat="47.551876" lon="1.7280066">
        <ele>145.0</ele>
        <time>2022-03-31T07:15:55Z</time>
      </trkpt>
      <trkpt lat="47.551865" lon="1.7279984">
        <ele>145.0</ele>
        <time>2022-03-31T07:15:56Z</time>
      </trkpt>
      <trkpt lat="47.551853" lon="1.7279851">
        <ele>144.0</ele>
        <time>2022-03-31T07:15:57Z</time>
      </trkpt>
      <trkpt lat="47.55184" lon="1.7279803">
        <ele>145.0</ele>
        <time>2022-03-31T07:15:58Z</time>
      </trkpt>
      <trkpt lat="47.55183" lon="1.7279732">
        <ele>145.0</ele>
        <time>2022-03-31T07:15:59Z</time>
      </trkpt>
      <trkpt lat="47.551815" lon="1.7279639">
        <ele>145.0</ele>
        <time>2022-03-31T07:16:00Z</time>
      </trkpt>
      <trkpt lat="47.551804" lon="1.7279564">
        <ele>145.0</ele>
        <time>2022-03-31T07:16:01Z</time>
      </trkpt>
      <trkpt lat="47.55179" lon="1.7279489">
        <ele>145.0</ele>
        <time>2022-03-31T07:16:02Z</time>
      </trkpt>
      <trkpt lat="47.55178" lon="1.7279409">
        <ele>145.0</ele>
        <time>2022-03-31T07:16:03Z</time>
      </trkpt>
      <trkpt lat="47.551765" lon="1.7279309">
        <ele>145.0</ele>
        <time>2022-03-31T07:16:04Z</time>
      </trkpt>
      <trkpt lat="47.551754" lon="1.7279263">
        <ele>145.0</ele>
        <time>2022-03-31T07:16:05Z</time>
      </trkpt>
      <trkpt lat="47.551743" lon="1.7279196">
        <ele>145.0</ele>
        <time>2022-03-31T07:16:06Z</time>
      </trkpt>
      <trkpt lat="47.55173" lon="1.7279145">
        <ele>145.0</ele>
        <time>2022-03-31T07:16:07Z</time>
      </trkpt>
      <trkpt lat="47.551716" lon="1.7279099">
        <ele>146.0</ele>
        <time>2022-03-31T07:16:08Z</time>
      </trkpt>
      <trkpt lat="47.551704" lon="1.7279049">
        <ele>146.0</ele>
        <time>2022-03-31T07:16:09Z</time>
      </trkpt>
      <trkpt lat="47.551693" lon="1.7278992">
        <ele>146.0</ele>
        <time>2022-03-31T07:16:10Z</time>
      </trkpt>
      <trkpt lat="47.551674" lon="1.7278897">
        <ele>146.0</ele>
        <time>2022-03-31T07:16:11Z</time>
      </trkpt>
      <trkpt lat="47.551662" lon="1.7278787">
        <ele>146.0</ele>
        <time>2022-03-31T07:16:12Z</time>
      </trkpt>
      <trkpt lat="47.551655" lon="1.7278703">
        <ele>146.0</ele>
        <time>2022-03-31T07:16:13Z</time>
      </trkpt>
      <trkpt lat="47.551647" lon="1.7278643">
        <ele>145.0</ele>
        <time>2022-03-31T07:16:14Z</time>
      </trkpt>
      <trkpt lat="47.551643" lon="1.7278554">
        <ele>145.0</ele>
        <time>2022-03-31T07:16:15Z</time>
      </trkpt>
      <trkpt lat="47.551632" lon="1.7278459">
        <ele>145.0</ele>
        <time>2022-03-31T07:16:16Z</time>
      </trkpt>
      <trkpt lat="47.551624" lon="1.7278439">
        <ele>145.0</ele>
        <time>2022-03-31T07:16:17Z</time>
      </trkpt>
      <trkpt lat="47.551617" lon="1.7278392">
        <ele>145.0</ele>
        <time>2022-03-31T07:16:18Z</time>
      </trkpt>
      <trkpt lat="47.551605" lon="1.7278379">
        <ele>145.0</ele>
        <time>2022-03-31T07:16:19Z</time>
      </trkpt>
      <trkpt lat="47.55159" lon="1.7278336">
        <ele>145.0</ele>
        <time>2022-03-31T07:16:20Z</time>
      </trkpt>
      <trkpt lat="47.551582" lon="1.7278272">
        <ele>144.0</ele>
        <time>2022-03-31T07:16:21Z</time>
      </trkpt>
      <trkpt lat="47.55157" lon="1.7278237">
        <ele>144.0</ele>
        <time>2022-03-31T07:16:22Z</time>
      </trkpt>
      <trkpt lat="47.551563" lon="1.727819">
        <ele>144.0</ele>
        <time>2022-03-31T07:16:23Z</time>
      </trkpt>
      <trkpt lat="47.55155" lon="1.7278136">
        <ele>144.0</ele>
        <time>2022-03-31T07:16:24Z</time>
      </trkpt>
      <trkpt lat="47.551544" lon="1.7278109">
        <ele>144.0</ele>
        <time>2022-03-31T07:16:25Z</time>
      </trkpt>
      <trkpt lat="47.551533" lon="1.7278055">
        <ele>144.0</ele>
        <time>2022-03-31T07:16:26Z</time>
      </trkpt>
      <trkpt lat="47.551525" lon="1.7278038">
        <ele>144.0</ele>
        <time>2022-03-31T07:16:27Z</time>
      </trkpt>
      <trkpt lat="47.551514" lon="1.7278045">
        <ele>144.0</ele>
        <time>2022-03-31T07:16:28Z</time>
      </trkpt>
      <trkpt lat="47.551502" lon="1.7278055">
        <ele>144.0</ele>
        <time>2022-03-31T07:16:29Z</time>
      </trkpt>
      <trkpt lat="47.55149" lon="1.727801">
        <ele>144.0</ele>
        <time>2022-03-31T07:16:30Z</time>
      </trkpt>
      <trkpt lat="47.55148" lon="1.727795">
        <ele>144.0</ele>
        <time>2022-03-31T07:16:31Z</time>
      </trkpt>
      <trkpt lat="47.551468" lon="1.7277969">
        <ele>144.0</ele>
        <time>2022-03-31T07:16:32Z</time>
      </trkpt>
      <trkpt lat="47.551456" lon="1.7277948">
        <ele>145.0</ele>
        <time>2022-03-31T07:16:33Z</time>
      </trkpt>
      <trkpt lat="47.551445" lon="1.7277964">
        <ele>145.0</ele>
        <time>2022-03-31T07:16:34Z</time>
      </trkpt>
      <trkpt lat="47.551437" lon="1.7277955">
        <ele>145.0</ele>
        <time>2022-03-31T07:16:35Z</time>
      </trkpt>
      <trkpt lat="47.55143" lon="1.7277967">
        <ele>145.0</ele>
        <time>2022-03-31T07:16:36Z</time>
      </trkpt>
      <trkpt lat="47.551422" lon="1.7277993">
        <ele>145.0</ele>
        <time>2022-03-31T07:16:37Z</time>
      </trkpt>
      <trkpt lat="47.55141" lon="1.7278032">
        <ele>145.0</ele>
        <time>2022-03-31T07:16:38Z</time>
      </trkpt>
      <trkpt lat="47.551403" lon="1.7278029">
        <ele>145.0</ele>
        <time>2022-03-31T07:16:39Z</time>
      </trkpt>
      <trkpt lat="47.55139" lon="1.7278">
        <ele>145.0</ele>
        <time>2022-03-31T07:16:40Z</time>
      </trkpt>
      <trkpt lat="47.55138" lon="1.7277939">
        <ele>144.0</ele>
        <time>2022-03-31T07:16:41Z</time>
      </trkpt>
      <trkpt lat="47.551365" lon="1.7277896">
        <ele>144.0</ele>
        <time>2022-03-31T07:16:42Z</time>
      </trkpt>
      <trkpt lat="47.551353" lon="1.727787">
        <ele>144.0</ele>
        <time>2022-03-31T07:16:43Z</time>
      </trkpt>
      <trkpt lat="47.551342" lon="1.7277875">
        <ele>144.0</ele>
        <time>2022-03-31T07:16:44Z</time>
      </trkpt>
      <trkpt lat="47.55133" lon="1.7277868">
        <ele>144.0</ele>
        <time>2022-03-31T07:16:45Z</time>
      </trkpt>
      <trkpt lat="47.551315" lon="1.7277833">
        <ele>143.0</ele>
        <time>2022-03-31T07:16:46Z</time>
      </trkpt>
      <trkpt lat="47.5513" lon="1.7277892">
        <ele>143.0</ele>
        <time>2022-03-31T07:16:47Z</time>
      </trkpt>
      <trkpt lat="47.55128" lon="1.7277938">
        <ele>144.0</ele>
        <time>2022-03-31T07:16:48Z</time>
      </trkpt>
      <trkpt lat="47.55126" lon="1.7277926">
        <ele>144.0</ele>
        <time>2022-03-31T07:16:49Z</time>
      </trkpt>
      <trkpt lat="47.55124" lon="1.7277914">
        <ele>144.0</ele>
        <time>2022-03-31T07:16:50Z</time>
      </trkpt>
      <trkpt lat="47.55122" lon="1.7277899">
        <ele>144.0</ele>
        <time>2022-03-31T07:16:51Z</time>
      </trkpt>
      <trkpt lat="47.5512" lon="1.7277877">
        <ele>145.0</ele>
        <time>2022-03-31T07:16:52Z</time>
      </trkpt>
      <trkpt lat="47.55118" lon="1.7277889">
        <ele>145.0</ele>
        <time>2022-03-31T07:16:53Z</time>
      </trkpt>
      <trkpt lat="47.551163" lon="1.727787">
        <ele>146.0</ele>
        <time>2022-03-31T07:16:54Z</time>
      </trkpt>
      <trkpt lat="47.551155" lon="1.727784">
        <ele>146.0</ele>
        <time>2022-03-31T07:16:55Z</time>
      </trkpt>
      <trkpt lat="47.551144" lon="1.727783">
        <ele>146.0</ele>
        <time>2022-03-31T07:16:56Z</time>
      </trkpt>
      <trkpt lat="47.551132" lon="1.7277832">
        <ele>146.0</ele>
        <time>2022-03-31T07:16:57Z</time>
      </trkpt>
      <trkpt lat="47.551113" lon="1.7277869">
        <ele>146.0</ele>
        <time>2022-03-31T07:16:58Z</time>
      </trkpt>
      <trkpt lat="47.5511" lon="1.7277877">
        <ele>146.0</ele>
        <time>2022-03-31T07:16:59Z</time>
      </trkpt>
      <trkpt lat="47.551086" lon="1.7277902">
        <ele>146.0</ele>
        <time>2022-03-31T07:17:00Z</time>
      </trkpt>
      <trkpt lat="47.551075" lon="1.7277938">
        <ele>146.0</ele>
        <time>2022-03-31T07:17:01Z</time>
      </trkpt>
      <trkpt lat="47.55106" lon="1.727797">
        <ele>147.0</ele>
        <time>2022-03-31T07:17:02Z</time>
      </trkpt>
      <trkpt lat="47.551044" lon="1.7277987">
        <ele>147.0</ele>
        <time>2022-03-31T07:17:03Z</time>
      </trkpt>
      <trkpt lat="47.551037" lon="1.7277985">
        <ele>147.0</ele>
        <time>2022-03-31T07:17:04Z</time>
      </trkpt>
      <trkpt lat="47.55102" lon="1.7277979">
        <ele>147.0</ele>
        <time>2022-03-31T07:17:05Z</time>
      </trkpt>
      <trkpt lat="47.551006" lon="1.7277999">
        <ele>147.0</ele>
        <time>2022-03-31T07:17:06Z</time>
      </trkpt>
      <trkpt lat="47.55099" lon="1.7278028">
        <ele>147.0</ele>
        <time>2022-03-31T07:17:07Z</time>
      </trkpt>
      <trkpt lat="47.550976" lon="1.7278047">
        <ele>147.0</ele>
        <time>2022-03-31T07:17:08Z</time>
      </trkpt>
      <trkpt lat="47.55096" lon="1.7278032">
        <ele>147.0</ele>
        <time>2022-03-31T07:17:09Z</time>
      </trkpt>
      <trkpt lat="47.550945" lon="1.7278035">
        <ele>147.0</ele>
        <time>2022-03-31T07:17:10Z</time>
      </trkpt>
      <trkpt lat="47.550934" lon="1.7278057">
        <ele>147.0</ele>
        <time>2022-03-31T07:17:11Z</time>
      </trkpt>
      <trkpt lat="47.550922" lon="1.7278078">
        <ele>147.0</ele>
        <time>2022-03-31T07:17:12Z</time>
      </trkpt>
      <trkpt lat="47.55091" lon="1.7278066">
        <ele>147.0</ele>
        <time>2022-03-31T07:17:13Z</time>
      </trkpt>
      <trkpt lat="47.550896" lon="1.727804">
        <ele>148.0</ele>
        <time>2022-03-31T07:17:14Z</time>
      </trkpt>
      <trkpt lat="47.55088" lon="1.7278026">
        <ele>148.0</ele>
        <time>2022-03-31T07:17:15Z</time>
      </trkpt>
      <trkpt lat="47.550865" lon="1.7278017">
        <ele>148.0</ele>
        <time>2022-03-31T07:17:16Z</time>
      </trkpt>
      <trkpt lat="47.55085" lon="1.7277975">
        <ele>149.0</ele>
        <time>2022-03-31T07:17:17Z</time>
      </trkpt>
      <trkpt lat="47.550842" lon="1.7277925">
        <ele>149.0</ele>
        <time>2022-03-31T07:17:18Z</time>
      </trkpt>
      <trkpt lat="47.550827" lon="1.7277908">
        <ele>149.0</ele>
        <time>2022-03-31T07:17:19Z</time>
      </trkpt>
      <trkpt lat="47.550816" lon="1.7277914">
        <ele>149.0</ele>
        <time>2022-03-31T07:17:20Z</time>
      </trkpt>
      <trkpt lat="47.5508" lon="1.7277905">
        <ele>149.0</ele>
        <time>2022-03-31T07:17:21Z</time>
      </trkpt>
      <trkpt lat="47.55079" lon="1.7277896">
        <ele>149.0</ele>
        <time>2022-03-31T07:17:22Z</time>
      </trkpt>
      <trkpt lat="47.550777" lon="1.7277886">
        <ele>149.0</ele>
        <time>2022-03-31T07:17:23Z</time>
      </trkpt>
      <trkpt lat="47.550766" lon="1.7277899">
        <ele>149.0</ele>
        <time>2022-03-31T07:17:24Z</time>
      </trkpt>
      <trkpt lat="47.550755" lon="1.7277917">
        <ele>148.0</ele>
        <time>2022-03-31T07:17:25Z</time>
      </trkpt>
      <trkpt lat="47.550743" lon="1.7277917">
        <ele>148.0</ele>
        <time>2022-03-31T07:17:26Z</time>
      </trkpt>
      <trkpt lat="47.55073" lon="1.7277913">
        <ele>148.0</ele>
        <time>2022-03-31T07:17:27Z</time>
      </trkpt>
      <trkpt lat="47.55072" lon="1.72779">
        <ele>148.0</ele>
        <time>2022-03-31T07:17:28Z</time>
      </trkpt>
      <trkpt lat="47.550705" lon="1.727791">
        <ele>148.0</ele>
        <time>2022-03-31T07:17:29Z</time>
      </trkpt>
      <trkpt lat="47.550694" lon="1.7277908">
        <ele>147.0</ele>
        <time>2022-03-31T07:17:30Z</time>
      </trkpt>
      <trkpt lat="47.55068" lon="1.7277902">
        <ele>148.0</ele>
        <time>2022-03-31T07:17:31Z</time>
      </trkpt>
      <trkpt lat="47.550667" lon="1.7277895">
        <ele>148.0</ele>
        <time>2022-03-31T07:17:32Z</time>
      </trkpt>
      <trkpt lat="47.55065" lon="1.7277888">
        <ele>148.0</ele>
        <time>2022-03-31T07:17:33Z</time>
      </trkpt>
      <trkpt lat="47.55064" lon="1.7277896">
        <ele>148.0</ele>
        <time>2022-03-31T07:17:34Z</time>
      </trkpt>
      <trkpt lat="47.550625" lon="1.7277855">
        <ele>147.0</ele>
        <time>2022-03-31T07:17:35Z</time>
      </trkpt>
      <trkpt lat="47.550613" lon="1.7277865">
        <ele>147.0</ele>
        <time>2022-03-31T07:17:36Z</time>
      </trkpt>
      <trkpt lat="47.5506" lon="1.7277846">
        <ele>147.0</ele>
        <time>2022-03-31T07:17:37Z</time>
      </trkpt>
      <trkpt lat="47.550583" lon="1.7277834">
        <ele>147.0</ele>
        <time>2022-03-31T07:17:38Z</time>
      </trkpt>
      <trkpt lat="47.55057" lon="1.727783">
        <ele>147.0</ele>
        <time>2022-03-31T07:17:39Z</time>
      </trkpt>
      <trkpt lat="47.55056" lon="1.7277801">
        <ele>147.0</ele>
        <time>2022-03-31T07:17:40Z</time>
      </trkpt>
      <trkpt lat="47.55055" lon="1.7277812">
        <ele>147.0</ele>
        <time>2022-03-31T07:17:41Z</time>
      </trkpt>
      <trkpt lat="47.550533" lon="1.727781">
        <ele>147.0</ele>
        <time>2022-03-31T07:17:42Z</time>
      </trkpt>
      <trkpt lat="47.550518" lon="1.7277817">
        <ele>147.0</ele>
        <time>2022-03-31T07:17:43Z</time>
      </trkpt>
      <trkpt lat="47.550503" lon="1.7277855">
        <ele>147.0</ele>
        <time>2022-03-31T07:17:44Z</time>
      </trkpt>
      <trkpt lat="47.55049" lon="1.7277868">
        <ele>147.0</ele>
        <time>2022-03-31T07:17:45Z</time>
      </trkpt>
      <trkpt lat="47.55048" lon="1.7277855">
        <ele>147.0</ele>
        <time>2022-03-31T07:17:46Z</time>
      </trkpt>
      <trkpt lat="47.55047" lon="1.7277871">
        <ele>147.0</ele>
        <time>2022-03-31T07:17:47Z</time>
      </trkpt>
      <trkpt lat="47.550457" lon="1.7277887">
        <ele>148.0</ele>
        <time>2022-03-31T07:17:48Z</time>
      </trkpt>
      <trkpt lat="47.550446" lon="1.7277877">
        <ele>147.0</ele>
        <time>2022-03-31T07:17:49Z</time>
      </trkpt>
      <trkpt lat="47.550438" lon="1.7277869">
        <ele>147.0</ele>
        <time>2022-03-31T07:17:50Z</time>
      </trkpt>
      <trkpt lat="47.550426" lon="1.7277874">
        <ele>147.0</ele>
        <time>2022-03-31T07:17:51Z</time>
      </trkpt>
      <trkpt lat="47.550415" lon="1.72779">
        <ele>147.0</ele>
        <time>2022-03-31T07:17:52Z</time>
      </trkpt>
      <trkpt lat="47.550404" lon="1.7277962">
        <ele>147.0</ele>
        <time>2022-03-31T07:17:53Z</time>
      </trkpt>
      <trkpt lat="47.550392" lon="1.7278013">
        <ele>147.0</ele>
        <time>2022-03-31T07:17:54Z</time>
      </trkpt>
      <trkpt lat="47.55038" lon="1.7278037">
        <ele>147.0</ele>
        <time>2022-03-31T07:17:55Z</time>
      </trkpt>
      <trkpt lat="47.550365" lon="1.7278032">
        <ele>148.0</ele>
        <time>2022-03-31T07:17:56Z</time>
      </trkpt>
      <trkpt lat="47.55035" lon="1.7278018">
        <ele>148.0</ele>
        <time>2022-03-31T07:17:57Z</time>
      </trkpt>
      <trkpt lat="47.550335" lon="1.7277995">
        <ele>148.0</ele>
        <time>2022-03-31T07:17:58Z</time>
      </trkpt>
      <trkpt lat="47.55032" lon="1.7277999">
        <ele>148.0</ele>
        <time>2022-03-31T07:17:59Z</time>
      </trkpt>
      <trkpt lat="47.55031" lon="1.727803">
        <ele>148.0</ele>
        <time>2022-03-31T07:18:00Z</time>
      </trkpt>
      <trkpt lat="47.550297" lon="1.7278049">
        <ele>148.0</ele>
        <time>2022-03-31T07:18:01Z</time>
      </trkpt>
      <trkpt lat="47.55028" lon="1.7278047">
        <ele>148.0</ele>
        <time>2022-03-31T07:18:02Z</time>
      </trkpt>
      <trkpt lat="47.55027" lon="1.7278032">
        <ele>148.0</ele>
        <time>2022-03-31T07:18:03Z</time>
      </trkpt>
      <trkpt lat="47.55026" lon="1.7278013">
        <ele>148.0</ele>
        <time>2022-03-31T07:18:04Z</time>
      </trkpt>
      <trkpt lat="47.550243" lon="1.7277999">
        <ele>148.0</ele>
        <time>2022-03-31T07:18:05Z</time>
      </trkpt>
      <trkpt lat="47.550232" lon="1.7278029">
        <ele>147.0</ele>
        <time>2022-03-31T07:18:06Z</time>
      </trkpt>
      <trkpt lat="47.55022" lon="1.7278045">
        <ele>147.0</ele>
        <time>2022-03-31T07:18:07Z</time>
      </trkpt>
      <trkpt lat="47.55021" lon="1.7278036">
        <ele>147.0</ele>
        <time>2022-03-31T07:18:08Z</time>
      </trkpt>
      <trkpt lat="47.550198" lon="1.7278016">
        <ele>148.0</ele>
        <time>2022-03-31T07:18:09Z</time>
      </trkpt>
      <trkpt lat="47.550186" lon="1.7278006">
        <ele>148.0</ele>
        <time>2022-03-31T07:18:10Z</time>
      </trkpt>
      <trkpt lat="47.55017" lon="1.7278004">
        <ele>148.0</ele>
        <time>2022-03-31T07:18:11Z</time>
      </trkpt>
      <trkpt lat="47.55016" lon="1.7277994">
        <ele>148.0</ele>
        <time>2022-03-31T07:18:12Z</time>
      </trkpt>
      <trkpt lat="47.550148" lon="1.7277979">
        <ele>148.0</ele>
        <time>2022-03-31T07:18:13Z</time>
      </trkpt>
      <trkpt lat="47.550137" lon="1.7278016">
        <ele>148.0</ele>
        <time>2022-03-31T07:18:14Z</time>
      </trkpt>
      <trkpt lat="47.550125" lon="1.7278035">
        <ele>148.0</ele>
        <time>2022-03-31T07:18:15Z</time>
      </trkpt>
      <trkpt lat="47.550114" lon="1.7278026">
        <ele>148.0</ele>
        <time>2022-03-31T07:18:16Z</time>
      </trkpt>
      <trkpt lat="47.5501" lon="1.7278057">
        <ele>148.0</ele>
        <time>2022-03-31T07:18:17Z</time>
      </trkpt>
      <trkpt lat="47.550083" lon="1.7278076">
        <ele>148.0</ele>
        <time>2022-03-31T07:18:18Z</time>
      </trkpt>
      <trkpt lat="47.55007" lon="1.7278044">
        <ele>148.0</ele>
        <time>2022-03-31T07:18:19Z</time>
      </trkpt>
      <trkpt lat="47.55006" lon="1.727805">
        <ele>148.0</ele>
        <time>2022-03-31T07:18:20Z</time>
      </trkpt>
      <trkpt lat="47.550045" lon="1.7278057">
        <ele>148.0</ele>
        <time>2022-03-31T07:18:21Z</time>
      </trkpt>
      <trkpt lat="47.550034" lon="1.7278005">
        <ele>148.0</ele>
        <time>2022-03-31T07:18:22Z</time>
      </trkpt>
      <trkpt lat="47.550022" lon="1.727795">
        <ele>148.0</ele>
        <time>2022-03-31T07:18:23Z</time>
      </trkpt>
      <trkpt lat="47.550014" lon="1.727793">
        <ele>149.0</ele>
        <time>2022-03-31T07:18:24Z</time>
      </trkpt>
      <trkpt lat="47.550007" lon="1.7277881">
        <ele>149.0</ele>
        <time>2022-03-31T07:18:25Z</time>
      </trkpt>
      <trkpt lat="47.55" lon="1.7277853">
        <ele>148.0</ele>
        <time>2022-03-31T07:18:26Z</time>
      </trkpt>
      <trkpt lat="47.549984" lon="1.727781">
        <ele>148.0</ele>
        <time>2022-03-31T07:18:27Z</time>
      </trkpt>
      <trkpt lat="47.549976" lon="1.7277764">
        <ele>148.0</ele>
        <time>2022-03-31T07:18:28Z</time>
      </trkpt>
      <trkpt lat="47.549965" lon="1.7277744">
        <ele>148.0</ele>
        <time>2022-03-31T07:18:29Z</time>
      </trkpt>
      <trkpt lat="47.549953" lon="1.7277727">
        <ele>148.0</ele>
        <time>2022-03-31T07:18:30Z</time>
      </trkpt>
      <trkpt lat="47.549942" lon="1.7277722">
        <ele>148.0</ele>
        <time>2022-03-31T07:18:31Z</time>
      </trkpt>
      <trkpt lat="47.549934" lon="1.7277732">
        <ele>148.0</ele>
        <time>2022-03-31T07:18:32Z</time>
      </trkpt>
      <trkpt lat="47.549927" lon="1.7277702">
        <ele>147.0</ele>
        <time>2022-03-31T07:18:33Z</time>
      </trkpt>
      <trkpt lat="47.549915" lon="1.7277678">
        <ele>147.0</ele>
        <time>2022-03-31T07:18:34Z</time>
      </trkpt>
      <trkpt lat="47.5499" lon="1.7277651">
        <ele>147.0</ele>
        <time>2022-03-31T07:18:35Z</time>
      </trkpt>
      <trkpt lat="47.54989" lon="1.7277641">
        <ele>147.0</ele>
        <time>2022-03-31T07:18:36Z</time>
      </trkpt>
      <trkpt lat="47.549877" lon="1.7277609">
        <ele>147.0</ele>
        <time>2022-03-31T07:18:37Z</time>
      </trkpt>
      <trkpt lat="47.549866" lon="1.7277627">
        <ele>147.0</ele>
        <time>2022-03-31T07:18:38Z</time>
      </trkpt>
      <trkpt lat="47.549854" lon="1.7277617">
        <ele>148.0</ele>
        <time>2022-03-31T07:18:39Z</time>
      </trkpt>
      <trkpt lat="47.549843" lon="1.7277632">
        <ele>148.0</ele>
        <time>2022-03-31T07:18:40Z</time>
      </trkpt>
      <trkpt lat="47.54983" lon="1.7277671">
        <ele>148.0</ele>
        <time>2022-03-31T07:18:41Z</time>
      </trkpt>
      <trkpt lat="47.54982" lon="1.7277632">
        <ele>148.0</ele>
        <time>2022-03-31T07:18:42Z</time>
      </trkpt>
      <trkpt lat="47.549805" lon="1.7277629">
        <ele>148.0</ele>
        <time>2022-03-31T07:18:43Z</time>
      </trkpt>
      <trkpt lat="47.549793" lon="1.7277597">
        <ele>148.0</ele>
        <time>2022-03-31T07:18:44Z</time>
      </trkpt>
      <trkpt lat="47.549786" lon="1.7277558">
        <ele>148.0</ele>
        <time>2022-03-31T07:18:45Z</time>
      </trkpt>
      <trkpt lat="47.549774" lon="1.7277521">
        <ele>148.0</ele>
        <time>2022-03-31T07:18:46Z</time>
      </trkpt>
      <trkpt lat="47.54976" lon="1.727751">
        <ele>148.0</ele>
        <time>2022-03-31T07:18:47Z</time>
      </trkpt>
      <trkpt lat="47.549747" lon="1.727751">
        <ele>148.0</ele>
        <time>2022-03-31T07:18:48Z</time>
      </trkpt>
      <trkpt lat="47.549736" lon="1.7277496">
        <ele>148.0</ele>
        <time>2022-03-31T07:18:49Z</time>
      </trkpt>
      <trkpt lat="47.549725" lon="1.7277492">
        <ele>148.0</ele>
        <time>2022-03-31T07:18:50Z</time>
      </trkpt>
      <trkpt lat="47.549713" lon="1.7277493">
        <ele>148.0</ele>
        <time>2022-03-31T07:18:51Z</time>
      </trkpt>
      <trkpt lat="47.5497" lon="1.7277488">
        <ele>149.0</ele>
        <time>2022-03-31T07:18:52Z</time>
      </trkpt>
      <trkpt lat="47.549686" lon="1.7277508">
        <ele>149.0</ele>
        <time>2022-03-31T07:18:53Z</time>
      </trkpt>
      <trkpt lat="47.54967" lon="1.7277524">
        <ele>149.0</ele>
        <time>2022-03-31T07:18:54Z</time>
      </trkpt>
      <trkpt lat="47.549656" lon="1.7277539">
        <ele>149.0</ele>
        <time>2022-03-31T07:18:55Z</time>
      </trkpt>
      <trkpt lat="47.54964" lon="1.7277538">
        <ele>149.0</ele>
        <time>2022-03-31T07:18:56Z</time>
      </trkpt>
      <trkpt lat="47.549625" lon="1.727755">
        <ele>150.0</ele>
        <time>2022-03-31T07:18:57Z</time>
      </trkpt>
      <trkpt lat="47.549614" lon="1.7277555">
        <ele>150.0</ele>
        <time>2022-03-31T07:18:58Z</time>
      </trkpt>
      <trkpt lat="47.5496" lon="1.7277533">
        <ele>150.0</ele>
        <time>2022-03-31T07:18:59Z</time>
      </trkpt>
      <trkpt lat="47.549587" lon="1.7277516">
        <ele>150.0</ele>
        <time>2022-03-31T07:19:00Z</time>
      </trkpt>
      <trkpt lat="47.549572" lon="1.7277485">
        <ele>150.0</ele>
        <time>2022-03-31T07:19:01Z</time>
      </trkpt>
      <trkpt lat="47.54956" lon="1.7277493">
        <ele>150.0</ele>
        <time>2022-03-31T07:19:02Z</time>
      </trkpt>
      <trkpt lat="47.549545" lon="1.7277558">
        <ele>150.0</ele>
        <time>2022-03-31T07:19:03Z</time>
      </trkpt>
      <trkpt lat="47.549538" lon="1.7277601">
        <ele>150.0</ele>
        <time>2022-03-31T07:19:04Z</time>
      </trkpt>
      <trkpt lat="47.549526" lon="1.7277609">
        <ele>150.0</ele>
        <time>2022-03-31T07:19:05Z</time>
      </trkpt>
      <trkpt lat="47.549515" lon="1.7277601">
        <ele>150.0</ele>
        <time>2022-03-31T07:19:06Z</time>
      </trkpt>
      <trkpt lat="47.549503" lon="1.7277648">
        <ele>149.0</ele>
        <time>2022-03-31T07:19:07Z</time>
      </trkpt>
      <trkpt lat="47.549496" lon="1.7277704">
        <ele>149.0</ele>
        <time>2022-03-31T07:19:08Z</time>
      </trkpt>
      <trkpt lat="47.549488" lon="1.7277727">
        <ele>150.0</ele>
        <time>2022-03-31T07:19:09Z</time>
      </trkpt>
      <trkpt lat="47.549473" lon="1.7277753">
        <ele>149.0</ele>
        <time>2022-03-31T07:19:10Z</time>
      </trkpt>
      <trkpt lat="47.549458" lon="1.7277843">
        <ele>149.0</ele>
        <time>2022-03-31T07:19:11Z</time>
      </trkpt>
      <trkpt lat="47.549446" lon="1.7277863">
        <ele>149.0</ele>
        <time>2022-03-31T07:19:12Z</time>
      </trkpt>
      <trkpt lat="47.54943" lon="1.727795">
        <ele>150.0</ele>
        <time>2022-03-31T07:19:13Z</time>
      </trkpt>
      <trkpt lat="47.549423" lon="1.7278047">
        <ele>149.0</ele>
        <time>2022-03-31T07:19:14Z</time>
      </trkpt>
      <trkpt lat="47.549408" lon="1.7278106">
        <ele>149.0</ele>
        <time>2022-03-31T07:19:15Z</time>
      </trkpt>
      <trkpt lat="47.549393" lon="1.7278185">
        <ele>149.0</ele>
        <time>2022-03-31T07:19:16Z</time>
      </trkpt>
      <trkpt lat="47.54938" lon="1.727829">
        <ele>149.0</ele>
        <time>2022-03-31T07:19:17Z</time>
      </trkpt>
      <trkpt lat="47.549366" lon="1.7278336">
        <ele>149.0</ele>
        <time>2022-03-31T07:19:18Z</time>
      </trkpt>
      <trkpt lat="47.549355" lon="1.7278383">
        <ele>149.0</ele>
        <time>2022-03-31T07:19:19Z</time>
      </trkpt>
      <trkpt lat="47.54934" lon="1.7278411">
        <ele>149.0</ele>
        <time>2022-03-31T07:19:20Z</time>
      </trkpt>
      <trkpt lat="47.549328" lon="1.7278459">
        <ele>149.0</ele>
        <time>2022-03-31T07:19:21Z</time>
      </trkpt>
      <trkpt lat="47.54932" lon="1.7278502">
        <ele>149.0</ele>
        <time>2022-03-31T07:19:22Z</time>
      </trkpt>
      <trkpt lat="47.549305" lon="1.7278564">
        <ele>148.0</ele>
        <time>2022-03-31T07:19:23Z</time>
      </trkpt>
      <trkpt lat="47.549294" lon="1.7278624">
        <ele>148.0</ele>
        <time>2022-03-31T07:19:24Z</time>
      </trkpt>
      <trkpt lat="47.54928" lon="1.7278701">
        <ele>148.0</ele>
        <time>2022-03-31T07:19:25Z</time>
      </trkpt>
      <trkpt lat="47.549263" lon="1.7278775">
        <ele>148.0</ele>
        <time>2022-03-31T07:19:26Z</time>
      </trkpt>
      <trkpt lat="47.54925" lon="1.727883">
        <ele>148.0</ele>
        <time>2022-03-31T07:19:27Z</time>
      </trkpt>
      <trkpt lat="47.549236" lon="1.7278856">
        <ele>148.0</ele>
        <time>2022-03-31T07:19:28Z</time>
      </trkpt>
      <trkpt lat="47.549225" lon="1.7278863">
        <ele>148.0</ele>
        <time>2022-03-31T07:19:29Z</time>
      </trkpt>
      <trkpt lat="47.549217" lon="1.7278897">
        <ele>149.0</ele>
        <time>2022-03-31T07:19:30Z</time>
      </trkpt>
      <trkpt lat="47.549202" lon="1.7278979">
        <ele>148.0</ele>
        <time>2022-03-31T07:19:31Z</time>
      </trkpt>
      <trkpt lat="47.549187" lon="1.7279058">
        <ele>148.0</ele>
        <time>2022-03-31T07:19:32Z</time>
      </trkpt>
      <trkpt lat="47.549175" lon="1.727913">
        <ele>148.0</ele>
        <time>2022-03-31T07:19:33Z</time>
      </trkpt>
      <trkpt lat="47.549164" lon="1.7279167">
        <ele>148.0</ele>
        <time>2022-03-31T07:19:34Z</time>
      </trkpt>
      <trkpt lat="47.549152" lon="1.7279203">
        <ele>148.0</ele>
        <time>2022-03-31T07:19:35Z</time>
      </trkpt>
      <trkpt lat="47.549145" lon="1.7279222">
        <ele>148.0</ele>
        <time>2022-03-31T07:19:36Z</time>
      </trkpt>
      <trkpt lat="47.549133" lon="1.7279264">
        <ele>148.0</ele>
        <time>2022-03-31T07:19:37Z</time>
      </trkpt>
      <trkpt lat="47.54912" lon="1.7279311">
        <ele>148.0</ele>
        <time>2022-03-31T07:19:38Z</time>
      </trkpt>
      <trkpt lat="47.549107" lon="1.7279356">
        <ele>148.0</ele>
        <time>2022-03-31T07:19:39Z</time>
      </trkpt>
      <trkpt lat="47.5491" lon="1.7279384">
        <ele>147.0</ele>
        <time>2022-03-31T07:19:40Z</time>
      </trkpt>
      <trkpt lat="47.549088" lon="1.72794">
        <ele>147.0</ele>
        <time>2022-03-31T07:19:41Z</time>
      </trkpt>
      <trkpt lat="47.549076" lon="1.7279434">
        <ele>147.0</ele>
        <time>2022-03-31T07:19:42Z</time>
      </trkpt>
      <trkpt lat="47.549065" lon="1.7279468">
        <ele>147.0</ele>
        <time>2022-03-31T07:19:43Z</time>
      </trkpt>
      <trkpt lat="47.549053" lon="1.7279508">
        <ele>148.0</ele>
        <time>2022-03-31T07:19:44Z</time>
      </trkpt>
      <trkpt lat="47.549038" lon="1.7279528">
        <ele>148.0</ele>
        <time>2022-03-31T07:19:45Z</time>
      </trkpt>
      <trkpt lat="47.549026" lon="1.7279578">
        <ele>148.0</ele>
        <time>2022-03-31T07:19:46Z</time>
      </trkpt>
      <trkpt lat="47.549015" lon="1.7279636">
        <ele>148.0</ele>
        <time>2022-03-31T07:19:47Z</time>
      </trkpt>
      <trkpt lat="47.549004" lon="1.727969">
        <ele>148.0</ele>
        <time>2022-03-31T07:19:48Z</time>
      </trkpt>
      <trkpt lat="47.548992" lon="1.727972">
        <ele>148.0</ele>
        <time>2022-03-31T07:19:49Z</time>
      </trkpt>
      <trkpt lat="47.54898" lon="1.7279731">
        <ele>148.0</ele>
        <time>2022-03-31T07:19:50Z</time>
      </trkpt>
      <trkpt lat="47.548965" lon="1.7279755">
        <ele>148.0</ele>
        <time>2022-03-31T07:19:51Z</time>
      </trkpt>
      <trkpt lat="47.548954" lon="1.7279794">
        <ele>148.0</ele>
        <time>2022-03-31T07:19:52Z</time>
      </trkpt>
      <trkpt lat="47.548943" lon="1.7279831">
        <ele>148.0</ele>
        <time>2022-03-31T07:19:53Z</time>
      </trkpt>
      <trkpt lat="47.54893" lon="1.7279853">
        <ele>148.0</ele>
        <time>2022-03-31T07:19:54Z</time>
      </trkpt>
      <trkpt lat="47.54892" lon="1.7279868">
        <ele>147.0</ele>
        <time>2022-03-31T07:19:55Z</time>
      </trkpt>
      <trkpt lat="47.548904" lon="1.7279916">
        <ele>147.0</ele>
        <time>2022-03-31T07:19:56Z</time>
      </trkpt>
      <trkpt lat="47.548893" lon="1.7279928">
        <ele>147.0</ele>
        <time>2022-03-31T07:19:57Z</time>
      </trkpt>
      <trkpt lat="47.548878" lon="1.7279941">
        <ele>147.0</ele>
        <time>2022-03-31T07:19:58Z</time>
      </trkpt>
      <trkpt lat="47.548862" lon="1.7280009">
        <ele>147.0</ele>
        <time>2022-03-31T07:19:59Z</time>
      </trkpt>
      <trkpt lat="47.54885" lon="1.7280065">
        <ele>147.0</ele>
        <time>2022-03-31T07:20:00Z</time>
      </trkpt>
      <trkpt lat="47.548832" lon="1.7280138">
        <ele>147.0</ele>
        <time>2022-03-31T07:20:01Z</time>
      </trkpt>
      <trkpt lat="47.548817" lon="1.728019">
        <ele>147.0</ele>
        <time>2022-03-31T07:20:02Z</time>
      </trkpt>
      <trkpt lat="47.548805" lon="1.728024">
        <ele>147.0</ele>
        <time>2022-03-31T07:20:03Z</time>
      </trkpt>
      <trkpt lat="47.54879" lon="1.7280265">
        <ele>147.0</ele>
        <time>2022-03-31T07:20:04Z</time>
      </trkpt>
      <trkpt lat="47.54878" lon="1.7280303">
        <ele>147.0</ele>
        <time>2022-03-31T07:20:05Z</time>
      </trkpt>
      <trkpt lat="47.548767" lon="1.7280338">
        <ele>147.0</ele>
        <time>2022-03-31T07:20:06Z</time>
      </trkpt>
      <trkpt lat="47.548756" lon="1.728037">
        <ele>147.0</ele>
        <time>2022-03-31T07:20:07Z</time>
      </trkpt>
      <trkpt lat="47.548744" lon="1.7280407">
        <ele>146.0</ele>
        <time>2022-03-31T07:20:08Z</time>
      </trkpt>
      <trkpt lat="47.548733" lon="1.7280444">
        <ele>146.0</ele>
        <time>2022-03-31T07:20:09Z</time>
      </trkpt>
      <trkpt lat="47.54872" lon="1.7280465">
        <ele>146.0</ele>
        <time>2022-03-31T07:20:10Z</time>
      </trkpt>
      <trkpt lat="47.548714" lon="1.728048">
        <ele>146.0</ele>
        <time>2022-03-31T07:20:11Z</time>
      </trkpt>
      <trkpt lat="47.548702" lon="1.7280498">
        <ele>146.0</ele>
        <time>2022-03-31T07:20:12Z</time>
      </trkpt>
      <trkpt lat="47.54869" lon="1.7280554">
        <ele>146.0</ele>
        <time>2022-03-31T07:20:13Z</time>
      </trkpt>
      <trkpt lat="47.54868" lon="1.7280599">
        <ele>146.0</ele>
        <time>2022-03-31T07:20:14Z</time>
      </trkpt>
      <trkpt lat="47.548664" lon="1.7280637">
        <ele>145.0</ele>
        <time>2022-03-31T07:20:15Z</time>
      </trkpt>
      <trkpt lat="47.548656" lon="1.7280662">
        <ele>145.0</ele>
        <time>2022-03-31T07:20:16Z</time>
      </trkpt>
      <trkpt lat="47.548645" lon="1.7280703">
        <ele>145.0</ele>
        <time>2022-03-31T07:20:17Z</time>
      </trkpt>
      <trkpt lat="47.548634" lon="1.7280709">
        <ele>144.0</ele>
        <time>2022-03-31T07:20:18Z</time>
      </trkpt>
      <trkpt lat="47.54862" lon="1.7280729">
        <ele>144.0</ele>
        <time>2022-03-31T07:20:19Z</time>
      </trkpt>
      <trkpt lat="47.548607" lon="1.7280767">
        <ele>144.0</ele>
        <time>2022-03-31T07:20:20Z</time>
      </trkpt>
      <trkpt lat="47.54859" lon="1.7280785">
        <ele>144.0</ele>
        <time>2022-03-31T07:20:21Z</time>
      </trkpt>
      <trkpt lat="47.548584" lon="1.728082">
        <ele>144.0</ele>
        <time>2022-03-31T07:20:22Z</time>
      </trkpt>
      <trkpt lat="47.548573" lon="1.7280868">
        <ele>143.0</ele>
        <time>2022-03-31T07:20:23Z</time>
      </trkpt>
      <trkpt lat="47.54856" lon="1.7280914">
        <ele>143.0</ele>
        <time>2022-03-31T07:20:24Z</time>
      </trkpt>
      <trkpt lat="47.54855" lon="1.7280947">
        <ele>143.0</ele>
        <time>2022-03-31T07:20:25Z</time>
      </trkpt>
      <trkpt lat="47.54854" lon="1.7280968">
        <ele>143.0</ele>
        <time>2022-03-31T07:20:26Z</time>
      </trkpt>
      <trkpt lat="47.548523" lon="1.7280991">
        <ele>143.0</ele>
        <time>2022-03-31T07:20:27Z</time>
      </trkpt>
      <trkpt lat="47.54851" lon="1.7281015">
        <ele>143.0</ele>
        <time>2022-03-31T07:20:28Z</time>
      </trkpt>
      <trkpt lat="47.548504" lon="1.7281036">
        <ele>143.0</ele>
        <time>2022-03-31T07:20:29Z</time>
      </trkpt>
      <trkpt lat="47.548492" lon="1.7281017">
        <ele>143.0</ele>
        <time>2022-03-31T07:20:30Z</time>
      </trkpt>
      <trkpt lat="47.54848" lon="1.7280997">
        <ele>142.0</ele>
        <time>2022-03-31T07:20:31Z</time>
      </trkpt>
      <trkpt lat="47.54847" lon="1.7280977">
        <ele>142.0</ele>
        <time>2022-03-31T07:20:32Z</time>
      </trkpt>
      <trkpt lat="47.54846" lon="1.7280958">
        <ele>142.0</ele>
        <time>2022-03-31T07:20:33Z</time>
      </trkpt>
      <trkpt lat="47.548447" lon="1.7280949">
        <ele>142.0</ele>
        <time>2022-03-31T07:20:34Z</time>
      </trkpt>
      <trkpt lat="47.548435" lon="1.7280941">
        <ele>143.0</ele>
        <time>2022-03-31T07:20:35Z</time>
      </trkpt>
      <trkpt lat="47.54842" lon="1.7280946">
        <ele>142.0</ele>
        <time>2022-03-31T07:20:36Z</time>
      </trkpt>
      <trkpt lat="47.54841" lon="1.7280991">
        <ele>142.0</ele>
        <time>2022-03-31T07:20:37Z</time>
      </trkpt>
      <trkpt lat="47.548397" lon="1.7281035">
        <ele>142.0</ele>
        <time>2022-03-31T07:20:38Z</time>
      </trkpt>
      <trkpt lat="47.548386" lon="1.7281095">
        <ele>142.0</ele>
        <time>2022-03-31T07:20:39Z</time>
      </trkpt>
      <trkpt lat="47.54837" lon="1.7281121">
        <ele>141.0</ele>
        <time>2022-03-31T07:20:40Z</time>
      </trkpt>
      <trkpt lat="47.548355" lon="1.7281135">
        <ele>141.0</ele>
        <time>2022-03-31T07:20:41Z</time>
      </trkpt>
      <trkpt lat="47.54834" lon="1.728113">
        <ele>141.0</ele>
        <time>2022-03-31T07:20:42Z</time>
      </trkpt>
      <trkpt lat="47.548325" lon="1.7281185">
        <ele>140.0</ele>
        <time>2022-03-31T07:20:43Z</time>
      </trkpt>
      <trkpt lat="47.548313" lon="1.7281188">
        <ele>140.0</ele>
        <time>2022-03-31T07:20:44Z</time>
      </trkpt>
      <trkpt lat="47.548298" lon="1.7281214">
        <ele>140.0</ele>
        <time>2022-03-31T07:20:45Z</time>
      </trkpt>
      <trkpt lat="47.548286" lon="1.7281243">
        <ele>140.0</ele>
        <time>2022-03-31T07:20:46Z</time>
      </trkpt>
      <trkpt lat="47.548275" lon="1.7281274">
        <ele>140.0</ele>
        <time>2022-03-31T07:20:47Z</time>
      </trkpt>
      <trkpt lat="47.548264" lon="1.7281249">
        <ele>140.0</ele>
        <time>2022-03-31T07:20:48Z</time>
      </trkpt>
      <trkpt lat="47.54825" lon="1.7281269">
        <ele>140.0</ele>
        <time>2022-03-31T07:20:49Z</time>
      </trkpt>
      <trkpt lat="47.548233" lon="1.7281325">
        <ele>139.0</ele>
        <time>2022-03-31T07:20:50Z</time>
      </trkpt>
      <trkpt lat="47.548218" lon="1.7281392">
        <ele>140.0</ele>
        <time>2022-03-31T07:20:51Z</time>
      </trkpt>
      <trkpt lat="47.548206" lon="1.7281435">
        <ele>140.0</ele>
        <time>2022-03-31T07:20:52Z</time>
      </trkpt>
      <trkpt lat="47.54819" lon="1.7281473">
        <ele>140.0</ele>
        <time>2022-03-31T07:20:53Z</time>
      </trkpt>
      <trkpt lat="47.54818" lon="1.7281542">
        <ele>140.0</ele>
        <time>2022-03-31T07:20:54Z</time>
      </trkpt>
      <trkpt lat="47.548164" lon="1.7281595">
        <ele>140.0</ele>
        <time>2022-03-31T07:20:55Z</time>
      </trkpt>
      <trkpt lat="47.548153" lon="1.7281638">
        <ele>140.0</ele>
        <time>2022-03-31T07:20:56Z</time>
      </trkpt>
      <trkpt lat="47.54814" lon="1.7281682">
        <ele>140.0</ele>
        <time>2022-03-31T07:20:57Z</time>
      </trkpt>
      <trkpt lat="47.54813" lon="1.7281716">
        <ele>140.0</ele>
        <time>2022-03-31T07:20:58Z</time>
      </trkpt>
      <trkpt lat="47.54812" lon="1.7281672">
        <ele>139.0</ele>
        <time>2022-03-31T07:20:59Z</time>
      </trkpt>
      <trkpt lat="47.548103" lon="1.7281677">
        <ele>139.0</ele>
        <time>2022-03-31T07:21:00Z</time>
      </trkpt>
      <trkpt lat="47.54809" lon="1.7281711">
        <ele>139.0</ele>
        <time>2022-03-31T07:21:01Z</time>
      </trkpt>
      <trkpt lat="47.54808" lon="1.7281734">
        <ele>139.0</ele>
        <time>2022-03-31T07:21:02Z</time>
      </trkpt>
      <trkpt lat="47.548065" lon="1.7281797">
        <ele>139.0</ele>
        <time>2022-03-31T07:21:03Z</time>
      </trkpt>
      <trkpt lat="47.548054" lon="1.7281802">
        <ele>139.0</ele>
        <time>2022-03-31T07:21:04Z</time>
      </trkpt>
      <trkpt lat="47.548042" lon="1.7281785">
        <ele>139.0</ele>
        <time>2022-03-31T07:21:05Z</time>
      </trkpt>
      <trkpt lat="47.54803" lon="1.7281793">
        <ele>139.0</ele>
        <time>2022-03-31T07:21:06Z</time>
      </trkpt>
      <trkpt lat="47.54802" lon="1.7281802">
        <ele>138.0</ele>
        <time>2022-03-31T07:21:07Z</time>
      </trkpt>
      <trkpt lat="47.548008" lon="1.7281827">
        <ele>138.0</ele>
        <time>2022-03-31T07:21:08Z</time>
      </trkpt>
      <trkpt lat="47.547997" lon="1.7281846">
        <ele>138.0</ele>
        <time>2022-03-31T07:21:09Z</time>
      </trkpt>
      <trkpt lat="47.547985" lon="1.7281833">
        <ele>138.0</ele>
        <time>2022-03-31T07:21:10Z</time>
      </trkpt>
      <trkpt lat="47.54797" lon="1.728187">
        <ele>138.0</ele>
        <time>2022-03-31T07:21:11Z</time>
      </trkpt>
      <trkpt lat="47.54796" lon="1.7281872">
        <ele>138.0</ele>
        <time>2022-03-31T07:21:12Z</time>
      </trkpt>
      <trkpt lat="47.547947" lon="1.7281891">
        <ele>138.0</ele>
        <time>2022-03-31T07:21:13Z</time>
      </trkpt>
      <trkpt lat="47.54793" lon="1.7281942">
        <ele>138.0</ele>
        <time>2022-03-31T07:21:14Z</time>
      </trkpt>
      <trkpt lat="47.54792" lon="1.7281954">
        <ele>138.0</ele>
        <time>2022-03-31T07:21:15Z</time>
      </trkpt>
      <trkpt lat="47.54791" lon="1.7281991">
        <ele>138.0</ele>
        <time>2022-03-31T07:21:16Z</time>
      </trkpt>
      <trkpt lat="47.5479" lon="1.7282085">
        <ele>138.0</ele>
        <time>2022-03-31T07:21:17Z</time>
      </trkpt>
      <trkpt lat="47.54789" lon="1.7282139">
        <ele>139.0</ele>
        <time>2022-03-31T07:21:18Z</time>
      </trkpt>
      <trkpt lat="47.54788" lon="1.728218">
        <ele>139.0</ele>
        <time>2022-03-31T07:21:19Z</time>
      </trkpt>
      <trkpt lat="47.54787" lon="1.7282193">
        <ele>139.0</ele>
        <time>2022-03-31T07:21:20Z</time>
      </trkpt>
      <trkpt lat="47.547863" lon="1.728218">
        <ele>139.0</ele>
        <time>2022-03-31T07:21:21Z</time>
      </trkpt>
      <trkpt lat="47.54785" lon="1.7282177">
        <ele>138.0</ele>
        <time>2022-03-31T07:21:22Z</time>
      </trkpt>
      <trkpt lat="47.547836" lon="1.7282236">
        <ele>138.0</ele>
        <time>2022-03-31T07:21:23Z</time>
      </trkpt>
      <trkpt lat="47.54782" lon="1.7282296">
        <ele>138.0</ele>
        <time>2022-03-31T07:21:24Z</time>
      </trkpt>
      <trkpt lat="47.54781" lon="1.7282339">
        <ele>138.0</ele>
        <time>2022-03-31T07:21:25Z</time>
      </trkpt>
      <trkpt lat="47.547794" lon="1.7282445">
        <ele>138.0</ele>
        <time>2022-03-31T07:21:26Z</time>
      </trkpt>
      <trkpt lat="47.54778" lon="1.7282474">
        <ele>138.0</ele>
        <time>2022-03-31T07:21:27Z</time>
      </trkpt>
      <trkpt lat="47.547764" lon="1.7282497">
        <ele>138.0</ele>
        <time>2022-03-31T07:21:28Z</time>
      </trkpt>
      <trkpt lat="47.547752" lon="1.728252">
        <ele>137.0</ele>
        <time>2022-03-31T07:21:29Z</time>
      </trkpt>
      <trkpt lat="47.547737" lon="1.7282563">
        <ele>137.0</ele>
        <time>2022-03-31T07:21:30Z</time>
      </trkpt>
      <trkpt lat="47.54772" lon="1.7282608">
        <ele>137.0</ele>
        <time>2022-03-31T07:21:31Z</time>
      </trkpt>
      <trkpt lat="47.54771" lon="1.7282604">
        <ele>138.0</ele>
        <time>2022-03-31T07:21:32Z</time>
      </trkpt>
      <trkpt lat="47.547695" lon="1.7282627">
        <ele>138.0</ele>
        <time>2022-03-31T07:21:33Z</time>
      </trkpt>
      <trkpt lat="47.547684" lon="1.7282683">
        <ele>138.0</ele>
        <time>2022-03-31T07:21:34Z</time>
      </trkpt>
      <trkpt lat="47.54767" lon="1.7282754">
        <ele>138.0</ele>
        <time>2022-03-31T07:21:35Z</time>
      </trkpt>
      <trkpt lat="47.54765" lon="1.7282771">
        <ele>138.0</ele>
        <time>2022-03-31T07:21:36Z</time>
      </trkpt>
      <trkpt lat="47.547638" lon="1.7282761">
        <ele>138.0</ele>
        <time>2022-03-31T07:21:37Z</time>
      </trkpt>
      <trkpt lat="47.547626" lon="1.7282763">
        <ele>138.0</ele>
        <time>2022-03-31T07:21:38Z</time>
      </trkpt>
      <trkpt lat="47.54761" lon="1.7282797">
        <ele>138.0</ele>
        <time>2022-03-31T07:21:39Z</time>
      </trkpt>
      <trkpt lat="47.547596" lon="1.7282861">
        <ele>138.0</ele>
        <time>2022-03-31T07:21:40Z</time>
      </trkpt>
      <trkpt lat="47.547585" lon="1.728288">
        <ele>137.0</ele>
        <time>2022-03-31T07:21:41Z</time>
      </trkpt>
      <trkpt lat="47.547573" lon="1.7282877">
        <ele>137.0</ele>
        <time>2022-03-31T07:21:42Z</time>
      </trkpt>
      <trkpt lat="47.547558" lon="1.7282891">
        <ele>137.0</ele>
        <time>2022-03-31T07:21:43Z</time>
      </trkpt>
      <trkpt lat="47.547546" lon="1.7282939">
        <ele>137.0</ele>
        <time>2022-03-31T07:21:44Z</time>
      </trkpt>
      <trkpt lat="47.547535" lon="1.7282951">
        <ele>137.0</ele>
        <time>2022-03-31T07:21:45Z</time>
      </trkpt>
      <trkpt lat="47.547523" lon="1.728299">
        <ele>137.0</ele>
        <time>2022-03-31T07:21:46Z</time>
      </trkpt>
      <trkpt lat="47.547512" lon="1.728297">
        <ele>138.0</ele>
        <time>2022-03-31T07:21:47Z</time>
      </trkpt>
      <trkpt lat="47.547497" lon="1.7282989">
        <ele>138.0</ele>
        <time>2022-03-31T07:21:48Z</time>
      </trkpt>
      <trkpt lat="47.547485" lon="1.728302">
        <ele>138.0</ele>
        <time>2022-03-31T07:21:49Z</time>
      </trkpt>
      <trkpt lat="47.547474" lon="1.728305">
        <ele>138.0</ele>
        <time>2022-03-31T07:21:50Z</time>
      </trkpt>
      <trkpt lat="47.547462" lon="1.7283125">
        <ele>138.0</ele>
        <time>2022-03-31T07:21:51Z</time>
      </trkpt>
      <trkpt lat="47.547447" lon="1.7283196">
        <ele>138.0</ele>
        <time>2022-03-31T07:21:52Z</time>
      </trkpt>
      <trkpt lat="47.547436" lon="1.7283225">
        <ele>138.0</ele>
        <time>2022-03-31T07:21:53Z</time>
      </trkpt>
      <trkpt lat="47.547424" lon="1.7283239">
        <ele>138.0</ele>
        <time>2022-03-31T07:21:54Z</time>
      </trkpt>
      <trkpt lat="47.547417" lon="1.7283286">
        <ele>138.0</ele>
        <time>2022-03-31T07:21:55Z</time>
      </trkpt>
      <trkpt lat="47.5474" lon="1.728333">
        <ele>138.0</ele>
        <time>2022-03-31T07:21:56Z</time>
      </trkpt>
      <trkpt lat="47.54739" lon="1.728332">
        <ele>138.0</ele>
        <time>2022-03-31T07:21:57Z</time>
      </trkpt>
      <trkpt lat="47.54738" lon="1.7283304">
        <ele>138.0</ele>
        <time>2022-03-31T07:21:58Z</time>
      </trkpt>
      <trkpt lat="47.547367" lon="1.7283301">
        <ele>138.0</ele>
        <time>2022-03-31T07:21:59Z</time>
      </trkpt>
      <trkpt lat="47.54736" lon="1.7283286">
        <ele>138.0</ele>
        <time>2022-03-31T07:22:00Z</time>
      </trkpt>
      <trkpt lat="47.547348" lon="1.7283273">
        <ele>137.0</ele>
        <time>2022-03-31T07:22:01Z</time>
      </trkpt>
      <trkpt lat="47.54734" lon="1.7283272">
        <ele>137.0</ele>
        <time>2022-03-31T07:22:02Z</time>
      </trkpt>
      <trkpt lat="47.547325" lon="1.7283316">
        <ele>137.0</ele>
        <time>2022-03-31T07:22:03Z</time>
      </trkpt>
      <trkpt lat="47.547314" lon="1.7283369">
        <ele>136.0</ele>
        <time>2022-03-31T07:22:04Z</time>
      </trkpt>
      <trkpt lat="47.547302" lon="1.7283396">
        <ele>137.0</ele>
        <time>2022-03-31T07:22:05Z</time>
      </trkpt>
      <trkpt lat="47.547295" lon="1.7283403">
        <ele>137.0</ele>
        <time>2022-03-31T07:22:06Z</time>
      </trkpt>
      <trkpt lat="47.547283" lon="1.7283405">
        <ele>136.0</ele>
        <time>2022-03-31T07:22:07Z</time>
      </trkpt>
      <trkpt lat="47.547276" lon="1.7283392">
        <ele>136.0</ele>
        <time>2022-03-31T07:22:08Z</time>
      </trkpt>
      <trkpt lat="47.547268" lon="1.7283349">
        <ele>136.0</ele>
        <time>2022-03-31T07:22:09Z</time>
      </trkpt>
      <trkpt lat="47.547264" lon="1.7283341">
        <ele>135.0</ele>
        <time>2022-03-31T07:22:10Z</time>
      </trkpt>
      <trkpt lat="47.547253" lon="1.728332">
        <ele>135.0</ele>
        <time>2022-03-31T07:22:11Z</time>
      </trkpt>
      <trkpt lat="47.547245" lon="1.7283304">
        <ele>135.0</ele>
        <time>2022-03-31T07:22:12Z</time>
      </trkpt>
      <trkpt lat="47.547234" lon="1.7283309">
        <ele>135.0</ele>
        <time>2022-03-31T07:22:13Z</time>
      </trkpt>
      <trkpt lat="47.54722" lon="1.7283318">
        <ele>135.0</ele>
        <time>2022-03-31T07:22:14Z</time>
      </trkpt>
      <trkpt lat="47.54721" lon="1.7283326">
        <ele>135.0</ele>
        <time>2022-03-31T07:22:15Z</time>
      </trkpt>
      <trkpt lat="47.5472" lon="1.7283322">
        <ele>135.0</ele>
        <time>2022-03-31T07:22:16Z</time>
      </trkpt>
      <trkpt lat="47.547184" lon="1.7283322">
        <ele>135.0</ele>
        <time>2022-03-31T07:22:17Z</time>
      </trkpt>
      <trkpt lat="47.547173" lon="1.728329">
        <ele>135.0</ele>
        <time>2022-03-31T07:22:18Z</time>
      </trkpt>
      <trkpt lat="47.547157" lon="1.7283286">
        <ele>135.0</ele>
        <time>2022-03-31T07:22:19Z</time>
      </trkpt>
      <trkpt lat="47.54714" lon="1.7283221">
        <ele>135.0</ele>
        <time>2022-03-31T07:22:20Z</time>
      </trkpt>
      <trkpt lat="47.547123" lon="1.7283219">
        <ele>135.0</ele>
        <time>2022-03-31T07:22:21Z</time>
      </trkpt>
      <trkpt lat="47.54711" lon="1.7283187">
        <ele>136.0</ele>
        <time>2022-03-31T07:22:22Z</time>
      </trkpt>
      <trkpt lat="47.5471" lon="1.7283106">
        <ele>136.0</ele>
        <time>2022-03-31T07:22:23Z</time>
      </trkpt>
      <trkpt lat="47.547085" lon="1.7283067">
        <ele>136.0</ele>
        <time>2022-03-31T07:22:24Z</time>
      </trkpt>
      <trkpt lat="47.547073" lon="1.7282991">
        <ele>136.0</ele>
        <time>2022-03-31T07:22:25Z</time>
      </trkpt>
      <trkpt lat="47.54706" lon="1.7283003">
        <ele>136.0</ele>
        <time>2022-03-31T07:22:26Z</time>
      </trkpt>
      <trkpt lat="47.547047" lon="1.7283039">
        <ele>137.0</ele>
        <time>2022-03-31T07:22:27Z</time>
      </trkpt>
      <trkpt lat="47.547035" lon="1.7283067">
        <ele>137.0</ele>
        <time>2022-03-31T07:22:28Z</time>
      </trkpt>
      <trkpt lat="47.547028" lon="1.728306">
        <ele>138.0</ele>
        <time>2022-03-31T07:22:29Z</time>
      </trkpt>
      <trkpt lat="47.547012" lon="1.7283081">
        <ele>138.0</ele>
        <time>2022-03-31T07:22:30Z</time>
      </trkpt>
      <trkpt lat="47.546997" lon="1.7283098">
        <ele>139.0</ele>
        <time>2022-03-31T07:22:31Z</time>
      </trkpt>
      <trkpt lat="47.54698" lon="1.728312">
        <ele>139.0</ele>
        <time>2022-03-31T07:22:32Z</time>
      </trkpt>
      <trkpt lat="47.54697" lon="1.7283095">
        <ele>140.0</ele>
        <time>2022-03-31T07:22:33Z</time>
      </trkpt>
      <trkpt lat="47.54696" lon="1.7283092">
        <ele>140.0</ele>
        <time>2022-03-31T07:22:34Z</time>
      </trkpt>
      <trkpt lat="47.546947" lon="1.7283088">
        <ele>140.0</ele>
        <time>2022-03-31T07:22:35Z</time>
      </trkpt>
      <trkpt lat="47.546932" lon="1.7283106">
        <ele>141.0</ele>
        <time>2022-03-31T07:22:36Z</time>
      </trkpt>
      <trkpt lat="47.546917" lon="1.7283118">
        <ele>141.0</ele>
        <time>2022-03-31T07:22:37Z</time>
      </trkpt>
      <trkpt lat="47.5469" lon="1.728313">
        <ele>141.0</ele>
        <time>2022-03-31T07:22:38Z</time>
      </trkpt>
      <trkpt lat="47.54689" lon="1.7283161">
        <ele>141.0</ele>
        <time>2022-03-31T07:22:39Z</time>
      </trkpt>
      <trkpt lat="47.546875" lon="1.7283142">
        <ele>141.0</ele>
        <time>2022-03-31T07:22:40Z</time>
      </trkpt>
      <trkpt lat="47.546864" lon="1.7283138">
        <ele>141.0</ele>
        <time>2022-03-31T07:22:41Z</time>
      </trkpt>
      <trkpt lat="47.54685" lon="1.7283145">
        <ele>141.0</ele>
        <time>2022-03-31T07:22:42Z</time>
      </trkpt>
      <trkpt lat="47.546837" lon="1.7283144">
        <ele>141.0</ele>
        <time>2022-03-31T07:22:43Z</time>
      </trkpt>
      <trkpt lat="47.54682" lon="1.7283157">
        <ele>142.0</ele>
        <time>2022-03-31T07:22:44Z</time>
      </trkpt>
      <trkpt lat="47.54681" lon="1.7283128">
        <ele>142.0</ele>
        <time>2022-03-31T07:22:45Z</time>
      </trkpt>
      <trkpt lat="47.546795" lon="1.7283142">
        <ele>142.0</ele>
        <time>2022-03-31T07:22:46Z</time>
      </trkpt>
      <trkpt lat="47.546787" lon="1.7283111">
        <ele>142.0</ele>
        <time>2022-03-31T07:22:47Z</time>
      </trkpt>
      <trkpt lat="47.546772" lon="1.7283088">
        <ele>142.0</ele>
        <time>2022-03-31T07:22:48Z</time>
      </trkpt>
      <trkpt lat="47.546757" lon="1.728306">
        <ele>142.0</ele>
        <time>2022-03-31T07:22:49Z</time>
      </trkpt>
      <trkpt lat="47.546738" lon="1.7283046">
        <ele>142.0</ele>
        <time>2022-03-31T07:22:50Z</time>
      </trkpt>
      <trkpt lat="47.546726" lon="1.7283051">
        <ele>142.0</ele>
        <time>2022-03-31T07:22:51Z</time>
      </trkpt>
      <trkpt lat="47.54671" lon="1.7283034">
        <ele>143.0</ele>
        <time>2022-03-31T07:22:52Z</time>
      </trkpt>
      <trkpt lat="47.5467" lon="1.728301">
        <ele>143.0</ele>
        <time>2022-03-31T07:22:53Z</time>
      </trkpt>
      <trkpt lat="47.546684" lon="1.7283001">
        <ele>143.0</ele>
        <time>2022-03-31T07:22:54Z</time>
      </trkpt>
      <trkpt lat="47.546673" lon="1.7282937">
        <ele>143.0</ele>
        <time>2022-03-31T07:22:55Z</time>
      </trkpt>
      <trkpt lat="47.54666" lon="1.7282912">
        <ele>143.0</ele>
        <time>2022-03-31T07:22:56Z</time>
      </trkpt>
      <trkpt lat="47.54665" lon="1.7282915">
        <ele>144.0</ele>
        <time>2022-03-31T07:22:57Z</time>
      </trkpt>
      <trkpt lat="47.546642" lon="1.7282906">
        <ele>144.0</ele>
        <time>2022-03-31T07:22:58Z</time>
      </trkpt>
      <trkpt lat="47.546627" lon="1.7282926">
        <ele>144.0</ele>
        <time>2022-03-31T07:22:59Z</time>
      </trkpt>
      <trkpt lat="47.546608" lon="1.7282932">
        <ele>144.0</ele>
        <time>2022-03-31T07:23:00Z</time>
      </trkpt>
      <trkpt lat="47.5466" lon="1.7282908">
        <ele>144.0</ele>
        <time>2022-03-31T07:23:01Z</time>
      </trkpt>
      <trkpt lat="47.54659" lon="1.7282858">
        <ele>144.0</ele>
        <time>2022-03-31T07:23:02Z</time>
      </trkpt>
      <trkpt lat="47.546574" lon="1.7282835">
        <ele>144.0</ele>
        <time>2022-03-31T07:23:03Z</time>
      </trkpt>
      <trkpt lat="47.546562" lon="1.7282809">
        <ele>143.0</ele>
        <time>2022-03-31T07:23:04Z</time>
      </trkpt>
      <trkpt lat="47.546547" lon="1.728281">
        <ele>144.0</ele>
        <time>2022-03-31T07:23:05Z</time>
      </trkpt>
      <trkpt lat="47.54654" lon="1.7282803">
        <ele>144.0</ele>
        <time>2022-03-31T07:23:06Z</time>
      </trkpt>
      <trkpt lat="47.546524" lon="1.7282794">
        <ele>144.0</ele>
        <time>2022-03-31T07:23:07Z</time>
      </trkpt>
      <trkpt lat="47.54651" lon="1.7282774">
        <ele>144.0</ele>
        <time>2022-03-31T07:23:08Z</time>
      </trkpt>
      <trkpt lat="47.546497" lon="1.7282784">
        <ele>144.0</ele>
        <time>2022-03-31T07:23:09Z</time>
      </trkpt>
      <trkpt lat="47.54648" lon="1.728277">
        <ele>144.0</ele>
        <time>2022-03-31T07:23:10Z</time>
      </trkpt>
      <trkpt lat="47.546467" lon="1.7282748">
        <ele>145.0</ele>
        <time>2022-03-31T07:23:11Z</time>
      </trkpt>
      <trkpt lat="47.546455" lon="1.7282727">
        <ele>145.0</ele>
        <time>2022-03-31T07:23:12Z</time>
      </trkpt>
      <trkpt lat="47.546436" lon="1.7282729">
        <ele>145.0</ele>
        <time>2022-03-31T07:23:13Z</time>
      </trkpt>
      <trkpt lat="47.54642" lon="1.728277">
        <ele>145.0</ele>
        <time>2022-03-31T07:23:14Z</time>
      </trkpt>
      <trkpt lat="47.54641" lon="1.7282827">
        <ele>144.0</ele>
        <time>2022-03-31T07:23:15Z</time>
      </trkpt>
      <trkpt lat="47.5464" lon="1.7282777">
        <ele>143.0</ele>
        <time>2022-03-31T07:23:16Z</time>
      </trkpt>
      <trkpt lat="47.546387" lon="1.7282741">
        <ele>143.0</ele>
        <time>2022-03-31T07:23:17Z</time>
      </trkpt>
      <trkpt lat="47.546375" lon="1.7282691">
        <ele>144.0</ele>
        <time>2022-03-31T07:23:18Z</time>
      </trkpt>
      <trkpt lat="47.54636" lon="1.7282666">
        <ele>144.0</ele>
        <time>2022-03-31T07:23:19Z</time>
      </trkpt>
      <trkpt lat="47.54635" lon="1.7282653">
        <ele>144.0</ele>
        <time>2022-03-31T07:23:20Z</time>
      </trkpt>
      <trkpt lat="47.546337" lon="1.7282647">
        <ele>144.0</ele>
        <time>2022-03-31T07:23:21Z</time>
      </trkpt>
      <trkpt lat="47.546326" lon="1.7282588">
        <ele>143.0</ele>
        <time>2022-03-31T07:23:22Z</time>
      </trkpt>
      <trkpt lat="47.54631" lon="1.7282522">
        <ele>144.0</ele>
        <time>2022-03-31T07:23:23Z</time>
      </trkpt>
      <trkpt lat="47.5463" lon="1.7282504">
        <ele>144.0</ele>
        <time>2022-03-31T07:23:24Z</time>
      </trkpt>
      <trkpt lat="47.546288" lon="1.7282497">
        <ele>144.0</ele>
        <time>2022-03-31T07:23:25Z</time>
      </trkpt>
      <trkpt lat="47.546276" lon="1.7282476">
        <ele>144.0</ele>
        <time>2022-03-31T07:23:26Z</time>
      </trkpt>
      <trkpt lat="47.546265" lon="1.7282467">
        <ele>143.0</ele>
        <time>2022-03-31T07:23:27Z</time>
      </trkpt>
      <trkpt lat="47.546253" lon="1.728248">
        <ele>143.0</ele>
        <time>2022-03-31T07:23:28Z</time>
      </trkpt>
      <trkpt lat="47.54624" lon="1.7282482">
        <ele>143.0</ele>
        <time>2022-03-31T07:23:29Z</time>
      </trkpt>
      <trkpt lat="47.546234" lon="1.7282445">
        <ele>143.0</ele>
        <time>2022-03-31T07:23:30Z</time>
      </trkpt>
      <trkpt lat="47.546223" lon="1.7282405">
        <ele>143.0</ele>
        <time>2022-03-31T07:23:31Z</time>
      </trkpt>
      <trkpt lat="47.54621" lon="1.728234">
        <ele>143.0</ele>
        <time>2022-03-31T07:23:32Z</time>
      </trkpt>
      <trkpt lat="47.5462" lon="1.7282288">
        <ele>143.0</ele>
        <time>2022-03-31T07:23:33Z</time>
      </trkpt>
      <trkpt lat="47.546185" lon="1.7282254">
        <ele>144.0</ele>
        <time>2022-03-31T07:23:34Z</time>
      </trkpt>
      <trkpt lat="47.546177" lon="1.7282193">
        <ele>144.0</ele>
        <time>2022-03-31T07:23:35Z</time>
      </trkpt>
      <trkpt lat="47.546165" lon="1.7282183">
        <ele>144.0</ele>
        <time>2022-03-31T07:23:36Z</time>
      </trkpt>
      <trkpt lat="47.546154" lon="1.7282171">
        <ele>143.0</ele>
        <time>2022-03-31T07:23:37Z</time>
      </trkpt>
      <trkpt lat="47.54614" lon="1.7282184">
        <ele>143.0</ele>
        <time>2022-03-31T07:23:38Z</time>
      </trkpt>
      <trkpt lat="47.546127" lon="1.7282169">
        <ele>143.0</ele>
        <time>2022-03-31T07:23:39Z</time>
      </trkpt>
      <trkpt lat="47.546116" lon="1.7282157">
        <ele>143.0</ele>
        <time>2022-03-31T07:23:40Z</time>
      </trkpt>
      <trkpt lat="47.5461" lon="1.7282126">
        <ele>143.0</ele>
        <time>2022-03-31T07:23:41Z</time>
      </trkpt>
      <trkpt lat="47.546085" lon="1.7282145">
        <ele>143.0</ele>
        <time>2022-03-31T07:23:42Z</time>
      </trkpt>
      <trkpt lat="47.54607" lon="1.7282137">
        <ele>143.0</ele>
        <time>2022-03-31T07:23:43Z</time>
      </trkpt>
      <trkpt lat="47.54606" lon="1.7282122">
        <ele>143.0</ele>
        <time>2022-03-31T07:23:44Z</time>
      </trkpt>
      <trkpt lat="47.546047" lon="1.7282124">
        <ele>143.0</ele>
        <time>2022-03-31T07:23:45Z</time>
      </trkpt>
      <trkpt lat="47.546036" lon="1.7282099">
        <ele>143.0</ele>
        <time>2022-03-31T07:23:46Z</time>
      </trkpt>
      <trkpt lat="47.54603" lon="1.728209">
        <ele>143.0</ele>
        <time>2022-03-31T07:23:47Z</time>
      </trkpt>
      <trkpt lat="47.546013" lon="1.7282071">
        <ele>143.0</ele>
        <time>2022-03-31T07:23:48Z</time>
      </trkpt>
      <trkpt lat="47.545998" lon="1.728203">
        <ele>143.0</ele>
        <time>2022-03-31T07:23:49Z</time>
      </trkpt>
      <trkpt lat="47.545982" lon="1.7282032">
        <ele>143.0</ele>
        <time>2022-03-31T07:23:50Z</time>
      </trkpt>
      <trkpt lat="47.54597" lon="1.7282002">
        <ele>143.0</ele>
        <time>2022-03-31T07:23:51Z</time>
      </trkpt>
      <trkpt lat="47.54596" lon="1.7282008">
        <ele>142.0</ele>
        <time>2022-03-31T07:23:52Z</time>
      </trkpt>
      <trkpt lat="47.545948" lon="1.7281985">
        <ele>142.0</ele>
        <time>2022-03-31T07:23:53Z</time>
      </trkpt>
      <trkpt lat="47.545937" lon="1.7281964">
        <ele>142.0</ele>
        <time>2022-03-31T07:23:54Z</time>
      </trkpt>
      <trkpt lat="47.545925" lon="1.7281917">
        <ele>142.0</ele>
        <time>2022-03-31T07:23:55Z</time>
      </trkpt>
      <trkpt lat="47.545914" lon="1.7281884">
        <ele>142.0</ele>
        <time>2022-03-31T07:23:56Z</time>
      </trkpt>
      <trkpt lat="47.545902" lon="1.7281877">
        <ele>143.0</ele>
        <time>2022-03-31T07:23:57Z</time>
      </trkpt>
      <trkpt lat="47.545883" lon="1.7281857">
        <ele>143.0</ele>
        <time>2022-03-31T07:23:58Z</time>
      </trkpt>
      <trkpt lat="47.545868" lon="1.7281828">
        <ele>144.0</ele>
        <time>2022-03-31T07:23:59Z</time>
      </trkpt>
      <trkpt lat="47.545856" lon="1.7281787">
        <ele>144.0</ele>
        <time>2022-03-31T07:24:00Z</time>
      </trkpt>
      <trkpt lat="47.54584" lon="1.7281808">
        <ele>144.0</ele>
        <time>2022-03-31T07:24:01Z</time>
      </trkpt>
      <trkpt lat="47.545826" lon="1.7281832">
        <ele>144.0</ele>
        <time>2022-03-31T07:24:02Z</time>
      </trkpt>
      <trkpt lat="47.545815" lon="1.7281824">
        <ele>144.0</ele>
        <time>2022-03-31T07:24:03Z</time>
      </trkpt>
      <trkpt lat="47.545803" lon="1.7281806">
        <ele>144.0</ele>
        <time>2022-03-31T07:24:04Z</time>
      </trkpt>
      <trkpt lat="47.545795" lon="1.7281773">
        <ele>145.0</ele>
        <time>2022-03-31T07:24:05Z</time>
      </trkpt>
      <trkpt lat="47.545788" lon="1.7281796">
        <ele>144.0</ele>
        <time>2022-03-31T07:24:06Z</time>
      </trkpt>
      <trkpt lat="47.545776" lon="1.7281786">
        <ele>144.0</ele>
        <time>2022-03-31T07:24:07Z</time>
      </trkpt>
      <trkpt lat="47.545765" lon="1.7281766">
        <ele>144.0</ele>
        <time>2022-03-31T07:24:08Z</time>
      </trkpt>
      <trkpt lat="47.545746" lon="1.7281754">
        <ele>144.0</ele>
        <time>2022-03-31T07:24:09Z</time>
      </trkpt>
      <trkpt lat="47.545734" lon="1.7281725">
        <ele>143.0</ele>
        <time>2022-03-31T07:24:10Z</time>
      </trkpt>
      <trkpt lat="47.545723" lon="1.7281709">
        <ele>143.0</ele>
        <time>2022-03-31T07:24:11Z</time>
      </trkpt>
      <trkpt lat="47.54571" lon="1.7281674">
        <ele>143.0</ele>
        <time>2022-03-31T07:24:12Z</time>
      </trkpt>
      <trkpt lat="47.545696" lon="1.7281674">
        <ele>143.0</ele>
        <time>2022-03-31T07:24:13Z</time>
      </trkpt>
      <trkpt lat="47.545685" lon="1.7281634">
        <ele>143.0</ele>
        <time>2022-03-31T07:24:14Z</time>
      </trkpt>
      <trkpt lat="47.545673" lon="1.7281587">
        <ele>143.0</ele>
        <time>2022-03-31T07:24:15Z</time>
      </trkpt>
      <trkpt lat="47.54566" lon="1.7281562">
        <ele>143.0</ele>
        <time>2022-03-31T07:24:16Z</time>
      </trkpt>
      <trkpt lat="47.545643" lon="1.7281531">
        <ele>143.0</ele>
        <time>2022-03-31T07:24:17Z</time>
      </trkpt>
      <trkpt lat="47.54563" lon="1.7281513">
        <ele>143.0</ele>
        <time>2022-03-31T07:24:18Z</time>
      </trkpt>
      <trkpt lat="47.54562" lon="1.7281497">
        <ele>143.0</ele>
        <time>2022-03-31T07:24:19Z</time>
      </trkpt>
      <trkpt lat="47.54561" lon="1.7281466">
        <ele>143.0</ele>
        <time>2022-03-31T07:24:20Z</time>
      </trkpt>
      <trkpt lat="47.545597" lon="1.728145">
        <ele>143.0</ele>
        <time>2022-03-31T07:24:21Z</time>
      </trkpt>
      <trkpt lat="47.545586" lon="1.7281437">
        <ele>144.0</ele>
        <time>2022-03-31T07:24:22Z</time>
      </trkpt>
      <trkpt lat="47.545574" lon="1.7281417">
        <ele>144.0</ele>
        <time>2022-03-31T07:24:23Z</time>
      </trkpt>
      <trkpt lat="47.545563" lon="1.7281389">
        <ele>144.0</ele>
        <time>2022-03-31T07:24:24Z</time>
      </trkpt>
      <trkpt lat="47.54555" lon="1.7281361">
        <ele>144.0</ele>
        <time>2022-03-31T07:24:25Z</time>
      </trkpt>
      <trkpt lat="47.54554" lon="1.7281346">
        <ele>144.0</ele>
        <time>2022-03-31T07:24:26Z</time>
      </trkpt>
      <trkpt lat="47.545532" lon="1.728133">
        <ele>144.0</ele>
        <time>2022-03-31T07:24:27Z</time>
      </trkpt>
      <trkpt lat="47.545525" lon="1.7281306">
        <ele>144.0</ele>
        <time>2022-03-31T07:24:28Z</time>
      </trkpt>
      <trkpt lat="47.545525" lon="1.7281306">
        <ele>144.0</ele>
        <time>2022-03-31T07:24:29Z</time>
      </trkpt>
      <trkpt lat="47.5455" lon="1.7281317">
        <ele>144.0</ele>
        <time>2022-03-31T07:24:30Z</time>
      </trkpt>
      <trkpt lat="47.54549" lon="1.728131">
        <ele>144.0</ele>
        <time>2022-03-31T07:24:31Z</time>
      </trkpt>
      <trkpt lat="47.545483" lon="1.7281255">
        <ele>144.0</ele>
        <time>2022-03-31T07:24:32Z</time>
      </trkpt>
      <trkpt lat="47.54547" lon="1.7281221">
        <ele>145.0</ele>
        <time>2022-03-31T07:24:33Z</time>
      </trkpt>
      <trkpt lat="47.545456" lon="1.728117">
        <ele>145.0</ele>
        <time>2022-03-31T07:24:34Z</time>
      </trkpt>
      <trkpt lat="47.54545" lon="1.7281147">
        <ele>145.0</ele>
        <time>2022-03-31T07:24:35Z</time>
      </trkpt>
      <trkpt lat="47.545437" lon="1.7281134">
        <ele>145.0</ele>
        <time>2022-03-31T07:24:36Z</time>
      </trkpt>
      <trkpt lat="47.545425" lon="1.7281117">
        <ele>145.0</ele>
        <time>2022-03-31T07:24:37Z</time>
      </trkpt>
      <trkpt lat="47.545414" lon="1.7281106">
        <ele>145.0</ele>
        <time>2022-03-31T07:24:38Z</time>
      </trkpt>
      <trkpt lat="47.545403" lon="1.7281097">
        <ele>145.0</ele>
        <time>2022-03-31T07:24:39Z</time>
      </trkpt>
      <trkpt lat="47.54539" lon="1.7281069">
        <ele>145.0</ele>
        <time>2022-03-31T07:24:40Z</time>
      </trkpt>
      <trkpt lat="47.54538" lon="1.7281041">
        <ele>145.0</ele>
        <time>2022-03-31T07:24:41Z</time>
      </trkpt>
      <trkpt lat="47.54537" lon="1.7281022">
        <ele>145.0</ele>
        <time>2022-03-31T07:24:42Z</time>
      </trkpt>
      <trkpt lat="47.545353" lon="1.728102">
        <ele>145.0</ele>
        <time>2022-03-31T07:24:43Z</time>
      </trkpt>
      <trkpt lat="47.545338" lon="1.7280983">
        <ele>145.0</ele>
        <time>2022-03-31T07:24:44Z</time>
      </trkpt>
      <trkpt lat="47.545326" lon="1.7280928">
        <ele>145.0</ele>
        <time>2022-03-31T07:24:45Z</time>
      </trkpt>
      <trkpt lat="47.545315" lon="1.7280891">
        <ele>145.0</ele>
        <time>2022-03-31T07:24:46Z</time>
      </trkpt>
      <trkpt lat="47.545303" lon="1.7280867">
        <ele>145.0</ele>
        <time>2022-03-31T07:24:47Z</time>
      </trkpt>
      <trkpt lat="47.545296" lon="1.7280874">
        <ele>145.0</ele>
        <time>2022-03-31T07:24:48Z</time>
      </trkpt>
      <trkpt lat="47.545284" lon="1.7280883">
        <ele>144.0</ele>
        <time>2022-03-31T07:24:49Z</time>
      </trkpt>
      <trkpt lat="47.545277" lon="1.7280867">
        <ele>144.0</ele>
        <time>2022-03-31T07:24:50Z</time>
      </trkpt>
      <trkpt lat="47.54527" lon="1.7280898">
        <ele>145.0</ele>
        <time>2022-03-31T07:24:51Z</time>
      </trkpt>
      <trkpt lat="47.54526" lon="1.7280924">
        <ele>144.0</ele>
        <time>2022-03-31T07:24:52Z</time>
      </trkpt>
      <trkpt lat="47.54525" lon="1.7280937">
        <ele>144.0</ele>
        <time>2022-03-31T07:24:53Z</time>
      </trkpt>
      <trkpt lat="47.545242" lon="1.7280961">
        <ele>144.0</ele>
        <time>2022-03-31T07:24:54Z</time>
      </trkpt>
      <trkpt lat="47.545242" lon="1.7280961">
        <ele>144.0</ele>
        <time>2022-03-31T07:24:55Z</time>
      </trkpt>
      <trkpt lat="47.545242" lon="1.7280961">
        <ele>144.0</ele>
        <time>2022-03-31T07:24:56Z</time>
      </trkpt>
      <trkpt lat="47.54521" lon="1.7280974">
        <ele>144.0</ele>
        <time>2022-03-31T07:24:57Z</time>
      </trkpt>
      <trkpt lat="47.5452" lon="1.7280972">
        <ele>144.0</ele>
        <time>2022-03-31T07:24:58Z</time>
      </trkpt>
      <trkpt lat="47.545193" lon="1.7280923">
        <ele>143.0</ele>
        <time>2022-03-31T07:24:59Z</time>
      </trkpt>
      <trkpt lat="47.54518" lon="1.7280886">
        <ele>143.0</ele>
        <time>2022-03-31T07:25:00Z</time>
      </trkpt>
      <trkpt lat="47.54518" lon="1.7280886">
        <ele>143.0</ele>
        <time>2022-03-31T07:25:01Z</time>
      </trkpt>
      <trkpt lat="47.54518" lon="1.7280886">
        <ele>143.0</ele>
        <time>2022-03-31T07:25:02Z</time>
      </trkpt>
      <trkpt lat="47.54516" lon="1.728084">
        <ele>142.0</ele>
        <time>2022-03-31T07:25:03Z</time>
      </trkpt>
      <trkpt lat="47.545147" lon="1.7280849">
        <ele>143.0</ele>
        <time>2022-03-31T07:25:04Z</time>
      </trkpt>
      <trkpt lat="47.54513" lon="1.7280856">
        <ele>143.0</ele>
        <time>2022-03-31T07:25:05Z</time>
      </trkpt>
      <trkpt lat="47.54512" lon="1.7280865">
        <ele>143.0</ele>
        <time>2022-03-31T07:25:06Z</time>
      </trkpt>
      <trkpt lat="47.54511" lon="1.7280862">
        <ele>143.0</ele>
        <time>2022-03-31T07:25:07Z</time>
      </trkpt>
      <trkpt lat="47.545097" lon="1.728085">
        <ele>143.0</ele>
        <time>2022-03-31T07:25:08Z</time>
      </trkpt>
      <trkpt lat="47.545082" lon="1.7280865">
        <ele>143.0</ele>
        <time>2022-03-31T07:25:09Z</time>
      </trkpt>
      <trkpt lat="47.545067" lon="1.728087">
        <ele>143.0</ele>
        <time>2022-03-31T07:25:10Z</time>
      </trkpt>
      <trkpt lat="47.545055" lon="1.7280878">
        <ele>143.0</ele>
        <time>2022-03-31T07:25:11Z</time>
      </trkpt>
      <trkpt lat="47.545044" lon="1.7280889">
        <ele>143.0</ele>
        <time>2022-03-31T07:25:12Z</time>
      </trkpt>
      <trkpt lat="47.54503" lon="1.728087">
        <ele>144.0</ele>
        <time>2022-03-31T07:25:13Z</time>
      </trkpt>
      <trkpt lat="47.545017" lon="1.7280838">
        <ele>144.0</ele>
        <time>2022-03-31T07:25:14Z</time>
      </trkpt>
      <trkpt lat="47.545002" lon="1.7280861">
        <ele>144.0</ele>
        <time>2022-03-31T07:25:15Z</time>
      </trkpt>
      <trkpt lat="47.54499" lon="1.7280892">
        <ele>144.0</ele>
        <time>2022-03-31T07:25:16Z</time>
      </trkpt>
      <trkpt lat="47.54498" lon="1.7280937">
        <ele>143.0</ele>
        <time>2022-03-31T07:25:17Z</time>
      </trkpt>
      <trkpt lat="47.544964" lon="1.728098">
        <ele>143.0</ele>
        <time>2022-03-31T07:25:18Z</time>
      </trkpt>
      <trkpt lat="47.544952" lon="1.7280982">
        <ele>143.0</ele>
        <time>2022-03-31T07:25:19Z</time>
      </trkpt>
      <trkpt lat="47.54494" lon="1.7280964">
        <ele>143.0</ele>
        <time>2022-03-31T07:25:20Z</time>
      </trkpt>
      <trkpt lat="47.54493" lon="1.7280976">
        <ele>143.0</ele>
        <time>2022-03-31T07:25:21Z</time>
      </trkpt>
      <trkpt lat="47.544918" lon="1.7280995">
        <ele>143.0</ele>
        <time>2022-03-31T07:25:22Z</time>
      </trkpt>
      <trkpt lat="47.544907" lon="1.728103">
        <ele>143.0</ele>
        <time>2022-03-31T07:25:23Z</time>
      </trkpt>
      <trkpt lat="47.544895" lon="1.7281035">
        <ele>143.0</ele>
        <time>2022-03-31T07:25:24Z</time>
      </trkpt>
      <trkpt lat="47.54488" lon="1.7281027">
        <ele>142.0</ele>
        <time>2022-03-31T07:25:25Z</time>
      </trkpt>
      <trkpt lat="47.544865" lon="1.7281028">
        <ele>142.0</ele>
        <time>2022-03-31T07:25:26Z</time>
      </trkpt>
      <trkpt lat="47.54485" lon="1.728106">
        <ele>142.0</ele>
        <time>2022-03-31T07:25:27Z</time>
      </trkpt>
      <trkpt lat="47.544838" lon="1.7281115">
        <ele>142.0</ele>
        <time>2022-03-31T07:25:28Z</time>
      </trkpt>
      <trkpt lat="47.544823" lon="1.728115">
        <ele>142.0</ele>
        <time>2022-03-31T07:25:29Z</time>
      </trkpt>
      <trkpt lat="47.54481" lon="1.7281169">
        <ele>142.0</ele>
        <time>2022-03-31T07:25:30Z</time>
      </trkpt>
      <trkpt lat="47.5448" lon="1.7281212">
        <ele>142.0</ele>
        <time>2022-03-31T07:25:31Z</time>
      </trkpt>
      <trkpt lat="47.54479" lon="1.7281244">
        <ele>141.0</ele>
        <time>2022-03-31T07:25:32Z</time>
      </trkpt>
      <trkpt lat="47.544773" lon="1.7281256">
        <ele>141.0</ele>
        <time>2022-03-31T07:25:33Z</time>
      </trkpt>
      <trkpt lat="47.544758" lon="1.7281278">
        <ele>141.0</ele>
        <time>2022-03-31T07:25:34Z</time>
      </trkpt>
      <trkpt lat="47.544743" lon="1.7281289">
        <ele>141.0</ele>
        <time>2022-03-31T07:25:35Z</time>
      </trkpt>
      <trkpt lat="47.54473" lon="1.7281297">
        <ele>141.0</ele>
        <time>2022-03-31T07:25:36Z</time>
      </trkpt>
      <trkpt lat="47.544716" lon="1.7281305">
        <ele>141.0</ele>
        <time>2022-03-31T07:25:37Z</time>
      </trkpt>
      <trkpt lat="47.544704" lon="1.7281305">
        <ele>141.0</ele>
        <time>2022-03-31T07:25:38Z</time>
      </trkpt>
      <trkpt lat="47.544697" lon="1.7281314">
        <ele>140.0</ele>
        <time>2022-03-31T07:25:39Z</time>
      </trkpt>
      <trkpt lat="47.544685" lon="1.728131">
        <ele>140.0</ele>
        <time>2022-03-31T07:25:40Z</time>
      </trkpt>
      <trkpt lat="47.544678" lon="1.7281333">
        <ele>140.0</ele>
        <time>2022-03-31T07:25:41Z</time>
      </trkpt>
      <trkpt lat="47.544662" lon="1.7281348">
        <ele>140.0</ele>
        <time>2022-03-31T07:25:42Z</time>
      </trkpt>
      <trkpt lat="47.544655" lon="1.7281348">
        <ele>141.0</ele>
        <time>2022-03-31T07:25:43Z</time>
      </trkpt>
      <trkpt lat="47.544647" lon="1.7281332">
        <ele>141.0</ele>
        <time>2022-03-31T07:25:44Z</time>
      </trkpt>
      <trkpt lat="47.544632" lon="1.7281305">
        <ele>140.0</ele>
        <time>2022-03-31T07:25:45Z</time>
      </trkpt>
      <trkpt lat="47.544624" lon="1.7281334">
        <ele>140.0</ele>
        <time>2022-03-31T07:25:46Z</time>
      </trkpt>
      <trkpt lat="47.544613" lon="1.7281361">
        <ele>139.0</ele>
        <time>2022-03-31T07:25:47Z</time>
      </trkpt>
      <trkpt lat="47.544598" lon="1.7281307">
        <ele>140.0</ele>
        <time>2022-03-31T07:25:48Z</time>
      </trkpt>
      <trkpt lat="47.544575" lon="1.7281259">
        <ele>140.0</ele>
        <time>2022-03-31T07:25:49Z</time>
      </trkpt>
      <trkpt lat="47.544556" lon="1.7281189">
        <ele>142.0</ele>
        <time>2022-03-31T07:25:50Z</time>
      </trkpt>
      <trkpt lat="47.544544" lon="1.7281172">
        <ele>142.0</ele>
        <time>2022-03-31T07:25:51Z</time>
      </trkpt>
      <trkpt lat="47.54453" lon="1.728119">
        <ele>142.0</ele>
        <time>2022-03-31T07:25:52Z</time>
      </trkpt>
      <trkpt lat="47.544514" lon="1.7281203">
        <ele>143.0</ele>
        <time>2022-03-31T07:25:53Z</time>
      </trkpt>
      <trkpt lat="47.544495" lon="1.7281204">
        <ele>143.0</ele>
        <time>2022-03-31T07:25:54Z</time>
      </trkpt>
      <trkpt lat="47.544483" lon="1.7281181">
        <ele>143.0</ele>
        <time>2022-03-31T07:25:55Z</time>
      </trkpt>
      <trkpt lat="47.544468" lon="1.7281172">
        <ele>143.0</ele>
        <time>2022-03-31T07:25:56Z</time>
      </trkpt>
      <trkpt lat="47.544456" lon="1.7281171">
        <ele>142.0</ele>
        <time>2022-03-31T07:25:57Z</time>
      </trkpt>
      <trkpt lat="47.54444" lon="1.7281159">
        <ele>143.0</ele>
        <time>2022-03-31T07:25:58Z</time>
      </trkpt>
      <trkpt lat="47.54443" lon="1.7281132">
        <ele>143.0</ele>
        <time>2022-03-31T07:25:59Z</time>
      </trkpt>
      <trkpt lat="47.54442" lon="1.728114">
        <ele>143.0</ele>
        <time>2022-03-31T07:26:00Z</time>
      </trkpt>
      <trkpt lat="47.544403" lon="1.7281115">
        <ele>144.0</ele>
        <time>2022-03-31T07:26:01Z</time>
      </trkpt>
      <trkpt lat="47.544395" lon="1.728109">
        <ele>144.0</ele>
        <time>2022-03-31T07:26:02Z</time>
      </trkpt>
      <trkpt lat="47.544384" lon="1.7281084">
        <ele>144.0</ele>
        <time>2022-03-31T07:26:03Z</time>
      </trkpt>
      <trkpt lat="47.544376" lon="1.7281085">
        <ele>144.0</ele>
        <time>2022-03-31T07:26:04Z</time>
      </trkpt>
      <trkpt lat="47.544365" lon="1.72811">
        <ele>144.0</ele>
        <time>2022-03-31T07:26:05Z</time>
      </trkpt>
      <trkpt lat="47.54435" lon="1.7281109">
        <ele>144.0</ele>
        <time>2022-03-31T07:26:06Z</time>
      </trkpt>
      <trkpt lat="47.54434" lon="1.7281078">
        <ele>144.0</ele>
        <time>2022-03-31T07:26:07Z</time>
      </trkpt>
      <trkpt lat="47.544327" lon="1.7281052">
        <ele>144.0</ele>
        <time>2022-03-31T07:26:08Z</time>
      </trkpt>
      <trkpt lat="47.54431" lon="1.7281028">
        <ele>144.0</ele>
        <time>2022-03-31T07:26:09Z</time>
      </trkpt>
      <trkpt lat="47.544296" lon="1.7281014">
        <ele>144.0</ele>
        <time>2022-03-31T07:26:10Z</time>
      </trkpt>
      <trkpt lat="47.544285" lon="1.7280991">
        <ele>144.0</ele>
        <time>2022-03-31T07:26:11Z</time>
      </trkpt>
      <trkpt lat="47.54427" lon="1.7280991">
        <ele>144.0</ele>
        <time>2022-03-31T07:26:12Z</time>
      </trkpt>
      <trkpt lat="47.544254" lon="1.7280993">
        <ele>144.0</ele>
        <time>2022-03-31T07:26:13Z</time>
      </trkpt>
      <trkpt lat="47.54424" lon="1.7281003">
        <ele>145.0</ele>
        <time>2022-03-31T07:26:14Z</time>
      </trkpt>
      <trkpt lat="47.544224" lon="1.7281001">
        <ele>146.0</ele>
        <time>2022-03-31T07:26:15Z</time>
      </trkpt>
      <trkpt lat="47.54421" lon="1.7280998">
        <ele>145.0</ele>
        <time>2022-03-31T07:26:16Z</time>
      </trkpt>
      <trkpt lat="47.5442" lon="1.7280946">
        <ele>146.0</ele>
        <time>2022-03-31T07:26:17Z</time>
      </trkpt>
      <trkpt lat="47.54419" lon="1.728092">
        <ele>146.0</ele>
        <time>2022-03-31T07:26:18Z</time>
      </trkpt>
      <trkpt lat="47.544174" lon="1.7280873">
        <ele>146.0</ele>
        <time>2022-03-31T07:26:19Z</time>
      </trkpt>
      <trkpt lat="47.544167" lon="1.7280824">
        <ele>147.0</ele>
        <time>2022-03-31T07:26:20Z</time>
      </trkpt>
      <trkpt lat="47.544155" lon="1.7280824">
        <ele>147.0</ele>
        <time>2022-03-31T07:26:21Z</time>
      </trkpt>
      <trkpt lat="47.544144" lon="1.7280805">
        <ele>147.0</ele>
        <time>2022-03-31T07:26:22Z</time>
      </trkpt>
      <trkpt lat="47.54413" lon="1.7280778">
        <ele>146.0</ele>
        <time>2022-03-31T07:26:23Z</time>
      </trkpt>
      <trkpt lat="47.544113" lon="1.7280768">
        <ele>146.0</ele>
        <time>2022-03-31T07:26:24Z</time>
      </trkpt>
      <trkpt lat="47.544094" lon="1.7280741">
        <ele>146.0</ele>
        <time>2022-03-31T07:26:25Z</time>
      </trkpt>
      <trkpt lat="47.54408" lon="1.7280706">
        <ele>147.0</ele>
        <time>2022-03-31T07:26:26Z</time>
      </trkpt>
      <trkpt lat="47.544067" lon="1.7280681">
        <ele>147.0</ele>
        <time>2022-03-31T07:26:27Z</time>
      </trkpt>
      <trkpt lat="47.544056" lon="1.7280692">
        <ele>147.0</ele>
        <time>2022-03-31T07:26:28Z</time>
      </trkpt>
      <trkpt lat="47.544044" lon="1.7280723">
        <ele>147.0</ele>
        <time>2022-03-31T07:26:29Z</time>
      </trkpt>
      <trkpt lat="47.54403" lon="1.7280775">
        <ele>147.0</ele>
        <time>2022-03-31T07:26:30Z</time>
      </trkpt>
      <trkpt lat="47.544018" lon="1.7280743">
        <ele>148.0</ele>
        <time>2022-03-31T07:26:31Z</time>
      </trkpt>
      <trkpt lat="47.544003" lon="1.7280712">
        <ele>148.0</ele>
        <time>2022-03-31T07:26:32Z</time>
      </trkpt>
      <trkpt lat="47.543995" lon="1.7280726">
        <ele>148.0</ele>
        <time>2022-03-31T07:26:33Z</time>
      </trkpt>
      <trkpt lat="47.543983" lon="1.728074">
        <ele>148.0</ele>
        <time>2022-03-31T07:26:34Z</time>
      </trkpt>
      <trkpt lat="47.543972" lon="1.7280725">
        <ele>148.0</ele>
        <time>2022-03-31T07:26:35Z</time>
      </trkpt>
      <trkpt lat="47.54396" lon="1.7280716">
        <ele>148.0</ele>
        <time>2022-03-31T07:26:36Z</time>
      </trkpt>
      <trkpt lat="47.54395" lon="1.7280715">
        <ele>148.0</ele>
        <time>2022-03-31T07:26:37Z</time>
      </trkpt>
      <trkpt lat="47.543938" lon="1.7280707">
        <ele>148.0</ele>
        <time>2022-03-31T07:26:38Z</time>
      </trkpt>
      <trkpt lat="47.543922" lon="1.7280728">
        <ele>148.0</ele>
        <time>2022-03-31T07:26:39Z</time>
      </trkpt>
      <trkpt lat="47.54391" lon="1.7280731">
        <ele>148.0</ele>
        <time>2022-03-31T07:26:40Z</time>
      </trkpt>
      <trkpt lat="47.5439" lon="1.7280746">
        <ele>148.0</ele>
        <time>2022-03-31T07:26:41Z</time>
      </trkpt>
      <trkpt lat="47.543888" lon="1.7280726">
        <ele>148.0</ele>
        <time>2022-03-31T07:26:42Z</time>
      </trkpt>
      <trkpt lat="47.543877" lon="1.7280693">
        <ele>148.0</ele>
        <time>2022-03-31T07:26:43Z</time>
      </trkpt>
      <trkpt lat="47.54386" lon="1.7280695">
        <ele>148.0</ele>
        <time>2022-03-31T07:26:44Z</time>
      </trkpt>
      <trkpt lat="47.543846" lon="1.7280722">
        <ele>148.0</ele>
        <time>2022-03-31T07:26:45Z</time>
      </trkpt>
      <trkpt lat="47.543835" lon="1.728073">
        <ele>148.0</ele>
        <time>2022-03-31T07:26:46Z</time>
      </trkpt>
      <trkpt lat="47.54382" lon="1.7280722">
        <ele>148.0</ele>
        <time>2022-03-31T07:26:47Z</time>
      </trkpt>
      <trkpt lat="47.543804" lon="1.7280709">
        <ele>147.0</ele>
        <time>2022-03-31T07:26:48Z</time>
      </trkpt>
      <trkpt lat="47.543793" lon="1.7280691">
        <ele>147.0</ele>
        <time>2022-03-31T07:26:49Z</time>
      </trkpt>
      <trkpt lat="47.543777" lon="1.7280684">
        <ele>147.0</ele>
        <time>2022-03-31T07:26:50Z</time>
      </trkpt>
      <trkpt lat="47.543766" lon="1.7280667">
        <ele>147.0</ele>
        <time>2022-03-31T07:26:51Z</time>
      </trkpt>
      <trkpt lat="47.543755" lon="1.728069">
        <ele>147.0</ele>
        <time>2022-03-31T07:26:52Z</time>
      </trkpt>
      <trkpt lat="47.543743" lon="1.7280688">
        <ele>147.0</ele>
        <time>2022-03-31T07:26:53Z</time>
      </trkpt>
      <trkpt lat="47.543728" lon="1.7280686">
        <ele>148.0</ele>
        <time>2022-03-31T07:26:54Z</time>
      </trkpt>
      <trkpt lat="47.54371" lon="1.72807">
        <ele>148.0</ele>
        <time>2022-03-31T07:26:55Z</time>
      </trkpt>
      <trkpt lat="47.543694" lon="1.7280695">
        <ele>148.0</ele>
        <time>2022-03-31T07:26:56Z</time>
      </trkpt>
      <trkpt lat="47.543682" lon="1.728065">
        <ele>148.0</ele>
        <time>2022-03-31T07:26:57Z</time>
      </trkpt>
      <trkpt lat="47.54367" lon="1.7280616">
        <ele>148.0</ele>
        <time>2022-03-31T07:26:58Z</time>
      </trkpt>
      <trkpt lat="47.543663" lon="1.7280571">
        <ele>148.0</ele>
        <time>2022-03-31T07:26:59Z</time>
      </trkpt>
      <trkpt lat="47.543644" lon="1.7280548">
        <ele>148.0</ele>
        <time>2022-03-31T07:27:00Z</time>
      </trkpt>
      <trkpt lat="47.543633" lon="1.7280549">
        <ele>148.0</ele>
        <time>2022-03-31T07:27:01Z</time>
      </trkpt>
      <trkpt lat="47.543625" lon="1.728052">
        <ele>148.0</ele>
        <time>2022-03-31T07:27:02Z</time>
      </trkpt>
      <trkpt lat="47.54361" lon="1.7280475">
        <ele>148.0</ele>
        <time>2022-03-31T07:27:03Z</time>
      </trkpt>
      <trkpt lat="47.5436" lon="1.728044">
        <ele>148.0</ele>
        <time>2022-03-31T07:27:04Z</time>
      </trkpt>
      <trkpt lat="47.543587" lon="1.7280436">
        <ele>147.0</ele>
        <time>2022-03-31T07:27:05Z</time>
      </trkpt>
      <trkpt lat="47.543575" lon="1.7280424">
        <ele>148.0</ele>
        <time>2022-03-31T07:27:06Z</time>
      </trkpt>
      <trkpt lat="47.543564" lon="1.7280401">
        <ele>147.0</ele>
        <time>2022-03-31T07:27:07Z</time>
      </trkpt>
      <trkpt lat="47.543545" lon="1.7280414">
        <ele>147.0</ele>
        <time>2022-03-31T07:27:08Z</time>
      </trkpt>
      <trkpt lat="47.543533" lon="1.728043">
        <ele>148.0</ele>
        <time>2022-03-31T07:27:09Z</time>
      </trkpt>
      <trkpt lat="47.543518" lon="1.7280416">
        <ele>148.0</ele>
        <time>2022-03-31T07:27:10Z</time>
      </trkpt>
      <trkpt lat="47.543503" lon="1.7280399">
        <ele>148.0</ele>
        <time>2022-03-31T07:27:11Z</time>
      </trkpt>
      <trkpt lat="47.543488" lon="1.7280401">
        <ele>149.0</ele>
        <time>2022-03-31T07:27:12Z</time>
      </trkpt>
      <trkpt lat="47.543472" lon="1.7280413">
        <ele>149.0</ele>
        <time>2022-03-31T07:27:13Z</time>
      </trkpt>
      <trkpt lat="47.543457" lon="1.7280428">
        <ele>149.0</ele>
        <time>2022-03-31T07:27:14Z</time>
      </trkpt>
      <trkpt lat="47.54344" lon="1.7280412">
        <ele>150.0</ele>
        <time>2022-03-31T07:27:15Z</time>
      </trkpt>
      <trkpt lat="47.543427" lon="1.7280407">
        <ele>150.0</ele>
        <time>2022-03-31T07:27:16Z</time>
      </trkpt>
      <trkpt lat="47.54341" lon="1.7280387">
        <ele>150.0</ele>
        <time>2022-03-31T07:27:17Z</time>
      </trkpt>
      <trkpt lat="47.5434" lon="1.7280372">
        <ele>151.0</ele>
        <time>2022-03-31T07:27:18Z</time>
      </trkpt>
      <trkpt lat="47.543385" lon="1.7280374">
        <ele>151.0</ele>
        <time>2022-03-31T07:27:19Z</time>
      </trkpt>
      <trkpt lat="47.543373" lon="1.7280337">
        <ele>151.0</ele>
        <time>2022-03-31T07:27:20Z</time>
      </trkpt>
      <trkpt lat="47.54336" lon="1.7280314">
        <ele>151.0</ele>
        <time>2022-03-31T07:27:21Z</time>
      </trkpt>
      <trkpt lat="47.54335" lon="1.7280279">
        <ele>151.0</ele>
        <time>2022-03-31T07:27:22Z</time>
      </trkpt>
      <trkpt lat="47.543335" lon="1.728024">
        <ele>152.0</ele>
        <time>2022-03-31T07:27:23Z</time>
      </trkpt>
      <trkpt lat="47.54332" lon="1.7280234">
        <ele>152.0</ele>
        <time>2022-03-31T07:27:24Z</time>
      </trkpt>
      <trkpt lat="47.54331" lon="1.7280244">
        <ele>152.0</ele>
        <time>2022-03-31T07:27:25Z</time>
      </trkpt>
      <trkpt lat="47.543293" lon="1.7280221">
        <ele>152.0</ele>
        <time>2022-03-31T07:27:26Z</time>
      </trkpt>
      <trkpt lat="47.54328" lon="1.728019">
        <ele>152.0</ele>
        <time>2022-03-31T07:27:27Z</time>
      </trkpt>
      <trkpt lat="47.543266" lon="1.7280118">
        <ele>152.0</ele>
        <time>2022-03-31T07:27:28Z</time>
      </trkpt>
      <trkpt lat="47.54325" lon="1.7280085">
        <ele>151.0</ele>
        <time>2022-03-31T07:27:29Z</time>
      </trkpt>
      <trkpt lat="47.54324" lon="1.7280039">
        <ele>151.0</ele>
        <time>2022-03-31T07:27:30Z</time>
      </trkpt>
      <trkpt lat="47.543224" lon="1.7280003">
        <ele>151.0</ele>
        <time>2022-03-31T07:27:31Z</time>
      </trkpt>
      <trkpt lat="47.543217" lon="1.7279999">
        <ele>151.0</ele>
        <time>2022-03-31T07:27:32Z</time>
      </trkpt>
      <trkpt lat="47.543205" lon="1.7279947">
        <ele>151.0</ele>
        <time>2022-03-31T07:27:33Z</time>
      </trkpt>
      <trkpt lat="47.543194" lon="1.7279919">
        <ele>151.0</ele>
        <time>2022-03-31T07:27:34Z</time>
      </trkpt>
      <trkpt lat="47.543182" lon="1.7279888">
        <ele>151.0</ele>
        <time>2022-03-31T07:27:35Z</time>
      </trkpt>
      <trkpt lat="47.54317" lon="1.7279843">
        <ele>151.0</ele>
        <time>2022-03-31T07:27:36Z</time>
      </trkpt>
      <trkpt lat="47.54316" lon="1.7279756">
        <ele>150.0</ele>
        <time>2022-03-31T07:27:37Z</time>
      </trkpt>
      <trkpt lat="47.54315" lon="1.7279676">
        <ele>151.0</ele>
        <time>2022-03-31T07:27:38Z</time>
      </trkpt>
      <trkpt lat="47.54314" lon="1.7279617">
        <ele>151.0</ele>
        <time>2022-03-31T07:27:39Z</time>
      </trkpt>
      <trkpt lat="47.543125" lon="1.7279565">
        <ele>151.0</ele>
        <time>2022-03-31T07:27:40Z</time>
      </trkpt>
      <trkpt lat="47.543114" lon="1.7279546">
        <ele>151.0</ele>
        <time>2022-03-31T07:27:41Z</time>
      </trkpt>
      <trkpt lat="47.5431" lon="1.7279489">
        <ele>151.0</ele>
        <time>2022-03-31T07:27:42Z</time>
      </trkpt>
      <trkpt lat="47.543083" lon="1.7279422">
        <ele>151.0</ele>
        <time>2022-03-31T07:27:43Z</time>
      </trkpt>
      <trkpt lat="47.54307" lon="1.7279401">
        <ele>151.0</ele>
        <time>2022-03-31T07:27:44Z</time>
      </trkpt>
      <trkpt lat="47.54306" lon="1.7279351">
        <ele>151.0</ele>
        <time>2022-03-31T07:27:45Z</time>
      </trkpt>
      <trkpt lat="47.54305" lon="1.7279305">
        <ele>151.0</ele>
        <time>2022-03-31T07:27:46Z</time>
      </trkpt>
      <trkpt lat="47.543037" lon="1.7279258">
        <ele>151.0</ele>
        <time>2022-03-31T07:27:47Z</time>
      </trkpt>
      <trkpt lat="47.543022" lon="1.7279202">
        <ele>150.0</ele>
        <time>2022-03-31T07:27:48Z</time>
      </trkpt>
      <trkpt lat="47.54301" lon="1.7279145">
        <ele>151.0</ele>
        <time>2022-03-31T07:27:49Z</time>
      </trkpt>
      <trkpt lat="47.542995" lon="1.7279109">
        <ele>151.0</ele>
        <time>2022-03-31T07:27:50Z</time>
      </trkpt>
      <trkpt lat="47.542988" lon="1.7279056">
        <ele>151.0</ele>
        <time>2022-03-31T07:27:51Z</time>
      </trkpt>
      <trkpt lat="47.542988" lon="1.7279049">
        <ele>151.0</ele>
        <time>2022-03-31T07:27:52Z</time>
      </trkpt>
      <trkpt lat="47.54298" lon="1.7279038">
        <ele>152.0</ele>
        <time>2022-03-31T07:27:53Z</time>
      </trkpt>
      <trkpt lat="47.54297" lon="1.727902">
        <ele>152.0</ele>
        <time>2022-03-31T07:27:54Z</time>
      </trkpt>
      <trkpt lat="47.542957" lon="1.7278991">
        <ele>152.0</ele>
        <time>2022-03-31T07:27:55Z</time>
      </trkpt>
      <trkpt lat="47.542946" lon="1.7278936">
        <ele>152.0</ele>
        <time>2022-03-31T07:27:56Z</time>
      </trkpt>
      <trkpt lat="47.542934" lon="1.727888">
        <ele>152.0</ele>
        <time>2022-03-31T07:27:57Z</time>
      </trkpt>
      <trkpt lat="47.542923" lon="1.7278821">
        <ele>153.0</ele>
        <time>2022-03-31T07:27:58Z</time>
      </trkpt>
      <trkpt lat="47.542908" lon="1.7278774">
        <ele>153.0</ele>
        <time>2022-03-31T07:27:59Z</time>
      </trkpt>
      <trkpt lat="47.542896" lon="1.7278665">
        <ele>152.0</ele>
        <time>2022-03-31T07:28:00Z</time>
      </trkpt>
      <trkpt lat="47.542885" lon="1.7278613">
        <ele>152.0</ele>
        <time>2022-03-31T07:28:01Z</time>
      </trkpt>
      <trkpt lat="47.54287" lon="1.7278558">
        <ele>152.0</ele>
        <time>2022-03-31T07:28:02Z</time>
      </trkpt>
      <trkpt lat="47.542854" lon="1.7278508">
        <ele>152.0</ele>
        <time>2022-03-31T07:28:03Z</time>
      </trkpt>
      <trkpt lat="47.542843" lon="1.7278461">
        <ele>152.0</ele>
        <time>2022-03-31T07:28:04Z</time>
      </trkpt>
      <trkpt lat="47.54283" lon="1.7278407">
        <ele>152.0</ele>
        <time>2022-03-31T07:28:05Z</time>
      </trkpt>
      <trkpt lat="47.542816" lon="1.7278358">
        <ele>152.0</ele>
        <time>2022-03-31T07:28:06Z</time>
      </trkpt>
      <trkpt lat="47.542805" lon="1.7278316">
        <ele>152.0</ele>
        <time>2022-03-31T07:28:07Z</time>
      </trkpt>
      <trkpt lat="47.54279" lon="1.7278247">
        <ele>152.0</ele>
        <time>2022-03-31T07:28:08Z</time>
      </trkpt>
      <trkpt lat="47.542774" lon="1.7278197">
        <ele>152.0</ele>
        <time>2022-03-31T07:28:09Z</time>
      </trkpt>
      <trkpt lat="47.542767" lon="1.7278137">
        <ele>151.0</ele>
        <time>2022-03-31T07:28:10Z</time>
      </trkpt>
      <trkpt lat="47.542755" lon="1.7278099">
        <ele>151.0</ele>
        <time>2022-03-31T07:28:11Z</time>
      </trkpt>
      <trkpt lat="47.542744" lon="1.7278047">
        <ele>151.0</ele>
        <time>2022-03-31T07:28:12Z</time>
      </trkpt>
      <trkpt lat="47.542732" lon="1.7277989">
        <ele>151.0</ele>
        <time>2022-03-31T07:28:13Z</time>
      </trkpt>
      <trkpt lat="47.542717" lon="1.727792">
        <ele>151.0</ele>
        <time>2022-03-31T07:28:14Z</time>
      </trkpt>
      <trkpt lat="47.542706" lon="1.727784">
        <ele>150.0</ele>
        <time>2022-03-31T07:28:15Z</time>
      </trkpt>
      <trkpt lat="47.542686" lon="1.7277774">
        <ele>151.0</ele>
        <time>2022-03-31T07:28:16Z</time>
      </trkpt>
      <trkpt lat="47.542675" lon="1.7277702">
        <ele>151.0</ele>
        <time>2022-03-31T07:28:17Z</time>
      </trkpt>
      <trkpt lat="47.542664" lon="1.72776">
        <ele>151.0</ele>
        <time>2022-03-31T07:28:18Z</time>
      </trkpt>
      <trkpt lat="47.542652" lon="1.7277513">
        <ele>151.0</ele>
        <time>2022-03-31T07:28:19Z</time>
      </trkpt>
      <trkpt lat="47.542637" lon="1.7277431">
        <ele>151.0</ele>
        <time>2022-03-31T07:28:20Z</time>
      </trkpt>
      <trkpt lat="47.542625" lon="1.7277375">
        <ele>151.0</ele>
        <time>2022-03-31T07:28:21Z</time>
      </trkpt>
      <trkpt lat="47.542614" lon="1.7277317">
        <ele>152.0</ele>
        <time>2022-03-31T07:28:22Z</time>
      </trkpt>
      <trkpt lat="47.5426" lon="1.7277268">
        <ele>151.0</ele>
        <time>2022-03-31T07:28:23Z</time>
      </trkpt>
      <trkpt lat="47.542587" lon="1.7277188">
        <ele>151.0</ele>
        <time>2022-03-31T07:28:24Z</time>
      </trkpt>
      <trkpt lat="47.542576" lon="1.7277088">
        <ele>151.0</ele>
        <time>2022-03-31T07:28:25Z</time>
      </trkpt>
      <trkpt lat="47.542564" lon="1.7277023">
        <ele>151.0</ele>
        <time>2022-03-31T07:28:26Z</time>
      </trkpt>
      <trkpt lat="47.542553" lon="1.7276965">
        <ele>151.0</ele>
        <time>2022-03-31T07:28:27Z</time>
      </trkpt>
      <trkpt lat="47.54254" lon="1.7276906">
        <ele>151.0</ele>
        <time>2022-03-31T07:28:28Z</time>
      </trkpt>
      <trkpt lat="47.542526" lon="1.7276851">
        <ele>150.0</ele>
        <time>2022-03-31T07:28:29Z</time>
      </trkpt>
      <trkpt lat="47.542515" lon="1.7276764">
        <ele>150.0</ele>
        <time>2022-03-31T07:28:30Z</time>
      </trkpt>
      <trkpt lat="47.542507" lon="1.7276704">
        <ele>150.0</ele>
        <time>2022-03-31T07:28:31Z</time>
      </trkpt>
      <trkpt lat="47.542496" lon="1.7276657">
        <ele>150.0</ele>
        <time>2022-03-31T07:28:32Z</time>
      </trkpt>
      <trkpt lat="47.54248" lon="1.7276579">
        <ele>150.0</ele>
        <time>2022-03-31T07:28:33Z</time>
      </trkpt>
      <trkpt lat="47.542473" lon="1.7276502">
        <ele>150.0</ele>
        <time>2022-03-31T07:28:34Z</time>
      </trkpt>
      <trkpt lat="47.542458" lon="1.7276429">
        <ele>150.0</ele>
        <time>2022-03-31T07:28:35Z</time>
      </trkpt>
      <trkpt lat="47.542446" lon="1.7276382">
        <ele>150.0</ele>
        <time>2022-03-31T07:28:36Z</time>
      </trkpt>
      <trkpt lat="47.542435" lon="1.7276318">
        <ele>150.0</ele>
        <time>2022-03-31T07:28:37Z</time>
      </trkpt>
      <trkpt lat="47.542423" lon="1.7276287">
        <ele>150.0</ele>
        <time>2022-03-31T07:28:38Z</time>
      </trkpt>
      <trkpt lat="47.54241" lon="1.727626">
        <ele>150.0</ele>
        <time>2022-03-31T07:28:39Z</time>
      </trkpt>
      <trkpt lat="47.542397" lon="1.7276188">
        <ele>151.0</ele>
        <time>2022-03-31T07:28:40Z</time>
      </trkpt>
      <trkpt lat="47.54238" lon="1.727613">
        <ele>151.0</ele>
        <time>2022-03-31T07:28:41Z</time>
      </trkpt>
      <trkpt lat="47.54237" lon="1.727609">
        <ele>151.0</ele>
        <time>2022-03-31T07:28:42Z</time>
      </trkpt>
      <trkpt lat="47.542355" lon="1.727603">
        <ele>151.0</ele>
        <time>2022-03-31T07:28:43Z</time>
      </trkpt>
      <trkpt lat="47.542343" lon="1.727596">
        <ele>151.0</ele>
        <time>2022-03-31T07:28:44Z</time>
      </trkpt>
      <trkpt lat="47.54233" lon="1.7275914">
        <ele>151.0</ele>
        <time>2022-03-31T07:28:45Z</time>
      </trkpt>
      <trkpt lat="47.542316" lon="1.7275946">
        <ele>151.0</ele>
        <time>2022-03-31T07:28:46Z</time>
      </trkpt>
      <trkpt lat="47.542305" lon="1.7275913">
        <ele>151.0</ele>
        <time>2022-03-31T07:28:47Z</time>
      </trkpt>
      <trkpt lat="47.54229" lon="1.7275823">
        <ele>151.0</ele>
        <time>2022-03-31T07:28:48Z</time>
      </trkpt>
      <trkpt lat="47.54228" lon="1.7275795">
        <ele>151.0</ele>
        <time>2022-03-31T07:28:49Z</time>
      </trkpt>
      <trkpt lat="47.542267" lon="1.7275728">
        <ele>151.0</ele>
        <time>2022-03-31T07:28:50Z</time>
      </trkpt>
      <trkpt lat="47.542255" lon="1.7275641">
        <ele>151.0</ele>
        <time>2022-03-31T07:28:51Z</time>
      </trkpt>
      <trkpt lat="47.542244" lon="1.7275561">
        <ele>151.0</ele>
        <time>2022-03-31T07:28:52Z</time>
      </trkpt>
      <trkpt lat="47.542233" lon="1.7275531">
        <ele>151.0</ele>
        <time>2022-03-31T07:28:53Z</time>
      </trkpt>
      <trkpt lat="47.54222" lon="1.7275476">
        <ele>151.0</ele>
        <time>2022-03-31T07:28:54Z</time>
      </trkpt>
      <trkpt lat="47.54221" lon="1.727541">
        <ele>151.0</ele>
        <time>2022-03-31T07:28:55Z</time>
      </trkpt>
      <trkpt lat="47.5422" lon="1.7275375">
        <ele>151.0</ele>
        <time>2022-03-31T07:28:56Z</time>
      </trkpt>
      <trkpt lat="47.542187" lon="1.7275339">
        <ele>151.0</ele>
        <time>2022-03-31T07:28:57Z</time>
      </trkpt>
      <trkpt lat="47.542175" lon="1.7275324">
        <ele>151.0</ele>
        <time>2022-03-31T07:28:58Z</time>
      </trkpt>
      <trkpt lat="47.542164" lon="1.7275286">
        <ele>151.0</ele>
        <time>2022-03-31T07:28:59Z</time>
      </trkpt>
      <trkpt lat="47.54215" lon="1.7275257">
        <ele>151.0</ele>
        <time>2022-03-31T07:29:00Z</time>
      </trkpt>
      <trkpt lat="47.542137" lon="1.7275181">
        <ele>151.0</ele>
        <time>2022-03-31T07:29:01Z</time>
      </trkpt>
      <trkpt lat="47.542126" lon="1.7275101">
        <ele>151.0</ele>
        <time>2022-03-31T07:29:02Z</time>
      </trkpt>
      <trkpt lat="47.542103" lon="1.7274997">
        <ele>152.0</ele>
        <time>2022-03-31T07:29:03Z</time>
      </trkpt>
      <trkpt lat="47.542103" lon="1.7274997">
        <ele>152.0</ele>
        <time>2022-03-31T07:29:03Z</time>
      </trkpt>
      <trkpt lat="47.542095" lon="1.7274969">
        <ele>152.0</ele>
        <time>2022-03-31T07:29:05Z</time>
      </trkpt>
      <trkpt lat="47.542084" lon="1.7274929">
        <ele>152.0</ele>
        <time>2022-03-31T07:29:06Z</time>
      </trkpt>
      <trkpt lat="47.54207" lon="1.727487">
        <ele>152.0</ele>
        <time>2022-03-31T07:29:07Z</time>
      </trkpt>
      <trkpt lat="47.542057" lon="1.727482">
        <ele>152.0</ele>
        <time>2022-03-31T07:29:08Z</time>
      </trkpt>
      <trkpt lat="47.542038" lon="1.7274742">
        <ele>152.0</ele>
        <time>2022-03-31T07:29:09Z</time>
      </trkpt>
      <trkpt lat="47.542027" lon="1.7274656">
        <ele>152.0</ele>
        <time>2022-03-31T07:29:10Z</time>
      </trkpt>
      <trkpt lat="47.542015" lon="1.7274562">
        <ele>152.0</ele>
        <time>2022-03-31T07:29:11Z</time>
      </trkpt>
      <trkpt lat="47.542004" lon="1.7274501">
        <ele>152.0</ele>
        <time>2022-03-31T07:29:12Z</time>
      </trkpt>
      <trkpt lat="47.541992" lon="1.7274457">
        <ele>152.0</ele>
        <time>2022-03-31T07:29:13Z</time>
      </trkpt>
      <trkpt lat="47.541985" lon="1.727439">
        <ele>151.0</ele>
        <time>2022-03-31T07:29:14Z</time>
      </trkpt>
      <trkpt lat="47.54197" lon="1.7274314">
        <ele>151.0</ele>
        <time>2022-03-31T07:29:15Z</time>
      </trkpt>
      <trkpt lat="47.541958" lon="1.7274235">
        <ele>151.0</ele>
        <time>2022-03-31T07:29:16Z</time>
      </trkpt>
      <trkpt lat="47.541946" lon="1.7274175">
        <ele>151.0</ele>
        <time>2022-03-31T07:29:17Z</time>
      </trkpt>
      <trkpt lat="47.541935" lon="1.7274085">
        <ele>152.0</ele>
        <time>2022-03-31T07:29:18Z</time>
      </trkpt>
      <trkpt lat="47.541927" lon="1.7273986">
        <ele>151.0</ele>
        <time>2022-03-31T07:29:19Z</time>
      </trkpt>
      <trkpt lat="47.541916" lon="1.7273941">
        <ele>151.0</ele>
        <time>2022-03-31T07:29:20Z</time>
      </trkpt>
      <trkpt lat="47.541904" lon="1.7273868">
        <ele>151.0</ele>
        <time>2022-03-31T07:29:21Z</time>
      </trkpt>
      <trkpt lat="47.54189" lon="1.7273788">
        <ele>151.0</ele>
        <time>2022-03-31T07:29:22Z</time>
      </trkpt>
      <trkpt lat="47.541878" lon="1.7273692">
        <ele>151.0</ele>
        <time>2022-03-31T07:29:23Z</time>
      </trkpt>
      <trkpt lat="47.541862" lon="1.7273592">
        <ele>151.0</ele>
        <time>2022-03-31T07:29:24Z</time>
      </trkpt>
      <trkpt lat="47.541847" lon="1.7273474">
        <ele>151.0</ele>
        <time>2022-03-31T07:29:25Z</time>
      </trkpt>
      <trkpt lat="47.541836" lon="1.7273352">
        <ele>151.0</ele>
        <time>2022-03-31T07:29:26Z</time>
      </trkpt>
      <trkpt lat="47.54182" lon="1.7273296">
        <ele>151.0</ele>
        <time>2022-03-31T07:29:27Z</time>
      </trkpt>
      <trkpt lat="47.541813" lon="1.7273226">
        <ele>151.0</ele>
        <time>2022-03-31T07:29:28Z</time>
      </trkpt>
      <trkpt lat="47.541798" lon="1.7273153">
        <ele>151.0</ele>
        <time>2022-03-31T07:29:29Z</time>
      </trkpt>
      <trkpt lat="47.54179" lon="1.7273057">
        <ele>151.0</ele>
        <time>2022-03-31T07:29:30Z</time>
      </trkpt>
      <trkpt lat="47.541775" lon="1.7272952">
        <ele>151.0</ele>
        <time>2022-03-31T07:29:31Z</time>
      </trkpt>
      <trkpt lat="47.541763" lon="1.7272826">
        <ele>151.0</ele>
        <time>2022-03-31T07:29:32Z</time>
      </trkpt>
      <trkpt lat="47.54175" lon="1.7272747">
        <ele>151.0</ele>
        <time>2022-03-31T07:29:33Z</time>
      </trkpt>
      <trkpt lat="47.54174" lon="1.7272662">
        <ele>151.0</ele>
        <time>2022-03-31T07:29:34Z</time>
      </trkpt>
      <trkpt lat="47.541725" lon="1.7272518">
        <ele>151.0</ele>
        <time>2022-03-31T07:29:35Z</time>
      </trkpt>
      <trkpt lat="47.541718" lon="1.7272444">
        <ele>151.0</ele>
        <time>2022-03-31T07:29:36Z</time>
      </trkpt>
      <trkpt lat="47.541706" lon="1.7272376">
        <ele>151.0</ele>
        <time>2022-03-31T07:29:37Z</time>
      </trkpt>
      <trkpt lat="47.541695" lon="1.72723">
        <ele>151.0</ele>
        <time>2022-03-31T07:29:38Z</time>
      </trkpt>
      <trkpt lat="47.541683" lon="1.727223">
        <ele>151.0</ele>
        <time>2022-03-31T07:29:39Z</time>
      </trkpt>
      <trkpt lat="47.541676" lon="1.7272156">
        <ele>150.0</ele>
        <time>2022-03-31T07:29:40Z</time>
      </trkpt>
      <trkpt lat="47.541653" lon="1.7271953">
        <ele>150.0</ele>
        <time>2022-03-31T07:29:41Z</time>
      </trkpt>
      <trkpt lat="47.541653" lon="1.7271953">
        <ele>150.0</ele>
        <time>2022-03-31T07:29:41Z</time>
      </trkpt>
      <trkpt lat="47.54164" lon="1.7271857">
        <ele>150.0</ele>
        <time>2022-03-31T07:29:43Z</time>
      </trkpt>
      <trkpt lat="47.54163" lon="1.7271757">
        <ele>150.0</ele>
        <time>2022-03-31T07:29:44Z</time>
      </trkpt>
      <trkpt lat="47.54162" lon="1.7271681">
        <ele>149.0</ele>
        <time>2022-03-31T07:29:45Z</time>
      </trkpt>
      <trkpt lat="47.541603" lon="1.7271589">
        <ele>149.0</ele>
        <time>2022-03-31T07:29:46Z</time>
      </trkpt>
      <trkpt lat="47.541588" lon="1.727149">
        <ele>149.0</ele>
        <time>2022-03-31T07:29:47Z</time>
      </trkpt>
      <trkpt lat="47.541576" lon="1.7271392">
        <ele>149.0</ele>
        <time>2022-03-31T07:29:48Z</time>
      </trkpt>
      <trkpt lat="47.541553" lon="1.7271212">
        <ele>149.0</ele>
        <time>2022-03-31T07:29:49Z</time>
      </trkpt>
      <trkpt lat="47.541542" lon="1.7271125">
        <ele>149.0</ele>
        <time>2022-03-31T07:29:50Z</time>
      </trkpt>
      <trkpt lat="47.541534" lon="1.7271044">
        <ele>149.0</ele>
        <time>2022-03-31T07:29:51Z</time>
      </trkpt>
      <trkpt lat="47.541523" lon="1.7270974">
        <ele>149.0</ele>
        <time>2022-03-31T07:29:52Z</time>
      </trkpt>
      <trkpt lat="47.541515" lon="1.727091">
        <ele>149.0</ele>
        <time>2022-03-31T07:29:53Z</time>
      </trkpt>
      <trkpt lat="47.541508" lon="1.7270848">
        <ele>149.0</ele>
        <time>2022-03-31T07:29:54Z</time>
      </trkpt>
      <trkpt lat="47.541496" lon="1.7270796">
        <ele>148.0</ele>
        <time>2022-03-31T07:29:55Z</time>
      </trkpt>
      <trkpt lat="47.541496" lon="1.7270796">
        <ele>148.0</ele>
        <time>2022-03-31T07:29:55Z</time>
      </trkpt>
      <trkpt lat="47.54147" lon="1.7270591">
        <ele>149.0</ele>
        <time>2022-03-31T07:29:57Z</time>
      </trkpt>
      <trkpt lat="47.541462" lon="1.7270491">
        <ele>149.0</ele>
        <time>2022-03-31T07:29:58Z</time>
      </trkpt>
      <trkpt lat="47.541447" lon="1.7270381">
        <ele>149.0</ele>
        <time>2022-03-31T07:29:59Z</time>
      </trkpt>
      <trkpt lat="47.541447" lon="1.7270381">
        <ele>149.0</ele>
        <time>2022-03-31T07:29:59Z</time>
      </trkpt>
      <trkpt lat="47.541424" lon="1.7270305">
        <ele>149.0</ele>
        <time>2022-03-31T07:30:01Z</time>
      </trkpt>
      <trkpt lat="47.541412" lon="1.7270223">
        <ele>149.0</ele>
        <time>2022-03-31T07:30:02Z</time>
      </trkpt>
      <trkpt lat="47.5414" lon="1.7270132">
        <ele>149.0</ele>
        <time>2022-03-31T07:30:03Z</time>
      </trkpt>
      <trkpt lat="47.541386" lon="1.7270033">
        <ele>149.0</ele>
        <time>2022-03-31T07:30:04Z</time>
      </trkpt>
      <trkpt lat="47.541374" lon="1.7269944">
        <ele>149.0</ele>
        <time>2022-03-31T07:30:05Z</time>
      </trkpt>
      <trkpt lat="47.541363" lon="1.7269875">
        <ele>150.0</ele>
        <time>2022-03-31T07:30:06Z</time>
      </trkpt>
      <trkpt lat="47.54135" lon="1.7269797">
        <ele>150.0</ele>
        <time>2022-03-31T07:30:07Z</time>
      </trkpt>
      <trkpt lat="47.541344" lon="1.7269711">
        <ele>150.0</ele>
        <time>2022-03-31T07:30:08Z</time>
      </trkpt>
      <trkpt lat="47.541332" lon="1.726964">
        <ele>149.0</ele>
        <time>2022-03-31T07:30:09Z</time>
      </trkpt>
      <trkpt lat="47.54132" lon="1.7269526">
        <ele>149.0</ele>
        <time>2022-03-31T07:30:10Z</time>
      </trkpt>
      <trkpt lat="47.54131" lon="1.726946">
        <ele>149.0</ele>
        <time>2022-03-31T07:30:11Z</time>
      </trkpt>
      <trkpt lat="47.541294" lon="1.7269431">
        <ele>149.0</ele>
        <time>2022-03-31T07:30:12Z</time>
      </trkpt>
      <trkpt lat="47.541283" lon="1.7269359">
        <ele>149.0</ele>
        <time>2022-03-31T07:30:13Z</time>
      </trkpt>
      <trkpt lat="47.54127" lon="1.7269272">
        <ele>148.0</ele>
        <time>2022-03-31T07:30:14Z</time>
      </trkpt>
      <trkpt lat="47.541264" lon="1.7269195">
        <ele>148.0</ele>
        <time>2022-03-31T07:30:15Z</time>
      </trkpt>
      <trkpt lat="47.54125" lon="1.7269087">
        <ele>148.0</ele>
        <time>2022-03-31T07:30:16Z</time>
      </trkpt>
      <trkpt lat="47.54124" lon="1.7268994">
        <ele>148.0</ele>
        <time>2022-03-31T07:30:17Z</time>
      </trkpt>
      <trkpt lat="47.54123" lon="1.7268925">
        <ele>149.0</ele>
        <time>2022-03-31T07:30:18Z</time>
      </trkpt>
      <trkpt lat="47.541218" lon="1.726885">
        <ele>149.0</ele>
        <time>2022-03-31T07:30:19Z</time>
      </trkpt>
      <trkpt lat="47.541206" lon="1.7268747">
        <ele>149.0</ele>
        <time>2022-03-31T07:30:20Z</time>
      </trkpt>
      <trkpt lat="47.54119" lon="1.726868">
        <ele>149.0</ele>
        <time>2022-03-31T07:30:21Z</time>
      </trkpt>
      <trkpt lat="47.54118" lon="1.7268606">
        <ele>149.0</ele>
        <time>2022-03-31T07:30:22Z</time>
      </trkpt>
      <trkpt lat="47.54117" lon="1.726852">
        <ele>149.0</ele>
        <time>2022-03-31T07:30:23Z</time>
      </trkpt>
      <trkpt lat="47.541157" lon="1.726844">
        <ele>149.0</ele>
        <time>2022-03-31T07:30:24Z</time>
      </trkpt>
      <trkpt lat="47.54114" lon="1.7268366">
        <ele>150.0</ele>
        <time>2022-03-31T07:30:25Z</time>
      </trkpt>
      <trkpt lat="47.54113" lon="1.7268312">
        <ele>150.0</ele>
        <time>2022-03-31T07:30:26Z</time>
      </trkpt>
      <trkpt lat="47.541122" lon="1.726824">
        <ele>150.0</ele>
        <time>2022-03-31T07:30:27Z</time>
      </trkpt>
      <trkpt lat="47.54111" lon="1.726813">
        <ele>150.0</ele>
        <time>2022-03-31T07:30:28Z</time>
      </trkpt>
      <trkpt lat="47.541096" lon="1.7268038">
        <ele>150.0</ele>
        <time>2022-03-31T07:30:30Z</time>
      </trkpt>
      <trkpt lat="47.54109" lon="1.7267988">
        <ele>150.0</ele>
        <time>2022-03-31T07:30:31Z</time>
      </trkpt>
      <trkpt lat="47.541077" lon="1.7267942">
        <ele>149.0</ele>
        <time>2022-03-31T07:30:32Z</time>
      </trkpt>
      <trkpt lat="47.54107" lon="1.7267877">
        <ele>149.0</ele>
        <time>2022-03-31T07:30:33Z</time>
      </trkpt>
      <trkpt lat="47.541058" lon="1.7267767">
        <ele>149.0</ele>
        <time>2022-03-31T07:30:34Z</time>
      </trkpt>
      <trkpt lat="47.541042" lon="1.7267637">
        <ele>149.0</ele>
        <time>2022-03-31T07:30:35Z</time>
      </trkpt>
      <trkpt lat="47.541035" lon="1.7267596">
        <ele>149.0</ele>
        <time>2022-03-31T07:30:36Z</time>
      </trkpt>
      <trkpt lat="47.541023" lon="1.7267566">
        <ele>149.0</ele>
        <time>2022-03-31T07:30:37Z</time>
      </trkpt>
      <trkpt lat="47.54101" lon="1.7267472">
        <ele>149.0</ele>
        <time>2022-03-31T07:30:38Z</time>
      </trkpt>
      <trkpt lat="47.541004" lon="1.7267401">
        <ele>149.0</ele>
        <time>2022-03-31T07:30:39Z</time>
      </trkpt>
      <trkpt lat="47.540997" lon="1.7267311">
        <ele>149.0</ele>
        <time>2022-03-31T07:30:40Z</time>
      </trkpt>
      <trkpt lat="47.540985" lon="1.7267208">
        <ele>149.0</ele>
        <time>2022-03-31T07:30:41Z</time>
      </trkpt>
      <trkpt lat="47.54098" lon="1.7267112">
        <ele>149.0</ele>
        <time>2022-03-31T07:30:42Z</time>
      </trkpt>
      <trkpt lat="47.540974" lon="1.7267017">
        <ele>149.0</ele>
        <time>2022-03-31T07:30:43Z</time>
      </trkpt>
      <trkpt lat="47.540966" lon="1.7266905">
        <ele>149.0</ele>
        <time>2022-03-31T07:30:44Z</time>
      </trkpt>
      <trkpt lat="47.540955" lon="1.7266788">
        <ele>149.0</ele>
        <time>2022-03-31T07:30:45Z</time>
      </trkpt>
      <trkpt lat="47.540947" lon="1.726667">
        <ele>149.0</ele>
        <time>2022-03-31T07:30:46Z</time>
      </trkpt>
      <trkpt lat="47.540936" lon="1.7266567">
        <ele>149.0</ele>
        <time>2022-03-31T07:30:47Z</time>
      </trkpt>
      <trkpt lat="47.540924" lon="1.7266476">
        <ele>149.0</ele>
        <time>2022-03-31T07:30:48Z</time>
      </trkpt>
      <trkpt lat="47.540916" lon="1.7266399">
        <ele>149.0</ele>
        <time>2022-03-31T07:30:49Z</time>
      </trkpt>
      <trkpt lat="47.540905" lon="1.7266314">
        <ele>150.0</ele>
        <time>2022-03-31T07:30:50Z</time>
      </trkpt>
      <trkpt lat="47.540894" lon="1.7266201">
        <ele>150.0</ele>
        <time>2022-03-31T07:30:51Z</time>
      </trkpt>
      <trkpt lat="47.540882" lon="1.7266109">
        <ele>150.0</ele>
        <time>2022-03-31T07:30:52Z</time>
      </trkpt>
      <trkpt lat="47.54087" lon="1.7266011">
        <ele>150.0</ele>
        <time>2022-03-31T07:30:53Z</time>
      </trkpt>
      <trkpt lat="47.540863" lon="1.7265915">
        <ele>150.0</ele>
        <time>2022-03-31T07:30:54Z</time>
      </trkpt>
      <trkpt lat="47.54085" lon="1.7265825">
        <ele>150.0</ele>
        <time>2022-03-31T07:30:55Z</time>
      </trkpt>
      <trkpt lat="47.54084" lon="1.7265717">
        <ele>150.0</ele>
        <time>2022-03-31T07:30:56Z</time>
      </trkpt>
      <trkpt lat="47.54083" lon="1.7265582">
        <ele>150.0</ele>
        <time>2022-03-31T07:30:57Z</time>
      </trkpt>
      <trkpt lat="47.54082" lon="1.7265465">
        <ele>150.0</ele>
        <time>2022-03-31T07:30:58Z</time>
      </trkpt>
      <trkpt lat="47.540813" lon="1.7265346">
        <ele>150.0</ele>
        <time>2022-03-31T07:30:59Z</time>
      </trkpt>
      <trkpt lat="47.540806" lon="1.7265201">
        <ele>150.0</ele>
        <time>2022-03-31T07:31:00Z</time>
      </trkpt>
      <trkpt lat="47.540794" lon="1.7265077">
        <ele>150.0</ele>
        <time>2022-03-31T07:31:01Z</time>
      </trkpt>
      <trkpt lat="47.540787" lon="1.7264949">
        <ele>150.0</ele>
        <time>2022-03-31T07:31:02Z</time>
      </trkpt>
      <trkpt lat="47.54078" lon="1.7264838">
        <ele>149.0</ele>
        <time>2022-03-31T07:31:03Z</time>
      </trkpt>
      <trkpt lat="47.540768" lon="1.7264706">
        <ele>149.0</ele>
        <time>2022-03-31T07:31:04Z</time>
      </trkpt>
      <trkpt lat="47.540756" lon="1.7264595">
        <ele>149.0</ele>
        <time>2022-03-31T07:31:05Z</time>
      </trkpt>
      <trkpt lat="47.54075" lon="1.7264493">
        <ele>149.0</ele>
        <time>2022-03-31T07:31:06Z</time>
      </trkpt>
      <trkpt lat="47.54074" lon="1.726439">
        <ele>149.0</ele>
        <time>2022-03-31T07:31:07Z</time>
      </trkpt>
      <trkpt lat="47.54073" lon="1.7264258">
        <ele>150.0</ele>
        <time>2022-03-31T07:31:08Z</time>
      </trkpt>
      <trkpt lat="47.54072" lon="1.7264118">
        <ele>150.0</ele>
        <time>2022-03-31T07:31:09Z</time>
      </trkpt>
      <trkpt lat="47.540714" lon="1.7264012">
        <ele>150.0</ele>
        <time>2022-03-31T07:31:10Z</time>
      </trkpt>
      <trkpt lat="47.540703" lon="1.7263905">
        <ele>150.0</ele>
        <time>2022-03-31T07:31:11Z</time>
      </trkpt>
      <trkpt lat="47.540695" lon="1.7263814">
        <ele>150.0</ele>
        <time>2022-03-31T07:31:12Z</time>
      </trkpt>
      <trkpt lat="47.540684" lon="1.7263683">
        <ele>150.0</ele>
        <time>2022-03-31T07:31:13Z</time>
      </trkpt>
      <trkpt lat="47.540676" lon="1.726356">
        <ele>150.0</ele>
        <time>2022-03-31T07:31:14Z</time>
      </trkpt>
      <trkpt lat="47.54067" lon="1.7263439">
        <ele>150.0</ele>
        <time>2022-03-31T07:31:15Z</time>
      </trkpt>
      <trkpt lat="47.540657" lon="1.7263358">
        <ele>150.0</ele>
        <time>2022-03-31T07:31:16Z</time>
      </trkpt>
      <trkpt lat="47.54065" lon="1.7263266">
        <ele>150.0</ele>
        <time>2022-03-31T07:31:17Z</time>
      </trkpt>
      <trkpt lat="47.540638" lon="1.7263144">
        <ele>150.0</ele>
        <time>2022-03-31T07:31:18Z</time>
      </trkpt>
      <trkpt lat="47.54063" lon="1.7263">
        <ele>150.0</ele>
        <time>2022-03-31T07:31:19Z</time>
      </trkpt>
      <trkpt lat="47.54062" lon="1.7262812">
        <ele>150.0</ele>
        <time>2022-03-31T07:31:20Z</time>
      </trkpt>
      <trkpt lat="47.54061" lon="1.7262661">
        <ele>149.0</ele>
        <time>2022-03-31T07:31:21Z</time>
      </trkpt>
      <trkpt lat="47.540604" lon="1.7262546">
        <ele>149.0</ele>
        <time>2022-03-31T07:31:22Z</time>
      </trkpt>
      <trkpt lat="47.540592" lon="1.7262414">
        <ele>149.0</ele>
        <time>2022-03-31T07:31:23Z</time>
      </trkpt>
      <trkpt lat="47.540585" lon="1.7262298">
        <ele>149.0</ele>
        <time>2022-03-31T07:31:24Z</time>
      </trkpt>
      <trkpt lat="47.540577" lon="1.726216">
        <ele>149.0</ele>
        <time>2022-03-31T07:31:25Z</time>
      </trkpt>
      <trkpt lat="47.54057" lon="1.7262049">
        <ele>150.0</ele>
        <time>2022-03-31T07:31:26Z</time>
      </trkpt>
      <trkpt lat="47.540565" lon="1.7261945">
        <ele>150.0</ele>
        <time>2022-03-31T07:31:27Z</time>
      </trkpt>
      <trkpt lat="47.540558" lon="1.7261853">
        <ele>150.0</ele>
        <time>2022-03-31T07:31:28Z</time>
      </trkpt>
      <trkpt lat="47.540546" lon="1.7261739">
        <ele>149.0</ele>
        <time>2022-03-31T07:31:29Z</time>
      </trkpt>
      <trkpt lat="47.54054" lon="1.726163">
        <ele>149.0</ele>
        <time>2022-03-31T07:31:30Z</time>
      </trkpt>
      <trkpt lat="47.54053" lon="1.7261511">
        <ele>149.0</ele>
        <time>2022-03-31T07:31:31Z</time>
      </trkpt>
      <trkpt lat="47.54052" lon="1.7261363">
        <ele>149.0</ele>
        <time>2022-03-31T07:31:32Z</time>
      </trkpt>
      <trkpt lat="47.540512" lon="1.7261233">
        <ele>148.0</ele>
        <time>2022-03-31T07:31:33Z</time>
      </trkpt>
      <trkpt lat="47.5405" lon="1.7261114">
        <ele>148.0</ele>
        <time>2022-03-31T07:31:34Z</time>
      </trkpt>
      <trkpt lat="47.54049" lon="1.7261007">
        <ele>148.0</ele>
        <time>2022-03-31T07:31:35Z</time>
      </trkpt>
      <trkpt lat="47.540478" lon="1.7260906">
        <ele>148.0</ele>
        <time>2022-03-31T07:31:36Z</time>
      </trkpt>
      <trkpt lat="47.54047" lon="1.7260807">
        <ele>148.0</ele>
        <time>2022-03-31T07:31:37Z</time>
      </trkpt>
      <trkpt lat="47.540455" lon="1.7260687">
        <ele>148.0</ele>
        <time>2022-03-31T07:31:38Z</time>
      </trkpt>
      <trkpt lat="47.540443" lon="1.7260576">
        <ele>148.0</ele>
        <time>2022-03-31T07:31:39Z</time>
      </trkpt>
      <trkpt lat="47.540432" lon="1.7260466">
        <ele>148.0</ele>
        <time>2022-03-31T07:31:40Z</time>
      </trkpt>
      <trkpt lat="47.540424" lon="1.7260355">
        <ele>148.0</ele>
        <time>2022-03-31T07:31:41Z</time>
      </trkpt>
      <trkpt lat="47.540413" lon="1.7260244">
        <ele>148.0</ele>
        <time>2022-03-31T07:31:42Z</time>
      </trkpt>
      <trkpt lat="47.5404" lon="1.726011">
        <ele>148.0</ele>
        <time>2022-03-31T07:31:43Z</time>
      </trkpt>
      <trkpt lat="47.54039" lon="1.7259957">
        <ele>148.0</ele>
        <time>2022-03-31T07:31:44Z</time>
      </trkpt>
      <trkpt lat="47.54038" lon="1.7259811">
        <ele>149.0</ele>
        <time>2022-03-31T07:31:45Z</time>
      </trkpt>
      <trkpt lat="47.54037" lon="1.7259686">
        <ele>149.0</ele>
        <time>2022-03-31T07:31:46Z</time>
      </trkpt>
      <trkpt lat="47.540363" lon="1.725959">
        <ele>149.0</ele>
        <time>2022-03-31T07:31:47Z</time>
      </trkpt>
      <trkpt lat="47.54035" lon="1.7259494">
        <ele>149.0</ele>
        <time>2022-03-31T07:31:48Z</time>
      </trkpt>
      <trkpt lat="47.540344" lon="1.7259393">
        <ele>149.0</ele>
        <time>2022-03-31T07:31:49Z</time>
      </trkpt>
      <trkpt lat="47.540337" lon="1.7259294">
        <ele>149.0</ele>
        <time>2022-03-31T07:31:50Z</time>
      </trkpt>
      <trkpt lat="47.54033" lon="1.725917">
        <ele>149.0</ele>
        <time>2022-03-31T07:31:51Z</time>
      </trkpt>
      <trkpt lat="47.54032" lon="1.7259073">
        <ele>150.0</ele>
        <time>2022-03-31T07:31:52Z</time>
      </trkpt>
      <trkpt lat="47.540318" lon="1.7258991">
        <ele>150.0</ele>
        <time>2022-03-31T07:31:53Z</time>
      </trkpt>
      <trkpt lat="47.54031" lon="1.7258887">
        <ele>150.0</ele>
        <time>2022-03-31T07:31:54Z</time>
      </trkpt>
      <trkpt lat="47.5403" lon="1.7258774">
        <ele>150.0</ele>
        <time>2022-03-31T07:31:55Z</time>
      </trkpt>
      <trkpt lat="47.540295" lon="1.7258638">
        <ele>150.0</ele>
        <time>2022-03-31T07:31:56Z</time>
      </trkpt>
      <trkpt lat="47.540287" lon="1.7258539">
        <ele>150.0</ele>
        <time>2022-03-31T07:31:57Z</time>
      </trkpt>
      <trkpt lat="47.54028" lon="1.7258415">
        <ele>150.0</ele>
        <time>2022-03-31T07:31:58Z</time>
      </trkpt>
      <trkpt lat="47.540268" lon="1.7258297">
        <ele>150.0</ele>
        <time>2022-03-31T07:31:59Z</time>
      </trkpt>
      <trkpt lat="47.54026" lon="1.7258201">
        <ele>150.0</ele>
        <time>2022-03-31T07:32:00Z</time>
      </trkpt>
      <trkpt lat="47.540253" lon="1.7258105">
        <ele>150.0</ele>
        <time>2022-03-31T07:32:01Z</time>
      </trkpt>
      <trkpt lat="47.54024" lon="1.725799">
        <ele>149.0</ele>
        <time>2022-03-31T07:32:02Z</time>
      </trkpt>
      <trkpt lat="47.540234" lon="1.7257876">
        <ele>149.0</ele>
        <time>2022-03-31T07:32:03Z</time>
      </trkpt>
      <trkpt lat="47.540222" lon="1.7257756">
        <ele>149.0</ele>
        <time>2022-03-31T07:32:04Z</time>
      </trkpt>
      <trkpt lat="47.54021" lon="1.725765">
        <ele>149.0</ele>
        <time>2022-03-31T07:32:05Z</time>
      </trkpt>
      <trkpt lat="47.5402" lon="1.7257507">
        <ele>149.0</ele>
        <time>2022-03-31T07:32:06Z</time>
      </trkpt>
      <trkpt lat="47.540188" lon="1.7257358">
        <ele>149.0</ele>
        <time>2022-03-31T07:32:07Z</time>
      </trkpt>
      <trkpt lat="47.540176" lon="1.7257235">
        <ele>149.0</ele>
        <time>2022-03-31T07:32:08Z</time>
      </trkpt>
      <trkpt lat="47.54016" lon="1.7257131">
        <ele>149.0</ele>
        <time>2022-03-31T07:32:09Z</time>
      </trkpt>
      <trkpt lat="47.54015" lon="1.7257044">
        <ele>149.0</ele>
        <time>2022-03-31T07:32:10Z</time>
      </trkpt>
      <trkpt lat="47.54014" lon="1.7256958">
        <ele>148.0</ele>
        <time>2022-03-31T07:32:11Z</time>
      </trkpt>
      <trkpt lat="47.540127" lon="1.7256858">
        <ele>148.0</ele>
        <time>2022-03-31T07:32:12Z</time>
      </trkpt>
      <trkpt lat="47.540115" lon="1.7256715">
        <ele>148.0</ele>
        <time>2022-03-31T07:32:13Z</time>
      </trkpt>
      <trkpt lat="47.540108" lon="1.7256589">
        <ele>148.0</ele>
        <time>2022-03-31T07:32:14Z</time>
      </trkpt>
      <trkpt lat="47.5401" lon="1.7256448">
        <ele>148.0</ele>
        <time>2022-03-31T07:32:15Z</time>
      </trkpt>
      <trkpt lat="47.54009" lon="1.7256293">
        <ele>148.0</ele>
        <time>2022-03-31T07:32:16Z</time>
      </trkpt>
      <trkpt lat="47.54008" lon="1.7256141">
        <ele>149.0</ele>
        <time>2022-03-31T07:32:17Z</time>
      </trkpt>
      <trkpt lat="47.54007" lon="1.7255996">
        <ele>148.0</ele>
        <time>2022-03-31T07:32:18Z</time>
      </trkpt>
      <trkpt lat="47.540062" lon="1.7255877">
        <ele>148.0</ele>
        <time>2022-03-31T07:32:19Z</time>
      </trkpt>
      <trkpt lat="47.54005" lon="1.7255772">
        <ele>148.0</ele>
        <time>2022-03-31T07:32:20Z</time>
      </trkpt>
      <trkpt lat="47.540043" lon="1.7255626">
        <ele>148.0</ele>
        <time>2022-03-31T07:32:21Z</time>
      </trkpt>
      <trkpt lat="47.54003" lon="1.7255447">
        <ele>147.0</ele>
        <time>2022-03-31T07:32:22Z</time>
      </trkpt>
      <trkpt lat="47.540024" lon="1.7255327">
        <ele>147.0</ele>
        <time>2022-03-31T07:32:23Z</time>
      </trkpt>
      <trkpt lat="47.540016" lon="1.7255188">
        <ele>147.0</ele>
        <time>2022-03-31T07:32:24Z</time>
      </trkpt>
      <trkpt lat="47.540005" lon="1.7255068">
        <ele>147.0</ele>
        <time>2022-03-31T07:32:25Z</time>
      </trkpt>
      <trkpt lat="47.539997" lon="1.7254932">
        <ele>147.0</ele>
        <time>2022-03-31T07:32:26Z</time>
      </trkpt>
      <trkpt lat="47.539986" lon="1.72548">
        <ele>147.0</ele>
        <time>2022-03-31T07:32:27Z</time>
      </trkpt>
      <trkpt lat="47.539978" lon="1.7254677">
        <ele>147.0</ele>
        <time>2022-03-31T07:32:28Z</time>
      </trkpt>
      <trkpt lat="47.539967" lon="1.7254577">
        <ele>148.0</ele>
        <time>2022-03-31T07:32:29Z</time>
      </trkpt>
      <trkpt lat="47.539955" lon="1.7254429">
        <ele>148.0</ele>
        <time>2022-03-31T07:32:30Z</time>
      </trkpt>
      <trkpt lat="47.539948" lon="1.7254281">
        <ele>148.0</ele>
        <time>2022-03-31T07:32:31Z</time>
      </trkpt>
      <trkpt lat="47.539936" lon="1.7254134">
        <ele>148.0</ele>
        <time>2022-03-31T07:32:32Z</time>
      </trkpt>
      <trkpt lat="47.53993" lon="1.7253997">
        <ele>148.0</ele>
        <time>2022-03-31T07:32:33Z</time>
      </trkpt>
      <trkpt lat="47.53992" lon="1.7253878">
        <ele>148.0</ele>
        <time>2022-03-31T07:32:34Z</time>
      </trkpt>
      <trkpt lat="47.539913" lon="1.725374">
        <ele>148.0</ele>
        <time>2022-03-31T07:32:35Z</time>
      </trkpt>
      <trkpt lat="47.539906" lon="1.7253644">
        <ele>148.0</ele>
        <time>2022-03-31T07:32:36Z</time>
      </trkpt>
      <trkpt lat="47.539894" lon="1.725351">
        <ele>148.0</ele>
        <time>2022-03-31T07:32:37Z</time>
      </trkpt>
      <trkpt lat="47.539886" lon="1.7253369">
        <ele>148.0</ele>
        <time>2022-03-31T07:32:38Z</time>
      </trkpt>
      <trkpt lat="47.53988" lon="1.7253251">
        <ele>148.0</ele>
        <time>2022-03-31T07:32:39Z</time>
      </trkpt>
      <trkpt lat="47.539867" lon="1.7253153">
        <ele>148.0</ele>
        <time>2022-03-31T07:32:40Z</time>
      </trkpt>
      <trkpt lat="47.53986" lon="1.7253047">
        <ele>147.0</ele>
        <time>2022-03-31T07:32:41Z</time>
      </trkpt>
      <trkpt lat="47.539852" lon="1.7252928">
        <ele>147.0</ele>
        <time>2022-03-31T07:32:42Z</time>
      </trkpt>
      <trkpt lat="47.539845" lon="1.7252795">
        <ele>147.0</ele>
        <time>2022-03-31T07:32:43Z</time>
      </trkpt>
      <trkpt lat="47.539833" lon="1.7252679">
        <ele>147.0</ele>
        <time>2022-03-31T07:32:44Z</time>
      </trkpt>
      <trkpt lat="47.539825" lon="1.7252551">
        <ele>147.0</ele>
        <time>2022-03-31T07:32:45Z</time>
      </trkpt>
      <trkpt lat="47.539818" lon="1.7252406">
        <ele>147.0</ele>
        <time>2022-03-31T07:32:46Z</time>
      </trkpt>
      <trkpt lat="47.53981" lon="1.7252295">
        <ele>147.0</ele>
        <time>2022-03-31T07:32:47Z</time>
      </trkpt>
      <trkpt lat="47.539803" lon="1.7252204">
        <ele>147.0</ele>
        <time>2022-03-31T07:32:48Z</time>
      </trkpt>
      <trkpt lat="47.539795" lon="1.7252139">
        <ele>147.0</ele>
        <time>2022-03-31T07:32:49Z</time>
      </trkpt>
      <trkpt lat="47.539783" lon="1.725206">
        <ele>146.0</ele>
        <time>2022-03-31T07:32:50Z</time>
      </trkpt>
      <trkpt lat="47.53978" lon="1.7251961">
        <ele>146.0</ele>
        <time>2022-03-31T07:32:51Z</time>
      </trkpt>
      <trkpt lat="47.53977" lon="1.7251831">
        <ele>145.0</ele>
        <time>2022-03-31T07:32:52Z</time>
      </trkpt>
      <trkpt lat="47.539764" lon="1.7251678">
        <ele>145.0</ele>
        <time>2022-03-31T07:32:53Z</time>
      </trkpt>
      <trkpt lat="47.539753" lon="1.7251546">
        <ele>145.0</ele>
        <time>2022-03-31T07:32:54Z</time>
      </trkpt>
      <trkpt lat="47.539745" lon="1.725142">
        <ele>145.0</ele>
        <time>2022-03-31T07:32:55Z</time>
      </trkpt>
      <trkpt lat="47.539738" lon="1.7251282">
        <ele>145.0</ele>
        <time>2022-03-31T07:32:56Z</time>
      </trkpt>
      <trkpt lat="47.53973" lon="1.7251134">
        <ele>145.0</ele>
        <time>2022-03-31T07:32:57Z</time>
      </trkpt>
      <trkpt lat="47.539722" lon="1.7250993">
        <ele>145.0</ele>
        <time>2022-03-31T07:32:58Z</time>
      </trkpt>
      <trkpt lat="47.53972" lon="1.7250843">
        <ele>145.0</ele>
        <time>2022-03-31T07:32:59Z</time>
      </trkpt>
      <trkpt lat="47.53971" lon="1.7250694">
        <ele>145.0</ele>
        <time>2022-03-31T07:33:00Z</time>
      </trkpt>
      <trkpt lat="47.539703" lon="1.7250541">
        <ele>145.0</ele>
        <time>2022-03-31T07:33:01Z</time>
      </trkpt>
      <trkpt lat="47.539696" lon="1.72504">
        <ele>145.0</ele>
        <time>2022-03-31T07:33:02Z</time>
      </trkpt>
      <trkpt lat="47.539692" lon="1.7250262">
        <ele>145.0</ele>
        <time>2022-03-31T07:33:03Z</time>
      </trkpt>
      <trkpt lat="47.539684" lon="1.725011">
        <ele>145.0</ele>
        <time>2022-03-31T07:33:04Z</time>
      </trkpt>
      <trkpt lat="47.53968" lon="1.7249998">
        <ele>145.0</ele>
        <time>2022-03-31T07:33:05Z</time>
      </trkpt>
      <trkpt lat="47.539673" lon="1.7249856">
        <ele>145.0</ele>
        <time>2022-03-31T07:33:06Z</time>
      </trkpt>
      <trkpt lat="47.53967" lon="1.7249725">
        <ele>144.0</ele>
        <time>2022-03-31T07:33:07Z</time>
      </trkpt>
      <trkpt lat="47.53966" lon="1.7249527">
        <ele>144.0</ele>
        <time>2022-03-31T07:33:08Z</time>
      </trkpt>
      <trkpt lat="47.539658" lon="1.7249347">
        <ele>144.0</ele>
        <time>2022-03-31T07:33:09Z</time>
      </trkpt>
      <trkpt lat="47.539654" lon="1.7249225">
        <ele>145.0</ele>
        <time>2022-03-31T07:33:10Z</time>
      </trkpt>
      <trkpt lat="47.539646" lon="1.724907">
        <ele>145.0</ele>
        <time>2022-03-31T07:33:11Z</time>
      </trkpt>
      <trkpt lat="47.539642" lon="1.724896">
        <ele>144.0</ele>
        <time>2022-03-31T07:33:12Z</time>
      </trkpt>
      <trkpt lat="47.539635" lon="1.7248814">
        <ele>144.0</ele>
        <time>2022-03-31T07:33:13Z</time>
      </trkpt>
      <trkpt lat="47.53963" lon="1.7248697">
        <ele>144.0</ele>
        <time>2022-03-31T07:33:14Z</time>
      </trkpt>
      <trkpt lat="47.539623" lon="1.72486">
        <ele>144.0</ele>
        <time>2022-03-31T07:33:15Z</time>
      </trkpt>
      <trkpt lat="47.539616" lon="1.7248521">
        <ele>145.0</ele>
        <time>2022-03-31T07:33:16Z</time>
      </trkpt>
      <trkpt lat="47.539608" lon="1.7248408">
        <ele>145.0</ele>
        <time>2022-03-31T07:33:17Z</time>
      </trkpt>
      <trkpt lat="47.539604" lon="1.7248244">
        <ele>145.0</ele>
        <time>2022-03-31T07:33:18Z</time>
      </trkpt>
      <trkpt lat="47.539597" lon="1.7248108">
        <ele>145.0</ele>
        <time>2022-03-31T07:33:19Z</time>
      </trkpt>
      <trkpt lat="47.53959" lon="1.7247925">
        <ele>144.0</ele>
        <time>2022-03-31T07:33:20Z</time>
      </trkpt>
      <trkpt lat="47.53958" lon="1.7247785">
        <ele>144.0</ele>
        <time>2022-03-31T07:33:21Z</time>
      </trkpt>
      <trkpt lat="47.539574" lon="1.7247647">
        <ele>144.0</ele>
        <time>2022-03-31T07:33:22Z</time>
      </trkpt>
      <trkpt lat="47.53957" lon="1.7247524">
        <ele>144.0</ele>
        <time>2022-03-31T07:33:23Z</time>
      </trkpt>
      <trkpt lat="47.53956" lon="1.7247393">
        <ele>143.0</ele>
        <time>2022-03-31T07:33:24Z</time>
      </trkpt>
      <trkpt lat="47.53955" lon="1.7247236">
        <ele>143.0</ele>
        <time>2022-03-31T07:33:25Z</time>
      </trkpt>
      <trkpt lat="47.539543" lon="1.72471">
        <ele>144.0</ele>
        <time>2022-03-31T07:33:26Z</time>
      </trkpt>
      <trkpt lat="47.539536" lon="1.7246923">
        <ele>143.0</ele>
        <time>2022-03-31T07:33:27Z</time>
      </trkpt>
      <trkpt lat="47.539528" lon="1.724677">
        <ele>143.0</ele>
        <time>2022-03-31T07:33:28Z</time>
      </trkpt>
      <trkpt lat="47.539524" lon="1.7246622">
        <ele>144.0</ele>
        <time>2022-03-31T07:33:29Z</time>
      </trkpt>
      <trkpt lat="47.539516" lon="1.7246467">
        <ele>144.0</ele>
        <time>2022-03-31T07:33:30Z</time>
      </trkpt>
      <trkpt lat="47.53951" lon="1.7246338">
        <ele>144.0</ele>
        <time>2022-03-31T07:33:31Z</time>
      </trkpt>
      <trkpt lat="47.539505" lon="1.7246227">
        <ele>144.0</ele>
        <time>2022-03-31T07:33:32Z</time>
      </trkpt>
      <trkpt lat="47.5395" lon="1.7246083">
        <ele>144.0</ele>
        <time>2022-03-31T07:33:33Z</time>
      </trkpt>
      <trkpt lat="47.539494" lon="1.7245924">
        <ele>144.0</ele>
        <time>2022-03-31T07:33:34Z</time>
      </trkpt>
      <trkpt lat="47.539486" lon="1.7245764">
        <ele>144.0</ele>
        <time>2022-03-31T07:33:35Z</time>
      </trkpt>
      <trkpt lat="47.53948" lon="1.724559">
        <ele>144.0</ele>
        <time>2022-03-31T07:33:36Z</time>
      </trkpt>
      <trkpt lat="47.539474" lon="1.7245466">
        <ele>144.0</ele>
        <time>2022-03-31T07:33:37Z</time>
      </trkpt>
      <trkpt lat="47.53947" lon="1.7245299">
        <ele>143.0</ele>
        <time>2022-03-31T07:33:38Z</time>
      </trkpt>
      <trkpt lat="47.539463" lon="1.7245167">
        <ele>143.0</ele>
        <time>2022-03-31T07:33:39Z</time>
      </trkpt>
      <trkpt lat="47.539455" lon="1.7245044">
        <ele>143.0</ele>
        <time>2022-03-31T07:33:40Z</time>
      </trkpt>
      <trkpt lat="47.539448" lon="1.7244925">
        <ele>143.0</ele>
        <time>2022-03-31T07:33:41Z</time>
      </trkpt>
      <trkpt lat="47.53944" lon="1.7244751">
        <ele>142.0</ele>
        <time>2022-03-31T07:33:42Z</time>
      </trkpt>
      <trkpt lat="47.539433" lon="1.7244585">
        <ele>142.0</ele>
        <time>2022-03-31T07:33:43Z</time>
      </trkpt>
      <trkpt lat="47.53942" lon="1.7244465">
        <ele>142.0</ele>
        <time>2022-03-31T07:33:44Z</time>
      </trkpt>
      <trkpt lat="47.539413" lon="1.7244291">
        <ele>141.0</ele>
        <time>2022-03-31T07:33:45Z</time>
      </trkpt>
      <trkpt lat="47.53941" lon="1.724407">
        <ele>141.0</ele>
        <time>2022-03-31T07:33:46Z</time>
      </trkpt>
      <trkpt lat="47.5394" lon="1.724393">
        <ele>141.0</ele>
        <time>2022-03-31T07:33:47Z</time>
      </trkpt>
      <trkpt lat="47.539394" lon="1.7243775">
        <ele>141.0</ele>
        <time>2022-03-31T07:33:48Z</time>
      </trkpt>
      <trkpt lat="47.539387" lon="1.7243613">
        <ele>141.0</ele>
        <time>2022-03-31T07:33:49Z</time>
      </trkpt>
      <trkpt lat="47.53938" lon="1.7243484">
        <ele>141.0</ele>
        <time>2022-03-31T07:33:50Z</time>
      </trkpt>
      <trkpt lat="47.539368" lon="1.7243364">
        <ele>141.0</ele>
        <time>2022-03-31T07:33:51Z</time>
      </trkpt>
      <trkpt lat="47.539356" lon="1.7243211">
        <ele>140.0</ele>
        <time>2022-03-31T07:33:52Z</time>
      </trkpt>
      <trkpt lat="47.539345" lon="1.7243077">
        <ele>140.0</ele>
        <time>2022-03-31T07:33:53Z</time>
      </trkpt>
      <trkpt lat="47.539333" lon="1.7242951">
        <ele>140.0</ele>
        <time>2022-03-31T07:33:54Z</time>
      </trkpt>
      <trkpt lat="47.53932" lon="1.7242832">
        <ele>140.0</ele>
        <time>2022-03-31T07:33:55Z</time>
      </trkpt>
      <trkpt lat="47.539314" lon="1.7242734">
        <ele>140.0</ele>
        <time>2022-03-31T07:33:56Z</time>
      </trkpt>
      <trkpt lat="47.539303" lon="1.7242656">
        <ele>141.0</ele>
        <time>2022-03-31T07:33:57Z</time>
      </trkpt>
      <trkpt lat="47.53929" lon="1.7242557">
        <ele>141.0</ele>
        <time>2022-03-31T07:33:58Z</time>
      </trkpt>
      <trkpt lat="47.53928" lon="1.7242446">
        <ele>141.0</ele>
        <time>2022-03-31T07:33:59Z</time>
      </trkpt>
      <trkpt lat="47.539272" lon="1.7242326">
        <ele>140.0</ele>
        <time>2022-03-31T07:34:00Z</time>
      </trkpt>
      <trkpt lat="47.53926" lon="1.7242211">
        <ele>140.0</ele>
        <time>2022-03-31T07:34:01Z</time>
      </trkpt>
      <trkpt lat="47.539253" lon="1.7242112">
        <ele>141.0</ele>
        <time>2022-03-31T07:34:02Z</time>
      </trkpt>
      <trkpt lat="47.53924" lon="1.7242011">
        <ele>141.0</ele>
        <time>2022-03-31T07:34:03Z</time>
      </trkpt>
      <trkpt lat="47.53923" lon="1.7241901">
        <ele>141.0</ele>
        <time>2022-03-31T07:34:04Z</time>
      </trkpt>
      <trkpt lat="47.539223" lon="1.7241755">
        <ele>141.0</ele>
        <time>2022-03-31T07:34:05Z</time>
      </trkpt>
      <trkpt lat="47.53921" lon="1.7241659">
        <ele>141.0</ele>
        <time>2022-03-31T07:34:06Z</time>
      </trkpt>
      <trkpt lat="47.539204" lon="1.7241569">
        <ele>141.0</ele>
        <time>2022-03-31T07:34:07Z</time>
      </trkpt>
      <trkpt lat="47.539196" lon="1.7241473">
        <ele>141.0</ele>
        <time>2022-03-31T07:34:08Z</time>
      </trkpt>
      <trkpt lat="47.53919" lon="1.7241383">
        <ele>141.0</ele>
        <time>2022-03-31T07:34:09Z</time>
      </trkpt>
      <trkpt lat="47.539177" lon="1.7241292">
        <ele>142.0</ele>
        <time>2022-03-31T07:34:10Z</time>
      </trkpt>
      <trkpt lat="47.539165" lon="1.7241207">
        <ele>142.0</ele>
        <time>2022-03-31T07:34:11Z</time>
      </trkpt>
      <trkpt lat="47.539154" lon="1.7241096">
        <ele>141.0</ele>
        <time>2022-03-31T07:34:12Z</time>
      </trkpt>
      <trkpt lat="47.539143" lon="1.7241026">
        <ele>141.0</ele>
        <time>2022-03-31T07:34:13Z</time>
      </trkpt>
      <trkpt lat="47.539135" lon="1.7240947">
        <ele>141.0</ele>
        <time>2022-03-31T07:34:14Z</time>
      </trkpt>
      <trkpt lat="47.539124" lon="1.7240866">
        <ele>142.0</ele>
        <time>2022-03-31T07:34:15Z</time>
      </trkpt>
      <trkpt lat="47.539112" lon="1.7240775">
        <ele>142.0</ele>
        <time>2022-03-31T07:34:16Z</time>
      </trkpt>
      <trkpt lat="47.539104" lon="1.7240678">
        <ele>143.0</ele>
        <time>2022-03-31T07:34:17Z</time>
      </trkpt>
      <trkpt lat="47.539093" lon="1.7240586">
        <ele>143.0</ele>
        <time>2022-03-31T07:34:18Z</time>
      </trkpt>
      <trkpt lat="47.53908" lon="1.7240483">
        <ele>143.0</ele>
        <time>2022-03-31T07:34:19Z</time>
      </trkpt>
      <trkpt lat="47.539066" lon="1.7240397">
        <ele>143.0</ele>
        <time>2022-03-31T07:34:20Z</time>
      </trkpt>
      <trkpt lat="47.53906" lon="1.7240305">
        <ele>142.0</ele>
        <time>2022-03-31T07:34:21Z</time>
      </trkpt>
      <trkpt lat="47.53905" lon="1.72402">
        <ele>142.0</ele>
        <time>2022-03-31T07:34:22Z</time>
      </trkpt>
      <trkpt lat="47.53904" lon="1.7240139">
        <ele>143.0</ele>
        <time>2022-03-31T07:34:23Z</time>
      </trkpt>
      <trkpt lat="47.539032" lon="1.724005">
        <ele>143.0</ele>
        <time>2022-03-31T07:34:24Z</time>
      </trkpt>
      <trkpt lat="47.53902" lon="1.7239977">
        <ele>143.0</ele>
        <time>2022-03-31T07:34:25Z</time>
      </trkpt>
      <trkpt lat="47.53901" lon="1.7239898">
        <ele>143.0</ele>
        <time>2022-03-31T07:34:26Z</time>
      </trkpt>
      <trkpt lat="47.538998" lon="1.7239791">
        <ele>144.0</ele>
        <time>2022-03-31T07:34:27Z</time>
      </trkpt>
      <trkpt lat="47.538986" lon="1.7239691">
        <ele>144.0</ele>
        <time>2022-03-31T07:34:28Z</time>
      </trkpt>
      <trkpt lat="47.53898" lon="1.7239594">
        <ele>144.0</ele>
        <time>2022-03-31T07:34:29Z</time>
      </trkpt>
      <trkpt lat="47.538967" lon="1.7239524">
        <ele>144.0</ele>
        <time>2022-03-31T07:34:30Z</time>
      </trkpt>
      <trkpt lat="47.53896" lon="1.7239455">
        <ele>144.0</ele>
        <time>2022-03-31T07:34:31Z</time>
      </trkpt>
      <trkpt lat="47.538944" lon="1.7239386">
        <ele>144.0</ele>
        <time>2022-03-31T07:34:32Z</time>
      </trkpt>
      <trkpt lat="47.538933" lon="1.7239319">
        <ele>144.0</ele>
        <time>2022-03-31T07:34:33Z</time>
      </trkpt>
      <trkpt lat="47.538925" lon="1.723926">
        <ele>144.0</ele>
        <time>2022-03-31T07:34:34Z</time>
      </trkpt>
      <trkpt lat="47.538918" lon="1.7239217">
        <ele>144.0</ele>
        <time>2022-03-31T07:34:35Z</time>
      </trkpt>
      <trkpt lat="47.538902" lon="1.7239149">
        <ele>144.0</ele>
        <time>2022-03-31T07:34:36Z</time>
      </trkpt>
      <trkpt lat="47.538895" lon="1.723901">
        <ele>144.0</ele>
        <time>2022-03-31T07:34:37Z</time>
      </trkpt>
      <trkpt lat="47.538883" lon="1.7238938">
        <ele>144.0</ele>
        <time>2022-03-31T07:34:38Z</time>
      </trkpt>
      <trkpt lat="47.53887" lon="1.7238839">
        <ele>144.0</ele>
        <time>2022-03-31T07:34:39Z</time>
      </trkpt>
      <trkpt lat="47.53886" lon="1.7238744">
        <ele>144.0</ele>
        <time>2022-03-31T07:34:40Z</time>
      </trkpt>
      <trkpt lat="47.53885" lon="1.7238683">
        <ele>144.0</ele>
        <time>2022-03-31T07:34:41Z</time>
      </trkpt>
      <trkpt lat="47.538837" lon="1.7238619">
        <ele>145.0</ele>
        <time>2022-03-31T07:34:42Z</time>
      </trkpt>
      <trkpt lat="47.538826" lon="1.7238543">
        <ele>144.0</ele>
        <time>2022-03-31T07:34:43Z</time>
      </trkpt>
      <trkpt lat="47.53882" lon="1.7238458">
        <ele>144.0</ele>
        <time>2022-03-31T07:34:44Z</time>
      </trkpt>
      <trkpt lat="47.538803" lon="1.7238338">
        <ele>144.0</ele>
        <time>2022-03-31T07:34:45Z</time>
      </trkpt>
      <trkpt lat="47.53879" lon="1.7238209">
        <ele>145.0</ele>
        <time>2022-03-31T07:34:46Z</time>
      </trkpt>
      <trkpt lat="47.53878" lon="1.7238187">
        <ele>145.0</ele>
        <time>2022-03-31T07:34:47Z</time>
      </trkpt>
      <trkpt lat="47.538773" lon="1.7238141">
        <ele>144.0</ele>
        <time>2022-03-31T07:34:48Z</time>
      </trkpt>
      <trkpt lat="47.53876" lon="1.7238029">
        <ele>144.0</ele>
        <time>2022-03-31T07:34:49Z</time>
      </trkpt>
      <trkpt lat="47.538746" lon="1.7237916">
        <ele>144.0</ele>
        <time>2022-03-31T07:34:50Z</time>
      </trkpt>
      <trkpt lat="47.538734" lon="1.7237853">
        <ele>144.0</ele>
        <time>2022-03-31T07:34:51Z</time>
      </trkpt>
      <trkpt lat="47.538727" lon="1.7237792">
        <ele>143.0</ele>
        <time>2022-03-31T07:34:52Z</time>
      </trkpt>
      <trkpt lat="47.538715" lon="1.723776">
        <ele>143.0</ele>
        <time>2022-03-31T07:34:53Z</time>
      </trkpt>
      <trkpt lat="47.538708" lon="1.7237699">
        <ele>144.0</ele>
        <time>2022-03-31T07:34:54Z</time>
      </trkpt>
      <trkpt lat="47.5387" lon="1.7237622">
        <ele>144.0</ele>
        <time>2022-03-31T07:34:55Z</time>
      </trkpt>
      <trkpt lat="47.53869" lon="1.7237562">
        <ele>144.0</ele>
        <time>2022-03-31T07:34:56Z</time>
      </trkpt>
      <trkpt lat="47.538673" lon="1.7237489">
        <ele>144.0</ele>
        <time>2022-03-31T07:34:57Z</time>
      </trkpt>
      <trkpt lat="47.538662" lon="1.7237418">
        <ele>144.0</ele>
        <time>2022-03-31T07:34:58Z</time>
      </trkpt>
      <trkpt lat="47.538654" lon="1.7237322">
        <ele>144.0</ele>
        <time>2022-03-31T07:34:59Z</time>
      </trkpt>
      <trkpt lat="47.53864" lon="1.7237232">
        <ele>144.0</ele>
        <time>2022-03-31T07:35:00Z</time>
      </trkpt>
      <trkpt lat="47.538628" lon="1.7237207">
        <ele>144.0</ele>
        <time>2022-03-31T07:35:01Z</time>
      </trkpt>
      <trkpt lat="47.538616" lon="1.7237165">
        <ele>144.0</ele>
        <time>2022-03-31T07:35:02Z</time>
      </trkpt>
      <trkpt lat="47.538605" lon="1.7237065">
        <ele>144.0</ele>
        <time>2022-03-31T07:35:03Z</time>
      </trkpt>
      <trkpt lat="47.5386" lon="1.7237006">
        <ele>143.0</ele>
        <time>2022-03-31T07:35:04Z</time>
      </trkpt>
      <trkpt lat="47.53859" lon="1.7236947">
        <ele>144.0</ele>
        <time>2022-03-31T07:35:05Z</time>
      </trkpt>
      <trkpt lat="47.538578" lon="1.7236879">
        <ele>144.0</ele>
        <time>2022-03-31T07:35:06Z</time>
      </trkpt>
      <trkpt lat="47.53857" lon="1.7236817">
        <ele>144.0</ele>
        <time>2022-03-31T07:35:07Z</time>
      </trkpt>
      <trkpt lat="47.538555" lon="1.7236766">
        <ele>144.0</ele>
        <time>2022-03-31T07:35:08Z</time>
      </trkpt>
      <trkpt lat="47.538544" lon="1.7236717">
        <ele>144.0</ele>
        <time>2022-03-31T07:35:09Z</time>
      </trkpt>
      <trkpt lat="47.538536" lon="1.7236625">
        <ele>144.0</ele>
        <time>2022-03-31T07:35:10Z</time>
      </trkpt>
      <trkpt lat="47.53852" lon="1.7236528">
        <ele>144.0</ele>
        <time>2022-03-31T07:35:11Z</time>
      </trkpt>
      <trkpt lat="47.538513" lon="1.7236446">
        <ele>143.0</ele>
        <time>2022-03-31T07:35:12Z</time>
      </trkpt>
      <trkpt lat="47.538494" lon="1.7236365">
        <ele>143.0</ele>
        <time>2022-03-31T07:35:13Z</time>
      </trkpt>
      <trkpt lat="47.538483" lon="1.7236243">
        <ele>143.0</ele>
        <time>2022-03-31T07:35:14Z</time>
      </trkpt>
      <trkpt lat="47.538467" lon="1.7236136">
        <ele>143.0</ele>
        <time>2022-03-31T07:35:15Z</time>
      </trkpt>
      <trkpt lat="47.53846" lon="1.7236041">
        <ele>143.0</ele>
        <time>2022-03-31T07:35:16Z</time>
      </trkpt>
      <trkpt lat="47.53845" lon="1.7235938">
        <ele>143.0</ele>
        <time>2022-03-31T07:35:17Z</time>
      </trkpt>
      <trkpt lat="47.538437" lon="1.7235806">
        <ele>143.0</ele>
        <time>2022-03-31T07:35:18Z</time>
      </trkpt>
      <trkpt lat="47.538425" lon="1.7235717">
        <ele>143.0</ele>
        <time>2022-03-31T07:35:19Z</time>
      </trkpt>
      <trkpt lat="47.538414" lon="1.7235639">
        <ele>142.0</ele>
        <time>2022-03-31T07:35:20Z</time>
      </trkpt>
      <trkpt lat="47.538403" lon="1.7235541">
        <ele>143.0</ele>
        <time>2022-03-31T07:35:21Z</time>
      </trkpt>
      <trkpt lat="47.53839" lon="1.7235445">
        <ele>143.0</ele>
        <time>2022-03-31T07:35:22Z</time>
      </trkpt>
      <trkpt lat="47.538383" lon="1.7235378">
        <ele>143.0</ele>
        <time>2022-03-31T07:35:23Z</time>
      </trkpt>
      <trkpt lat="47.53837" lon="1.7235311">
        <ele>143.0</ele>
        <time>2022-03-31T07:35:24Z</time>
      </trkpt>
      <trkpt lat="47.538357" lon="1.7235253">
        <ele>143.0</ele>
        <time>2022-03-31T07:35:25Z</time>
      </trkpt>
      <trkpt lat="47.538345" lon="1.7235214">
        <ele>143.0</ele>
        <time>2022-03-31T07:35:26Z</time>
      </trkpt>
      <trkpt lat="47.538338" lon="1.7235144">
        <ele>143.0</ele>
        <time>2022-03-31T07:35:27Z</time>
      </trkpt>
      <trkpt lat="47.538326" lon="1.7235063">
        <ele>143.0</ele>
        <time>2022-03-31T07:35:28Z</time>
      </trkpt>
      <trkpt lat="47.53832" lon="1.7234981">
        <ele>143.0</ele>
        <time>2022-03-31T07:35:29Z</time>
      </trkpt>
      <trkpt lat="47.538307" lon="1.7234908">
        <ele>143.0</ele>
        <time>2022-03-31T07:35:30Z</time>
      </trkpt>
      <trkpt lat="47.5383" lon="1.7234834">
        <ele>143.0</ele>
        <time>2022-03-31T07:35:31Z</time>
      </trkpt>
      <trkpt lat="47.53829" lon="1.7234762">
        <ele>143.0</ele>
        <time>2022-03-31T07:35:32Z</time>
      </trkpt>
      <trkpt lat="47.538277" lon="1.7234695">
        <ele>143.0</ele>
        <time>2022-03-31T07:35:33Z</time>
      </trkpt>
      <trkpt lat="47.538265" lon="1.7234612">
        <ele>143.0</ele>
        <time>2022-03-31T07:35:34Z</time>
      </trkpt>
      <trkpt lat="47.53825" lon="1.7234527">
        <ele>143.0</ele>
        <time>2022-03-31T07:35:35Z</time>
      </trkpt>
      <trkpt lat="47.538242" lon="1.7234443">
        <ele>144.0</ele>
        <time>2022-03-31T07:35:36Z</time>
      </trkpt>
      <trkpt lat="47.53823" lon="1.7234366">
        <ele>144.0</ele>
        <time>2022-03-31T07:35:37Z</time>
      </trkpt>
      <trkpt lat="47.538227" lon="1.7234303">
        <ele>144.0</ele>
        <time>2022-03-31T07:35:38Z</time>
      </trkpt>
      <trkpt lat="47.538216" lon="1.7234265">
        <ele>144.0</ele>
        <time>2022-03-31T07:35:39Z</time>
      </trkpt>
      <trkpt lat="47.538204" lon="1.7234198">
        <ele>144.0</ele>
        <time>2022-03-31T07:35:40Z</time>
      </trkpt>
      <trkpt lat="47.538197" lon="1.7234094">
        <ele>144.0</ele>
        <time>2022-03-31T07:35:41Z</time>
      </trkpt>
      <trkpt lat="47.53819" lon="1.7233984">
        <ele>144.0</ele>
        <time>2022-03-31T07:35:42Z</time>
      </trkpt>
      <trkpt lat="47.538177" lon="1.7233933">
        <ele>144.0</ele>
        <time>2022-03-31T07:35:43Z</time>
      </trkpt>
      <trkpt lat="47.538166" lon="1.7233901">
        <ele>144.0</ele>
        <time>2022-03-31T07:35:44Z</time>
      </trkpt>
      <trkpt lat="47.538155" lon="1.7233845">
        <ele>144.0</ele>
        <time>2022-03-31T07:35:45Z</time>
      </trkpt>
      <trkpt lat="47.538143" lon="1.7233781">
        <ele>144.0</ele>
        <time>2022-03-31T07:35:46Z</time>
      </trkpt>
      <trkpt lat="47.538136" lon="1.7233697">
        <ele>143.0</ele>
        <time>2022-03-31T07:35:47Z</time>
      </trkpt>
      <trkpt lat="47.538124" lon="1.7233653">
        <ele>144.0</ele>
        <time>2022-03-31T07:35:48Z</time>
      </trkpt>
      <trkpt lat="47.538116" lon="1.723359">
        <ele>144.0</ele>
        <time>2022-03-31T07:35:49Z</time>
      </trkpt>
      <trkpt lat="47.53811" lon="1.723357">
        <ele>144.0</ele>
        <time>2022-03-31T07:35:50Z</time>
      </trkpt>
      <trkpt lat="47.538097" lon="1.7233486">
        <ele>144.0</ele>
        <time>2022-03-31T07:35:51Z</time>
      </trkpt>
      <trkpt lat="47.53809" lon="1.7233355">
        <ele>144.0</ele>
        <time>2022-03-31T07:35:52Z</time>
      </trkpt>
      <trkpt lat="47.538082" lon="1.7233248">
        <ele>144.0</ele>
        <time>2022-03-31T07:35:53Z</time>
      </trkpt>
      <trkpt lat="47.538067" lon="1.7233179">
        <ele>144.0</ele>
        <time>2022-03-31T07:35:54Z</time>
      </trkpt>
      <trkpt lat="47.538055" lon="1.7233138">
        <ele>144.0</ele>
        <time>2022-03-31T07:35:55Z</time>
      </trkpt>
      <trkpt lat="47.53805" lon="1.723311">
        <ele>144.0</ele>
        <time>2022-03-31T07:35:56Z</time>
      </trkpt>
      <trkpt lat="47.538044" lon="1.7233037">
        <ele>144.0</ele>
        <time>2022-03-31T07:35:57Z</time>
      </trkpt>
      <trkpt lat="47.538033" lon="1.7232965">
        <ele>143.0</ele>
        <time>2022-03-31T07:35:58Z</time>
      </trkpt>
      <trkpt lat="47.538025" lon="1.723285">
        <ele>143.0</ele>
        <time>2022-03-31T07:35:59Z</time>
      </trkpt>
      <trkpt lat="47.538013" lon="1.7232759">
        <ele>144.0</ele>
        <time>2022-03-31T07:36:00Z</time>
      </trkpt>
      <trkpt lat="47.538002" lon="1.7232724">
        <ele>144.0</ele>
        <time>2022-03-31T07:36:01Z</time>
      </trkpt>
      <trkpt lat="47.537994" lon="1.7232692">
        <ele>144.0</ele>
        <time>2022-03-31T07:36:02Z</time>
      </trkpt>
      <trkpt lat="47.537987" lon="1.7232628">
        <ele>144.0</ele>
        <time>2022-03-31T07:36:03Z</time>
      </trkpt>
      <trkpt lat="47.537975" lon="1.7232598">
        <ele>144.0</ele>
        <time>2022-03-31T07:36:04Z</time>
      </trkpt>
      <trkpt lat="47.537968" lon="1.7232535">
        <ele>144.0</ele>
        <time>2022-03-31T07:36:05Z</time>
      </trkpt>
      <trkpt lat="47.537952" lon="1.7232486">
        <ele>144.0</ele>
        <time>2022-03-31T07:36:06Z</time>
      </trkpt>
      <trkpt lat="47.537945" lon="1.7232428">
        <ele>144.0</ele>
        <time>2022-03-31T07:36:07Z</time>
      </trkpt>
      <trkpt lat="47.537937" lon="1.7232387">
        <ele>144.0</ele>
        <time>2022-03-31T07:36:08Z</time>
      </trkpt>
      <trkpt lat="47.537926" lon="1.723237">
        <ele>145.0</ele>
        <time>2022-03-31T07:36:09Z</time>
      </trkpt>
      <trkpt lat="47.53791" lon="1.7232332">
        <ele>145.0</ele>
        <time>2022-03-31T07:36:10Z</time>
      </trkpt>
      <trkpt lat="47.537903" lon="1.723227">
        <ele>145.0</ele>
        <time>2022-03-31T07:36:11Z</time>
      </trkpt>
      <trkpt lat="47.537888" lon="1.7232243">
        <ele>145.0</ele>
        <time>2022-03-31T07:36:12Z</time>
      </trkpt>
      <trkpt lat="47.537876" lon="1.7232243">
        <ele>146.0</ele>
        <time>2022-03-31T07:36:13Z</time>
      </trkpt>
      <trkpt lat="47.537865" lon="1.723226">
        <ele>146.0</ele>
        <time>2022-03-31T07:36:14Z</time>
      </trkpt>
      <trkpt lat="47.537853" lon="1.7232279">
        <ele>145.0</ele>
        <time>2022-03-31T07:36:15Z</time>
      </trkpt>
      <trkpt lat="47.537838" lon="1.7232296">
        <ele>145.0</ele>
        <time>2022-03-31T07:36:16Z</time>
      </trkpt>
      <trkpt lat="47.537823" lon="1.7232268">
        <ele>145.0</ele>
        <time>2022-03-31T07:36:17Z</time>
      </trkpt>
      <trkpt lat="47.537807" lon="1.7232267">
        <ele>145.0</ele>
        <time>2022-03-31T07:36:18Z</time>
      </trkpt>
      <trkpt lat="47.537792" lon="1.7232265">
        <ele>145.0</ele>
        <time>2022-03-31T07:36:19Z</time>
      </trkpt>
      <trkpt lat="47.53778" lon="1.7232268">
        <ele>145.0</ele>
        <time>2022-03-31T07:36:20Z</time>
      </trkpt>
      <trkpt lat="47.537766" lon="1.7232265">
        <ele>145.0</ele>
        <time>2022-03-31T07:36:21Z</time>
      </trkpt>
      <trkpt lat="47.53775" lon="1.7232281">
        <ele>145.0</ele>
        <time>2022-03-31T07:36:22Z</time>
      </trkpt>
      <trkpt lat="47.537735" lon="1.7232242">
        <ele>145.0</ele>
        <time>2022-03-31T07:36:23Z</time>
      </trkpt>
      <trkpt lat="47.53772" lon="1.7232245">
        <ele>145.0</ele>
        <time>2022-03-31T07:36:24Z</time>
      </trkpt>
      <trkpt lat="47.537704" lon="1.7232246">
        <ele>144.0</ele>
        <time>2022-03-31T07:36:25Z</time>
      </trkpt>
      <trkpt lat="47.537693" lon="1.7232256">
        <ele>144.0</ele>
        <time>2022-03-31T07:36:26Z</time>
      </trkpt>
      <trkpt lat="47.53768" lon="1.7232251">
        <ele>144.0</ele>
        <time>2022-03-31T07:36:27Z</time>
      </trkpt>
      <trkpt lat="47.53767" lon="1.7232257">
        <ele>143.0</ele>
        <time>2022-03-31T07:36:28Z</time>
      </trkpt>
      <trkpt lat="47.53766" lon="1.7232263">
        <ele>144.0</ele>
        <time>2022-03-31T07:36:29Z</time>
      </trkpt>
      <trkpt lat="47.537647" lon="1.7232264">
        <ele>144.0</ele>
        <time>2022-03-31T07:36:30Z</time>
      </trkpt>
      <trkpt lat="47.537636" lon="1.7232285">
        <ele>144.0</ele>
        <time>2022-03-31T07:36:31Z</time>
      </trkpt>
      <trkpt lat="47.53762" lon="1.7232302">
        <ele>143.0</ele>
        <time>2022-03-31T07:36:32Z</time>
      </trkpt>
      <trkpt lat="47.53761" lon="1.7232295">
        <ele>143.0</ele>
        <time>2022-03-31T07:36:33Z</time>
      </trkpt>
      <trkpt lat="47.537594" lon="1.7232258">
        <ele>143.0</ele>
        <time>2022-03-31T07:36:34Z</time>
      </trkpt>
      <trkpt lat="47.53758" lon="1.7232218">
        <ele>143.0</ele>
        <time>2022-03-31T07:36:35Z</time>
      </trkpt>
      <trkpt lat="47.537563" lon="1.7232232">
        <ele>143.0</ele>
        <time>2022-03-31T07:36:36Z</time>
      </trkpt>
      <trkpt lat="47.53755" lon="1.723222">
        <ele>143.0</ele>
        <time>2022-03-31T07:36:37Z</time>
      </trkpt>
      <trkpt lat="47.53754" lon="1.7232208">
        <ele>143.0</ele>
        <time>2022-03-31T07:36:38Z</time>
      </trkpt>
      <trkpt lat="47.537533" lon="1.7232237">
        <ele>142.0</ele>
        <time>2022-03-31T07:36:39Z</time>
      </trkpt>
      <trkpt lat="47.537518" lon="1.7232273">
        <ele>142.0</ele>
        <time>2022-03-31T07:36:40Z</time>
      </trkpt>
      <trkpt lat="47.537506" lon="1.7232254">
        <ele>142.0</ele>
        <time>2022-03-31T07:36:41Z</time>
      </trkpt>
      <trkpt lat="47.537495" lon="1.7232274">
        <ele>142.0</ele>
        <time>2022-03-31T07:36:42Z</time>
      </trkpt>
      <trkpt lat="47.537483" lon="1.7232244">
        <ele>142.0</ele>
        <time>2022-03-31T07:36:43Z</time>
      </trkpt>
      <trkpt lat="47.53747" lon="1.7232236">
        <ele>142.0</ele>
        <time>2022-03-31T07:36:44Z</time>
      </trkpt>
      <trkpt lat="47.53746" lon="1.723222">
        <ele>142.0</ele>
        <time>2022-03-31T07:36:45Z</time>
      </trkpt>
      <trkpt lat="47.53745" lon="1.723218">
        <ele>142.0</ele>
        <time>2022-03-31T07:36:46Z</time>
      </trkpt>
      <trkpt lat="47.537437" lon="1.7232152">
        <ele>142.0</ele>
        <time>2022-03-31T07:36:47Z</time>
      </trkpt>
      <trkpt lat="47.537426" lon="1.7232146">
        <ele>142.0</ele>
        <time>2022-03-31T07:36:48Z</time>
      </trkpt>
      <trkpt lat="47.53742" lon="1.723216">
        <ele>142.0</ele>
        <time>2022-03-31T07:36:49Z</time>
      </trkpt>
      <trkpt lat="47.537407" lon="1.7232128">
        <ele>141.0</ele>
        <time>2022-03-31T07:36:50Z</time>
      </trkpt>
      <trkpt lat="47.5374" lon="1.723211">
        <ele>141.0</ele>
        <time>2022-03-31T07:36:51Z</time>
      </trkpt>
      <trkpt lat="47.537388" lon="1.7232074">
        <ele>141.0</ele>
        <time>2022-03-31T07:36:52Z</time>
      </trkpt>
      <trkpt lat="47.53738" lon="1.7232031">
        <ele>141.0</ele>
        <time>2022-03-31T07:36:53Z</time>
      </trkpt>
      <trkpt lat="47.537373" lon="1.7231977">
        <ele>140.0</ele>
        <time>2022-03-31T07:36:54Z</time>
      </trkpt>
      <trkpt lat="47.537357" lon="1.7231994">
        <ele>140.0</ele>
        <time>2022-03-31T07:36:55Z</time>
      </trkpt>
      <trkpt lat="47.537346" lon="1.7232006">
        <ele>140.0</ele>
        <time>2022-03-31T07:36:56Z</time>
      </trkpt>
      <trkpt lat="47.53734" lon="1.7231997">
        <ele>140.0</ele>
        <time>2022-03-31T07:36:57Z</time>
      </trkpt>
      <trkpt lat="47.537327" lon="1.7231964">
        <ele>140.0</ele>
        <time>2022-03-31T07:36:58Z</time>
      </trkpt>
      <trkpt lat="47.53731" lon="1.7231948">
        <ele>140.0</ele>
        <time>2022-03-31T07:36:59Z</time>
      </trkpt>
      <trkpt lat="47.537296" lon="1.7231959">
        <ele>140.0</ele>
        <time>2022-03-31T07:37:00Z</time>
      </trkpt>
      <trkpt lat="47.53729" lon="1.7231928">
        <ele>140.0</ele>
        <time>2022-03-31T07:37:01Z</time>
      </trkpt>
      <trkpt lat="47.537277" lon="1.7231913">
        <ele>140.0</ele>
        <time>2022-03-31T07:37:02Z</time>
      </trkpt>
      <trkpt lat="47.53727" lon="1.7231905">
        <ele>140.0</ele>
        <time>2022-03-31T07:37:03Z</time>
      </trkpt>
      <trkpt lat="47.53726" lon="1.7231897">
        <ele>140.0</ele>
        <time>2022-03-31T07:37:04Z</time>
      </trkpt>
      <trkpt lat="47.537247" lon="1.7231904">
        <ele>140.0</ele>
        <time>2022-03-31T07:37:05Z</time>
      </trkpt>
      <trkpt lat="47.53723" lon="1.7231933">
        <ele>139.0</ele>
        <time>2022-03-31T07:37:06Z</time>
      </trkpt>
      <trkpt lat="47.53722" lon="1.7231934">
        <ele>139.0</ele>
        <time>2022-03-31T07:37:07Z</time>
      </trkpt>
      <trkpt lat="47.53721" lon="1.7231952">
        <ele>138.0</ele>
        <time>2022-03-31T07:37:08Z</time>
      </trkpt>
      <trkpt lat="47.537193" lon="1.7232006">
        <ele>138.0</ele>
        <time>2022-03-31T07:37:09Z</time>
      </trkpt>
      <trkpt lat="47.537186" lon="1.7232047">
        <ele>138.0</ele>
        <time>2022-03-31T07:37:10Z</time>
      </trkpt>
      <trkpt lat="47.537178" lon="1.7232096">
        <ele>138.0</ele>
        <time>2022-03-31T07:37:11Z</time>
      </trkpt>
      <trkpt lat="47.537167" lon="1.723208">
        <ele>138.0</ele>
        <time>2022-03-31T07:37:12Z</time>
      </trkpt>
      <trkpt lat="47.53715" lon="1.7232">
        <ele>138.0</ele>
        <time>2022-03-31T07:37:13Z</time>
      </trkpt>
      <trkpt lat="47.53714" lon="1.7231983">
        <ele>138.0</ele>
        <time>2022-03-31T07:37:14Z</time>
      </trkpt>
      <trkpt lat="47.53713" lon="1.7231987">
        <ele>137.0</ele>
        <time>2022-03-31T07:37:15Z</time>
      </trkpt>
      <trkpt lat="47.537113" lon="1.7231973">
        <ele>137.0</ele>
        <time>2022-03-31T07:37:16Z</time>
      </trkpt>
      <trkpt lat="47.537106" lon="1.7231964">
        <ele>137.0</ele>
        <time>2022-03-31T07:37:17Z</time>
      </trkpt>
      <trkpt lat="47.53709" lon="1.7231927">
        <ele>137.0</ele>
        <time>2022-03-31T07:37:18Z</time>
      </trkpt>
      <trkpt lat="47.537075" lon="1.7231904">
        <ele>136.0</ele>
        <time>2022-03-31T07:37:19Z</time>
      </trkpt>
      <trkpt lat="47.53706" lon="1.723189">
        <ele>136.0</ele>
        <time>2022-03-31T07:37:20Z</time>
      </trkpt>
      <trkpt lat="47.53705" lon="1.7231892">
        <ele>136.0</ele>
        <time>2022-03-31T07:37:21Z</time>
      </trkpt>
      <trkpt lat="47.537037" lon="1.723192">
        <ele>136.0</ele>
        <time>2022-03-31T07:37:22Z</time>
      </trkpt>
      <trkpt lat="47.537025" lon="1.7231913">
        <ele>136.0</ele>
        <time>2022-03-31T07:37:23Z</time>
      </trkpt>
      <trkpt lat="47.53701" lon="1.7231952">
        <ele>137.0</ele>
        <time>2022-03-31T07:37:24Z</time>
      </trkpt>
      <trkpt lat="47.537" lon="1.7231967">
        <ele>137.0</ele>
        <time>2022-03-31T07:37:25Z</time>
      </trkpt>
      <trkpt lat="47.536983" lon="1.7231982">
        <ele>137.0</ele>
        <time>2022-03-31T07:37:26Z</time>
      </trkpt>
      <trkpt lat="47.536972" lon="1.7232021">
        <ele>137.0</ele>
        <time>2022-03-31T07:37:27Z</time>
      </trkpt>
      <trkpt lat="47.53696" lon="1.7232062">
        <ele>137.0</ele>
        <time>2022-03-31T07:37:28Z</time>
      </trkpt>
      <trkpt lat="47.53695" lon="1.7232021">
        <ele>136.0</ele>
        <time>2022-03-31T07:37:29Z</time>
      </trkpt>
      <trkpt lat="47.536938" lon="1.723195">
        <ele>137.0</ele>
        <time>2022-03-31T07:37:30Z</time>
      </trkpt>
      <trkpt lat="47.536926" lon="1.7231908">
        <ele>137.0</ele>
        <time>2022-03-31T07:37:31Z</time>
      </trkpt>
      <trkpt lat="47.536915" lon="1.7231919">
        <ele>137.0</ele>
        <time>2022-03-31T07:37:32Z</time>
      </trkpt>
      <trkpt lat="47.536903" lon="1.7231935">
        <ele>137.0</ele>
        <time>2022-03-31T07:37:33Z</time>
      </trkpt>
      <trkpt lat="47.536892" lon="1.7231946">
        <ele>137.0</ele>
        <time>2022-03-31T07:37:34Z</time>
      </trkpt>
      <trkpt lat="47.536884" lon="1.7231938">
        <ele>137.0</ele>
        <time>2022-03-31T07:37:35Z</time>
      </trkpt>
      <trkpt lat="47.536877" lon="1.7231958">
        <ele>137.0</ele>
        <time>2022-03-31T07:37:36Z</time>
      </trkpt>
      <trkpt lat="47.536865" lon="1.723195">
        <ele>137.0</ele>
        <time>2022-03-31T07:37:37Z</time>
      </trkpt>
      <trkpt lat="47.536858" lon="1.7231944">
        <ele>137.0</ele>
        <time>2022-03-31T07:37:38Z</time>
      </trkpt>
      <trkpt lat="47.536846" lon="1.7231941">
        <ele>137.0</ele>
        <time>2022-03-31T07:37:39Z</time>
      </trkpt>
      <trkpt lat="47.536835" lon="1.723195">
        <ele>137.0</ele>
        <time>2022-03-31T07:37:40Z</time>
      </trkpt>
      <trkpt lat="47.536823" lon="1.7231947">
        <ele>137.0</ele>
        <time>2022-03-31T07:37:41Z</time>
      </trkpt>
      <trkpt lat="47.53681" lon="1.7231929">
        <ele>137.0</ele>
        <time>2022-03-31T07:37:42Z</time>
      </trkpt>
      <trkpt lat="47.5368" lon="1.7231923">
        <ele>137.0</ele>
        <time>2022-03-31T07:37:43Z</time>
      </trkpt>
      <trkpt lat="47.536793" lon="1.7231917">
        <ele>138.0</ele>
        <time>2022-03-31T07:37:44Z</time>
      </trkpt>
      <trkpt lat="47.536785" lon="1.7231923">
        <ele>138.0</ele>
        <time>2022-03-31T07:37:45Z</time>
      </trkpt>
      <trkpt lat="47.536777" lon="1.7231923">
        <ele>138.0</ele>
        <time>2022-03-31T07:37:46Z</time>
      </trkpt>
      <trkpt lat="47.53677" lon="1.723195">
        <ele>138.0</ele>
        <time>2022-03-31T07:37:47Z</time>
      </trkpt>
      <trkpt lat="47.53676" lon="1.7231983">
        <ele>138.0</ele>
        <time>2022-03-31T07:37:48Z</time>
      </trkpt>
      <trkpt lat="47.536747" lon="1.7231991">
        <ele>138.0</ele>
        <time>2022-03-31T07:37:49Z</time>
      </trkpt>
      <trkpt lat="47.536736" lon="1.7232007">
        <ele>139.0</ele>
        <time>2022-03-31T07:37:50Z</time>
      </trkpt>
      <trkpt lat="47.536724" lon="1.7232026">
        <ele>139.0</ele>
        <time>2022-03-31T07:37:51Z</time>
      </trkpt>
      <trkpt lat="47.536713" lon="1.723195">
        <ele>140.0</ele>
        <time>2022-03-31T07:37:52Z</time>
      </trkpt>
      <trkpt lat="47.536694" lon="1.7231904">
        <ele>140.0</ele>
        <time>2022-03-31T07:37:53Z</time>
      </trkpt>
      <trkpt lat="47.53668" lon="1.7231879">
        <ele>140.0</ele>
        <time>2022-03-31T07:37:54Z</time>
      </trkpt>
      <trkpt lat="47.536667" lon="1.7231859">
        <ele>140.0</ele>
        <time>2022-03-31T07:37:55Z</time>
      </trkpt>
      <trkpt lat="47.53665" lon="1.7231824">
        <ele>140.0</ele>
        <time>2022-03-31T07:37:56Z</time>
      </trkpt>
      <trkpt lat="47.536633" lon="1.7231784">
        <ele>140.0</ele>
        <time>2022-03-31T07:37:57Z</time>
      </trkpt>
      <trkpt lat="47.536617" lon="1.7231764">
        <ele>140.0</ele>
        <time>2022-03-31T07:37:58Z</time>
      </trkpt>
      <trkpt lat="47.536602" lon="1.7231815">
        <ele>140.0</ele>
        <time>2022-03-31T07:37:59Z</time>
      </trkpt>
      <trkpt lat="47.536587" lon="1.7231811">
        <ele>140.0</ele>
        <time>2022-03-31T07:38:00Z</time>
      </trkpt>
      <trkpt lat="47.536575" lon="1.7231834">
        <ele>140.0</ele>
        <time>2022-03-31T07:38:01Z</time>
      </trkpt>
      <trkpt lat="47.53656" lon="1.7231803">
        <ele>141.0</ele>
        <time>2022-03-31T07:38:02Z</time>
      </trkpt>
      <trkpt lat="47.53655" lon="1.7231764">
        <ele>140.0</ele>
        <time>2022-03-31T07:38:03Z</time>
      </trkpt>
      <trkpt lat="47.53654" lon="1.7231735">
        <ele>141.0</ele>
        <time>2022-03-31T07:38:04Z</time>
      </trkpt>
      <trkpt lat="47.53653" lon="1.7231743">
        <ele>141.0</ele>
        <time>2022-03-31T07:38:05Z</time>
      </trkpt>
      <trkpt lat="47.536514" lon="1.723175">
        <ele>141.0</ele>
        <time>2022-03-31T07:38:06Z</time>
      </trkpt>
      <trkpt lat="47.5365" lon="1.7231772">
        <ele>141.0</ele>
        <time>2022-03-31T07:38:07Z</time>
      </trkpt>
      <trkpt lat="47.536484" lon="1.7231759">
        <ele>142.0</ele>
        <time>2022-03-31T07:38:08Z</time>
      </trkpt>
      <trkpt lat="47.536472" lon="1.7231753">
        <ele>142.0</ele>
        <time>2022-03-31T07:38:09Z</time>
      </trkpt>
      <trkpt lat="47.53646" lon="1.7231708">
        <ele>142.0</ele>
        <time>2022-03-31T07:38:10Z</time>
      </trkpt>
      <trkpt lat="47.53644" lon="1.7231685">
        <ele>142.0</ele>
        <time>2022-03-31T07:38:11Z</time>
      </trkpt>
      <trkpt lat="47.536427" lon="1.7231648">
        <ele>142.0</ele>
        <time>2022-03-31T07:38:12Z</time>
      </trkpt>
      <trkpt lat="47.53641" lon="1.7231618">
        <ele>142.0</ele>
        <time>2022-03-31T07:38:13Z</time>
      </trkpt>
      <trkpt lat="47.5364" lon="1.7231592">
        <ele>142.0</ele>
        <time>2022-03-31T07:38:14Z</time>
      </trkpt>
      <trkpt lat="47.536385" lon="1.7231611">
        <ele>142.0</ele>
        <time>2022-03-31T07:38:15Z</time>
      </trkpt>
      <trkpt lat="47.536373" lon="1.7231572">
        <ele>142.0</ele>
        <time>2022-03-31T07:38:16Z</time>
      </trkpt>
      <trkpt lat="47.53636" lon="1.7231554">
        <ele>142.0</ele>
        <time>2022-03-31T07:38:17Z</time>
      </trkpt>
      <trkpt lat="47.536346" lon="1.7231535">
        <ele>142.0</ele>
        <time>2022-03-31T07:38:18Z</time>
      </trkpt>
      <trkpt lat="47.536335" lon="1.7231537">
        <ele>142.0</ele>
        <time>2022-03-31T07:38:19Z</time>
      </trkpt>
      <trkpt lat="47.53632" lon="1.7231551">
        <ele>142.0</ele>
        <time>2022-03-31T07:38:20Z</time>
      </trkpt>
      <trkpt lat="47.536304" lon="1.7231581">
        <ele>142.0</ele>
        <time>2022-03-31T07:38:21Z</time>
      </trkpt>
      <trkpt lat="47.536304" lon="1.7231567">
        <ele>142.0</ele>
        <time>2022-03-31T07:38:22Z</time>
      </trkpt>
      <trkpt lat="47.536297" lon="1.7231596">
        <ele>142.0</ele>
        <time>2022-03-31T07:38:23Z</time>
      </trkpt>
      <trkpt lat="47.536285" lon="1.7231586">
        <ele>142.0</ele>
        <time>2022-03-31T07:38:24Z</time>
      </trkpt>
      <trkpt lat="47.536274" lon="1.7231561">
        <ele>142.0</ele>
        <time>2022-03-31T07:38:25Z</time>
      </trkpt>
      <trkpt lat="47.53626" lon="1.7231477">
        <ele>142.0</ele>
        <time>2022-03-31T07:38:26Z</time>
      </trkpt>
      <trkpt lat="47.536243" lon="1.7231473">
        <ele>142.0</ele>
        <time>2022-03-31T07:38:27Z</time>
      </trkpt>
      <trkpt lat="47.536232" lon="1.7231507">
        <ele>143.0</ele>
        <time>2022-03-31T07:38:28Z</time>
      </trkpt>
      <trkpt lat="47.53622" lon="1.7231517">
        <ele>142.0</ele>
        <time>2022-03-31T07:38:29Z</time>
      </trkpt>
      <trkpt lat="47.536205" lon="1.7231522">
        <ele>142.0</ele>
        <time>2022-03-31T07:38:30Z</time>
      </trkpt>
      <trkpt lat="47.536194" lon="1.7231506">
        <ele>142.0</ele>
        <time>2022-03-31T07:38:31Z</time>
      </trkpt>
      <trkpt lat="47.53618" lon="1.7231501">
        <ele>142.0</ele>
        <time>2022-03-31T07:38:32Z</time>
      </trkpt>
      <trkpt lat="47.536167" lon="1.7231513">
        <ele>142.0</ele>
        <time>2022-03-31T07:38:33Z</time>
      </trkpt>
      <trkpt lat="47.536156" lon="1.7231525">
        <ele>142.0</ele>
        <time>2022-03-31T07:38:34Z</time>
      </trkpt>
      <trkpt lat="47.536144" lon="1.7231548">
        <ele>142.0</ele>
        <time>2022-03-31T07:38:35Z</time>
      </trkpt>
      <trkpt lat="47.536133" lon="1.7231542">
        <ele>143.0</ele>
        <time>2022-03-31T07:38:36Z</time>
      </trkpt>
      <trkpt lat="47.536118" lon="1.7231529">
        <ele>142.0</ele>
        <time>2022-03-31T07:38:37Z</time>
      </trkpt>
      <trkpt lat="47.536102" lon="1.7231503">
        <ele>142.0</ele>
        <time>2022-03-31T07:38:38Z</time>
      </trkpt>
      <trkpt lat="47.536087" lon="1.7231481">
        <ele>142.0</ele>
        <time>2022-03-31T07:38:39Z</time>
      </trkpt>
      <trkpt lat="47.53607" lon="1.7231488">
        <ele>142.0</ele>
        <time>2022-03-31T07:38:40Z</time>
      </trkpt>
      <trkpt lat="47.53606" lon="1.7231518">
        <ele>142.0</ele>
        <time>2022-03-31T07:38:41Z</time>
      </trkpt>
      <trkpt lat="47.53604" lon="1.7231508">
        <ele>142.0</ele>
        <time>2022-03-31T07:38:42Z</time>
      </trkpt>
      <trkpt lat="47.536026" lon="1.7231493">
        <ele>142.0</ele>
        <time>2022-03-31T07:38:43Z</time>
      </trkpt>
      <trkpt lat="47.53601" lon="1.7231436">
        <ele>142.0</ele>
        <time>2022-03-31T07:38:44Z</time>
      </trkpt>
      <trkpt lat="47.536" lon="1.7231406">
        <ele>142.0</ele>
        <time>2022-03-31T07:38:45Z</time>
      </trkpt>
      <trkpt lat="47.53598" lon="1.7231405">
        <ele>142.0</ele>
        <time>2022-03-31T07:38:46Z</time>
      </trkpt>
      <trkpt lat="47.535965" lon="1.7231407">
        <ele>142.0</ele>
        <time>2022-03-31T07:38:47Z</time>
      </trkpt>
      <trkpt lat="47.535954" lon="1.7231405">
        <ele>142.0</ele>
        <time>2022-03-31T07:38:48Z</time>
      </trkpt>
      <trkpt lat="47.53594" lon="1.7231424">
        <ele>142.0</ele>
        <time>2022-03-31T07:38:49Z</time>
      </trkpt>
      <trkpt lat="47.535927" lon="1.7231407">
        <ele>142.0</ele>
        <time>2022-03-31T07:38:50Z</time>
      </trkpt>
      <trkpt lat="47.53592" lon="1.7231399">
        <ele>142.0</ele>
        <time>2022-03-31T07:38:51Z</time>
      </trkpt>
      <trkpt lat="47.535908" lon="1.723139">
        <ele>142.0</ele>
        <time>2022-03-31T07:38:52Z</time>
      </trkpt>
      <trkpt lat="47.535896" lon="1.7231348">
        <ele>142.0</ele>
        <time>2022-03-31T07:38:53Z</time>
      </trkpt>
      <trkpt lat="47.535885" lon="1.7231317">
        <ele>143.0</ele>
        <time>2022-03-31T07:38:54Z</time>
      </trkpt>
      <trkpt lat="47.535877" lon="1.723127">
        <ele>142.0</ele>
        <time>2022-03-31T07:38:55Z</time>
      </trkpt>
      <trkpt lat="47.53587" lon="1.723126">
        <ele>143.0</ele>
        <time>2022-03-31T07:38:56Z</time>
      </trkpt>
      <trkpt lat="47.53586" lon="1.7231277">
        <ele>143.0</ele>
        <time>2022-03-31T07:38:57Z</time>
      </trkpt>
      <trkpt lat="47.535843" lon="1.7231294">
        <ele>144.0</ele>
        <time>2022-03-31T07:38:58Z</time>
      </trkpt>
      <trkpt lat="47.53583" lon="1.723128">
        <ele>144.0</ele>
        <time>2022-03-31T07:38:59Z</time>
      </trkpt>
      <trkpt lat="47.53582" lon="1.7231274">
        <ele>144.0</ele>
        <time>2022-03-31T07:39:00Z</time>
      </trkpt>
      <trkpt lat="47.53581" lon="1.7231219">
        <ele>144.0</ele>
        <time>2022-03-31T07:39:01Z</time>
      </trkpt>
      <trkpt lat="47.5358" lon="1.7231158">
        <ele>144.0</ele>
        <time>2022-03-31T07:39:02Z</time>
      </trkpt>
      <trkpt lat="47.535793" lon="1.7231132">
        <ele>145.0</ele>
        <time>2022-03-31T07:39:03Z</time>
      </trkpt>
      <trkpt lat="47.535786" lon="1.7231125">
        <ele>144.0</ele>
        <time>2022-03-31T07:39:04Z</time>
      </trkpt>
      <trkpt lat="47.535774" lon="1.7231116">
        <ele>144.0</ele>
        <time>2022-03-31T07:39:05Z</time>
      </trkpt>
      <trkpt lat="47.535767" lon="1.7231115">
        <ele>145.0</ele>
        <time>2022-03-31T07:39:06Z</time>
      </trkpt>
      <trkpt lat="47.53575" lon="1.7231098">
        <ele>145.0</ele>
        <time>2022-03-31T07:39:07Z</time>
      </trkpt>
      <trkpt lat="47.53574" lon="1.7231078">
        <ele>144.0</ele>
        <time>2022-03-31T07:39:08Z</time>
      </trkpt>
      <trkpt lat="47.53573" lon="1.7231069">
        <ele>144.0</ele>
        <time>2022-03-31T07:39:09Z</time>
      </trkpt>
      <trkpt lat="47.535713" lon="1.7231088">
        <ele>144.0</ele>
        <time>2022-03-31T07:39:10Z</time>
      </trkpt>
      <trkpt lat="47.535706" lon="1.7231128">
        <ele>144.0</ele>
        <time>2022-03-31T07:39:11Z</time>
      </trkpt>
      <trkpt lat="47.535694" lon="1.7231146">
        <ele>144.0</ele>
        <time>2022-03-31T07:39:12Z</time>
      </trkpt>
      <trkpt lat="47.535686" lon="1.7231184">
        <ele>144.0</ele>
        <time>2022-03-31T07:39:13Z</time>
      </trkpt>
      <trkpt lat="47.535675" lon="1.7231188">
        <ele>144.0</ele>
        <time>2022-03-31T07:39:14Z</time>
      </trkpt>
      <trkpt lat="47.53566" lon="1.723124">
        <ele>144.0</ele>
        <time>2022-03-31T07:39:15Z</time>
      </trkpt>
      <trkpt lat="47.53565" lon="1.7231249">
        <ele>143.0</ele>
        <time>2022-03-31T07:39:16Z</time>
      </trkpt>
      <trkpt lat="47.535633" lon="1.7231255">
        <ele>143.0</ele>
        <time>2022-03-31T07:39:17Z</time>
      </trkpt>
      <trkpt lat="47.535625" lon="1.7231269">
        <ele>143.0</ele>
        <time>2022-03-31T07:39:18Z</time>
      </trkpt>
      <trkpt lat="47.535614" lon="1.723123">
        <ele>143.0</ele>
        <time>2022-03-31T07:39:19Z</time>
      </trkpt>
      <trkpt lat="47.535603" lon="1.7231227">
        <ele>143.0</ele>
        <time>2022-03-31T07:39:20Z</time>
      </trkpt>
      <trkpt lat="47.535595" lon="1.7231237">
        <ele>143.0</ele>
        <time>2022-03-31T07:39:21Z</time>
      </trkpt>
      <trkpt lat="47.535583" lon="1.7231238">
        <ele>142.0</ele>
        <time>2022-03-31T07:39:22Z</time>
      </trkpt>
      <trkpt lat="47.535572" lon="1.7231244">
        <ele>142.0</ele>
        <time>2022-03-31T07:39:23Z</time>
      </trkpt>
      <trkpt lat="47.535564" lon="1.7231241">
        <ele>142.0</ele>
        <time>2022-03-31T07:39:24Z</time>
      </trkpt>
      <trkpt lat="47.535553" lon="1.723125">
        <ele>142.0</ele>
        <time>2022-03-31T07:39:25Z</time>
      </trkpt>
      <trkpt lat="47.535545" lon="1.7231289">
        <ele>141.0</ele>
        <time>2022-03-31T07:39:26Z</time>
      </trkpt>
      <trkpt lat="47.535534" lon="1.7231348">
        <ele>141.0</ele>
        <time>2022-03-31T07:39:27Z</time>
      </trkpt>
      <trkpt lat="47.535526" lon="1.7231406">
        <ele>141.0</ele>
        <time>2022-03-31T07:39:28Z</time>
      </trkpt>
      <trkpt lat="47.535515" lon="1.7231419">
        <ele>141.0</ele>
        <time>2022-03-31T07:39:29Z</time>
      </trkpt>
      <trkpt lat="47.535507" lon="1.7231456">
        <ele>141.0</ele>
        <time>2022-03-31T07:39:30Z</time>
      </trkpt>
      <trkpt lat="47.535496" lon="1.7231454">
        <ele>141.0</ele>
        <time>2022-03-31T07:39:31Z</time>
      </trkpt>
      <trkpt lat="47.535496" lon="1.7231454">
        <ele>141.0</ele>
        <time>2022-03-31T07:39:32Z</time>
      </trkpt>
      <trkpt lat="47.535496" lon="1.7231454">
        <ele>141.0</ele>
        <time>2022-03-31T07:39:33Z</time>
      </trkpt>
      <trkpt lat="47.535465" lon="1.7231514">
        <ele>141.0</ele>
        <time>2022-03-31T07:39:34Z</time>
      </trkpt>
      <trkpt lat="47.535458" lon="1.7231462">
        <ele>141.0</ele>
        <time>2022-03-31T07:39:35Z</time>
      </trkpt>
      <trkpt lat="47.535446" lon="1.7231399">
        <ele>140.0</ele>
        <time>2022-03-31T07:39:36Z</time>
      </trkpt>
      <trkpt lat="47.53544" lon="1.7231324">
        <ele>140.0</ele>
        <time>2022-03-31T07:39:37Z</time>
      </trkpt>
      <trkpt lat="47.53543" lon="1.72313">
        <ele>139.0</ele>
        <time>2022-03-31T07:39:38Z</time>
      </trkpt>
      <trkpt lat="47.535423" lon="1.7231271">
        <ele>139.0</ele>
        <time>2022-03-31T07:39:39Z</time>
      </trkpt>
      <trkpt lat="47.535423" lon="1.7231271">
        <ele>139.0</ele>
        <time>2022-03-31T07:39:40Z</time>
      </trkpt>
      <trkpt lat="47.535416" lon="1.7231251">
        <ele>139.0</ele>
        <time>2022-03-31T07:39:41Z</time>
      </trkpt>
      <trkpt lat="47.535416" lon="1.7231253">
        <ele>139.0</ele>
        <time>2022-03-31T07:39:42Z</time>
      </trkpt>
      <trkpt lat="47.53541" lon="1.7231277">
        <ele>140.0</ele>
        <time>2022-03-31T07:39:43Z</time>
      </trkpt>
      <trkpt lat="47.53541" lon="1.7231277">
        <ele>140.0</ele>
        <time>2022-03-31T07:39:43Z</time>
      </trkpt>
      <trkpt lat="47.53541" lon="1.7231277">
        <ele>140.0</ele>
        <time>2022-03-31T07:39:43Z</time>
      </trkpt>
      <trkpt lat="47.535362" lon="1.7231634">
        <ele>140.0</ele>
        <time>2022-03-31T07:40:39Z</time>
      </trkpt>
      <trkpt lat="47.53535" lon="1.7231548">
        <ele>140.0</ele>
        <time>2022-03-31T07:40:40Z</time>
      </trkpt>
      <trkpt lat="47.535343" lon="1.7231576">
        <ele>140.0</ele>
        <time>2022-03-31T07:40:41Z</time>
      </trkpt>
      <trkpt lat="47.535336" lon="1.7231483">
        <ele>140.0</ele>
        <time>2022-03-31T07:40:42Z</time>
      </trkpt>
      <trkpt lat="47.535324" lon="1.7231498">
        <ele>140.0</ele>
        <time>2022-03-31T07:40:43Z</time>
      </trkpt>
      <trkpt lat="47.535305" lon="1.7231485">
        <ele>140.0</ele>
        <time>2022-03-31T07:40:44Z</time>
      </trkpt>
      <trkpt lat="47.535294" lon="1.7231488">
        <ele>140.0</ele>
        <time>2022-03-31T07:40:45Z</time>
      </trkpt>
      <trkpt lat="47.53528" lon="1.7231511">
        <ele>141.0</ele>
        <time>2022-03-31T07:40:46Z</time>
      </trkpt>
      <trkpt lat="47.53527" lon="1.7231491">
        <ele>141.0</ele>
        <time>2022-03-31T07:40:47Z</time>
      </trkpt>
      <trkpt lat="47.535267" lon="1.7231572">
        <ele>141.0</ele>
        <time>2022-03-31T07:40:48Z</time>
      </trkpt>
      <trkpt lat="47.535255" lon="1.7231615">
        <ele>141.0</ele>
        <time>2022-03-31T07:40:49Z</time>
      </trkpt>
      <trkpt lat="47.535244" lon="1.7231661">
        <ele>141.0</ele>
        <time>2022-03-31T07:40:50Z</time>
      </trkpt>
      <trkpt lat="47.53524" lon="1.7231677">
        <ele>141.0</ele>
        <time>2022-03-31T07:40:51Z</time>
      </trkpt>
      <trkpt lat="47.53524" lon="1.7231677">
        <ele>141.0</ele>
        <time>2022-03-31T07:40:52Z</time>
      </trkpt>
      <trkpt lat="47.53524" lon="1.7231677">
        <ele>141.0</ele>
        <time>2022-03-31T07:40:53Z</time>
      </trkpt>
      <trkpt lat="47.53524" lon="1.7231677">
        <ele>141.0</ele>
        <time>2022-03-31T07:40:54Z</time>
      </trkpt>
      <trkpt lat="47.535213" lon="1.7231727">
        <ele>141.0</ele>
        <time>2022-03-31T07:40:55Z</time>
      </trkpt>
      <trkpt lat="47.5352" lon="1.7231768">
        <ele>141.0</ele>
        <time>2022-03-31T07:40:56Z</time>
      </trkpt>
      <trkpt lat="47.535187" lon="1.7231791">
        <ele>141.0</ele>
        <time>2022-03-31T07:40:57Z</time>
      </trkpt>
      <trkpt lat="47.53517" lon="1.723176">
        <ele>141.0</ele>
        <time>2022-03-31T07:40:58Z</time>
      </trkpt>
      <trkpt lat="47.53516" lon="1.7231697">
        <ele>141.0</ele>
        <time>2022-03-31T07:40:59Z</time>
      </trkpt>
      <trkpt lat="47.53515" lon="1.7231675">
        <ele>141.0</ele>
        <time>2022-03-31T07:41:00Z</time>
      </trkpt>
      <trkpt lat="47.53514" lon="1.7231673">
        <ele>141.0</ele>
        <time>2022-03-31T07:41:01Z</time>
      </trkpt>
      <trkpt lat="47.53513" lon="1.7231649">
        <ele>141.0</ele>
        <time>2022-03-31T07:41:02Z</time>
      </trkpt>
      <trkpt lat="47.535122" lon="1.7231642">
        <ele>141.0</ele>
        <time>2022-03-31T07:41:03Z</time>
      </trkpt>
      <trkpt lat="47.535114" lon="1.723164">
        <ele>141.0</ele>
        <time>2022-03-31T07:41:04Z</time>
      </trkpt>
      <trkpt lat="47.535103" lon="1.7231606">
        <ele>141.0</ele>
        <time>2022-03-31T07:41:05Z</time>
      </trkpt>
      <trkpt lat="47.53509" lon="1.7231494">
        <ele>142.0</ele>
        <time>2022-03-31T07:41:06Z</time>
      </trkpt>
      <trkpt lat="47.53508" lon="1.7231475">
        <ele>142.0</ele>
        <time>2022-03-31T07:41:07Z</time>
      </trkpt>
      <trkpt lat="47.535076" lon="1.7231458">
        <ele>142.0</ele>
        <time>2022-03-31T07:41:08Z</time>
      </trkpt>
      <trkpt lat="47.535076" lon="1.7231457">
        <ele>142.0</ele>
        <time>2022-03-31T07:41:09Z</time>
      </trkpt>
      <trkpt lat="47.535072" lon="1.7231483">
        <ele>143.0</ele>
        <time>2022-03-31T07:41:10Z</time>
      </trkpt>
      <trkpt lat="47.53507" lon="1.7231486">
        <ele>143.0</ele>
        <time>2022-03-31T07:41:11Z</time>
      </trkpt>
      <trkpt lat="47.535053" lon="1.7231456">
        <ele>143.0</ele>
        <time>2022-03-31T07:41:12Z</time>
      </trkpt>
      <trkpt lat="47.535038" lon="1.7231455">
        <ele>143.0</ele>
        <time>2022-03-31T07:41:13Z</time>
      </trkpt>
      <trkpt lat="47.535023" lon="1.7231436">
        <ele>143.0</ele>
        <time>2022-03-31T07:41:14Z</time>
      </trkpt>
      <trkpt lat="47.535015" lon="1.7231414">
        <ele>142.0</ele>
        <time>2022-03-31T07:41:15Z</time>
      </trkpt>
      <trkpt lat="47.535004" lon="1.7231413">
        <ele>143.0</ele>
        <time>2022-03-31T07:41:16Z</time>
      </trkpt>
      <trkpt lat="47.534992" lon="1.723141">
        <ele>143.0</ele>
        <time>2022-03-31T07:41:17Z</time>
      </trkpt>
      <trkpt lat="47.534985" lon="1.72314">
        <ele>142.0</ele>
        <time>2022-03-31T07:41:18Z</time>
      </trkpt>
      <trkpt lat="47.534977" lon="1.723137">
        <ele>143.0</ele>
        <time>2022-03-31T07:41:19Z</time>
      </trkpt>
      <trkpt lat="47.53497" lon="1.7231344">
        <ele>143.0</ele>
        <time>2022-03-31T07:41:20Z</time>
      </trkpt>
      <trkpt lat="47.534958" lon="1.7231313">
        <ele>143.0</ele>
        <time>2022-03-31T07:41:21Z</time>
      </trkpt>
      <trkpt lat="47.534943" lon="1.7231297">
        <ele>143.0</ele>
        <time>2022-03-31T07:41:22Z</time>
      </trkpt>
      <trkpt lat="47.53493" lon="1.7231301">
        <ele>143.0</ele>
        <time>2022-03-31T07:41:23Z</time>
      </trkpt>
      <trkpt lat="47.534924" lon="1.7231297">
        <ele>144.0</ele>
        <time>2022-03-31T07:41:24Z</time>
      </trkpt>
      <trkpt lat="47.534916" lon="1.7231277">
        <ele>144.0</ele>
        <time>2022-03-31T07:41:25Z</time>
      </trkpt>
      <trkpt lat="47.53491" lon="1.7231275">
        <ele>144.0</ele>
        <time>2022-03-31T07:41:26Z</time>
      </trkpt>
      <trkpt lat="47.5349" lon="1.723124">
        <ele>144.0</ele>
        <time>2022-03-31T07:41:27Z</time>
      </trkpt>
      <trkpt lat="47.534885" lon="1.7231203">
        <ele>144.0</ele>
        <time>2022-03-31T07:41:28Z</time>
      </trkpt>
      <trkpt lat="47.534878" lon="1.7231176">
        <ele>144.0</ele>
        <time>2022-03-31T07:41:29Z</time>
      </trkpt>
      <trkpt lat="47.534866" lon="1.7231127">
        <ele>144.0</ele>
        <time>2022-03-31T07:41:30Z</time>
      </trkpt>
      <trkpt lat="47.534863" lon="1.7231101">
        <ele>144.0</ele>
        <time>2022-03-31T07:41:31Z</time>
      </trkpt>
      <trkpt lat="47.534855" lon="1.7231098">
        <ele>144.0</ele>
        <time>2022-03-31T07:41:32Z</time>
      </trkpt>
      <trkpt lat="47.53485" lon="1.7231101">
        <ele>144.0</ele>
        <time>2022-03-31T07:41:33Z</time>
      </trkpt>
      <trkpt lat="47.534847" lon="1.7231091">
        <ele>144.0</ele>
        <time>2022-03-31T07:41:34Z</time>
      </trkpt>
      <trkpt lat="47.53484" lon="1.7231066">
        <ele>144.0</ele>
        <time>2022-03-31T07:41:35Z</time>
      </trkpt>
      <trkpt lat="47.534836" lon="1.7231032">
        <ele>144.0</ele>
        <time>2022-03-31T07:41:36Z</time>
      </trkpt>
      <trkpt lat="47.534824" lon="1.7231007">
        <ele>144.0</ele>
        <time>2022-03-31T07:41:37Z</time>
      </trkpt>
      <trkpt lat="47.534813" lon="1.7231005">
        <ele>144.0</ele>
        <time>2022-03-31T07:41:38Z</time>
      </trkpt>
      <trkpt lat="47.534798" lon="1.7230942">
        <ele>144.0</ele>
        <time>2022-03-31T07:41:39Z</time>
      </trkpt>
      <trkpt lat="47.534782" lon="1.7230884">
        <ele>144.0</ele>
        <time>2022-03-31T07:41:40Z</time>
      </trkpt>
      <trkpt lat="47.53477" lon="1.7230862">
        <ele>144.0</ele>
        <time>2022-03-31T07:41:41Z</time>
      </trkpt>
      <trkpt lat="47.534756" lon="1.723084">
        <ele>144.0</ele>
        <time>2022-03-31T07:41:42Z</time>
      </trkpt>
      <trkpt lat="47.53474" lon="1.7230815">
        <ele>144.0</ele>
        <time>2022-03-31T07:41:43Z</time>
      </trkpt>
      <trkpt lat="47.534725" lon="1.7230778">
        <ele>144.0</ele>
        <time>2022-03-31T07:41:44Z</time>
      </trkpt>
      <trkpt lat="47.534714" lon="1.7230752">
        <ele>144.0</ele>
        <time>2022-03-31T07:41:45Z</time>
      </trkpt>
      <trkpt lat="47.534702" lon="1.7230753">
        <ele>143.0</ele>
        <time>2022-03-31T07:41:46Z</time>
      </trkpt>
      <trkpt lat="47.53469" lon="1.7230735">
        <ele>143.0</ele>
        <time>2022-03-31T07:41:47Z</time>
      </trkpt>
      <trkpt lat="47.534683" lon="1.7230653">
        <ele>143.0</ele>
        <time>2022-03-31T07:41:48Z</time>
      </trkpt>
      <trkpt lat="47.53467" lon="1.7230636">
        <ele>143.0</ele>
        <time>2022-03-31T07:41:49Z</time>
      </trkpt>
      <trkpt lat="47.534657" lon="1.7230599">
        <ele>143.0</ele>
        <time>2022-03-31T07:41:50Z</time>
      </trkpt>
      <trkpt lat="47.53465" lon="1.7230549">
        <ele>143.0</ele>
        <time>2022-03-31T07:41:51Z</time>
      </trkpt>
      <trkpt lat="47.534637" lon="1.7230537">
        <ele>142.0</ele>
        <time>2022-03-31T07:41:52Z</time>
      </trkpt>
      <trkpt lat="47.53463" lon="1.723051">
        <ele>142.0</ele>
        <time>2022-03-31T07:41:53Z</time>
      </trkpt>
      <trkpt lat="47.534626" lon="1.7230495">
        <ele>142.0</ele>
        <time>2022-03-31T07:41:54Z</time>
      </trkpt>
      <trkpt lat="47.53462" lon="1.7230464">
        <ele>142.0</ele>
        <time>2022-03-31T07:41:55Z</time>
      </trkpt>
      <trkpt lat="47.53462" lon="1.7230464">
        <ele>142.0</ele>
        <time>2022-03-31T07:41:56Z</time>
      </trkpt>
      <trkpt lat="47.5346" lon="1.7230433">
        <ele>142.0</ele>
        <time>2022-03-31T07:41:57Z</time>
      </trkpt>
      <trkpt lat="47.534588" lon="1.723042">
        <ele>142.0</ele>
        <time>2022-03-31T07:41:58Z</time>
      </trkpt>
      <trkpt lat="47.534576" lon="1.7230405">
        <ele>142.0</ele>
        <time>2022-03-31T07:41:59Z</time>
      </trkpt>
      <trkpt lat="47.53457" lon="1.72304">
        <ele>142.0</ele>
        <time>2022-03-31T07:42:00Z</time>
      </trkpt>
      <trkpt lat="47.53457" lon="1.72304">
        <ele>142.0</ele>
        <time>2022-03-31T07:42:01Z</time>
      </trkpt>
      <trkpt lat="47.53457" lon="1.72304">
        <ele>142.0</ele>
        <time>2022-03-31T07:42:02Z</time>
      </trkpt>
      <trkpt lat="47.534554" lon="1.7230327">
        <ele>142.0</ele>
        <time>2022-03-31T07:42:03Z</time>
      </trkpt>
      <trkpt lat="47.534546" lon="1.7230337">
        <ele>141.0</ele>
        <time>2022-03-31T07:42:04Z</time>
      </trkpt>
      <trkpt lat="47.534534" lon="1.7230309">
        <ele>141.0</ele>
        <time>2022-03-31T07:42:05Z</time>
      </trkpt>
      <trkpt lat="47.534527" lon="1.7230301">
        <ele>141.0</ele>
        <time>2022-03-31T07:42:06Z</time>
      </trkpt>
      <trkpt lat="47.534527" lon="1.7230301">
        <ele>141.0</ele>
        <time>2022-03-31T07:42:07Z</time>
      </trkpt>
      <trkpt lat="47.534508" lon="1.7230277">
        <ele>140.0</ele>
        <time>2022-03-31T07:42:08Z</time>
      </trkpt>
      <trkpt lat="47.534492" lon="1.7230252">
        <ele>140.0</ele>
        <time>2022-03-31T07:42:09Z</time>
      </trkpt>
      <trkpt lat="47.53448" lon="1.723021">
        <ele>140.0</ele>
        <time>2022-03-31T07:42:10Z</time>
      </trkpt>
      <trkpt lat="47.534466" lon="1.7230207">
        <ele>141.0</ele>
        <time>2022-03-31T07:42:11Z</time>
      </trkpt>
      <trkpt lat="47.53446" lon="1.7230223">
        <ele>141.0</ele>
        <time>2022-03-31T07:42:12Z</time>
      </trkpt>
      <trkpt lat="47.534447" lon="1.7230211">
        <ele>141.0</ele>
        <time>2022-03-31T07:42:13Z</time>
      </trkpt>
      <trkpt lat="47.534435" lon="1.7230197">
        <ele>141.0</ele>
        <time>2022-03-31T07:42:14Z</time>
      </trkpt>
      <trkpt lat="47.534435" lon="1.7230197">
        <ele>141.0</ele>
        <time>2022-03-31T07:42:15Z</time>
      </trkpt>
      <trkpt lat="47.534435" lon="1.7230197">
        <ele>141.0</ele>
        <time>2022-03-31T07:42:16Z</time>
      </trkpt>
      <trkpt lat="47.53441" lon="1.7230061">
        <ele>140.0</ele>
        <time>2022-03-31T07:42:17Z</time>
      </trkpt>
      <trkpt lat="47.534397" lon="1.7230053">
        <ele>140.0</ele>
        <time>2022-03-31T07:42:18Z</time>
      </trkpt>
      <trkpt lat="47.53438" lon="1.7230008">
        <ele>140.0</ele>
        <time>2022-03-31T07:42:19Z</time>
      </trkpt>
      <trkpt lat="47.534363" lon="1.7229953">
        <ele>140.0</ele>
        <time>2022-03-31T07:42:20Z</time>
      </trkpt>
      <trkpt lat="47.534348" lon="1.7229912">
        <ele>140.0</ele>
        <time>2022-03-31T07:42:21Z</time>
      </trkpt>
      <trkpt lat="47.53434" lon="1.7229862">
        <ele>139.0</ele>
        <time>2022-03-31T07:42:22Z</time>
      </trkpt>
      <trkpt lat="47.534325" lon="1.7229786">
        <ele>139.0</ele>
        <time>2022-03-31T07:42:23Z</time>
      </trkpt>
      <trkpt lat="47.53431" lon="1.7229718">
        <ele>139.0</ele>
        <time>2022-03-31T07:42:24Z</time>
      </trkpt>
      <trkpt lat="47.534298" lon="1.7229687">
        <ele>139.0</ele>
        <time>2022-03-31T07:42:25Z</time>
      </trkpt>
      <trkpt lat="47.534286" lon="1.722968">
        <ele>139.0</ele>
        <time>2022-03-31T07:42:26Z</time>
      </trkpt>
      <trkpt lat="47.534286" lon="1.722968">
        <ele>139.0</ele>
        <time>2022-03-31T07:42:27Z</time>
      </trkpt>
      <trkpt lat="47.534286" lon="1.722968">
        <ele>139.0</ele>
        <time>2022-03-31T07:42:28Z</time>
      </trkpt>
      <trkpt lat="47.53426" lon="1.7229546">
        <ele>138.0</ele>
        <time>2022-03-31T07:42:29Z</time>
      </trkpt>
      <trkpt lat="47.534245" lon="1.7229534">
        <ele>138.0</ele>
        <time>2022-03-31T07:42:30Z</time>
      </trkpt>
      <trkpt lat="47.53424" lon="1.722954">
        <ele>139.0</ele>
        <time>2022-03-31T07:42:31Z</time>
      </trkpt>
      <trkpt lat="47.534225" lon="1.7229507">
        <ele>139.0</ele>
        <time>2022-03-31T07:42:32Z</time>
      </trkpt>
      <trkpt lat="47.53421" lon="1.7229437">
        <ele>138.0</ele>
        <time>2022-03-31T07:42:33Z</time>
      </trkpt>
      <trkpt lat="47.53419" lon="1.7229391">
        <ele>138.0</ele>
        <time>2022-03-31T07:42:34Z</time>
      </trkpt>
      <trkpt lat="47.53418" lon="1.7229383">
        <ele>139.0</ele>
        <time>2022-03-31T07:42:35Z</time>
      </trkpt>
      <trkpt lat="47.534164" lon="1.7229381">
        <ele>139.0</ele>
        <time>2022-03-31T07:42:36Z</time>
      </trkpt>
      <trkpt lat="47.534153" lon="1.7229339">
        <ele>139.0</ele>
        <time>2022-03-31T07:42:37Z</time>
      </trkpt>
      <trkpt lat="47.534138" lon="1.722931">
        <ele>139.0</ele>
        <time>2022-03-31T07:42:38Z</time>
      </trkpt>
      <trkpt lat="47.534126" lon="1.7229265">
        <ele>139.0</ele>
        <time>2022-03-31T07:42:39Z</time>
      </trkpt>
      <trkpt lat="47.534115" lon="1.722926">
        <ele>139.0</ele>
        <time>2022-03-31T07:42:40Z</time>
      </trkpt>
      <trkpt lat="47.5341" lon="1.7229261">
        <ele>139.0</ele>
        <time>2022-03-31T07:42:41Z</time>
      </trkpt>
      <trkpt lat="47.53409" lon="1.7229282">
        <ele>139.0</ele>
        <time>2022-03-31T07:42:42Z</time>
      </trkpt>
      <trkpt lat="47.534077" lon="1.7229296">
        <ele>139.0</ele>
        <time>2022-03-31T07:42:43Z</time>
      </trkpt>
      <trkpt lat="47.534065" lon="1.7229295">
        <ele>139.0</ele>
        <time>2022-03-31T07:42:44Z</time>
      </trkpt>
      <trkpt lat="47.534054" lon="1.7229261">
        <ele>139.0</ele>
        <time>2022-03-31T07:42:45Z</time>
      </trkpt>
      <trkpt lat="47.534042" lon="1.7229205">
        <ele>139.0</ele>
        <time>2022-03-31T07:42:46Z</time>
      </trkpt>
      <trkpt lat="47.53403" lon="1.7229173">
        <ele>138.0</ele>
        <time>2022-03-31T07:42:47Z</time>
      </trkpt>
      <trkpt lat="47.534023" lon="1.7229186">
        <ele>138.0</ele>
        <time>2022-03-31T07:42:48Z</time>
      </trkpt>
      <trkpt lat="47.53401" lon="1.7229239">
        <ele>138.0</ele>
        <time>2022-03-31T07:42:49Z</time>
      </trkpt>
      <trkpt lat="47.534" lon="1.7229257">
        <ele>138.0</ele>
        <time>2022-03-31T07:42:50Z</time>
      </trkpt>
      <trkpt lat="47.53399" lon="1.7229238">
        <ele>138.0</ele>
        <time>2022-03-31T07:42:51Z</time>
      </trkpt>
      <trkpt lat="47.533974" lon="1.7229233">
        <ele>139.0</ele>
        <time>2022-03-31T07:42:52Z</time>
      </trkpt>
      <trkpt lat="47.53396" lon="1.7229224">
        <ele>139.0</ele>
        <time>2022-03-31T07:42:53Z</time>
      </trkpt>
      <trkpt lat="47.533947" lon="1.7229187">
        <ele>139.0</ele>
        <time>2022-03-31T07:42:54Z</time>
      </trkpt>
      <trkpt lat="47.53394" lon="1.7229182">
        <ele>139.0</ele>
        <time>2022-03-31T07:42:55Z</time>
      </trkpt>
      <trkpt lat="47.533928" lon="1.72292">
        <ele>139.0</ele>
        <time>2022-03-31T07:42:56Z</time>
      </trkpt>
      <trkpt lat="47.533913" lon="1.7229208">
        <ele>139.0</ele>
        <time>2022-03-31T07:42:57Z</time>
      </trkpt>
      <trkpt lat="47.533897" lon="1.7229222">
        <ele>139.0</ele>
        <time>2022-03-31T07:42:58Z</time>
      </trkpt>
      <trkpt lat="47.533882" lon="1.7229236">
        <ele>139.0</ele>
        <time>2022-03-31T07:42:59Z</time>
      </trkpt>
      <trkpt lat="47.533867" lon="1.7229228">
        <ele>139.0</ele>
        <time>2022-03-31T07:43:00Z</time>
      </trkpt>
      <trkpt lat="47.533855" lon="1.7229251">
        <ele>140.0</ele>
        <time>2022-03-31T07:43:01Z</time>
      </trkpt>
      <trkpt lat="47.533844" lon="1.7229311">
        <ele>140.0</ele>
        <time>2022-03-31T07:43:02Z</time>
      </trkpt>
      <trkpt lat="47.533833" lon="1.7229371">
        <ele>140.0</ele>
        <time>2022-03-31T07:43:03Z</time>
      </trkpt>
      <trkpt lat="47.533817" lon="1.722941">
        <ele>140.0</ele>
        <time>2022-03-31T07:43:04Z</time>
      </trkpt>
      <trkpt lat="47.533806" lon="1.7229431">
        <ele>140.0</ele>
        <time>2022-03-31T07:43:05Z</time>
      </trkpt>
      <trkpt lat="47.533794" lon="1.7229464">
        <ele>140.0</ele>
        <time>2022-03-31T07:43:06Z</time>
      </trkpt>
      <trkpt lat="47.533787" lon="1.7229488">
        <ele>140.0</ele>
        <time>2022-03-31T07:43:07Z</time>
      </trkpt>
      <trkpt lat="47.533787" lon="1.7229483">
        <ele>140.0</ele>
        <time>2022-03-31T07:43:08Z</time>
      </trkpt>
      <trkpt lat="47.53378" lon="1.7229505">
        <ele>140.0</ele>
        <time>2022-03-31T07:43:09Z</time>
      </trkpt>
      <trkpt lat="47.53378" lon="1.7229505">
        <ele>140.0</ele>
        <time>2022-03-31T07:43:10Z</time>
      </trkpt>
      <trkpt lat="47.53378" lon="1.7229505">
        <ele>140.0</ele>
        <time>2022-03-31T07:43:11Z</time>
      </trkpt>
      <trkpt lat="47.533756" lon="1.7229581">
        <ele>141.0</ele>
        <time>2022-03-31T07:43:12Z</time>
      </trkpt>
      <trkpt lat="47.53375" lon="1.7229636">
        <ele>141.0</ele>
        <time>2022-03-31T07:43:13Z</time>
      </trkpt>
      <trkpt lat="47.533737" lon="1.7229679">
        <ele>140.0</ele>
        <time>2022-03-31T07:43:14Z</time>
      </trkpt>
      <trkpt lat="47.533726" lon="1.722969">
        <ele>140.0</ele>
        <time>2022-03-31T07:43:15Z</time>
      </trkpt>
      <trkpt lat="47.533726" lon="1.722969">
        <ele>140.0</ele>
        <time>2022-03-31T07:43:16Z</time>
      </trkpt>
      <trkpt lat="47.533726" lon="1.722969">
        <ele>140.0</ele>
        <time>2022-03-31T07:43:17Z</time>
      </trkpt>
      <trkpt lat="47.533703" lon="1.7229724">
        <ele>139.0</ele>
        <time>2022-03-31T07:43:18Z</time>
      </trkpt>
      <trkpt lat="47.53369" lon="1.722974">
        <ele>140.0</ele>
        <time>2022-03-31T07:43:19Z</time>
      </trkpt>
      <trkpt lat="47.533676" lon="1.7229764">
        <ele>140.0</ele>
        <time>2022-03-31T07:43:20Z</time>
      </trkpt>
      <trkpt lat="47.53366" lon="1.7229788">
        <ele>140.0</ele>
        <time>2022-03-31T07:43:21Z</time>
      </trkpt>
      <trkpt lat="47.53365" lon="1.7229793">
        <ele>140.0</ele>
        <time>2022-03-31T07:43:22Z</time>
      </trkpt>
      <trkpt lat="47.533638" lon="1.7229778">
        <ele>140.0</ele>
        <time>2022-03-31T07:43:23Z</time>
      </trkpt>
      <trkpt lat="47.533638" lon="1.7229778">
        <ele>140.0</ele>
        <time>2022-03-31T07:43:24Z</time>
      </trkpt>
      <trkpt lat="47.533638" lon="1.7229778">
        <ele>140.0</ele>
        <time>2022-03-31T07:43:25Z</time>
      </trkpt>
      <trkpt lat="47.53361" lon="1.7229859">
        <ele>140.0</ele>
        <time>2022-03-31T07:43:26Z</time>
      </trkpt>
      <trkpt lat="47.533607" lon="1.7229916">
        <ele>140.0</ele>
        <time>2022-03-31T07:43:27Z</time>
      </trkpt>
      <trkpt lat="47.5336" lon="1.7229949">
        <ele>140.0</ele>
        <time>2022-03-31T07:43:28Z</time>
      </trkpt>
      <trkpt lat="47.53359" lon="1.7229979">
        <ele>140.0</ele>
        <time>2022-03-31T07:43:29Z</time>
      </trkpt>
      <trkpt lat="47.53359" lon="1.7229979">
        <ele>140.0</ele>
        <time>2022-03-31T07:43:30Z</time>
      </trkpt>
      <trkpt lat="47.53359" lon="1.7229979">
        <ele>140.0</ele>
        <time>2022-03-31T07:43:31Z</time>
      </trkpt>
      <trkpt lat="47.53356" lon="1.7230008">
        <ele>139.0</ele>
        <time>2022-03-31T07:43:32Z</time>
      </trkpt>
      <trkpt lat="47.533554" lon="1.7230021">
        <ele>140.0</ele>
        <time>2022-03-31T07:43:33Z</time>
      </trkpt>
      <trkpt lat="47.533543" lon="1.7230055">
        <ele>140.0</ele>
        <time>2022-03-31T07:43:34Z</time>
      </trkpt>
      <trkpt lat="47.533527" lon="1.7230103">
        <ele>139.0</ele>
        <time>2022-03-31T07:43:35Z</time>
      </trkpt>
      <trkpt lat="47.533516" lon="1.7230142">
        <ele>140.0</ele>
        <time>2022-03-31T07:43:36Z</time>
      </trkpt>
      <trkpt lat="47.5335" lon="1.7230145">
        <ele>140.0</ele>
        <time>2022-03-31T07:43:37Z</time>
      </trkpt>
      <trkpt lat="47.53349" lon="1.7230116">
        <ele>139.0</ele>
        <time>2022-03-31T07:43:38Z</time>
      </trkpt>
      <trkpt lat="47.533474" lon="1.7230121">
        <ele>139.0</ele>
        <time>2022-03-31T07:43:39Z</time>
      </trkpt>
      <trkpt lat="47.53346" lon="1.7230153">
        <ele>139.0</ele>
        <time>2022-03-31T07:43:40Z</time>
      </trkpt>
      <trkpt lat="47.533443" lon="1.7230161">
        <ele>139.0</ele>
        <time>2022-03-31T07:43:41Z</time>
      </trkpt>
      <trkpt lat="47.53343" lon="1.7230121">
        <ele>139.0</ele>
        <time>2022-03-31T07:43:42Z</time>
      </trkpt>
      <trkpt lat="47.533413" lon="1.7230096">
        <ele>138.0</ele>
        <time>2022-03-31T07:43:43Z</time>
      </trkpt>
      <trkpt lat="47.5334" lon="1.7230062">
        <ele>138.0</ele>
        <time>2022-03-31T07:43:44Z</time>
      </trkpt>
      <trkpt lat="47.5334" lon="1.7230062">
        <ele>138.0</ele>
        <time>2022-03-31T07:43:45Z</time>
      </trkpt>
      <trkpt lat="47.5334" lon="1.7230062">
        <ele>138.0</ele>
        <time>2022-03-31T07:43:46Z</time>
      </trkpt>
      <trkpt lat="47.53337" lon="1.7230079">
        <ele>137.0</ele>
        <time>2022-03-31T07:43:47Z</time>
      </trkpt>
      <trkpt lat="47.53336" lon="1.7230049">
        <ele>137.0</ele>
        <time>2022-03-31T07:43:48Z</time>
      </trkpt>
      <trkpt lat="47.533344" lon="1.7229995">
        <ele>137.0</ele>
        <time>2022-03-31T07:43:49Z</time>
      </trkpt>
      <trkpt lat="47.533325" lon="1.7229955">
        <ele>137.0</ele>
        <time>2022-03-31T07:43:50Z</time>
      </trkpt>
      <trkpt lat="47.53331" lon="1.7229936">
        <ele>137.0</ele>
        <time>2022-03-31T07:43:51Z</time>
      </trkpt>
      <trkpt lat="47.53329" lon="1.7229922">
        <ele>137.0</ele>
        <time>2022-03-31T07:43:52Z</time>
      </trkpt>
      <trkpt lat="47.533276" lon="1.7229857">
        <ele>136.0</ele>
        <time>2022-03-31T07:43:53Z</time>
      </trkpt>
      <trkpt lat="47.533257" lon="1.7229815">
        <ele>136.0</ele>
        <time>2022-03-31T07:43:54Z</time>
      </trkpt>
      <trkpt lat="47.53324" lon="1.7229798">
        <ele>136.0</ele>
        <time>2022-03-31T07:43:55Z</time>
      </trkpt>
      <trkpt lat="47.533222" lon="1.7229767">
        <ele>136.0</ele>
        <time>2022-03-31T07:43:56Z</time>
      </trkpt>
      <trkpt lat="47.533207" lon="1.7229719">
        <ele>136.0</ele>
        <time>2022-03-31T07:43:57Z</time>
      </trkpt>
      <trkpt lat="47.533188" lon="1.7229686">
        <ele>136.0</ele>
        <time>2022-03-31T07:43:58Z</time>
      </trkpt>
      <trkpt lat="47.533173" lon="1.7229679">
        <ele>135.0</ele>
        <time>2022-03-31T07:43:59Z</time>
      </trkpt>
      <trkpt lat="47.533157" lon="1.7229704">
        <ele>135.0</ele>
        <time>2022-03-31T07:44:00Z</time>
      </trkpt>
      <trkpt lat="47.533142" lon="1.7229685">
        <ele>135.0</ele>
        <time>2022-03-31T07:44:01Z</time>
      </trkpt>
      <trkpt lat="47.533123" lon="1.722967">
        <ele>135.0</ele>
        <time>2022-03-31T07:44:02Z</time>
      </trkpt>
      <trkpt lat="47.533108" lon="1.722967">
        <ele>135.0</ele>
        <time>2022-03-31T07:44:03Z</time>
      </trkpt>
      <trkpt lat="47.533096" lon="1.7229652">
        <ele>135.0</ele>
        <time>2022-03-31T07:44:04Z</time>
      </trkpt>
      <trkpt lat="47.53309" lon="1.7229592">
        <ele>135.0</ele>
        <time>2022-03-31T07:44:05Z</time>
      </trkpt>
      <trkpt lat="47.53308" lon="1.7229532">
        <ele>135.0</ele>
        <time>2022-03-31T07:44:06Z</time>
      </trkpt>
      <trkpt lat="47.53307" lon="1.7229452">
        <ele>135.0</ele>
        <time>2022-03-31T07:44:07Z</time>
      </trkpt>
      <trkpt lat="47.533054" lon="1.7229447">
        <ele>135.0</ele>
        <time>2022-03-31T07:44:08Z</time>
      </trkpt>
      <trkpt lat="47.53304" lon="1.722941">
        <ele>135.0</ele>
        <time>2022-03-31T07:44:09Z</time>
      </trkpt>
      <trkpt lat="47.533024" lon="1.7229363">
        <ele>134.0</ele>
        <time>2022-03-31T07:44:10Z</time>
      </trkpt>
      <trkpt lat="47.53301" lon="1.7229302">
        <ele>134.0</ele>
        <time>2022-03-31T07:44:11Z</time>
      </trkpt>
      <trkpt lat="47.532993" lon="1.7229278">
        <ele>134.0</ele>
        <time>2022-03-31T07:44:12Z</time>
      </trkpt>
      <trkpt lat="47.532978" lon="1.722925">
        <ele>134.0</ele>
        <time>2022-03-31T07:44:13Z</time>
      </trkpt>
      <trkpt lat="47.532963" lon="1.7229201">
        <ele>134.0</ele>
        <time>2022-03-31T07:44:14Z</time>
      </trkpt>
      <trkpt lat="47.532948" lon="1.7229171">
        <ele>134.0</ele>
        <time>2022-03-31T07:44:15Z</time>
      </trkpt>
      <trkpt lat="47.53293" lon="1.7229109">
        <ele>134.0</ele>
        <time>2022-03-31T07:44:16Z</time>
      </trkpt>
      <trkpt lat="47.532917" lon="1.7229123">
        <ele>133.0</ele>
        <time>2022-03-31T07:44:17Z</time>
      </trkpt>
      <trkpt lat="47.5329" lon="1.7229162">
        <ele>133.0</ele>
        <time>2022-03-31T07:44:18Z</time>
      </trkpt>
      <trkpt lat="47.53289" lon="1.7229183">
        <ele>133.0</ele>
        <time>2022-03-31T07:44:19Z</time>
      </trkpt>
      <trkpt lat="47.53288" lon="1.722917">
        <ele>133.0</ele>
        <time>2022-03-31T07:44:20Z</time>
      </trkpt>
      <trkpt lat="47.53287" lon="1.722916">
        <ele>133.0</ele>
        <time>2022-03-31T07:44:21Z</time>
      </trkpt>
      <trkpt lat="47.53286" lon="1.7229137">
        <ele>133.0</ele>
        <time>2022-03-31T07:44:22Z</time>
      </trkpt>
      <trkpt lat="47.53286" lon="1.7229137">
        <ele>133.0</ele>
        <time>2022-03-31T07:44:23Z</time>
      </trkpt>
      <trkpt lat="47.53286" lon="1.7229137">
        <ele>133.0</ele>
        <time>2022-03-31T07:44:24Z</time>
      </trkpt>
      <trkpt lat="47.53284" lon="1.7229155">
        <ele>134.0</ele>
        <time>2022-03-31T07:44:25Z</time>
      </trkpt>
      <trkpt lat="47.53283" lon="1.7229121">
        <ele>134.0</ele>
        <time>2022-03-31T07:44:26Z</time>
      </trkpt>
      <trkpt lat="47.532818" lon="1.7229103">
        <ele>134.0</ele>
        <time>2022-03-31T07:44:27Z</time>
      </trkpt>
      <trkpt lat="47.532806" lon="1.7229065">
        <ele>134.0</ele>
        <time>2022-03-31T07:44:28Z</time>
      </trkpt>
      <trkpt lat="47.532806" lon="1.7229065">
        <ele>134.0</ele>
        <time>2022-03-31T07:44:29Z</time>
      </trkpt>
      <trkpt lat="47.532806" lon="1.7229065">
        <ele>134.0</ele>
        <time>2022-03-31T07:44:30Z</time>
      </trkpt>
      <trkpt lat="47.53278" lon="1.7228967">
        <ele>134.0</ele>
        <time>2022-03-31T07:44:31Z</time>
      </trkpt>
      <trkpt lat="47.53277" lon="1.7228903">
        <ele>134.0</ele>
        <time>2022-03-31T07:44:32Z</time>
      </trkpt>
      <trkpt lat="47.53276" lon="1.7228854">
        <ele>134.0</ele>
        <time>2022-03-31T07:44:33Z</time>
      </trkpt>
      <trkpt lat="47.53275" lon="1.7228773">
        <ele>134.0</ele>
        <time>2022-03-31T07:44:34Z</time>
      </trkpt>
      <trkpt lat="47.53275" lon="1.7228773">
        <ele>134.0</ele>
        <time>2022-03-31T07:44:35Z</time>
      </trkpt>
      <trkpt lat="47.53275" lon="1.7228773">
        <ele>134.0</ele>
        <time>2022-03-31T07:44:36Z</time>
      </trkpt>
      <trkpt lat="47.53272" lon="1.722863">
        <ele>134.0</ele>
        <time>2022-03-31T07:44:37Z</time>
      </trkpt>
      <trkpt lat="47.532703" lon="1.7228558">
        <ele>134.0</ele>
        <time>2022-03-31T07:44:38Z</time>
      </trkpt>
      <trkpt lat="47.53269" lon="1.7228521">
        <ele>135.0</ele>
        <time>2022-03-31T07:44:39Z</time>
      </trkpt>
      <trkpt lat="47.532673" lon="1.7228466">
        <ele>135.0</ele>
        <time>2022-03-31T07:44:40Z</time>
      </trkpt>
      <trkpt lat="47.532658" lon="1.7228409">
        <ele>134.0</ele>
        <time>2022-03-31T07:44:41Z</time>
      </trkpt>
      <trkpt lat="47.532646" lon="1.7228339">
        <ele>134.0</ele>
        <time>2022-03-31T07:44:42Z</time>
      </trkpt>
      <trkpt lat="47.532635" lon="1.7228286">
        <ele>134.0</ele>
        <time>2022-03-31T07:44:43Z</time>
      </trkpt>
      <trkpt lat="47.53262" lon="1.7228242">
        <ele>134.0</ele>
        <time>2022-03-31T07:44:44Z</time>
      </trkpt>
      <trkpt lat="47.532608" lon="1.7228227">
        <ele>134.0</ele>
        <time>2022-03-31T07:44:45Z</time>
      </trkpt>
      <trkpt lat="47.532593" lon="1.722814">
        <ele>134.0</ele>
        <time>2022-03-31T07:44:46Z</time>
      </trkpt>
      <trkpt lat="47.53258" lon="1.7228045">
        <ele>134.0</ele>
        <time>2022-03-31T07:44:47Z</time>
      </trkpt>
      <trkpt lat="47.532566" lon="1.7227985">
        <ele>134.0</ele>
        <time>2022-03-31T07:44:48Z</time>
      </trkpt>
      <trkpt lat="47.532555" lon="1.7227918">
        <ele>134.0</ele>
        <time>2022-03-31T07:44:49Z</time>
      </trkpt>
      <trkpt lat="47.532555" lon="1.7227917">
        <ele>134.0</ele>
        <time>2022-03-31T07:44:50Z</time>
      </trkpt>
      <trkpt lat="47.532547" lon="1.7227907">
        <ele>134.0</ele>
        <time>2022-03-31T07:44:51Z</time>
      </trkpt>
      <trkpt lat="47.532536" lon="1.7227898">
        <ele>134.0</ele>
        <time>2022-03-31T07:44:52Z</time>
      </trkpt>
      <trkpt lat="47.532536" lon="1.7227898">
        <ele>134.0</ele>
        <time>2022-03-31T07:44:53Z</time>
      </trkpt>
      <trkpt lat="47.532536" lon="1.7227898">
        <ele>134.0</ele>
        <time>2022-03-31T07:44:54Z</time>
      </trkpt>
      <trkpt lat="47.5325" lon="1.7227811">
        <ele>134.0</ele>
        <time>2022-03-31T07:44:55Z</time>
      </trkpt>
      <trkpt lat="47.532486" lon="1.7227757">
        <ele>134.0</ele>
        <time>2022-03-31T07:44:56Z</time>
      </trkpt>
      <trkpt lat="47.53247" lon="1.7227677">
        <ele>134.0</ele>
        <time>2022-03-31T07:44:57Z</time>
      </trkpt>
      <trkpt lat="47.532455" lon="1.722764">
        <ele>133.0</ele>
        <time>2022-03-31T07:44:58Z</time>
      </trkpt>
      <trkpt lat="47.53244" lon="1.7227592">
        <ele>133.0</ele>
        <time>2022-03-31T07:44:59Z</time>
      </trkpt>
      <trkpt lat="47.532425" lon="1.7227576">
        <ele>133.0</ele>
        <time>2022-03-31T07:45:00Z</time>
      </trkpt>
      <trkpt lat="47.53241" lon="1.7227539">
        <ele>133.0</ele>
        <time>2022-03-31T07:45:01Z</time>
      </trkpt>
      <trkpt lat="47.532394" lon="1.7227497">
        <ele>133.0</ele>
        <time>2022-03-31T07:45:02Z</time>
      </trkpt>
      <trkpt lat="47.532375" lon="1.7227489">
        <ele>133.0</ele>
        <time>2022-03-31T07:45:03Z</time>
      </trkpt>
      <trkpt lat="47.532364" lon="1.7227446">
        <ele>132.0</ele>
        <time>2022-03-31T07:45:04Z</time>
      </trkpt>
      <trkpt lat="47.532352" lon="1.7227404">
        <ele>133.0</ele>
        <time>2022-03-31T07:45:05Z</time>
      </trkpt>
      <trkpt lat="47.532337" lon="1.722737">
        <ele>133.0</ele>
        <time>2022-03-31T07:45:06Z</time>
      </trkpt>
      <trkpt lat="47.532326" lon="1.7227318">
        <ele>133.0</ele>
        <time>2022-03-31T07:45:07Z</time>
      </trkpt>
      <trkpt lat="47.532314" lon="1.7227277">
        <ele>133.0</ele>
        <time>2022-03-31T07:45:08Z</time>
      </trkpt>
      <trkpt lat="47.532307" lon="1.7227248">
        <ele>133.0</ele>
        <time>2022-03-31T07:45:09Z</time>
      </trkpt>
      <trkpt lat="47.532295" lon="1.7227187">
        <ele>133.0</ele>
        <time>2022-03-31T07:45:10Z</time>
      </trkpt>
      <trkpt lat="47.53228" lon="1.722713">
        <ele>133.0</ele>
        <time>2022-03-31T07:45:11Z</time>
      </trkpt>
      <trkpt lat="47.53227" lon="1.7227098">
        <ele>133.0</ele>
        <time>2022-03-31T07:45:12Z</time>
      </trkpt>
      <trkpt lat="47.532257" lon="1.7227082">
        <ele>133.0</ele>
        <time>2022-03-31T07:45:13Z</time>
      </trkpt>
      <trkpt lat="47.532246" lon="1.7227037">
        <ele>133.0</ele>
        <time>2022-03-31T07:45:14Z</time>
      </trkpt>
      <trkpt lat="47.532234" lon="1.7227031">
        <ele>133.0</ele>
        <time>2022-03-31T07:45:15Z</time>
      </trkpt>
      <trkpt lat="47.532223" lon="1.7227">
        <ele>133.0</ele>
        <time>2022-03-31T07:45:16Z</time>
      </trkpt>
      <trkpt lat="47.532207" lon="1.7226945">
        <ele>133.0</ele>
        <time>2022-03-31T07:45:17Z</time>
      </trkpt>
      <trkpt lat="47.532196" lon="1.7226895">
        <ele>133.0</ele>
        <time>2022-03-31T07:45:18Z</time>
      </trkpt>
      <trkpt lat="47.532185" lon="1.7226796">
        <ele>133.0</ele>
        <time>2022-03-31T07:45:19Z</time>
      </trkpt>
      <trkpt lat="47.53217" lon="1.7226707">
        <ele>133.0</ele>
        <time>2022-03-31T07:45:20Z</time>
      </trkpt>
      <trkpt lat="47.532154" lon="1.7226664">
        <ele>133.0</ele>
        <time>2022-03-31T07:45:21Z</time>
      </trkpt>
      <trkpt lat="47.53214" lon="1.7226627">
        <ele>134.0</ele>
        <time>2022-03-31T07:45:22Z</time>
      </trkpt>
      <trkpt lat="47.532124" lon="1.7226552">
        <ele>134.0</ele>
        <time>2022-03-31T07:45:23Z</time>
      </trkpt>
      <trkpt lat="47.53211" lon="1.7226425">
        <ele>133.0</ele>
        <time>2022-03-31T07:45:24Z</time>
      </trkpt>
      <trkpt lat="47.532093" lon="1.7226347">
        <ele>133.0</ele>
        <time>2022-03-31T07:45:25Z</time>
      </trkpt>
      <trkpt lat="47.532078" lon="1.722628">
        <ele>133.0</ele>
        <time>2022-03-31T07:45:26Z</time>
      </trkpt>
      <trkpt lat="47.532066" lon="1.72262">
        <ele>133.0</ele>
        <time>2022-03-31T07:45:27Z</time>
      </trkpt>
      <trkpt lat="47.53205" lon="1.7226111">
        <ele>133.0</ele>
        <time>2022-03-31T07:45:28Z</time>
      </trkpt>
      <trkpt lat="47.532036" lon="1.7226039">
        <ele>133.0</ele>
        <time>2022-03-31T07:45:29Z</time>
      </trkpt>
      <trkpt lat="47.53203" lon="1.7226012">
        <ele>133.0</ele>
        <time>2022-03-31T07:45:30Z</time>
      </trkpt>
      <trkpt lat="47.532017" lon="1.7225938">
        <ele>133.0</ele>
        <time>2022-03-31T07:45:31Z</time>
      </trkpt>
      <trkpt lat="47.532017" lon="1.7225938">
        <ele>133.0</ele>
        <time>2022-03-31T07:45:32Z</time>
      </trkpt>
      <trkpt lat="47.532017" lon="1.7225938">
        <ele>133.0</ele>
        <time>2022-03-31T07:45:33Z</time>
      </trkpt>
      <trkpt lat="47.531994" lon="1.722584">
        <ele>132.0</ele>
        <time>2022-03-31T07:45:34Z</time>
      </trkpt>
      <trkpt lat="47.531982" lon="1.7225783">
        <ele>132.0</ele>
        <time>2022-03-31T07:45:35Z</time>
      </trkpt>
      <trkpt lat="47.531975" lon="1.7225753">
        <ele>132.0</ele>
        <time>2022-03-31T07:45:36Z</time>
      </trkpt>
      <trkpt lat="47.531963" lon="1.7225714">
        <ele>132.0</ele>
        <time>2022-03-31T07:45:37Z</time>
      </trkpt>
      <trkpt lat="47.531963" lon="1.7225714">
        <ele>132.0</ele>
        <time>2022-03-31T07:45:38Z</time>
      </trkpt>
      <trkpt lat="47.531963" lon="1.7225714">
        <ele>132.0</ele>
        <time>2022-03-31T07:45:39Z</time>
      </trkpt>
      <trkpt lat="47.53194" lon="1.7225624">
        <ele>131.0</ele>
        <time>2022-03-31T07:45:40Z</time>
      </trkpt>
      <trkpt lat="47.53193" lon="1.7225592">
        <ele>131.0</ele>
        <time>2022-03-31T07:45:41Z</time>
      </trkpt>
      <trkpt lat="47.531918" lon="1.7225515">
        <ele>131.0</ele>
        <time>2022-03-31T07:45:42Z</time>
      </trkpt>
      <trkpt lat="47.531906" lon="1.7225443">
        <ele>131.0</ele>
        <time>2022-03-31T07:45:43Z</time>
      </trkpt>
      <trkpt lat="47.531895" lon="1.7225403">
        <ele>130.0</ele>
        <time>2022-03-31T07:45:44Z</time>
      </trkpt>
      <trkpt lat="47.53188" lon="1.7225362">
        <ele>130.0</ele>
        <time>2022-03-31T07:45:45Z</time>
      </trkpt>
      <trkpt lat="47.531864" lon="1.7225301">
        <ele>130.0</ele>
        <time>2022-03-31T07:45:46Z</time>
      </trkpt>
      <trkpt lat="47.53185" lon="1.722521">
        <ele>130.0</ele>
        <time>2022-03-31T07:45:47Z</time>
      </trkpt>
      <trkpt lat="47.531834" lon="1.7225106">
        <ele>130.0</ele>
        <time>2022-03-31T07:45:48Z</time>
      </trkpt>
      <trkpt lat="47.531822" lon="1.7225058">
        <ele>130.0</ele>
        <time>2022-03-31T07:45:49Z</time>
      </trkpt>
      <trkpt lat="47.53181" lon="1.7225021">
        <ele>131.0</ele>
        <time>2022-03-31T07:45:50Z</time>
      </trkpt>
      <trkpt lat="47.5318" lon="1.7224975">
        <ele>130.0</ele>
        <time>2022-03-31T07:45:51Z</time>
      </trkpt>
      <trkpt lat="47.531788" lon="1.7224941">
        <ele>130.0</ele>
        <time>2022-03-31T07:45:52Z</time>
      </trkpt>
      <trkpt lat="47.531776" lon="1.7224922">
        <ele>130.0</ele>
        <time>2022-03-31T07:45:53Z</time>
      </trkpt>
      <trkpt lat="47.53176" lon="1.722491">
        <ele>130.0</ele>
        <time>2022-03-31T07:45:54Z</time>
      </trkpt>
      <trkpt lat="47.53175" lon="1.7224898">
        <ele>130.0</ele>
        <time>2022-03-31T07:45:55Z</time>
      </trkpt>
      <trkpt lat="47.53175" lon="1.7224898">
        <ele>130.0</ele>
        <time>2022-03-31T07:45:56Z</time>
      </trkpt>
      <trkpt lat="47.53175" lon="1.7224898">
        <ele>130.0</ele>
        <time>2022-03-31T07:45:57Z</time>
      </trkpt>
      <trkpt lat="47.531715" lon="1.7224753">
        <ele>130.0</ele>
        <time>2022-03-31T07:45:58Z</time>
      </trkpt>
      <trkpt lat="47.5317" lon="1.7224689">
        <ele>129.0</ele>
        <time>2022-03-31T07:45:59Z</time>
      </trkpt>
      <trkpt lat="47.53169" lon="1.7224652">
        <ele>129.0</ele>
        <time>2022-03-31T07:46:00Z</time>
      </trkpt>
      <trkpt lat="47.531673" lon="1.7224623">
        <ele>129.0</ele>
        <time>2022-03-31T07:46:01Z</time>
      </trkpt>
      <trkpt lat="47.531662" lon="1.7224555">
        <ele>129.0</ele>
        <time>2022-03-31T07:46:02Z</time>
      </trkpt>
      <trkpt lat="47.531647" lon="1.7224503">
        <ele>129.0</ele>
        <time>2022-03-31T07:46:03Z</time>
      </trkpt>
      <trkpt lat="47.53163" lon="1.7224436">
        <ele>129.0</ele>
        <time>2022-03-31T07:46:04Z</time>
      </trkpt>
      <trkpt lat="47.53162" lon="1.7224401">
        <ele>128.0</ele>
        <time>2022-03-31T07:46:05Z</time>
      </trkpt>
      <trkpt lat="47.53161" lon="1.7224349">
        <ele>128.0</ele>
        <time>2022-03-31T07:46:06Z</time>
      </trkpt>
      <trkpt lat="47.531597" lon="1.7224296">
        <ele>128.0</ele>
        <time>2022-03-31T07:46:07Z</time>
      </trkpt>
      <trkpt lat="47.53158" lon="1.7224237">
        <ele>128.0</ele>
        <time>2022-03-31T07:46:08Z</time>
      </trkpt>
      <trkpt lat="47.531567" lon="1.7224185">
        <ele>128.0</ele>
        <time>2022-03-31T07:46:09Z</time>
      </trkpt>
      <trkpt lat="47.531555" lon="1.7224138">
        <ele>128.0</ele>
        <time>2022-03-31T07:46:10Z</time>
      </trkpt>
      <trkpt lat="47.531544" lon="1.7224113">
        <ele>128.0</ele>
        <time>2022-03-31T07:46:11Z</time>
      </trkpt>
      <trkpt lat="47.53153" lon="1.722406">
        <ele>128.0</ele>
        <time>2022-03-31T07:46:12Z</time>
      </trkpt>
      <trkpt lat="47.531517" lon="1.7224009">
        <ele>128.0</ele>
        <time>2022-03-31T07:46:13Z</time>
      </trkpt>
      <trkpt lat="47.531506" lon="1.7223936">
        <ele>128.0</ele>
        <time>2022-03-31T07:46:14Z</time>
      </trkpt>
      <trkpt lat="47.531498" lon="1.7223846">
        <ele>128.0</ele>
        <time>2022-03-31T07:46:15Z</time>
      </trkpt>
      <trkpt lat="47.53149" lon="1.7223771">
        <ele>129.0</ele>
        <time>2022-03-31T07:46:16Z</time>
      </trkpt>
      <trkpt lat="47.531483" lon="1.7223692">
        <ele>129.0</ele>
        <time>2022-03-31T07:46:17Z</time>
      </trkpt>
      <trkpt lat="47.53147" lon="1.7223634">
        <ele>129.0</ele>
        <time>2022-03-31T07:46:18Z</time>
      </trkpt>
      <trkpt lat="47.53146" lon="1.7223535">
        <ele>128.0</ele>
        <time>2022-03-31T07:46:19Z</time>
      </trkpt>
      <trkpt lat="47.53145" lon="1.7223448">
        <ele>128.0</ele>
        <time>2022-03-31T07:46:20Z</time>
      </trkpt>
      <trkpt lat="47.531433" lon="1.7223397">
        <ele>128.0</ele>
        <time>2022-03-31T07:46:21Z</time>
      </trkpt>
      <trkpt lat="47.53142" lon="1.7223321">
        <ele>128.0</ele>
        <time>2022-03-31T07:46:22Z</time>
      </trkpt>
      <trkpt lat="47.531406" lon="1.7223241">
        <ele>128.0</ele>
        <time>2022-03-31T07:46:23Z</time>
      </trkpt>
      <trkpt lat="47.531387" lon="1.7223189">
        <ele>129.0</ele>
        <time>2022-03-31T07:46:24Z</time>
      </trkpt>
      <trkpt lat="47.531376" lon="1.7223133">
        <ele>129.0</ele>
        <time>2022-03-31T07:46:25Z</time>
      </trkpt>
      <trkpt lat="47.531364" lon="1.7223086">
        <ele>129.0</ele>
        <time>2022-03-31T07:46:26Z</time>
      </trkpt>
      <trkpt lat="47.531353" lon="1.7223018">
        <ele>129.0</ele>
        <time>2022-03-31T07:46:27Z</time>
      </trkpt>
      <trkpt lat="47.53134" lon="1.7222977">
        <ele>129.0</ele>
        <time>2022-03-31T07:46:28Z</time>
      </trkpt>
      <trkpt lat="47.531326" lon="1.722293">
        <ele>129.0</ele>
        <time>2022-03-31T07:46:29Z</time>
      </trkpt>
      <trkpt lat="47.531307" lon="1.7222918">
        <ele>129.0</ele>
        <time>2022-03-31T07:46:30Z</time>
      </trkpt>
      <trkpt lat="47.531292" lon="1.7222903">
        <ele>130.0</ele>
        <time>2022-03-31T07:46:31Z</time>
      </trkpt>
      <trkpt lat="47.531277" lon="1.7222852">
        <ele>130.0</ele>
        <time>2022-03-31T07:46:32Z</time>
      </trkpt>
      <trkpt lat="47.531265" lon="1.7222799">
        <ele>130.0</ele>
        <time>2022-03-31T07:46:33Z</time>
      </trkpt>
      <trkpt lat="47.53125" lon="1.7222757">
        <ele>130.0</ele>
        <time>2022-03-31T07:46:34Z</time>
      </trkpt>
      <trkpt lat="47.531235" lon="1.722271">
        <ele>130.0</ele>
        <time>2022-03-31T07:46:35Z</time>
      </trkpt>
      <trkpt lat="47.531223" lon="1.7222626">
        <ele>130.0</ele>
        <time>2022-03-31T07:46:36Z</time>
      </trkpt>
      <trkpt lat="47.531208" lon="1.7222548">
        <ele>131.0</ele>
        <time>2022-03-31T07:46:37Z</time>
      </trkpt>
      <trkpt lat="47.531193" lon="1.7222496">
        <ele>131.0</ele>
        <time>2022-03-31T07:46:38Z</time>
      </trkpt>
      <trkpt lat="47.531178" lon="1.7222433">
        <ele>130.0</ele>
        <time>2022-03-31T07:46:39Z</time>
      </trkpt>
      <trkpt lat="47.531166" lon="1.7222385">
        <ele>131.0</ele>
        <time>2022-03-31T07:46:40Z</time>
      </trkpt>
      <trkpt lat="47.53115" lon="1.7222359">
        <ele>131.0</ele>
        <time>2022-03-31T07:46:41Z</time>
      </trkpt>
      <trkpt lat="47.53114" lon="1.7222313">
        <ele>131.0</ele>
        <time>2022-03-31T07:46:42Z</time>
      </trkpt>
      <trkpt lat="47.53112" lon="1.7222308">
        <ele>132.0</ele>
        <time>2022-03-31T07:46:43Z</time>
      </trkpt>
      <trkpt lat="47.53111" lon="1.7222263">
        <ele>132.0</ele>
        <time>2022-03-31T07:46:44Z</time>
      </trkpt>
      <trkpt lat="47.531094" lon="1.7222184">
        <ele>132.0</ele>
        <time>2022-03-31T07:46:45Z</time>
      </trkpt>
      <trkpt lat="47.531082" lon="1.7222102">
        <ele>132.0</ele>
        <time>2022-03-31T07:46:46Z</time>
      </trkpt>
      <trkpt lat="47.531067" lon="1.7222044">
        <ele>132.0</ele>
        <time>2022-03-31T07:46:47Z</time>
      </trkpt>
      <trkpt lat="47.53105" lon="1.7221982">
        <ele>132.0</ele>
        <time>2022-03-31T07:46:48Z</time>
      </trkpt>
      <trkpt lat="47.53104" lon="1.7221928">
        <ele>132.0</ele>
        <time>2022-03-31T07:46:49Z</time>
      </trkpt>
      <trkpt lat="47.53103" lon="1.7221906">
        <ele>132.0</ele>
        <time>2022-03-31T07:46:50Z</time>
      </trkpt>
      <trkpt lat="47.531013" lon="1.7221842">
        <ele>132.0</ele>
        <time>2022-03-31T07:46:51Z</time>
      </trkpt>
      <trkpt lat="47.531002" lon="1.722176">
        <ele>132.0</ele>
        <time>2022-03-31T07:46:52Z</time>
      </trkpt>
      <trkpt lat="47.530987" lon="1.7221678">
        <ele>132.0</ele>
        <time>2022-03-31T07:46:53Z</time>
      </trkpt>
      <trkpt lat="47.530975" lon="1.7221596">
        <ele>132.0</ele>
        <time>2022-03-31T07:46:54Z</time>
      </trkpt>
      <trkpt lat="47.530964" lon="1.7221543">
        <ele>132.0</ele>
        <time>2022-03-31T07:46:55Z</time>
      </trkpt>
      <trkpt lat="47.530945" lon="1.722151">
        <ele>132.0</ele>
        <time>2022-03-31T07:46:56Z</time>
      </trkpt>
      <trkpt lat="47.530933" lon="1.7221445">
        <ele>132.0</ele>
        <time>2022-03-31T07:46:57Z</time>
      </trkpt>
      <trkpt lat="47.530922" lon="1.7221378">
        <ele>132.0</ele>
        <time>2022-03-31T07:46:58Z</time>
      </trkpt>
      <trkpt lat="47.53091" lon="1.7221287">
        <ele>132.0</ele>
        <time>2022-03-31T07:46:59Z</time>
      </trkpt>
      <trkpt lat="47.5309" lon="1.722123">
        <ele>132.0</ele>
        <time>2022-03-31T07:47:00Z</time>
      </trkpt>
      <trkpt lat="47.530888" lon="1.7221181">
        <ele>132.0</ele>
        <time>2022-03-31T07:47:01Z</time>
      </trkpt>
      <trkpt lat="47.530876" lon="1.7221103">
        <ele>132.0</ele>
        <time>2022-03-31T07:47:02Z</time>
      </trkpt>
      <trkpt lat="47.530876" lon="1.7221103">
        <ele>132.0</ele>
        <time>2022-03-31T07:47:03Z</time>
      </trkpt>
      <trkpt lat="47.530853" lon="1.7220994">
        <ele>132.0</ele>
        <time>2022-03-31T07:47:04Z</time>
      </trkpt>
      <trkpt lat="47.530838" lon="1.7220932">
        <ele>132.0</ele>
        <time>2022-03-31T07:47:05Z</time>
      </trkpt>
      <trkpt lat="47.530827" lon="1.7220881">
        <ele>132.0</ele>
        <time>2022-03-31T07:47:06Z</time>
      </trkpt>
      <trkpt lat="47.53081" lon="1.7220831">
        <ele>132.0</ele>
        <time>2022-03-31T07:47:07Z</time>
      </trkpt>
      <trkpt lat="47.530804" lon="1.7220759">
        <ele>132.0</ele>
        <time>2022-03-31T07:47:08Z</time>
      </trkpt>
      <trkpt lat="47.530792" lon="1.722067">
        <ele>132.0</ele>
        <time>2022-03-31T07:47:09Z</time>
      </trkpt>
      <trkpt lat="47.53078" lon="1.7220614">
        <ele>132.0</ele>
        <time>2022-03-31T07:47:10Z</time>
      </trkpt>
      <trkpt lat="47.530773" lon="1.7220571">
        <ele>131.0</ele>
        <time>2022-03-31T07:47:11Z</time>
      </trkpt>
      <trkpt lat="47.53076" lon="1.7220516">
        <ele>131.0</ele>
        <time>2022-03-31T07:47:12Z</time>
      </trkpt>
      <trkpt lat="47.530754" lon="1.7220448">
        <ele>131.0</ele>
        <time>2022-03-31T07:47:13Z</time>
      </trkpt>
      <trkpt lat="47.530743" lon="1.7220416">
        <ele>131.0</ele>
        <time>2022-03-31T07:47:14Z</time>
      </trkpt>
      <trkpt lat="47.530735" lon="1.7220359">
        <ele>131.0</ele>
        <time>2022-03-31T07:47:15Z</time>
      </trkpt>
      <trkpt lat="47.530735" lon="1.7220359">
        <ele>131.0</ele>
        <time>2022-03-31T07:47:16Z</time>
      </trkpt>
      <trkpt lat="47.530735" lon="1.7220359">
        <ele>131.0</ele>
        <time>2022-03-31T07:47:17Z</time>
      </trkpt>
      <trkpt lat="47.530712" lon="1.722022">
        <ele>130.0</ele>
        <time>2022-03-31T07:47:18Z</time>
      </trkpt>
      <trkpt lat="47.53071" lon="1.7220194">
        <ele>131.0</ele>
        <time>2022-03-31T07:47:19Z</time>
      </trkpt>
      <trkpt lat="47.5307" lon="1.7220179">
        <ele>131.0</ele>
        <time>2022-03-31T07:47:20Z</time>
      </trkpt>
      <trkpt lat="47.53069" lon="1.7220103">
        <ele>131.0</ele>
        <time>2022-03-31T07:47:21Z</time>
      </trkpt>
      <trkpt lat="47.530678" lon="1.7220048">
        <ele>131.0</ele>
        <time>2022-03-31T07:47:22Z</time>
      </trkpt>
      <trkpt lat="47.53067" lon="1.7219988">
        <ele>131.0</ele>
        <time>2022-03-31T07:47:23Z</time>
      </trkpt>
      <trkpt lat="47.530663" lon="1.7219925">
        <ele>130.0</ele>
        <time>2022-03-31T07:47:24Z</time>
      </trkpt>
      <trkpt lat="47.530655" lon="1.7219795">
        <ele>130.0</ele>
        <time>2022-03-31T07:47:25Z</time>
      </trkpt>
      <trkpt lat="47.53064" lon="1.7219685">
        <ele>130.0</ele>
        <time>2022-03-31T07:47:26Z</time>
      </trkpt>
      <trkpt lat="47.53063" lon="1.7219611">
        <ele>130.0</ele>
        <time>2022-03-31T07:47:27Z</time>
      </trkpt>
      <trkpt lat="47.530617" lon="1.7219572">
        <ele>130.0</ele>
        <time>2022-03-31T07:47:28Z</time>
      </trkpt>
      <trkpt lat="47.5306" lon="1.7219511">
        <ele>130.0</ele>
        <time>2022-03-31T07:47:29Z</time>
      </trkpt>
      <trkpt lat="47.530582" lon="1.7219429">
        <ele>129.0</ele>
        <time>2022-03-31T07:47:30Z</time>
      </trkpt>
      <trkpt lat="47.53057" lon="1.7219325">
        <ele>129.0</ele>
        <time>2022-03-31T07:47:31Z</time>
      </trkpt>
      <trkpt lat="47.53056" lon="1.7219226">
        <ele>128.0</ele>
        <time>2022-03-31T07:47:32Z</time>
      </trkpt>
      <trkpt lat="47.53055" lon="1.7219104">
        <ele>128.0</ele>
        <time>2022-03-31T07:47:33Z</time>
      </trkpt>
      <trkpt lat="47.530537" lon="1.7218978">
        <ele>128.0</ele>
        <time>2022-03-31T07:47:34Z</time>
      </trkpt>
      <trkpt lat="47.530525" lon="1.7218891">
        <ele>128.0</ele>
        <time>2022-03-31T07:47:35Z</time>
      </trkpt>
      <trkpt lat="47.530514" lon="1.7218739">
        <ele>128.0</ele>
        <time>2022-03-31T07:47:36Z</time>
      </trkpt>
      <trkpt lat="47.530502" lon="1.72186">
        <ele>128.0</ele>
        <time>2022-03-31T07:47:37Z</time>
      </trkpt>
      <trkpt lat="47.530487" lon="1.7218512">
        <ele>128.0</ele>
        <time>2022-03-31T07:47:38Z</time>
      </trkpt>
      <trkpt lat="47.530476" lon="1.7218442">
        <ele>128.0</ele>
        <time>2022-03-31T07:47:39Z</time>
      </trkpt>
      <trkpt lat="47.530468" lon="1.7218332">
        <ele>128.0</ele>
        <time>2022-03-31T07:47:40Z</time>
      </trkpt>
      <trkpt lat="47.530457" lon="1.7218232">
        <ele>128.0</ele>
        <time>2022-03-31T07:47:41Z</time>
      </trkpt>
      <trkpt lat="47.53045" lon="1.721815">
        <ele>128.0</ele>
        <time>2022-03-31T07:47:42Z</time>
      </trkpt>
      <trkpt lat="47.530437" lon="1.7218106">
        <ele>128.0</ele>
        <time>2022-03-31T07:47:43Z</time>
      </trkpt>
      <trkpt lat="47.530426" lon="1.7218007">
        <ele>128.0</ele>
        <time>2022-03-31T07:47:44Z</time>
      </trkpt>
      <trkpt lat="47.530415" lon="1.721791">
        <ele>128.0</ele>
        <time>2022-03-31T07:47:45Z</time>
      </trkpt>
      <trkpt lat="47.530403" lon="1.7217785">
        <ele>128.0</ele>
        <time>2022-03-31T07:47:46Z</time>
      </trkpt>
      <trkpt lat="47.53039" lon="1.7217659">
        <ele>128.0</ele>
        <time>2022-03-31T07:47:47Z</time>
      </trkpt>
      <trkpt lat="47.530376" lon="1.7217548">
        <ele>128.0</ele>
        <time>2022-03-31T07:47:48Z</time>
      </trkpt>
      <trkpt lat="47.530365" lon="1.7217427">
        <ele>128.0</ele>
        <time>2022-03-31T07:47:49Z</time>
      </trkpt>
      <trkpt lat="47.53035" lon="1.7217278">
        <ele>129.0</ele>
        <time>2022-03-31T07:47:50Z</time>
      </trkpt>
      <trkpt lat="47.53034" lon="1.7217157">
        <ele>128.0</ele>
        <time>2022-03-31T07:47:51Z</time>
      </trkpt>
      <trkpt lat="47.530327" lon="1.7217047">
        <ele>128.0</ele>
        <time>2022-03-31T07:47:52Z</time>
      </trkpt>
      <trkpt lat="47.530315" lon="1.7216948">
        <ele>128.0</ele>
        <time>2022-03-31T07:47:53Z</time>
      </trkpt>
      <trkpt lat="47.530304" lon="1.7216815">
        <ele>128.0</ele>
        <time>2022-03-31T07:47:54Z</time>
      </trkpt>
      <trkpt lat="47.530293" lon="1.7216699">
        <ele>128.0</ele>
        <time>2022-03-31T07:47:55Z</time>
      </trkpt>
      <trkpt lat="47.53028" lon="1.7216616">
        <ele>127.0</ele>
        <time>2022-03-31T07:47:56Z</time>
      </trkpt>
      <trkpt lat="47.530273" lon="1.721653">
        <ele>128.0</ele>
        <time>2022-03-31T07:47:57Z</time>
      </trkpt>
      <trkpt lat="47.53026" lon="1.721644">
        <ele>127.0</ele>
        <time>2022-03-31T07:47:58Z</time>
      </trkpt>
      <trkpt lat="47.530247" lon="1.7216355">
        <ele>127.0</ele>
        <time>2022-03-31T07:47:59Z</time>
      </trkpt>
      <trkpt lat="47.530235" lon="1.721624">
        <ele>128.0</ele>
        <time>2022-03-31T07:48:00Z</time>
      </trkpt>
      <trkpt lat="47.530224" lon="1.7216146">
        <ele>128.0</ele>
        <time>2022-03-31T07:48:01Z</time>
      </trkpt>
      <trkpt lat="47.530212" lon="1.7216067">
        <ele>127.0</ele>
        <time>2022-03-31T07:48:02Z</time>
      </trkpt>
      <trkpt lat="47.530197" lon="1.7215974">
        <ele>127.0</ele>
        <time>2022-03-31T07:48:03Z</time>
      </trkpt>
      <trkpt lat="47.53018" lon="1.7215847">
        <ele>127.0</ele>
        <time>2022-03-31T07:48:04Z</time>
      </trkpt>
      <trkpt lat="47.530167" lon="1.7215697">
        <ele>127.0</ele>
        <time>2022-03-31T07:48:05Z</time>
      </trkpt>
      <trkpt lat="47.530155" lon="1.7215557">
        <ele>127.0</ele>
        <time>2022-03-31T07:48:06Z</time>
      </trkpt>
      <trkpt lat="47.53014" lon="1.7215443">
        <ele>127.0</ele>
        <time>2022-03-31T07:48:07Z</time>
      </trkpt>
      <trkpt lat="47.530125" lon="1.7215376">
        <ele>128.0</ele>
        <time>2022-03-31T07:48:08Z</time>
      </trkpt>
      <trkpt lat="47.53011" lon="1.7215284">
        <ele>128.0</ele>
        <time>2022-03-31T07:48:09Z</time>
      </trkpt>
      <trkpt lat="47.530094" lon="1.7215195">
        <ele>128.0</ele>
        <time>2022-03-31T07:48:10Z</time>
      </trkpt>
      <trkpt lat="47.530083" lon="1.721512">
        <ele>128.0</ele>
        <time>2022-03-31T07:48:11Z</time>
      </trkpt>
      <trkpt lat="47.530075" lon="1.7215092">
        <ele>128.0</ele>
        <time>2022-03-31T07:48:12Z</time>
      </trkpt>
      <trkpt lat="47.530067" lon="1.7215066">
        <ele>128.0</ele>
        <time>2022-03-31T07:48:13Z</time>
      </trkpt>
      <trkpt lat="47.530056" lon="1.7215066">
        <ele>128.0</ele>
        <time>2022-03-31T07:48:14Z</time>
      </trkpt>
      <trkpt lat="47.530045" lon="1.7215059">
        <ele>128.0</ele>
        <time>2022-03-31T07:48:15Z</time>
      </trkpt>
      <trkpt lat="47.530033" lon="1.7215096">
        <ele>128.0</ele>
        <time>2022-03-31T07:48:16Z</time>
      </trkpt>
      <trkpt lat="47.53002" lon="1.7215141">
        <ele>128.0</ele>
        <time>2022-03-31T07:48:17Z</time>
      </trkpt>
      <trkpt lat="47.530018" lon="1.721519">
        <ele>128.0</ele>
        <time>2022-03-31T07:48:18Z</time>
      </trkpt>
      <trkpt lat="47.53001" lon="1.7215228">
        <ele>127.0</ele>
        <time>2022-03-31T07:48:19Z</time>
      </trkpt>
      <trkpt lat="47.530006" lon="1.7215271">
        <ele>128.0</ele>
        <time>2022-03-31T07:48:20Z</time>
      </trkpt>
      <trkpt lat="47.53" lon="1.7215285">
        <ele>128.0</ele>
        <time>2022-03-31T07:48:21Z</time>
      </trkpt>
      <trkpt lat="47.53" lon="1.7215285">
        <ele>128.0</ele>
        <time>2022-03-31T07:48:22Z</time>
      </trkpt>
      <trkpt lat="47.529984" lon="1.7215395">
        <ele>128.0</ele>
        <time>2022-03-31T07:48:23Z</time>
      </trkpt>
      <trkpt lat="47.52998" lon="1.7215503">
        <ele>128.0</ele>
        <time>2022-03-31T07:48:24Z</time>
      </trkpt>
      <trkpt lat="47.529976" lon="1.7215599">
        <ele>128.0</ele>
        <time>2022-03-31T07:48:25Z</time>
      </trkpt>
      <trkpt lat="47.52997" lon="1.7215674">
        <ele>128.0</ele>
        <time>2022-03-31T07:48:26Z</time>
      </trkpt>
      <trkpt lat="47.529964" lon="1.7215773">
        <ele>128.0</ele>
        <time>2022-03-31T07:48:27Z</time>
      </trkpt>
      <trkpt lat="47.52996" lon="1.7215875">
        <ele>128.0</ele>
        <time>2022-03-31T07:48:28Z</time>
      </trkpt>
      <trkpt lat="47.529953" lon="1.7215979">
        <ele>129.0</ele>
        <time>2022-03-31T07:48:29Z</time>
      </trkpt>
      <trkpt lat="47.52995" lon="1.7216113">
        <ele>129.0</ele>
        <time>2022-03-31T07:48:30Z</time>
      </trkpt>
      <trkpt lat="47.529945" lon="1.7216243">
        <ele>129.0</ele>
        <time>2022-03-31T07:48:31Z</time>
      </trkpt>
      <trkpt lat="47.529938" lon="1.7216393">
        <ele>128.0</ele>
        <time>2022-03-31T07:48:32Z</time>
      </trkpt>
      <trkpt lat="47.529934" lon="1.7216533">
        <ele>128.0</ele>
        <time>2022-03-31T07:48:33Z</time>
      </trkpt>
      <trkpt lat="47.52993" lon="1.7216669">
        <ele>128.0</ele>
        <time>2022-03-31T07:48:34Z</time>
      </trkpt>
      <trkpt lat="47.529922" lon="1.7216818">
        <ele>128.0</ele>
        <time>2022-03-31T07:48:35Z</time>
      </trkpt>
      <trkpt lat="47.529915" lon="1.7216974">
        <ele>128.0</ele>
        <time>2022-03-31T07:48:36Z</time>
      </trkpt>
      <trkpt lat="47.52991" lon="1.7217134">
        <ele>129.0</ele>
        <time>2022-03-31T07:48:37Z</time>
      </trkpt>
      <trkpt lat="47.529907" lon="1.7217323">
        <ele>129.0</ele>
        <time>2022-03-31T07:48:38Z</time>
      </trkpt>
      <trkpt lat="47.529903" lon="1.7217553">
        <ele>128.0</ele>
        <time>2022-03-31T07:48:39Z</time>
      </trkpt>
      <trkpt lat="47.529896" lon="1.7217776">
        <ele>128.0</ele>
        <time>2022-03-31T07:48:40Z</time>
      </trkpt>
      <trkpt lat="47.5299" lon="1.7218002">
        <ele>128.0</ele>
        <time>2022-03-31T07:48:41Z</time>
      </trkpt>
      <trkpt lat="47.529896" lon="1.7218128">
        <ele>128.0</ele>
        <time>2022-03-31T07:48:42Z</time>
      </trkpt>
      <trkpt lat="47.529892" lon="1.7218281">
        <ele>128.0</ele>
        <time>2022-03-31T07:48:43Z</time>
      </trkpt>
      <trkpt lat="47.529884" lon="1.721845">
        <ele>128.0</ele>
        <time>2022-03-31T07:48:44Z</time>
      </trkpt>
      <trkpt lat="47.52988" lon="1.7218589">
        <ele>128.0</ele>
        <time>2022-03-31T07:48:45Z</time>
      </trkpt>
      <trkpt lat="47.52988" lon="1.721873">
        <ele>128.0</ele>
        <time>2022-03-31T07:48:46Z</time>
      </trkpt>
      <trkpt lat="47.52988" lon="1.721892">
        <ele>127.0</ele>
        <time>2022-03-31T07:48:47Z</time>
      </trkpt>
      <trkpt lat="47.52988" lon="1.7219089">
        <ele>127.0</ele>
        <time>2022-03-31T07:48:48Z</time>
      </trkpt>
      <trkpt lat="47.529873" lon="1.7219278">
        <ele>127.0</ele>
        <time>2022-03-31T07:48:49Z</time>
      </trkpt>
      <trkpt lat="47.52987" lon="1.7219441">
        <ele>127.0</ele>
        <time>2022-03-31T07:48:50Z</time>
      </trkpt>
      <trkpt lat="47.52986" lon="1.7219591">
        <ele>127.0</ele>
        <time>2022-03-31T07:48:51Z</time>
      </trkpt>
      <trkpt lat="47.529858" lon="1.7219741">
        <ele>126.0</ele>
        <time>2022-03-31T07:48:52Z</time>
      </trkpt>
      <trkpt lat="47.52985" lon="1.7219927">
        <ele>126.0</ele>
        <time>2022-03-31T07:48:53Z</time>
      </trkpt>
      <trkpt lat="47.52985" lon="1.7220106">
        <ele>125.0</ele>
        <time>2022-03-31T07:48:54Z</time>
      </trkpt>
      <trkpt lat="47.529846" lon="1.7220259">
        <ele>125.0</ele>
        <time>2022-03-31T07:48:55Z</time>
      </trkpt>
      <trkpt lat="47.52984" lon="1.7220424">
        <ele>126.0</ele>
        <time>2022-03-31T07:48:56Z</time>
      </trkpt>
      <trkpt lat="47.529835" lon="1.7220546">
        <ele>126.0</ele>
        <time>2022-03-31T07:48:57Z</time>
      </trkpt>
      <trkpt lat="47.52983" lon="1.7220621">
        <ele>126.0</ele>
        <time>2022-03-31T07:48:58Z</time>
      </trkpt>
      <trkpt lat="47.529827" lon="1.722075">
        <ele>126.0</ele>
        <time>2022-03-31T07:48:59Z</time>
      </trkpt>
      <trkpt lat="47.529823" lon="1.7220881">
        <ele>126.0</ele>
        <time>2022-03-31T07:49:00Z</time>
      </trkpt>
      <trkpt lat="47.52982" lon="1.7221006">
        <ele>126.0</ele>
        <time>2022-03-31T07:49:01Z</time>
      </trkpt>
      <trkpt lat="47.529816" lon="1.7221141">
        <ele>126.0</ele>
        <time>2022-03-31T07:49:02Z</time>
      </trkpt>
      <trkpt lat="47.52981" lon="1.722126">
        <ele>125.0</ele>
        <time>2022-03-31T07:49:03Z</time>
      </trkpt>
      <trkpt lat="47.529808" lon="1.7221373">
        <ele>125.0</ele>
        <time>2022-03-31T07:49:04Z</time>
      </trkpt>
      <trkpt lat="47.529804" lon="1.7221494">
        <ele>125.0</ele>
        <time>2022-03-31T07:49:05Z</time>
      </trkpt>
      <trkpt lat="47.529804" lon="1.7221656">
        <ele>125.0</ele>
        <time>2022-03-31T07:49:06Z</time>
      </trkpt>
      <trkpt lat="47.5298" lon="1.7221776">
        <ele>125.0</ele>
        <time>2022-03-31T07:49:07Z</time>
      </trkpt>
      <trkpt lat="47.529797" lon="1.722195">
        <ele>125.0</ele>
        <time>2022-03-31T07:49:08Z</time>
      </trkpt>
      <trkpt lat="47.529793" lon="1.7222139">
        <ele>125.0</ele>
        <time>2022-03-31T07:49:09Z</time>
      </trkpt>
      <trkpt lat="47.529793" lon="1.7222308">
        <ele>125.0</ele>
        <time>2022-03-31T07:49:10Z</time>
      </trkpt>
      <trkpt lat="47.529785" lon="1.7222486">
        <ele>125.0</ele>
        <time>2022-03-31T07:49:11Z</time>
      </trkpt>
      <trkpt lat="47.52978" lon="1.7222643">
        <ele>125.0</ele>
        <time>2022-03-31T07:49:12Z</time>
      </trkpt>
      <trkpt lat="47.529778" lon="1.7222857">
        <ele>124.0</ele>
        <time>2022-03-31T07:49:13Z</time>
      </trkpt>
      <trkpt lat="47.529774" lon="1.722309">
        <ele>125.0</ele>
        <time>2022-03-31T07:49:14Z</time>
      </trkpt>
      <trkpt lat="47.529774" lon="1.7223293">
        <ele>124.0</ele>
        <time>2022-03-31T07:49:15Z</time>
      </trkpt>
      <trkpt lat="47.52977" lon="1.7223479">
        <ele>124.0</ele>
        <time>2022-03-31T07:49:16Z</time>
      </trkpt>
      <trkpt lat="47.529766" lon="1.7223699">
        <ele>124.0</ele>
        <time>2022-03-31T07:49:17Z</time>
      </trkpt>
      <trkpt lat="47.529762" lon="1.7223858">
        <ele>124.0</ele>
        <time>2022-03-31T07:49:18Z</time>
      </trkpt>
      <trkpt lat="47.529762" lon="1.7224021">
        <ele>124.0</ele>
        <time>2022-03-31T07:49:19Z</time>
      </trkpt>
      <trkpt lat="47.529755" lon="1.7224168">
        <ele>124.0</ele>
        <time>2022-03-31T07:49:20Z</time>
      </trkpt>
      <trkpt lat="47.52975" lon="1.7224361">
        <ele>124.0</ele>
        <time>2022-03-31T07:49:21Z</time>
      </trkpt>
      <trkpt lat="47.52975" lon="1.7224561">
        <ele>124.0</ele>
        <time>2022-03-31T07:49:22Z</time>
      </trkpt>
      <trkpt lat="47.529747" lon="1.7224776">
        <ele>124.0</ele>
        <time>2022-03-31T07:49:23Z</time>
      </trkpt>
      <trkpt lat="47.529743" lon="1.722499">
        <ele>124.0</ele>
        <time>2022-03-31T07:49:24Z</time>
      </trkpt>
      <trkpt lat="47.529743" lon="1.722523">
        <ele>124.0</ele>
        <time>2022-03-31T07:49:25Z</time>
      </trkpt>
      <trkpt lat="47.52974" lon="1.7225455">
        <ele>125.0</ele>
        <time>2022-03-31T07:49:26Z</time>
      </trkpt>
      <trkpt lat="47.529736" lon="1.7225724">
        <ele>125.0</ele>
        <time>2022-03-31T07:49:27Z</time>
      </trkpt>
      <trkpt lat="47.52973" lon="1.7225938">
        <ele>125.0</ele>
        <time>2022-03-31T07:49:28Z</time>
      </trkpt>
      <trkpt lat="47.529728" lon="1.7226133">
        <ele>125.0</ele>
        <time>2022-03-31T07:49:29Z</time>
      </trkpt>
      <trkpt lat="47.529728" lon="1.7226292">
        <ele>126.0</ele>
        <time>2022-03-31T07:49:30Z</time>
      </trkpt>
      <trkpt lat="47.529728" lon="1.7226477">
        <ele>126.0</ele>
        <time>2022-03-31T07:49:31Z</time>
      </trkpt>
      <trkpt lat="47.529728" lon="1.7226672">
        <ele>126.0</ele>
        <time>2022-03-31T07:49:32Z</time>
      </trkpt>
      <trkpt lat="47.529728" lon="1.7226864">
        <ele>126.0</ele>
        <time>2022-03-31T07:49:33Z</time>
      </trkpt>
      <trkpt lat="47.529724" lon="1.7227045">
        <ele>126.0</ele>
        <time>2022-03-31T07:49:34Z</time>
      </trkpt>
      <trkpt lat="47.529724" lon="1.7227254">
        <ele>126.0</ele>
        <time>2022-03-31T07:49:35Z</time>
      </trkpt>
      <trkpt lat="47.52972" lon="1.7227452">
        <ele>127.0</ele>
        <time>2022-03-31T07:49:36Z</time>
      </trkpt>
      <trkpt lat="47.529716" lon="1.7227632">
        <ele>127.0</ele>
        <time>2022-03-31T07:49:37Z</time>
      </trkpt>
      <trkpt lat="47.529716" lon="1.7227833">
        <ele>127.0</ele>
        <time>2022-03-31T07:49:38Z</time>
      </trkpt>
      <trkpt lat="47.529713" lon="1.7228004">
        <ele>127.0</ele>
        <time>2022-03-31T07:49:39Z</time>
      </trkpt>
      <trkpt lat="47.52971" lon="1.7228208">
        <ele>127.0</ele>
        <time>2022-03-31T07:49:40Z</time>
      </trkpt>
      <trkpt lat="47.529713" lon="1.7228416">
        <ele>128.0</ele>
        <time>2022-03-31T07:49:41Z</time>
      </trkpt>
      <trkpt lat="47.529713" lon="1.7228608">
        <ele>127.0</ele>
        <time>2022-03-31T07:49:42Z</time>
      </trkpt>
      <trkpt lat="47.529713" lon="1.7228807">
        <ele>128.0</ele>
        <time>2022-03-31T07:49:43Z</time>
      </trkpt>
      <trkpt lat="47.529713" lon="1.7229028">
        <ele>128.0</ele>
        <time>2022-03-31T07:49:44Z</time>
      </trkpt>
      <trkpt lat="47.529713" lon="1.7229241">
        <ele>129.0</ele>
        <time>2022-03-31T07:49:45Z</time>
      </trkpt>
      <trkpt lat="47.52971" lon="1.7229431">
        <ele>128.0</ele>
        <time>2022-03-31T07:49:46Z</time>
      </trkpt>
      <trkpt lat="47.529705" lon="1.7229588">
        <ele>128.0</ele>
        <time>2022-03-31T07:49:47Z</time>
      </trkpt>
      <trkpt lat="47.529705" lon="1.7229764">
        <ele>128.0</ele>
        <time>2022-03-31T07:49:48Z</time>
      </trkpt>
      <trkpt lat="47.529705" lon="1.7229959">
        <ele>128.0</ele>
        <time>2022-03-31T07:49:49Z</time>
      </trkpt>
      <trkpt lat="47.52971" lon="1.7230153">
        <ele>128.0</ele>
        <time>2022-03-31T07:49:50Z</time>
      </trkpt>
      <trkpt lat="47.52971" lon="1.7230332">
        <ele>128.0</ele>
        <time>2022-03-31T07:49:51Z</time>
      </trkpt>
      <trkpt lat="47.52971" lon="1.7230506">
        <ele>128.0</ele>
        <time>2022-03-31T07:49:52Z</time>
      </trkpt>
      <trkpt lat="47.529705" lon="1.7230681">
        <ele>129.0</ele>
        <time>2022-03-31T07:49:53Z</time>
      </trkpt>
      <trkpt lat="47.529705" lon="1.7230827">
        <ele>129.0</ele>
        <time>2022-03-31T07:49:54Z</time>
      </trkpt>
      <trkpt lat="47.529705" lon="1.7231004">
        <ele>129.0</ele>
        <time>2022-03-31T07:49:55Z</time>
      </trkpt>
      <trkpt lat="47.52971" lon="1.7231197">
        <ele>129.0</ele>
        <time>2022-03-31T07:49:56Z</time>
      </trkpt>
      <trkpt lat="47.52971" lon="1.7231375">
        <ele>129.0</ele>
        <time>2022-03-31T07:49:57Z</time>
      </trkpt>
      <trkpt lat="47.52971" lon="1.7231542">
        <ele>129.0</ele>
        <time>2022-03-31T07:49:58Z</time>
      </trkpt>
      <trkpt lat="47.52971" lon="1.7231698">
        <ele>129.0</ele>
        <time>2022-03-31T07:49:59Z</time>
      </trkpt>
      <trkpt lat="47.52971" lon="1.7231885">
        <ele>130.0</ele>
        <time>2022-03-31T07:50:00Z</time>
      </trkpt>
      <trkpt lat="47.529713" lon="1.7232043">
        <ele>130.0</ele>
        <time>2022-03-31T07:50:01Z</time>
      </trkpt>
      <trkpt lat="47.529716" lon="1.7232172">
        <ele>130.0</ele>
        <time>2022-03-31T07:50:02Z</time>
      </trkpt>
      <trkpt lat="47.529716" lon="1.7232327">
        <ele>130.0</ele>
        <time>2022-03-31T07:50:03Z</time>
      </trkpt>
      <trkpt lat="47.529713" lon="1.7232523">
        <ele>130.0</ele>
        <time>2022-03-31T07:50:04Z</time>
      </trkpt>
      <trkpt lat="47.52971" lon="1.7232664">
        <ele>131.0</ele>
        <time>2022-03-31T07:50:05Z</time>
      </trkpt>
      <trkpt lat="47.52971" lon="1.7232804">
        <ele>131.0</ele>
        <time>2022-03-31T07:50:06Z</time>
      </trkpt>
      <trkpt lat="47.52971" lon="1.723292">
        <ele>130.0</ele>
        <time>2022-03-31T07:50:07Z</time>
      </trkpt>
      <trkpt lat="47.529713" lon="1.7233">
        <ele>130.0</ele>
        <time>2022-03-31T07:50:08Z</time>
      </trkpt>
      <trkpt lat="47.529713" lon="1.7233087">
        <ele>130.0</ele>
        <time>2022-03-31T07:50:09Z</time>
      </trkpt>
      <trkpt lat="47.529716" lon="1.7233256">
        <ele>130.0</ele>
        <time>2022-03-31T07:50:10Z</time>
      </trkpt>
      <trkpt lat="47.529716" lon="1.7233256">
        <ele>130.0</ele>
        <time>2022-03-31T07:50:11Z</time>
      </trkpt>
      <trkpt lat="47.529724" lon="1.7233583">
        <ele>130.0</ele>
        <time>2022-03-31T07:50:12Z</time>
      </trkpt>
      <trkpt lat="47.529724" lon="1.723377">
        <ele>129.0</ele>
        <time>2022-03-31T07:50:13Z</time>
      </trkpt>
      <trkpt lat="47.529724" lon="1.7233928">
        <ele>129.0</ele>
        <time>2022-03-31T07:50:14Z</time>
      </trkpt>
      <trkpt lat="47.529724" lon="1.7234033">
        <ele>130.0</ele>
        <time>2022-03-31T07:50:15Z</time>
      </trkpt>
      <trkpt lat="47.529724" lon="1.7234185">
        <ele>130.0</ele>
        <time>2022-03-31T07:50:16Z</time>
      </trkpt>
      <trkpt lat="47.529724" lon="1.7234365">
        <ele>130.0</ele>
        <time>2022-03-31T07:50:17Z</time>
      </trkpt>
      <trkpt lat="47.529728" lon="1.723457">
        <ele>129.0</ele>
        <time>2022-03-31T07:50:18Z</time>
      </trkpt>
      <trkpt lat="47.529728" lon="1.7234758">
        <ele>129.0</ele>
        <time>2022-03-31T07:50:19Z</time>
      </trkpt>
      <trkpt lat="47.52973" lon="1.723494">
        <ele>129.0</ele>
        <time>2022-03-31T07:50:20Z</time>
      </trkpt>
      <trkpt lat="47.52973" lon="1.7235092">
        <ele>129.0</ele>
        <time>2022-03-31T07:50:21Z</time>
      </trkpt>
      <trkpt lat="47.52973" lon="1.7235217">
        <ele>129.0</ele>
        <time>2022-03-31T07:50:22Z</time>
      </trkpt>
      <trkpt lat="47.52973" lon="1.7235348">
        <ele>129.0</ele>
        <time>2022-03-31T07:50:23Z</time>
      </trkpt>
      <trkpt lat="47.529728" lon="1.723553">
        <ele>129.0</ele>
        <time>2022-03-31T07:50:24Z</time>
      </trkpt>
      <trkpt lat="47.529724" lon="1.7235757">
        <ele>128.0</ele>
        <time>2022-03-31T07:50:25Z</time>
      </trkpt>
      <trkpt lat="47.52972" lon="1.7236007">
        <ele>128.0</ele>
        <time>2022-03-31T07:50:26Z</time>
      </trkpt>
      <trkpt lat="47.529716" lon="1.7236254">
        <ele>128.0</ele>
        <time>2022-03-31T07:50:27Z</time>
      </trkpt>
      <trkpt lat="47.529713" lon="1.7236435">
        <ele>128.0</ele>
        <time>2022-03-31T07:50:28Z</time>
      </trkpt>
      <trkpt lat="47.529713" lon="1.723659">
        <ele>128.0</ele>
        <time>2022-03-31T07:50:29Z</time>
      </trkpt>
      <trkpt lat="47.529713" lon="1.7236749">
        <ele>128.0</ele>
        <time>2022-03-31T07:50:30Z</time>
      </trkpt>
      <trkpt lat="47.529716" lon="1.7236896">
        <ele>128.0</ele>
        <time>2022-03-31T07:50:31Z</time>
      </trkpt>
      <trkpt lat="47.52972" lon="1.7237056">
        <ele>128.0</ele>
        <time>2022-03-31T07:50:32Z</time>
      </trkpt>
      <trkpt lat="47.529728" lon="1.7237209">
        <ele>128.0</ele>
        <time>2022-03-31T07:50:33Z</time>
      </trkpt>
      <trkpt lat="47.529728" lon="1.7237368">
        <ele>128.0</ele>
        <time>2022-03-31T07:50:34Z</time>
      </trkpt>
      <trkpt lat="47.529724" lon="1.7237544">
        <ele>128.0</ele>
        <time>2022-03-31T07:50:35Z</time>
      </trkpt>
      <trkpt lat="47.529724" lon="1.7237706">
        <ele>128.0</ele>
        <time>2022-03-31T07:50:36Z</time>
      </trkpt>
      <trkpt lat="47.529724" lon="1.7237839">
        <ele>128.0</ele>
        <time>2022-03-31T07:50:37Z</time>
      </trkpt>
      <trkpt lat="47.529724" lon="1.7237984">
        <ele>128.0</ele>
        <time>2022-03-31T07:50:38Z</time>
      </trkpt>
      <trkpt lat="47.529716" lon="1.7238225">
        <ele>128.0</ele>
        <time>2022-03-31T07:50:39Z</time>
      </trkpt>
      <trkpt lat="47.52971" lon="1.7238477">
        <ele>128.0</ele>
        <time>2022-03-31T07:50:40Z</time>
      </trkpt>
      <trkpt lat="47.5297" lon="1.7238771">
        <ele>129.0</ele>
        <time>2022-03-31T07:50:41Z</time>
      </trkpt>
      <trkpt lat="47.529697" lon="1.7238996">
        <ele>130.0</ele>
        <time>2022-03-31T07:50:42Z</time>
      </trkpt>
      <trkpt lat="47.529694" lon="1.7239227">
        <ele>130.0</ele>
        <time>2022-03-31T07:50:43Z</time>
      </trkpt>
      <trkpt lat="47.529694" lon="1.7239377">
        <ele>130.0</ele>
        <time>2022-03-31T07:50:44Z</time>
      </trkpt>
      <trkpt lat="47.52969" lon="1.7239561">
        <ele>131.0</ele>
        <time>2022-03-31T07:50:45Z</time>
      </trkpt>
      <trkpt lat="47.52969" lon="1.7239782">
        <ele>131.0</ele>
        <time>2022-03-31T07:50:46Z</time>
      </trkpt>
      <trkpt lat="47.529686" lon="1.724001">
        <ele>131.0</ele>
        <time>2022-03-31T07:50:47Z</time>
      </trkpt>
      <trkpt lat="47.52968" lon="1.7240236">
        <ele>132.0</ele>
        <time>2022-03-31T07:50:48Z</time>
      </trkpt>
      <trkpt lat="47.52968" lon="1.7240419">
        <ele>132.0</ele>
        <time>2022-03-31T07:50:49Z</time>
      </trkpt>
      <trkpt lat="47.52968" lon="1.7240596">
        <ele>133.0</ele>
        <time>2022-03-31T07:50:50Z</time>
      </trkpt>
      <trkpt lat="47.529675" lon="1.7240818">
        <ele>133.0</ele>
        <time>2022-03-31T07:50:51Z</time>
      </trkpt>
      <trkpt lat="47.52967" lon="1.7241012">
        <ele>133.0</ele>
        <time>2022-03-31T07:50:52Z</time>
      </trkpt>
      <trkpt lat="47.52967" lon="1.7241187">
        <ele>134.0</ele>
        <time>2022-03-31T07:50:53Z</time>
      </trkpt>
      <trkpt lat="47.52967" lon="1.7241383">
        <ele>135.0</ele>
        <time>2022-03-31T07:50:54Z</time>
      </trkpt>
      <trkpt lat="47.52967" lon="1.7241591">
        <ele>135.0</ele>
        <time>2022-03-31T07:50:55Z</time>
      </trkpt>
      <trkpt lat="47.529667" lon="1.7241799">
        <ele>136.0</ele>
        <time>2022-03-31T07:50:56Z</time>
      </trkpt>
      <trkpt lat="47.52967" lon="1.724198">
        <ele>137.0</ele>
        <time>2022-03-31T07:50:57Z</time>
      </trkpt>
      <trkpt lat="47.529667" lon="1.724215">
        <ele>137.0</ele>
        <time>2022-03-31T07:50:58Z</time>
      </trkpt>
      <trkpt lat="47.529667" lon="1.7242354">
        <ele>138.0</ele>
        <time>2022-03-31T07:50:59Z</time>
      </trkpt>
      <trkpt lat="47.52967" lon="1.7242595">
        <ele>138.0</ele>
        <time>2022-03-31T07:51:00Z</time>
      </trkpt>
      <trkpt lat="47.529675" lon="1.7242799">
        <ele>139.0</ele>
        <time>2022-03-31T07:51:01Z</time>
      </trkpt>
      <trkpt lat="47.52968" lon="1.7242992">
        <ele>139.0</ele>
        <time>2022-03-31T07:51:02Z</time>
      </trkpt>
      <trkpt lat="47.529682" lon="1.7243208">
        <ele>139.0</ele>
        <time>2022-03-31T07:51:03Z</time>
      </trkpt>
      <trkpt lat="47.529686" lon="1.7243367">
        <ele>139.0</ele>
        <time>2022-03-31T07:51:04Z</time>
      </trkpt>
      <trkpt lat="47.529694" lon="1.7243525">
        <ele>139.0</ele>
        <time>2022-03-31T07:51:05Z</time>
      </trkpt>
      <trkpt lat="47.529697" lon="1.7243713">
        <ele>139.0</ele>
        <time>2022-03-31T07:51:06Z</time>
      </trkpt>
      <trkpt lat="47.529697" lon="1.724389">
        <ele>140.0</ele>
        <time>2022-03-31T07:51:07Z</time>
      </trkpt>
      <trkpt lat="47.5297" lon="1.7244055">
        <ele>140.0</ele>
        <time>2022-03-31T07:51:08Z</time>
      </trkpt>
      <trkpt lat="47.5297" lon="1.7244183">
        <ele>139.0</ele>
        <time>2022-03-31T07:51:09Z</time>
      </trkpt>
      <trkpt lat="47.5297" lon="1.7244346">
        <ele>139.0</ele>
        <time>2022-03-31T07:51:10Z</time>
      </trkpt>
      <trkpt lat="47.529697" lon="1.7244507">
        <ele>139.0</ele>
        <time>2022-03-31T07:51:11Z</time>
      </trkpt>
      <trkpt lat="47.529697" lon="1.7244688">
        <ele>138.0</ele>
        <time>2022-03-31T07:51:12Z</time>
      </trkpt>
      <trkpt lat="47.5297" lon="1.7244877">
        <ele>138.0</ele>
        <time>2022-03-31T07:51:13Z</time>
      </trkpt>
      <trkpt lat="47.5297" lon="1.7245064">
        <ele>138.0</ele>
        <time>2022-03-31T07:51:14Z</time>
      </trkpt>
      <trkpt lat="47.5297" lon="1.7245249">
        <ele>138.0</ele>
        <time>2022-03-31T07:51:15Z</time>
      </trkpt>
      <trkpt lat="47.5297" lon="1.7245448">
        <ele>138.0</ele>
        <time>2022-03-31T07:51:16Z</time>
      </trkpt>
      <trkpt lat="47.5297" lon="1.7245651">
        <ele>139.0</ele>
        <time>2022-03-31T07:51:17Z</time>
      </trkpt>
      <trkpt lat="47.5297" lon="1.7245852">
        <ele>138.0</ele>
        <time>2022-03-31T07:51:18Z</time>
      </trkpt>
      <trkpt lat="47.529705" lon="1.7246054">
        <ele>138.0</ele>
        <time>2022-03-31T07:51:19Z</time>
      </trkpt>
      <trkpt lat="47.52971" lon="1.7246239">
        <ele>139.0</ele>
        <time>2022-03-31T07:51:20Z</time>
      </trkpt>
      <trkpt lat="47.529705" lon="1.7246404">
        <ele>139.0</ele>
        <time>2022-03-31T07:51:21Z</time>
      </trkpt>
      <trkpt lat="47.5297" lon="1.724658">
        <ele>139.0</ele>
        <time>2022-03-31T07:51:22Z</time>
      </trkpt>
      <trkpt lat="47.529697" lon="1.7246735">
        <ele>139.0</ele>
        <time>2022-03-31T07:51:23Z</time>
      </trkpt>
      <trkpt lat="47.529697" lon="1.7246927">
        <ele>139.0</ele>
        <time>2022-03-31T07:51:24Z</time>
      </trkpt>
      <trkpt lat="47.529697" lon="1.7247143">
        <ele>139.0</ele>
        <time>2022-03-31T07:51:25Z</time>
      </trkpt>
      <trkpt lat="47.529697" lon="1.7247416">
        <ele>139.0</ele>
        <time>2022-03-31T07:51:26Z</time>
      </trkpt>
      <trkpt lat="47.529705" lon="1.724758">
        <ele>139.0</ele>
        <time>2022-03-31T07:51:27Z</time>
      </trkpt>
      <trkpt lat="47.529713" lon="1.724767">
        <ele>139.0</ele>
        <time>2022-03-31T07:51:28Z</time>
      </trkpt>
      <trkpt lat="47.529716" lon="1.724777">
        <ele>138.0</ele>
        <time>2022-03-31T07:51:29Z</time>
      </trkpt>
      <trkpt lat="47.529716" lon="1.724791">
        <ele>138.0</ele>
        <time>2022-03-31T07:51:30Z</time>
      </trkpt>
      <trkpt lat="47.529713" lon="1.7248098">
        <ele>138.0</ele>
        <time>2022-03-31T07:51:31Z</time>
      </trkpt>
      <trkpt lat="47.529716" lon="1.7248266">
        <ele>138.0</ele>
        <time>2022-03-31T07:51:32Z</time>
      </trkpt>
      <trkpt lat="47.52972" lon="1.7248412">
        <ele>138.0</ele>
        <time>2022-03-31T07:51:33Z</time>
      </trkpt>
      <trkpt lat="47.52972" lon="1.7248566">
        <ele>138.0</ele>
        <time>2022-03-31T07:51:34Z</time>
      </trkpt>
      <trkpt lat="47.529716" lon="1.7248735">
        <ele>137.0</ele>
        <time>2022-03-31T07:51:35Z</time>
      </trkpt>
      <trkpt lat="47.52971" lon="1.7248938">
        <ele>137.0</ele>
        <time>2022-03-31T07:51:36Z</time>
      </trkpt>
      <trkpt lat="47.52971" lon="1.7249124">
        <ele>136.0</ele>
        <time>2022-03-31T07:51:37Z</time>
      </trkpt>
      <trkpt lat="47.529713" lon="1.7249296">
        <ele>136.0</ele>
        <time>2022-03-31T07:51:38Z</time>
      </trkpt>
      <trkpt lat="47.529713" lon="1.7249491">
        <ele>136.0</ele>
        <time>2022-03-31T07:51:39Z</time>
      </trkpt>
      <trkpt lat="47.52971" lon="1.7249694">
        <ele>136.0</ele>
        <time>2022-03-31T07:51:40Z</time>
      </trkpt>
      <trkpt lat="47.52971" lon="1.7249906">
        <ele>136.0</ele>
        <time>2022-03-31T07:51:41Z</time>
      </trkpt>
      <trkpt lat="47.529705" lon="1.7250156">
        <ele>136.0</ele>
        <time>2022-03-31T07:51:42Z</time>
      </trkpt>
      <trkpt lat="47.52971" lon="1.7250335">
        <ele>136.0</ele>
        <time>2022-03-31T07:51:43Z</time>
      </trkpt>
      <trkpt lat="47.52971" lon="1.7250472">
        <ele>136.0</ele>
        <time>2022-03-31T07:51:44Z</time>
      </trkpt>
      <trkpt lat="47.52971" lon="1.7250607">
        <ele>136.0</ele>
        <time>2022-03-31T07:51:45Z</time>
      </trkpt>
      <trkpt lat="47.529713" lon="1.7250748">
        <ele>136.0</ele>
        <time>2022-03-31T07:51:46Z</time>
      </trkpt>
      <trkpt lat="47.529713" lon="1.7250916">
        <ele>136.0</ele>
        <time>2022-03-31T07:51:47Z</time>
      </trkpt>
      <trkpt lat="47.529716" lon="1.7251098">
        <ele>136.0</ele>
        <time>2022-03-31T07:51:48Z</time>
      </trkpt>
      <trkpt lat="47.52972" lon="1.725124">
        <ele>136.0</ele>
        <time>2022-03-31T07:51:49Z</time>
      </trkpt>
      <trkpt lat="47.52972" lon="1.7251374">
        <ele>136.0</ele>
        <time>2022-03-31T07:51:50Z</time>
      </trkpt>
      <trkpt lat="47.52972" lon="1.7251519">
        <ele>137.0</ele>
        <time>2022-03-31T07:51:51Z</time>
      </trkpt>
      <trkpt lat="47.52972" lon="1.7251519">
        <ele>137.0</ele>
        <time>2022-03-31T07:51:52Z</time>
      </trkpt>
      <trkpt lat="47.52972" lon="1.7251519">
        <ele>137.0</ele>
        <time>2022-03-31T07:51:53Z</time>
      </trkpt>
      <trkpt lat="47.52972" lon="1.725193">
        <ele>136.0</ele>
        <time>2022-03-31T07:51:54Z</time>
      </trkpt>
      <trkpt lat="47.52972" lon="1.7252128">
        <ele>136.0</ele>
        <time>2022-03-31T07:51:55Z</time>
      </trkpt>
      <trkpt lat="47.529724" lon="1.725233">
        <ele>136.0</ele>
        <time>2022-03-31T07:51:56Z</time>
      </trkpt>
      <trkpt lat="47.529716" lon="1.7252537">
        <ele>136.0</ele>
        <time>2022-03-31T07:51:57Z</time>
      </trkpt>
      <trkpt lat="47.52972" lon="1.7252724">
        <ele>136.0</ele>
        <time>2022-03-31T07:51:58Z</time>
      </trkpt>
      <trkpt lat="47.52972" lon="1.7252952">
        <ele>136.0</ele>
        <time>2022-03-31T07:51:59Z</time>
      </trkpt>
      <trkpt lat="47.52972" lon="1.7253174">
        <ele>135.0</ele>
        <time>2022-03-31T07:52:00Z</time>
      </trkpt>
      <trkpt lat="47.52972" lon="1.7253404">
        <ele>135.0</ele>
        <time>2022-03-31T07:52:01Z</time>
      </trkpt>
      <trkpt lat="47.529716" lon="1.7253648">
        <ele>135.0</ele>
        <time>2022-03-31T07:52:02Z</time>
      </trkpt>
      <trkpt lat="47.529716" lon="1.725387">
        <ele>135.0</ele>
        <time>2022-03-31T07:52:03Z</time>
      </trkpt>
      <trkpt lat="47.52972" lon="1.7254051">
        <ele>135.0</ele>
        <time>2022-03-31T07:52:04Z</time>
      </trkpt>
      <trkpt lat="47.529728" lon="1.7254219">
        <ele>134.0</ele>
        <time>2022-03-31T07:52:05Z</time>
      </trkpt>
      <trkpt lat="47.529736" lon="1.7254407">
        <ele>134.0</ele>
        <time>2022-03-31T07:52:06Z</time>
      </trkpt>
      <trkpt lat="47.529736" lon="1.7254599">
        <ele>134.0</ele>
        <time>2022-03-31T07:52:07Z</time>
      </trkpt>
      <trkpt lat="47.529736" lon="1.7254766">
        <ele>134.0</ele>
        <time>2022-03-31T07:52:08Z</time>
      </trkpt>
      <trkpt lat="47.52974" lon="1.7254988">
        <ele>133.0</ele>
        <time>2022-03-31T07:52:09Z</time>
      </trkpt>
      <trkpt lat="47.52974" lon="1.7255186">
        <ele>134.0</ele>
        <time>2022-03-31T07:52:10Z</time>
      </trkpt>
      <trkpt lat="47.529743" lon="1.7255367">
        <ele>134.0</ele>
        <time>2022-03-31T07:52:11Z</time>
      </trkpt>
      <trkpt lat="47.529743" lon="1.7255567">
        <ele>134.0</ele>
        <time>2022-03-31T07:52:12Z</time>
      </trkpt>
      <trkpt lat="47.52974" lon="1.7255787">
        <ele>134.0</ele>
        <time>2022-03-31T07:52:13Z</time>
      </trkpt>
      <trkpt lat="47.529736" lon="1.7255971">
        <ele>133.0</ele>
        <time>2022-03-31T07:52:14Z</time>
      </trkpt>
      <trkpt lat="47.52973" lon="1.7256129">
        <ele>134.0</ele>
        <time>2022-03-31T07:52:15Z</time>
      </trkpt>
      <trkpt lat="47.529728" lon="1.725628">
        <ele>134.0</ele>
        <time>2022-03-31T07:52:16Z</time>
      </trkpt>
      <trkpt lat="47.52973" lon="1.7256447">
        <ele>134.0</ele>
        <time>2022-03-31T07:52:17Z</time>
      </trkpt>
      <trkpt lat="47.529736" lon="1.7256604">
        <ele>135.0</ele>
        <time>2022-03-31T07:52:18Z</time>
      </trkpt>
      <trkpt lat="47.529736" lon="1.7256755">
        <ele>135.0</ele>
        <time>2022-03-31T07:52:19Z</time>
      </trkpt>
      <trkpt lat="47.52974" lon="1.7256908">
        <ele>135.0</ele>
        <time>2022-03-31T07:52:20Z</time>
      </trkpt>
      <trkpt lat="47.529736" lon="1.7257074">
        <ele>135.0</ele>
        <time>2022-03-31T07:52:21Z</time>
      </trkpt>
      <trkpt lat="47.52974" lon="1.7257268">
        <ele>135.0</ele>
        <time>2022-03-31T07:52:22Z</time>
      </trkpt>
      <trkpt lat="47.52974" lon="1.7257427">
        <ele>135.0</ele>
        <time>2022-03-31T07:52:23Z</time>
      </trkpt>
      <trkpt lat="47.52974" lon="1.7257563">
        <ele>135.0</ele>
        <time>2022-03-31T07:52:24Z</time>
      </trkpt>
      <trkpt lat="47.529743" lon="1.7257729">
        <ele>135.0</ele>
        <time>2022-03-31T07:52:25Z</time>
      </trkpt>
      <trkpt lat="47.529747" lon="1.7257884">
        <ele>135.0</ele>
        <time>2022-03-31T07:52:26Z</time>
      </trkpt>
      <trkpt lat="47.52975" lon="1.725808">
        <ele>135.0</ele>
        <time>2022-03-31T07:52:27Z</time>
      </trkpt>
      <trkpt lat="47.52975" lon="1.7258263">
        <ele>135.0</ele>
        <time>2022-03-31T07:52:28Z</time>
      </trkpt>
      <trkpt lat="47.52975" lon="1.7258458">
        <ele>135.0</ele>
        <time>2022-03-31T07:52:29Z</time>
      </trkpt>
      <trkpt lat="47.52975" lon="1.7258614">
        <ele>135.0</ele>
        <time>2022-03-31T07:52:30Z</time>
      </trkpt>
      <trkpt lat="47.529755" lon="1.7258744">
        <ele>135.0</ele>
        <time>2022-03-31T07:52:31Z</time>
      </trkpt>
      <trkpt lat="47.529755" lon="1.7258881">
        <ele>135.0</ele>
        <time>2022-03-31T07:52:32Z</time>
      </trkpt>
      <trkpt lat="47.529755" lon="1.7259059">
        <ele>135.0</ele>
        <time>2022-03-31T07:52:33Z</time>
      </trkpt>
      <trkpt lat="47.52976" lon="1.7259259">
        <ele>135.0</ele>
        <time>2022-03-31T07:52:34Z</time>
      </trkpt>
      <trkpt lat="47.52976" lon="1.72595">
        <ele>135.0</ele>
        <time>2022-03-31T07:52:35Z</time>
      </trkpt>
      <trkpt lat="47.529755" lon="1.7259725">
        <ele>135.0</ele>
        <time>2022-03-31T07:52:36Z</time>
      </trkpt>
      <trkpt lat="47.529755" lon="1.7259969">
        <ele>135.0</ele>
        <time>2022-03-31T07:52:37Z</time>
      </trkpt>
      <trkpt lat="47.52976" lon="1.7260214">
        <ele>135.0</ele>
        <time>2022-03-31T07:52:38Z</time>
      </trkpt>
      <trkpt lat="47.529755" lon="1.7260435">
        <ele>135.0</ele>
        <time>2022-03-31T07:52:39Z</time>
      </trkpt>
      <trkpt lat="47.529755" lon="1.7260633">
        <ele>136.0</ele>
        <time>2022-03-31T07:52:40Z</time>
      </trkpt>
      <trkpt lat="47.52975" lon="1.7260824">
        <ele>136.0</ele>
        <time>2022-03-31T07:52:41Z</time>
      </trkpt>
      <trkpt lat="47.529747" lon="1.7261016">
        <ele>136.0</ele>
        <time>2022-03-31T07:52:42Z</time>
      </trkpt>
      <trkpt lat="47.52974" lon="1.7261188">
        <ele>136.0</ele>
        <time>2022-03-31T07:52:43Z</time>
      </trkpt>
      <trkpt lat="47.529736" lon="1.7261347">
        <ele>135.0</ele>
        <time>2022-03-31T07:52:44Z</time>
      </trkpt>
      <trkpt lat="47.529728" lon="1.7261509">
        <ele>135.0</ele>
        <time>2022-03-31T07:52:45Z</time>
      </trkpt>
      <trkpt lat="47.529728" lon="1.7261692">
        <ele>135.0</ele>
        <time>2022-03-31T07:52:46Z</time>
      </trkpt>
      <trkpt lat="47.529724" lon="1.7261848">
        <ele>135.0</ele>
        <time>2022-03-31T07:52:47Z</time>
      </trkpt>
      <trkpt lat="47.529724" lon="1.7262055">
        <ele>135.0</ele>
        <time>2022-03-31T07:52:48Z</time>
      </trkpt>
      <trkpt lat="47.529724" lon="1.7262213">
        <ele>135.0</ele>
        <time>2022-03-31T07:52:49Z</time>
      </trkpt>
      <trkpt lat="47.52972" lon="1.7262369">
        <ele>135.0</ele>
        <time>2022-03-31T07:52:50Z</time>
      </trkpt>
      <trkpt lat="47.52972" lon="1.7262369">
        <ele>135.0</ele>
        <time>2022-03-31T07:52:51Z</time>
      </trkpt>
      <trkpt lat="47.529716" lon="1.7262667">
        <ele>134.0</ele>
        <time>2022-03-31T07:52:52Z</time>
      </trkpt>
      <trkpt lat="47.529716" lon="1.7262857">
        <ele>134.0</ele>
        <time>2022-03-31T07:52:53Z</time>
      </trkpt>
      <trkpt lat="47.529713" lon="1.7263013">
        <ele>134.0</ele>
        <time>2022-03-31T07:52:54Z</time>
      </trkpt>
      <trkpt lat="47.529705" lon="1.7263196">
        <ele>134.0</ele>
        <time>2022-03-31T07:52:55Z</time>
      </trkpt>
      <trkpt lat="47.5297" lon="1.7263393">
        <ele>134.0</ele>
        <time>2022-03-31T07:52:56Z</time>
      </trkpt>
      <trkpt lat="47.529705" lon="1.7263588">
        <ele>134.0</ele>
        <time>2022-03-31T07:52:57Z</time>
      </trkpt>
      <trkpt lat="47.529705" lon="1.726376">
        <ele>134.0</ele>
        <time>2022-03-31T07:52:58Z</time>
      </trkpt>
      <trkpt lat="47.52971" lon="1.726395">
        <ele>134.0</ele>
        <time>2022-03-31T07:52:59Z</time>
      </trkpt>
      <trkpt lat="47.529713" lon="1.7264146">
        <ele>134.0</ele>
        <time>2022-03-31T07:53:00Z</time>
      </trkpt>
      <trkpt lat="47.52972" lon="1.7264328">
        <ele>134.0</ele>
        <time>2022-03-31T07:53:01Z</time>
      </trkpt>
      <trkpt lat="47.52972" lon="1.7264519">
        <ele>134.0</ele>
        <time>2022-03-31T07:53:02Z</time>
      </trkpt>
      <trkpt lat="47.52972" lon="1.7264677">
        <ele>134.0</ele>
        <time>2022-03-31T07:53:03Z</time>
      </trkpt>
      <trkpt lat="47.52972" lon="1.7264842">
        <ele>134.0</ele>
        <time>2022-03-31T07:53:04Z</time>
      </trkpt>
      <trkpt lat="47.529713" lon="1.726503">
        <ele>134.0</ele>
        <time>2022-03-31T07:53:05Z</time>
      </trkpt>
      <trkpt lat="47.529716" lon="1.726517">
        <ele>134.0</ele>
        <time>2022-03-31T07:53:06Z</time>
      </trkpt>
      <trkpt lat="47.529716" lon="1.7265321">
        <ele>134.0</ele>
        <time>2022-03-31T07:53:07Z</time>
      </trkpt>
      <trkpt lat="47.529713" lon="1.7265444">
        <ele>134.0</ele>
        <time>2022-03-31T07:53:08Z</time>
      </trkpt>
      <trkpt lat="47.52971" lon="1.7265599">
        <ele>133.0</ele>
        <time>2022-03-31T07:53:09Z</time>
      </trkpt>
      <trkpt lat="47.529705" lon="1.7265795">
        <ele>133.0</ele>
        <time>2022-03-31T07:53:10Z</time>
      </trkpt>
      <trkpt lat="47.529697" lon="1.7265965">
        <ele>134.0</ele>
        <time>2022-03-31T07:53:11Z</time>
      </trkpt>
      <trkpt lat="47.529694" lon="1.7266146">
        <ele>134.0</ele>
        <time>2022-03-31T07:53:12Z</time>
      </trkpt>
      <trkpt lat="47.529694" lon="1.7266309">
        <ele>134.0</ele>
        <time>2022-03-31T07:53:13Z</time>
      </trkpt>
      <trkpt lat="47.529694" lon="1.7266468">
        <ele>134.0</ele>
        <time>2022-03-31T07:53:14Z</time>
      </trkpt>
      <trkpt lat="47.52969" lon="1.7266595">
        <ele>133.0</ele>
        <time>2022-03-31T07:53:15Z</time>
      </trkpt>
      <trkpt lat="47.529686" lon="1.7266738">
        <ele>133.0</ele>
        <time>2022-03-31T07:53:16Z</time>
      </trkpt>
      <trkpt lat="47.529682" lon="1.7266893">
        <ele>133.0</ele>
        <time>2022-03-31T07:53:17Z</time>
      </trkpt>
      <trkpt lat="47.529682" lon="1.7267039">
        <ele>133.0</ele>
        <time>2022-03-31T07:53:18Z</time>
      </trkpt>
      <trkpt lat="47.529682" lon="1.7267191">
        <ele>133.0</ele>
        <time>2022-03-31T07:53:19Z</time>
      </trkpt>
      <trkpt lat="47.529682" lon="1.7267326">
        <ele>133.0</ele>
        <time>2022-03-31T07:53:20Z</time>
      </trkpt>
      <trkpt lat="47.52968" lon="1.7267464">
        <ele>132.0</ele>
        <time>2022-03-31T07:53:21Z</time>
      </trkpt>
      <trkpt lat="47.529675" lon="1.7267638">
        <ele>131.0</ele>
        <time>2022-03-31T07:53:22Z</time>
      </trkpt>
      <trkpt lat="47.529675" lon="1.7267835">
        <ele>131.0</ele>
        <time>2022-03-31T07:53:23Z</time>
      </trkpt>
      <trkpt lat="47.52968" lon="1.7268025">
        <ele>131.0</ele>
        <time>2022-03-31T07:53:24Z</time>
      </trkpt>
      <trkpt lat="47.529675" lon="1.7268051">
        <ele>131.0</ele>
        <time>2022-03-31T07:53:25Z</time>
      </trkpt>
      <trkpt lat="47.529682" lon="1.7268195">
        <ele>131.0</ele>
        <time>2022-03-31T07:53:26Z</time>
      </trkpt>
      <trkpt lat="47.529682" lon="1.7268335">
        <ele>130.0</ele>
        <time>2022-03-31T07:53:27Z</time>
      </trkpt>
      <trkpt lat="47.529686" lon="1.7268505">
        <ele>130.0</ele>
        <time>2022-03-31T07:53:28Z</time>
      </trkpt>
      <trkpt lat="47.529686" lon="1.726871">
        <ele>130.0</ele>
        <time>2022-03-31T07:53:29Z</time>
      </trkpt>
      <trkpt lat="47.52968" lon="1.7268924">
        <ele>130.0</ele>
        <time>2022-03-31T07:53:30Z</time>
      </trkpt>
      <trkpt lat="47.52968" lon="1.7269111">
        <ele>130.0</ele>
        <time>2022-03-31T07:53:31Z</time>
      </trkpt>
      <trkpt lat="47.52968" lon="1.7269329">
        <ele>130.0</ele>
        <time>2022-03-31T07:53:32Z</time>
      </trkpt>
      <trkpt lat="47.52968" lon="1.7269564">
        <ele>130.0</ele>
        <time>2022-03-31T07:53:33Z</time>
      </trkpt>
      <trkpt lat="47.52968" lon="1.7269785">
        <ele>130.0</ele>
        <time>2022-03-31T07:53:34Z</time>
      </trkpt>
      <trkpt lat="47.529675" lon="1.7269988">
        <ele>130.0</ele>
        <time>2022-03-31T07:53:35Z</time>
      </trkpt>
      <trkpt lat="47.529682" lon="1.7270173">
        <ele>130.0</ele>
        <time>2022-03-31T07:53:36Z</time>
      </trkpt>
      <trkpt lat="47.529682" lon="1.727034">
        <ele>130.0</ele>
        <time>2022-03-31T07:53:37Z</time>
      </trkpt>
      <trkpt lat="47.529686" lon="1.7270508">
        <ele>129.0</ele>
        <time>2022-03-31T07:53:38Z</time>
      </trkpt>
      <trkpt lat="47.52969" lon="1.7270685">
        <ele>129.0</ele>
        <time>2022-03-31T07:53:39Z</time>
      </trkpt>
      <trkpt lat="47.52969" lon="1.7270876">
        <ele>129.0</ele>
        <time>2022-03-31T07:53:40Z</time>
      </trkpt>
      <trkpt lat="47.52969" lon="1.7271036">
        <ele>129.0</ele>
        <time>2022-03-31T07:53:41Z</time>
      </trkpt>
      <trkpt lat="47.52969" lon="1.7271209">
        <ele>129.0</ele>
        <time>2022-03-31T07:53:42Z</time>
      </trkpt>
      <trkpt lat="47.52969" lon="1.7271414">
        <ele>129.0</ele>
        <time>2022-03-31T07:53:43Z</time>
      </trkpt>
      <trkpt lat="47.529686" lon="1.7271649">
        <ele>129.0</ele>
        <time>2022-03-31T07:53:44Z</time>
      </trkpt>
      <trkpt lat="47.529686" lon="1.7271838">
        <ele>129.0</ele>
        <time>2022-03-31T07:53:45Z</time>
      </trkpt>
      <trkpt lat="47.529686" lon="1.7272047">
        <ele>129.0</ele>
        <time>2022-03-31T07:53:46Z</time>
      </trkpt>
      <trkpt lat="47.529682" lon="1.7272272">
        <ele>129.0</ele>
        <time>2022-03-31T07:53:47Z</time>
      </trkpt>
      <trkpt lat="47.529682" lon="1.7272482">
        <ele>128.0</ele>
        <time>2022-03-31T07:53:48Z</time>
      </trkpt>
      <trkpt lat="47.529675" lon="1.7272674">
        <ele>128.0</ele>
        <time>2022-03-31T07:53:49Z</time>
      </trkpt>
      <trkpt lat="47.529675" lon="1.7272875">
        <ele>128.0</ele>
        <time>2022-03-31T07:53:50Z</time>
      </trkpt>
      <trkpt lat="47.529675" lon="1.7273074">
        <ele>128.0</ele>
        <time>2022-03-31T07:53:51Z</time>
      </trkpt>
      <trkpt lat="47.52967" lon="1.7273264">
        <ele>128.0</ele>
        <time>2022-03-31T07:53:52Z</time>
      </trkpt>
      <trkpt lat="47.52967" lon="1.7273479">
        <ele>127.0</ele>
        <time>2022-03-31T07:53:53Z</time>
      </trkpt>
      <trkpt lat="47.52967" lon="1.7273663">
        <ele>127.0</ele>
        <time>2022-03-31T07:53:54Z</time>
      </trkpt>
      <trkpt lat="47.52967" lon="1.7273871">
        <ele>127.0</ele>
        <time>2022-03-31T07:53:55Z</time>
      </trkpt>
      <trkpt lat="47.529667" lon="1.7274054">
        <ele>127.0</ele>
        <time>2022-03-31T07:53:56Z</time>
      </trkpt>
      <trkpt lat="47.529667" lon="1.7274213">
        <ele>128.0</ele>
        <time>2022-03-31T07:53:57Z</time>
      </trkpt>
      <trkpt lat="47.529667" lon="1.7274373">
        <ele>128.0</ele>
        <time>2022-03-31T07:53:58Z</time>
      </trkpt>
      <trkpt lat="47.529663" lon="1.7274543">
        <ele>128.0</ele>
        <time>2022-03-31T07:53:59Z</time>
      </trkpt>
      <trkpt lat="47.52966" lon="1.7274709">
        <ele>128.0</ele>
        <time>2022-03-31T07:54:00Z</time>
      </trkpt>
      <trkpt lat="47.52966" lon="1.7274876">
        <ele>128.0</ele>
        <time>2022-03-31T07:54:01Z</time>
      </trkpt>
      <trkpt lat="47.529655" lon="1.7275099">
        <ele>128.0</ele>
        <time>2022-03-31T07:54:02Z</time>
      </trkpt>
      <trkpt lat="47.52966" lon="1.7275329">
        <ele>128.0</ele>
        <time>2022-03-31T07:54:03Z</time>
      </trkpt>
      <trkpt lat="47.529663" lon="1.7275559">
        <ele>128.0</ele>
        <time>2022-03-31T07:54:04Z</time>
      </trkpt>
      <trkpt lat="47.529663" lon="1.7275745">
        <ele>128.0</ele>
        <time>2022-03-31T07:54:05Z</time>
      </trkpt>
      <trkpt lat="47.52966" lon="1.7275895">
        <ele>128.0</ele>
        <time>2022-03-31T07:54:06Z</time>
      </trkpt>
      <trkpt lat="47.529655" lon="1.727609">
        <ele>128.0</ele>
        <time>2022-03-31T07:54:07Z</time>
      </trkpt>
      <trkpt lat="47.529655" lon="1.7276293">
        <ele>128.0</ele>
        <time>2022-03-31T07:54:08Z</time>
      </trkpt>
      <trkpt lat="47.529655" lon="1.7276554">
        <ele>128.0</ele>
        <time>2022-03-31T07:54:09Z</time>
      </trkpt>
      <trkpt lat="47.529655" lon="1.7276728">
        <ele>128.0</ele>
        <time>2022-03-31T07:54:10Z</time>
      </trkpt>
      <trkpt lat="47.52966" lon="1.7276909">
        <ele>128.0</ele>
        <time>2022-03-31T07:54:11Z</time>
      </trkpt>
      <trkpt lat="47.52966" lon="1.7277135">
        <ele>128.0</ele>
        <time>2022-03-31T07:54:12Z</time>
      </trkpt>
      <trkpt lat="47.52966" lon="1.727731">
        <ele>127.0</ele>
        <time>2022-03-31T07:54:13Z</time>
      </trkpt>
      <trkpt lat="47.52966" lon="1.727748">
        <ele>127.0</ele>
        <time>2022-03-31T07:54:14Z</time>
      </trkpt>
      <trkpt lat="47.52966" lon="1.7277665">
        <ele>127.0</ele>
        <time>2022-03-31T07:54:15Z</time>
      </trkpt>
      <trkpt lat="47.52966" lon="1.7277862">
        <ele>127.0</ele>
        <time>2022-03-31T07:54:16Z</time>
      </trkpt>
      <trkpt lat="47.52966" lon="1.7277862">
        <ele>127.0</ele>
        <time>2022-03-31T07:54:17Z</time>
      </trkpt>
      <trkpt lat="47.52966" lon="1.7277862">
        <ele>127.0</ele>
        <time>2022-03-31T07:54:18Z</time>
      </trkpt>
      <trkpt lat="47.529655" lon="1.7278349">
        <ele>128.0</ele>
        <time>2022-03-31T07:54:19Z</time>
      </trkpt>
      <trkpt lat="47.529655" lon="1.7278547">
        <ele>128.0</ele>
        <time>2022-03-31T07:54:20Z</time>
      </trkpt>
      <trkpt lat="47.529655" lon="1.7278751">
        <ele>129.0</ele>
        <time>2022-03-31T07:54:21Z</time>
      </trkpt>
      <trkpt lat="47.529655" lon="1.727893">
        <ele>129.0</ele>
        <time>2022-03-31T07:54:22Z</time>
      </trkpt>
      <trkpt lat="47.529655" lon="1.7279139">
        <ele>129.0</ele>
        <time>2022-03-31T07:54:23Z</time>
      </trkpt>
      <trkpt lat="47.529655" lon="1.7279314">
        <ele>130.0</ele>
        <time>2022-03-31T07:54:24Z</time>
      </trkpt>
      <trkpt lat="47.529655" lon="1.7279527">
        <ele>130.0</ele>
        <time>2022-03-31T07:54:25Z</time>
      </trkpt>
      <trkpt lat="47.52965" lon="1.7279689">
        <ele>130.0</ele>
        <time>2022-03-31T07:54:26Z</time>
      </trkpt>
      <trkpt lat="47.529648" lon="1.7279885">
        <ele>130.0</ele>
        <time>2022-03-31T07:54:27Z</time>
      </trkpt>
      <trkpt lat="47.529648" lon="1.7280042">
        <ele>130.0</ele>
        <time>2022-03-31T07:54:28Z</time>
      </trkpt>
      <trkpt lat="47.529648" lon="1.7280226">
        <ele>130.0</ele>
        <time>2022-03-31T07:54:29Z</time>
      </trkpt>
      <trkpt lat="47.529648" lon="1.7280458">
        <ele>130.0</ele>
        <time>2022-03-31T07:54:30Z</time>
      </trkpt>
      <trkpt lat="47.529648" lon="1.7280661">
        <ele>130.0</ele>
        <time>2022-03-31T07:54:31Z</time>
      </trkpt>
      <trkpt lat="47.529644" lon="1.7280904">
        <ele>130.0</ele>
        <time>2022-03-31T07:54:32Z</time>
      </trkpt>
      <trkpt lat="47.529648" lon="1.7281126">
        <ele>129.0</ele>
        <time>2022-03-31T07:54:33Z</time>
      </trkpt>
      <trkpt lat="47.529648" lon="1.7281343">
        <ele>129.0</ele>
        <time>2022-03-31T07:54:34Z</time>
      </trkpt>
      <trkpt lat="47.529648" lon="1.7281556">
        <ele>129.0</ele>
        <time>2022-03-31T07:54:35Z</time>
      </trkpt>
      <trkpt lat="47.529644" lon="1.728173">
        <ele>129.0</ele>
        <time>2022-03-31T07:54:36Z</time>
      </trkpt>
      <trkpt lat="47.529644" lon="1.7281929">
        <ele>130.0</ele>
        <time>2022-03-31T07:54:37Z</time>
      </trkpt>
      <trkpt lat="47.529644" lon="1.7281929">
        <ele>130.0</ele>
        <time>2022-03-31T07:54:38Z</time>
      </trkpt>
      <trkpt lat="47.529644" lon="1.7281929">
        <ele>130.0</ele>
        <time>2022-03-31T07:54:39Z</time>
      </trkpt>
      <trkpt lat="47.529633" lon="1.7282355">
        <ele>129.0</ele>
        <time>2022-03-31T07:54:40Z</time>
      </trkpt>
      <trkpt lat="47.52963" lon="1.7282485">
        <ele>129.0</ele>
        <time>2022-03-31T07:54:41Z</time>
      </trkpt>
      <trkpt lat="47.52963" lon="1.7282661">
        <ele>129.0</ele>
        <time>2022-03-31T07:54:42Z</time>
      </trkpt>
      <trkpt lat="47.529633" lon="1.7282857">
        <ele>130.0</ele>
        <time>2022-03-31T07:54:43Z</time>
      </trkpt>
      <trkpt lat="47.529633" lon="1.7282857">
        <ele>130.0</ele>
        <time>2022-03-31T07:54:44Z</time>
      </trkpt>
      <trkpt lat="47.529633" lon="1.7282857">
        <ele>130.0</ele>
        <time>2022-03-31T07:54:45Z</time>
      </trkpt>
      <trkpt lat="47.529633" lon="1.7283351">
        <ele>131.0</ele>
        <time>2022-03-31T07:54:46Z</time>
      </trkpt>
      <trkpt lat="47.52963" lon="1.7283537">
        <ele>131.0</ele>
        <time>2022-03-31T07:54:47Z</time>
      </trkpt>
      <trkpt lat="47.529625" lon="1.7283711">
        <ele>131.0</ele>
        <time>2022-03-31T07:54:48Z</time>
      </trkpt>
      <trkpt lat="47.52962" lon="1.7283902">
        <ele>131.0</ele>
        <time>2022-03-31T07:54:49Z</time>
      </trkpt>
      <trkpt lat="47.52962" lon="1.7283902">
        <ele>131.0</ele>
        <time>2022-03-31T07:54:50Z</time>
      </trkpt>
      <trkpt lat="47.529613" lon="1.7284311">
        <ele>131.0</ele>
        <time>2022-03-31T07:54:51Z</time>
      </trkpt>
      <trkpt lat="47.529613" lon="1.7284534">
        <ele>131.0</ele>
        <time>2022-03-31T07:54:52Z</time>
      </trkpt>
      <trkpt lat="47.529602" lon="1.7284728">
        <ele>131.0</ele>
        <time>2022-03-31T07:54:53Z</time>
      </trkpt>
      <trkpt lat="47.529602" lon="1.7284921">
        <ele>131.0</ele>
        <time>2022-03-31T07:54:54Z</time>
      </trkpt>
      <trkpt lat="47.5296" lon="1.7285103">
        <ele>132.0</ele>
        <time>2022-03-31T07:54:55Z</time>
      </trkpt>
      <trkpt lat="47.52959" lon="1.7285315">
        <ele>132.0</ele>
        <time>2022-03-31T07:54:56Z</time>
      </trkpt>
      <trkpt lat="47.52959" lon="1.7285519">
        <ele>132.0</ele>
        <time>2022-03-31T07:54:57Z</time>
      </trkpt>
      <trkpt lat="47.529587" lon="1.7285755">
        <ele>132.0</ele>
        <time>2022-03-31T07:54:58Z</time>
      </trkpt>
      <trkpt lat="47.529583" lon="1.7285976">
        <ele>132.0</ele>
        <time>2022-03-31T07:54:59Z</time>
      </trkpt>
      <trkpt lat="47.529583" lon="1.7286216">
        <ele>132.0</ele>
        <time>2022-03-31T07:55:00Z</time>
      </trkpt>
      <trkpt lat="47.529583" lon="1.7286409">
        <ele>132.0</ele>
        <time>2022-03-31T07:55:01Z</time>
      </trkpt>
      <trkpt lat="47.529583" lon="1.7286556">
        <ele>132.0</ele>
        <time>2022-03-31T07:55:02Z</time>
      </trkpt>
      <trkpt lat="47.52958" lon="1.728673">
        <ele>132.0</ele>
        <time>2022-03-31T07:55:03Z</time>
      </trkpt>
      <trkpt lat="47.529575" lon="1.7286884">
        <ele>131.0</ele>
        <time>2022-03-31T07:55:04Z</time>
      </trkpt>
      <trkpt lat="47.52957" lon="1.728702">
        <ele>131.0</ele>
        <time>2022-03-31T07:55:05Z</time>
      </trkpt>
      <trkpt lat="47.52957" lon="1.7287178">
        <ele>131.0</ele>
        <time>2022-03-31T07:55:06Z</time>
      </trkpt>
      <trkpt lat="47.529568" lon="1.7287315">
        <ele>132.0</ele>
        <time>2022-03-31T07:55:07Z</time>
      </trkpt>
      <trkpt lat="47.529564" lon="1.7287451">
        <ele>131.0</ele>
        <time>2022-03-31T07:55:08Z</time>
      </trkpt>
      <trkpt lat="47.529564" lon="1.7287598">
        <ele>132.0</ele>
        <time>2022-03-31T07:55:09Z</time>
      </trkpt>
      <trkpt lat="47.52956" lon="1.7287753">
        <ele>132.0</ele>
        <time>2022-03-31T07:55:10Z</time>
      </trkpt>
      <trkpt lat="47.529552" lon="1.7287903">
        <ele>132.0</ele>
        <time>2022-03-31T07:55:11Z</time>
      </trkpt>
      <trkpt lat="47.52955" lon="1.7288041">
        <ele>132.0</ele>
        <time>2022-03-31T07:55:12Z</time>
      </trkpt>
      <trkpt lat="47.529545" lon="1.7288216">
        <ele>132.0</ele>
        <time>2022-03-31T07:55:13Z</time>
      </trkpt>
      <trkpt lat="47.52954" lon="1.7288435">
        <ele>132.0</ele>
        <time>2022-03-31T07:55:14Z</time>
      </trkpt>
      <trkpt lat="47.52954" lon="1.7288609">
        <ele>132.0</ele>
        <time>2022-03-31T07:55:15Z</time>
      </trkpt>
      <trkpt lat="47.529533" lon="1.7288805">
        <ele>132.0</ele>
        <time>2022-03-31T07:55:16Z</time>
      </trkpt>
      <trkpt lat="47.529533" lon="1.7288805">
        <ele>132.0</ele>
        <time>2022-03-31T07:55:17Z</time>
      </trkpt>
      <trkpt lat="47.529533" lon="1.7288805">
        <ele>132.0</ele>
        <time>2022-03-31T07:55:18Z</time>
      </trkpt>
      <trkpt lat="47.52953" lon="1.7289158">
        <ele>131.0</ele>
        <time>2022-03-31T07:55:19Z</time>
      </trkpt>
      <trkpt lat="47.529522" lon="1.7289317">
        <ele>131.0</ele>
        <time>2022-03-31T07:55:20Z</time>
      </trkpt>
      <trkpt lat="47.529526" lon="1.7289509">
        <ele>131.0</ele>
        <time>2022-03-31T07:55:21Z</time>
      </trkpt>
      <trkpt lat="47.529522" lon="1.7289712">
        <ele>131.0</ele>
        <time>2022-03-31T07:55:22Z</time>
      </trkpt>
      <trkpt lat="47.52952" lon="1.7289944">
        <ele>131.0</ele>
        <time>2022-03-31T07:55:23Z</time>
      </trkpt>
      <trkpt lat="47.52952" lon="1.7290154">
        <ele>131.0</ele>
        <time>2022-03-31T07:55:24Z</time>
      </trkpt>
      <trkpt lat="47.52952" lon="1.7290373">
        <ele>131.0</ele>
        <time>2022-03-31T07:55:25Z</time>
      </trkpt>
      <trkpt lat="47.529514" lon="1.7290593">
        <ele>131.0</ele>
        <time>2022-03-31T07:55:26Z</time>
      </trkpt>
      <trkpt lat="47.529514" lon="1.7290797">
        <ele>132.0</ele>
        <time>2022-03-31T07:55:27Z</time>
      </trkpt>
      <trkpt lat="47.52951" lon="1.7290992">
        <ele>132.0</ele>
        <time>2022-03-31T07:55:28Z</time>
      </trkpt>
      <trkpt lat="47.52951" lon="1.729118">
        <ele>132.0</ele>
        <time>2022-03-31T07:55:29Z</time>
      </trkpt>
      <trkpt lat="47.52951" lon="1.7291353">
        <ele>132.0</ele>
        <time>2022-03-31T07:55:30Z</time>
      </trkpt>
      <trkpt lat="47.529507" lon="1.7291542">
        <ele>132.0</ele>
        <time>2022-03-31T07:55:31Z</time>
      </trkpt>
      <trkpt lat="47.529503" lon="1.7291778">
        <ele>133.0</ele>
        <time>2022-03-31T07:55:32Z</time>
      </trkpt>
      <trkpt lat="47.529503" lon="1.7291994">
        <ele>133.0</ele>
        <time>2022-03-31T07:55:33Z</time>
      </trkpt>
      <trkpt lat="47.529503" lon="1.7292219">
        <ele>133.0</ele>
        <time>2022-03-31T07:55:34Z</time>
      </trkpt>
      <trkpt lat="47.529503" lon="1.7292403">
        <ele>134.0</ele>
        <time>2022-03-31T07:55:35Z</time>
      </trkpt>
      <trkpt lat="47.5295" lon="1.7292591">
        <ele>134.0</ele>
        <time>2022-03-31T07:55:36Z</time>
      </trkpt>
      <trkpt lat="47.529495" lon="1.7292801">
        <ele>134.0</ele>
        <time>2022-03-31T07:55:37Z</time>
      </trkpt>
      <trkpt lat="47.52949" lon="1.7292991">
        <ele>134.0</ele>
        <time>2022-03-31T07:55:38Z</time>
      </trkpt>
      <trkpt lat="47.529488" lon="1.7293186">
        <ele>135.0</ele>
        <time>2022-03-31T07:55:39Z</time>
      </trkpt>
      <trkpt lat="47.529484" lon="1.7293358">
        <ele>135.0</ele>
        <time>2022-03-31T07:55:40Z</time>
      </trkpt>
      <trkpt lat="47.529472" lon="1.7293556">
        <ele>136.0</ele>
        <time>2022-03-31T07:55:41Z</time>
      </trkpt>
      <trkpt lat="47.52947" lon="1.7293755">
        <ele>136.0</ele>
        <time>2022-03-31T07:55:42Z</time>
      </trkpt>
      <trkpt lat="47.529457" lon="1.7293923">
        <ele>135.0</ele>
        <time>2022-03-31T07:55:43Z</time>
      </trkpt>
      <trkpt lat="47.52945" lon="1.7294106">
        <ele>136.0</ele>
        <time>2022-03-31T07:55:44Z</time>
      </trkpt>
      <trkpt lat="47.529438" lon="1.7294276">
        <ele>135.0</ele>
        <time>2022-03-31T07:55:45Z</time>
      </trkpt>
      <trkpt lat="47.529427" lon="1.729444">
        <ele>135.0</ele>
        <time>2022-03-31T07:55:46Z</time>
      </trkpt>
      <trkpt lat="47.529415" lon="1.7294639">
        <ele>135.0</ele>
        <time>2022-03-31T07:55:47Z</time>
      </trkpt>
      <trkpt lat="47.5294" lon="1.7294775">
        <ele>135.0</ele>
        <time>2022-03-31T07:55:48Z</time>
      </trkpt>
      <trkpt lat="47.52939" lon="1.7294941">
        <ele>136.0</ele>
        <time>2022-03-31T07:55:49Z</time>
      </trkpt>
      <trkpt lat="47.529377" lon="1.7295077">
        <ele>136.0</ele>
        <time>2022-03-31T07:55:50Z</time>
      </trkpt>
      <trkpt lat="47.529366" lon="1.7295195">
        <ele>136.0</ele>
        <time>2022-03-31T07:55:51Z</time>
      </trkpt>
      <trkpt lat="47.529358" lon="1.7295309">
        <ele>135.0</ele>
        <time>2022-03-31T07:55:52Z</time>
      </trkpt>
      <trkpt lat="47.52935" lon="1.729543">
        <ele>135.0</ele>
        <time>2022-03-31T07:55:53Z</time>
      </trkpt>
      <trkpt lat="47.529346" lon="1.7295557">
        <ele>135.0</ele>
        <time>2022-03-31T07:55:54Z</time>
      </trkpt>
      <trkpt lat="47.52934" lon="1.7295712">
        <ele>135.0</ele>
        <time>2022-03-31T07:55:55Z</time>
      </trkpt>
      <trkpt lat="47.52933" lon="1.7295859">
        <ele>135.0</ele>
        <time>2022-03-31T07:55:56Z</time>
      </trkpt>
      <trkpt lat="47.529324" lon="1.7296028">
        <ele>135.0</ele>
        <time>2022-03-31T07:55:57Z</time>
      </trkpt>
      <trkpt lat="47.52932" lon="1.7296188">
        <ele>134.0</ele>
        <time>2022-03-31T07:55:58Z</time>
      </trkpt>
      <trkpt lat="47.529312" lon="1.7296356">
        <ele>134.0</ele>
        <time>2022-03-31T07:55:59Z</time>
      </trkpt>
      <trkpt lat="47.52931" lon="1.7296524">
        <ele>134.0</ele>
        <time>2022-03-31T07:56:00Z</time>
      </trkpt>
      <trkpt lat="47.529305" lon="1.7296702">
        <ele>134.0</ele>
        <time>2022-03-31T07:56:01Z</time>
      </trkpt>
      <trkpt lat="47.5293" lon="1.7296909">
        <ele>134.0</ele>
        <time>2022-03-31T07:56:02Z</time>
      </trkpt>
      <trkpt lat="47.529293" lon="1.7297096">
        <ele>133.0</ele>
        <time>2022-03-31T07:56:03Z</time>
      </trkpt>
      <trkpt lat="47.52929" lon="1.7297312">
        <ele>133.0</ele>
        <time>2022-03-31T07:56:04Z</time>
      </trkpt>
      <trkpt lat="47.52929" lon="1.7297531">
        <ele>133.0</ele>
        <time>2022-03-31T07:56:05Z</time>
      </trkpt>
      <trkpt lat="47.52929" lon="1.7297751">
        <ele>134.0</ele>
        <time>2022-03-31T07:56:06Z</time>
      </trkpt>
      <trkpt lat="47.52929" lon="1.7297974">
        <ele>134.0</ele>
        <time>2022-03-31T07:56:07Z</time>
      </trkpt>
      <trkpt lat="47.529285" lon="1.7298186">
        <ele>134.0</ele>
        <time>2022-03-31T07:56:08Z</time>
      </trkpt>
      <trkpt lat="47.52928" lon="1.7298403">
        <ele>135.0</ele>
        <time>2022-03-31T07:56:09Z</time>
      </trkpt>
      <trkpt lat="47.529278" lon="1.7298615">
        <ele>135.0</ele>
        <time>2022-03-31T07:56:10Z</time>
      </trkpt>
      <trkpt lat="47.529274" lon="1.7298824">
        <ele>135.0</ele>
        <time>2022-03-31T07:56:11Z</time>
      </trkpt>
      <trkpt lat="47.52927" lon="1.7299021">
        <ele>135.0</ele>
        <time>2022-03-31T07:56:12Z</time>
      </trkpt>
      <trkpt lat="47.52927" lon="1.7299222">
        <ele>135.0</ele>
        <time>2022-03-31T07:56:13Z</time>
      </trkpt>
      <trkpt lat="47.529266" lon="1.7299408">
        <ele>136.0</ele>
        <time>2022-03-31T07:56:14Z</time>
      </trkpt>
      <trkpt lat="47.529263" lon="1.7299628">
        <ele>136.0</ele>
        <time>2022-03-31T07:56:15Z</time>
      </trkpt>
      <trkpt lat="47.529255" lon="1.7299807">
        <ele>136.0</ele>
        <time>2022-03-31T07:56:16Z</time>
      </trkpt>
      <trkpt lat="47.52925" lon="1.7299999">
        <ele>136.0</ele>
        <time>2022-03-31T07:56:17Z</time>
      </trkpt>
      <trkpt lat="47.529247" lon="1.7300193">
        <ele>136.0</ele>
        <time>2022-03-31T07:56:18Z</time>
      </trkpt>
      <trkpt lat="47.529243" lon="1.7300371">
        <ele>137.0</ele>
        <time>2022-03-31T07:56:19Z</time>
      </trkpt>
      <trkpt lat="47.529243" lon="1.7300526">
        <ele>137.0</ele>
        <time>2022-03-31T07:56:20Z</time>
      </trkpt>
      <trkpt lat="47.529243" lon="1.7300681">
        <ele>137.0</ele>
        <time>2022-03-31T07:56:21Z</time>
      </trkpt>
      <trkpt lat="47.529243" lon="1.7300928">
        <ele>137.0</ele>
        <time>2022-03-31T07:56:22Z</time>
      </trkpt>
      <trkpt lat="47.529243" lon="1.7301172">
        <ele>137.0</ele>
        <time>2022-03-31T07:56:23Z</time>
      </trkpt>
      <trkpt lat="47.52924" lon="1.7301419">
        <ele>138.0</ele>
        <time>2022-03-31T07:56:24Z</time>
      </trkpt>
      <trkpt lat="47.52924" lon="1.7301656">
        <ele>138.0</ele>
        <time>2022-03-31T07:56:25Z</time>
      </trkpt>
      <trkpt lat="47.52924" lon="1.7301906">
        <ele>138.0</ele>
        <time>2022-03-31T07:56:26Z</time>
      </trkpt>
      <trkpt lat="47.529236" lon="1.7302155">
        <ele>139.0</ele>
        <time>2022-03-31T07:56:27Z</time>
      </trkpt>
      <trkpt lat="47.52924" lon="1.7302408">
        <ele>139.0</ele>
        <time>2022-03-31T07:56:28Z</time>
      </trkpt>
      <trkpt lat="47.529243" lon="1.7302643">
        <ele>139.0</ele>
        <time>2022-03-31T07:56:29Z</time>
      </trkpt>
      <trkpt lat="47.529247" lon="1.7302868">
        <ele>139.0</ele>
        <time>2022-03-31T07:56:30Z</time>
      </trkpt>
      <trkpt lat="47.529247" lon="1.7303091">
        <ele>139.0</ele>
        <time>2022-03-31T07:56:31Z</time>
      </trkpt>
      <trkpt lat="47.52925" lon="1.7303319">
        <ele>140.0</ele>
        <time>2022-03-31T07:56:32Z</time>
      </trkpt>
      <trkpt lat="47.529247" lon="1.7303565">
        <ele>140.0</ele>
        <time>2022-03-31T07:56:33Z</time>
      </trkpt>
      <trkpt lat="47.52925" lon="1.7303808">
        <ele>140.0</ele>
        <time>2022-03-31T07:56:34Z</time>
      </trkpt>
      <trkpt lat="47.529255" lon="1.7304013">
        <ele>140.0</ele>
        <time>2022-03-31T07:56:35Z</time>
      </trkpt>
      <trkpt lat="47.529255" lon="1.7304202">
        <ele>140.0</ele>
        <time>2022-03-31T07:56:36Z</time>
      </trkpt>
      <trkpt lat="47.529255" lon="1.7304393">
        <ele>141.0</ele>
        <time>2022-03-31T07:56:37Z</time>
      </trkpt>
      <trkpt lat="47.529255" lon="1.730458">
        <ele>141.0</ele>
        <time>2022-03-31T07:56:38Z</time>
      </trkpt>
      <trkpt lat="47.52926" lon="1.730475">
        <ele>142.0</ele>
        <time>2022-03-31T07:56:39Z</time>
      </trkpt>
      <trkpt lat="47.529255" lon="1.7304885">
        <ele>142.0</ele>
        <time>2022-03-31T07:56:40Z</time>
      </trkpt>
      <trkpt lat="47.529255" lon="1.7305015">
        <ele>142.0</ele>
        <time>2022-03-31T07:56:41Z</time>
      </trkpt>
      <trkpt lat="47.52926" lon="1.7305174">
        <ele>142.0</ele>
        <time>2022-03-31T07:56:42Z</time>
      </trkpt>
      <trkpt lat="47.529255" lon="1.7305286">
        <ele>141.0</ele>
        <time>2022-03-31T07:56:43Z</time>
      </trkpt>
      <trkpt lat="47.52926" lon="1.7305461">
        <ele>141.0</ele>
        <time>2022-03-31T07:56:44Z</time>
      </trkpt>
      <trkpt lat="47.52926" lon="1.7305677">
        <ele>141.0</ele>
        <time>2022-03-31T07:56:45Z</time>
      </trkpt>
      <trkpt lat="47.52926" lon="1.7305924">
        <ele>141.0</ele>
        <time>2022-03-31T07:56:46Z</time>
      </trkpt>
      <trkpt lat="47.529263" lon="1.730617">
        <ele>141.0</ele>
        <time>2022-03-31T07:56:47Z</time>
      </trkpt>
      <trkpt lat="47.529266" lon="1.7306328">
        <ele>140.0</ele>
        <time>2022-03-31T07:56:48Z</time>
      </trkpt>
      <trkpt lat="47.529266" lon="1.7306472">
        <ele>140.0</ele>
        <time>2022-03-31T07:56:49Z</time>
      </trkpt>
      <trkpt lat="47.52927" lon="1.7306675">
        <ele>140.0</ele>
        <time>2022-03-31T07:56:50Z</time>
      </trkpt>
      <trkpt lat="47.52927" lon="1.7306842">
        <ele>140.0</ele>
        <time>2022-03-31T07:56:51Z</time>
      </trkpt>
      <trkpt lat="47.52927" lon="1.7307009">
        <ele>140.0</ele>
        <time>2022-03-31T07:56:52Z</time>
      </trkpt>
      <trkpt lat="47.52927" lon="1.730715">
        <ele>140.0</ele>
        <time>2022-03-31T07:56:53Z</time>
      </trkpt>
      <trkpt lat="47.529274" lon="1.730734">
        <ele>140.0</ele>
        <time>2022-03-31T07:56:54Z</time>
      </trkpt>
      <trkpt lat="47.52927" lon="1.7307466">
        <ele>140.0</ele>
        <time>2022-03-31T07:56:55Z</time>
      </trkpt>
      <trkpt lat="47.52927" lon="1.7307638">
        <ele>140.0</ele>
        <time>2022-03-31T07:56:56Z</time>
      </trkpt>
      <trkpt lat="47.529266" lon="1.7307796">
        <ele>140.0</ele>
        <time>2022-03-31T07:56:57Z</time>
      </trkpt>
      <trkpt lat="47.529266" lon="1.7307962">
        <ele>140.0</ele>
        <time>2022-03-31T07:56:58Z</time>
      </trkpt>
      <trkpt lat="47.529266" lon="1.7308127">
        <ele>139.0</ele>
        <time>2022-03-31T07:56:59Z</time>
      </trkpt>
      <trkpt lat="47.52927" lon="1.7308306">
        <ele>139.0</ele>
        <time>2022-03-31T07:57:00Z</time>
      </trkpt>
      <trkpt lat="47.52927" lon="1.7308306">
        <ele>139.0</ele>
        <time>2022-03-31T07:57:01Z</time>
      </trkpt>
      <trkpt lat="47.52927" lon="1.7308306">
        <ele>139.0</ele>
        <time>2022-03-31T07:57:02Z</time>
      </trkpt>
      <trkpt lat="47.52927" lon="1.7308719">
        <ele>138.0</ele>
        <time>2022-03-31T07:57:03Z</time>
      </trkpt>
      <trkpt lat="47.52927" lon="1.7308849">
        <ele>138.0</ele>
        <time>2022-03-31T07:57:04Z</time>
      </trkpt>
      <trkpt lat="47.52927" lon="1.7309016">
        <ele>138.0</ele>
        <time>2022-03-31T07:57:05Z</time>
      </trkpt>
      <trkpt lat="47.52927" lon="1.7309194">
        <ele>138.0</ele>
        <time>2022-03-31T07:57:06Z</time>
      </trkpt>
      <trkpt lat="47.52927" lon="1.7309194">
        <ele>138.0</ele>
        <time>2022-03-31T07:57:07Z</time>
      </trkpt>
      <trkpt lat="47.52927" lon="1.7309194">
        <ele>138.0</ele>
        <time>2022-03-31T07:57:08Z</time>
      </trkpt>
      <trkpt lat="47.529263" lon="1.7309594">
        <ele>137.0</ele>
        <time>2022-03-31T07:57:09Z</time>
      </trkpt>
      <trkpt lat="47.52926" lon="1.7309787">
        <ele>137.0</ele>
        <time>2022-03-31T07:57:10Z</time>
      </trkpt>
      <trkpt lat="47.52926" lon="1.7309943">
        <ele>137.0</ele>
        <time>2022-03-31T07:57:11Z</time>
      </trkpt>
      <trkpt lat="47.52926" lon="1.7310134">
        <ele>137.0</ele>
        <time>2022-03-31T07:57:12Z</time>
      </trkpt>
      <trkpt lat="47.529255" lon="1.731033">
        <ele>136.0</ele>
        <time>2022-03-31T07:57:13Z</time>
      </trkpt>
      <trkpt lat="47.52925" lon="1.7310495">
        <ele>136.0</ele>
        <time>2022-03-31T07:57:14Z</time>
      </trkpt>
      <trkpt lat="47.529255" lon="1.731064">
        <ele>136.0</ele>
        <time>2022-03-31T07:57:15Z</time>
      </trkpt>
      <trkpt lat="47.52926" lon="1.7310787">
        <ele>136.0</ele>
        <time>2022-03-31T07:57:16Z</time>
      </trkpt>
      <trkpt lat="47.52926" lon="1.7310954">
        <ele>135.0</ele>
        <time>2022-03-31T07:57:17Z</time>
      </trkpt>
      <trkpt lat="47.529255" lon="1.7311138">
        <ele>135.0</ele>
        <time>2022-03-31T07:57:18Z</time>
      </trkpt>
      <trkpt lat="47.529255" lon="1.7311302">
        <ele>134.0</ele>
        <time>2022-03-31T07:57:19Z</time>
      </trkpt>
      <trkpt lat="47.52925" lon="1.7311466">
        <ele>134.0</ele>
        <time>2022-03-31T07:57:20Z</time>
      </trkpt>
      <trkpt lat="47.529247" lon="1.731164">
        <ele>134.0</ele>
        <time>2022-03-31T07:57:21Z</time>
      </trkpt>
      <trkpt lat="47.529247" lon="1.7311803">
        <ele>133.0</ele>
        <time>2022-03-31T07:57:22Z</time>
      </trkpt>
      <trkpt lat="47.529247" lon="1.7311803">
        <ele>133.0</ele>
        <time>2022-03-31T07:57:23Z</time>
      </trkpt>
      <trkpt lat="47.529247" lon="1.7311803">
        <ele>133.0</ele>
        <time>2022-03-31T07:57:24Z</time>
      </trkpt>
      <trkpt lat="47.529243" lon="1.7312225">
        <ele>133.0</ele>
        <time>2022-03-31T07:57:25Z</time>
      </trkpt>
      <trkpt lat="47.529243" lon="1.7312376">
        <ele>133.0</ele>
        <time>2022-03-31T07:57:26Z</time>
      </trkpt>
      <trkpt lat="47.52924" lon="1.7312523">
        <ele>133.0</ele>
        <time>2022-03-31T07:57:27Z</time>
      </trkpt>
      <trkpt lat="47.52924" lon="1.7312694">
        <ele>133.0</ele>
        <time>2022-03-31T07:57:28Z</time>
      </trkpt>
      <trkpt lat="47.52924" lon="1.7312882">
        <ele>133.0</ele>
        <time>2022-03-31T07:57:29Z</time>
      </trkpt>
      <trkpt lat="47.52924" lon="1.7313069">
        <ele>133.0</ele>
        <time>2022-03-31T07:57:30Z</time>
      </trkpt>
      <trkpt lat="47.529243" lon="1.7313229">
        <ele>133.0</ele>
        <time>2022-03-31T07:57:31Z</time>
      </trkpt>
      <trkpt lat="47.52924" lon="1.7313435">
        <ele>133.0</ele>
        <time>2022-03-31T07:57:32Z</time>
      </trkpt>
      <trkpt lat="47.529236" lon="1.731368">
        <ele>133.0</ele>
        <time>2022-03-31T07:57:33Z</time>
      </trkpt>
      <trkpt lat="47.529232" lon="1.7313918">
        <ele>134.0</ele>
        <time>2022-03-31T07:57:34Z</time>
      </trkpt>
      <trkpt lat="47.529236" lon="1.7314166">
        <ele>133.0</ele>
        <time>2022-03-31T07:57:35Z</time>
      </trkpt>
      <trkpt lat="47.529232" lon="1.7314413">
        <ele>133.0</ele>
        <time>2022-03-31T07:57:36Z</time>
      </trkpt>
      <trkpt lat="47.52923" lon="1.731462">
        <ele>134.0</ele>
        <time>2022-03-31T07:57:37Z</time>
      </trkpt>
      <trkpt lat="47.52923" lon="1.7314845">
        <ele>134.0</ele>
        <time>2022-03-31T07:57:38Z</time>
      </trkpt>
      <trkpt lat="47.529224" lon="1.7315092">
        <ele>134.0</ele>
        <time>2022-03-31T07:57:39Z</time>
      </trkpt>
      <trkpt lat="47.529224" lon="1.7315327">
        <ele>134.0</ele>
        <time>2022-03-31T07:57:40Z</time>
      </trkpt>
      <trkpt lat="47.529224" lon="1.7315574">
        <ele>135.0</ele>
        <time>2022-03-31T07:57:41Z</time>
      </trkpt>
      <trkpt lat="47.52922" lon="1.7315797">
        <ele>135.0</ele>
        <time>2022-03-31T07:57:42Z</time>
      </trkpt>
      <trkpt lat="47.529224" lon="1.7315984">
        <ele>135.0</ele>
        <time>2022-03-31T07:57:43Z</time>
      </trkpt>
      <trkpt lat="47.529224" lon="1.7316176">
        <ele>136.0</ele>
        <time>2022-03-31T07:57:44Z</time>
      </trkpt>
      <trkpt lat="47.529224" lon="1.7316371">
        <ele>136.0</ele>
        <time>2022-03-31T07:57:45Z</time>
      </trkpt>
      <trkpt lat="47.529224" lon="1.7316533">
        <ele>135.0</ele>
        <time>2022-03-31T07:57:46Z</time>
      </trkpt>
      <trkpt lat="47.529224" lon="1.7316704">
        <ele>135.0</ele>
        <time>2022-03-31T07:57:47Z</time>
      </trkpt>
      <trkpt lat="47.52922" lon="1.7316873">
        <ele>135.0</ele>
        <time>2022-03-31T07:57:48Z</time>
      </trkpt>
      <trkpt lat="47.52922" lon="1.731698">
        <ele>135.0</ele>
        <time>2022-03-31T07:57:49Z</time>
      </trkpt>
      <trkpt lat="47.529217" lon="1.7317172">
        <ele>135.0</ele>
        <time>2022-03-31T07:57:50Z</time>
      </trkpt>
      <trkpt lat="47.52922" lon="1.7317419">
        <ele>136.0</ele>
        <time>2022-03-31T07:57:51Z</time>
      </trkpt>
      <trkpt lat="47.529217" lon="1.7317625">
        <ele>136.0</ele>
        <time>2022-03-31T07:57:52Z</time>
      </trkpt>
      <trkpt lat="47.529217" lon="1.7317821">
        <ele>136.0</ele>
        <time>2022-03-31T07:57:53Z</time>
      </trkpt>
      <trkpt lat="47.529217" lon="1.7318059">
        <ele>136.0</ele>
        <time>2022-03-31T07:57:54Z</time>
      </trkpt>
      <trkpt lat="47.529217" lon="1.7318248">
        <ele>137.0</ele>
        <time>2022-03-31T07:57:55Z</time>
      </trkpt>
      <trkpt lat="47.529217" lon="1.731841">
        <ele>138.0</ele>
        <time>2022-03-31T07:57:56Z</time>
      </trkpt>
      <trkpt lat="47.529217" lon="1.7318581">
        <ele>137.0</ele>
        <time>2022-03-31T07:57:57Z</time>
      </trkpt>
      <trkpt lat="47.529217" lon="1.7318771">
        <ele>137.0</ele>
        <time>2022-03-31T07:57:58Z</time>
      </trkpt>
      <trkpt lat="47.52922" lon="1.731897">
        <ele>137.0</ele>
        <time>2022-03-31T07:57:59Z</time>
      </trkpt>
      <trkpt lat="47.529217" lon="1.7319175">
        <ele>137.0</ele>
        <time>2022-03-31T07:58:00Z</time>
      </trkpt>
      <trkpt lat="47.529217" lon="1.7319375">
        <ele>138.0</ele>
        <time>2022-03-31T07:58:01Z</time>
      </trkpt>
      <trkpt lat="47.529213" lon="1.7319561">
        <ele>137.0</ele>
        <time>2022-03-31T07:58:02Z</time>
      </trkpt>
      <trkpt lat="47.52921" lon="1.7319751">
        <ele>138.0</ele>
        <time>2022-03-31T07:58:03Z</time>
      </trkpt>
      <trkpt lat="47.529205" lon="1.731991">
        <ele>138.0</ele>
        <time>2022-03-31T07:58:04Z</time>
      </trkpt>
      <trkpt lat="47.5292" lon="1.7320043">
        <ele>138.0</ele>
        <time>2022-03-31T07:58:05Z</time>
      </trkpt>
      <trkpt lat="47.529198" lon="1.7320237">
        <ele>138.0</ele>
        <time>2022-03-31T07:58:06Z</time>
      </trkpt>
      <trkpt lat="47.529186" lon="1.7320424">
        <ele>138.0</ele>
        <time>2022-03-31T07:58:07Z</time>
      </trkpt>
      <trkpt lat="47.529186" lon="1.7320594">
        <ele>137.0</ele>
        <time>2022-03-31T07:58:08Z</time>
      </trkpt>
      <trkpt lat="47.529186" lon="1.7320789">
        <ele>137.0</ele>
        <time>2022-03-31T07:58:09Z</time>
      </trkpt>
      <trkpt lat="47.529186" lon="1.7321018">
        <ele>137.0</ele>
        <time>2022-03-31T07:58:10Z</time>
      </trkpt>
      <trkpt lat="47.529186" lon="1.73212">
        <ele>137.0</ele>
        <time>2022-03-31T07:58:11Z</time>
      </trkpt>
      <trkpt lat="47.52919" lon="1.7321391">
        <ele>137.0</ele>
        <time>2022-03-31T07:58:12Z</time>
      </trkpt>
      <trkpt lat="47.52919" lon="1.7321538">
        <ele>137.0</ele>
        <time>2022-03-31T07:58:13Z</time>
      </trkpt>
      <trkpt lat="47.52919" lon="1.7321538">
        <ele>137.0</ele>
        <time>2022-03-31T07:58:14Z</time>
      </trkpt>
      <trkpt lat="47.52919" lon="1.7321538">
        <ele>137.0</ele>
        <time>2022-03-31T07:58:15Z</time>
      </trkpt>
      <trkpt lat="47.52919" lon="1.732188">
        <ele>135.0</ele>
        <time>2022-03-31T07:58:16Z</time>
      </trkpt>
      <trkpt lat="47.529182" lon="1.7322038">
        <ele>135.0</ele>
        <time>2022-03-31T07:58:17Z</time>
      </trkpt>
      <trkpt lat="47.529182" lon="1.7322156">
        <ele>135.0</ele>
        <time>2022-03-31T07:58:18Z</time>
      </trkpt>
      <trkpt lat="47.529182" lon="1.7322351">
        <ele>134.0</ele>
        <time>2022-03-31T07:58:19Z</time>
      </trkpt>
      <trkpt lat="47.529182" lon="1.7322528">
        <ele>134.0</ele>
        <time>2022-03-31T07:58:20Z</time>
      </trkpt>
      <trkpt lat="47.529182" lon="1.7322696">
        <ele>135.0</ele>
        <time>2022-03-31T07:58:21Z</time>
      </trkpt>
      <trkpt lat="47.529182" lon="1.7322881">
        <ele>134.0</ele>
        <time>2022-03-31T07:58:22Z</time>
      </trkpt>
      <trkpt lat="47.529182" lon="1.7323045">
        <ele>134.0</ele>
        <time>2022-03-31T07:58:23Z</time>
      </trkpt>
      <trkpt lat="47.529186" lon="1.7323201">
        <ele>133.0</ele>
        <time>2022-03-31T07:58:24Z</time>
      </trkpt>
      <trkpt lat="47.529186" lon="1.7323345">
        <ele>133.0</ele>
        <time>2022-03-31T07:58:25Z</time>
      </trkpt>
      <trkpt lat="47.529186" lon="1.732346">
        <ele>133.0</ele>
        <time>2022-03-31T07:58:26Z</time>
      </trkpt>
      <trkpt lat="47.529186" lon="1.7323596">
        <ele>133.0</ele>
        <time>2022-03-31T07:58:27Z</time>
      </trkpt>
      <trkpt lat="47.529186" lon="1.7323596">
        <ele>133.0</ele>
        <time>2022-03-31T07:58:28Z</time>
      </trkpt>
      <trkpt lat="47.529186" lon="1.7323596">
        <ele>133.0</ele>
        <time>2022-03-31T07:58:29Z</time>
      </trkpt>
      <trkpt lat="47.529186" lon="1.732401">
        <ele>133.0</ele>
        <time>2022-03-31T07:58:30Z</time>
      </trkpt>
      <trkpt lat="47.529182" lon="1.7324175">
        <ele>132.0</ele>
        <time>2022-03-31T07:58:31Z</time>
      </trkpt>
      <trkpt lat="47.529182" lon="1.7324284">
        <ele>132.0</ele>
        <time>2022-03-31T07:58:32Z</time>
      </trkpt>
      <trkpt lat="47.529182" lon="1.7324402">
        <ele>132.0</ele>
        <time>2022-03-31T07:58:33Z</time>
      </trkpt>
      <trkpt lat="47.529182" lon="1.7324402">
        <ele>132.0</ele>
        <time>2022-03-31T07:58:34Z</time>
      </trkpt>
      <trkpt lat="47.529182" lon="1.7324402">
        <ele>132.0</ele>
        <time>2022-03-31T07:58:35Z</time>
      </trkpt>
      <trkpt lat="47.529182" lon="1.7324709">
        <ele>132.0</ele>
        <time>2022-03-31T07:58:36Z</time>
      </trkpt>
      <trkpt lat="47.529182" lon="1.7324843">
        <ele>131.0</ele>
        <time>2022-03-31T07:58:37Z</time>
      </trkpt>
      <trkpt lat="47.529186" lon="1.7325028">
        <ele>130.0</ele>
        <time>2022-03-31T07:58:38Z</time>
      </trkpt>
      <trkpt lat="47.52919" lon="1.7325214">
        <ele>130.0</ele>
        <time>2022-03-31T07:58:39Z</time>
      </trkpt>
      <trkpt lat="47.52919" lon="1.7325214">
        <ele>130.0</ele>
        <time>2022-03-31T07:58:40Z</time>
      </trkpt>
      <trkpt lat="47.52919" lon="1.7325214">
        <ele>130.0</ele>
        <time>2022-03-31T07:58:41Z</time>
      </trkpt>
      <trkpt lat="47.529186" lon="1.7325666">
        <ele>129.0</ele>
        <time>2022-03-31T07:58:42Z</time>
      </trkpt>
      <trkpt lat="47.529186" lon="1.7325857">
        <ele>128.0</ele>
        <time>2022-03-31T07:58:43Z</time>
      </trkpt>
      <trkpt lat="47.529182" lon="1.7326013">
        <ele>128.0</ele>
        <time>2022-03-31T07:58:44Z</time>
      </trkpt>
      <trkpt lat="47.529186" lon="1.7326194">
        <ele>128.0</ele>
        <time>2022-03-31T07:58:45Z</time>
      </trkpt>
      <trkpt lat="47.529186" lon="1.7326194">
        <ele>128.0</ele>
        <time>2022-03-31T07:58:46Z</time>
      </trkpt>
      <trkpt lat="47.529186" lon="1.7326194">
        <ele>128.0</ele>
        <time>2022-03-31T07:58:47Z</time>
      </trkpt>
      <trkpt lat="47.529182" lon="1.7326541">
        <ele>127.0</ele>
        <time>2022-03-31T07:58:48Z</time>
      </trkpt>
      <trkpt lat="47.529182" lon="1.7326648">
        <ele>126.0</ele>
        <time>2022-03-31T07:58:49Z</time>
      </trkpt>
      <trkpt lat="47.529182" lon="1.7326823">
        <ele>126.0</ele>
        <time>2022-03-31T07:58:50Z</time>
      </trkpt>
      <trkpt lat="47.529182" lon="1.7326987">
        <ele>126.0</ele>
        <time>2022-03-31T07:58:51Z</time>
      </trkpt>
      <trkpt lat="47.529182" lon="1.7326987">
        <ele>126.0</ele>
        <time>2022-03-31T07:58:52Z</time>
      </trkpt>
      <trkpt lat="47.529182" lon="1.7326987">
        <ele>126.0</ele>
        <time>2022-03-31T07:58:53Z</time>
      </trkpt>
      <trkpt lat="47.529182" lon="1.7327402">
        <ele>125.0</ele>
        <time>2022-03-31T07:58:54Z</time>
      </trkpt>
      <trkpt lat="47.529182" lon="1.7327592">
        <ele>125.0</ele>
        <time>2022-03-31T07:58:55Z</time>
      </trkpt>
      <trkpt lat="47.529182" lon="1.7327757">
        <ele>125.0</ele>
        <time>2022-03-31T07:58:56Z</time>
      </trkpt>
      <trkpt lat="47.529182" lon="1.7327911">
        <ele>125.0</ele>
        <time>2022-03-31T07:58:57Z</time>
      </trkpt>
      <trkpt lat="47.529182" lon="1.7328076">
        <ele>125.0</ele>
        <time>2022-03-31T07:58:58Z</time>
      </trkpt>
      <trkpt lat="47.52918" lon="1.7328225">
        <ele>125.0</ele>
        <time>2022-03-31T07:58:59Z</time>
      </trkpt>
      <trkpt lat="47.52918" lon="1.7328427">
        <ele>124.0</ele>
        <time>2022-03-31T07:59:00Z</time>
      </trkpt>
      <trkpt lat="47.529182" lon="1.7328602">
        <ele>124.0</ele>
        <time>2022-03-31T07:59:01Z</time>
      </trkpt>
      <trkpt lat="47.529182" lon="1.7328782">
        <ele>124.0</ele>
        <time>2022-03-31T07:59:02Z</time>
      </trkpt>
      <trkpt lat="47.529182" lon="1.7328959">
        <ele>123.0</ele>
        <time>2022-03-31T07:59:03Z</time>
      </trkpt>
      <trkpt lat="47.529186" lon="1.7329118">
        <ele>123.0</ele>
        <time>2022-03-31T07:59:04Z</time>
      </trkpt>
      <trkpt lat="47.529182" lon="1.7329359">
        <ele>123.0</ele>
        <time>2022-03-31T07:59:05Z</time>
      </trkpt>
      <trkpt lat="47.529182" lon="1.732966">
        <ele>124.0</ele>
        <time>2022-03-31T07:59:06Z</time>
      </trkpt>
      <trkpt lat="47.529182" lon="1.7329884">
        <ele>124.0</ele>
        <time>2022-03-31T07:59:07Z</time>
      </trkpt>
      <trkpt lat="47.52918" lon="1.7330105">
        <ele>125.0</ele>
        <time>2022-03-31T07:59:08Z</time>
      </trkpt>
      <trkpt lat="47.529175" lon="1.73303">
        <ele>125.0</ele>
        <time>2022-03-31T07:59:09Z</time>
      </trkpt>
      <trkpt lat="47.529175" lon="1.7330543">
        <ele>125.0</ele>
        <time>2022-03-31T07:59:10Z</time>
      </trkpt>
      <trkpt lat="47.529175" lon="1.7330785">
        <ele>125.0</ele>
        <time>2022-03-31T07:59:11Z</time>
      </trkpt>
      <trkpt lat="47.529175" lon="1.7331063">
        <ele>125.0</ele>
        <time>2022-03-31T07:59:12Z</time>
      </trkpt>
      <trkpt lat="47.529175" lon="1.7331377">
        <ele>126.0</ele>
        <time>2022-03-31T07:59:13Z</time>
      </trkpt>
      <trkpt lat="47.529175" lon="1.7331692">
        <ele>127.0</ele>
        <time>2022-03-31T07:59:14Z</time>
      </trkpt>
      <trkpt lat="47.529167" lon="1.7332085">
        <ele>128.0</ele>
        <time>2022-03-31T07:59:15Z</time>
      </trkpt>
      <trkpt lat="47.529163" lon="1.7332422">
        <ele>129.0</ele>
        <time>2022-03-31T07:59:16Z</time>
      </trkpt>
      <trkpt lat="47.52916" lon="1.733266">
        <ele>130.0</ele>
        <time>2022-03-31T07:59:17Z</time>
      </trkpt>
      <trkpt lat="47.529152" lon="1.7332828">
        <ele>131.0</ele>
        <time>2022-03-31T07:59:18Z</time>
      </trkpt>
      <trkpt lat="47.529144" lon="1.7332971">
        <ele>131.0</ele>
        <time>2022-03-31T07:59:19Z</time>
      </trkpt>
      <trkpt lat="47.529137" lon="1.7333156">
        <ele>131.0</ele>
        <time>2022-03-31T07:59:20Z</time>
      </trkpt>
      <trkpt lat="47.529137" lon="1.7333418">
        <ele>131.0</ele>
        <time>2022-03-31T07:59:21Z</time>
      </trkpt>
      <trkpt lat="47.529137" lon="1.7333616">
        <ele>131.0</ele>
        <time>2022-03-31T07:59:22Z</time>
      </trkpt>
      <trkpt lat="47.52914" lon="1.733383">
        <ele>131.0</ele>
        <time>2022-03-31T07:59:23Z</time>
      </trkpt>
      <trkpt lat="47.52914" lon="1.7334064">
        <ele>132.0</ele>
        <time>2022-03-31T07:59:24Z</time>
      </trkpt>
      <trkpt lat="47.529137" lon="1.733427">
        <ele>133.0</ele>
        <time>2022-03-31T07:59:25Z</time>
      </trkpt>
      <trkpt lat="47.529137" lon="1.7334443">
        <ele>133.0</ele>
        <time>2022-03-31T07:59:26Z</time>
      </trkpt>
      <trkpt lat="47.52914" lon="1.7334666">
        <ele>133.0</ele>
        <time>2022-03-31T07:59:27Z</time>
      </trkpt>
      <trkpt lat="47.52914" lon="1.7334908">
        <ele>134.0</ele>
        <time>2022-03-31T07:59:28Z</time>
      </trkpt>
      <trkpt lat="47.529137" lon="1.7335124">
        <ele>135.0</ele>
        <time>2022-03-31T07:59:29Z</time>
      </trkpt>
      <trkpt lat="47.52914" lon="1.7335287">
        <ele>135.0</ele>
        <time>2022-03-31T07:59:30Z</time>
      </trkpt>
      <trkpt lat="47.52914" lon="1.733557">
        <ele>135.0</ele>
        <time>2022-03-31T07:59:31Z</time>
      </trkpt>
      <trkpt lat="47.529144" lon="1.7335836">
        <ele>136.0</ele>
        <time>2022-03-31T07:59:32Z</time>
      </trkpt>
      <trkpt lat="47.529144" lon="1.7336112">
        <ele>136.0</ele>
        <time>2022-03-31T07:59:33Z</time>
      </trkpt>
      <trkpt lat="47.52915" lon="1.7336459">
        <ele>137.0</ele>
        <time>2022-03-31T07:59:34Z</time>
      </trkpt>
      <trkpt lat="47.52915" lon="1.7336711">
        <ele>137.0</ele>
        <time>2022-03-31T07:59:35Z</time>
      </trkpt>
      <trkpt lat="47.52914" lon="1.733693">
        <ele>138.0</ele>
        <time>2022-03-31T07:59:36Z</time>
      </trkpt>
      <trkpt lat="47.529137" lon="1.7337147">
        <ele>137.0</ele>
        <time>2022-03-31T07:59:37Z</time>
      </trkpt>
      <trkpt lat="47.52913" lon="1.7337312">
        <ele>137.0</ele>
        <time>2022-03-31T07:59:38Z</time>
      </trkpt>
      <trkpt lat="47.529125" lon="1.733758">
        <ele>138.0</ele>
        <time>2022-03-31T07:59:39Z</time>
      </trkpt>
      <trkpt lat="47.529125" lon="1.7337817">
        <ele>138.0</ele>
        <time>2022-03-31T07:59:40Z</time>
      </trkpt>
      <trkpt lat="47.529125" lon="1.7337987">
        <ele>138.0</ele>
        <time>2022-03-31T07:59:41Z</time>
      </trkpt>
      <trkpt lat="47.52912" lon="1.7338171">
        <ele>138.0</ele>
        <time>2022-03-31T07:59:42Z</time>
      </trkpt>
      <trkpt lat="47.52912" lon="1.73384">
        <ele>139.0</ele>
        <time>2022-03-31T07:59:43Z</time>
      </trkpt>
      <trkpt lat="47.52912" lon="1.7338598">
        <ele>139.0</ele>
        <time>2022-03-31T07:59:44Z</time>
      </trkpt>
      <trkpt lat="47.529118" lon="1.7338752">
        <ele>139.0</ele>
        <time>2022-03-31T07:59:45Z</time>
      </trkpt>
      <trkpt lat="47.529118" lon="1.733884">
        <ele>140.0</ele>
        <time>2022-03-31T07:59:46Z</time>
      </trkpt>
      <trkpt lat="47.529118" lon="1.7339001">
        <ele>140.0</ele>
        <time>2022-03-31T07:59:47Z</time>
      </trkpt>
      <trkpt lat="47.52912" lon="1.7339221">
        <ele>140.0</ele>
        <time>2022-03-31T07:59:48Z</time>
      </trkpt>
      <trkpt lat="47.52912" lon="1.7339404">
        <ele>139.0</ele>
        <time>2022-03-31T07:59:49Z</time>
      </trkpt>
      <trkpt lat="47.529125" lon="1.7339613">
        <ele>138.0</ele>
        <time>2022-03-31T07:59:50Z</time>
      </trkpt>
      <trkpt lat="47.52913" lon="1.7339797">
        <ele>138.0</ele>
        <time>2022-03-31T07:59:51Z</time>
      </trkpt>
      <trkpt lat="47.52913" lon="1.7340026">
        <ele>139.0</ele>
        <time>2022-03-31T07:59:52Z</time>
      </trkpt>
      <trkpt lat="47.52913" lon="1.7340214">
        <ele>139.0</ele>
        <time>2022-03-31T07:59:53Z</time>
      </trkpt>
      <trkpt lat="47.529125" lon="1.7340349">
        <ele>139.0</ele>
        <time>2022-03-31T07:59:54Z</time>
      </trkpt>
      <trkpt lat="47.52913" lon="1.7340565">
        <ele>139.0</ele>
        <time>2022-03-31T07:59:55Z</time>
      </trkpt>
      <trkpt lat="47.529133" lon="1.7340764">
        <ele>139.0</ele>
        <time>2022-03-31T07:59:56Z</time>
      </trkpt>
      <trkpt lat="47.52913" lon="1.7340914">
        <ele>139.0</ele>
        <time>2022-03-31T07:59:57Z</time>
      </trkpt>
      <trkpt lat="47.52913" lon="1.7341048">
        <ele>139.0</ele>
        <time>2022-03-31T07:59:58Z</time>
      </trkpt>
      <trkpt lat="47.529133" lon="1.734121">
        <ele>138.0</ele>
        <time>2022-03-31T07:59:59Z</time>
      </trkpt>
      <trkpt lat="47.529137" lon="1.734138">
        <ele>138.0</ele>
        <time>2022-03-31T08:00:00Z</time>
      </trkpt>
      <trkpt lat="47.52914" lon="1.7341648">
        <ele>139.0</ele>
        <time>2022-03-31T08:00:01Z</time>
      </trkpt>
      <trkpt lat="47.52914" lon="1.7341907">
        <ele>139.0</ele>
        <time>2022-03-31T08:00:02Z</time>
      </trkpt>
      <trkpt lat="47.52914" lon="1.734212">
        <ele>140.0</ele>
        <time>2022-03-31T08:00:03Z</time>
      </trkpt>
      <trkpt lat="47.529144" lon="1.7342315">
        <ele>140.0</ele>
        <time>2022-03-31T08:00:04Z</time>
      </trkpt>
      <trkpt lat="47.529144" lon="1.7342515">
        <ele>140.0</ele>
        <time>2022-03-31T08:00:05Z</time>
      </trkpt>
      <trkpt lat="47.52915" lon="1.7342702">
        <ele>140.0</ele>
        <time>2022-03-31T08:00:06Z</time>
      </trkpt>
      <trkpt lat="47.529144" lon="1.7342869">
        <ele>140.0</ele>
        <time>2022-03-31T08:00:07Z</time>
      </trkpt>
      <trkpt lat="47.529144" lon="1.7342972">
        <ele>140.0</ele>
        <time>2022-03-31T08:00:08Z</time>
      </trkpt>
      <trkpt lat="47.52914" lon="1.7343109">
        <ele>141.0</ele>
        <time>2022-03-31T08:00:09Z</time>
      </trkpt>
      <trkpt lat="47.52914" lon="1.7343283">
        <ele>142.0</ele>
        <time>2022-03-31T08:00:10Z</time>
      </trkpt>
      <trkpt lat="47.52914" lon="1.7343489">
        <ele>141.0</ele>
        <time>2022-03-31T08:00:11Z</time>
      </trkpt>
      <trkpt lat="47.52914" lon="1.734367">
        <ele>141.0</ele>
        <time>2022-03-31T08:00:12Z</time>
      </trkpt>
      <trkpt lat="47.529137" lon="1.7343824">
        <ele>142.0</ele>
        <time>2022-03-31T08:00:13Z</time>
      </trkpt>
      <trkpt lat="47.529137" lon="1.7343966">
        <ele>142.0</ele>
        <time>2022-03-31T08:00:14Z</time>
      </trkpt>
      <trkpt lat="47.52914" lon="1.7344176">
        <ele>141.0</ele>
        <time>2022-03-31T08:00:15Z</time>
      </trkpt>
      <trkpt lat="47.529144" lon="1.7344464">
        <ele>141.0</ele>
        <time>2022-03-31T08:00:16Z</time>
      </trkpt>
      <trkpt lat="47.52915" lon="1.7344704">
        <ele>141.0</ele>
        <time>2022-03-31T08:00:17Z</time>
      </trkpt>
      <trkpt lat="47.52915" lon="1.734492">
        <ele>141.0</ele>
        <time>2022-03-31T08:00:18Z</time>
      </trkpt>
      <trkpt lat="47.52915" lon="1.7345164">
        <ele>141.0</ele>
        <time>2022-03-31T08:00:19Z</time>
      </trkpt>
      <trkpt lat="47.529144" lon="1.7345425">
        <ele>141.0</ele>
        <time>2022-03-31T08:00:20Z</time>
      </trkpt>
      <trkpt lat="47.529144" lon="1.7345632">
        <ele>141.0</ele>
        <time>2022-03-31T08:00:21Z</time>
      </trkpt>
      <trkpt lat="47.529144" lon="1.7345766">
        <ele>141.0</ele>
        <time>2022-03-31T08:00:22Z</time>
      </trkpt>
      <trkpt lat="47.52914" lon="1.7345965">
        <ele>141.0</ele>
        <time>2022-03-31T08:00:23Z</time>
      </trkpt>
      <trkpt lat="47.529137" lon="1.7346078">
        <ele>141.0</ele>
        <time>2022-03-31T08:00:24Z</time>
      </trkpt>
      <trkpt lat="47.529137" lon="1.7346237">
        <ele>141.0</ele>
        <time>2022-03-31T08:00:25Z</time>
      </trkpt>
      <trkpt lat="47.529144" lon="1.7346362">
        <ele>141.0</ele>
        <time>2022-03-31T08:00:26Z</time>
      </trkpt>
      <trkpt lat="47.529144" lon="1.7346517">
        <ele>141.0</ele>
        <time>2022-03-31T08:00:27Z</time>
      </trkpt>
      <trkpt lat="47.529144" lon="1.7346678">
        <ele>140.0</ele>
        <time>2022-03-31T08:00:28Z</time>
      </trkpt>
      <trkpt lat="47.529137" lon="1.7346785">
        <ele>140.0</ele>
        <time>2022-03-31T08:00:29Z</time>
      </trkpt>
      <trkpt lat="47.529137" lon="1.7346941">
        <ele>140.0</ele>
        <time>2022-03-31T08:00:30Z</time>
      </trkpt>
      <trkpt lat="47.529137" lon="1.7347128">
        <ele>141.0</ele>
        <time>2022-03-31T08:00:31Z</time>
      </trkpt>
      <trkpt lat="47.52914" lon="1.73473">
        <ele>140.0</ele>
        <time>2022-03-31T08:00:32Z</time>
      </trkpt>
      <trkpt lat="47.529144" lon="1.7347413">
        <ele>140.0</ele>
        <time>2022-03-31T08:00:33Z</time>
      </trkpt>
      <trkpt lat="47.529144" lon="1.7347566">
        <ele>140.0</ele>
        <time>2022-03-31T08:00:34Z</time>
      </trkpt>
      <trkpt lat="47.529144" lon="1.7347692">
        <ele>140.0</ele>
        <time>2022-03-31T08:00:35Z</time>
      </trkpt>
      <trkpt lat="47.52914" lon="1.7347857">
        <ele>139.0</ele>
        <time>2022-03-31T08:00:36Z</time>
      </trkpt>
      <trkpt lat="47.52914" lon="1.734804">
        <ele>139.0</ele>
        <time>2022-03-31T08:00:37Z</time>
      </trkpt>
      <trkpt lat="47.52914" lon="1.7348219">
        <ele>139.0</ele>
        <time>2022-03-31T08:00:38Z</time>
      </trkpt>
      <trkpt lat="47.529137" lon="1.7348385">
        <ele>139.0</ele>
        <time>2022-03-31T08:00:39Z</time>
      </trkpt>
      <trkpt lat="47.529137" lon="1.7348554">
        <ele>139.0</ele>
        <time>2022-03-31T08:00:40Z</time>
      </trkpt>
      <trkpt lat="47.529137" lon="1.7348704">
        <ele>139.0</ele>
        <time>2022-03-31T08:00:41Z</time>
      </trkpt>
      <trkpt lat="47.52914" lon="1.7348864">
        <ele>139.0</ele>
        <time>2022-03-31T08:00:42Z</time>
      </trkpt>
      <trkpt lat="47.52914" lon="1.7349012">
        <ele>138.0</ele>
        <time>2022-03-31T08:00:43Z</time>
      </trkpt>
      <trkpt lat="47.529144" lon="1.7349195">
        <ele>138.0</ele>
        <time>2022-03-31T08:00:44Z</time>
      </trkpt>
      <trkpt lat="47.529144" lon="1.7349343">
        <ele>138.0</ele>
        <time>2022-03-31T08:00:45Z</time>
      </trkpt>
      <trkpt lat="47.529144" lon="1.7349504">
        <ele>138.0</ele>
        <time>2022-03-31T08:00:46Z</time>
      </trkpt>
      <trkpt lat="47.52915" lon="1.7349668">
        <ele>138.0</ele>
        <time>2022-03-31T08:00:47Z</time>
      </trkpt>
      <trkpt lat="47.52915" lon="1.7349808">
        <ele>139.0</ele>
        <time>2022-03-31T08:00:48Z</time>
      </trkpt>
      <trkpt lat="47.52915" lon="1.7350056">
        <ele>139.0</ele>
        <time>2022-03-31T08:00:49Z</time>
      </trkpt>
      <trkpt lat="47.529152" lon="1.7350229">
        <ele>139.0</ele>
        <time>2022-03-31T08:00:50Z</time>
      </trkpt>
      <trkpt lat="47.52915" lon="1.7350414">
        <ele>138.0</ele>
        <time>2022-03-31T08:00:51Z</time>
      </trkpt>
      <trkpt lat="47.52915" lon="1.735057">
        <ele>138.0</ele>
        <time>2022-03-31T08:00:52Z</time>
      </trkpt>
      <trkpt lat="47.529152" lon="1.7350737">
        <ele>138.0</ele>
        <time>2022-03-31T08:00:53Z</time>
      </trkpt>
      <trkpt lat="47.529152" lon="1.7350945">
        <ele>138.0</ele>
        <time>2022-03-31T08:00:54Z</time>
      </trkpt>
      <trkpt lat="47.529152" lon="1.7351112">
        <ele>138.0</ele>
        <time>2022-03-31T08:00:55Z</time>
      </trkpt>
      <trkpt lat="47.52915" lon="1.7351308">
        <ele>137.0</ele>
        <time>2022-03-31T08:00:56Z</time>
      </trkpt>
      <trkpt lat="47.52915" lon="1.7351463">
        <ele>137.0</ele>
        <time>2022-03-31T08:00:57Z</time>
      </trkpt>
      <trkpt lat="47.52915" lon="1.7351568">
        <ele>137.0</ele>
        <time>2022-03-31T08:00:58Z</time>
      </trkpt>
      <trkpt lat="47.529144" lon="1.7351714">
        <ele>137.0</ele>
        <time>2022-03-31T08:00:59Z</time>
      </trkpt>
      <trkpt lat="47.52915" lon="1.7351861">
        <ele>136.0</ele>
        <time>2022-03-31T08:01:00Z</time>
      </trkpt>
      <trkpt lat="47.529144" lon="1.735205">
        <ele>136.0</ele>
        <time>2022-03-31T08:01:01Z</time>
      </trkpt>
      <trkpt lat="47.52915" lon="1.7352303">
        <ele>136.0</ele>
        <time>2022-03-31T08:01:02Z</time>
      </trkpt>
      <trkpt lat="47.529152" lon="1.7352469">
        <ele>136.0</ele>
        <time>2022-03-31T08:01:03Z</time>
      </trkpt>
      <trkpt lat="47.529156" lon="1.7352629">
        <ele>136.0</ele>
        <time>2022-03-31T08:01:04Z</time>
      </trkpt>
      <trkpt lat="47.529156" lon="1.7352798">
        <ele>136.0</ele>
        <time>2022-03-31T08:01:05Z</time>
      </trkpt>
      <trkpt lat="47.52916" lon="1.7352945">
        <ele>136.0</ele>
        <time>2022-03-31T08:01:06Z</time>
      </trkpt>
      <trkpt lat="47.52916" lon="1.7353095">
        <ele>136.0</ele>
        <time>2022-03-31T08:01:07Z</time>
      </trkpt>
      <trkpt lat="47.529163" lon="1.7353268">
        <ele>136.0</ele>
        <time>2022-03-31T08:01:08Z</time>
      </trkpt>
      <trkpt lat="47.529167" lon="1.7353352">
        <ele>136.0</ele>
        <time>2022-03-31T08:01:09Z</time>
      </trkpt>
      <trkpt lat="47.529163" lon="1.735351">
        <ele>136.0</ele>
        <time>2022-03-31T08:01:10Z</time>
      </trkpt>
      <trkpt lat="47.529163" lon="1.7353652">
        <ele>135.0</ele>
        <time>2022-03-31T08:01:11Z</time>
      </trkpt>
      <trkpt lat="47.529167" lon="1.7353815">
        <ele>135.0</ele>
        <time>2022-03-31T08:01:12Z</time>
      </trkpt>
      <trkpt lat="47.529167" lon="1.7353967">
        <ele>135.0</ele>
        <time>2022-03-31T08:01:13Z</time>
      </trkpt>
      <trkpt lat="47.529167" lon="1.7354184">
        <ele>135.0</ele>
        <time>2022-03-31T08:01:14Z</time>
      </trkpt>
      <trkpt lat="47.529167" lon="1.735441">
        <ele>135.0</ele>
        <time>2022-03-31T08:01:15Z</time>
      </trkpt>
      <trkpt lat="47.52917" lon="1.7354605">
        <ele>134.0</ele>
        <time>2022-03-31T08:01:16Z</time>
      </trkpt>
      <trkpt lat="47.529175" lon="1.7354815">
        <ele>134.0</ele>
        <time>2022-03-31T08:01:17Z</time>
      </trkpt>
      <trkpt lat="47.529175" lon="1.7355008">
        <ele>135.0</ele>
        <time>2022-03-31T08:01:18Z</time>
      </trkpt>
      <trkpt lat="47.529175" lon="1.735521">
        <ele>135.0</ele>
        <time>2022-03-31T08:01:19Z</time>
      </trkpt>
      <trkpt lat="47.52918" lon="1.7355374">
        <ele>134.0</ele>
        <time>2022-03-31T08:01:20Z</time>
      </trkpt>
      <trkpt lat="47.52918" lon="1.7355565">
        <ele>134.0</ele>
        <time>2022-03-31T08:01:21Z</time>
      </trkpt>
      <trkpt lat="47.529182" lon="1.7355729">
        <ele>134.0</ele>
        <time>2022-03-31T08:01:22Z</time>
      </trkpt>
      <trkpt lat="47.529186" lon="1.7355927">
        <ele>134.0</ele>
        <time>2022-03-31T08:01:23Z</time>
      </trkpt>
      <trkpt lat="47.529186" lon="1.7356064">
        <ele>134.0</ele>
        <time>2022-03-31T08:01:24Z</time>
      </trkpt>
      <trkpt lat="47.529186" lon="1.7356203">
        <ele>134.0</ele>
        <time>2022-03-31T08:01:25Z</time>
      </trkpt>
      <trkpt lat="47.529186" lon="1.7356375">
        <ele>133.0</ele>
        <time>2022-03-31T08:01:26Z</time>
      </trkpt>
      <trkpt lat="47.529186" lon="1.7356621">
        <ele>133.0</ele>
        <time>2022-03-31T08:01:27Z</time>
      </trkpt>
      <trkpt lat="47.52918" lon="1.735685">
        <ele>133.0</ele>
        <time>2022-03-31T08:01:28Z</time>
      </trkpt>
      <trkpt lat="47.529175" lon="1.735707">
        <ele>133.0</ele>
        <time>2022-03-31T08:01:29Z</time>
      </trkpt>
      <trkpt lat="47.529175" lon="1.7357216">
        <ele>133.0</ele>
        <time>2022-03-31T08:01:30Z</time>
      </trkpt>
      <trkpt lat="47.529175" lon="1.7357317">
        <ele>133.0</ele>
        <time>2022-03-31T08:01:31Z</time>
      </trkpt>
      <trkpt lat="47.52918" lon="1.7357451">
        <ele>133.0</ele>
        <time>2022-03-31T08:01:32Z</time>
      </trkpt>
      <trkpt lat="47.529182" lon="1.7357593">
        <ele>133.0</ele>
        <time>2022-03-31T08:01:33Z</time>
      </trkpt>
      <trkpt lat="47.529186" lon="1.7357742">
        <ele>133.0</ele>
        <time>2022-03-31T08:01:34Z</time>
      </trkpt>
      <trkpt lat="47.529186" lon="1.7357872">
        <ele>133.0</ele>
        <time>2022-03-31T08:01:35Z</time>
      </trkpt>
      <trkpt lat="47.52919" lon="1.7358016">
        <ele>133.0</ele>
        <time>2022-03-31T08:01:36Z</time>
      </trkpt>
      <trkpt lat="47.529194" lon="1.7358199">
        <ele>133.0</ele>
        <time>2022-03-31T08:01:37Z</time>
      </trkpt>
      <trkpt lat="47.529198" lon="1.7358347">
        <ele>133.0</ele>
        <time>2022-03-31T08:01:38Z</time>
      </trkpt>
      <trkpt lat="47.5292" lon="1.7358524">
        <ele>132.0</ele>
        <time>2022-03-31T08:01:39Z</time>
      </trkpt>
      <trkpt lat="47.5292" lon="1.7358694">
        <ele>133.0</ele>
        <time>2022-03-31T08:01:40Z</time>
      </trkpt>
      <trkpt lat="47.5292" lon="1.7358882">
        <ele>132.0</ele>
        <time>2022-03-31T08:01:41Z</time>
      </trkpt>
      <trkpt lat="47.529205" lon="1.7359086">
        <ele>132.0</ele>
        <time>2022-03-31T08:01:42Z</time>
      </trkpt>
      <trkpt lat="47.529205" lon="1.7359295">
        <ele>133.0</ele>
        <time>2022-03-31T08:01:43Z</time>
      </trkpt>
      <trkpt lat="47.529198" lon="1.7359504">
        <ele>133.0</ele>
        <time>2022-03-31T08:01:44Z</time>
      </trkpt>
      <trkpt lat="47.529198" lon="1.7359704">
        <ele>132.0</ele>
        <time>2022-03-31T08:01:45Z</time>
      </trkpt>
      <trkpt lat="47.529198" lon="1.7359881">
        <ele>132.0</ele>
        <time>2022-03-31T08:01:46Z</time>
      </trkpt>
      <trkpt lat="47.5292" lon="1.736003">
        <ele>132.0</ele>
        <time>2022-03-31T08:01:47Z</time>
      </trkpt>
      <trkpt lat="47.529198" lon="1.7360232">
        <ele>131.0</ele>
        <time>2022-03-31T08:01:48Z</time>
      </trkpt>
      <trkpt lat="47.5292" lon="1.7360443">
        <ele>132.0</ele>
        <time>2022-03-31T08:01:49Z</time>
      </trkpt>
      <trkpt lat="47.5292" lon="1.7360663">
        <ele>132.0</ele>
        <time>2022-03-31T08:01:50Z</time>
      </trkpt>
      <trkpt lat="47.529205" lon="1.736082">
        <ele>132.0</ele>
        <time>2022-03-31T08:01:51Z</time>
      </trkpt>
      <trkpt lat="47.529205" lon="1.7360955">
        <ele>131.0</ele>
        <time>2022-03-31T08:01:52Z</time>
      </trkpt>
      <trkpt lat="47.529205" lon="1.7361131">
        <ele>131.0</ele>
        <time>2022-03-31T08:01:53Z</time>
      </trkpt>
      <trkpt lat="47.529205" lon="1.7361339">
        <ele>131.0</ele>
        <time>2022-03-31T08:01:54Z</time>
      </trkpt>
      <trkpt lat="47.529205" lon="1.7361549">
        <ele>131.0</ele>
        <time>2022-03-31T08:01:55Z</time>
      </trkpt>
      <trkpt lat="47.529205" lon="1.7361737">
        <ele>131.0</ele>
        <time>2022-03-31T08:01:56Z</time>
      </trkpt>
      <trkpt lat="47.52921" lon="1.7361901">
        <ele>131.0</ele>
        <time>2022-03-31T08:01:57Z</time>
      </trkpt>
      <trkpt lat="47.52921" lon="1.7362056">
        <ele>131.0</ele>
        <time>2022-03-31T08:01:58Z</time>
      </trkpt>
      <trkpt lat="47.529213" lon="1.7362226">
        <ele>131.0</ele>
        <time>2022-03-31T08:01:59Z</time>
      </trkpt>
      <trkpt lat="47.529213" lon="1.7362423">
        <ele>131.0</ele>
        <time>2022-03-31T08:02:00Z</time>
      </trkpt>
      <trkpt lat="47.529213" lon="1.7362621">
        <ele>131.0</ele>
        <time>2022-03-31T08:02:01Z</time>
      </trkpt>
      <trkpt lat="47.529217" lon="1.7362833">
        <ele>130.0</ele>
        <time>2022-03-31T08:02:02Z</time>
      </trkpt>
      <trkpt lat="47.52922" lon="1.736305">
        <ele>131.0</ele>
        <time>2022-03-31T08:02:03Z</time>
      </trkpt>
      <trkpt lat="47.52923" lon="1.7363414">
        <ele>131.0</ele>
        <time>2022-03-31T08:02:05Z</time>
      </trkpt>
      <trkpt lat="47.52923" lon="1.7363592">
        <ele>131.0</ele>
        <time>2022-03-31T08:02:06Z</time>
      </trkpt>
      <trkpt lat="47.52923" lon="1.7363809">
        <ele>131.0</ele>
        <time>2022-03-31T08:02:07Z</time>
      </trkpt>
      <trkpt lat="47.529224" lon="1.736401">
        <ele>131.0</ele>
        <time>2022-03-31T08:02:08Z</time>
      </trkpt>
      <trkpt lat="47.529224" lon="1.7364204">
        <ele>131.0</ele>
        <time>2022-03-31T08:02:09Z</time>
      </trkpt>
      <trkpt lat="47.529224" lon="1.7364388">
        <ele>131.0</ele>
        <time>2022-03-31T08:02:10Z</time>
      </trkpt>
      <trkpt lat="47.52922" lon="1.7364535">
        <ele>131.0</ele>
        <time>2022-03-31T08:02:11Z</time>
      </trkpt>
      <trkpt lat="47.52922" lon="1.7364686">
        <ele>131.0</ele>
        <time>2022-03-31T08:02:12Z</time>
      </trkpt>
      <trkpt lat="47.52922" lon="1.7364814">
        <ele>132.0</ele>
        <time>2022-03-31T08:02:13Z</time>
      </trkpt>
      <trkpt lat="47.52922" lon="1.736495">
        <ele>132.0</ele>
        <time>2022-03-31T08:02:14Z</time>
      </trkpt>
      <trkpt lat="47.529224" lon="1.736514">
        <ele>132.0</ele>
        <time>2022-03-31T08:02:15Z</time>
      </trkpt>
      <trkpt lat="47.529224" lon="1.7365264">
        <ele>132.0</ele>
        <time>2022-03-31T08:02:16Z</time>
      </trkpt>
      <trkpt lat="47.52923" lon="1.7365416">
        <ele>132.0</ele>
        <time>2022-03-31T08:02:17Z</time>
      </trkpt>
      <trkpt lat="47.52923" lon="1.7365562">
        <ele>133.0</ele>
        <time>2022-03-31T08:02:18Z</time>
      </trkpt>
      <trkpt lat="47.529232" lon="1.7365774">
        <ele>133.0</ele>
        <time>2022-03-31T08:02:19Z</time>
      </trkpt>
      <trkpt lat="47.529236" lon="1.7365998">
        <ele>132.0</ele>
        <time>2022-03-31T08:02:20Z</time>
      </trkpt>
      <trkpt lat="47.529236" lon="1.7366189">
        <ele>132.0</ele>
        <time>2022-03-31T08:02:21Z</time>
      </trkpt>
      <trkpt lat="47.529232" lon="1.7366366">
        <ele>132.0</ele>
        <time>2022-03-31T08:02:22Z</time>
      </trkpt>
      <trkpt lat="47.52923" lon="1.7366526">
        <ele>132.0</ele>
        <time>2022-03-31T08:02:23Z</time>
      </trkpt>
      <trkpt lat="47.529224" lon="1.7366667">
        <ele>132.0</ele>
        <time>2022-03-31T08:02:24Z</time>
      </trkpt>
      <trkpt lat="47.529217" lon="1.7366802">
        <ele>132.0</ele>
        <time>2022-03-31T08:02:25Z</time>
      </trkpt>
      <trkpt lat="47.529217" lon="1.7366941">
        <ele>132.0</ele>
        <time>2022-03-31T08:02:26Z</time>
      </trkpt>
      <trkpt lat="47.529217" lon="1.736711">
        <ele>133.0</ele>
        <time>2022-03-31T08:02:27Z</time>
      </trkpt>
      <trkpt lat="47.529217" lon="1.7367274">
        <ele>133.0</ele>
        <time>2022-03-31T08:02:28Z</time>
      </trkpt>
      <trkpt lat="47.529217" lon="1.7367374">
        <ele>133.0</ele>
        <time>2022-03-31T08:02:29Z</time>
      </trkpt>
      <trkpt lat="47.529217" lon="1.7367505">
        <ele>134.0</ele>
        <time>2022-03-31T08:02:30Z</time>
      </trkpt>
      <trkpt lat="47.529217" lon="1.7367624">
        <ele>134.0</ele>
        <time>2022-03-31T08:02:31Z</time>
      </trkpt>
      <trkpt lat="47.529217" lon="1.7367624">
        <ele>134.0</ele>
        <time>2022-03-31T08:02:32Z</time>
      </trkpt>
      <trkpt lat="47.52922" lon="1.7367798">
        <ele>135.0</ele>
        <time>2022-03-31T08:02:33Z</time>
      </trkpt>
      <trkpt lat="47.529217" lon="1.7367779">
        <ele>137.0</ele>
        <time>2022-03-31T08:02:34Z</time>
      </trkpt>
      <trkpt lat="47.529213" lon="1.7367804">
        <ele>138.0</ele>
        <time>2022-03-31T08:02:35Z</time>
      </trkpt>
      <trkpt lat="47.529205" lon="1.7367866">
        <ele>138.0</ele>
        <time>2022-03-31T08:02:36Z</time>
      </trkpt>
      <trkpt lat="47.529205" lon="1.7367914">
        <ele>138.0</ele>
        <time>2022-03-31T08:02:37Z</time>
      </trkpt>
      <trkpt lat="47.529205" lon="1.736796">
        <ele>138.0</ele>
        <time>2022-03-31T08:02:38Z</time>
      </trkpt>
      <trkpt lat="47.529205" lon="1.736796">
        <ele>138.0</ele>
        <time>2022-03-31T08:02:38Z</time>
      </trkpt>
      <trkpt lat="47.529205" lon="1.736796">
        <ele>138.0</ele>
        <time>2022-03-31T08:02:38Z</time>
      </trkpt>
      <trkpt lat="47.52915" lon="1.7367431">
        <ele>141.0</ele>
        <time>2022-03-31T08:07:25Z</time>
      </trkpt>
      <trkpt lat="47.52915" lon="1.7367336">
        <ele>141.0</ele>
        <time>2022-03-31T08:07:26Z</time>
      </trkpt>
      <trkpt lat="47.52915" lon="1.736725">
        <ele>141.0</ele>
        <time>2022-03-31T08:07:27Z</time>
      </trkpt>
      <trkpt lat="47.52915" lon="1.7367173">
        <ele>141.0</ele>
        <time>2022-03-31T08:07:28Z</time>
      </trkpt>
      <trkpt lat="47.52915" lon="1.7367115">
        <ele>141.0</ele>
        <time>2022-03-31T08:07:29Z</time>
      </trkpt>
      <trkpt lat="47.52915" lon="1.7367147">
        <ele>141.0</ele>
        <time>2022-03-31T08:07:30Z</time>
      </trkpt>
      <trkpt lat="47.52915" lon="1.7367249">
        <ele>141.0</ele>
        <time>2022-03-31T08:07:31Z</time>
      </trkpt>
      <trkpt lat="47.529144" lon="1.7367346">
        <ele>141.0</ele>
        <time>2022-03-31T08:07:32Z</time>
      </trkpt>
      <trkpt lat="47.52915" lon="1.73675">
        <ele>141.0</ele>
        <time>2022-03-31T08:07:33Z</time>
      </trkpt>
      <trkpt lat="47.529152" lon="1.7367604">
        <ele>141.0</ele>
        <time>2022-03-31T08:07:34Z</time>
      </trkpt>
      <trkpt lat="47.529156" lon="1.7367762">
        <ele>140.0</ele>
        <time>2022-03-31T08:07:35Z</time>
      </trkpt>
      <trkpt lat="47.529152" lon="1.7367843">
        <ele>140.0</ele>
        <time>2022-03-31T08:07:36Z</time>
      </trkpt>
      <trkpt lat="47.529156" lon="1.7367895">
        <ele>140.0</ele>
        <time>2022-03-31T08:07:37Z</time>
      </trkpt>
      <trkpt lat="47.529156" lon="1.7367947">
        <ele>139.0</ele>
        <time>2022-03-31T08:07:38Z</time>
      </trkpt>
      <trkpt lat="47.52916" lon="1.7367975">
        <ele>139.0</ele>
        <time>2022-03-31T08:07:39Z</time>
      </trkpt>
      <trkpt lat="47.52916" lon="1.7367991">
        <ele>138.0</ele>
        <time>2022-03-31T08:07:40Z</time>
      </trkpt>
      <trkpt lat="47.52916" lon="1.7367978">
        <ele>138.0</ele>
        <time>2022-03-31T08:07:41Z</time>
      </trkpt>
      <trkpt lat="47.52916" lon="1.7367978">
        <ele>138.0</ele>
        <time>2022-03-31T08:07:41Z</time>
      </trkpt>
      <trkpt lat="47.52916" lon="1.7367978">
        <ele>138.0</ele>
        <time>2022-03-31T08:07:41Z</time>
      </trkpt>
      <trkpt lat="47.52916" lon="1.7367293">
        <ele>139.0</ele>
        <time>2022-03-31T08:09:02Z</time>
      </trkpt>
      <trkpt lat="47.529163" lon="1.7367102">
        <ele>139.0</ele>
        <time>2022-03-31T08:09:03Z</time>
      </trkpt>
      <trkpt lat="47.529167" lon="1.7366927">
        <ele>139.0</ele>
        <time>2022-03-31T08:09:04Z</time>
      </trkpt>
      <trkpt lat="47.529175" lon="1.7366735">
        <ele>139.0</ele>
        <time>2022-03-31T08:09:05Z</time>
      </trkpt>
      <trkpt lat="47.52918" lon="1.7366623">
        <ele>139.0</ele>
        <time>2022-03-31T08:09:06Z</time>
      </trkpt>
      <trkpt lat="47.529186" lon="1.7366487">
        <ele>139.0</ele>
        <time>2022-03-31T08:09:07Z</time>
      </trkpt>
      <trkpt lat="47.529194" lon="1.7366357">
        <ele>139.0</ele>
        <time>2022-03-31T08:09:08Z</time>
      </trkpt>
      <trkpt lat="47.529205" lon="1.7366239">
        <ele>139.0</ele>
        <time>2022-03-31T08:09:09Z</time>
      </trkpt>
      <trkpt lat="47.52921" lon="1.7366139">
        <ele>138.0</ele>
        <time>2022-03-31T08:09:10Z</time>
      </trkpt>
      <trkpt lat="47.529213" lon="1.7366071">
        <ele>138.0</ele>
        <time>2022-03-31T08:09:11Z</time>
      </trkpt>
      <trkpt lat="47.52922" lon="1.7366068">
        <ele>138.0</ele>
        <time>2022-03-31T08:09:12Z</time>
      </trkpt>
      <trkpt lat="47.52922" lon="1.7366068">
        <ele>138.0</ele>
        <time>2022-03-31T08:09:13Z</time>
      </trkpt>
      <trkpt lat="47.52922" lon="1.7366068">
        <ele>138.0</ele>
        <time>2022-03-31T08:09:14Z</time>
      </trkpt>
      <trkpt lat="47.529232" lon="1.7365981">
        <ele>138.0</ele>
        <time>2022-03-31T08:09:15Z</time>
      </trkpt>
      <trkpt lat="47.52924" lon="1.7365992">
        <ele>138.0</ele>
        <time>2022-03-31T08:09:16Z</time>
      </trkpt>
      <trkpt lat="47.52924" lon="1.736598">
        <ele>138.0</ele>
        <time>2022-03-31T08:09:17Z</time>
      </trkpt>
      <trkpt lat="47.52924" lon="1.7365947">
        <ele>138.0</ele>
        <time>2022-03-31T08:09:18Z</time>
      </trkpt>
      <trkpt lat="47.52924" lon="1.7365947">
        <ele>138.0</ele>
        <time>2022-03-31T08:09:19Z</time>
      </trkpt>
      <trkpt lat="47.52924" lon="1.7365947">
        <ele>138.0</ele>
        <time>2022-03-31T08:09:19Z</time>
      </trkpt>
      <trkpt lat="47.52924" lon="1.7365947">
        <ele>138.0</ele>
        <time>2022-03-31T08:09:19Z</time>
      </trkpt>
      <trkpt lat="47.529198" lon="1.7365592">
        <ele>129.0</ele>
        <time>2022-03-31T08:10:13Z</time>
      </trkpt>
      <trkpt lat="47.52919" lon="1.7365702">
        <ele>129.0</ele>
        <time>2022-03-31T08:10:14Z</time>
      </trkpt>
      <trkpt lat="47.529186" lon="1.7365794">
        <ele>129.0</ele>
        <time>2022-03-31T08:10:15Z</time>
      </trkpt>
      <trkpt lat="47.529182" lon="1.7365848">
        <ele>129.0</ele>
        <time>2022-03-31T08:10:16Z</time>
      </trkpt>
      <trkpt lat="47.529182" lon="1.7365953">
        <ele>128.0</ele>
        <time>2022-03-31T08:10:17Z</time>
      </trkpt>
      <trkpt lat="47.529175" lon="1.7366008">
        <ele>129.0</ele>
        <time>2022-03-31T08:10:18Z</time>
      </trkpt>
      <trkpt lat="47.52918" lon="1.7366135">
        <ele>128.0</ele>
        <time>2022-03-31T08:10:19Z</time>
      </trkpt>
      <trkpt lat="47.52918" lon="1.7366283">
        <ele>128.0</ele>
        <time>2022-03-31T08:10:20Z</time>
      </trkpt>
      <trkpt lat="47.529182" lon="1.7366375">
        <ele>128.0</ele>
        <time>2022-03-31T08:10:21Z</time>
      </trkpt>
      <trkpt lat="47.529186" lon="1.7366486">
        <ele>128.0</ele>
        <time>2022-03-31T08:10:22Z</time>
      </trkpt>
      <trkpt lat="47.529186" lon="1.7366616">
        <ele>127.0</ele>
        <time>2022-03-31T08:10:23Z</time>
      </trkpt>
      <trkpt lat="47.529194" lon="1.7366855">
        <ele>127.0</ele>
        <time>2022-03-31T08:10:24Z</time>
      </trkpt>
      <trkpt lat="47.529198" lon="1.7366964">
        <ele>127.0</ele>
        <time>2022-03-31T08:10:25Z</time>
      </trkpt>
      <trkpt lat="47.5292" lon="1.7367042">
        <ele>127.0</ele>
        <time>2022-03-31T08:10:26Z</time>
      </trkpt>
      <trkpt lat="47.529198" lon="1.7366999">
        <ele>128.0</ele>
        <time>2022-03-31T08:10:27Z</time>
      </trkpt>
      <trkpt lat="47.529198" lon="1.736697">
        <ele>128.0</ele>
        <time>2022-03-31T08:10:28Z</time>
      </trkpt>
      <trkpt lat="47.529198" lon="1.7366989">
        <ele>128.0</ele>
        <time>2022-03-31T08:10:29Z</time>
      </trkpt>
      <trkpt lat="47.529198" lon="1.7366989">
        <ele>128.0</ele>
        <time>2022-03-31T08:10:29Z</time>
      </trkpt>
      <trkpt lat="47.529198" lon="1.7366989">
        <ele>128.0</ele>
        <time>2022-03-31T08:10:29Z</time>
      </trkpt>
      <trkpt lat="47.529133" lon="1.7368935">
        <ele>131.0</ele>
        <time>2022-03-31T08:14:47Z</time>
      </trkpt>
      <trkpt lat="47.52912" lon="1.7369025">
        <ele>131.0</ele>
        <time>2022-03-31T08:14:48Z</time>
      </trkpt>
      <trkpt lat="47.529114" lon="1.7369072">
        <ele>131.0</ele>
        <time>2022-03-31T08:14:49Z</time>
      </trkpt>
      <trkpt lat="47.529102" lon="1.7369125">
        <ele>131.0</ele>
        <time>2022-03-31T08:14:50Z</time>
      </trkpt>
      <trkpt lat="47.529087" lon="1.7369173">
        <ele>131.0</ele>
        <time>2022-03-31T08:14:51Z</time>
      </trkpt>
      <trkpt lat="47.52907" lon="1.73692">
        <ele>131.0</ele>
        <time>2022-03-31T08:14:52Z</time>
      </trkpt>
      <trkpt lat="47.52906" lon="1.736925">
        <ele>131.0</ele>
        <time>2022-03-31T08:14:53Z</time>
      </trkpt>
      <trkpt lat="47.529053" lon="1.7369303">
        <ele>131.0</ele>
        <time>2022-03-31T08:14:54Z</time>
      </trkpt>
      <trkpt lat="47.52904" lon="1.7369342">
        <ele>131.0</ele>
        <time>2022-03-31T08:14:55Z</time>
      </trkpt>
      <trkpt lat="47.529034" lon="1.7369373">
        <ele>132.0</ele>
        <time>2022-03-31T08:14:56Z</time>
      </trkpt>
      <trkpt lat="47.529022" lon="1.7369426">
        <ele>132.0</ele>
        <time>2022-03-31T08:14:57Z</time>
      </trkpt>
      <trkpt lat="47.52901" lon="1.7369498">
        <ele>132.0</ele>
        <time>2022-03-31T08:14:58Z</time>
      </trkpt>
      <trkpt lat="47.529" lon="1.736957">
        <ele>132.0</ele>
        <time>2022-03-31T08:14:59Z</time>
      </trkpt>
      <trkpt lat="47.52899" lon="1.7369633">
        <ele>133.0</ele>
        <time>2022-03-31T08:15:00Z</time>
      </trkpt>
      <trkpt lat="47.528984" lon="1.7369685">
        <ele>133.0</ele>
        <time>2022-03-31T08:15:01Z</time>
      </trkpt>
      <trkpt lat="47.528973" lon="1.7369727">
        <ele>134.0</ele>
        <time>2022-03-31T08:15:02Z</time>
      </trkpt>
      <trkpt lat="47.528965" lon="1.7369784">
        <ele>134.0</ele>
        <time>2022-03-31T08:15:03Z</time>
      </trkpt>
      <trkpt lat="47.528957" lon="1.736984">
        <ele>134.0</ele>
        <time>2022-03-31T08:15:04Z</time>
      </trkpt>
      <trkpt lat="47.528946" lon="1.7369874">
        <ele>134.0</ele>
        <time>2022-03-31T08:15:05Z</time>
      </trkpt>
      <trkpt lat="47.528934" lon="1.7369927">
        <ele>134.0</ele>
        <time>2022-03-31T08:15:06Z</time>
      </trkpt>
      <trkpt lat="47.528923" lon="1.7369984">
        <ele>134.0</ele>
        <time>2022-03-31T08:15:07Z</time>
      </trkpt>
      <trkpt lat="47.528915" lon="1.7370025">
        <ele>134.0</ele>
        <time>2022-03-31T08:15:08Z</time>
      </trkpt>
      <trkpt lat="47.528908" lon="1.737007">
        <ele>135.0</ele>
        <time>2022-03-31T08:15:09Z</time>
      </trkpt>
      <trkpt lat="47.5289" lon="1.73701">
        <ele>135.0</ele>
        <time>2022-03-31T08:15:10Z</time>
      </trkpt>
      <trkpt lat="47.528893" lon="1.7370168">
        <ele>136.0</ele>
        <time>2022-03-31T08:15:11Z</time>
      </trkpt>
      <trkpt lat="47.52888" lon="1.7370247">
        <ele>135.0</ele>
        <time>2022-03-31T08:15:12Z</time>
      </trkpt>
      <trkpt lat="47.528873" lon="1.7370306">
        <ele>136.0</ele>
        <time>2022-03-31T08:15:13Z</time>
      </trkpt>
      <trkpt lat="47.528862" lon="1.7370327">
        <ele>136.0</ele>
        <time>2022-03-31T08:15:14Z</time>
      </trkpt>
      <trkpt lat="47.528854" lon="1.7370396">
        <ele>136.0</ele>
        <time>2022-03-31T08:15:15Z</time>
      </trkpt>
      <trkpt lat="47.528843" lon="1.7370406">
        <ele>136.0</ele>
        <time>2022-03-31T08:15:16Z</time>
      </trkpt>
      <trkpt lat="47.528835" lon="1.7370454">
        <ele>136.0</ele>
        <time>2022-03-31T08:15:17Z</time>
      </trkpt>
      <trkpt lat="47.528824" lon="1.7370516">
        <ele>136.0</ele>
        <time>2022-03-31T08:15:18Z</time>
      </trkpt>
      <trkpt lat="47.528816" lon="1.7370579">
        <ele>135.0</ele>
        <time>2022-03-31T08:15:19Z</time>
      </trkpt>
      <trkpt lat="47.52881" lon="1.7370656">
        <ele>135.0</ele>
        <time>2022-03-31T08:15:20Z</time>
      </trkpt>
      <trkpt lat="47.528797" lon="1.7370697">
        <ele>135.0</ele>
        <time>2022-03-31T08:15:21Z</time>
      </trkpt>
      <trkpt lat="47.52879" lon="1.7370743">
        <ele>136.0</ele>
        <time>2022-03-31T08:15:22Z</time>
      </trkpt>
      <trkpt lat="47.528778" lon="1.7370777">
        <ele>135.0</ele>
        <time>2022-03-31T08:15:23Z</time>
      </trkpt>
      <trkpt lat="47.528767" lon="1.7370826">
        <ele>135.0</ele>
        <time>2022-03-31T08:15:24Z</time>
      </trkpt>
      <trkpt lat="47.528755" lon="1.7370818">
        <ele>135.0</ele>
        <time>2022-03-31T08:15:25Z</time>
      </trkpt>
      <trkpt lat="47.528744" lon="1.7370888">
        <ele>135.0</ele>
        <time>2022-03-31T08:15:26Z</time>
      </trkpt>
      <trkpt lat="47.528736" lon="1.7370917">
        <ele>135.0</ele>
        <time>2022-03-31T08:15:27Z</time>
      </trkpt>
      <trkpt lat="47.52873" lon="1.7370927">
        <ele>135.0</ele>
        <time>2022-03-31T08:15:28Z</time>
      </trkpt>
      <trkpt lat="47.52872" lon="1.7370905">
        <ele>135.0</ele>
        <time>2022-03-31T08:15:29Z</time>
      </trkpt>
      <trkpt lat="47.528713" lon="1.7370865">
        <ele>135.0</ele>
        <time>2022-03-31T08:15:30Z</time>
      </trkpt>
      <trkpt lat="47.5287" lon="1.737089">
        <ele>136.0</ele>
        <time>2022-03-31T08:15:31Z</time>
      </trkpt>
      <trkpt lat="47.52869" lon="1.7370932">
        <ele>136.0</ele>
        <time>2022-03-31T08:15:32Z</time>
      </trkpt>
      <trkpt lat="47.528683" lon="1.7370987">
        <ele>136.0</ele>
        <time>2022-03-31T08:15:33Z</time>
      </trkpt>
      <trkpt lat="47.528675" lon="1.7371075">
        <ele>135.0</ele>
        <time>2022-03-31T08:15:34Z</time>
      </trkpt>
      <trkpt lat="47.528667" lon="1.7371153">
        <ele>135.0</ele>
        <time>2022-03-31T08:15:35Z</time>
      </trkpt>
      <trkpt lat="47.52866" lon="1.7371218">
        <ele>135.0</ele>
        <time>2022-03-31T08:15:36Z</time>
      </trkpt>
      <trkpt lat="47.52865" lon="1.7371275">
        <ele>135.0</ele>
        <time>2022-03-31T08:15:37Z</time>
      </trkpt>
      <trkpt lat="47.52864" lon="1.7371322">
        <ele>135.0</ele>
        <time>2022-03-31T08:15:38Z</time>
      </trkpt>
      <trkpt lat="47.52863" lon="1.7371331">
        <ele>135.0</ele>
        <time>2022-03-31T08:15:39Z</time>
      </trkpt>
      <trkpt lat="47.528614" lon="1.7371398">
        <ele>135.0</ele>
        <time>2022-03-31T08:15:40Z</time>
      </trkpt>
      <trkpt lat="47.528606" lon="1.7371503">
        <ele>134.0</ele>
        <time>2022-03-31T08:15:41Z</time>
      </trkpt>
      <trkpt lat="47.528603" lon="1.737159">
        <ele>134.0</ele>
        <time>2022-03-31T08:15:42Z</time>
      </trkpt>
      <trkpt lat="47.528595" lon="1.7371646">
        <ele>134.0</ele>
        <time>2022-03-31T08:15:43Z</time>
      </trkpt>
      <trkpt lat="47.528587" lon="1.737173">
        <ele>134.0</ele>
        <time>2022-03-31T08:15:44Z</time>
      </trkpt>
      <trkpt lat="47.528576" lon="1.7371833">
        <ele>134.0</ele>
        <time>2022-03-31T08:15:45Z</time>
      </trkpt>
      <trkpt lat="47.528572" lon="1.7371945">
        <ele>134.0</ele>
        <time>2022-03-31T08:15:46Z</time>
      </trkpt>
      <trkpt lat="47.528564" lon="1.737205">
        <ele>133.0</ele>
        <time>2022-03-31T08:15:47Z</time>
      </trkpt>
      <trkpt lat="47.528557" lon="1.7372139">
        <ele>134.0</ele>
        <time>2022-03-31T08:15:48Z</time>
      </trkpt>
      <trkpt lat="47.528553" lon="1.7372186">
        <ele>134.0</ele>
        <time>2022-03-31T08:15:49Z</time>
      </trkpt>
      <trkpt lat="47.52855" lon="1.7372295">
        <ele>134.0</ele>
        <time>2022-03-31T08:15:50Z</time>
      </trkpt>
      <trkpt lat="47.52854" lon="1.7372348">
        <ele>134.0</ele>
        <time>2022-03-31T08:15:51Z</time>
      </trkpt>
      <trkpt lat="47.528534" lon="1.7372404">
        <ele>134.0</ele>
        <time>2022-03-31T08:15:52Z</time>
      </trkpt>
      <trkpt lat="47.528526" lon="1.7372463">
        <ele>134.0</ele>
        <time>2022-03-31T08:15:53Z</time>
      </trkpt>
      <trkpt lat="47.528522" lon="1.7372559">
        <ele>134.0</ele>
        <time>2022-03-31T08:15:54Z</time>
      </trkpt>
      <trkpt lat="47.52851" lon="1.7372617">
        <ele>134.0</ele>
        <time>2022-03-31T08:15:55Z</time>
      </trkpt>
      <trkpt lat="47.528503" lon="1.7372681">
        <ele>134.0</ele>
        <time>2022-03-31T08:15:56Z</time>
      </trkpt>
      <trkpt lat="47.52849" lon="1.7372739">
        <ele>133.0</ele>
        <time>2022-03-31T08:15:57Z</time>
      </trkpt>
      <trkpt lat="47.52848" lon="1.7372824">
        <ele>133.0</ele>
        <time>2022-03-31T08:15:58Z</time>
      </trkpt>
      <trkpt lat="47.52847" lon="1.7372884">
        <ele>133.0</ele>
        <time>2022-03-31T08:15:59Z</time>
      </trkpt>
      <trkpt lat="47.52846" lon="1.7372968">
        <ele>133.0</ele>
        <time>2022-03-31T08:16:00Z</time>
      </trkpt>
      <trkpt lat="47.528454" lon="1.7373127">
        <ele>133.0</ele>
        <time>2022-03-31T08:16:01Z</time>
      </trkpt>
      <trkpt lat="47.52845" lon="1.7373251">
        <ele>133.0</ele>
        <time>2022-03-31T08:16:02Z</time>
      </trkpt>
      <trkpt lat="47.528446" lon="1.7373313">
        <ele>132.0</ele>
        <time>2022-03-31T08:16:03Z</time>
      </trkpt>
      <trkpt lat="47.52844" lon="1.7373407">
        <ele>132.0</ele>
        <time>2022-03-31T08:16:04Z</time>
      </trkpt>
      <trkpt lat="47.52843" lon="1.7373521">
        <ele>132.0</ele>
        <time>2022-03-31T08:16:05Z</time>
      </trkpt>
      <trkpt lat="47.52842" lon="1.7373646">
        <ele>132.0</ele>
        <time>2022-03-31T08:16:06Z</time>
      </trkpt>
      <trkpt lat="47.528408" lon="1.7373734">
        <ele>132.0</ele>
        <time>2022-03-31T08:16:07Z</time>
      </trkpt>
      <trkpt lat="47.5284" lon="1.7373857">
        <ele>132.0</ele>
        <time>2022-03-31T08:16:08Z</time>
      </trkpt>
      <trkpt lat="47.528393" lon="1.7373998">
        <ele>132.0</ele>
        <time>2022-03-31T08:16:09Z</time>
      </trkpt>
      <trkpt lat="47.52838" lon="1.7374117">
        <ele>132.0</ele>
        <time>2022-03-31T08:16:10Z</time>
      </trkpt>
      <trkpt lat="47.52837" lon="1.7374208">
        <ele>131.0</ele>
        <time>2022-03-31T08:16:11Z</time>
      </trkpt>
      <trkpt lat="47.528362" lon="1.7374303">
        <ele>131.0</ele>
        <time>2022-03-31T08:16:12Z</time>
      </trkpt>
      <trkpt lat="47.528355" lon="1.7374415">
        <ele>131.0</ele>
        <time>2022-03-31T08:16:13Z</time>
      </trkpt>
      <trkpt lat="47.528347" lon="1.7374547">
        <ele>130.0</ele>
        <time>2022-03-31T08:16:14Z</time>
      </trkpt>
      <trkpt lat="47.528336" lon="1.7374699">
        <ele>130.0</ele>
        <time>2022-03-31T08:16:15Z</time>
      </trkpt>
      <trkpt lat="47.52833" lon="1.7374872">
        <ele>130.0</ele>
        <time>2022-03-31T08:16:16Z</time>
      </trkpt>
      <trkpt lat="47.528328" lon="1.7375021">
        <ele>129.0</ele>
        <time>2022-03-31T08:16:17Z</time>
      </trkpt>
      <trkpt lat="47.52832" lon="1.737512">
        <ele>129.0</ele>
        <time>2022-03-31T08:16:18Z</time>
      </trkpt>
      <trkpt lat="47.528313" lon="1.7375233">
        <ele>129.0</ele>
        <time>2022-03-31T08:16:19Z</time>
      </trkpt>
      <trkpt lat="47.528305" lon="1.7375355">
        <ele>129.0</ele>
        <time>2022-03-31T08:16:20Z</time>
      </trkpt>
      <trkpt lat="47.528297" lon="1.7375457">
        <ele>130.0</ele>
        <time>2022-03-31T08:16:21Z</time>
      </trkpt>
      <trkpt lat="47.528286" lon="1.7375551">
        <ele>130.0</ele>
        <time>2022-03-31T08:16:22Z</time>
      </trkpt>
      <trkpt lat="47.52828" lon="1.7375638">
        <ele>130.0</ele>
        <time>2022-03-31T08:16:23Z</time>
      </trkpt>
      <trkpt lat="47.528267" lon="1.7375728">
        <ele>129.0</ele>
        <time>2022-03-31T08:16:24Z</time>
      </trkpt>
      <trkpt lat="47.528255" lon="1.7375815">
        <ele>129.0</ele>
        <time>2022-03-31T08:16:25Z</time>
      </trkpt>
      <trkpt lat="47.528248" lon="1.7375892">
        <ele>129.0</ele>
        <time>2022-03-31T08:16:26Z</time>
      </trkpt>
      <trkpt lat="47.52824" lon="1.7375991">
        <ele>129.0</ele>
        <time>2022-03-31T08:16:27Z</time>
      </trkpt>
      <trkpt lat="47.52823" lon="1.7376082">
        <ele>129.0</ele>
        <time>2022-03-31T08:16:28Z</time>
      </trkpt>
      <trkpt lat="47.528225" lon="1.7376158">
        <ele>129.0</ele>
        <time>2022-03-31T08:16:29Z</time>
      </trkpt>
      <trkpt lat="47.52822" lon="1.7376281">
        <ele>129.0</ele>
        <time>2022-03-31T08:16:30Z</time>
      </trkpt>
      <trkpt lat="47.528214" lon="1.7376423">
        <ele>128.0</ele>
        <time>2022-03-31T08:16:31Z</time>
      </trkpt>
      <trkpt lat="47.528206" lon="1.737653">
        <ele>128.0</ele>
        <time>2022-03-31T08:16:32Z</time>
      </trkpt>
      <trkpt lat="47.5282" lon="1.7376652">
        <ele>128.0</ele>
        <time>2022-03-31T08:16:33Z</time>
      </trkpt>
      <trkpt lat="47.528187" lon="1.7376806">
        <ele>128.0</ele>
        <time>2022-03-31T08:16:34Z</time>
      </trkpt>
      <trkpt lat="47.528175" lon="1.7376906">
        <ele>127.0</ele>
        <time>2022-03-31T08:16:35Z</time>
      </trkpt>
      <trkpt lat="47.528168" lon="1.7377">
        <ele>127.0</ele>
        <time>2022-03-31T08:16:36Z</time>
      </trkpt>
      <trkpt lat="47.528156" lon="1.7377105">
        <ele>127.0</ele>
        <time>2022-03-31T08:16:37Z</time>
      </trkpt>
      <trkpt lat="47.528152" lon="1.7377194">
        <ele>127.0</ele>
        <time>2022-03-31T08:16:38Z</time>
      </trkpt>
      <trkpt lat="47.528145" lon="1.7377297">
        <ele>127.0</ele>
        <time>2022-03-31T08:16:39Z</time>
      </trkpt>
      <trkpt lat="47.528137" lon="1.7377424">
        <ele>127.0</ele>
        <time>2022-03-31T08:16:40Z</time>
      </trkpt>
      <trkpt lat="47.52813" lon="1.7377534">
        <ele>126.0</ele>
        <time>2022-03-31T08:16:41Z</time>
      </trkpt>
      <trkpt lat="47.528122" lon="1.7377647">
        <ele>126.0</ele>
        <time>2022-03-31T08:16:42Z</time>
      </trkpt>
      <trkpt lat="47.52811" lon="1.7377797">
        <ele>125.0</ele>
        <time>2022-03-31T08:16:43Z</time>
      </trkpt>
      <trkpt lat="47.528103" lon="1.7377943">
        <ele>125.0</ele>
        <time>2022-03-31T08:16:44Z</time>
      </trkpt>
      <trkpt lat="47.5281" lon="1.7378095">
        <ele>125.0</ele>
        <time>2022-03-31T08:16:45Z</time>
      </trkpt>
      <trkpt lat="47.52809" lon="1.7378213">
        <ele>125.0</ele>
        <time>2022-03-31T08:16:46Z</time>
      </trkpt>
      <trkpt lat="47.528084" lon="1.7378367">
        <ele>125.0</ele>
        <time>2022-03-31T08:16:47Z</time>
      </trkpt>
      <trkpt lat="47.528072" lon="1.7378498">
        <ele>125.0</ele>
        <time>2022-03-31T08:16:48Z</time>
      </trkpt>
      <trkpt lat="47.528065" lon="1.7378604">
        <ele>125.0</ele>
        <time>2022-03-31T08:16:49Z</time>
      </trkpt>
      <trkpt lat="47.52806" lon="1.7378753">
        <ele>125.0</ele>
        <time>2022-03-31T08:16:50Z</time>
      </trkpt>
      <trkpt lat="47.52805" lon="1.7378882">
        <ele>124.0</ele>
        <time>2022-03-31T08:16:51Z</time>
      </trkpt>
      <trkpt lat="47.52804" lon="1.7378997">
        <ele>124.0</ele>
        <time>2022-03-31T08:16:52Z</time>
      </trkpt>
      <trkpt lat="47.528034" lon="1.7379106">
        <ele>124.0</ele>
        <time>2022-03-31T08:16:53Z</time>
      </trkpt>
      <trkpt lat="47.52803" lon="1.7379212">
        <ele>124.0</ele>
        <time>2022-03-31T08:16:54Z</time>
      </trkpt>
      <trkpt lat="47.528027" lon="1.7379336">
        <ele>125.0</ele>
        <time>2022-03-31T08:16:55Z</time>
      </trkpt>
      <trkpt lat="47.52802" lon="1.7379496">
        <ele>124.0</ele>
        <time>2022-03-31T08:16:56Z</time>
      </trkpt>
      <trkpt lat="47.528015" lon="1.7379628">
        <ele>124.0</ele>
        <time>2022-03-31T08:16:57Z</time>
      </trkpt>
      <trkpt lat="47.528008" lon="1.7379757">
        <ele>124.0</ele>
        <time>2022-03-31T08:16:58Z</time>
      </trkpt>
      <trkpt lat="47.527996" lon="1.7379901">
        <ele>124.0</ele>
        <time>2022-03-31T08:16:59Z</time>
      </trkpt>
      <trkpt lat="47.527992" lon="1.7380029">
        <ele>124.0</ele>
        <time>2022-03-31T08:17:00Z</time>
      </trkpt>
      <trkpt lat="47.52799" lon="1.738015">
        <ele>125.0</ele>
        <time>2022-03-31T08:17:01Z</time>
      </trkpt>
      <trkpt lat="47.527985" lon="1.7380273">
        <ele>125.0</ele>
        <time>2022-03-31T08:17:02Z</time>
      </trkpt>
      <trkpt lat="47.527977" lon="1.7380445">
        <ele>125.0</ele>
        <time>2022-03-31T08:17:03Z</time>
      </trkpt>
      <trkpt lat="47.527973" lon="1.7380602">
        <ele>125.0</ele>
        <time>2022-03-31T08:17:04Z</time>
      </trkpt>
      <trkpt lat="47.527966" lon="1.7380731">
        <ele>125.0</ele>
        <time>2022-03-31T08:17:05Z</time>
      </trkpt>
      <trkpt lat="47.52796" lon="1.7380857">
        <ele>125.0</ele>
        <time>2022-03-31T08:17:06Z</time>
      </trkpt>
      <trkpt lat="47.527954" lon="1.7381029">
        <ele>125.0</ele>
        <time>2022-03-31T08:17:07Z</time>
      </trkpt>
      <trkpt lat="47.527943" lon="1.7381151">
        <ele>125.0</ele>
        <time>2022-03-31T08:17:08Z</time>
      </trkpt>
      <trkpt lat="47.52793" lon="1.7381225">
        <ele>124.0</ele>
        <time>2022-03-31T08:17:09Z</time>
      </trkpt>
      <trkpt lat="47.527927" lon="1.7381266">
        <ele>124.0</ele>
        <time>2022-03-31T08:17:10Z</time>
      </trkpt>
      <trkpt lat="47.52792" lon="1.7381343">
        <ele>124.0</ele>
        <time>2022-03-31T08:17:11Z</time>
      </trkpt>
      <trkpt lat="47.527916" lon="1.738152">
        <ele>124.0</ele>
        <time>2022-03-31T08:17:12Z</time>
      </trkpt>
      <trkpt lat="47.52791" lon="1.7381617">
        <ele>124.0</ele>
        <time>2022-03-31T08:17:13Z</time>
      </trkpt>
      <trkpt lat="47.527905" lon="1.7381755">
        <ele>124.0</ele>
        <time>2022-03-31T08:17:14Z</time>
      </trkpt>
      <trkpt lat="47.5279" lon="1.7381886">
        <ele>124.0</ele>
        <time>2022-03-31T08:17:15Z</time>
      </trkpt>
      <trkpt lat="47.527893" lon="1.7382065">
        <ele>124.0</ele>
        <time>2022-03-31T08:17:16Z</time>
      </trkpt>
      <trkpt lat="47.52789" lon="1.7382271">
        <ele>124.0</ele>
        <time>2022-03-31T08:17:17Z</time>
      </trkpt>
      <trkpt lat="47.527878" lon="1.7382498">
        <ele>124.0</ele>
        <time>2022-03-31T08:17:18Z</time>
      </trkpt>
      <trkpt lat="47.527874" lon="1.7382665">
        <ele>124.0</ele>
        <time>2022-03-31T08:17:19Z</time>
      </trkpt>
      <trkpt lat="47.52787" lon="1.7382828">
        <ele>124.0</ele>
        <time>2022-03-31T08:17:20Z</time>
      </trkpt>
      <trkpt lat="47.527866" lon="1.7382988">
        <ele>123.0</ele>
        <time>2022-03-31T08:17:21Z</time>
      </trkpt>
      <trkpt lat="47.527863" lon="1.738317">
        <ele>124.0</ele>
        <time>2022-03-31T08:17:22Z</time>
      </trkpt>
      <trkpt lat="47.527855" lon="1.7383375">
        <ele>123.0</ele>
        <time>2022-03-31T08:17:23Z</time>
      </trkpt>
      <trkpt lat="47.52785" lon="1.7383528">
        <ele>124.0</ele>
        <time>2022-03-31T08:17:24Z</time>
      </trkpt>
      <trkpt lat="47.52784" lon="1.7383637">
        <ele>124.0</ele>
        <time>2022-03-31T08:17:25Z</time>
      </trkpt>
      <trkpt lat="47.527836" lon="1.738376">
        <ele>124.0</ele>
        <time>2022-03-31T08:17:26Z</time>
      </trkpt>
      <trkpt lat="47.527824" lon="1.7383889">
        <ele>124.0</ele>
        <time>2022-03-31T08:17:27Z</time>
      </trkpt>
      <trkpt lat="47.527817" lon="1.7384013">
        <ele>124.0</ele>
        <time>2022-03-31T08:17:28Z</time>
      </trkpt>
      <trkpt lat="47.52781" lon="1.7384156">
        <ele>124.0</ele>
        <time>2022-03-31T08:17:29Z</time>
      </trkpt>
      <trkpt lat="47.527805" lon="1.7384332">
        <ele>124.0</ele>
        <time>2022-03-31T08:17:30Z</time>
      </trkpt>
      <trkpt lat="47.527805" lon="1.7384515">
        <ele>124.0</ele>
        <time>2022-03-31T08:17:31Z</time>
      </trkpt>
      <trkpt lat="47.5278" lon="1.7384655">
        <ele>124.0</ele>
        <time>2022-03-31T08:17:32Z</time>
      </trkpt>
      <trkpt lat="47.527798" lon="1.7384815">
        <ele>124.0</ele>
        <time>2022-03-31T08:17:33Z</time>
      </trkpt>
      <trkpt lat="47.52779" lon="1.7384974">
        <ele>124.0</ele>
        <time>2022-03-31T08:17:34Z</time>
      </trkpt>
      <trkpt lat="47.52779" lon="1.7385182">
        <ele>124.0</ele>
        <time>2022-03-31T08:17:35Z</time>
      </trkpt>
      <trkpt lat="47.527786" lon="1.7385346">
        <ele>124.0</ele>
        <time>2022-03-31T08:17:36Z</time>
      </trkpt>
      <trkpt lat="47.527782" lon="1.7385492">
        <ele>124.0</ele>
        <time>2022-03-31T08:17:37Z</time>
      </trkpt>
      <trkpt lat="47.52778" lon="1.7385695">
        <ele>124.0</ele>
        <time>2022-03-31T08:17:38Z</time>
      </trkpt>
      <trkpt lat="47.52777" lon="1.7385925">
        <ele>124.0</ele>
        <time>2022-03-31T08:17:39Z</time>
      </trkpt>
      <trkpt lat="47.527767" lon="1.7386085">
        <ele>124.0</ele>
        <time>2022-03-31T08:17:40Z</time>
      </trkpt>
      <trkpt lat="47.52776" lon="1.7386249">
        <ele>124.0</ele>
        <time>2022-03-31T08:17:41Z</time>
      </trkpt>
      <trkpt lat="47.527756" lon="1.7386445">
        <ele>123.0</ele>
        <time>2022-03-31T08:17:42Z</time>
      </trkpt>
      <trkpt lat="47.527752" lon="1.7386643">
        <ele>123.0</ele>
        <time>2022-03-31T08:17:43Z</time>
      </trkpt>
      <trkpt lat="47.52775" lon="1.7386806">
        <ele>123.0</ele>
        <time>2022-03-31T08:17:44Z</time>
      </trkpt>
      <trkpt lat="47.527744" lon="1.7386981">
        <ele>123.0</ele>
        <time>2022-03-31T08:17:45Z</time>
      </trkpt>
      <trkpt lat="47.527737" lon="1.7387159">
        <ele>123.0</ele>
        <time>2022-03-31T08:17:46Z</time>
      </trkpt>
      <trkpt lat="47.52773" lon="1.7387313">
        <ele>123.0</ele>
        <time>2022-03-31T08:17:47Z</time>
      </trkpt>
      <trkpt lat="47.52772" lon="1.7387446">
        <ele>123.0</ele>
        <time>2022-03-31T08:17:48Z</time>
      </trkpt>
      <trkpt lat="47.52771" lon="1.7387594">
        <ele>123.0</ele>
        <time>2022-03-31T08:17:49Z</time>
      </trkpt>
      <trkpt lat="47.5277" lon="1.7387699">
        <ele>124.0</ele>
        <time>2022-03-31T08:17:50Z</time>
      </trkpt>
      <trkpt lat="47.52769" lon="1.738785">
        <ele>124.0</ele>
        <time>2022-03-31T08:17:51Z</time>
      </trkpt>
      <trkpt lat="47.527683" lon="1.7387993">
        <ele>124.0</ele>
        <time>2022-03-31T08:17:52Z</time>
      </trkpt>
      <trkpt lat="47.527683" lon="1.738813">
        <ele>124.0</ele>
        <time>2022-03-31T08:17:53Z</time>
      </trkpt>
      <trkpt lat="47.52768" lon="1.738824">
        <ele>124.0</ele>
        <time>2022-03-31T08:17:54Z</time>
      </trkpt>
      <trkpt lat="47.527676" lon="1.7388401">
        <ele>124.0</ele>
        <time>2022-03-31T08:17:55Z</time>
      </trkpt>
      <trkpt lat="47.527668" lon="1.738852">
        <ele>124.0</ele>
        <time>2022-03-31T08:17:56Z</time>
      </trkpt>
      <trkpt lat="47.52766" lon="1.7388686">
        <ele>123.0</ele>
        <time>2022-03-31T08:17:57Z</time>
      </trkpt>
      <trkpt lat="47.527657" lon="1.7388878">
        <ele>123.0</ele>
        <time>2022-03-31T08:17:58Z</time>
      </trkpt>
      <trkpt lat="47.52765" lon="1.7389053">
        <ele>123.0</ele>
        <time>2022-03-31T08:17:59Z</time>
      </trkpt>
      <trkpt lat="47.527645" lon="1.7389216">
        <ele>124.0</ele>
        <time>2022-03-31T08:18:00Z</time>
      </trkpt>
      <trkpt lat="47.527637" lon="1.7389352">
        <ele>124.0</ele>
        <time>2022-03-31T08:18:01Z</time>
      </trkpt>
      <trkpt lat="47.52763" lon="1.7389549">
        <ele>124.0</ele>
        <time>2022-03-31T08:18:02Z</time>
      </trkpt>
      <trkpt lat="47.527626" lon="1.7389762">
        <ele>124.0</ele>
        <time>2022-03-31T08:18:03Z</time>
      </trkpt>
      <trkpt lat="47.527626" lon="1.7389977">
        <ele>125.0</ele>
        <time>2022-03-31T08:18:04Z</time>
      </trkpt>
      <trkpt lat="47.52762" lon="1.7390159">
        <ele>125.0</ele>
        <time>2022-03-31T08:18:05Z</time>
      </trkpt>
      <trkpt lat="47.52761" lon="1.7390351">
        <ele>125.0</ele>
        <time>2022-03-31T08:18:06Z</time>
      </trkpt>
      <trkpt lat="47.5276" lon="1.7390485">
        <ele>125.0</ele>
        <time>2022-03-31T08:18:07Z</time>
      </trkpt>
      <trkpt lat="47.527588" lon="1.739061">
        <ele>125.0</ele>
        <time>2022-03-31T08:18:08Z</time>
      </trkpt>
      <trkpt lat="47.527576" lon="1.7390715">
        <ele>125.0</ele>
        <time>2022-03-31T08:18:09Z</time>
      </trkpt>
      <trkpt lat="47.52756" lon="1.7390845">
        <ele>125.0</ele>
        <time>2022-03-31T08:18:10Z</time>
      </trkpt>
      <trkpt lat="47.527554" lon="1.7390925">
        <ele>125.0</ele>
        <time>2022-03-31T08:18:11Z</time>
      </trkpt>
      <trkpt lat="47.527542" lon="1.7390991">
        <ele>125.0</ele>
        <time>2022-03-31T08:18:12Z</time>
      </trkpt>
      <trkpt lat="47.52753" lon="1.7391115">
        <ele>124.0</ele>
        <time>2022-03-31T08:18:13Z</time>
      </trkpt>
      <trkpt lat="47.52752" lon="1.7391227">
        <ele>124.0</ele>
        <time>2022-03-31T08:18:14Z</time>
      </trkpt>
      <trkpt lat="47.52751" lon="1.7391343">
        <ele>124.0</ele>
        <time>2022-03-31T08:18:15Z</time>
      </trkpt>
      <trkpt lat="47.527504" lon="1.7391483">
        <ele>124.0</ele>
        <time>2022-03-31T08:18:16Z</time>
      </trkpt>
      <trkpt lat="47.527493" lon="1.7391593">
        <ele>124.0</ele>
        <time>2022-03-31T08:18:17Z</time>
      </trkpt>
      <trkpt lat="47.52748" lon="1.7391647">
        <ele>124.0</ele>
        <time>2022-03-31T08:18:18Z</time>
      </trkpt>
      <trkpt lat="47.527473" lon="1.7391744">
        <ele>124.0</ele>
        <time>2022-03-31T08:18:19Z</time>
      </trkpt>
      <trkpt lat="47.527462" lon="1.7391851">
        <ele>124.0</ele>
        <time>2022-03-31T08:18:20Z</time>
      </trkpt>
      <trkpt lat="47.527454" lon="1.7391888">
        <ele>123.0</ele>
        <time>2022-03-31T08:18:21Z</time>
      </trkpt>
      <trkpt lat="47.527447" lon="1.739197">
        <ele>123.0</ele>
        <time>2022-03-31T08:18:22Z</time>
      </trkpt>
      <trkpt lat="47.52744" lon="1.7392067">
        <ele>123.0</ele>
        <time>2022-03-31T08:18:23Z</time>
      </trkpt>
      <trkpt lat="47.52743" lon="1.7392162">
        <ele>123.0</ele>
        <time>2022-03-31T08:18:24Z</time>
      </trkpt>
      <trkpt lat="47.527424" lon="1.7392279">
        <ele>123.0</ele>
        <time>2022-03-31T08:18:25Z</time>
      </trkpt>
      <trkpt lat="47.527412" lon="1.7392389">
        <ele>123.0</ele>
        <time>2022-03-31T08:18:26Z</time>
      </trkpt>
      <trkpt lat="47.5274" lon="1.7392441">
        <ele>123.0</ele>
        <time>2022-03-31T08:18:27Z</time>
      </trkpt>
      <trkpt lat="47.52739" lon="1.7392498">
        <ele>123.0</ele>
        <time>2022-03-31T08:18:28Z</time>
      </trkpt>
      <trkpt lat="47.527378" lon="1.7392585">
        <ele>124.0</ele>
        <time>2022-03-31T08:18:29Z</time>
      </trkpt>
      <trkpt lat="47.527363" lon="1.7392702">
        <ele>124.0</ele>
        <time>2022-03-31T08:18:30Z</time>
      </trkpt>
      <trkpt lat="47.52735" lon="1.7392843">
        <ele>124.0</ele>
        <time>2022-03-31T08:18:31Z</time>
      </trkpt>
      <trkpt lat="47.527344" lon="1.7392939">
        <ele>124.0</ele>
        <time>2022-03-31T08:18:32Z</time>
      </trkpt>
      <trkpt lat="47.52733" lon="1.7393032">
        <ele>124.0</ele>
        <time>2022-03-31T08:18:33Z</time>
      </trkpt>
      <trkpt lat="47.527313" lon="1.7393087">
        <ele>124.0</ele>
        <time>2022-03-31T08:18:34Z</time>
      </trkpt>
      <trkpt lat="47.5273" lon="1.7393134">
        <ele>124.0</ele>
        <time>2022-03-31T08:18:35Z</time>
      </trkpt>
      <trkpt lat="47.52729" lon="1.7393192">
        <ele>124.0</ele>
        <time>2022-03-31T08:18:36Z</time>
      </trkpt>
      <trkpt lat="47.527283" lon="1.7393281">
        <ele>124.0</ele>
        <time>2022-03-31T08:18:37Z</time>
      </trkpt>
      <trkpt lat="47.52727" lon="1.7393373">
        <ele>124.0</ele>
        <time>2022-03-31T08:18:38Z</time>
      </trkpt>
      <trkpt lat="47.527264" lon="1.7393491">
        <ele>124.0</ele>
        <time>2022-03-31T08:18:39Z</time>
      </trkpt>
      <trkpt lat="47.527256" lon="1.7393613">
        <ele>124.0</ele>
        <time>2022-03-31T08:18:40Z</time>
      </trkpt>
      <trkpt lat="47.52725" lon="1.7393754">
        <ele>124.0</ele>
        <time>2022-03-31T08:18:41Z</time>
      </trkpt>
      <trkpt lat="47.52724" lon="1.7393881">
        <ele>124.0</ele>
        <time>2022-03-31T08:18:42Z</time>
      </trkpt>
      <trkpt lat="47.527233" lon="1.7393997">
        <ele>124.0</ele>
        <time>2022-03-31T08:18:43Z</time>
      </trkpt>
      <trkpt lat="47.527225" lon="1.7394116">
        <ele>124.0</ele>
        <time>2022-03-31T08:18:44Z</time>
      </trkpt>
      <trkpt lat="47.527218" lon="1.7394207">
        <ele>124.0</ele>
        <time>2022-03-31T08:18:45Z</time>
      </trkpt>
      <trkpt lat="47.527206" lon="1.7394259">
        <ele>124.0</ele>
        <time>2022-03-31T08:18:46Z</time>
      </trkpt>
      <trkpt lat="47.527195" lon="1.7394325">
        <ele>125.0</ele>
        <time>2022-03-31T08:18:47Z</time>
      </trkpt>
      <trkpt lat="47.527184" lon="1.7394415">
        <ele>125.0</ele>
        <time>2022-03-31T08:18:48Z</time>
      </trkpt>
      <trkpt lat="47.527172" lon="1.7394503">
        <ele>125.0</ele>
        <time>2022-03-31T08:18:49Z</time>
      </trkpt>
      <trkpt lat="47.52716" lon="1.7394522">
        <ele>125.0</ele>
        <time>2022-03-31T08:18:50Z</time>
      </trkpt>
      <trkpt lat="47.527145" lon="1.739457">
        <ele>125.0</ele>
        <time>2022-03-31T08:18:51Z</time>
      </trkpt>
      <trkpt lat="47.527134" lon="1.7394598">
        <ele>124.0</ele>
        <time>2022-03-31T08:18:52Z</time>
      </trkpt>
      <trkpt lat="47.527122" lon="1.7394636">
        <ele>124.0</ele>
        <time>2022-03-31T08:18:53Z</time>
      </trkpt>
      <trkpt lat="47.527107" lon="1.7394706">
        <ele>124.0</ele>
        <time>2022-03-31T08:18:54Z</time>
      </trkpt>
      <trkpt lat="47.527096" lon="1.7394791">
        <ele>124.0</ele>
        <time>2022-03-31T08:18:55Z</time>
      </trkpt>
      <trkpt lat="47.52708" lon="1.7394822">
        <ele>124.0</ele>
        <time>2022-03-31T08:18:56Z</time>
      </trkpt>
      <trkpt lat="47.52707" lon="1.7394845">
        <ele>124.0</ele>
        <time>2022-03-31T08:18:57Z</time>
      </trkpt>
      <trkpt lat="47.527054" lon="1.7394875">
        <ele>124.0</ele>
        <time>2022-03-31T08:18:58Z</time>
      </trkpt>
      <trkpt lat="47.527046" lon="1.7394891">
        <ele>124.0</ele>
        <time>2022-03-31T08:18:59Z</time>
      </trkpt>
      <trkpt lat="47.52703" lon="1.7394919">
        <ele>124.0</ele>
        <time>2022-03-31T08:19:00Z</time>
      </trkpt>
      <trkpt lat="47.52702" lon="1.7394905">
        <ele>123.0</ele>
        <time>2022-03-31T08:19:01Z</time>
      </trkpt>
      <trkpt lat="47.527008" lon="1.7394863">
        <ele>123.0</ele>
        <time>2022-03-31T08:19:02Z</time>
      </trkpt>
      <trkpt lat="47.527" lon="1.7394884">
        <ele>123.0</ele>
        <time>2022-03-31T08:19:03Z</time>
      </trkpt>
      <trkpt lat="47.52699" lon="1.7394886">
        <ele>123.0</ele>
        <time>2022-03-31T08:19:04Z</time>
      </trkpt>
      <trkpt lat="47.526974" lon="1.739489">
        <ele>123.0</ele>
        <time>2022-03-31T08:19:05Z</time>
      </trkpt>
      <trkpt lat="47.526962" lon="1.7394881">
        <ele>123.0</ele>
        <time>2022-03-31T08:19:06Z</time>
      </trkpt>
      <trkpt lat="47.52695" lon="1.7394859">
        <ele>123.0</ele>
        <time>2022-03-31T08:19:07Z</time>
      </trkpt>
      <trkpt lat="47.526936" lon="1.7394818">
        <ele>123.0</ele>
        <time>2022-03-31T08:19:08Z</time>
      </trkpt>
      <trkpt lat="47.526924" lon="1.7394788">
        <ele>123.0</ele>
        <time>2022-03-31T08:19:09Z</time>
      </trkpt>
      <trkpt lat="47.52691" lon="1.739474">
        <ele>123.0</ele>
        <time>2022-03-31T08:19:10Z</time>
      </trkpt>
      <trkpt lat="47.526894" lon="1.7394629">
        <ele>123.0</ele>
        <time>2022-03-31T08:19:11Z</time>
      </trkpt>
      <trkpt lat="47.526882" lon="1.7394599">
        <ele>123.0</ele>
        <time>2022-03-31T08:19:12Z</time>
      </trkpt>
      <trkpt lat="47.526867" lon="1.7394589">
        <ele>123.0</ele>
        <time>2022-03-31T08:19:13Z</time>
      </trkpt>
      <trkpt lat="47.52686" lon="1.739461">
        <ele>124.0</ele>
        <time>2022-03-31T08:19:14Z</time>
      </trkpt>
      <trkpt lat="47.526848" lon="1.7394638">
        <ele>124.0</ele>
        <time>2022-03-31T08:19:15Z</time>
      </trkpt>
      <trkpt lat="47.526836" lon="1.7394642">
        <ele>124.0</ele>
        <time>2022-03-31T08:19:16Z</time>
      </trkpt>
      <trkpt lat="47.526833" lon="1.7394761">
        <ele>124.0</ele>
        <time>2022-03-31T08:19:17Z</time>
      </trkpt>
      <trkpt lat="47.526825" lon="1.739479">
        <ele>125.0</ele>
        <time>2022-03-31T08:19:18Z</time>
      </trkpt>
      <trkpt lat="47.526817" lon="1.7394844">
        <ele>125.0</ele>
        <time>2022-03-31T08:19:19Z</time>
      </trkpt>
      <trkpt lat="47.52681" lon="1.7394958">
        <ele>126.0</ele>
        <time>2022-03-31T08:19:20Z</time>
      </trkpt>
      <trkpt lat="47.5268" lon="1.7395099">
        <ele>126.0</ele>
        <time>2022-03-31T08:19:21Z</time>
      </trkpt>
      <trkpt lat="47.52679" lon="1.7395208">
        <ele>126.0</ele>
        <time>2022-03-31T08:19:22Z</time>
      </trkpt>
      <trkpt lat="47.526775" lon="1.7395296">
        <ele>125.0</ele>
        <time>2022-03-31T08:19:23Z</time>
      </trkpt>
      <trkpt lat="47.526764" lon="1.7395375">
        <ele>126.0</ele>
        <time>2022-03-31T08:19:24Z</time>
      </trkpt>
      <trkpt lat="47.52675" lon="1.7395434">
        <ele>126.0</ele>
        <time>2022-03-31T08:19:25Z</time>
      </trkpt>
      <trkpt lat="47.526737" lon="1.739546">
        <ele>126.0</ele>
        <time>2022-03-31T08:19:26Z</time>
      </trkpt>
      <trkpt lat="47.526722" lon="1.7395468">
        <ele>126.0</ele>
        <time>2022-03-31T08:19:27Z</time>
      </trkpt>
      <trkpt lat="47.526714" lon="1.7395401">
        <ele>126.0</ele>
        <time>2022-03-31T08:19:28Z</time>
      </trkpt>
      <trkpt lat="47.526703" lon="1.7395384">
        <ele>125.0</ele>
        <time>2022-03-31T08:19:29Z</time>
      </trkpt>
      <trkpt lat="47.52669" lon="1.7395382">
        <ele>125.0</ele>
        <time>2022-03-31T08:19:30Z</time>
      </trkpt>
      <trkpt lat="47.526672" lon="1.7395428">
        <ele>125.0</ele>
        <time>2022-03-31T08:19:31Z</time>
      </trkpt>
      <trkpt lat="47.526665" lon="1.7395469">
        <ele>124.0</ele>
        <time>2022-03-31T08:19:32Z</time>
      </trkpt>
      <trkpt lat="47.526653" lon="1.7395513">
        <ele>124.0</ele>
        <time>2022-03-31T08:19:33Z</time>
      </trkpt>
      <trkpt lat="47.52664" lon="1.7395521">
        <ele>124.0</ele>
        <time>2022-03-31T08:19:34Z</time>
      </trkpt>
      <trkpt lat="47.526634" lon="1.7395569">
        <ele>124.0</ele>
        <time>2022-03-31T08:19:35Z</time>
      </trkpt>
      <trkpt lat="47.526627" lon="1.7395643">
        <ele>124.0</ele>
        <time>2022-03-31T08:19:36Z</time>
      </trkpt>
      <trkpt lat="47.526627" lon="1.7395637">
        <ele>124.0</ele>
        <time>2022-03-31T08:19:37Z</time>
      </trkpt>
      <trkpt lat="47.526623" lon="1.7395674">
        <ele>124.0</ele>
        <time>2022-03-31T08:19:38Z</time>
      </trkpt>
      <trkpt lat="47.52662" lon="1.7395798">
        <ele>124.0</ele>
        <time>2022-03-31T08:19:39Z</time>
      </trkpt>
      <trkpt lat="47.526608" lon="1.7395893">
        <ele>124.0</ele>
        <time>2022-03-31T08:19:40Z</time>
      </trkpt>
      <trkpt lat="47.5266" lon="1.7395964">
        <ele>124.0</ele>
        <time>2022-03-31T08:19:41Z</time>
      </trkpt>
      <trkpt lat="47.526596" lon="1.7395982">
        <ele>124.0</ele>
        <time>2022-03-31T08:19:42Z</time>
      </trkpt>
      <trkpt lat="47.526592" lon="1.7395972">
        <ele>124.0</ele>
        <time>2022-03-31T08:19:43Z</time>
      </trkpt>
      <trkpt lat="47.526592" lon="1.7395928">
        <ele>124.0</ele>
        <time>2022-03-31T08:19:44Z</time>
      </trkpt>
      <trkpt lat="47.526596" lon="1.73959">
        <ele>124.0</ele>
        <time>2022-03-31T08:19:45Z</time>
      </trkpt>
      <trkpt lat="47.526604" lon="1.7395865">
        <ele>125.0</ele>
        <time>2022-03-31T08:19:46Z</time>
      </trkpt>
      <trkpt lat="47.526608" lon="1.7395811">
        <ele>125.0</ele>
        <time>2022-03-31T08:19:47Z</time>
      </trkpt>
      <trkpt lat="47.52661" lon="1.739581">
        <ele>126.0</ele>
        <time>2022-03-31T08:19:48Z</time>
      </trkpt>
      <trkpt lat="47.52661" lon="1.7395853">
        <ele>126.0</ele>
        <time>2022-03-31T08:19:49Z</time>
      </trkpt>
      <trkpt lat="47.526615" lon="1.7395868">
        <ele>125.0</ele>
        <time>2022-03-31T08:19:50Z</time>
      </trkpt>
      <trkpt lat="47.52662" lon="1.7395895">
        <ele>125.0</ele>
        <time>2022-03-31T08:19:51Z</time>
      </trkpt>
      <trkpt lat="47.526627" lon="1.7395868">
        <ele>125.0</ele>
        <time>2022-03-31T08:19:52Z</time>
      </trkpt>
      <trkpt lat="47.526634" lon="1.7395853">
        <ele>126.0</ele>
        <time>2022-03-31T08:19:53Z</time>
      </trkpt>
      <trkpt lat="47.52664" lon="1.7395804">
        <ele>126.0</ele>
        <time>2022-03-31T08:19:54Z</time>
      </trkpt>
      <trkpt lat="47.526653" lon="1.7395743">
        <ele>126.0</ele>
        <time>2022-03-31T08:19:55Z</time>
      </trkpt>
      <trkpt lat="47.526665" lon="1.7395749">
        <ele>126.0</ele>
        <time>2022-03-31T08:19:56Z</time>
      </trkpt>
      <trkpt lat="47.52668" lon="1.7395601">
        <ele>126.0</ele>
        <time>2022-03-31T08:19:57Z</time>
      </trkpt>
      <trkpt lat="47.52669" lon="1.7395512">
        <ele>126.0</ele>
        <time>2022-03-31T08:19:58Z</time>
      </trkpt>
      <trkpt lat="47.526703" lon="1.7395488">
        <ele>126.0</ele>
        <time>2022-03-31T08:19:59Z</time>
      </trkpt>
      <trkpt lat="47.52671" lon="1.7395478">
        <ele>126.0</ele>
        <time>2022-03-31T08:20:00Z</time>
      </trkpt>
      <trkpt lat="47.52672" lon="1.7395455">
        <ele>126.0</ele>
        <time>2022-03-31T08:20:01Z</time>
      </trkpt>
      <trkpt lat="47.52673" lon="1.7395469">
        <ele>126.0</ele>
        <time>2022-03-31T08:20:02Z</time>
      </trkpt>
      <trkpt lat="47.526737" lon="1.739546">
        <ele>126.0</ele>
        <time>2022-03-31T08:20:03Z</time>
      </trkpt>
      <trkpt lat="47.526745" lon="1.7395405">
        <ele>126.0</ele>
        <time>2022-03-31T08:20:04Z</time>
      </trkpt>
      <trkpt lat="47.526756" lon="1.7395303">
        <ele>126.0</ele>
        <time>2022-03-31T08:20:05Z</time>
      </trkpt>
      <trkpt lat="47.526768" lon="1.7395225">
        <ele>126.0</ele>
        <time>2022-03-31T08:20:06Z</time>
      </trkpt>
      <trkpt lat="47.526775" lon="1.7395159">
        <ele>126.0</ele>
        <time>2022-03-31T08:20:07Z</time>
      </trkpt>
      <trkpt lat="47.526783" lon="1.7395115">
        <ele>127.0</ele>
        <time>2022-03-31T08:20:08Z</time>
      </trkpt>
      <trkpt lat="47.526787" lon="1.7395054">
        <ele>127.0</ele>
        <time>2022-03-31T08:20:09Z</time>
      </trkpt>
      <trkpt lat="47.526787" lon="1.7394958">
        <ele>127.0</ele>
        <time>2022-03-31T08:20:10Z</time>
      </trkpt>
      <trkpt lat="47.526783" lon="1.7394856">
        <ele>127.0</ele>
        <time>2022-03-31T08:20:11Z</time>
      </trkpt>
      <trkpt lat="47.52678" lon="1.7394718">
        <ele>127.0</ele>
        <time>2022-03-31T08:20:12Z</time>
      </trkpt>
      <trkpt lat="47.52678" lon="1.7394553">
        <ele>127.0</ele>
        <time>2022-03-31T08:20:13Z</time>
      </trkpt>
      <trkpt lat="47.52677" lon="1.7394443">
        <ele>127.0</ele>
        <time>2022-03-31T08:20:14Z</time>
      </trkpt>
      <trkpt lat="47.526768" lon="1.7394384">
        <ele>127.0</ele>
        <time>2022-03-31T08:20:15Z</time>
      </trkpt>
      <trkpt lat="47.52676" lon="1.7394289">
        <ele>127.0</ele>
        <time>2022-03-31T08:20:16Z</time>
      </trkpt>
      <trkpt lat="47.526752" lon="1.7394104">
        <ele>127.0</ele>
        <time>2022-03-31T08:20:17Z</time>
      </trkpt>
      <trkpt lat="47.526745" lon="1.7393974">
        <ele>128.0</ele>
        <time>2022-03-31T08:20:18Z</time>
      </trkpt>
      <trkpt lat="47.52674" lon="1.7393873">
        <ele>128.0</ele>
        <time>2022-03-31T08:20:19Z</time>
      </trkpt>
      <trkpt lat="47.526737" lon="1.7393706">
        <ele>128.0</ele>
        <time>2022-03-31T08:20:20Z</time>
      </trkpt>
      <trkpt lat="47.526726" lon="1.7393512">
        <ele>128.0</ele>
        <time>2022-03-31T08:20:21Z</time>
      </trkpt>
      <trkpt lat="47.52672" lon="1.7393351">
        <ele>128.0</ele>
        <time>2022-03-31T08:20:22Z</time>
      </trkpt>
      <trkpt lat="47.52671" lon="1.7393212">
        <ele>128.0</ele>
        <time>2022-03-31T08:20:23Z</time>
      </trkpt>
      <trkpt lat="47.526703" lon="1.7393024">
        <ele>128.0</ele>
        <time>2022-03-31T08:20:24Z</time>
      </trkpt>
      <trkpt lat="47.526703" lon="1.7392907">
        <ele>129.0</ele>
        <time>2022-03-31T08:20:25Z</time>
      </trkpt>
      <trkpt lat="47.5267" lon="1.7392762">
        <ele>128.0</ele>
        <time>2022-03-31T08:20:26Z</time>
      </trkpt>
      <trkpt lat="47.526695" lon="1.7392594">
        <ele>129.0</ele>
        <time>2022-03-31T08:20:27Z</time>
      </trkpt>
      <trkpt lat="47.52669" lon="1.7392446">
        <ele>129.0</ele>
        <time>2022-03-31T08:20:28Z</time>
      </trkpt>
      <trkpt lat="47.52669" lon="1.7392292">
        <ele>129.0</ele>
        <time>2022-03-31T08:20:29Z</time>
      </trkpt>
      <trkpt lat="47.52669" lon="1.7392132">
        <ele>129.0</ele>
        <time>2022-03-31T08:20:30Z</time>
      </trkpt>
      <trkpt lat="47.526688" lon="1.7392027">
        <ele>129.0</ele>
        <time>2022-03-31T08:20:31Z</time>
      </trkpt>
      <trkpt lat="47.52669" lon="1.7391891">
        <ele>129.0</ele>
        <time>2022-03-31T08:20:32Z</time>
      </trkpt>
      <trkpt lat="47.526688" lon="1.7391757">
        <ele>129.0</ele>
        <time>2022-03-31T08:20:33Z</time>
      </trkpt>
      <trkpt lat="47.526688" lon="1.7391605">
        <ele>129.0</ele>
        <time>2022-03-31T08:20:34Z</time>
      </trkpt>
      <trkpt lat="47.526684" lon="1.7391459">
        <ele>129.0</ele>
        <time>2022-03-31T08:20:35Z</time>
      </trkpt>
      <trkpt lat="47.526684" lon="1.7391287">
        <ele>129.0</ele>
        <time>2022-03-31T08:20:36Z</time>
      </trkpt>
      <trkpt lat="47.526684" lon="1.7391119">
        <ele>129.0</ele>
        <time>2022-03-31T08:20:37Z</time>
      </trkpt>
      <trkpt lat="47.526688" lon="1.7390987">
        <ele>129.0</ele>
        <time>2022-03-31T08:20:38Z</time>
      </trkpt>
      <trkpt lat="47.526688" lon="1.739081">
        <ele>130.0</ele>
        <time>2022-03-31T08:20:39Z</time>
      </trkpt>
      <trkpt lat="47.526684" lon="1.7390631">
        <ele>129.0</ele>
        <time>2022-03-31T08:20:40Z</time>
      </trkpt>
      <trkpt lat="47.52668" lon="1.7390476">
        <ele>129.0</ele>
        <time>2022-03-31T08:20:41Z</time>
      </trkpt>
      <trkpt lat="47.52668" lon="1.7390493">
        <ele>129.0</ele>
        <time>2022-03-31T08:20:42Z</time>
      </trkpt>
      <trkpt lat="47.526684" lon="1.7390456">
        <ele>129.0</ele>
        <time>2022-03-31T08:20:43Z</time>
      </trkpt>
      <trkpt lat="47.526688" lon="1.739036">
        <ele>130.0</ele>
        <time>2022-03-31T08:20:44Z</time>
      </trkpt>
      <trkpt lat="47.52669" lon="1.7390224">
        <ele>129.0</ele>
        <time>2022-03-31T08:20:45Z</time>
      </trkpt>
      <trkpt lat="47.52669" lon="1.7390053">
        <ele>129.0</ele>
        <time>2022-03-31T08:20:46Z</time>
      </trkpt>
      <trkpt lat="47.526695" lon="1.738985">
        <ele>128.0</ele>
        <time>2022-03-31T08:20:47Z</time>
      </trkpt>
      <trkpt lat="47.526695" lon="1.738964">
        <ele>128.0</ele>
        <time>2022-03-31T08:20:48Z</time>
      </trkpt>
      <trkpt lat="47.5267" lon="1.7389412">
        <ele>128.0</ele>
        <time>2022-03-31T08:20:49Z</time>
      </trkpt>
      <trkpt lat="47.5267" lon="1.7389195">
        <ele>128.0</ele>
        <time>2022-03-31T08:20:50Z</time>
      </trkpt>
      <trkpt lat="47.526703" lon="1.7389009">
        <ele>128.0</ele>
        <time>2022-03-31T08:20:51Z</time>
      </trkpt>
      <trkpt lat="47.5267" lon="1.7388796">
        <ele>129.0</ele>
        <time>2022-03-31T08:20:52Z</time>
      </trkpt>
      <trkpt lat="47.5267" lon="1.7388647">
        <ele>129.0</ele>
        <time>2022-03-31T08:20:53Z</time>
      </trkpt>
      <trkpt lat="47.5267" lon="1.7388498">
        <ele>129.0</ele>
        <time>2022-03-31T08:20:54Z</time>
      </trkpt>
      <trkpt lat="47.5267" lon="1.7388325">
        <ele>129.0</ele>
        <time>2022-03-31T08:20:55Z</time>
      </trkpt>
      <trkpt lat="47.526695" lon="1.7388147">
        <ele>130.0</ele>
        <time>2022-03-31T08:20:56Z</time>
      </trkpt>
      <trkpt lat="47.52669" lon="1.7388017">
        <ele>130.0</ele>
        <time>2022-03-31T08:20:57Z</time>
      </trkpt>
      <trkpt lat="47.526688" lon="1.7387836">
        <ele>129.0</ele>
        <time>2022-03-31T08:20:58Z</time>
      </trkpt>
      <trkpt lat="47.526688" lon="1.7387619">
        <ele>128.0</ele>
        <time>2022-03-31T08:20:59Z</time>
      </trkpt>
      <trkpt lat="47.526684" lon="1.7387444">
        <ele>128.0</ele>
        <time>2022-03-31T08:21:00Z</time>
      </trkpt>
      <trkpt lat="47.526684" lon="1.7387242">
        <ele>128.0</ele>
        <time>2022-03-31T08:21:01Z</time>
      </trkpt>
      <trkpt lat="47.52668" lon="1.7387015">
        <ele>128.0</ele>
        <time>2022-03-31T08:21:02Z</time>
      </trkpt>
      <trkpt lat="47.526676" lon="1.738684">
        <ele>127.0</ele>
        <time>2022-03-31T08:21:03Z</time>
      </trkpt>
      <trkpt lat="47.526676" lon="1.7386719">
        <ele>127.0</ele>
        <time>2022-03-31T08:21:04Z</time>
      </trkpt>
      <trkpt lat="47.526676" lon="1.7386583">
        <ele>127.0</ele>
        <time>2022-03-31T08:21:05Z</time>
      </trkpt>
      <trkpt lat="47.526676" lon="1.7386391">
        <ele>127.0</ele>
        <time>2022-03-31T08:21:06Z</time>
      </trkpt>
      <trkpt lat="47.52668" lon="1.7386193">
        <ele>126.0</ele>
        <time>2022-03-31T08:21:07Z</time>
      </trkpt>
      <trkpt lat="47.52668" lon="1.7386024">
        <ele>126.0</ele>
        <time>2022-03-31T08:21:08Z</time>
      </trkpt>
      <trkpt lat="47.52668" lon="1.7385874">
        <ele>126.0</ele>
        <time>2022-03-31T08:21:09Z</time>
      </trkpt>
      <trkpt lat="47.526684" lon="1.7385727">
        <ele>127.0</ele>
        <time>2022-03-31T08:21:10Z</time>
      </trkpt>
      <trkpt lat="47.526684" lon="1.7385571">
        <ele>127.0</ele>
        <time>2022-03-31T08:21:11Z</time>
      </trkpt>
      <trkpt lat="47.526684" lon="1.7385408">
        <ele>126.0</ele>
        <time>2022-03-31T08:21:12Z</time>
      </trkpt>
      <trkpt lat="47.52668" lon="1.7385256">
        <ele>126.0</ele>
        <time>2022-03-31T08:21:13Z</time>
      </trkpt>
      <trkpt lat="47.52668" lon="1.7385137">
        <ele>126.0</ele>
        <time>2022-03-31T08:21:14Z</time>
      </trkpt>
      <trkpt lat="47.52668" lon="1.7384948">
        <ele>125.0</ele>
        <time>2022-03-31T08:21:15Z</time>
      </trkpt>
      <trkpt lat="47.52668" lon="1.7384809">
        <ele>125.0</ele>
        <time>2022-03-31T08:21:16Z</time>
      </trkpt>
      <trkpt lat="47.526684" lon="1.7384683">
        <ele>125.0</ele>
        <time>2022-03-31T08:21:17Z</time>
      </trkpt>
      <trkpt lat="47.526684" lon="1.7384573">
        <ele>126.0</ele>
        <time>2022-03-31T08:21:18Z</time>
      </trkpt>
      <trkpt lat="47.52669" lon="1.7384375">
        <ele>125.0</ele>
        <time>2022-03-31T08:21:19Z</time>
      </trkpt>
      <trkpt lat="47.52669" lon="1.7384204">
        <ele>125.0</ele>
        <time>2022-03-31T08:21:20Z</time>
      </trkpt>
      <trkpt lat="47.52669" lon="1.738407">
        <ele>125.0</ele>
        <time>2022-03-31T08:21:21Z</time>
      </trkpt>
      <trkpt lat="47.52669" lon="1.7383903">
        <ele>126.0</ele>
        <time>2022-03-31T08:21:22Z</time>
      </trkpt>
      <trkpt lat="47.526688" lon="1.7383703">
        <ele>126.0</ele>
        <time>2022-03-31T08:21:23Z</time>
      </trkpt>
      <trkpt lat="47.526688" lon="1.7383525">
        <ele>126.0</ele>
        <time>2022-03-31T08:21:24Z</time>
      </trkpt>
      <trkpt lat="47.526684" lon="1.7383327">
        <ele>126.0</ele>
        <time>2022-03-31T08:21:25Z</time>
      </trkpt>
      <trkpt lat="47.526684" lon="1.7383146">
        <ele>126.0</ele>
        <time>2022-03-31T08:21:26Z</time>
      </trkpt>
      <trkpt lat="47.526688" lon="1.738297">
        <ele>126.0</ele>
        <time>2022-03-31T08:21:27Z</time>
      </trkpt>
      <trkpt lat="47.52669" lon="1.7382832">
        <ele>126.0</ele>
        <time>2022-03-31T08:21:28Z</time>
      </trkpt>
      <trkpt lat="47.52669" lon="1.7382684">
        <ele>126.0</ele>
        <time>2022-03-31T08:21:29Z</time>
      </trkpt>
      <trkpt lat="47.526695" lon="1.738251">
        <ele>126.0</ele>
        <time>2022-03-31T08:21:30Z</time>
      </trkpt>
      <trkpt lat="47.526695" lon="1.7382303">
        <ele>126.0</ele>
        <time>2022-03-31T08:21:31Z</time>
      </trkpt>
      <trkpt lat="47.526695" lon="1.738212">
        <ele>126.0</ele>
        <time>2022-03-31T08:21:32Z</time>
      </trkpt>
      <trkpt lat="47.526695" lon="1.7381941">
        <ele>126.0</ele>
        <time>2022-03-31T08:21:33Z</time>
      </trkpt>
      <trkpt lat="47.5267" lon="1.7381767">
        <ele>126.0</ele>
        <time>2022-03-31T08:21:34Z</time>
      </trkpt>
      <trkpt lat="47.5267" lon="1.7381632">
        <ele>126.0</ele>
        <time>2022-03-31T08:21:35Z</time>
      </trkpt>
      <trkpt lat="47.5267" lon="1.7381512">
        <ele>125.0</ele>
        <time>2022-03-31T08:21:36Z</time>
      </trkpt>
      <trkpt lat="47.5267" lon="1.738136">
        <ele>125.0</ele>
        <time>2022-03-31T08:21:37Z</time>
      </trkpt>
      <trkpt lat="47.5267" lon="1.7381226">
        <ele>125.0</ele>
        <time>2022-03-31T08:21:38Z</time>
      </trkpt>
      <trkpt lat="47.5267" lon="1.7381102">
        <ele>125.0</ele>
        <time>2022-03-31T08:21:39Z</time>
      </trkpt>
      <trkpt lat="47.526703" lon="1.7380941">
        <ele>126.0</ele>
        <time>2022-03-31T08:21:40Z</time>
      </trkpt>
      <trkpt lat="47.526707" lon="1.7380801">
        <ele>126.0</ele>
        <time>2022-03-31T08:21:41Z</time>
      </trkpt>
      <trkpt lat="47.52671" lon="1.7380645">
        <ele>125.0</ele>
        <time>2022-03-31T08:21:42Z</time>
      </trkpt>
      <trkpt lat="47.526714" lon="1.7380476">
        <ele>125.0</ele>
        <time>2022-03-31T08:21:43Z</time>
      </trkpt>
      <trkpt lat="47.52672" lon="1.7380304">
        <ele>125.0</ele>
        <time>2022-03-31T08:21:44Z</time>
      </trkpt>
      <trkpt lat="47.52672" lon="1.738012">
        <ele>125.0</ele>
        <time>2022-03-31T08:21:45Z</time>
      </trkpt>
      <trkpt lat="47.52672" lon="1.7380005">
        <ele>125.0</ele>
        <time>2022-03-31T08:21:46Z</time>
      </trkpt>
      <trkpt lat="47.526722" lon="1.737989">
        <ele>124.0</ele>
        <time>2022-03-31T08:21:47Z</time>
      </trkpt>
      <trkpt lat="47.526722" lon="1.7379727">
        <ele>124.0</ele>
        <time>2022-03-31T08:21:48Z</time>
      </trkpt>
      <trkpt lat="47.526726" lon="1.737958">
        <ele>124.0</ele>
        <time>2022-03-31T08:21:49Z</time>
      </trkpt>
      <trkpt lat="47.52673" lon="1.7379401">
        <ele>124.0</ele>
        <time>2022-03-31T08:21:50Z</time>
      </trkpt>
      <trkpt lat="47.526733" lon="1.7379284">
        <ele>123.0</ele>
        <time>2022-03-31T08:21:51Z</time>
      </trkpt>
      <trkpt lat="47.526733" lon="1.737911">
        <ele>123.0</ele>
        <time>2022-03-31T08:21:52Z</time>
      </trkpt>
      <trkpt lat="47.526733" lon="1.7378951">
        <ele>123.0</ele>
        <time>2022-03-31T08:21:53Z</time>
      </trkpt>
      <trkpt lat="47.526733" lon="1.7378751">
        <ele>122.0</ele>
        <time>2022-03-31T08:21:54Z</time>
      </trkpt>
      <trkpt lat="47.526733" lon="1.737861">
        <ele>122.0</ele>
        <time>2022-03-31T08:21:55Z</time>
      </trkpt>
      <trkpt lat="47.526737" lon="1.7378503">
        <ele>121.0</ele>
        <time>2022-03-31T08:21:56Z</time>
      </trkpt>
      <trkpt lat="47.52674" lon="1.7378374">
        <ele>121.0</ele>
        <time>2022-03-31T08:21:57Z</time>
      </trkpt>
      <trkpt lat="47.52674" lon="1.7378197">
        <ele>121.0</ele>
        <time>2022-03-31T08:21:58Z</time>
      </trkpt>
      <trkpt lat="47.526745" lon="1.7378072">
        <ele>121.0</ele>
        <time>2022-03-31T08:21:59Z</time>
      </trkpt>
      <trkpt lat="47.526745" lon="1.737791">
        <ele>121.0</ele>
        <time>2022-03-31T08:22:00Z</time>
      </trkpt>
      <trkpt lat="47.52675" lon="1.7377715">
        <ele>121.0</ele>
        <time>2022-03-31T08:22:01Z</time>
      </trkpt>
      <trkpt lat="47.526752" lon="1.7377571">
        <ele>121.0</ele>
        <time>2022-03-31T08:22:02Z</time>
      </trkpt>
      <trkpt lat="47.526756" lon="1.7377418">
        <ele>120.0</ele>
        <time>2022-03-31T08:22:03Z</time>
      </trkpt>
      <trkpt lat="47.52676" lon="1.737726">
        <ele>120.0</ele>
        <time>2022-03-31T08:22:04Z</time>
      </trkpt>
      <trkpt lat="47.526756" lon="1.737711">
        <ele>120.0</ele>
        <time>2022-03-31T08:22:05Z</time>
      </trkpt>
      <trkpt lat="47.526756" lon="1.7376963">
        <ele>120.0</ele>
        <time>2022-03-31T08:22:06Z</time>
      </trkpt>
      <trkpt lat="47.526756" lon="1.7376963">
        <ele>120.0</ele>
        <time>2022-03-31T08:22:07Z</time>
      </trkpt>
      <trkpt lat="47.526756" lon="1.7376703">
        <ele>119.0</ele>
        <time>2022-03-31T08:22:08Z</time>
      </trkpt>
      <trkpt lat="47.52676" lon="1.7376527">
        <ele>119.0</ele>
        <time>2022-03-31T08:22:09Z</time>
      </trkpt>
      <trkpt lat="47.526768" lon="1.737634">
        <ele>119.0</ele>
        <time>2022-03-31T08:22:10Z</time>
      </trkpt>
      <trkpt lat="47.526768" lon="1.7376173">
        <ele>118.0</ele>
        <time>2022-03-31T08:22:11Z</time>
      </trkpt>
      <trkpt lat="47.52677" lon="1.7375965">
        <ele>118.0</ele>
        <time>2022-03-31T08:22:12Z</time>
      </trkpt>
      <trkpt lat="47.52677" lon="1.737577">
        <ele>118.0</ele>
        <time>2022-03-31T08:22:13Z</time>
      </trkpt>
      <trkpt lat="47.52677" lon="1.7375598">
        <ele>118.0</ele>
        <time>2022-03-31T08:22:14Z</time>
      </trkpt>
      <trkpt lat="47.52677" lon="1.7375442">
        <ele>117.0</ele>
        <time>2022-03-31T08:22:15Z</time>
      </trkpt>
      <trkpt lat="47.526775" lon="1.7375263">
        <ele>117.0</ele>
        <time>2022-03-31T08:22:16Z</time>
      </trkpt>
      <trkpt lat="47.526775" lon="1.7375047">
        <ele>117.0</ele>
        <time>2022-03-31T08:22:17Z</time>
      </trkpt>
      <trkpt lat="47.526775" lon="1.737488">
        <ele>117.0</ele>
        <time>2022-03-31T08:22:18Z</time>
      </trkpt>
      <trkpt lat="47.52677" lon="1.7374706">
        <ele>117.0</ele>
        <time>2022-03-31T08:22:19Z</time>
      </trkpt>
      <trkpt lat="47.52677" lon="1.7374561">
        <ele>117.0</ele>
        <time>2022-03-31T08:22:20Z</time>
      </trkpt>
      <trkpt lat="47.52678" lon="1.7374439">
        <ele>117.0</ele>
        <time>2022-03-31T08:22:21Z</time>
      </trkpt>
      <trkpt lat="47.526787" lon="1.7374332">
        <ele>117.0</ele>
        <time>2022-03-31T08:22:22Z</time>
      </trkpt>
      <trkpt lat="47.526787" lon="1.7374332">
        <ele>117.0</ele>
        <time>2022-03-31T08:22:23Z</time>
      </trkpt>
      <trkpt lat="47.526794" lon="1.73741">
        <ele>116.0</ele>
        <time>2022-03-31T08:22:24Z</time>
      </trkpt>
      <trkpt lat="47.5268" lon="1.737398">
        <ele>116.0</ele>
        <time>2022-03-31T08:22:25Z</time>
      </trkpt>
      <trkpt lat="47.526802" lon="1.7373844">
        <ele>116.0</ele>
        <time>2022-03-31T08:22:26Z</time>
      </trkpt>
      <trkpt lat="47.52681" lon="1.7373723">
        <ele>116.0</ele>
        <time>2022-03-31T08:22:27Z</time>
      </trkpt>
      <trkpt lat="47.526817" lon="1.7373539">
        <ele>116.0</ele>
        <time>2022-03-31T08:22:28Z</time>
      </trkpt>
      <trkpt lat="47.526825" lon="1.7373348">
        <ele>115.0</ele>
        <time>2022-03-31T08:22:29Z</time>
      </trkpt>
      <trkpt lat="47.526825" lon="1.73732">
        <ele>115.0</ele>
        <time>2022-03-31T08:22:30Z</time>
      </trkpt>
      <trkpt lat="47.52683" lon="1.737305">
        <ele>115.0</ele>
        <time>2022-03-31T08:22:31Z</time>
      </trkpt>
      <trkpt lat="47.526833" lon="1.7372894">
        <ele>114.0</ele>
        <time>2022-03-31T08:22:32Z</time>
      </trkpt>
      <trkpt lat="47.526836" lon="1.7372717">
        <ele>114.0</ele>
        <time>2022-03-31T08:22:33Z</time>
      </trkpt>
      <trkpt lat="47.526836" lon="1.7372534">
        <ele>114.0</ele>
        <time>2022-03-31T08:22:34Z</time>
      </trkpt>
      <trkpt lat="47.52684" lon="1.7372409">
        <ele>114.0</ele>
        <time>2022-03-31T08:22:35Z</time>
      </trkpt>
      <trkpt lat="47.526844" lon="1.7372274">
        <ele>114.0</ele>
        <time>2022-03-31T08:22:36Z</time>
      </trkpt>
      <trkpt lat="47.526844" lon="1.7372117">
        <ele>114.0</ele>
        <time>2022-03-31T08:22:37Z</time>
      </trkpt>
      <trkpt lat="47.526848" lon="1.7371984">
        <ele>114.0</ele>
        <time>2022-03-31T08:22:38Z</time>
      </trkpt>
      <trkpt lat="47.526855" lon="1.737185">
        <ele>114.0</ele>
        <time>2022-03-31T08:22:39Z</time>
      </trkpt>
      <trkpt lat="47.526855" lon="1.737185">
        <ele>114.0</ele>
        <time>2022-03-31T08:22:40Z</time>
      </trkpt>
      <trkpt lat="47.526855" lon="1.737185">
        <ele>114.0</ele>
        <time>2022-03-31T08:22:41Z</time>
      </trkpt>
      <trkpt lat="47.526863" lon="1.7371517">
        <ele>114.0</ele>
        <time>2022-03-31T08:22:42Z</time>
      </trkpt>
      <trkpt lat="47.526867" lon="1.7371331">
        <ele>113.0</ele>
        <time>2022-03-31T08:22:43Z</time>
      </trkpt>
      <trkpt lat="47.526867" lon="1.7371165">
        <ele>113.0</ele>
        <time>2022-03-31T08:22:44Z</time>
      </trkpt>
      <trkpt lat="47.52687" lon="1.7370994">
        <ele>113.0</ele>
        <time>2022-03-31T08:22:45Z</time>
      </trkpt>
      <trkpt lat="47.526875" lon="1.7370816">
        <ele>113.0</ele>
        <time>2022-03-31T08:22:46Z</time>
      </trkpt>
      <trkpt lat="47.52688" lon="1.7370592">
        <ele>113.0</ele>
        <time>2022-03-31T08:22:47Z</time>
      </trkpt>
      <trkpt lat="47.52688" lon="1.7370411">
        <ele>113.0</ele>
        <time>2022-03-31T08:22:48Z</time>
      </trkpt>
      <trkpt lat="47.526882" lon="1.737024">
        <ele>112.0</ele>
        <time>2022-03-31T08:22:49Z</time>
      </trkpt>
      <trkpt lat="47.526882" lon="1.7370086">
        <ele>112.0</ele>
        <time>2022-03-31T08:22:50Z</time>
      </trkpt>
      <trkpt lat="47.526882" lon="1.7370086">
        <ele>112.0</ele>
        <time>2022-03-31T08:22:51Z</time>
      </trkpt>
      <trkpt lat="47.526886" lon="1.7369787">
        <ele>113.0</ele>
        <time>2022-03-31T08:22:52Z</time>
      </trkpt>
      <trkpt lat="47.526886" lon="1.7369612">
        <ele>112.0</ele>
        <time>2022-03-31T08:22:53Z</time>
      </trkpt>
      <trkpt lat="47.526886" lon="1.736943">
        <ele>112.0</ele>
        <time>2022-03-31T08:22:54Z</time>
      </trkpt>
      <trkpt lat="47.526886" lon="1.7369313">
        <ele>113.0</ele>
        <time>2022-03-31T08:22:55Z</time>
      </trkpt>
      <trkpt lat="47.526886" lon="1.7369313">
        <ele>113.0</ele>
        <time>2022-03-31T08:22:56Z</time>
      </trkpt>
      <trkpt lat="47.526886" lon="1.7369313">
        <ele>113.0</ele>
        <time>2022-03-31T08:22:57Z</time>
      </trkpt>
      <trkpt lat="47.526897" lon="1.7368996">
        <ele>112.0</ele>
        <time>2022-03-31T08:22:58Z</time>
      </trkpt>
      <trkpt lat="47.526894" lon="1.7368873">
        <ele>112.0</ele>
        <time>2022-03-31T08:22:59Z</time>
      </trkpt>
      <trkpt lat="47.526897" lon="1.736872">
        <ele>112.0</ele>
        <time>2022-03-31T08:23:00Z</time>
      </trkpt>
      <trkpt lat="47.5269" lon="1.7368548">
        <ele>111.0</ele>
        <time>2022-03-31T08:23:01Z</time>
      </trkpt>
      <trkpt lat="47.5269" lon="1.7368548">
        <ele>111.0</ele>
        <time>2022-03-31T08:23:02Z</time>
      </trkpt>
      <trkpt lat="47.5269" lon="1.7368548">
        <ele>111.0</ele>
        <time>2022-03-31T08:23:03Z</time>
      </trkpt>
      <trkpt lat="47.52691" lon="1.7368157">
        <ele>111.0</ele>
        <time>2022-03-31T08:23:04Z</time>
      </trkpt>
      <trkpt lat="47.526913" lon="1.7367971">
        <ele>110.0</ele>
        <time>2022-03-31T08:23:05Z</time>
      </trkpt>
      <trkpt lat="47.526924" lon="1.7367731">
        <ele>110.0</ele>
        <time>2022-03-31T08:23:06Z</time>
      </trkpt>
      <trkpt lat="47.526928" lon="1.7367538">
        <ele>110.0</ele>
        <time>2022-03-31T08:23:07Z</time>
      </trkpt>
      <trkpt lat="47.52694" lon="1.7367333">
        <ele>110.0</ele>
        <time>2022-03-31T08:23:08Z</time>
      </trkpt>
      <trkpt lat="47.526947" lon="1.7367176">
        <ele>110.0</ele>
        <time>2022-03-31T08:23:09Z</time>
      </trkpt>
      <trkpt lat="47.52695" lon="1.7366996">
        <ele>109.0</ele>
        <time>2022-03-31T08:23:10Z</time>
      </trkpt>
      <trkpt lat="47.52696" lon="1.7366794">
        <ele>109.0</ele>
        <time>2022-03-31T08:23:11Z</time>
      </trkpt>
      <trkpt lat="47.526962" lon="1.7366616">
        <ele>109.0</ele>
        <time>2022-03-31T08:23:12Z</time>
      </trkpt>
      <trkpt lat="47.52697" lon="1.7366444">
        <ele>108.0</ele>
        <time>2022-03-31T08:23:13Z</time>
      </trkpt>
      <trkpt lat="47.526974" lon="1.7366277">
        <ele>108.0</ele>
        <time>2022-03-31T08:23:14Z</time>
      </trkpt>
      <trkpt lat="47.52698" lon="1.736612">
        <ele>108.0</ele>
        <time>2022-03-31T08:23:15Z</time>
      </trkpt>
      <trkpt lat="47.526985" lon="1.736602">
        <ele>108.0</ele>
        <time>2022-03-31T08:23:16Z</time>
      </trkpt>
      <trkpt lat="47.52699" lon="1.7365854">
        <ele>108.0</ele>
        <time>2022-03-31T08:23:17Z</time>
      </trkpt>
      <trkpt lat="47.52699" lon="1.736568">
        <ele>108.0</ele>
        <time>2022-03-31T08:23:18Z</time>
      </trkpt>
      <trkpt lat="47.526997" lon="1.7365482">
        <ele>107.0</ele>
        <time>2022-03-31T08:23:19Z</time>
      </trkpt>
      <trkpt lat="47.527008" lon="1.7365257">
        <ele>106.0</ele>
        <time>2022-03-31T08:23:20Z</time>
      </trkpt>
      <trkpt lat="47.52701" lon="1.7365013">
        <ele>106.0</ele>
        <time>2022-03-31T08:23:21Z</time>
      </trkpt>
      <trkpt lat="47.527016" lon="1.7364773">
        <ele>106.0</ele>
        <time>2022-03-31T08:23:22Z</time>
      </trkpt>
      <trkpt lat="47.52702" lon="1.7364547">
        <ele>106.0</ele>
        <time>2022-03-31T08:23:23Z</time>
      </trkpt>
      <trkpt lat="47.52702" lon="1.7364366">
        <ele>106.0</ele>
        <time>2022-03-31T08:23:24Z</time>
      </trkpt>
      <trkpt lat="47.527023" lon="1.7364216">
        <ele>106.0</ele>
        <time>2022-03-31T08:23:25Z</time>
      </trkpt>
      <trkpt lat="47.527027" lon="1.7364045">
        <ele>107.0</ele>
        <time>2022-03-31T08:23:26Z</time>
      </trkpt>
      <trkpt lat="47.527027" lon="1.7363896">
        <ele>107.0</ele>
        <time>2022-03-31T08:23:27Z</time>
      </trkpt>
      <trkpt lat="47.527027" lon="1.7363753">
        <ele>107.0</ele>
        <time>2022-03-31T08:23:28Z</time>
      </trkpt>
      <trkpt lat="47.527027" lon="1.7363588">
        <ele>107.0</ele>
        <time>2022-03-31T08:23:29Z</time>
      </trkpt>
      <trkpt lat="47.527027" lon="1.7363454">
        <ele>107.0</ele>
        <time>2022-03-31T08:23:30Z</time>
      </trkpt>
      <trkpt lat="47.527023" lon="1.736323">
        <ele>107.0</ele>
        <time>2022-03-31T08:23:31Z</time>
      </trkpt>
      <trkpt lat="47.527027" lon="1.7363061">
        <ele>107.0</ele>
        <time>2022-03-31T08:23:32Z</time>
      </trkpt>
      <trkpt lat="47.527027" lon="1.7362835">
        <ele>107.0</ele>
        <time>2022-03-31T08:23:33Z</time>
      </trkpt>
      <trkpt lat="47.527027" lon="1.7362632">
        <ele>107.0</ele>
        <time>2022-03-31T08:23:34Z</time>
      </trkpt>
      <trkpt lat="47.527023" lon="1.7362461">
        <ele>107.0</ele>
        <time>2022-03-31T08:23:35Z</time>
      </trkpt>
      <trkpt lat="47.52702" lon="1.7362295">
        <ele>108.0</ele>
        <time>2022-03-31T08:23:36Z</time>
      </trkpt>
      <trkpt lat="47.52702" lon="1.7362127">
        <ele>108.0</ele>
        <time>2022-03-31T08:23:37Z</time>
      </trkpt>
      <trkpt lat="47.52702" lon="1.7361953">
        <ele>108.0</ele>
        <time>2022-03-31T08:23:38Z</time>
      </trkpt>
      <trkpt lat="47.527016" lon="1.7361745">
        <ele>108.0</ele>
        <time>2022-03-31T08:23:39Z</time>
      </trkpt>
      <trkpt lat="47.527008" lon="1.7361602">
        <ele>108.0</ele>
        <time>2022-03-31T08:23:40Z</time>
      </trkpt>
      <trkpt lat="47.527" lon="1.7361442">
        <ele>109.0</ele>
        <time>2022-03-31T08:23:41Z</time>
      </trkpt>
      <trkpt lat="47.526993" lon="1.736126">
        <ele>109.0</ele>
        <time>2022-03-31T08:23:42Z</time>
      </trkpt>
      <trkpt lat="47.52699" lon="1.7361064">
        <ele>109.0</ele>
        <time>2022-03-31T08:23:43Z</time>
      </trkpt>
      <trkpt lat="47.526985" lon="1.7360829">
        <ele>110.0</ele>
        <time>2022-03-31T08:23:44Z</time>
      </trkpt>
      <trkpt lat="47.526985" lon="1.7360644">
        <ele>110.0</ele>
        <time>2022-03-31T08:23:45Z</time>
      </trkpt>
      <trkpt lat="47.526978" lon="1.7360466">
        <ele>110.0</ele>
        <time>2022-03-31T08:23:46Z</time>
      </trkpt>
      <trkpt lat="47.52697" lon="1.7360293">
        <ele>110.0</ele>
        <time>2022-03-31T08:23:47Z</time>
      </trkpt>
      <trkpt lat="47.526962" lon="1.7360151">
        <ele>110.0</ele>
        <time>2022-03-31T08:23:48Z</time>
      </trkpt>
      <trkpt lat="47.526955" lon="1.7359916">
        <ele>109.0</ele>
        <time>2022-03-31T08:23:49Z</time>
      </trkpt>
      <trkpt lat="47.526947" lon="1.7359731">
        <ele>110.0</ele>
        <time>2022-03-31T08:23:50Z</time>
      </trkpt>
      <trkpt lat="47.526943" lon="1.7359511">
        <ele>110.0</ele>
        <time>2022-03-31T08:23:51Z</time>
      </trkpt>
      <trkpt lat="47.526928" lon="1.735931">
        <ele>110.0</ele>
        <time>2022-03-31T08:23:52Z</time>
      </trkpt>
      <trkpt lat="47.526917" lon="1.7359095">
        <ele>110.0</ele>
        <time>2022-03-31T08:23:53Z</time>
      </trkpt>
      <trkpt lat="47.52691" lon="1.7358841">
        <ele>110.0</ele>
        <time>2022-03-31T08:23:54Z</time>
      </trkpt>
      <trkpt lat="47.5269" lon="1.7358674">
        <ele>110.0</ele>
        <time>2022-03-31T08:23:55Z</time>
      </trkpt>
      <trkpt lat="47.52689" lon="1.7358459">
        <ele>109.0</ele>
        <time>2022-03-31T08:23:56Z</time>
      </trkpt>
      <trkpt lat="47.526882" lon="1.7358267">
        <ele>109.0</ele>
        <time>2022-03-31T08:23:57Z</time>
      </trkpt>
      <trkpt lat="47.526875" lon="1.7358081">
        <ele>110.0</ele>
        <time>2022-03-31T08:23:58Z</time>
      </trkpt>
      <trkpt lat="47.526867" lon="1.735784">
        <ele>109.0</ele>
        <time>2022-03-31T08:23:59Z</time>
      </trkpt>
      <trkpt lat="47.526855" lon="1.735761">
        <ele>110.0</ele>
        <time>2022-03-31T08:24:00Z</time>
      </trkpt>
      <trkpt lat="47.526844" lon="1.73574">
        <ele>111.0</ele>
        <time>2022-03-31T08:24:01Z</time>
      </trkpt>
      <trkpt lat="47.526833" lon="1.7357218">
        <ele>111.0</ele>
        <time>2022-03-31T08:24:02Z</time>
      </trkpt>
      <trkpt lat="47.526825" lon="1.7357062">
        <ele>111.0</ele>
        <time>2022-03-31T08:24:03Z</time>
      </trkpt>
      <trkpt lat="47.526817" lon="1.7356846">
        <ele>111.0</ele>
        <time>2022-03-31T08:24:04Z</time>
      </trkpt>
      <trkpt lat="47.52681" lon="1.7356621">
        <ele>111.0</ele>
        <time>2022-03-31T08:24:05Z</time>
      </trkpt>
      <trkpt lat="47.526806" lon="1.7356441">
        <ele>112.0</ele>
        <time>2022-03-31T08:24:06Z</time>
      </trkpt>
      <trkpt lat="47.526794" lon="1.7356238">
        <ele>112.0</ele>
        <time>2022-03-31T08:24:07Z</time>
      </trkpt>
      <trkpt lat="47.526787" lon="1.7356031">
        <ele>113.0</ele>
        <time>2022-03-31T08:24:08Z</time>
      </trkpt>
      <trkpt lat="47.52678" lon="1.7355837">
        <ele>113.0</ele>
        <time>2022-03-31T08:24:09Z</time>
      </trkpt>
      <trkpt lat="47.52677" lon="1.7355618">
        <ele>113.0</ele>
        <time>2022-03-31T08:24:10Z</time>
      </trkpt>
      <trkpt lat="47.526764" lon="1.7355373">
        <ele>113.0</ele>
        <time>2022-03-31T08:24:11Z</time>
      </trkpt>
      <trkpt lat="47.52676" lon="1.7355189">
        <ele>113.0</ele>
        <time>2022-03-31T08:24:12Z</time>
      </trkpt>
      <trkpt lat="47.526756" lon="1.7355009">
        <ele>114.0</ele>
        <time>2022-03-31T08:24:13Z</time>
      </trkpt>
      <trkpt lat="47.52675" lon="1.7354834">
        <ele>114.0</ele>
        <time>2022-03-31T08:24:14Z</time>
      </trkpt>
      <trkpt lat="47.526745" lon="1.7354627">
        <ele>115.0</ele>
        <time>2022-03-31T08:24:15Z</time>
      </trkpt>
      <trkpt lat="47.526737" lon="1.7354411">
        <ele>115.0</ele>
        <time>2022-03-31T08:24:16Z</time>
      </trkpt>
      <trkpt lat="47.526733" lon="1.7354231">
        <ele>115.0</ele>
        <time>2022-03-31T08:24:17Z</time>
      </trkpt>
      <trkpt lat="47.526733" lon="1.7354062">
        <ele>115.0</ele>
        <time>2022-03-31T08:24:18Z</time>
      </trkpt>
      <trkpt lat="47.526722" lon="1.7353902">
        <ele>115.0</ele>
        <time>2022-03-31T08:24:19Z</time>
      </trkpt>
      <trkpt lat="47.52672" lon="1.735375">
        <ele>115.0</ele>
        <time>2022-03-31T08:24:20Z</time>
      </trkpt>
      <trkpt lat="47.52671" lon="1.7353588">
        <ele>115.0</ele>
        <time>2022-03-31T08:24:21Z</time>
      </trkpt>
      <trkpt lat="47.5267" lon="1.7353427">
        <ele>115.0</ele>
        <time>2022-03-31T08:24:22Z</time>
      </trkpt>
      <trkpt lat="47.52669" lon="1.7353263">
        <ele>115.0</ele>
        <time>2022-03-31T08:24:23Z</time>
      </trkpt>
      <trkpt lat="47.52668" lon="1.735309">
        <ele>116.0</ele>
        <time>2022-03-31T08:24:24Z</time>
      </trkpt>
      <trkpt lat="47.526672" lon="1.7352911">
        <ele>116.0</ele>
        <time>2022-03-31T08:24:25Z</time>
      </trkpt>
      <trkpt lat="47.52667" lon="1.7352753">
        <ele>116.0</ele>
        <time>2022-03-31T08:24:26Z</time>
      </trkpt>
      <trkpt lat="47.52666" lon="1.7352532">
        <ele>117.0</ele>
        <time>2022-03-31T08:24:27Z</time>
      </trkpt>
      <trkpt lat="47.52665" lon="1.7352338">
        <ele>117.0</ele>
        <time>2022-03-31T08:24:28Z</time>
      </trkpt>
      <trkpt lat="47.526638" lon="1.7352226">
        <ele>117.0</ele>
        <time>2022-03-31T08:24:29Z</time>
      </trkpt>
      <trkpt lat="47.526634" lon="1.735207">
        <ele>117.0</ele>
        <time>2022-03-31T08:24:30Z</time>
      </trkpt>
      <trkpt lat="47.526627" lon="1.7351856">
        <ele>117.0</ele>
        <time>2022-03-31T08:24:31Z</time>
      </trkpt>
      <trkpt lat="47.52662" lon="1.7351648">
        <ele>117.0</ele>
        <time>2022-03-31T08:24:32Z</time>
      </trkpt>
      <trkpt lat="47.52661" lon="1.7351468">
        <ele>117.0</ele>
        <time>2022-03-31T08:24:33Z</time>
      </trkpt>
      <trkpt lat="47.526608" lon="1.7351304">
        <ele>117.0</ele>
        <time>2022-03-31T08:24:34Z</time>
      </trkpt>
      <trkpt lat="47.5266" lon="1.7351102">
        <ele>117.0</ele>
        <time>2022-03-31T08:24:35Z</time>
      </trkpt>
      <trkpt lat="47.526592" lon="1.7350888">
        <ele>117.0</ele>
        <time>2022-03-31T08:24:36Z</time>
      </trkpt>
      <trkpt lat="47.52659" lon="1.7350677">
        <ele>117.0</ele>
        <time>2022-03-31T08:24:37Z</time>
      </trkpt>
      <trkpt lat="47.52658" lon="1.7350475">
        <ele>118.0</ele>
        <time>2022-03-31T08:24:38Z</time>
      </trkpt>
      <trkpt lat="47.526573" lon="1.7350293">
        <ele>118.0</ele>
        <time>2022-03-31T08:24:39Z</time>
      </trkpt>
      <trkpt lat="47.52657" lon="1.7350111">
        <ele>118.0</ele>
        <time>2022-03-31T08:24:40Z</time>
      </trkpt>
      <trkpt lat="47.52656" lon="1.7349942">
        <ele>118.0</ele>
        <time>2022-03-31T08:24:41Z</time>
      </trkpt>
      <trkpt lat="47.526558" lon="1.734973">
        <ele>118.0</ele>
        <time>2022-03-31T08:24:42Z</time>
      </trkpt>
      <trkpt lat="47.526554" lon="1.734954">
        <ele>119.0</ele>
        <time>2022-03-31T08:24:43Z</time>
      </trkpt>
      <trkpt lat="47.52655" lon="1.7349322">
        <ele>119.0</ele>
        <time>2022-03-31T08:24:44Z</time>
      </trkpt>
      <trkpt lat="47.526543" lon="1.7349119">
        <ele>120.0</ele>
        <time>2022-03-31T08:24:45Z</time>
      </trkpt>
      <trkpt lat="47.526535" lon="1.734893">
        <ele>120.0</ele>
        <time>2022-03-31T08:24:46Z</time>
      </trkpt>
      <trkpt lat="47.526527" lon="1.7348694">
        <ele>120.0</ele>
        <time>2022-03-31T08:24:47Z</time>
      </trkpt>
      <trkpt lat="47.526524" lon="1.7348497">
        <ele>121.0</ele>
        <time>2022-03-31T08:24:48Z</time>
      </trkpt>
      <trkpt lat="47.526516" lon="1.73483">
        <ele>121.0</ele>
        <time>2022-03-31T08:24:49Z</time>
      </trkpt>
      <trkpt lat="47.52651" lon="1.73481">
        <ele>122.0</ele>
        <time>2022-03-31T08:24:50Z</time>
      </trkpt>
      <trkpt lat="47.5265" lon="1.7347907">
        <ele>122.0</ele>
        <time>2022-03-31T08:24:51Z</time>
      </trkpt>
      <trkpt lat="47.526485" lon="1.7347682">
        <ele>123.0</ele>
        <time>2022-03-31T08:24:52Z</time>
      </trkpt>
      <trkpt lat="47.526478" lon="1.7347448">
        <ele>123.0</ele>
        <time>2022-03-31T08:24:53Z</time>
      </trkpt>
      <trkpt lat="47.526474" lon="1.7347225">
        <ele>123.0</ele>
        <time>2022-03-31T08:24:54Z</time>
      </trkpt>
      <trkpt lat="47.526466" lon="1.7347018">
        <ele>124.0</ele>
        <time>2022-03-31T08:24:55Z</time>
      </trkpt>
      <trkpt lat="47.52646" lon="1.7346835">
        <ele>125.0</ele>
        <time>2022-03-31T08:24:56Z</time>
      </trkpt>
      <trkpt lat="47.52645" lon="1.7346638">
        <ele>125.0</ele>
        <time>2022-03-31T08:24:57Z</time>
      </trkpt>
      <trkpt lat="47.526443" lon="1.734635">
        <ele>126.0</ele>
        <time>2022-03-31T08:24:58Z</time>
      </trkpt>
      <trkpt lat="47.526432" lon="1.734615">
        <ele>126.0</ele>
        <time>2022-03-31T08:24:59Z</time>
      </trkpt>
      <trkpt lat="47.526424" lon="1.7345973">
        <ele>126.0</ele>
        <time>2022-03-31T08:25:00Z</time>
      </trkpt>
      <trkpt lat="47.526417" lon="1.7345808">
        <ele>126.0</ele>
        <time>2022-03-31T08:25:01Z</time>
      </trkpt>
      <trkpt lat="47.526413" lon="1.7345632">
        <ele>126.0</ele>
        <time>2022-03-31T08:25:02Z</time>
      </trkpt>
      <trkpt lat="47.52641" lon="1.7345426">
        <ele>126.0</ele>
        <time>2022-03-31T08:25:03Z</time>
      </trkpt>
      <trkpt lat="47.5264" lon="1.7345238">
        <ele>127.0</ele>
        <time>2022-03-31T08:25:04Z</time>
      </trkpt>
      <trkpt lat="47.526394" lon="1.7345037">
        <ele>127.0</ele>
        <time>2022-03-31T08:25:05Z</time>
      </trkpt>
      <trkpt lat="47.526386" lon="1.7344832">
        <ele>127.0</ele>
        <time>2022-03-31T08:25:06Z</time>
      </trkpt>
      <trkpt lat="47.52638" lon="1.7344626">
        <ele>127.0</ele>
        <time>2022-03-31T08:25:07Z</time>
      </trkpt>
      <trkpt lat="47.526375" lon="1.734439">
        <ele>126.0</ele>
        <time>2022-03-31T08:25:08Z</time>
      </trkpt>
      <trkpt lat="47.52637" lon="1.734417">
        <ele>126.0</ele>
        <time>2022-03-31T08:25:09Z</time>
      </trkpt>
      <trkpt lat="47.526367" lon="1.7343935">
        <ele>126.0</ele>
        <time>2022-03-31T08:25:10Z</time>
      </trkpt>
      <trkpt lat="47.526363" lon="1.7343688">
        <ele>125.0</ele>
        <time>2022-03-31T08:25:11Z</time>
      </trkpt>
      <trkpt lat="47.52636" lon="1.734345">
        <ele>125.0</ele>
        <time>2022-03-31T08:25:12Z</time>
      </trkpt>
      <trkpt lat="47.526352" lon="1.7343292">
        <ele>124.0</ele>
        <time>2022-03-31T08:25:13Z</time>
      </trkpt>
      <trkpt lat="47.52635" lon="1.7343171">
        <ele>124.0</ele>
        <time>2022-03-31T08:25:14Z</time>
      </trkpt>
      <trkpt lat="47.52634" lon="1.7342986">
        <ele>124.0</ele>
        <time>2022-03-31T08:25:15Z</time>
      </trkpt>
      <trkpt lat="47.52633" lon="1.7342795">
        <ele>123.0</ele>
        <time>2022-03-31T08:25:16Z</time>
      </trkpt>
      <trkpt lat="47.526325" lon="1.7342576">
        <ele>123.0</ele>
        <time>2022-03-31T08:25:17Z</time>
      </trkpt>
      <trkpt lat="47.526318" lon="1.7342411">
        <ele>123.0</ele>
        <time>2022-03-31T08:25:18Z</time>
      </trkpt>
      <trkpt lat="47.52631" lon="1.7342277">
        <ele>123.0</ele>
        <time>2022-03-31T08:25:19Z</time>
      </trkpt>
      <trkpt lat="47.526302" lon="1.7342124">
        <ele>123.0</ele>
        <time>2022-03-31T08:25:20Z</time>
      </trkpt>
      <trkpt lat="47.52629" lon="1.7341988">
        <ele>123.0</ele>
        <time>2022-03-31T08:25:21Z</time>
      </trkpt>
      <trkpt lat="47.526283" lon="1.7341851">
        <ele>124.0</ele>
        <time>2022-03-31T08:25:22Z</time>
      </trkpt>
      <trkpt lat="47.526276" lon="1.7341776">
        <ele>124.0</ele>
        <time>2022-03-31T08:25:23Z</time>
      </trkpt>
      <trkpt lat="47.526268" lon="1.7341634">
        <ele>124.0</ele>
        <time>2022-03-31T08:25:24Z</time>
      </trkpt>
      <trkpt lat="47.526253" lon="1.7341533">
        <ele>124.0</ele>
        <time>2022-03-31T08:25:25Z</time>
      </trkpt>
      <trkpt lat="47.52624" lon="1.7341411">
        <ele>124.0</ele>
        <time>2022-03-31T08:25:26Z</time>
      </trkpt>
      <trkpt lat="47.52623" lon="1.734127">
        <ele>125.0</ele>
        <time>2022-03-31T08:25:27Z</time>
      </trkpt>
      <trkpt lat="47.526222" lon="1.734118">
        <ele>125.0</ele>
        <time>2022-03-31T08:25:28Z</time>
      </trkpt>
      <trkpt lat="47.526215" lon="1.7341062">
        <ele>125.0</ele>
        <time>2022-03-31T08:25:29Z</time>
      </trkpt>
      <trkpt lat="47.526203" lon="1.7340928">
        <ele>125.0</ele>
        <time>2022-03-31T08:25:30Z</time>
      </trkpt>
      <trkpt lat="47.526196" lon="1.7340779">
        <ele>126.0</ele>
        <time>2022-03-31T08:25:31Z</time>
      </trkpt>
      <trkpt lat="47.526184" lon="1.7340629">
        <ele>126.0</ele>
        <time>2022-03-31T08:25:32Z</time>
      </trkpt>
      <trkpt lat="47.526176" lon="1.7340472">
        <ele>126.0</ele>
        <time>2022-03-31T08:25:33Z</time>
      </trkpt>
      <trkpt lat="47.526165" lon="1.7340344">
        <ele>126.0</ele>
        <time>2022-03-31T08:25:34Z</time>
      </trkpt>
      <trkpt lat="47.526154" lon="1.7340215">
        <ele>127.0</ele>
        <time>2022-03-31T08:25:35Z</time>
      </trkpt>
      <trkpt lat="47.526146" lon="1.7340059">
        <ele>127.0</ele>
        <time>2022-03-31T08:25:36Z</time>
      </trkpt>
      <trkpt lat="47.52613" lon="1.733994">
        <ele>128.0</ele>
        <time>2022-03-31T08:25:37Z</time>
      </trkpt>
      <trkpt lat="47.52612" lon="1.7339804">
        <ele>128.0</ele>
        <time>2022-03-31T08:25:38Z</time>
      </trkpt>
      <trkpt lat="47.526108" lon="1.7339671">
        <ele>129.0</ele>
        <time>2022-03-31T08:25:39Z</time>
      </trkpt>
      <trkpt lat="47.5261" lon="1.7339568">
        <ele>129.0</ele>
        <time>2022-03-31T08:25:40Z</time>
      </trkpt>
      <trkpt lat="47.526093" lon="1.7339526">
        <ele>129.0</ele>
        <time>2022-03-31T08:25:41Z</time>
      </trkpt>
      <trkpt lat="47.52608" lon="1.7339511">
        <ele>128.0</ele>
        <time>2022-03-31T08:25:42Z</time>
      </trkpt>
      <trkpt lat="47.526066" lon="1.7339402">
        <ele>129.0</ele>
        <time>2022-03-31T08:25:43Z</time>
      </trkpt>
      <trkpt lat="47.526054" lon="1.7339314">
        <ele>129.0</ele>
        <time>2022-03-31T08:25:44Z</time>
      </trkpt>
      <trkpt lat="47.526035" lon="1.7339277">
        <ele>128.0</ele>
        <time>2022-03-31T08:25:45Z</time>
      </trkpt>
      <trkpt lat="47.526028" lon="1.7339131">
        <ele>129.0</ele>
        <time>2022-03-31T08:25:46Z</time>
      </trkpt>
      <trkpt lat="47.526012" lon="1.733898">
        <ele>130.0</ele>
        <time>2022-03-31T08:25:47Z</time>
      </trkpt>
      <trkpt lat="47.526" lon="1.7338914">
        <ele>130.0</ele>
        <time>2022-03-31T08:25:48Z</time>
      </trkpt>
      <trkpt lat="47.525986" lon="1.7338859">
        <ele>130.0</ele>
        <time>2022-03-31T08:25:49Z</time>
      </trkpt>
      <trkpt lat="47.52597" lon="1.733878">
        <ele>130.0</ele>
        <time>2022-03-31T08:25:50Z</time>
      </trkpt>
      <trkpt lat="47.525955" lon="1.7338679">
        <ele>130.0</ele>
        <time>2022-03-31T08:25:51Z</time>
      </trkpt>
      <trkpt lat="47.525936" lon="1.7338552">
        <ele>130.0</ele>
        <time>2022-03-31T08:25:52Z</time>
      </trkpt>
      <trkpt lat="47.52592" lon="1.7338438">
        <ele>130.0</ele>
        <time>2022-03-31T08:25:53Z</time>
      </trkpt>
      <trkpt lat="47.525906" lon="1.7338314">
        <ele>130.0</ele>
        <time>2022-03-31T08:25:54Z</time>
      </trkpt>
      <trkpt lat="47.525894" lon="1.7338197">
        <ele>130.0</ele>
        <time>2022-03-31T08:25:55Z</time>
      </trkpt>
      <trkpt lat="47.525883" lon="1.7338064">
        <ele>130.0</ele>
        <time>2022-03-31T08:25:56Z</time>
      </trkpt>
      <trkpt lat="47.52587" lon="1.7337931">
        <ele>131.0</ele>
        <time>2022-03-31T08:25:57Z</time>
      </trkpt>
      <trkpt lat="47.52586" lon="1.7337781">
        <ele>131.0</ele>
        <time>2022-03-31T08:25:58Z</time>
      </trkpt>
      <trkpt lat="47.52585" lon="1.7337657">
        <ele>131.0</ele>
        <time>2022-03-31T08:25:59Z</time>
      </trkpt>
      <trkpt lat="47.525837" lon="1.7337524">
        <ele>131.0</ele>
        <time>2022-03-31T08:26:00Z</time>
      </trkpt>
      <trkpt lat="47.525826" lon="1.7337364">
        <ele>131.0</ele>
        <time>2022-03-31T08:26:01Z</time>
      </trkpt>
      <trkpt lat="47.525814" lon="1.7337179">
        <ele>131.0</ele>
        <time>2022-03-31T08:26:02Z</time>
      </trkpt>
      <trkpt lat="47.525806" lon="1.7336985">
        <ele>130.0</ele>
        <time>2022-03-31T08:26:03Z</time>
      </trkpt>
      <trkpt lat="47.5258" lon="1.7336812">
        <ele>130.0</ele>
        <time>2022-03-31T08:26:04Z</time>
      </trkpt>
      <trkpt lat="47.525787" lon="1.7336588">
        <ele>130.0</ele>
        <time>2022-03-31T08:26:05Z</time>
      </trkpt>
      <trkpt lat="47.525784" lon="1.7336391">
        <ele>130.0</ele>
        <time>2022-03-31T08:26:06Z</time>
      </trkpt>
      <trkpt lat="47.525772" lon="1.7336203">
        <ele>130.0</ele>
        <time>2022-03-31T08:26:07Z</time>
      </trkpt>
      <trkpt lat="47.525764" lon="1.7336005">
        <ele>130.0</ele>
        <time>2022-03-31T08:26:08Z</time>
      </trkpt>
      <trkpt lat="47.525753" lon="1.7335805">
        <ele>130.0</ele>
        <time>2022-03-31T08:26:09Z</time>
      </trkpt>
      <trkpt lat="47.525745" lon="1.7335598">
        <ele>130.0</ele>
        <time>2022-03-31T08:26:10Z</time>
      </trkpt>
      <trkpt lat="47.52574" lon="1.7335413">
        <ele>130.0</ele>
        <time>2022-03-31T08:26:11Z</time>
      </trkpt>
      <trkpt lat="47.525734" lon="1.733522">
        <ele>130.0</ele>
        <time>2022-03-31T08:26:12Z</time>
      </trkpt>
      <trkpt lat="47.52573" lon="1.7335031">
        <ele>129.0</ele>
        <time>2022-03-31T08:26:13Z</time>
      </trkpt>
      <trkpt lat="47.525723" lon="1.7334838">
        <ele>129.0</ele>
        <time>2022-03-31T08:26:14Z</time>
      </trkpt>
      <trkpt lat="47.525715" lon="1.7334694">
        <ele>130.0</ele>
        <time>2022-03-31T08:26:15Z</time>
      </trkpt>
      <trkpt lat="47.525707" lon="1.733452">
        <ele>130.0</ele>
        <time>2022-03-31T08:26:16Z</time>
      </trkpt>
      <trkpt lat="47.525703" lon="1.7334355">
        <ele>130.0</ele>
        <time>2022-03-31T08:26:17Z</time>
      </trkpt>
      <trkpt lat="47.525696" lon="1.7334198">
        <ele>130.0</ele>
        <time>2022-03-31T08:26:18Z</time>
      </trkpt>
      <trkpt lat="47.525692" lon="1.733406">
        <ele>130.0</ele>
        <time>2022-03-31T08:26:19Z</time>
      </trkpt>
      <trkpt lat="47.52568" lon="1.7333921">
        <ele>130.0</ele>
        <time>2022-03-31T08:26:20Z</time>
      </trkpt>
      <trkpt lat="47.525677" lon="1.733371">
        <ele>130.0</ele>
        <time>2022-03-31T08:26:21Z</time>
      </trkpt>
      <trkpt lat="47.525673" lon="1.7333512">
        <ele>130.0</ele>
        <time>2022-03-31T08:26:22Z</time>
      </trkpt>
      <trkpt lat="47.525665" lon="1.7333305">
        <ele>130.0</ele>
        <time>2022-03-31T08:26:23Z</time>
      </trkpt>
      <trkpt lat="47.52566" lon="1.7333115">
        <ele>130.0</ele>
        <time>2022-03-31T08:26:24Z</time>
      </trkpt>
      <trkpt lat="47.525654" lon="1.7332952">
        <ele>130.0</ele>
        <time>2022-03-31T08:26:25Z</time>
      </trkpt>
      <trkpt lat="47.525646" lon="1.7332776">
        <ele>130.0</ele>
        <time>2022-03-31T08:26:26Z</time>
      </trkpt>
      <trkpt lat="47.52564" lon="1.7332597">
        <ele>130.0</ele>
        <time>2022-03-31T08:26:27Z</time>
      </trkpt>
      <trkpt lat="47.52563" lon="1.7332401">
        <ele>131.0</ele>
        <time>2022-03-31T08:26:28Z</time>
      </trkpt>
      <trkpt lat="47.525623" lon="1.7332207">
        <ele>131.0</ele>
        <time>2022-03-31T08:26:29Z</time>
      </trkpt>
      <trkpt lat="47.52562" lon="1.7332021">
        <ele>131.0</ele>
        <time>2022-03-31T08:26:30Z</time>
      </trkpt>
      <trkpt lat="47.52561" lon="1.7331824">
        <ele>131.0</ele>
        <time>2022-03-31T08:26:31Z</time>
      </trkpt>
      <trkpt lat="47.525604" lon="1.7331666">
        <ele>131.0</ele>
        <time>2022-03-31T08:26:32Z</time>
      </trkpt>
      <trkpt lat="47.525597" lon="1.7331529">
        <ele>131.0</ele>
        <time>2022-03-31T08:26:33Z</time>
      </trkpt>
      <trkpt lat="47.525585" lon="1.7331386">
        <ele>132.0</ele>
        <time>2022-03-31T08:26:34Z</time>
      </trkpt>
      <trkpt lat="47.52557" lon="1.7331288">
        <ele>132.0</ele>
        <time>2022-03-31T08:26:35Z</time>
      </trkpt>
      <trkpt lat="47.525562" lon="1.7331169">
        <ele>132.0</ele>
        <time>2022-03-31T08:26:36Z</time>
      </trkpt>
      <trkpt lat="47.52556" lon="1.7331">
        <ele>132.0</ele>
        <time>2022-03-31T08:26:37Z</time>
      </trkpt>
      <trkpt lat="47.52555" lon="1.7330848">
        <ele>132.0</ele>
        <time>2022-03-31T08:26:38Z</time>
      </trkpt>
      <trkpt lat="47.52554" lon="1.7330694">
        <ele>132.0</ele>
        <time>2022-03-31T08:26:39Z</time>
      </trkpt>
      <trkpt lat="47.52553" lon="1.7330565">
        <ele>132.0</ele>
        <time>2022-03-31T08:26:40Z</time>
      </trkpt>
      <trkpt lat="47.525528" lon="1.7330468">
        <ele>132.0</ele>
        <time>2022-03-31T08:26:41Z</time>
      </trkpt>
      <trkpt lat="47.52552" lon="1.7330337">
        <ele>133.0</ele>
        <time>2022-03-31T08:26:42Z</time>
      </trkpt>
      <trkpt lat="47.525517" lon="1.7330208">
        <ele>133.0</ele>
        <time>2022-03-31T08:26:43Z</time>
      </trkpt>
      <trkpt lat="47.52551" lon="1.7330062">
        <ele>133.0</ele>
        <time>2022-03-31T08:26:44Z</time>
      </trkpt>
      <trkpt lat="47.5255" lon="1.7329863">
        <ele>133.0</ele>
        <time>2022-03-31T08:26:45Z</time>
      </trkpt>
      <trkpt lat="47.52549" lon="1.7329708">
        <ele>134.0</ele>
        <time>2022-03-31T08:26:46Z</time>
      </trkpt>
      <trkpt lat="47.525486" lon="1.7329599">
        <ele>133.0</ele>
        <time>2022-03-31T08:26:47Z</time>
      </trkpt>
      <trkpt lat="47.525482" lon="1.7329608">
        <ele>133.0</ele>
        <time>2022-03-31T08:26:48Z</time>
      </trkpt>
      <trkpt lat="47.525482" lon="1.7329606">
        <ele>133.0</ele>
        <time>2022-03-31T08:26:49Z</time>
      </trkpt>
      <trkpt lat="47.525482" lon="1.7329581">
        <ele>133.0</ele>
        <time>2022-03-31T08:26:50Z</time>
      </trkpt>
      <trkpt lat="47.525482" lon="1.7329581">
        <ele>133.0</ele>
        <time>2022-03-31T08:26:51Z</time>
      </trkpt>
      <trkpt lat="47.525482" lon="1.7329581">
        <ele>133.0</ele>
        <time>2022-03-31T08:26:52Z</time>
      </trkpt>
      <trkpt lat="47.525482" lon="1.7329581">
        <ele>133.0</ele>
        <time>2022-03-31T08:26:52Z</time>
      </trkpt>
      <trkpt lat="47.525482" lon="1.7329581">
        <ele>133.0</ele>
        <time>2022-03-31T08:26:52Z</time>
      </trkpt>
      <trkpt lat="47.525448" lon="1.7328975">
        <ele>134.0</ele>
        <time>2022-03-31T08:27:19Z</time>
      </trkpt>
      <trkpt lat="47.525448" lon="1.7328863">
        <ele>134.0</ele>
        <time>2022-03-31T08:27:20Z</time>
      </trkpt>
      <trkpt lat="47.52545" lon="1.7328746">
        <ele>134.0</ele>
        <time>2022-03-31T08:27:21Z</time>
      </trkpt>
      <trkpt lat="47.52545" lon="1.7328603">
        <ele>134.0</ele>
        <time>2022-03-31T08:27:22Z</time>
      </trkpt>
      <trkpt lat="47.52545" lon="1.7328492">
        <ele>135.0</ele>
        <time>2022-03-31T08:27:23Z</time>
      </trkpt>
      <trkpt lat="47.525448" lon="1.732838">
        <ele>135.0</ele>
        <time>2022-03-31T08:27:24Z</time>
      </trkpt>
      <trkpt lat="47.525448" lon="1.7328235">
        <ele>135.0</ele>
        <time>2022-03-31T08:27:25Z</time>
      </trkpt>
      <trkpt lat="47.525444" lon="1.7328099">
        <ele>135.0</ele>
        <time>2022-03-31T08:27:26Z</time>
      </trkpt>
      <trkpt lat="47.52544" lon="1.732798">
        <ele>135.0</ele>
        <time>2022-03-31T08:27:27Z</time>
      </trkpt>
      <trkpt lat="47.52544" lon="1.7327843">
        <ele>135.0</ele>
        <time>2022-03-31T08:27:28Z</time>
      </trkpt>
      <trkpt lat="47.52544" lon="1.7327682">
        <ele>135.0</ele>
        <time>2022-03-31T08:27:29Z</time>
      </trkpt>
      <trkpt lat="47.525436" lon="1.7327551">
        <ele>136.0</ele>
        <time>2022-03-31T08:27:30Z</time>
      </trkpt>
      <trkpt lat="47.52544" lon="1.7327412">
        <ele>136.0</ele>
        <time>2022-03-31T08:27:31Z</time>
      </trkpt>
      <trkpt lat="47.525448" lon="1.7327284">
        <ele>135.0</ele>
        <time>2022-03-31T08:27:32Z</time>
      </trkpt>
      <trkpt lat="47.525448" lon="1.732714">
        <ele>135.0</ele>
        <time>2022-03-31T08:27:33Z</time>
      </trkpt>
      <trkpt lat="47.52545" lon="1.7326992">
        <ele>135.0</ele>
        <time>2022-03-31T08:27:34Z</time>
      </trkpt>
      <trkpt lat="47.525455" lon="1.7326823">
        <ele>135.0</ele>
        <time>2022-03-31T08:27:35Z</time>
      </trkpt>
      <trkpt lat="47.525463" lon="1.7326654">
        <ele>135.0</ele>
        <time>2022-03-31T08:27:36Z</time>
      </trkpt>
      <trkpt lat="47.52547" lon="1.732651">
        <ele>135.0</ele>
        <time>2022-03-31T08:27:37Z</time>
      </trkpt>
      <trkpt lat="47.525475" lon="1.7326349">
        <ele>135.0</ele>
        <time>2022-03-31T08:27:38Z</time>
      </trkpt>
      <trkpt lat="47.525475" lon="1.7326176">
        <ele>135.0</ele>
        <time>2022-03-31T08:27:39Z</time>
      </trkpt>
      <trkpt lat="47.52548" lon="1.7326015">
        <ele>135.0</ele>
        <time>2022-03-31T08:27:40Z</time>
      </trkpt>
      <trkpt lat="47.525482" lon="1.7325817">
        <ele>136.0</ele>
        <time>2022-03-31T08:27:41Z</time>
      </trkpt>
      <trkpt lat="47.525482" lon="1.7325654">
        <ele>136.0</ele>
        <time>2022-03-31T08:27:42Z</time>
      </trkpt>
      <trkpt lat="47.52548" lon="1.7325476">
        <ele>135.0</ele>
        <time>2022-03-31T08:27:43Z</time>
      </trkpt>
      <trkpt lat="47.525486" lon="1.7325321">
        <ele>135.0</ele>
        <time>2022-03-31T08:27:44Z</time>
      </trkpt>
      <trkpt lat="47.52549" lon="1.7325171">
        <ele>135.0</ele>
        <time>2022-03-31T08:27:45Z</time>
      </trkpt>
      <trkpt lat="47.525497" lon="1.732507">
        <ele>134.0</ele>
        <time>2022-03-31T08:27:46Z</time>
      </trkpt>
      <trkpt lat="47.5255" lon="1.7324991">
        <ele>134.0</ele>
        <time>2022-03-31T08:27:47Z</time>
      </trkpt>
      <trkpt lat="47.525505" lon="1.7324902">
        <ele>134.0</ele>
        <time>2022-03-31T08:27:48Z</time>
      </trkpt>
      <trkpt lat="47.525513" lon="1.7324816">
        <ele>134.0</ele>
        <time>2022-03-31T08:27:49Z</time>
      </trkpt>
      <trkpt lat="47.52552" lon="1.7324675">
        <ele>134.0</ele>
        <time>2022-03-31T08:27:50Z</time>
      </trkpt>
      <trkpt lat="47.525528" lon="1.7324544">
        <ele>133.0</ele>
        <time>2022-03-31T08:27:51Z</time>
      </trkpt>
      <trkpt lat="47.525536" lon="1.7324424">
        <ele>133.0</ele>
        <time>2022-03-31T08:27:52Z</time>
      </trkpt>
      <trkpt lat="47.525543" lon="1.73243">
        <ele>133.0</ele>
        <time>2022-03-31T08:27:53Z</time>
      </trkpt>
      <trkpt lat="47.52555" lon="1.7324215">
        <ele>133.0</ele>
        <time>2022-03-31T08:27:54Z</time>
      </trkpt>
      <trkpt lat="47.52556" lon="1.7324114">
        <ele>133.0</ele>
        <time>2022-03-31T08:27:55Z</time>
      </trkpt>
      <trkpt lat="47.525566" lon="1.7323998">
        <ele>134.0</ele>
        <time>2022-03-31T08:27:56Z</time>
      </trkpt>
      <trkpt lat="47.525578" lon="1.732385">
        <ele>134.0</ele>
        <time>2022-03-31T08:27:57Z</time>
      </trkpt>
      <trkpt lat="47.52558" lon="1.7323686">
        <ele>134.0</ele>
        <time>2022-03-31T08:27:58Z</time>
      </trkpt>
      <trkpt lat="47.52559" lon="1.7323529">
        <ele>134.0</ele>
        <time>2022-03-31T08:27:59Z</time>
      </trkpt>
      <trkpt lat="47.5256" lon="1.7323401">
        <ele>134.0</ele>
        <time>2022-03-31T08:28:00Z</time>
      </trkpt>
      <trkpt lat="47.525608" lon="1.7323272">
        <ele>134.0</ele>
        <time>2022-03-31T08:28:01Z</time>
      </trkpt>
      <trkpt lat="47.525616" lon="1.7323126">
        <ele>135.0</ele>
        <time>2022-03-31T08:28:02Z</time>
      </trkpt>
      <trkpt lat="47.525623" lon="1.732299">
        <ele>135.0</ele>
        <time>2022-03-31T08:28:03Z</time>
      </trkpt>
      <trkpt lat="47.525635" lon="1.7322878">
        <ele>135.0</ele>
        <time>2022-03-31T08:28:04Z</time>
      </trkpt>
      <trkpt lat="47.525646" lon="1.7322754">
        <ele>135.0</ele>
        <time>2022-03-31T08:28:05Z</time>
      </trkpt>
      <trkpt lat="47.525654" lon="1.7322617">
        <ele>135.0</ele>
        <time>2022-03-31T08:28:06Z</time>
      </trkpt>
      <trkpt lat="47.525654" lon="1.7322444">
        <ele>135.0</ele>
        <time>2022-03-31T08:28:07Z</time>
      </trkpt>
      <trkpt lat="47.52566" lon="1.7322291">
        <ele>134.0</ele>
        <time>2022-03-31T08:28:08Z</time>
      </trkpt>
      <trkpt lat="47.525665" lon="1.7322102">
        <ele>134.0</ele>
        <time>2022-03-31T08:28:09Z</time>
      </trkpt>
      <trkpt lat="47.525673" lon="1.7321905">
        <ele>134.0</ele>
        <time>2022-03-31T08:28:10Z</time>
      </trkpt>
      <trkpt lat="47.525677" lon="1.7321746">
        <ele>134.0</ele>
        <time>2022-03-31T08:28:11Z</time>
      </trkpt>
      <trkpt lat="47.52568" lon="1.7321591">
        <ele>134.0</ele>
        <time>2022-03-31T08:28:12Z</time>
      </trkpt>
      <trkpt lat="47.525684" lon="1.7321403">
        <ele>134.0</ele>
        <time>2022-03-31T08:28:13Z</time>
      </trkpt>
      <trkpt lat="47.525692" lon="1.7321212">
        <ele>134.0</ele>
        <time>2022-03-31T08:28:14Z</time>
      </trkpt>
      <trkpt lat="47.5257" lon="1.7321055">
        <ele>135.0</ele>
        <time>2022-03-31T08:28:15Z</time>
      </trkpt>
      <trkpt lat="47.525703" lon="1.7320899">
        <ele>135.0</ele>
        <time>2022-03-31T08:28:16Z</time>
      </trkpt>
      <trkpt lat="47.525707" lon="1.7320784">
        <ele>135.0</ele>
        <time>2022-03-31T08:28:17Z</time>
      </trkpt>
      <trkpt lat="47.52571" lon="1.7320623">
        <ele>135.0</ele>
        <time>2022-03-31T08:28:18Z</time>
      </trkpt>
      <trkpt lat="47.525715" lon="1.7320452">
        <ele>135.0</ele>
        <time>2022-03-31T08:28:19Z</time>
      </trkpt>
      <trkpt lat="47.525715" lon="1.7320257">
        <ele>136.0</ele>
        <time>2022-03-31T08:28:20Z</time>
      </trkpt>
      <trkpt lat="47.52572" lon="1.7320052">
        <ele>136.0</ele>
        <time>2022-03-31T08:28:21Z</time>
      </trkpt>
      <trkpt lat="47.525723" lon="1.7319849">
        <ele>135.0</ele>
        <time>2022-03-31T08:28:22Z</time>
      </trkpt>
      <trkpt lat="47.525723" lon="1.7319671">
        <ele>135.0</ele>
        <time>2022-03-31T08:28:23Z</time>
      </trkpt>
      <trkpt lat="47.525734" lon="1.7319491">
        <ele>135.0</ele>
        <time>2022-03-31T08:28:24Z</time>
      </trkpt>
      <trkpt lat="47.525745" lon="1.7319348">
        <ele>135.0</ele>
        <time>2022-03-31T08:28:25Z</time>
      </trkpt>
      <trkpt lat="47.52575" lon="1.7319248">
        <ele>134.0</ele>
        <time>2022-03-31T08:28:26Z</time>
      </trkpt>
      <trkpt lat="47.52575" lon="1.7319108">
        <ele>134.0</ele>
        <time>2022-03-31T08:28:27Z</time>
      </trkpt>
      <trkpt lat="47.525753" lon="1.7318898">
        <ele>134.0</ele>
        <time>2022-03-31T08:28:28Z</time>
      </trkpt>
      <trkpt lat="47.52575" lon="1.7318707">
        <ele>134.0</ele>
        <time>2022-03-31T08:28:29Z</time>
      </trkpt>
      <trkpt lat="47.52575" lon="1.7318509">
        <ele>134.0</ele>
        <time>2022-03-31T08:28:30Z</time>
      </trkpt>
      <trkpt lat="47.525753" lon="1.7318338">
        <ele>134.0</ele>
        <time>2022-03-31T08:28:31Z</time>
      </trkpt>
      <trkpt lat="47.525753" lon="1.7318144">
        <ele>134.0</ele>
        <time>2022-03-31T08:28:32Z</time>
      </trkpt>
      <trkpt lat="47.525757" lon="1.7318002">
        <ele>134.0</ele>
        <time>2022-03-31T08:28:33Z</time>
      </trkpt>
      <trkpt lat="47.525764" lon="1.7317865">
        <ele>133.0</ele>
        <time>2022-03-31T08:28:34Z</time>
      </trkpt>
      <trkpt lat="47.52577" lon="1.731774">
        <ele>134.0</ele>
        <time>2022-03-31T08:28:35Z</time>
      </trkpt>
      <trkpt lat="47.52577" lon="1.7317581">
        <ele>134.0</ele>
        <time>2022-03-31T08:28:36Z</time>
      </trkpt>
      <trkpt lat="47.525776" lon="1.7317414">
        <ele>134.0</ele>
        <time>2022-03-31T08:28:37Z</time>
      </trkpt>
      <trkpt lat="47.525784" lon="1.7317258">
        <ele>134.0</ele>
        <time>2022-03-31T08:28:38Z</time>
      </trkpt>
      <trkpt lat="47.525787" lon="1.7317121">
        <ele>134.0</ele>
        <time>2022-03-31T08:28:39Z</time>
      </trkpt>
      <trkpt lat="47.52579" lon="1.7316995">
        <ele>135.0</ele>
        <time>2022-03-31T08:28:40Z</time>
      </trkpt>
      <trkpt lat="47.525795" lon="1.7316846">
        <ele>135.0</ele>
        <time>2022-03-31T08:28:41Z</time>
      </trkpt>
      <trkpt lat="47.5258" lon="1.73167">
        <ele>135.0</ele>
        <time>2022-03-31T08:28:42Z</time>
      </trkpt>
      <trkpt lat="47.5258" lon="1.731658">
        <ele>135.0</ele>
        <time>2022-03-31T08:28:43Z</time>
      </trkpt>
      <trkpt lat="47.52581" lon="1.7316437">
        <ele>134.0</ele>
        <time>2022-03-31T08:28:44Z</time>
      </trkpt>
      <trkpt lat="47.525814" lon="1.7316303">
        <ele>134.0</ele>
        <time>2022-03-31T08:28:45Z</time>
      </trkpt>
      <trkpt lat="47.525826" lon="1.7316151">
        <ele>133.0</ele>
        <time>2022-03-31T08:28:46Z</time>
      </trkpt>
      <trkpt lat="47.525833" lon="1.7316029">
        <ele>133.0</ele>
        <time>2022-03-31T08:28:47Z</time>
      </trkpt>
      <trkpt lat="47.525837" lon="1.7315919">
        <ele>133.0</ele>
        <time>2022-03-31T08:28:48Z</time>
      </trkpt>
      <trkpt lat="47.525837" lon="1.7315787">
        <ele>132.0</ele>
        <time>2022-03-31T08:28:49Z</time>
      </trkpt>
      <trkpt lat="47.525845" lon="1.7315626">
        <ele>132.0</ele>
        <time>2022-03-31T08:28:50Z</time>
      </trkpt>
      <trkpt lat="47.525845" lon="1.7315478">
        <ele>132.0</ele>
        <time>2022-03-31T08:28:51Z</time>
      </trkpt>
      <trkpt lat="47.525845" lon="1.7315302">
        <ele>133.0</ele>
        <time>2022-03-31T08:28:52Z</time>
      </trkpt>
      <trkpt lat="47.525845" lon="1.7315149">
        <ele>133.0</ele>
        <time>2022-03-31T08:28:53Z</time>
      </trkpt>
      <trkpt lat="47.52584" lon="1.7314973">
        <ele>133.0</ele>
        <time>2022-03-31T08:28:54Z</time>
      </trkpt>
      <trkpt lat="47.52584" lon="1.7314835">
        <ele>132.0</ele>
        <time>2022-03-31T08:28:55Z</time>
      </trkpt>
      <trkpt lat="47.525837" lon="1.7314702">
        <ele>132.0</ele>
        <time>2022-03-31T08:28:56Z</time>
      </trkpt>
      <trkpt lat="47.52584" lon="1.7314552">
        <ele>132.0</ele>
        <time>2022-03-31T08:28:57Z</time>
      </trkpt>
      <trkpt lat="47.525845" lon="1.7314382">
        <ele>132.0</ele>
        <time>2022-03-31T08:28:58Z</time>
      </trkpt>
      <trkpt lat="47.525845" lon="1.7314224">
        <ele>131.0</ele>
        <time>2022-03-31T08:28:59Z</time>
      </trkpt>
      <trkpt lat="47.52585" lon="1.73141">
        <ele>131.0</ele>
        <time>2022-03-31T08:29:00Z</time>
      </trkpt>
      <trkpt lat="47.525852" lon="1.7313964">
        <ele>131.0</ele>
        <time>2022-03-31T08:29:01Z</time>
      </trkpt>
      <trkpt lat="47.525856" lon="1.7313793">
        <ele>132.0</ele>
        <time>2022-03-31T08:29:02Z</time>
      </trkpt>
      <trkpt lat="47.52586" lon="1.7313625">
        <ele>131.0</ele>
        <time>2022-03-31T08:29:03Z</time>
      </trkpt>
      <trkpt lat="47.525856" lon="1.7313471">
        <ele>131.0</ele>
        <time>2022-03-31T08:29:04Z</time>
      </trkpt>
      <trkpt lat="47.52586" lon="1.7313302">
        <ele>131.0</ele>
        <time>2022-03-31T08:29:05Z</time>
      </trkpt>
      <trkpt lat="47.525856" lon="1.7313155">
        <ele>132.0</ele>
        <time>2022-03-31T08:29:06Z</time>
      </trkpt>
      <trkpt lat="47.525856" lon="1.7312919">
        <ele>132.0</ele>
        <time>2022-03-31T08:29:07Z</time>
      </trkpt>
      <trkpt lat="47.525856" lon="1.7312734">
        <ele>132.0</ele>
        <time>2022-03-31T08:29:08Z</time>
      </trkpt>
      <trkpt lat="47.525856" lon="1.731264">
        <ele>132.0</ele>
        <time>2022-03-31T08:29:09Z</time>
      </trkpt>
      <trkpt lat="47.525856" lon="1.731249">
        <ele>132.0</ele>
        <time>2022-03-31T08:29:10Z</time>
      </trkpt>
      <trkpt lat="47.525852" lon="1.7312313">
        <ele>131.0</ele>
        <time>2022-03-31T08:29:11Z</time>
      </trkpt>
      <trkpt lat="47.52585" lon="1.7312151">
        <ele>131.0</ele>
        <time>2022-03-31T08:29:12Z</time>
      </trkpt>
      <trkpt lat="47.525852" lon="1.7311981">
        <ele>131.0</ele>
        <time>2022-03-31T08:29:13Z</time>
      </trkpt>
      <trkpt lat="47.525852" lon="1.731177">
        <ele>131.0</ele>
        <time>2022-03-31T08:29:14Z</time>
      </trkpt>
      <trkpt lat="47.525852" lon="1.7311532">
        <ele>131.0</ele>
        <time>2022-03-31T08:29:15Z</time>
      </trkpt>
      <trkpt lat="47.525856" lon="1.7311339">
        <ele>132.0</ele>
        <time>2022-03-31T08:29:16Z</time>
      </trkpt>
      <trkpt lat="47.52586" lon="1.7311212">
        <ele>132.0</ele>
        <time>2022-03-31T08:29:17Z</time>
      </trkpt>
      <trkpt lat="47.52586" lon="1.7311091">
        <ele>131.0</ele>
        <time>2022-03-31T08:29:18Z</time>
      </trkpt>
      <trkpt lat="47.525864" lon="1.7310942">
        <ele>131.0</ele>
        <time>2022-03-31T08:29:19Z</time>
      </trkpt>
      <trkpt lat="47.525864" lon="1.7310752">
        <ele>131.0</ele>
        <time>2022-03-31T08:29:20Z</time>
      </trkpt>
      <trkpt lat="47.525867" lon="1.7310599">
        <ele>131.0</ele>
        <time>2022-03-31T08:29:21Z</time>
      </trkpt>
      <trkpt lat="47.52587" lon="1.7310432">
        <ele>132.0</ele>
        <time>2022-03-31T08:29:22Z</time>
      </trkpt>
      <trkpt lat="47.52588" lon="1.731027">
        <ele>132.0</ele>
        <time>2022-03-31T08:29:23Z</time>
      </trkpt>
      <trkpt lat="47.525883" lon="1.7310117">
        <ele>132.0</ele>
        <time>2022-03-31T08:29:24Z</time>
      </trkpt>
      <trkpt lat="47.525887" lon="1.7309984">
        <ele>132.0</ele>
        <time>2022-03-31T08:29:25Z</time>
      </trkpt>
      <trkpt lat="47.52589" lon="1.7309881">
        <ele>133.0</ele>
        <time>2022-03-31T08:29:26Z</time>
      </trkpt>
      <trkpt lat="47.525898" lon="1.7309753">
        <ele>132.0</ele>
        <time>2022-03-31T08:29:27Z</time>
      </trkpt>
      <trkpt lat="47.525906" lon="1.7309585">
        <ele>133.0</ele>
        <time>2022-03-31T08:29:28Z</time>
      </trkpt>
      <trkpt lat="47.52591" lon="1.7309426">
        <ele>134.0</ele>
        <time>2022-03-31T08:29:29Z</time>
      </trkpt>
      <trkpt lat="47.525917" lon="1.7309272">
        <ele>134.0</ele>
        <time>2022-03-31T08:29:30Z</time>
      </trkpt>
      <trkpt lat="47.52592" lon="1.7309117">
        <ele>133.0</ele>
        <time>2022-03-31T08:29:31Z</time>
      </trkpt>
      <trkpt lat="47.52592" lon="1.7308983">
        <ele>133.0</ele>
        <time>2022-03-31T08:29:32Z</time>
      </trkpt>
      <trkpt lat="47.525925" lon="1.7308671">
        <ele>133.0</ele>
        <time>2022-03-31T08:29:33Z</time>
      </trkpt>
      <trkpt lat="47.525925" lon="1.7308671">
        <ele>133.0</ele>
        <time>2022-03-31T08:29:33Z</time>
      </trkpt>
      <trkpt lat="47.52593" lon="1.7308531">
        <ele>133.0</ele>
        <time>2022-03-31T08:29:35Z</time>
      </trkpt>
      <trkpt lat="47.525936" lon="1.7308391">
        <ele>133.0</ele>
        <time>2022-03-31T08:29:36Z</time>
      </trkpt>
      <trkpt lat="47.52594" lon="1.7308257">
        <ele>132.0</ele>
        <time>2022-03-31T08:29:37Z</time>
      </trkpt>
      <trkpt lat="47.525944" lon="1.730796">
        <ele>132.0</ele>
        <time>2022-03-31T08:29:38Z</time>
      </trkpt>
      <trkpt lat="47.525944" lon="1.730796">
        <ele>132.0</ele>
        <time>2022-03-31T08:29:38Z</time>
      </trkpt>
      <trkpt lat="47.525944" lon="1.7307767">
        <ele>132.0</ele>
        <time>2022-03-31T08:29:40Z</time>
      </trkpt>
      <trkpt lat="47.525944" lon="1.7307594">
        <ele>132.0</ele>
        <time>2022-03-31T08:29:41Z</time>
      </trkpt>
      <trkpt lat="47.525936" lon="1.7307237">
        <ele>131.0</ele>
        <time>2022-03-31T08:29:42Z</time>
      </trkpt>
      <trkpt lat="47.525936" lon="1.7307237">
        <ele>131.0</ele>
        <time>2022-03-31T08:29:42Z</time>
      </trkpt>
      <trkpt lat="47.525936" lon="1.7306935">
        <ele>131.0</ele>
        <time>2022-03-31T08:29:44Z</time>
      </trkpt>
      <trkpt lat="47.525936" lon="1.7306935">
        <ele>131.0</ele>
        <time>2022-03-31T08:29:44Z</time>
      </trkpt>
      <trkpt lat="47.525936" lon="1.7306768">
        <ele>131.0</ele>
        <time>2022-03-31T08:29:46Z</time>
      </trkpt>
      <trkpt lat="47.525936" lon="1.730661">
        <ele>131.0</ele>
        <time>2022-03-31T08:29:47Z</time>
      </trkpt>
      <trkpt lat="47.525932" lon="1.7306428">
        <ele>131.0</ele>
        <time>2022-03-31T08:29:48Z</time>
      </trkpt>
      <trkpt lat="47.52593" lon="1.7306253">
        <ele>131.0</ele>
        <time>2022-03-31T08:29:49Z</time>
      </trkpt>
      <trkpt lat="47.525925" lon="1.7306106">
        <ele>131.0</ele>
        <time>2022-03-31T08:29:50Z</time>
      </trkpt>
      <trkpt lat="47.525917" lon="1.7305952">
        <ele>130.0</ele>
        <time>2022-03-31T08:29:51Z</time>
      </trkpt>
      <trkpt lat="47.525913" lon="1.7305765">
        <ele>130.0</ele>
        <time>2022-03-31T08:29:52Z</time>
      </trkpt>
      <trkpt lat="47.52591" lon="1.7305602">
        <ele>130.0</ele>
        <time>2022-03-31T08:29:53Z</time>
      </trkpt>
      <trkpt lat="47.525906" lon="1.7305416">
        <ele>130.0</ele>
        <time>2022-03-31T08:29:54Z</time>
      </trkpt>
      <trkpt lat="47.5259" lon="1.7305197">
        <ele>130.0</ele>
        <time>2022-03-31T08:29:55Z</time>
      </trkpt>
      <trkpt lat="47.525894" lon="1.7305019">
        <ele>130.0</ele>
        <time>2022-03-31T08:29:56Z</time>
      </trkpt>
      <trkpt lat="47.525883" lon="1.7304655">
        <ele>131.0</ele>
        <time>2022-03-31T08:29:57Z</time>
      </trkpt>
      <trkpt lat="47.525883" lon="1.7304655">
        <ele>131.0</ele>
        <time>2022-03-31T08:29:57Z</time>
      </trkpt>
      <trkpt lat="47.525875" lon="1.7304498">
        <ele>131.0</ele>
        <time>2022-03-31T08:29:59Z</time>
      </trkpt>
      <trkpt lat="47.52586" lon="1.7304227">
        <ele>132.0</ele>
        <time>2022-03-31T08:30:00Z</time>
      </trkpt>
      <trkpt lat="47.52586" lon="1.7304227">
        <ele>132.0</ele>
        <time>2022-03-31T08:30:00Z</time>
      </trkpt>
      <trkpt lat="47.52585" lon="1.7304076">
        <ele>132.0</ele>
        <time>2022-03-31T08:30:02Z</time>
      </trkpt>
      <trkpt lat="47.525833" lon="1.7303722">
        <ele>131.0</ele>
        <time>2022-03-31T08:30:03Z</time>
      </trkpt>
      <trkpt lat="47.525833" lon="1.7303722">
        <ele>131.0</ele>
        <time>2022-03-31T08:30:03Z</time>
      </trkpt>
      <trkpt lat="47.525814" lon="1.7303457">
        <ele>131.0</ele>
        <time>2022-03-31T08:30:05Z</time>
      </trkpt>
      <trkpt lat="47.525806" lon="1.7303265">
        <ele>131.0</ele>
        <time>2022-03-31T08:30:06Z</time>
      </trkpt>
      <trkpt lat="47.525806" lon="1.7303265">
        <ele>131.0</ele>
        <time>2022-03-31T08:30:06Z</time>
      </trkpt>
      <trkpt lat="47.525784" lon="1.730295">
        <ele>131.0</ele>
        <time>2022-03-31T08:30:08Z</time>
      </trkpt>
      <trkpt lat="47.525784" lon="1.730295">
        <ele>131.0</ele>
        <time>2022-03-31T08:30:08Z</time>
      </trkpt>
      <trkpt lat="47.525776" lon="1.7302735">
        <ele>132.0</ele>
        <time>2022-03-31T08:30:10Z</time>
      </trkpt>
      <trkpt lat="47.525757" lon="1.7302356">
        <ele>132.0</ele>
        <time>2022-03-31T08:30:11Z</time>
      </trkpt>
      <trkpt lat="47.525757" lon="1.7302356">
        <ele>132.0</ele>
        <time>2022-03-31T08:30:11Z</time>
      </trkpt>
      <trkpt lat="47.525753" lon="1.7302202">
        <ele>132.0</ele>
        <time>2022-03-31T08:30:13Z</time>
      </trkpt>
      <trkpt lat="47.52575" lon="1.730205">
        <ele>132.0</ele>
        <time>2022-03-31T08:30:14Z</time>
      </trkpt>
      <trkpt lat="47.525745" lon="1.7301936">
        <ele>132.0</ele>
        <time>2022-03-31T08:30:15Z</time>
      </trkpt>
      <trkpt lat="47.525734" lon="1.7301673">
        <ele>131.0</ele>
        <time>2022-03-31T08:30:16Z</time>
      </trkpt>
      <trkpt lat="47.525734" lon="1.7301673">
        <ele>131.0</ele>
        <time>2022-03-31T08:30:16Z</time>
      </trkpt>
      <trkpt lat="47.525715" lon="1.730131">
        <ele>132.0</ele>
        <time>2022-03-31T08:30:18Z</time>
      </trkpt>
      <trkpt lat="47.525703" lon="1.7301176">
        <ele>132.0</ele>
        <time>2022-03-31T08:30:19Z</time>
      </trkpt>
      <trkpt lat="47.5257" lon="1.7301009">
        <ele>132.0</ele>
        <time>2022-03-31T08:30:20Z</time>
      </trkpt>
      <trkpt lat="47.525692" lon="1.7300875">
        <ele>132.0</ele>
        <time>2022-03-31T08:30:21Z</time>
      </trkpt>
      <trkpt lat="47.525692" lon="1.7300875">
        <ele>132.0</ele>
        <time>2022-03-31T08:30:21Z</time>
      </trkpt>
      <trkpt lat="47.52569" lon="1.7300736">
        <ele>132.0</ele>
        <time>2022-03-31T08:30:23Z</time>
      </trkpt>
      <trkpt lat="47.525677" lon="1.7300469">
        <ele>133.0</ele>
        <time>2022-03-31T08:30:24Z</time>
      </trkpt>
      <trkpt lat="47.525677" lon="1.7300469">
        <ele>133.0</ele>
        <time>2022-03-31T08:30:24Z</time>
      </trkpt>
      <trkpt lat="47.525677" lon="1.7300285">
        <ele>132.0</ele>
        <time>2022-03-31T08:30:26Z</time>
      </trkpt>
      <trkpt lat="47.525677" lon="1.7300086">
        <ele>132.0</ele>
        <time>2022-03-31T08:30:27Z</time>
      </trkpt>
      <trkpt lat="47.52568" lon="1.7299856">
        <ele>133.0</ele>
        <time>2022-03-31T08:30:28Z</time>
      </trkpt>
      <trkpt lat="47.52568" lon="1.7299722">
        <ele>133.0</ele>
        <time>2022-03-31T08:30:29Z</time>
      </trkpt>
      <trkpt lat="47.525677" lon="1.7299535">
        <ele>134.0</ele>
        <time>2022-03-31T08:30:30Z</time>
      </trkpt>
      <trkpt lat="47.525677" lon="1.7299535">
        <ele>134.0</ele>
        <time>2022-03-31T08:30:30Z</time>
      </trkpt>
      <trkpt lat="47.52567" lon="1.7299216">
        <ele>134.0</ele>
        <time>2022-03-31T08:30:32Z</time>
      </trkpt>
      <trkpt lat="47.52567" lon="1.7299216">
        <ele>134.0</ele>
        <time>2022-03-31T08:30:32Z</time>
      </trkpt>
      <trkpt lat="47.52567" lon="1.7299032">
        <ele>134.0</ele>
        <time>2022-03-31T08:30:34Z</time>
      </trkpt>
      <trkpt lat="47.525673" lon="1.729885">
        <ele>134.0</ele>
        <time>2022-03-31T08:30:35Z</time>
      </trkpt>
      <trkpt lat="47.525677" lon="1.7298506">
        <ele>134.0</ele>
        <time>2022-03-31T08:30:36Z</time>
      </trkpt>
      <trkpt lat="47.525677" lon="1.7298293">
        <ele>134.0</ele>
        <time>2022-03-31T08:30:37Z</time>
      </trkpt>
      <trkpt lat="47.525677" lon="1.7298088">
        <ele>133.0</ele>
        <time>2022-03-31T08:30:38Z</time>
      </trkpt>
      <trkpt lat="47.525677" lon="1.7297934">
        <ele>133.0</ele>
        <time>2022-03-31T08:30:39Z</time>
      </trkpt>
      <trkpt lat="47.52568" lon="1.7297792">
        <ele>133.0</ele>
        <time>2022-03-31T08:30:40Z</time>
      </trkpt>
      <trkpt lat="47.52568" lon="1.7297674">
        <ele>133.0</ele>
        <time>2022-03-31T08:30:41Z</time>
      </trkpt>
      <trkpt lat="47.52568" lon="1.7297674">
        <ele>133.0</ele>
        <time>2022-03-31T08:30:41Z</time>
      </trkpt>
      <trkpt lat="47.52569" lon="1.7297446">
        <ele>133.0</ele>
        <time>2022-03-31T08:30:43Z</time>
      </trkpt>
      <trkpt lat="47.52569" lon="1.7297325">
        <ele>133.0</ele>
        <time>2022-03-31T08:30:45Z</time>
      </trkpt>
      <trkpt lat="47.525692" lon="1.7297195">
        <ele>133.0</ele>
        <time>2022-03-31T08:30:46Z</time>
      </trkpt>
      <trkpt lat="47.525692" lon="1.7297027">
        <ele>134.0</ele>
        <time>2022-03-31T08:30:47Z</time>
      </trkpt>
      <trkpt lat="47.525692" lon="1.7296872">
        <ele>133.0</ele>
        <time>2022-03-31T08:30:48Z</time>
      </trkpt>
      <trkpt lat="47.525696" lon="1.7296685">
        <ele>133.0</ele>
        <time>2022-03-31T08:30:49Z</time>
      </trkpt>
      <trkpt lat="47.5257" lon="1.7296505">
        <ele>133.0</ele>
        <time>2022-03-31T08:30:50Z</time>
      </trkpt>
      <trkpt lat="47.5257" lon="1.7296337">
        <ele>133.0</ele>
        <time>2022-03-31T08:30:51Z</time>
      </trkpt>
      <trkpt lat="47.5257" lon="1.7296195">
        <ele>133.0</ele>
        <time>2022-03-31T08:30:52Z</time>
      </trkpt>
      <trkpt lat="47.5257" lon="1.7296077">
        <ele>133.0</ele>
        <time>2022-03-31T08:30:53Z</time>
      </trkpt>
      <trkpt lat="47.525703" lon="1.729592">
        <ele>132.0</ele>
        <time>2022-03-31T08:30:54Z</time>
      </trkpt>
      <trkpt lat="47.525707" lon="1.729579">
        <ele>132.0</ele>
        <time>2022-03-31T08:30:55Z</time>
      </trkpt>
      <trkpt lat="47.525707" lon="1.7295668">
        <ele>132.0</ele>
        <time>2022-03-31T08:30:56Z</time>
      </trkpt>
      <trkpt lat="47.525707" lon="1.7295507">
        <ele>132.0</ele>
        <time>2022-03-31T08:30:57Z</time>
      </trkpt>
      <trkpt lat="47.52571" lon="1.7295336">
        <ele>132.0</ele>
        <time>2022-03-31T08:30:58Z</time>
      </trkpt>
      <trkpt lat="47.52571" lon="1.7295163">
        <ele>132.0</ele>
        <time>2022-03-31T08:30:59Z</time>
      </trkpt>
      <trkpt lat="47.52571" lon="1.7295022">
        <ele>132.0</ele>
        <time>2022-03-31T08:31:00Z</time>
      </trkpt>
      <trkpt lat="47.52571" lon="1.7294867">
        <ele>132.0</ele>
        <time>2022-03-31T08:31:01Z</time>
      </trkpt>
      <trkpt lat="47.525707" lon="1.7294747">
        <ele>131.0</ele>
        <time>2022-03-31T08:31:02Z</time>
      </trkpt>
      <trkpt lat="47.525703" lon="1.7294588">
        <ele>131.0</ele>
        <time>2022-03-31T08:31:03Z</time>
      </trkpt>
      <trkpt lat="47.525703" lon="1.7294443">
        <ele>130.0</ele>
        <time>2022-03-31T08:31:04Z</time>
      </trkpt>
      <trkpt lat="47.5257" lon="1.7294307">
        <ele>130.0</ele>
        <time>2022-03-31T08:31:05Z</time>
      </trkpt>
      <trkpt lat="47.5257" lon="1.7294174">
        <ele>130.0</ele>
        <time>2022-03-31T08:31:06Z</time>
      </trkpt>
      <trkpt lat="47.5257" lon="1.7294064">
        <ele>130.0</ele>
        <time>2022-03-31T08:31:07Z</time>
      </trkpt>
      <trkpt lat="47.525703" lon="1.7293888">
        <ele>130.0</ele>
        <time>2022-03-31T08:31:08Z</time>
      </trkpt>
      <trkpt lat="47.525703" lon="1.7293752">
        <ele>130.0</ele>
        <time>2022-03-31T08:31:09Z</time>
      </trkpt>
      <trkpt lat="47.525707" lon="1.7293622">
        <ele>130.0</ele>
        <time>2022-03-31T08:31:10Z</time>
      </trkpt>
      <trkpt lat="47.52571" lon="1.729351">
        <ele>129.0</ele>
        <time>2022-03-31T08:31:11Z</time>
      </trkpt>
      <trkpt lat="47.525715" lon="1.7293417">
        <ele>129.0</ele>
        <time>2022-03-31T08:31:12Z</time>
      </trkpt>
      <trkpt lat="47.525715" lon="1.7293286">
        <ele>129.0</ele>
        <time>2022-03-31T08:31:13Z</time>
      </trkpt>
      <trkpt lat="47.52571" lon="1.7293146">
        <ele>129.0</ele>
        <time>2022-03-31T08:31:14Z</time>
      </trkpt>
      <trkpt lat="47.525715" lon="1.7292973">
        <ele>129.0</ele>
        <time>2022-03-31T08:31:15Z</time>
      </trkpt>
      <trkpt lat="47.52571" lon="1.7292794">
        <ele>129.0</ele>
        <time>2022-03-31T08:31:16Z</time>
      </trkpt>
      <trkpt lat="47.525707" lon="1.7292641">
        <ele>128.0</ele>
        <time>2022-03-31T08:31:17Z</time>
      </trkpt>
      <trkpt lat="47.525707" lon="1.7292457">
        <ele>128.0</ele>
        <time>2022-03-31T08:31:18Z</time>
      </trkpt>
      <trkpt lat="47.525703" lon="1.7292315">
        <ele>128.0</ele>
        <time>2022-03-31T08:31:19Z</time>
      </trkpt>
      <trkpt lat="47.525703" lon="1.7292141">
        <ele>128.0</ele>
        <time>2022-03-31T08:31:20Z</time>
      </trkpt>
      <trkpt lat="47.525703" lon="1.7291995">
        <ele>128.0</ele>
        <time>2022-03-31T08:31:21Z</time>
      </trkpt>
      <trkpt lat="47.525707" lon="1.7291844">
        <ele>128.0</ele>
        <time>2022-03-31T08:31:22Z</time>
      </trkpt>
      <trkpt lat="47.525707" lon="1.7291664">
        <ele>127.0</ele>
        <time>2022-03-31T08:31:23Z</time>
      </trkpt>
      <trkpt lat="47.525703" lon="1.7291481">
        <ele>127.0</ele>
        <time>2022-03-31T08:31:24Z</time>
      </trkpt>
      <trkpt lat="47.525707" lon="1.7291274">
        <ele>127.0</ele>
        <time>2022-03-31T08:31:25Z</time>
      </trkpt>
      <trkpt lat="47.525707" lon="1.729107">
        <ele>127.0</ele>
        <time>2022-03-31T08:31:26Z</time>
      </trkpt>
      <trkpt lat="47.525707" lon="1.7290883">
        <ele>127.0</ele>
        <time>2022-03-31T08:31:27Z</time>
      </trkpt>
      <trkpt lat="47.525707" lon="1.7290709">
        <ele>127.0</ele>
        <time>2022-03-31T08:31:28Z</time>
      </trkpt>
      <trkpt lat="47.52571" lon="1.729053">
        <ele>127.0</ele>
        <time>2022-03-31T08:31:29Z</time>
      </trkpt>
      <trkpt lat="47.52571" lon="1.7290366">
        <ele>126.0</ele>
        <time>2022-03-31T08:31:30Z</time>
      </trkpt>
      <trkpt lat="47.525707" lon="1.7290201">
        <ele>126.0</ele>
        <time>2022-03-31T08:31:31Z</time>
      </trkpt>
      <trkpt lat="47.525707" lon="1.7289995">
        <ele>126.0</ele>
        <time>2022-03-31T08:31:32Z</time>
      </trkpt>
      <trkpt lat="47.525707" lon="1.7289809">
        <ele>126.0</ele>
        <time>2022-03-31T08:31:33Z</time>
      </trkpt>
      <trkpt lat="47.525707" lon="1.728966">
        <ele>127.0</ele>
        <time>2022-03-31T08:31:34Z</time>
      </trkpt>
      <trkpt lat="47.525707" lon="1.728951">
        <ele>127.0</ele>
        <time>2022-03-31T08:31:35Z</time>
      </trkpt>
      <trkpt lat="47.525707" lon="1.7289366">
        <ele>127.0</ele>
        <time>2022-03-31T08:31:36Z</time>
      </trkpt>
      <trkpt lat="47.525703" lon="1.7289226">
        <ele>126.0</ele>
        <time>2022-03-31T08:31:37Z</time>
      </trkpt>
      <trkpt lat="47.525703" lon="1.7289064">
        <ele>127.0</ele>
        <time>2022-03-31T08:31:38Z</time>
      </trkpt>
      <trkpt lat="47.525707" lon="1.7288914">
        <ele>127.0</ele>
        <time>2022-03-31T08:31:39Z</time>
      </trkpt>
      <trkpt lat="47.52571" lon="1.7288748">
        <ele>127.0</ele>
        <time>2022-03-31T08:31:40Z</time>
      </trkpt>
      <trkpt lat="47.525707" lon="1.7288603">
        <ele>127.0</ele>
        <time>2022-03-31T08:31:41Z</time>
      </trkpt>
      <trkpt lat="47.525707" lon="1.728843">
        <ele>127.0</ele>
        <time>2022-03-31T08:31:42Z</time>
      </trkpt>
      <trkpt lat="47.525707" lon="1.7288258">
        <ele>127.0</ele>
        <time>2022-03-31T08:31:43Z</time>
      </trkpt>
      <trkpt lat="47.525703" lon="1.728808">
        <ele>128.0</ele>
        <time>2022-03-31T08:31:44Z</time>
      </trkpt>
      <trkpt lat="47.525707" lon="1.7287875">
        <ele>128.0</ele>
        <time>2022-03-31T08:31:45Z</time>
      </trkpt>
      <trkpt lat="47.525707" lon="1.7287687">
        <ele>128.0</ele>
        <time>2022-03-31T08:31:46Z</time>
      </trkpt>
      <trkpt lat="47.525707" lon="1.7287498">
        <ele>128.0</ele>
        <time>2022-03-31T08:31:47Z</time>
      </trkpt>
      <trkpt lat="47.525707" lon="1.7287319">
        <ele>128.0</ele>
        <time>2022-03-31T08:31:48Z</time>
      </trkpt>
      <trkpt lat="47.525707" lon="1.7287118">
        <ele>128.0</ele>
        <time>2022-03-31T08:31:49Z</time>
      </trkpt>
      <trkpt lat="47.525715" lon="1.7286952">
        <ele>129.0</ele>
        <time>2022-03-31T08:31:50Z</time>
      </trkpt>
      <trkpt lat="47.52572" lon="1.7286806">
        <ele>129.0</ele>
        <time>2022-03-31T08:31:51Z</time>
      </trkpt>
      <trkpt lat="47.525723" lon="1.7286657">
        <ele>129.0</ele>
        <time>2022-03-31T08:31:52Z</time>
      </trkpt>
      <trkpt lat="47.525726" lon="1.7286507">
        <ele>129.0</ele>
        <time>2022-03-31T08:31:53Z</time>
      </trkpt>
      <trkpt lat="47.52573" lon="1.7286329">
        <ele>129.0</ele>
        <time>2022-03-31T08:31:54Z</time>
      </trkpt>
      <trkpt lat="47.52573" lon="1.7286175">
        <ele>130.0</ele>
        <time>2022-03-31T08:31:55Z</time>
      </trkpt>
      <trkpt lat="47.525726" lon="1.7285999">
        <ele>130.0</ele>
        <time>2022-03-31T08:31:56Z</time>
      </trkpt>
      <trkpt lat="47.525723" lon="1.7285813">
        <ele>130.0</ele>
        <time>2022-03-31T08:31:57Z</time>
      </trkpt>
      <trkpt lat="47.525723" lon="1.7285571">
        <ele>130.0</ele>
        <time>2022-03-31T08:31:58Z</time>
      </trkpt>
      <trkpt lat="47.525726" lon="1.7285415">
        <ele>130.0</ele>
        <time>2022-03-31T08:31:59Z</time>
      </trkpt>
      <trkpt lat="47.525726" lon="1.7285286">
        <ele>129.0</ele>
        <time>2022-03-31T08:32:00Z</time>
      </trkpt>
      <trkpt lat="47.525726" lon="1.7285105">
        <ele>130.0</ele>
        <time>2022-03-31T08:32:01Z</time>
      </trkpt>
      <trkpt lat="47.525726" lon="1.728496">
        <ele>129.0</ele>
        <time>2022-03-31T08:32:02Z</time>
      </trkpt>
      <trkpt lat="47.525726" lon="1.7284756">
        <ele>129.0</ele>
        <time>2022-03-31T08:32:03Z</time>
      </trkpt>
      <trkpt lat="47.525726" lon="1.728459">
        <ele>129.0</ele>
        <time>2022-03-31T08:32:04Z</time>
      </trkpt>
      <trkpt lat="47.525726" lon="1.7284381">
        <ele>129.0</ele>
        <time>2022-03-31T08:32:05Z</time>
      </trkpt>
      <trkpt lat="47.52573" lon="1.7284207">
        <ele>129.0</ele>
        <time>2022-03-31T08:32:06Z</time>
      </trkpt>
      <trkpt lat="47.525734" lon="1.7284003">
        <ele>129.0</ele>
        <time>2022-03-31T08:32:07Z</time>
      </trkpt>
      <trkpt lat="47.525734" lon="1.7283823">
        <ele>129.0</ele>
        <time>2022-03-31T08:32:08Z</time>
      </trkpt>
      <trkpt lat="47.525734" lon="1.728364">
        <ele>128.0</ele>
        <time>2022-03-31T08:32:09Z</time>
      </trkpt>
      <trkpt lat="47.525738" lon="1.7283487">
        <ele>128.0</ele>
        <time>2022-03-31T08:32:10Z</time>
      </trkpt>
      <trkpt lat="47.52574" lon="1.7283305">
        <ele>128.0</ele>
        <time>2022-03-31T08:32:11Z</time>
      </trkpt>
      <trkpt lat="47.52574" lon="1.7283143">
        <ele>127.0</ele>
        <time>2022-03-31T08:32:12Z</time>
      </trkpt>
      <trkpt lat="47.52574" lon="1.728299">
        <ele>127.0</ele>
        <time>2022-03-31T08:32:13Z</time>
      </trkpt>
      <trkpt lat="47.525745" lon="1.7282823">
        <ele>126.0</ele>
        <time>2022-03-31T08:32:14Z</time>
      </trkpt>
      <trkpt lat="47.525757" lon="1.7282652">
        <ele>126.0</ele>
        <time>2022-03-31T08:32:15Z</time>
      </trkpt>
      <trkpt lat="47.525757" lon="1.7282466">
        <ele>126.0</ele>
        <time>2022-03-31T08:32:16Z</time>
      </trkpt>
      <trkpt lat="47.52576" lon="1.7282319">
        <ele>125.0</ele>
        <time>2022-03-31T08:32:17Z</time>
      </trkpt>
      <trkpt lat="47.52576" lon="1.7282169">
        <ele>125.0</ele>
        <time>2022-03-31T08:32:18Z</time>
      </trkpt>
      <trkpt lat="47.52576" lon="1.7281994">
        <ele>125.0</ele>
        <time>2022-03-31T08:32:19Z</time>
      </trkpt>
      <trkpt lat="47.525764" lon="1.7281787">
        <ele>125.0</ele>
        <time>2022-03-31T08:32:20Z</time>
      </trkpt>
      <trkpt lat="47.52577" lon="1.7281609">
        <ele>124.0</ele>
        <time>2022-03-31T08:32:21Z</time>
      </trkpt>
      <trkpt lat="47.525772" lon="1.7281386">
        <ele>124.0</ele>
        <time>2022-03-31T08:32:22Z</time>
      </trkpt>
      <trkpt lat="47.525772" lon="1.7281226">
        <ele>124.0</ele>
        <time>2022-03-31T08:32:23Z</time>
      </trkpt>
      <trkpt lat="47.525776" lon="1.7281039">
        <ele>124.0</ele>
        <time>2022-03-31T08:32:24Z</time>
      </trkpt>
      <trkpt lat="47.525784" lon="1.7280813">
        <ele>124.0</ele>
        <time>2022-03-31T08:32:25Z</time>
      </trkpt>
      <trkpt lat="47.525784" lon="1.728062">
        <ele>124.0</ele>
        <time>2022-03-31T08:32:26Z</time>
      </trkpt>
      <trkpt lat="47.525784" lon="1.7280436">
        <ele>124.0</ele>
        <time>2022-03-31T08:32:27Z</time>
      </trkpt>
      <trkpt lat="47.525787" lon="1.7280257">
        <ele>124.0</ele>
        <time>2022-03-31T08:32:28Z</time>
      </trkpt>
      <trkpt lat="47.525787" lon="1.7280133">
        <ele>124.0</ele>
        <time>2022-03-31T08:32:29Z</time>
      </trkpt>
      <trkpt lat="47.52579" lon="1.728002">
        <ele>124.0</ele>
        <time>2022-03-31T08:32:30Z</time>
      </trkpt>
      <trkpt lat="47.525787" lon="1.7279867">
        <ele>124.0</ele>
        <time>2022-03-31T08:32:31Z</time>
      </trkpt>
      <trkpt lat="47.52579" lon="1.7279732">
        <ele>124.0</ele>
        <time>2022-03-31T08:32:32Z</time>
      </trkpt>
      <trkpt lat="47.525795" lon="1.7279568">
        <ele>124.0</ele>
        <time>2022-03-31T08:32:33Z</time>
      </trkpt>
      <trkpt lat="47.525795" lon="1.7279425">
        <ele>125.0</ele>
        <time>2022-03-31T08:32:34Z</time>
      </trkpt>
      <trkpt lat="47.525795" lon="1.7279292">
        <ele>125.0</ele>
        <time>2022-03-31T08:32:35Z</time>
      </trkpt>
      <trkpt lat="47.5258" lon="1.7279109">
        <ele>125.0</ele>
        <time>2022-03-31T08:32:36Z</time>
      </trkpt>
      <trkpt lat="47.525803" lon="1.727893">
        <ele>125.0</ele>
        <time>2022-03-31T08:32:37Z</time>
      </trkpt>
      <trkpt lat="47.525806" lon="1.7278737">
        <ele>125.0</ele>
        <time>2022-03-31T08:32:38Z</time>
      </trkpt>
      <trkpt lat="47.52581" lon="1.7278547">
        <ele>126.0</ele>
        <time>2022-03-31T08:32:39Z</time>
      </trkpt>
      <trkpt lat="47.525814" lon="1.7278383">
        <ele>125.0</ele>
        <time>2022-03-31T08:32:40Z</time>
      </trkpt>
      <trkpt lat="47.525818" lon="1.7278198">
        <ele>125.0</ele>
        <time>2022-03-31T08:32:41Z</time>
      </trkpt>
      <trkpt lat="47.525818" lon="1.7277994">
        <ele>126.0</ele>
        <time>2022-03-31T08:32:42Z</time>
      </trkpt>
      <trkpt lat="47.525814" lon="1.7277797">
        <ele>126.0</ele>
        <time>2022-03-31T08:32:43Z</time>
      </trkpt>
      <trkpt lat="47.525814" lon="1.727764">
        <ele>125.0</ele>
        <time>2022-03-31T08:32:44Z</time>
      </trkpt>
      <trkpt lat="47.525814" lon="1.7277505">
        <ele>125.0</ele>
        <time>2022-03-31T08:32:45Z</time>
      </trkpt>
      <trkpt lat="47.525814" lon="1.7277334">
        <ele>125.0</ele>
        <time>2022-03-31T08:32:46Z</time>
      </trkpt>
      <trkpt lat="47.525814" lon="1.7277157">
        <ele>125.0</ele>
        <time>2022-03-31T08:32:47Z</time>
      </trkpt>
      <trkpt lat="47.525814" lon="1.7276994">
        <ele>125.0</ele>
        <time>2022-03-31T08:32:48Z</time>
      </trkpt>
      <trkpt lat="47.525818" lon="1.7276818">
        <ele>125.0</ele>
        <time>2022-03-31T08:32:49Z</time>
      </trkpt>
      <trkpt lat="47.525818" lon="1.7276632">
        <ele>124.0</ele>
        <time>2022-03-31T08:32:50Z</time>
      </trkpt>
      <trkpt lat="47.525814" lon="1.7276409">
        <ele>124.0</ele>
        <time>2022-03-31T08:32:51Z</time>
      </trkpt>
      <trkpt lat="47.52581" lon="1.7276194">
        <ele>124.0</ele>
        <time>2022-03-31T08:32:52Z</time>
      </trkpt>
      <trkpt lat="47.52581" lon="1.727602">
        <ele>124.0</ele>
        <time>2022-03-31T08:32:53Z</time>
      </trkpt>
      <trkpt lat="47.52581" lon="1.7275871">
        <ele>124.0</ele>
        <time>2022-03-31T08:32:54Z</time>
      </trkpt>
      <trkpt lat="47.52581" lon="1.7275714">
        <ele>125.0</ele>
        <time>2022-03-31T08:32:55Z</time>
      </trkpt>
      <trkpt lat="47.52581" lon="1.7275714">
        <ele>125.0</ele>
        <time>2022-03-31T08:32:56Z</time>
      </trkpt>
      <trkpt lat="47.52581" lon="1.7275397">
        <ele>124.0</ele>
        <time>2022-03-31T08:32:57Z</time>
      </trkpt>
      <trkpt lat="47.525814" lon="1.7275195">
        <ele>125.0</ele>
        <time>2022-03-31T08:32:58Z</time>
      </trkpt>
      <trkpt lat="47.525818" lon="1.7274995">
        <ele>124.0</ele>
        <time>2022-03-31T08:32:59Z</time>
      </trkpt>
      <trkpt lat="47.52582" lon="1.7274806">
        <ele>124.0</ele>
        <time>2022-03-31T08:33:00Z</time>
      </trkpt>
      <trkpt lat="47.52582" lon="1.7274616">
        <ele>124.0</ele>
        <time>2022-03-31T08:33:01Z</time>
      </trkpt>
      <trkpt lat="47.52582" lon="1.7274463">
        <ele>124.0</ele>
        <time>2022-03-31T08:33:02Z</time>
      </trkpt>
      <trkpt lat="47.525826" lon="1.7274333">
        <ele>124.0</ele>
        <time>2022-03-31T08:33:03Z</time>
      </trkpt>
      <trkpt lat="47.525826" lon="1.7274182">
        <ele>124.0</ele>
        <time>2022-03-31T08:33:04Z</time>
      </trkpt>
      <trkpt lat="47.525826" lon="1.7274182">
        <ele>124.0</ele>
        <time>2022-03-31T08:33:05Z</time>
      </trkpt>
      <trkpt lat="47.52583" lon="1.7273879">
        <ele>125.0</ele>
        <time>2022-03-31T08:33:06Z</time>
      </trkpt>
      <trkpt lat="47.52583" lon="1.7273726">
        <ele>125.0</ele>
        <time>2022-03-31T08:33:07Z</time>
      </trkpt>
      <trkpt lat="47.52583" lon="1.7273589">
        <ele>124.0</ele>
        <time>2022-03-31T08:33:08Z</time>
      </trkpt>
      <trkpt lat="47.525833" lon="1.7273473">
        <ele>124.0</ele>
        <time>2022-03-31T08:33:09Z</time>
      </trkpt>
      <trkpt lat="47.52583" lon="1.7273295">
        <ele>124.0</ele>
        <time>2022-03-31T08:33:10Z</time>
      </trkpt>
      <trkpt lat="47.525826" lon="1.7273104">
        <ele>123.0</ele>
        <time>2022-03-31T08:33:11Z</time>
      </trkpt>
      <trkpt lat="47.525826" lon="1.7272925">
        <ele>123.0</ele>
        <time>2022-03-31T08:33:12Z</time>
      </trkpt>
      <trkpt lat="47.52582" lon="1.7272708">
        <ele>122.0</ele>
        <time>2022-03-31T08:33:13Z</time>
      </trkpt>
      <trkpt lat="47.52582" lon="1.7272532">
        <ele>123.0</ele>
        <time>2022-03-31T08:33:14Z</time>
      </trkpt>
      <trkpt lat="47.52582" lon="1.7272382">
        <ele>123.0</ele>
        <time>2022-03-31T08:33:15Z</time>
      </trkpt>
      <trkpt lat="47.52582" lon="1.7272255">
        <ele>123.0</ele>
        <time>2022-03-31T08:33:16Z</time>
      </trkpt>
      <trkpt lat="47.52582" lon="1.7272121">
        <ele>123.0</ele>
        <time>2022-03-31T08:33:17Z</time>
      </trkpt>
      <trkpt lat="47.525826" lon="1.7271945">
        <ele>123.0</ele>
        <time>2022-03-31T08:33:18Z</time>
      </trkpt>
      <trkpt lat="47.52583" lon="1.7271785">
        <ele>123.0</ele>
        <time>2022-03-31T08:33:19Z</time>
      </trkpt>
      <trkpt lat="47.525833" lon="1.7271634">
        <ele>122.0</ele>
        <time>2022-03-31T08:33:20Z</time>
      </trkpt>
      <trkpt lat="47.525833" lon="1.7271446">
        <ele>122.0</ele>
        <time>2022-03-31T08:33:21Z</time>
      </trkpt>
      <trkpt lat="47.525837" lon="1.7271258">
        <ele>122.0</ele>
        <time>2022-03-31T08:33:22Z</time>
      </trkpt>
      <trkpt lat="47.52584" lon="1.727107">
        <ele>122.0</ele>
        <time>2022-03-31T08:33:23Z</time>
      </trkpt>
      <trkpt lat="47.52584" lon="1.7270842">
        <ele>122.0</ele>
        <time>2022-03-31T08:33:24Z</time>
      </trkpt>
      <trkpt lat="47.525845" lon="1.7270659">
        <ele>122.0</ele>
        <time>2022-03-31T08:33:25Z</time>
      </trkpt>
      <trkpt lat="47.52585" lon="1.7270503">
        <ele>122.0</ele>
        <time>2022-03-31T08:33:26Z</time>
      </trkpt>
      <trkpt lat="47.525856" lon="1.7270324">
        <ele>121.0</ele>
        <time>2022-03-31T08:33:27Z</time>
      </trkpt>
      <trkpt lat="47.52586" lon="1.7270144">
        <ele>121.0</ele>
        <time>2022-03-31T08:33:28Z</time>
      </trkpt>
      <trkpt lat="47.525864" lon="1.7269988">
        <ele>121.0</ele>
        <time>2022-03-31T08:33:29Z</time>
      </trkpt>
      <trkpt lat="47.52587" lon="1.7269814">
        <ele>121.0</ele>
        <time>2022-03-31T08:33:30Z</time>
      </trkpt>
      <trkpt lat="47.52587" lon="1.7269634">
        <ele>121.0</ele>
        <time>2022-03-31T08:33:31Z</time>
      </trkpt>
      <trkpt lat="47.525875" lon="1.7269495">
        <ele>121.0</ele>
        <time>2022-03-31T08:33:32Z</time>
      </trkpt>
      <trkpt lat="47.525883" lon="1.7269351">
        <ele>120.0</ele>
        <time>2022-03-31T08:33:33Z</time>
      </trkpt>
      <trkpt lat="47.525887" lon="1.7269111">
        <ele>121.0</ele>
        <time>2022-03-31T08:33:34Z</time>
      </trkpt>
      <trkpt lat="47.52589" lon="1.726889">
        <ele>121.0</ele>
        <time>2022-03-31T08:33:35Z</time>
      </trkpt>
      <trkpt lat="47.525894" lon="1.7268652">
        <ele>121.0</ele>
        <time>2022-03-31T08:33:36Z</time>
      </trkpt>
      <trkpt lat="47.525894" lon="1.7268461">
        <ele>121.0</ele>
        <time>2022-03-31T08:33:37Z</time>
      </trkpt>
      <trkpt lat="47.525898" lon="1.7268263">
        <ele>121.0</ele>
        <time>2022-03-31T08:33:38Z</time>
      </trkpt>
      <trkpt lat="47.525898" lon="1.7268044">
        <ele>122.0</ele>
        <time>2022-03-31T08:33:39Z</time>
      </trkpt>
      <trkpt lat="47.5259" lon="1.7267867">
        <ele>121.0</ele>
        <time>2022-03-31T08:33:40Z</time>
      </trkpt>
      <trkpt lat="47.525906" lon="1.7267712">
        <ele>121.0</ele>
        <time>2022-03-31T08:33:41Z</time>
      </trkpt>
      <trkpt lat="47.52591" lon="1.7267545">
        <ele>121.0</ele>
        <time>2022-03-31T08:33:42Z</time>
      </trkpt>
      <trkpt lat="47.52591" lon="1.7267354">
        <ele>121.0</ele>
        <time>2022-03-31T08:33:43Z</time>
      </trkpt>
      <trkpt lat="47.525913" lon="1.7267152">
        <ele>121.0</ele>
        <time>2022-03-31T08:33:44Z</time>
      </trkpt>
      <trkpt lat="47.525917" lon="1.726697">
        <ele>121.0</ele>
        <time>2022-03-31T08:33:45Z</time>
      </trkpt>
      <trkpt lat="47.52592" lon="1.7266777">
        <ele>121.0</ele>
        <time>2022-03-31T08:33:46Z</time>
      </trkpt>
      <trkpt lat="47.525925" lon="1.7266583">
        <ele>120.0</ele>
        <time>2022-03-31T08:33:47Z</time>
      </trkpt>
      <trkpt lat="47.525932" lon="1.7266395">
        <ele>120.0</ele>
        <time>2022-03-31T08:33:48Z</time>
      </trkpt>
      <trkpt lat="47.525936" lon="1.7266237">
        <ele>120.0</ele>
        <time>2022-03-31T08:33:49Z</time>
      </trkpt>
      <trkpt lat="47.52594" lon="1.7266036">
        <ele>119.0</ele>
        <time>2022-03-31T08:33:50Z</time>
      </trkpt>
      <trkpt lat="47.525944" lon="1.7265854">
        <ele>119.0</ele>
        <time>2022-03-31T08:33:51Z</time>
      </trkpt>
      <trkpt lat="47.525948" lon="1.7265706">
        <ele>119.0</ele>
        <time>2022-03-31T08:33:52Z</time>
      </trkpt>
      <trkpt lat="47.52595" lon="1.7265592">
        <ele>119.0</ele>
        <time>2022-03-31T08:33:53Z</time>
      </trkpt>
      <trkpt lat="47.525955" lon="1.7265455">
        <ele>119.0</ele>
        <time>2022-03-31T08:33:54Z</time>
      </trkpt>
      <trkpt lat="47.525955" lon="1.7265242">
        <ele>119.0</ele>
        <time>2022-03-31T08:33:55Z</time>
      </trkpt>
      <trkpt lat="47.52596" lon="1.7265066">
        <ele>119.0</ele>
        <time>2022-03-31T08:33:56Z</time>
      </trkpt>
      <trkpt lat="47.525963" lon="1.7264891">
        <ele>119.0</ele>
        <time>2022-03-31T08:33:57Z</time>
      </trkpt>
      <trkpt lat="47.525967" lon="1.7264718">
        <ele>119.0</ele>
        <time>2022-03-31T08:33:58Z</time>
      </trkpt>
      <trkpt lat="47.52597" lon="1.7264503">
        <ele>119.0</ele>
        <time>2022-03-31T08:33:59Z</time>
      </trkpt>
      <trkpt lat="47.52597" lon="1.7264265">
        <ele>118.0</ele>
        <time>2022-03-31T08:34:00Z</time>
      </trkpt>
      <trkpt lat="47.525974" lon="1.7264059">
        <ele>118.0</ele>
        <time>2022-03-31T08:34:01Z</time>
      </trkpt>
      <trkpt lat="47.525974" lon="1.7263877">
        <ele>118.0</ele>
        <time>2022-03-31T08:34:02Z</time>
      </trkpt>
      <trkpt lat="47.52598" lon="1.7263707">
        <ele>118.0</ele>
        <time>2022-03-31T08:34:03Z</time>
      </trkpt>
      <trkpt lat="47.52599" lon="1.7263535">
        <ele>118.0</ele>
        <time>2022-03-31T08:34:04Z</time>
      </trkpt>
      <trkpt lat="47.525993" lon="1.7263383">
        <ele>118.0</ele>
        <time>2022-03-31T08:34:05Z</time>
      </trkpt>
      <trkpt lat="47.525997" lon="1.7263272">
        <ele>118.0</ele>
        <time>2022-03-31T08:34:06Z</time>
      </trkpt>
      <trkpt lat="47.526" lon="1.7263103">
        <ele>118.0</ele>
        <time>2022-03-31T08:34:07Z</time>
      </trkpt>
      <trkpt lat="47.526005" lon="1.72629">
        <ele>118.0</ele>
        <time>2022-03-31T08:34:08Z</time>
      </trkpt>
      <trkpt lat="47.52601" lon="1.7262703">
        <ele>118.0</ele>
        <time>2022-03-31T08:34:09Z</time>
      </trkpt>
      <trkpt lat="47.526012" lon="1.7262566">
        <ele>118.0</ele>
        <time>2022-03-31T08:34:10Z</time>
      </trkpt>
      <trkpt lat="47.52602" lon="1.7262352">
        <ele>118.0</ele>
        <time>2022-03-31T08:34:11Z</time>
      </trkpt>
      <trkpt lat="47.526028" lon="1.7262216">
        <ele>118.0</ele>
        <time>2022-03-31T08:34:12Z</time>
      </trkpt>
      <trkpt lat="47.52603" lon="1.7262094">
        <ele>118.0</ele>
        <time>2022-03-31T08:34:13Z</time>
      </trkpt>
      <trkpt lat="47.526035" lon="1.7261978">
        <ele>118.0</ele>
        <time>2022-03-31T08:34:14Z</time>
      </trkpt>
      <trkpt lat="47.52604" lon="1.7261871">
        <ele>117.0</ele>
        <time>2022-03-31T08:34:15Z</time>
      </trkpt>
      <trkpt lat="47.526043" lon="1.7261716">
        <ele>117.0</ele>
        <time>2022-03-31T08:34:16Z</time>
      </trkpt>
      <trkpt lat="47.526043" lon="1.7261564">
        <ele>117.0</ele>
        <time>2022-03-31T08:34:17Z</time>
      </trkpt>
      <trkpt lat="47.526043" lon="1.7261425">
        <ele>117.0</ele>
        <time>2022-03-31T08:34:18Z</time>
      </trkpt>
      <trkpt lat="47.526047" lon="1.7261301">
        <ele>117.0</ele>
        <time>2022-03-31T08:34:19Z</time>
      </trkpt>
      <trkpt lat="47.52605" lon="1.7261115">
        <ele>117.0</ele>
        <time>2022-03-31T08:34:20Z</time>
      </trkpt>
      <trkpt lat="47.526054" lon="1.7260953">
        <ele>117.0</ele>
        <time>2022-03-31T08:34:21Z</time>
      </trkpt>
      <trkpt lat="47.52606" lon="1.7260787">
        <ele>117.0</ele>
        <time>2022-03-31T08:34:22Z</time>
      </trkpt>
      <trkpt lat="47.526062" lon="1.7260605">
        <ele>117.0</ele>
        <time>2022-03-31T08:34:23Z</time>
      </trkpt>
      <trkpt lat="47.526066" lon="1.7260394">
        <ele>117.0</ele>
        <time>2022-03-31T08:34:24Z</time>
      </trkpt>
      <trkpt lat="47.52607" lon="1.726027">
        <ele>117.0</ele>
        <time>2022-03-31T08:34:25Z</time>
      </trkpt>
      <trkpt lat="47.526077" lon="1.7260163">
        <ele>117.0</ele>
        <time>2022-03-31T08:34:26Z</time>
      </trkpt>
      <trkpt lat="47.52608" lon="1.7260051">
        <ele>117.0</ele>
        <time>2022-03-31T08:34:27Z</time>
      </trkpt>
      <trkpt lat="47.526085" lon="1.7259943">
        <ele>117.0</ele>
        <time>2022-03-31T08:34:28Z</time>
      </trkpt>
      <trkpt lat="47.52609" lon="1.7259785">
        <ele>117.0</ele>
        <time>2022-03-31T08:34:29Z</time>
      </trkpt>
      <trkpt lat="47.52609" lon="1.7259597">
        <ele>117.0</ele>
        <time>2022-03-31T08:34:30Z</time>
      </trkpt>
      <trkpt lat="47.52609" lon="1.7259398">
        <ele>117.0</ele>
        <time>2022-03-31T08:34:31Z</time>
      </trkpt>
      <trkpt lat="47.526093" lon="1.7259197">
        <ele>117.0</ele>
        <time>2022-03-31T08:34:32Z</time>
      </trkpt>
      <trkpt lat="47.526093" lon="1.7259046">
        <ele>117.0</ele>
        <time>2022-03-31T08:34:33Z</time>
      </trkpt>
      <trkpt lat="47.526096" lon="1.7258867">
        <ele>117.0</ele>
        <time>2022-03-31T08:34:34Z</time>
      </trkpt>
      <trkpt lat="47.526096" lon="1.7258621">
        <ele>116.0</ele>
        <time>2022-03-31T08:34:35Z</time>
      </trkpt>
      <trkpt lat="47.5261" lon="1.7258432">
        <ele>116.0</ele>
        <time>2022-03-31T08:34:36Z</time>
      </trkpt>
      <trkpt lat="47.526108" lon="1.7258258">
        <ele>116.0</ele>
        <time>2022-03-31T08:34:37Z</time>
      </trkpt>
      <trkpt lat="47.526115" lon="1.7258121">
        <ele>116.0</ele>
        <time>2022-03-31T08:34:38Z</time>
      </trkpt>
      <trkpt lat="47.526123" lon="1.7257973">
        <ele>116.0</ele>
        <time>2022-03-31T08:34:39Z</time>
      </trkpt>
      <trkpt lat="47.52613" lon="1.7257792">
        <ele>115.0</ele>
        <time>2022-03-31T08:34:40Z</time>
      </trkpt>
      <trkpt lat="47.526134" lon="1.7257673">
        <ele>115.0</ele>
        <time>2022-03-31T08:34:41Z</time>
      </trkpt>
      <trkpt lat="47.52614" lon="1.7257532">
        <ele>115.0</ele>
        <time>2022-03-31T08:34:42Z</time>
      </trkpt>
      <trkpt lat="47.52614" lon="1.7257357">
        <ele>115.0</ele>
        <time>2022-03-31T08:34:43Z</time>
      </trkpt>
      <trkpt lat="47.526134" lon="1.7257159">
        <ele>114.0</ele>
        <time>2022-03-31T08:34:44Z</time>
      </trkpt>
      <trkpt lat="47.52614" lon="1.7256917">
        <ele>114.0</ele>
        <time>2022-03-31T08:34:45Z</time>
      </trkpt>
      <trkpt lat="47.526146" lon="1.7256728">
        <ele>114.0</ele>
        <time>2022-03-31T08:34:46Z</time>
      </trkpt>
      <trkpt lat="47.526154" lon="1.7256546">
        <ele>113.0</ele>
        <time>2022-03-31T08:34:47Z</time>
      </trkpt>
      <trkpt lat="47.52616" lon="1.7256393">
        <ele>113.0</ele>
        <time>2022-03-31T08:34:48Z</time>
      </trkpt>
      <trkpt lat="47.526165" lon="1.7256242">
        <ele>113.0</ele>
        <time>2022-03-31T08:34:49Z</time>
      </trkpt>
      <trkpt lat="47.526173" lon="1.7256081">
        <ele>113.0</ele>
        <time>2022-03-31T08:34:50Z</time>
      </trkpt>
      <trkpt lat="47.526176" lon="1.7255876">
        <ele>112.0</ele>
        <time>2022-03-31T08:34:51Z</time>
      </trkpt>
      <trkpt lat="47.52618" lon="1.7255718">
        <ele>112.0</ele>
        <time>2022-03-31T08:34:52Z</time>
      </trkpt>
      <trkpt lat="47.526184" lon="1.7255595">
        <ele>112.0</ele>
        <time>2022-03-31T08:34:53Z</time>
      </trkpt>
      <trkpt lat="47.526188" lon="1.7255431">
        <ele>112.0</ele>
        <time>2022-03-31T08:34:54Z</time>
      </trkpt>
      <trkpt lat="47.526196" lon="1.7255254">
        <ele>111.0</ele>
        <time>2022-03-31T08:34:55Z</time>
      </trkpt>
      <trkpt lat="47.526203" lon="1.7255104">
        <ele>111.0</ele>
        <time>2022-03-31T08:34:56Z</time>
      </trkpt>
      <trkpt lat="47.52621" lon="1.7254944">
        <ele>111.0</ele>
        <time>2022-03-31T08:34:57Z</time>
      </trkpt>
      <trkpt lat="47.526215" lon="1.7254742">
        <ele>110.0</ele>
        <time>2022-03-31T08:34:58Z</time>
      </trkpt>
      <trkpt lat="47.52622" lon="1.7254604">
        <ele>110.0</ele>
        <time>2022-03-31T08:34:59Z</time>
      </trkpt>
      <trkpt lat="47.526226" lon="1.7254452">
        <ele>110.0</ele>
        <time>2022-03-31T08:35:00Z</time>
      </trkpt>
      <trkpt lat="47.52623" lon="1.7254261">
        <ele>110.0</ele>
        <time>2022-03-31T08:35:01Z</time>
      </trkpt>
      <trkpt lat="47.526234" lon="1.7254109">
        <ele>110.0</ele>
        <time>2022-03-31T08:35:02Z</time>
      </trkpt>
      <trkpt lat="47.526234" lon="1.7253963">
        <ele>110.0</ele>
        <time>2022-03-31T08:35:03Z</time>
      </trkpt>
      <trkpt lat="47.526234" lon="1.725385">
        <ele>110.0</ele>
        <time>2022-03-31T08:35:04Z</time>
      </trkpt>
      <trkpt lat="47.526234" lon="1.7253737">
        <ele>110.0</ele>
        <time>2022-03-31T08:35:05Z</time>
      </trkpt>
      <trkpt lat="47.526237" lon="1.7253591">
        <ele>110.0</ele>
        <time>2022-03-31T08:35:06Z</time>
      </trkpt>
      <trkpt lat="47.52624" lon="1.7253451">
        <ele>110.0</ele>
        <time>2022-03-31T08:35:07Z</time>
      </trkpt>
      <trkpt lat="47.52625" lon="1.7253302">
        <ele>110.0</ele>
        <time>2022-03-31T08:35:08Z</time>
      </trkpt>
      <trkpt lat="47.526253" lon="1.7253195">
        <ele>109.0</ele>
        <time>2022-03-31T08:35:09Z</time>
      </trkpt>
      <trkpt lat="47.526253" lon="1.7253103">
        <ele>109.0</ele>
        <time>2022-03-31T08:35:10Z</time>
      </trkpt>
      <trkpt lat="47.526253" lon="1.7252944">
        <ele>109.0</ele>
        <time>2022-03-31T08:35:11Z</time>
      </trkpt>
      <trkpt lat="47.526253" lon="1.7252784">
        <ele>109.0</ele>
        <time>2022-03-31T08:35:12Z</time>
      </trkpt>
      <trkpt lat="47.526257" lon="1.7252613">
        <ele>109.0</ele>
        <time>2022-03-31T08:35:13Z</time>
      </trkpt>
      <trkpt lat="47.52626" lon="1.725243">
        <ele>109.0</ele>
        <time>2022-03-31T08:35:14Z</time>
      </trkpt>
      <trkpt lat="47.526264" lon="1.7252264">
        <ele>109.0</ele>
        <time>2022-03-31T08:35:15Z</time>
      </trkpt>
      <trkpt lat="47.526268" lon="1.7252136">
        <ele>109.0</ele>
        <time>2022-03-31T08:35:16Z</time>
      </trkpt>
      <trkpt lat="47.52627" lon="1.7251959">
        <ele>109.0</ele>
        <time>2022-03-31T08:35:17Z</time>
      </trkpt>
      <trkpt lat="47.52628" lon="1.725178">
        <ele>108.0</ele>
        <time>2022-03-31T08:35:18Z</time>
      </trkpt>
      <trkpt lat="47.526287" lon="1.7251605">
        <ele>108.0</ele>
        <time>2022-03-31T08:35:19Z</time>
      </trkpt>
      <trkpt lat="47.526287" lon="1.7251405">
        <ele>107.0</ele>
        <time>2022-03-31T08:35:20Z</time>
      </trkpt>
      <trkpt lat="47.526287" lon="1.7251234">
        <ele>107.0</ele>
        <time>2022-03-31T08:35:21Z</time>
      </trkpt>
      <trkpt lat="47.52629" lon="1.7251081">
        <ele>107.0</ele>
        <time>2022-03-31T08:35:22Z</time>
      </trkpt>
      <trkpt lat="47.526295" lon="1.7250934">
        <ele>107.0</ele>
        <time>2022-03-31T08:35:23Z</time>
      </trkpt>
      <trkpt lat="47.526302" lon="1.7250766">
        <ele>106.0</ele>
        <time>2022-03-31T08:35:24Z</time>
      </trkpt>
      <trkpt lat="47.52631" lon="1.7250599">
        <ele>106.0</ele>
        <time>2022-03-31T08:35:25Z</time>
      </trkpt>
      <trkpt lat="47.526318" lon="1.7250413">
        <ele>106.0</ele>
        <time>2022-03-31T08:35:26Z</time>
      </trkpt>
      <trkpt lat="47.52632" lon="1.7250228">
        <ele>106.0</ele>
        <time>2022-03-31T08:35:27Z</time>
      </trkpt>
      <trkpt lat="47.526325" lon="1.7250049">
        <ele>106.0</ele>
        <time>2022-03-31T08:35:28Z</time>
      </trkpt>
      <trkpt lat="47.526337" lon="1.7249873">
        <ele>106.0</ele>
        <time>2022-03-31T08:35:29Z</time>
      </trkpt>
      <trkpt lat="47.526344" lon="1.7249715">
        <ele>106.0</ele>
        <time>2022-03-31T08:35:30Z</time>
      </trkpt>
      <trkpt lat="47.526352" lon="1.7249522">
        <ele>106.0</ele>
        <time>2022-03-31T08:35:31Z</time>
      </trkpt>
      <trkpt lat="47.52636" lon="1.7249382">
        <ele>106.0</ele>
        <time>2022-03-31T08:35:32Z</time>
      </trkpt>
      <trkpt lat="47.526363" lon="1.7249217">
        <ele>105.0</ele>
        <time>2022-03-31T08:35:33Z</time>
      </trkpt>
      <trkpt lat="47.52637" lon="1.7249085">
        <ele>105.0</ele>
        <time>2022-03-31T08:35:34Z</time>
      </trkpt>
      <trkpt lat="47.52638" lon="1.7248874">
        <ele>106.0</ele>
        <time>2022-03-31T08:35:35Z</time>
      </trkpt>
      <trkpt lat="47.526386" lon="1.7248721">
        <ele>106.0</ele>
        <time>2022-03-31T08:35:36Z</time>
      </trkpt>
      <trkpt lat="47.52639" lon="1.7248534">
        <ele>105.0</ele>
        <time>2022-03-31T08:35:37Z</time>
      </trkpt>
      <trkpt lat="47.526405" lon="1.7248402">
        <ele>105.0</ele>
        <time>2022-03-31T08:35:38Z</time>
      </trkpt>
      <trkpt lat="47.526413" lon="1.7248281">
        <ele>105.0</ele>
        <time>2022-03-31T08:35:39Z</time>
      </trkpt>
      <trkpt lat="47.526417" lon="1.7248101">
        <ele>105.0</ele>
        <time>2022-03-31T08:35:40Z</time>
      </trkpt>
      <trkpt lat="47.52642" lon="1.724788">
        <ele>105.0</ele>
        <time>2022-03-31T08:35:41Z</time>
      </trkpt>
      <trkpt lat="47.526424" lon="1.72477">
        <ele>105.0</ele>
        <time>2022-03-31T08:35:42Z</time>
      </trkpt>
      <trkpt lat="47.52643" lon="1.7247541">
        <ele>105.0</ele>
        <time>2022-03-31T08:35:43Z</time>
      </trkpt>
      <trkpt lat="47.526432" lon="1.724738">
        <ele>105.0</ele>
        <time>2022-03-31T08:35:44Z</time>
      </trkpt>
      <trkpt lat="47.526436" lon="1.7247212">
        <ele>105.0</ele>
        <time>2022-03-31T08:35:45Z</time>
      </trkpt>
      <trkpt lat="47.526443" lon="1.7247049">
        <ele>104.0</ele>
        <time>2022-03-31T08:35:46Z</time>
      </trkpt>
      <trkpt lat="47.52645" lon="1.7246871">
        <ele>104.0</ele>
        <time>2022-03-31T08:35:47Z</time>
      </trkpt>
      <trkpt lat="47.526463" lon="1.7246716">
        <ele>103.0</ele>
        <time>2022-03-31T08:35:48Z</time>
      </trkpt>
      <trkpt lat="47.526466" lon="1.7246585">
        <ele>103.0</ele>
        <time>2022-03-31T08:35:49Z</time>
      </trkpt>
      <trkpt lat="47.52647" lon="1.7246419">
        <ele>103.0</ele>
        <time>2022-03-31T08:35:50Z</time>
      </trkpt>
      <trkpt lat="47.52647" lon="1.7246277">
        <ele>103.0</ele>
        <time>2022-03-31T08:35:51Z</time>
      </trkpt>
      <trkpt lat="47.526474" lon="1.7246094">
        <ele>103.0</ele>
        <time>2022-03-31T08:35:52Z</time>
      </trkpt>
      <trkpt lat="47.526478" lon="1.7245955">
        <ele>103.0</ele>
        <time>2022-03-31T08:35:53Z</time>
      </trkpt>
      <trkpt lat="47.526485" lon="1.7245783">
        <ele>103.0</ele>
        <time>2022-03-31T08:35:54Z</time>
      </trkpt>
      <trkpt lat="47.52649" lon="1.7245632">
        <ele>104.0</ele>
        <time>2022-03-31T08:35:55Z</time>
      </trkpt>
      <trkpt lat="47.52649" lon="1.7245467">
        <ele>104.0</ele>
        <time>2022-03-31T08:35:56Z</time>
      </trkpt>
      <trkpt lat="47.526493" lon="1.7245303">
        <ele>103.0</ele>
        <time>2022-03-31T08:35:57Z</time>
      </trkpt>
      <trkpt lat="47.526497" lon="1.7245075">
        <ele>104.0</ele>
        <time>2022-03-31T08:35:58Z</time>
      </trkpt>
      <trkpt lat="47.5265" lon="1.7244916">
        <ele>104.0</ele>
        <time>2022-03-31T08:35:59Z</time>
      </trkpt>
      <trkpt lat="47.526505" lon="1.7244747">
        <ele>104.0</ele>
        <time>2022-03-31T08:36:00Z</time>
      </trkpt>
      <trkpt lat="47.52651" lon="1.7244548">
        <ele>103.0</ele>
        <time>2022-03-31T08:36:01Z</time>
      </trkpt>
      <trkpt lat="47.52651" lon="1.7244414">
        <ele>103.0</ele>
        <time>2022-03-31T08:36:02Z</time>
      </trkpt>
      <trkpt lat="47.526512" lon="1.724422">
        <ele>103.0</ele>
        <time>2022-03-31T08:36:03Z</time>
      </trkpt>
      <trkpt lat="47.52652" lon="1.7244011">
        <ele>103.0</ele>
        <time>2022-03-31T08:36:04Z</time>
      </trkpt>
      <trkpt lat="47.526524" lon="1.7243798">
        <ele>103.0</ele>
        <time>2022-03-31T08:36:05Z</time>
      </trkpt>
      <trkpt lat="47.526524" lon="1.7243602">
        <ele>102.0</ele>
        <time>2022-03-31T08:36:06Z</time>
      </trkpt>
      <trkpt lat="47.526527" lon="1.7243397">
        <ele>101.0</ele>
        <time>2022-03-31T08:36:07Z</time>
      </trkpt>
      <trkpt lat="47.52653" lon="1.7243197">
        <ele>101.0</ele>
        <time>2022-03-31T08:36:08Z</time>
      </trkpt>
      <trkpt lat="47.526535" lon="1.7243009">
        <ele>101.0</ele>
        <time>2022-03-31T08:36:09Z</time>
      </trkpt>
      <trkpt lat="47.526535" lon="1.724289">
        <ele>101.0</ele>
        <time>2022-03-31T08:36:10Z</time>
      </trkpt>
      <trkpt lat="47.52654" lon="1.7242782">
        <ele>101.0</ele>
        <time>2022-03-31T08:36:11Z</time>
      </trkpt>
      <trkpt lat="47.526543" lon="1.7242666">
        <ele>101.0</ele>
        <time>2022-03-31T08:36:12Z</time>
      </trkpt>
      <trkpt lat="47.526546" lon="1.7242539">
        <ele>101.0</ele>
        <time>2022-03-31T08:36:13Z</time>
      </trkpt>
      <trkpt lat="47.52655" lon="1.7242374">
        <ele>100.0</ele>
        <time>2022-03-31T08:36:14Z</time>
      </trkpt>
      <trkpt lat="47.526558" lon="1.7242233">
        <ele>100.0</ele>
        <time>2022-03-31T08:36:15Z</time>
      </trkpt>
      <trkpt lat="47.526558" lon="1.724208">
        <ele>100.0</ele>
        <time>2022-03-31T08:36:16Z</time>
      </trkpt>
      <trkpt lat="47.52656" lon="1.7241907">
        <ele>100.0</ele>
        <time>2022-03-31T08:36:17Z</time>
      </trkpt>
      <trkpt lat="47.52656" lon="1.7241737">
        <ele>100.0</ele>
        <time>2022-03-31T08:36:18Z</time>
      </trkpt>
      <trkpt lat="47.526566" lon="1.7241608">
        <ele>100.0</ele>
        <time>2022-03-31T08:36:19Z</time>
      </trkpt>
      <trkpt lat="47.526566" lon="1.7241459">
        <ele>100.0</ele>
        <time>2022-03-31T08:36:20Z</time>
      </trkpt>
      <trkpt lat="47.526566" lon="1.7241334">
        <ele>101.0</ele>
        <time>2022-03-31T08:36:21Z</time>
      </trkpt>
      <trkpt lat="47.526566" lon="1.7241334">
        <ele>101.0</ele>
        <time>2022-03-31T08:36:22Z</time>
      </trkpt>
      <trkpt lat="47.52657" lon="1.7241038">
        <ele>100.0</ele>
        <time>2022-03-31T08:36:23Z</time>
      </trkpt>
      <trkpt lat="47.526573" lon="1.7240865">
        <ele>100.0</ele>
        <time>2022-03-31T08:36:24Z</time>
      </trkpt>
      <trkpt lat="47.526573" lon="1.7240653">
        <ele>100.0</ele>
        <time>2022-03-31T08:36:25Z</time>
      </trkpt>
      <trkpt lat="47.52657" lon="1.7240467">
        <ele>100.0</ele>
        <time>2022-03-31T08:36:26Z</time>
      </trkpt>
      <trkpt lat="47.52657" lon="1.7240281">
        <ele>100.0</ele>
        <time>2022-03-31T08:36:27Z</time>
      </trkpt>
      <trkpt lat="47.52657" lon="1.7240081">
        <ele>100.0</ele>
        <time>2022-03-31T08:36:28Z</time>
      </trkpt>
      <trkpt lat="47.526573" lon="1.7239897">
        <ele>100.0</ele>
        <time>2022-03-31T08:36:29Z</time>
      </trkpt>
      <trkpt lat="47.526573" lon="1.7239739">
        <ele>100.0</ele>
        <time>2022-03-31T08:36:30Z</time>
      </trkpt>
      <trkpt lat="47.526577" lon="1.7239604">
        <ele>100.0</ele>
        <time>2022-03-31T08:36:31Z</time>
      </trkpt>
      <trkpt lat="47.526577" lon="1.7239424">
        <ele>100.0</ele>
        <time>2022-03-31T08:36:32Z</time>
      </trkpt>
      <trkpt lat="47.52658" lon="1.7239227">
        <ele>100.0</ele>
        <time>2022-03-31T08:36:33Z</time>
      </trkpt>
      <trkpt lat="47.52658" lon="1.7239038">
        <ele>100.0</ele>
        <time>2022-03-31T08:36:34Z</time>
      </trkpt>
      <trkpt lat="47.52658" lon="1.7238867">
        <ele>100.0</ele>
        <time>2022-03-31T08:36:35Z</time>
      </trkpt>
      <trkpt lat="47.52658" lon="1.7238647">
        <ele>100.0</ele>
        <time>2022-03-31T08:36:36Z</time>
      </trkpt>
      <trkpt lat="47.52659" lon="1.7238452">
        <ele>100.0</ele>
        <time>2022-03-31T08:36:37Z</time>
      </trkpt>
      <trkpt lat="47.526596" lon="1.7238268">
        <ele>100.0</ele>
        <time>2022-03-31T08:36:38Z</time>
      </trkpt>
      <trkpt lat="47.5266" lon="1.7238076">
        <ele>100.0</ele>
        <time>2022-03-31T08:36:39Z</time>
      </trkpt>
      <trkpt lat="47.526604" lon="1.7237897">
        <ele>99.0</ele>
        <time>2022-03-31T08:36:40Z</time>
      </trkpt>
      <trkpt lat="47.526608" lon="1.7237728">
        <ele>100.0</ele>
        <time>2022-03-31T08:36:41Z</time>
      </trkpt>
      <trkpt lat="47.52661" lon="1.7237532">
        <ele>99.0</ele>
        <time>2022-03-31T08:36:42Z</time>
      </trkpt>
      <trkpt lat="47.526615" lon="1.7237377">
        <ele>99.0</ele>
        <time>2022-03-31T08:36:43Z</time>
      </trkpt>
      <trkpt lat="47.526615" lon="1.7237196">
        <ele>99.0</ele>
        <time>2022-03-31T08:36:44Z</time>
      </trkpt>
      <trkpt lat="47.52662" lon="1.7237045">
        <ele>99.0</ele>
        <time>2022-03-31T08:36:45Z</time>
      </trkpt>
      <trkpt lat="47.52662" lon="1.723685">
        <ele>99.0</ele>
        <time>2022-03-31T08:36:46Z</time>
      </trkpt>
      <trkpt lat="47.526615" lon="1.7236619">
        <ele>99.0</ele>
        <time>2022-03-31T08:36:47Z</time>
      </trkpt>
      <trkpt lat="47.526615" lon="1.7236428">
        <ele>99.0</ele>
        <time>2022-03-31T08:36:48Z</time>
      </trkpt>
      <trkpt lat="47.52662" lon="1.7236252">
        <ele>99.0</ele>
        <time>2022-03-31T08:36:49Z</time>
      </trkpt>
      <trkpt lat="47.526623" lon="1.7236112">
        <ele>99.0</ele>
        <time>2022-03-31T08:36:50Z</time>
      </trkpt>
      <trkpt lat="47.526615" lon="1.7235974">
        <ele>99.0</ele>
        <time>2022-03-31T08:36:51Z</time>
      </trkpt>
      <trkpt lat="47.526615" lon="1.723582">
        <ele>100.0</ele>
        <time>2022-03-31T08:36:52Z</time>
      </trkpt>
      <trkpt lat="47.526615" lon="1.7235639">
        <ele>100.0</ele>
        <time>2022-03-31T08:36:53Z</time>
      </trkpt>
      <trkpt lat="47.52661" lon="1.7235494">
        <ele>100.0</ele>
        <time>2022-03-31T08:36:54Z</time>
      </trkpt>
      <trkpt lat="47.526608" lon="1.7235373">
        <ele>100.0</ele>
        <time>2022-03-31T08:36:55Z</time>
      </trkpt>
      <trkpt lat="47.526608" lon="1.7235227">
        <ele>100.0</ele>
        <time>2022-03-31T08:36:56Z</time>
      </trkpt>
      <trkpt lat="47.526604" lon="1.7235066">
        <ele>100.0</ele>
        <time>2022-03-31T08:36:57Z</time>
      </trkpt>
      <trkpt lat="47.526596" lon="1.7234906">
        <ele>101.0</ele>
        <time>2022-03-31T08:36:58Z</time>
      </trkpt>
      <trkpt lat="47.52659" lon="1.7234695">
        <ele>101.0</ele>
        <time>2022-03-31T08:36:59Z</time>
      </trkpt>
      <trkpt lat="47.52658" lon="1.7234462">
        <ele>101.0</ele>
        <time>2022-03-31T08:37:00Z</time>
      </trkpt>
      <trkpt lat="47.52658" lon="1.7234291">
        <ele>101.0</ele>
        <time>2022-03-31T08:37:01Z</time>
      </trkpt>
      <trkpt lat="47.526573" lon="1.7234106">
        <ele>102.0</ele>
        <time>2022-03-31T08:37:02Z</time>
      </trkpt>
      <trkpt lat="47.526573" lon="1.7233926">
        <ele>102.0</ele>
        <time>2022-03-31T08:37:03Z</time>
      </trkpt>
      <trkpt lat="47.52657" lon="1.7233747">
        <ele>102.0</ele>
        <time>2022-03-31T08:37:04Z</time>
      </trkpt>
      <trkpt lat="47.52657" lon="1.7233596">
        <ele>102.0</ele>
        <time>2022-03-31T08:37:05Z</time>
      </trkpt>
      <trkpt lat="47.52657" lon="1.7233421">
        <ele>102.0</ele>
        <time>2022-03-31T08:37:06Z</time>
      </trkpt>
      <trkpt lat="47.52657" lon="1.7233173">
        <ele>102.0</ele>
        <time>2022-03-31T08:37:07Z</time>
      </trkpt>
      <trkpt lat="47.526573" lon="1.7232928">
        <ele>102.0</ele>
        <time>2022-03-31T08:37:08Z</time>
      </trkpt>
      <trkpt lat="47.526573" lon="1.7232697">
        <ele>102.0</ele>
        <time>2022-03-31T08:37:09Z</time>
      </trkpt>
      <trkpt lat="47.526573" lon="1.7232455">
        <ele>102.0</ele>
        <time>2022-03-31T08:37:10Z</time>
      </trkpt>
      <trkpt lat="47.526573" lon="1.7232175">
        <ele>103.0</ele>
        <time>2022-03-31T08:37:11Z</time>
      </trkpt>
      <trkpt lat="47.526573" lon="1.72319">
        <ele>104.0</ele>
        <time>2022-03-31T08:37:12Z</time>
      </trkpt>
      <trkpt lat="47.526573" lon="1.7231661">
        <ele>105.0</ele>
        <time>2022-03-31T08:37:13Z</time>
      </trkpt>
      <trkpt lat="47.526573" lon="1.7231407">
        <ele>106.0</ele>
        <time>2022-03-31T08:37:14Z</time>
      </trkpt>
      <trkpt lat="47.526577" lon="1.7231175">
        <ele>106.0</ele>
        <time>2022-03-31T08:37:15Z</time>
      </trkpt>
      <trkpt lat="47.52658" lon="1.7230914">
        <ele>106.0</ele>
        <time>2022-03-31T08:37:16Z</time>
      </trkpt>
      <trkpt lat="47.52658" lon="1.7230636">
        <ele>107.0</ele>
        <time>2022-03-31T08:37:17Z</time>
      </trkpt>
      <trkpt lat="47.52658" lon="1.7230402">
        <ele>108.0</ele>
        <time>2022-03-31T08:37:18Z</time>
      </trkpt>
      <trkpt lat="47.526585" lon="1.72302">
        <ele>108.0</ele>
        <time>2022-03-31T08:37:19Z</time>
      </trkpt>
      <trkpt lat="47.52658" lon="1.7229929">
        <ele>108.0</ele>
        <time>2022-03-31T08:37:20Z</time>
      </trkpt>
      <trkpt lat="47.52658" lon="1.7229705">
        <ele>108.0</ele>
        <time>2022-03-31T08:37:21Z</time>
      </trkpt>
      <trkpt lat="47.526585" lon="1.7229558">
        <ele>108.0</ele>
        <time>2022-03-31T08:37:22Z</time>
      </trkpt>
      <trkpt lat="47.526585" lon="1.7229389">
        <ele>108.0</ele>
        <time>2022-03-31T08:37:23Z</time>
      </trkpt>
      <trkpt lat="47.52659" lon="1.7229226">
        <ele>109.0</ele>
        <time>2022-03-31T08:37:24Z</time>
      </trkpt>
      <trkpt lat="47.526592" lon="1.722909">
        <ele>109.0</ele>
        <time>2022-03-31T08:37:25Z</time>
      </trkpt>
      <trkpt lat="47.526596" lon="1.7228955">
        <ele>108.0</ele>
        <time>2022-03-31T08:37:26Z</time>
      </trkpt>
      <trkpt lat="47.526596" lon="1.7228792">
        <ele>108.0</ele>
        <time>2022-03-31T08:37:27Z</time>
      </trkpt>
      <trkpt lat="47.52659" lon="1.7228595">
        <ele>109.0</ele>
        <time>2022-03-31T08:37:28Z</time>
      </trkpt>
      <trkpt lat="47.52659" lon="1.7228448">
        <ele>109.0</ele>
        <time>2022-03-31T08:37:29Z</time>
      </trkpt>
      <trkpt lat="47.526592" lon="1.7228318">
        <ele>109.0</ele>
        <time>2022-03-31T08:37:30Z</time>
      </trkpt>
      <trkpt lat="47.526596" lon="1.7228199">
        <ele>109.0</ele>
        <time>2022-03-31T08:37:31Z</time>
      </trkpt>
      <trkpt lat="47.526596" lon="1.7228199">
        <ele>109.0</ele>
        <time>2022-03-31T08:37:32Z</time>
      </trkpt>
      <trkpt lat="47.526596" lon="1.7228199">
        <ele>109.0</ele>
        <time>2022-03-31T08:37:33Z</time>
      </trkpt>
      <trkpt lat="47.5266" lon="1.7227798">
        <ele>109.0</ele>
        <time>2022-03-31T08:37:34Z</time>
      </trkpt>
      <trkpt lat="47.526596" lon="1.7227567">
        <ele>109.0</ele>
        <time>2022-03-31T08:37:35Z</time>
      </trkpt>
      <trkpt lat="47.526596" lon="1.7227354">
        <ele>109.0</ele>
        <time>2022-03-31T08:37:36Z</time>
      </trkpt>
      <trkpt lat="47.526596" lon="1.722718">
        <ele>110.0</ele>
        <time>2022-03-31T08:37:37Z</time>
      </trkpt>
      <trkpt lat="47.526596" lon="1.7227002">
        <ele>110.0</ele>
        <time>2022-03-31T08:37:38Z</time>
      </trkpt>
      <trkpt lat="47.5266" lon="1.7226837">
        <ele>110.0</ele>
        <time>2022-03-31T08:37:39Z</time>
      </trkpt>
      <trkpt lat="47.5266" lon="1.7226616">
        <ele>110.0</ele>
        <time>2022-03-31T08:37:40Z</time>
      </trkpt>
      <trkpt lat="47.526604" lon="1.7226489">
        <ele>110.0</ele>
        <time>2022-03-31T08:37:41Z</time>
      </trkpt>
      <trkpt lat="47.526604" lon="1.7226313">
        <ele>110.0</ele>
        <time>2022-03-31T08:37:42Z</time>
      </trkpt>
      <trkpt lat="47.52661" lon="1.7226175">
        <ele>110.0</ele>
        <time>2022-03-31T08:37:43Z</time>
      </trkpt>
      <trkpt lat="47.526615" lon="1.722604">
        <ele>110.0</ele>
        <time>2022-03-31T08:37:44Z</time>
      </trkpt>
      <trkpt lat="47.52662" lon="1.7225811">
        <ele>109.0</ele>
        <time>2022-03-31T08:37:45Z</time>
      </trkpt>
      <trkpt lat="47.526627" lon="1.7225585">
        <ele>109.0</ele>
        <time>2022-03-31T08:37:46Z</time>
      </trkpt>
      <trkpt lat="47.52663" lon="1.7225362">
        <ele>109.0</ele>
        <time>2022-03-31T08:37:47Z</time>
      </trkpt>
      <trkpt lat="47.526638" lon="1.7225153">
        <ele>109.0</ele>
        <time>2022-03-31T08:37:48Z</time>
      </trkpt>
      <trkpt lat="47.52664" lon="1.7224936">
        <ele>108.0</ele>
        <time>2022-03-31T08:37:49Z</time>
      </trkpt>
      <trkpt lat="47.526646" lon="1.7224716">
        <ele>108.0</ele>
        <time>2022-03-31T08:37:50Z</time>
      </trkpt>
      <trkpt lat="47.52665" lon="1.7224506">
        <ele>108.0</ele>
        <time>2022-03-31T08:37:51Z</time>
      </trkpt>
      <trkpt lat="47.526653" lon="1.7224315">
        <ele>108.0</ele>
        <time>2022-03-31T08:37:52Z</time>
      </trkpt>
      <trkpt lat="47.526665" lon="1.7224137">
        <ele>108.0</ele>
        <time>2022-03-31T08:37:53Z</time>
      </trkpt>
      <trkpt lat="47.526665" lon="1.7224">
        <ele>107.0</ele>
        <time>2022-03-31T08:37:54Z</time>
      </trkpt>
      <trkpt lat="47.526665" lon="1.722384">
        <ele>107.0</ele>
        <time>2022-03-31T08:37:55Z</time>
      </trkpt>
      <trkpt lat="47.52667" lon="1.7223643">
        <ele>107.0</ele>
        <time>2022-03-31T08:37:56Z</time>
      </trkpt>
      <trkpt lat="47.526672" lon="1.7223425">
        <ele>107.0</ele>
        <time>2022-03-31T08:37:57Z</time>
      </trkpt>
      <trkpt lat="47.526676" lon="1.722327">
        <ele>107.0</ele>
        <time>2022-03-31T08:37:58Z</time>
      </trkpt>
      <trkpt lat="47.526676" lon="1.7223083">
        <ele>107.0</ele>
        <time>2022-03-31T08:37:59Z</time>
      </trkpt>
      <trkpt lat="47.52668" lon="1.7222905">
        <ele>107.0</ele>
        <time>2022-03-31T08:38:00Z</time>
      </trkpt>
      <trkpt lat="47.52668" lon="1.7222764">
        <ele>107.0</ele>
        <time>2022-03-31T08:38:01Z</time>
      </trkpt>
      <trkpt lat="47.52668" lon="1.722257">
        <ele>107.0</ele>
        <time>2022-03-31T08:38:02Z</time>
      </trkpt>
      <trkpt lat="47.526684" lon="1.7222371">
        <ele>107.0</ele>
        <time>2022-03-31T08:38:03Z</time>
      </trkpt>
      <trkpt lat="47.526688" lon="1.7222205">
        <ele>107.0</ele>
        <time>2022-03-31T08:38:04Z</time>
      </trkpt>
      <trkpt lat="47.52669" lon="1.7222079">
        <ele>107.0</ele>
        <time>2022-03-31T08:38:05Z</time>
      </trkpt>
      <trkpt lat="47.526695" lon="1.7221903">
        <ele>107.0</ele>
        <time>2022-03-31T08:38:06Z</time>
      </trkpt>
      <trkpt lat="47.526695" lon="1.722174">
        <ele>107.0</ele>
        <time>2022-03-31T08:38:07Z</time>
      </trkpt>
      <trkpt lat="47.526695" lon="1.7221584">
        <ele>107.0</ele>
        <time>2022-03-31T08:38:08Z</time>
      </trkpt>
      <trkpt lat="47.526695" lon="1.7221413">
        <ele>107.0</ele>
        <time>2022-03-31T08:38:09Z</time>
      </trkpt>
      <trkpt lat="47.526695" lon="1.7221245">
        <ele>107.0</ele>
        <time>2022-03-31T08:38:10Z</time>
      </trkpt>
      <trkpt lat="47.52669" lon="1.7221078">
        <ele>108.0</ele>
        <time>2022-03-31T08:38:11Z</time>
      </trkpt>
      <trkpt lat="47.526695" lon="1.7220907">
        <ele>108.0</ele>
        <time>2022-03-31T08:38:12Z</time>
      </trkpt>
      <trkpt lat="47.526695" lon="1.7220709">
        <ele>107.0</ele>
        <time>2022-03-31T08:38:13Z</time>
      </trkpt>
      <trkpt lat="47.526703" lon="1.7220523">
        <ele>107.0</ele>
        <time>2022-03-31T08:38:14Z</time>
      </trkpt>
      <trkpt lat="47.52671" lon="1.7220361">
        <ele>107.0</ele>
        <time>2022-03-31T08:38:15Z</time>
      </trkpt>
      <trkpt lat="47.52672" lon="1.7220198">
        <ele>108.0</ele>
        <time>2022-03-31T08:38:16Z</time>
      </trkpt>
      <trkpt lat="47.526722" lon="1.7220068">
        <ele>108.0</ele>
        <time>2022-03-31T08:38:17Z</time>
      </trkpt>
      <trkpt lat="47.526726" lon="1.7219857">
        <ele>107.0</ele>
        <time>2022-03-31T08:38:18Z</time>
      </trkpt>
      <trkpt lat="47.526726" lon="1.7219688">
        <ele>107.0</ele>
        <time>2022-03-31T08:38:19Z</time>
      </trkpt>
      <trkpt lat="47.526726" lon="1.7219515">
        <ele>107.0</ele>
        <time>2022-03-31T08:38:20Z</time>
      </trkpt>
      <trkpt lat="47.526726" lon="1.7219337">
        <ele>107.0</ele>
        <time>2022-03-31T08:38:21Z</time>
      </trkpt>
      <trkpt lat="47.52673" lon="1.7219207">
        <ele>107.0</ele>
        <time>2022-03-31T08:38:22Z</time>
      </trkpt>
      <trkpt lat="47.526726" lon="1.7219043">
        <ele>108.0</ele>
        <time>2022-03-31T08:38:23Z</time>
      </trkpt>
      <trkpt lat="47.526726" lon="1.7218878">
        <ele>108.0</ele>
        <time>2022-03-31T08:38:24Z</time>
      </trkpt>
      <trkpt lat="47.52673" lon="1.7218689">
        <ele>107.0</ele>
        <time>2022-03-31T08:38:25Z</time>
      </trkpt>
      <trkpt lat="47.52673" lon="1.721851">
        <ele>107.0</ele>
        <time>2022-03-31T08:38:26Z</time>
      </trkpt>
      <trkpt lat="47.526733" lon="1.7218281">
        <ele>107.0</ele>
        <time>2022-03-31T08:38:27Z</time>
      </trkpt>
      <trkpt lat="47.526733" lon="1.7218091">
        <ele>108.0</ele>
        <time>2022-03-31T08:38:28Z</time>
      </trkpt>
      <trkpt lat="47.52673" lon="1.7217937">
        <ele>108.0</ele>
        <time>2022-03-31T08:38:29Z</time>
      </trkpt>
      <trkpt lat="47.526733" lon="1.7217728">
        <ele>108.0</ele>
        <time>2022-03-31T08:38:30Z</time>
      </trkpt>
      <trkpt lat="47.526733" lon="1.7217604">
        <ele>108.0</ele>
        <time>2022-03-31T08:38:31Z</time>
      </trkpt>
      <trkpt lat="47.526733" lon="1.7217424">
        <ele>108.0</ele>
        <time>2022-03-31T08:38:32Z</time>
      </trkpt>
      <trkpt lat="47.526737" lon="1.7217222">
        <ele>108.0</ele>
        <time>2022-03-31T08:38:33Z</time>
      </trkpt>
      <trkpt lat="47.52674" lon="1.7216998">
        <ele>108.0</ele>
        <time>2022-03-31T08:38:34Z</time>
      </trkpt>
      <trkpt lat="47.52674" lon="1.7216793">
        <ele>108.0</ele>
        <time>2022-03-31T08:38:35Z</time>
      </trkpt>
      <trkpt lat="47.52674" lon="1.7216569">
        <ele>108.0</ele>
        <time>2022-03-31T08:38:36Z</time>
      </trkpt>
      <trkpt lat="47.526737" lon="1.7216333">
        <ele>108.0</ele>
        <time>2022-03-31T08:38:37Z</time>
      </trkpt>
      <trkpt lat="47.526733" lon="1.7216094">
        <ele>108.0</ele>
        <time>2022-03-31T08:38:38Z</time>
      </trkpt>
      <trkpt lat="47.526733" lon="1.7215886">
        <ele>108.0</ele>
        <time>2022-03-31T08:38:39Z</time>
      </trkpt>
      <trkpt lat="47.526726" lon="1.7215704">
        <ele>108.0</ele>
        <time>2022-03-31T08:38:40Z</time>
      </trkpt>
      <trkpt lat="47.526726" lon="1.7215545">
        <ele>108.0</ele>
        <time>2022-03-31T08:38:41Z</time>
      </trkpt>
      <trkpt lat="47.526726" lon="1.7215368">
        <ele>108.0</ele>
        <time>2022-03-31T08:38:42Z</time>
      </trkpt>
      <trkpt lat="47.526722" lon="1.7215122">
        <ele>108.0</ele>
        <time>2022-03-31T08:38:43Z</time>
      </trkpt>
      <trkpt lat="47.52672" lon="1.7214953">
        <ele>108.0</ele>
        <time>2022-03-31T08:38:44Z</time>
      </trkpt>
      <trkpt lat="47.52672" lon="1.7214781">
        <ele>108.0</ele>
        <time>2022-03-31T08:38:45Z</time>
      </trkpt>
      <trkpt lat="47.52672" lon="1.7214572">
        <ele>108.0</ele>
        <time>2022-03-31T08:38:46Z</time>
      </trkpt>
      <trkpt lat="47.526714" lon="1.7214313">
        <ele>108.0</ele>
        <time>2022-03-31T08:38:47Z</time>
      </trkpt>
      <trkpt lat="47.52671" lon="1.7214091">
        <ele>108.0</ele>
        <time>2022-03-31T08:38:48Z</time>
      </trkpt>
      <trkpt lat="47.52671" lon="1.7213907">
        <ele>108.0</ele>
        <time>2022-03-31T08:38:49Z</time>
      </trkpt>
      <trkpt lat="47.52671" lon="1.7213693">
        <ele>108.0</ele>
        <time>2022-03-31T08:38:50Z</time>
      </trkpt>
      <trkpt lat="47.52671" lon="1.7213446">
        <ele>108.0</ele>
        <time>2022-03-31T08:38:51Z</time>
      </trkpt>
      <trkpt lat="47.526707" lon="1.7213264">
        <ele>108.0</ele>
        <time>2022-03-31T08:38:52Z</time>
      </trkpt>
      <trkpt lat="47.526703" lon="1.7213048">
        <ele>109.0</ele>
        <time>2022-03-31T08:38:53Z</time>
      </trkpt>
      <trkpt lat="47.5267" lon="1.7212832">
        <ele>109.0</ele>
        <time>2022-03-31T08:38:54Z</time>
      </trkpt>
      <trkpt lat="47.5267" lon="1.7212641">
        <ele>109.0</ele>
        <time>2022-03-31T08:38:55Z</time>
      </trkpt>
      <trkpt lat="47.5267" lon="1.7212465">
        <ele>109.0</ele>
        <time>2022-03-31T08:38:56Z</time>
      </trkpt>
      <trkpt lat="47.5267" lon="1.7212257">
        <ele>110.0</ele>
        <time>2022-03-31T08:38:57Z</time>
      </trkpt>
      <trkpt lat="47.526695" lon="1.7212027">
        <ele>110.0</ele>
        <time>2022-03-31T08:38:58Z</time>
      </trkpt>
      <trkpt lat="47.52669" lon="1.7211785">
        <ele>110.0</ele>
        <time>2022-03-31T08:38:59Z</time>
      </trkpt>
      <trkpt lat="47.526688" lon="1.721157">
        <ele>111.0</ele>
        <time>2022-03-31T08:39:00Z</time>
      </trkpt>
      <trkpt lat="47.526688" lon="1.721137">
        <ele>111.0</ele>
        <time>2022-03-31T08:39:01Z</time>
      </trkpt>
      <trkpt lat="47.526684" lon="1.7211181">
        <ele>111.0</ele>
        <time>2022-03-31T08:39:02Z</time>
      </trkpt>
      <trkpt lat="47.52668" lon="1.7210968">
        <ele>111.0</ele>
        <time>2022-03-31T08:39:03Z</time>
      </trkpt>
      <trkpt lat="47.52668" lon="1.7210772">
        <ele>111.0</ele>
        <time>2022-03-31T08:39:04Z</time>
      </trkpt>
      <trkpt lat="47.526672" lon="1.7210542">
        <ele>111.0</ele>
        <time>2022-03-31T08:39:05Z</time>
      </trkpt>
      <trkpt lat="47.526672" lon="1.7210312">
        <ele>112.0</ele>
        <time>2022-03-31T08:39:06Z</time>
      </trkpt>
      <trkpt lat="47.526672" lon="1.7210091">
        <ele>112.0</ele>
        <time>2022-03-31T08:39:07Z</time>
      </trkpt>
      <trkpt lat="47.526672" lon="1.7209896">
        <ele>112.0</ele>
        <time>2022-03-31T08:39:08Z</time>
      </trkpt>
      <trkpt lat="47.52667" lon="1.7209688">
        <ele>112.0</ele>
        <time>2022-03-31T08:39:09Z</time>
      </trkpt>
      <trkpt lat="47.52667" lon="1.7209508">
        <ele>112.0</ele>
        <time>2022-03-31T08:39:10Z</time>
      </trkpt>
      <trkpt lat="47.52667" lon="1.7209272">
        <ele>112.0</ele>
        <time>2022-03-31T08:39:11Z</time>
      </trkpt>
      <trkpt lat="47.526665" lon="1.7209064">
        <ele>112.0</ele>
        <time>2022-03-31T08:39:12Z</time>
      </trkpt>
      <trkpt lat="47.526665" lon="1.7208868">
        <ele>113.0</ele>
        <time>2022-03-31T08:39:13Z</time>
      </trkpt>
      <trkpt lat="47.52666" lon="1.7208648">
        <ele>113.0</ele>
        <time>2022-03-31T08:39:14Z</time>
      </trkpt>
      <trkpt lat="47.526665" lon="1.7208422">
        <ele>113.0</ele>
        <time>2022-03-31T08:39:15Z</time>
      </trkpt>
      <trkpt lat="47.526665" lon="1.7208208">
        <ele>113.0</ele>
        <time>2022-03-31T08:39:16Z</time>
      </trkpt>
      <trkpt lat="47.526665" lon="1.7208023">
        <ele>114.0</ele>
        <time>2022-03-31T08:39:17Z</time>
      </trkpt>
      <trkpt lat="47.526665" lon="1.7207837">
        <ele>114.0</ele>
        <time>2022-03-31T08:39:18Z</time>
      </trkpt>
      <trkpt lat="47.52667" lon="1.7207643">
        <ele>115.0</ele>
        <time>2022-03-31T08:39:19Z</time>
      </trkpt>
      <trkpt lat="47.526665" lon="1.7207414">
        <ele>115.0</ele>
        <time>2022-03-31T08:39:20Z</time>
      </trkpt>
      <trkpt lat="47.52666" lon="1.7207139">
        <ele>115.0</ele>
        <time>2022-03-31T08:39:21Z</time>
      </trkpt>
      <trkpt lat="47.52666" lon="1.7206933">
        <ele>115.0</ele>
        <time>2022-03-31T08:39:22Z</time>
      </trkpt>
      <trkpt lat="47.52666" lon="1.7206739">
        <ele>115.0</ele>
        <time>2022-03-31T08:39:23Z</time>
      </trkpt>
      <trkpt lat="47.52666" lon="1.7206533">
        <ele>116.0</ele>
        <time>2022-03-31T08:39:24Z</time>
      </trkpt>
      <trkpt lat="47.52666" lon="1.7206318">
        <ele>116.0</ele>
        <time>2022-03-31T08:39:25Z</time>
      </trkpt>
      <trkpt lat="47.52666" lon="1.7206123">
        <ele>117.0</ele>
        <time>2022-03-31T08:39:26Z</time>
      </trkpt>
      <trkpt lat="47.52666" lon="1.720592">
        <ele>117.0</ele>
        <time>2022-03-31T08:39:27Z</time>
      </trkpt>
      <trkpt lat="47.526665" lon="1.7205714">
        <ele>117.0</ele>
        <time>2022-03-31T08:39:28Z</time>
      </trkpt>
      <trkpt lat="47.526665" lon="1.7205526">
        <ele>117.0</ele>
        <time>2022-03-31T08:39:29Z</time>
      </trkpt>
      <trkpt lat="47.52667" lon="1.7205322">
        <ele>117.0</ele>
        <time>2022-03-31T08:39:30Z</time>
      </trkpt>
      <trkpt lat="47.52667" lon="1.7205119">
        <ele>117.0</ele>
        <time>2022-03-31T08:39:31Z</time>
      </trkpt>
      <trkpt lat="47.52667" lon="1.7204943">
        <ele>117.0</ele>
        <time>2022-03-31T08:39:32Z</time>
      </trkpt>
      <trkpt lat="47.52667" lon="1.7204788">
        <ele>117.0</ele>
        <time>2022-03-31T08:39:33Z</time>
      </trkpt>
      <trkpt lat="47.526672" lon="1.7204611">
        <ele>117.0</ele>
        <time>2022-03-31T08:39:34Z</time>
      </trkpt>
      <trkpt lat="47.526672" lon="1.720446">
        <ele>116.0</ele>
        <time>2022-03-31T08:39:35Z</time>
      </trkpt>
      <trkpt lat="47.526672" lon="1.7204297">
        <ele>116.0</ele>
        <time>2022-03-31T08:39:36Z</time>
      </trkpt>
      <trkpt lat="47.526672" lon="1.7204136">
        <ele>116.0</ele>
        <time>2022-03-31T08:39:37Z</time>
      </trkpt>
      <trkpt lat="47.526672" lon="1.720395">
        <ele>116.0</ele>
        <time>2022-03-31T08:39:38Z</time>
      </trkpt>
      <trkpt lat="47.526672" lon="1.7203777">
        <ele>115.0</ele>
        <time>2022-03-31T08:39:39Z</time>
      </trkpt>
      <trkpt lat="47.526672" lon="1.7203622">
        <ele>115.0</ele>
        <time>2022-03-31T08:39:40Z</time>
      </trkpt>
      <trkpt lat="47.52667" lon="1.7203456">
        <ele>115.0</ele>
        <time>2022-03-31T08:39:41Z</time>
      </trkpt>
      <trkpt lat="47.52667" lon="1.72033">
        <ele>115.0</ele>
        <time>2022-03-31T08:39:42Z</time>
      </trkpt>
      <trkpt lat="47.52667" lon="1.7203112">
        <ele>115.0</ele>
        <time>2022-03-31T08:39:43Z</time>
      </trkpt>
      <trkpt lat="47.526665" lon="1.7202923">
        <ele>115.0</ele>
        <time>2022-03-31T08:39:44Z</time>
      </trkpt>
      <trkpt lat="47.52667" lon="1.7202752">
        <ele>115.0</ele>
        <time>2022-03-31T08:39:45Z</time>
      </trkpt>
      <trkpt lat="47.52667" lon="1.7202568">
        <ele>115.0</ele>
        <time>2022-03-31T08:39:46Z</time>
      </trkpt>
      <trkpt lat="47.52667" lon="1.720238">
        <ele>115.0</ele>
        <time>2022-03-31T08:39:47Z</time>
      </trkpt>
      <trkpt lat="47.52667" lon="1.7202187">
        <ele>115.0</ele>
        <time>2022-03-31T08:39:48Z</time>
      </trkpt>
      <trkpt lat="47.52667" lon="1.7201986">
        <ele>114.0</ele>
        <time>2022-03-31T08:39:49Z</time>
      </trkpt>
      <trkpt lat="47.52667" lon="1.7201777">
        <ele>114.0</ele>
        <time>2022-03-31T08:39:50Z</time>
      </trkpt>
      <trkpt lat="47.52667" lon="1.7201611">
        <ele>114.0</ele>
        <time>2022-03-31T08:39:51Z</time>
      </trkpt>
      <trkpt lat="47.52667" lon="1.7201426">
        <ele>115.0</ele>
        <time>2022-03-31T08:39:52Z</time>
      </trkpt>
      <trkpt lat="47.52667" lon="1.7201239">
        <ele>115.0</ele>
        <time>2022-03-31T08:39:53Z</time>
      </trkpt>
      <trkpt lat="47.52667" lon="1.7201052">
        <ele>115.0</ele>
        <time>2022-03-31T08:39:54Z</time>
      </trkpt>
      <trkpt lat="47.52667" lon="1.720085">
        <ele>115.0</ele>
        <time>2022-03-31T08:39:55Z</time>
      </trkpt>
      <trkpt lat="47.526672" lon="1.720064">
        <ele>115.0</ele>
        <time>2022-03-31T08:39:56Z</time>
      </trkpt>
      <trkpt lat="47.526672" lon="1.7200412">
        <ele>115.0</ele>
        <time>2022-03-31T08:39:57Z</time>
      </trkpt>
      <trkpt lat="47.526676" lon="1.720022">
        <ele>116.0</ele>
        <time>2022-03-31T08:39:58Z</time>
      </trkpt>
      <trkpt lat="47.526676" lon="1.7200019">
        <ele>115.0</ele>
        <time>2022-03-31T08:39:59Z</time>
      </trkpt>
      <trkpt lat="47.52668" lon="1.71998">
        <ele>116.0</ele>
        <time>2022-03-31T08:40:00Z</time>
      </trkpt>
      <trkpt lat="47.526684" lon="1.7199565">
        <ele>116.0</ele>
        <time>2022-03-31T08:40:01Z</time>
      </trkpt>
      <trkpt lat="47.526688" lon="1.7199354">
        <ele>116.0</ele>
        <time>2022-03-31T08:40:02Z</time>
      </trkpt>
      <trkpt lat="47.52669" lon="1.719914">
        <ele>116.0</ele>
        <time>2022-03-31T08:40:03Z</time>
      </trkpt>
      <trkpt lat="47.52669" lon="1.7198919">
        <ele>116.0</ele>
        <time>2022-03-31T08:40:04Z</time>
      </trkpt>
      <trkpt lat="47.52669" lon="1.7198704">
        <ele>116.0</ele>
        <time>2022-03-31T08:40:05Z</time>
      </trkpt>
      <trkpt lat="47.526695" lon="1.7198514">
        <ele>116.0</ele>
        <time>2022-03-31T08:40:06Z</time>
      </trkpt>
      <trkpt lat="47.52669" lon="1.719831">
        <ele>116.0</ele>
        <time>2022-03-31T08:40:07Z</time>
      </trkpt>
      <trkpt lat="47.52669" lon="1.7198117">
        <ele>116.0</ele>
        <time>2022-03-31T08:40:08Z</time>
      </trkpt>
      <trkpt lat="47.526695" lon="1.7197912">
        <ele>116.0</ele>
        <time>2022-03-31T08:40:09Z</time>
      </trkpt>
      <trkpt lat="47.526695" lon="1.7197744">
        <ele>116.0</ele>
        <time>2022-03-31T08:40:10Z</time>
      </trkpt>
      <trkpt lat="47.526695" lon="1.7197571">
        <ele>116.0</ele>
        <time>2022-03-31T08:40:11Z</time>
      </trkpt>
      <trkpt lat="47.526695" lon="1.7197381">
        <ele>116.0</ele>
        <time>2022-03-31T08:40:12Z</time>
      </trkpt>
      <trkpt lat="47.5267" lon="1.7197201">
        <ele>116.0</ele>
        <time>2022-03-31T08:40:13Z</time>
      </trkpt>
      <trkpt lat="47.5267" lon="1.7197032">
        <ele>116.0</ele>
        <time>2022-03-31T08:40:14Z</time>
      </trkpt>
      <trkpt lat="47.526703" lon="1.7196838">
        <ele>116.0</ele>
        <time>2022-03-31T08:40:15Z</time>
      </trkpt>
      <trkpt lat="47.5267" lon="1.7196656">
        <ele>117.0</ele>
        <time>2022-03-31T08:40:16Z</time>
      </trkpt>
      <trkpt lat="47.5267" lon="1.7196487">
        <ele>117.0</ele>
        <time>2022-03-31T08:40:17Z</time>
      </trkpt>
      <trkpt lat="47.526703" lon="1.7196267">
        <ele>117.0</ele>
        <time>2022-03-31T08:40:18Z</time>
      </trkpt>
      <trkpt lat="47.526703" lon="1.7196097">
        <ele>117.0</ele>
        <time>2022-03-31T08:40:19Z</time>
      </trkpt>
      <trkpt lat="47.526707" lon="1.7195946">
        <ele>117.0</ele>
        <time>2022-03-31T08:40:20Z</time>
      </trkpt>
      <trkpt lat="47.52671" lon="1.71958">
        <ele>117.0</ele>
        <time>2022-03-31T08:40:21Z</time>
      </trkpt>
      <trkpt lat="47.52671" lon="1.7195617">
        <ele>117.0</ele>
        <time>2022-03-31T08:40:22Z</time>
      </trkpt>
      <trkpt lat="47.526714" lon="1.7195415">
        <ele>117.0</ele>
        <time>2022-03-31T08:40:23Z</time>
      </trkpt>
      <trkpt lat="47.526714" lon="1.719524">
        <ele>117.0</ele>
        <time>2022-03-31T08:40:24Z</time>
      </trkpt>
      <trkpt lat="47.52672" lon="1.7195095">
        <ele>117.0</ele>
        <time>2022-03-31T08:40:25Z</time>
      </trkpt>
      <trkpt lat="47.526714" lon="1.7194952">
        <ele>118.0</ele>
        <time>2022-03-31T08:40:26Z</time>
      </trkpt>
      <trkpt lat="47.526714" lon="1.7194813">
        <ele>118.0</ele>
        <time>2022-03-31T08:40:27Z</time>
      </trkpt>
      <trkpt lat="47.52672" lon="1.7194711">
        <ele>119.0</ele>
        <time>2022-03-31T08:40:28Z</time>
      </trkpt>
      <trkpt lat="47.52672" lon="1.7194653">
        <ele>119.0</ele>
        <time>2022-03-31T08:40:29Z</time>
      </trkpt>
      <trkpt lat="47.52672" lon="1.7194653">
        <ele>119.0</ele>
        <time>2022-03-31T08:40:30Z</time>
      </trkpt>
      <trkpt lat="47.52672" lon="1.7194653">
        <ele>119.0</ele>
        <time>2022-03-31T08:40:31Z</time>
      </trkpt>
      <trkpt lat="47.52672" lon="1.7194653">
        <ele>119.0</ele>
        <time>2022-03-31T08:40:32Z</time>
      </trkpt>
      <trkpt lat="47.52672" lon="1.7194653">
        <ele>119.0</ele>
        <time>2022-03-31T08:40:32Z</time>
      </trkpt>
      <trkpt lat="47.52672" lon="1.7194653">
        <ele>119.0</ele>
        <time>2022-03-31T08:40:32Z</time>
      </trkpt>
      <trkpt lat="47.526794" lon="1.719325">
        <ele>128.0</ele>
        <time>2022-03-31T08:41:05Z</time>
      </trkpt>
      <trkpt lat="47.5268" lon="1.7193121">
        <ele>128.0</ele>
        <time>2022-03-31T08:41:06Z</time>
      </trkpt>
      <trkpt lat="47.526802" lon="1.719298">
        <ele>128.0</ele>
        <time>2022-03-31T08:41:07Z</time>
      </trkpt>
      <trkpt lat="47.526806" lon="1.7192862">
        <ele>128.0</ele>
        <time>2022-03-31T08:41:08Z</time>
      </trkpt>
      <trkpt lat="47.52681" lon="1.719274">
        <ele>128.0</ele>
        <time>2022-03-31T08:41:09Z</time>
      </trkpt>
      <trkpt lat="47.526814" lon="1.7192585">
        <ele>128.0</ele>
        <time>2022-03-31T08:41:10Z</time>
      </trkpt>
      <trkpt lat="47.52682" lon="1.71924">
        <ele>128.0</ele>
        <time>2022-03-31T08:41:11Z</time>
      </trkpt>
      <trkpt lat="47.52682" lon="1.719222">
        <ele>129.0</ele>
        <time>2022-03-31T08:41:12Z</time>
      </trkpt>
      <trkpt lat="47.52682" lon="1.7192054">
        <ele>129.0</ele>
        <time>2022-03-31T08:41:13Z</time>
      </trkpt>
      <trkpt lat="47.52682" lon="1.7191882">
        <ele>129.0</ele>
        <time>2022-03-31T08:41:14Z</time>
      </trkpt>
      <trkpt lat="47.526825" lon="1.7191702">
        <ele>129.0</ele>
        <time>2022-03-31T08:41:15Z</time>
      </trkpt>
      <trkpt lat="47.526825" lon="1.719155">
        <ele>129.0</ele>
        <time>2022-03-31T08:41:16Z</time>
      </trkpt>
      <trkpt lat="47.52683" lon="1.7191397">
        <ele>130.0</ele>
        <time>2022-03-31T08:41:17Z</time>
      </trkpt>
      <trkpt lat="47.52683" lon="1.7191222">
        <ele>130.0</ele>
        <time>2022-03-31T08:41:18Z</time>
      </trkpt>
      <trkpt lat="47.526833" lon="1.7191055">
        <ele>130.0</ele>
        <time>2022-03-31T08:41:19Z</time>
      </trkpt>
      <trkpt lat="47.526836" lon="1.7190907">
        <ele>130.0</ele>
        <time>2022-03-31T08:41:20Z</time>
      </trkpt>
      <trkpt lat="47.52684" lon="1.7190801">
        <ele>130.0</ele>
        <time>2022-03-31T08:41:21Z</time>
      </trkpt>
      <trkpt lat="47.52684" lon="1.7190666">
        <ele>130.0</ele>
        <time>2022-03-31T08:41:22Z</time>
      </trkpt>
      <trkpt lat="47.52684" lon="1.7190518">
        <ele>130.0</ele>
        <time>2022-03-31T08:41:23Z</time>
      </trkpt>
      <trkpt lat="47.526844" lon="1.7190353">
        <ele>130.0</ele>
        <time>2022-03-31T08:41:24Z</time>
      </trkpt>
      <trkpt lat="47.526844" lon="1.7190222">
        <ele>130.0</ele>
        <time>2022-03-31T08:41:25Z</time>
      </trkpt>
      <trkpt lat="47.526844" lon="1.7190069">
        <ele>130.0</ele>
        <time>2022-03-31T08:41:26Z</time>
      </trkpt>
      <trkpt lat="47.52684" lon="1.7189894">
        <ele>130.0</ele>
        <time>2022-03-31T08:41:27Z</time>
      </trkpt>
      <trkpt lat="47.52684" lon="1.7189717">
        <ele>130.0</ele>
        <time>2022-03-31T08:41:28Z</time>
      </trkpt>
      <trkpt lat="47.526836" lon="1.7189554">
        <ele>130.0</ele>
        <time>2022-03-31T08:41:29Z</time>
      </trkpt>
      <trkpt lat="47.526833" lon="1.7189424">
        <ele>129.0</ele>
        <time>2022-03-31T08:41:30Z</time>
      </trkpt>
      <trkpt lat="47.526836" lon="1.7189285">
        <ele>129.0</ele>
        <time>2022-03-31T08:41:31Z</time>
      </trkpt>
      <trkpt lat="47.526833" lon="1.718911">
        <ele>130.0</ele>
        <time>2022-03-31T08:41:32Z</time>
      </trkpt>
      <trkpt lat="47.526833" lon="1.718891">
        <ele>130.0</ele>
        <time>2022-03-31T08:41:33Z</time>
      </trkpt>
      <trkpt lat="47.52683" lon="1.7188692">
        <ele>130.0</ele>
        <time>2022-03-31T08:41:34Z</time>
      </trkpt>
      <trkpt lat="47.52683" lon="1.7188561">
        <ele>130.0</ele>
        <time>2022-03-31T08:41:35Z</time>
      </trkpt>
      <trkpt lat="47.526833" lon="1.7188439">
        <ele>129.0</ele>
        <time>2022-03-31T08:41:36Z</time>
      </trkpt>
      <trkpt lat="47.526833" lon="1.7188262">
        <ele>129.0</ele>
        <time>2022-03-31T08:41:37Z</time>
      </trkpt>
      <trkpt lat="47.526833" lon="1.7188046">
        <ele>129.0</ele>
        <time>2022-03-31T08:41:38Z</time>
      </trkpt>
      <trkpt lat="47.526833" lon="1.7187871">
        <ele>129.0</ele>
        <time>2022-03-31T08:41:39Z</time>
      </trkpt>
      <trkpt lat="47.526833" lon="1.7187663">
        <ele>129.0</ele>
        <time>2022-03-31T08:41:40Z</time>
      </trkpt>
      <trkpt lat="47.526836" lon="1.718745">
        <ele>129.0</ele>
        <time>2022-03-31T08:41:41Z</time>
      </trkpt>
      <trkpt lat="47.526836" lon="1.7187243">
        <ele>129.0</ele>
        <time>2022-03-31T08:41:42Z</time>
      </trkpt>
      <trkpt lat="47.526836" lon="1.7187066">
        <ele>129.0</ele>
        <time>2022-03-31T08:41:43Z</time>
      </trkpt>
      <trkpt lat="47.52684" lon="1.7186897">
        <ele>130.0</ele>
        <time>2022-03-31T08:41:44Z</time>
      </trkpt>
      <trkpt lat="47.526844" lon="1.7186763">
        <ele>130.0</ele>
        <time>2022-03-31T08:41:45Z</time>
      </trkpt>
      <trkpt lat="47.526844" lon="1.7186623">
        <ele>130.0</ele>
        <time>2022-03-31T08:41:46Z</time>
      </trkpt>
      <trkpt lat="47.526844" lon="1.7186456">
        <ele>130.0</ele>
        <time>2022-03-31T08:41:47Z</time>
      </trkpt>
      <trkpt lat="47.52684" lon="1.7186263">
        <ele>130.0</ele>
        <time>2022-03-31T08:41:48Z</time>
      </trkpt>
      <trkpt lat="47.526844" lon="1.7186078">
        <ele>130.0</ele>
        <time>2022-03-31T08:41:49Z</time>
      </trkpt>
      <trkpt lat="47.52684" lon="1.7185848">
        <ele>130.0</ele>
        <time>2022-03-31T08:41:50Z</time>
      </trkpt>
      <trkpt lat="47.526844" lon="1.7185626">
        <ele>131.0</ele>
        <time>2022-03-31T08:41:51Z</time>
      </trkpt>
      <trkpt lat="47.526844" lon="1.7185427">
        <ele>131.0</ele>
        <time>2022-03-31T08:41:52Z</time>
      </trkpt>
      <trkpt lat="47.526848" lon="1.7185253">
        <ele>131.0</ele>
        <time>2022-03-31T08:41:53Z</time>
      </trkpt>
      <trkpt lat="47.526848" lon="1.7185086">
        <ele>131.0</ele>
        <time>2022-03-31T08:41:54Z</time>
      </trkpt>
      <trkpt lat="47.52685" lon="1.7184943">
        <ele>131.0</ele>
        <time>2022-03-31T08:41:55Z</time>
      </trkpt>
      <trkpt lat="47.526848" lon="1.7184771">
        <ele>131.0</ele>
        <time>2022-03-31T08:41:56Z</time>
      </trkpt>
      <trkpt lat="47.526844" lon="1.7184601">
        <ele>130.0</ele>
        <time>2022-03-31T08:41:57Z</time>
      </trkpt>
      <trkpt lat="47.526844" lon="1.7184451">
        <ele>130.0</ele>
        <time>2022-03-31T08:41:58Z</time>
      </trkpt>
      <trkpt lat="47.52684" lon="1.7184305">
        <ele>130.0</ele>
        <time>2022-03-31T08:41:59Z</time>
      </trkpt>
      <trkpt lat="47.52684" lon="1.7184119">
        <ele>131.0</ele>
        <time>2022-03-31T08:42:00Z</time>
      </trkpt>
      <trkpt lat="47.52684" lon="1.7183958">
        <ele>130.0</ele>
        <time>2022-03-31T08:42:01Z</time>
      </trkpt>
      <trkpt lat="47.52684" lon="1.7183783">
        <ele>130.0</ele>
        <time>2022-03-31T08:42:02Z</time>
      </trkpt>
      <trkpt lat="47.52684" lon="1.7183595">
        <ele>130.0</ele>
        <time>2022-03-31T08:42:03Z</time>
      </trkpt>
      <trkpt lat="47.526833" lon="1.7183428">
        <ele>130.0</ele>
        <time>2022-03-31T08:42:04Z</time>
      </trkpt>
      <trkpt lat="47.526833" lon="1.7183286">
        <ele>130.0</ele>
        <time>2022-03-31T08:42:05Z</time>
      </trkpt>
      <trkpt lat="47.526833" lon="1.7183179">
        <ele>130.0</ele>
        <time>2022-03-31T08:42:06Z</time>
      </trkpt>
      <trkpt lat="47.526833" lon="1.7183061">
        <ele>130.0</ele>
        <time>2022-03-31T08:42:07Z</time>
      </trkpt>
      <trkpt lat="47.526836" lon="1.7182913">
        <ele>130.0</ele>
        <time>2022-03-31T08:42:08Z</time>
      </trkpt>
      <trkpt lat="47.52684" lon="1.7182755">
        <ele>130.0</ele>
        <time>2022-03-31T08:42:09Z</time>
      </trkpt>
      <trkpt lat="47.52684" lon="1.7182589">
        <ele>131.0</ele>
        <time>2022-03-31T08:42:10Z</time>
      </trkpt>
      <trkpt lat="47.52684" lon="1.7182416">
        <ele>131.0</ele>
        <time>2022-03-31T08:42:11Z</time>
      </trkpt>
      <trkpt lat="47.526844" lon="1.718228">
        <ele>131.0</ele>
        <time>2022-03-31T08:42:12Z</time>
      </trkpt>
      <trkpt lat="47.526844" lon="1.7182137">
        <ele>131.0</ele>
        <time>2022-03-31T08:42:13Z</time>
      </trkpt>
      <trkpt lat="47.526844" lon="1.7181972">
        <ele>131.0</ele>
        <time>2022-03-31T08:42:14Z</time>
      </trkpt>
      <trkpt lat="47.526844" lon="1.7181846">
        <ele>131.0</ele>
        <time>2022-03-31T08:42:15Z</time>
      </trkpt>
      <trkpt lat="47.526844" lon="1.7181699">
        <ele>131.0</ele>
        <time>2022-03-31T08:42:16Z</time>
      </trkpt>
      <trkpt lat="47.526848" lon="1.7181563">
        <ele>131.0</ele>
        <time>2022-03-31T08:42:17Z</time>
      </trkpt>
      <trkpt lat="47.526848" lon="1.7181448">
        <ele>131.0</ele>
        <time>2022-03-31T08:42:18Z</time>
      </trkpt>
      <trkpt lat="47.52685" lon="1.7181273">
        <ele>131.0</ele>
        <time>2022-03-31T08:42:19Z</time>
      </trkpt>
      <trkpt lat="47.52685" lon="1.7181126">
        <ele>130.0</ele>
        <time>2022-03-31T08:42:20Z</time>
      </trkpt>
      <trkpt lat="47.52685" lon="1.7180998">
        <ele>131.0</ele>
        <time>2022-03-31T08:42:21Z</time>
      </trkpt>
      <trkpt lat="47.526855" lon="1.7180862">
        <ele>130.0</ele>
        <time>2022-03-31T08:42:22Z</time>
      </trkpt>
      <trkpt lat="47.526855" lon="1.7180738">
        <ele>130.0</ele>
        <time>2022-03-31T08:42:23Z</time>
      </trkpt>
      <trkpt lat="47.52686" lon="1.7180563">
        <ele>131.0</ele>
        <time>2022-03-31T08:42:24Z</time>
      </trkpt>
      <trkpt lat="47.526863" lon="1.7180392">
        <ele>130.0</ele>
        <time>2022-03-31T08:42:25Z</time>
      </trkpt>
      <trkpt lat="47.526863" lon="1.7180218">
        <ele>130.0</ele>
        <time>2022-03-31T08:42:26Z</time>
      </trkpt>
      <trkpt lat="47.526863" lon="1.7180026">
        <ele>131.0</ele>
        <time>2022-03-31T08:42:27Z</time>
      </trkpt>
      <trkpt lat="47.526863" lon="1.7179841">
        <ele>131.0</ele>
        <time>2022-03-31T08:42:28Z</time>
      </trkpt>
      <trkpt lat="47.526863" lon="1.7179674">
        <ele>131.0</ele>
        <time>2022-03-31T08:42:29Z</time>
      </trkpt>
      <trkpt lat="47.526863" lon="1.7179497">
        <ele>130.0</ele>
        <time>2022-03-31T08:42:30Z</time>
      </trkpt>
      <trkpt lat="47.526855" lon="1.7179304">
        <ele>130.0</ele>
        <time>2022-03-31T08:42:31Z</time>
      </trkpt>
      <trkpt lat="47.52685" lon="1.7179106">
        <ele>130.0</ele>
        <time>2022-03-31T08:42:32Z</time>
      </trkpt>
      <trkpt lat="47.526844" lon="1.7178891">
        <ele>130.0</ele>
        <time>2022-03-31T08:42:33Z</time>
      </trkpt>
      <trkpt lat="47.52684" lon="1.7178686">
        <ele>130.0</ele>
        <time>2022-03-31T08:42:34Z</time>
      </trkpt>
      <trkpt lat="47.52684" lon="1.7178506">
        <ele>130.0</ele>
        <time>2022-03-31T08:42:35Z</time>
      </trkpt>
      <trkpt lat="47.526844" lon="1.7178311">
        <ele>130.0</ele>
        <time>2022-03-31T08:42:36Z</time>
      </trkpt>
      <trkpt lat="47.526836" lon="1.7178128">
        <ele>129.0</ele>
        <time>2022-03-31T08:42:37Z</time>
      </trkpt>
      <trkpt lat="47.52684" lon="1.7177938">
        <ele>129.0</ele>
        <time>2022-03-31T08:42:38Z</time>
      </trkpt>
      <trkpt lat="47.526844" lon="1.7177738">
        <ele>129.0</ele>
        <time>2022-03-31T08:42:39Z</time>
      </trkpt>
      <trkpt lat="47.526844" lon="1.7177579">
        <ele>129.0</ele>
        <time>2022-03-31T08:42:40Z</time>
      </trkpt>
      <trkpt lat="47.526848" lon="1.7177435">
        <ele>129.0</ele>
        <time>2022-03-31T08:42:41Z</time>
      </trkpt>
      <trkpt lat="47.52685" lon="1.7177266">
        <ele>129.0</ele>
        <time>2022-03-31T08:42:42Z</time>
      </trkpt>
      <trkpt lat="47.526855" lon="1.7177101">
        <ele>129.0</ele>
        <time>2022-03-31T08:42:43Z</time>
      </trkpt>
      <trkpt lat="47.52686" lon="1.7176969">
        <ele>130.0</ele>
        <time>2022-03-31T08:42:44Z</time>
      </trkpt>
      <trkpt lat="47.526867" lon="1.7176876">
        <ele>130.0</ele>
        <time>2022-03-31T08:42:45Z</time>
      </trkpt>
      <trkpt lat="47.52688" lon="1.7176789">
        <ele>130.0</ele>
        <time>2022-03-31T08:42:46Z</time>
      </trkpt>
      <trkpt lat="47.526886" lon="1.717667">
        <ele>130.0</ele>
        <time>2022-03-31T08:42:47Z</time>
      </trkpt>
      <trkpt lat="47.526894" lon="1.7176572">
        <ele>130.0</ele>
        <time>2022-03-31T08:42:48Z</time>
      </trkpt>
      <trkpt lat="47.526905" lon="1.7176464">
        <ele>131.0</ele>
        <time>2022-03-31T08:42:49Z</time>
      </trkpt>
      <trkpt lat="47.526913" lon="1.7176343">
        <ele>131.0</ele>
        <time>2022-03-31T08:42:50Z</time>
      </trkpt>
      <trkpt lat="47.52692" lon="1.7176225">
        <ele>131.0</ele>
        <time>2022-03-31T08:42:51Z</time>
      </trkpt>
      <trkpt lat="47.526928" lon="1.7176121">
        <ele>131.0</ele>
        <time>2022-03-31T08:42:52Z</time>
      </trkpt>
      <trkpt lat="47.52694" lon="1.7176069">
        <ele>132.0</ele>
        <time>2022-03-31T08:42:53Z</time>
      </trkpt>
      <trkpt lat="47.52695" lon="1.7176017">
        <ele>132.0</ele>
        <time>2022-03-31T08:42:54Z</time>
      </trkpt>
      <trkpt lat="47.526962" lon="1.7175939">
        <ele>132.0</ele>
        <time>2022-03-31T08:42:55Z</time>
      </trkpt>
      <trkpt lat="47.526974" lon="1.7175877">
        <ele>132.0</ele>
        <time>2022-03-31T08:42:56Z</time>
      </trkpt>
      <trkpt lat="47.526985" lon="1.7175796">
        <ele>132.0</ele>
        <time>2022-03-31T08:42:57Z</time>
      </trkpt>
      <trkpt lat="47.526993" lon="1.7175707">
        <ele>132.0</ele>
        <time>2022-03-31T08:42:58Z</time>
      </trkpt>
      <trkpt lat="47.527004" lon="1.7175605">
        <ele>133.0</ele>
        <time>2022-03-31T08:42:59Z</time>
      </trkpt>
      <trkpt lat="47.527016" lon="1.7175528">
        <ele>133.0</ele>
        <time>2022-03-31T08:43:00Z</time>
      </trkpt>
      <trkpt lat="47.527023" lon="1.7175467">
        <ele>133.0</ele>
        <time>2022-03-31T08:43:01Z</time>
      </trkpt>
      <trkpt lat="47.527035" lon="1.7175395">
        <ele>133.0</ele>
        <time>2022-03-31T08:43:02Z</time>
      </trkpt>
      <trkpt lat="47.527046" lon="1.7175312">
        <ele>134.0</ele>
        <time>2022-03-31T08:43:03Z</time>
      </trkpt>
      <trkpt lat="47.52706" lon="1.7175261">
        <ele>134.0</ele>
        <time>2022-03-31T08:43:04Z</time>
      </trkpt>
      <trkpt lat="47.52707" lon="1.717523">
        <ele>134.0</ele>
        <time>2022-03-31T08:43:05Z</time>
      </trkpt>
      <trkpt lat="47.52708" lon="1.717521">
        <ele>134.0</ele>
        <time>2022-03-31T08:43:06Z</time>
      </trkpt>
      <trkpt lat="47.527092" lon="1.7175177">
        <ele>134.0</ele>
        <time>2022-03-31T08:43:07Z</time>
      </trkpt>
      <trkpt lat="47.527103" lon="1.7175173">
        <ele>134.0</ele>
        <time>2022-03-31T08:43:08Z</time>
      </trkpt>
      <trkpt lat="47.52711" lon="1.7175156">
        <ele>135.0</ele>
        <time>2022-03-31T08:43:09Z</time>
      </trkpt>
      <trkpt lat="47.527122" lon="1.7175144">
        <ele>135.0</ele>
        <time>2022-03-31T08:43:10Z</time>
      </trkpt>
      <trkpt lat="47.527134" lon="1.7175105">
        <ele>134.0</ele>
        <time>2022-03-31T08:43:11Z</time>
      </trkpt>
      <trkpt lat="47.52714" lon="1.7175056">
        <ele>135.0</ele>
        <time>2022-03-31T08:43:12Z</time>
      </trkpt>
      <trkpt lat="47.527145" lon="1.7175034">
        <ele>134.0</ele>
        <time>2022-03-31T08:43:13Z</time>
      </trkpt>
      <trkpt lat="47.527153" lon="1.7175004">
        <ele>134.0</ele>
        <time>2022-03-31T08:43:14Z</time>
      </trkpt>
      <trkpt lat="47.52716" lon="1.717499">
        <ele>134.0</ele>
        <time>2022-03-31T08:43:15Z</time>
      </trkpt>
      <trkpt lat="47.52717" lon="1.7174982">
        <ele>135.0</ele>
        <time>2022-03-31T08:43:16Z</time>
      </trkpt>
      <trkpt lat="47.527176" lon="1.7174922">
        <ele>135.0</ele>
        <time>2022-03-31T08:43:17Z</time>
      </trkpt>
      <trkpt lat="47.527184" lon="1.717485">
        <ele>135.0</ele>
        <time>2022-03-31T08:43:18Z</time>
      </trkpt>
      <trkpt lat="47.52719" lon="1.7174708">
        <ele>134.0</ele>
        <time>2022-03-31T08:43:19Z</time>
      </trkpt>
      <trkpt lat="47.527203" lon="1.7174606">
        <ele>134.0</ele>
        <time>2022-03-31T08:43:20Z</time>
      </trkpt>
      <trkpt lat="47.527218" lon="1.7174509">
        <ele>134.0</ele>
        <time>2022-03-31T08:43:21Z</time>
      </trkpt>
      <trkpt lat="47.52723" lon="1.7174488">
        <ele>134.0</ele>
        <time>2022-03-31T08:43:22Z</time>
      </trkpt>
      <trkpt lat="47.527245" lon="1.7174392">
        <ele>134.0</ele>
        <time>2022-03-31T08:43:23Z</time>
      </trkpt>
      <trkpt lat="47.527252" lon="1.7174311">
        <ele>134.0</ele>
        <time>2022-03-31T08:43:24Z</time>
      </trkpt>
      <trkpt lat="47.527264" lon="1.7174245">
        <ele>135.0</ele>
        <time>2022-03-31T08:43:25Z</time>
      </trkpt>
      <trkpt lat="47.527275" lon="1.7174125">
        <ele>134.0</ele>
        <time>2022-03-31T08:43:26Z</time>
      </trkpt>
      <trkpt lat="47.527283" lon="1.7173988">
        <ele>134.0</ele>
        <time>2022-03-31T08:43:27Z</time>
      </trkpt>
      <trkpt lat="47.527294" lon="1.7173803">
        <ele>134.0</ele>
        <time>2022-03-31T08:43:28Z</time>
      </trkpt>
      <trkpt lat="47.527306" lon="1.7173654">
        <ele>134.0</ele>
        <time>2022-03-31T08:43:29Z</time>
      </trkpt>
      <trkpt lat="47.527317" lon="1.7173519">
        <ele>134.0</ele>
        <time>2022-03-31T08:43:30Z</time>
      </trkpt>
      <trkpt lat="47.527325" lon="1.717338">
        <ele>135.0</ele>
        <time>2022-03-31T08:43:31Z</time>
      </trkpt>
      <trkpt lat="47.527332" lon="1.7173239">
        <ele>135.0</ele>
        <time>2022-03-31T08:43:32Z</time>
      </trkpt>
      <trkpt lat="47.52734" lon="1.7173119">
        <ele>134.0</ele>
        <time>2022-03-31T08:43:33Z</time>
      </trkpt>
      <trkpt lat="47.527344" lon="1.7173057">
        <ele>134.0</ele>
        <time>2022-03-31T08:43:34Z</time>
      </trkpt>
      <trkpt lat="47.52735" lon="1.7172912">
        <ele>135.0</ele>
        <time>2022-03-31T08:43:35Z</time>
      </trkpt>
      <trkpt lat="47.527363" lon="1.7172794">
        <ele>135.0</ele>
        <time>2022-03-31T08:43:36Z</time>
      </trkpt>
      <trkpt lat="47.527374" lon="1.7172686">
        <ele>135.0</ele>
        <time>2022-03-31T08:43:37Z</time>
      </trkpt>
      <trkpt lat="47.52738" lon="1.7172546">
        <ele>135.0</ele>
        <time>2022-03-31T08:43:38Z</time>
      </trkpt>
      <trkpt lat="47.527397" lon="1.7172415">
        <ele>135.0</ele>
        <time>2022-03-31T08:43:39Z</time>
      </trkpt>
      <trkpt lat="47.52741" lon="1.7172283">
        <ele>135.0</ele>
        <time>2022-03-31T08:43:40Z</time>
      </trkpt>
      <trkpt lat="47.527416" lon="1.7172154">
        <ele>135.0</ele>
        <time>2022-03-31T08:43:41Z</time>
      </trkpt>
      <trkpt lat="47.527424" lon="1.7172058">
        <ele>136.0</ele>
        <time>2022-03-31T08:43:42Z</time>
      </trkpt>
      <trkpt lat="47.527428" lon="1.717193">
        <ele>136.0</ele>
        <time>2022-03-31T08:43:43Z</time>
      </trkpt>
      <trkpt lat="47.527435" lon="1.7171825">
        <ele>136.0</ele>
        <time>2022-03-31T08:43:44Z</time>
      </trkpt>
      <trkpt lat="47.527447" lon="1.7171679">
        <ele>136.0</ele>
        <time>2022-03-31T08:43:45Z</time>
      </trkpt>
      <trkpt lat="47.527454" lon="1.7171544">
        <ele>136.0</ele>
        <time>2022-03-31T08:43:46Z</time>
      </trkpt>
      <trkpt lat="47.52746" lon="1.7171378">
        <ele>136.0</ele>
        <time>2022-03-31T08:43:47Z</time>
      </trkpt>
      <trkpt lat="47.527466" lon="1.7171241">
        <ele>136.0</ele>
        <time>2022-03-31T08:43:48Z</time>
      </trkpt>
      <trkpt lat="47.52747" lon="1.7171067">
        <ele>136.0</ele>
        <time>2022-03-31T08:43:49Z</time>
      </trkpt>
      <trkpt lat="47.527477" lon="1.7170902">
        <ele>136.0</ele>
        <time>2022-03-31T08:43:50Z</time>
      </trkpt>
      <trkpt lat="47.527485" lon="1.7170757">
        <ele>136.0</ele>
        <time>2022-03-31T08:43:51Z</time>
      </trkpt>
      <trkpt lat="47.52749" lon="1.717063">
        <ele>136.0</ele>
        <time>2022-03-31T08:43:52Z</time>
      </trkpt>
      <trkpt lat="47.5275" lon="1.7170451">
        <ele>136.0</ele>
        <time>2022-03-31T08:43:53Z</time>
      </trkpt>
      <trkpt lat="47.527508" lon="1.7170266">
        <ele>135.0</ele>
        <time>2022-03-31T08:43:54Z</time>
      </trkpt>
      <trkpt lat="47.52752" lon="1.7170117">
        <ele>136.0</ele>
        <time>2022-03-31T08:43:55Z</time>
      </trkpt>
      <trkpt lat="47.52753" lon="1.7169964">
        <ele>136.0</ele>
        <time>2022-03-31T08:43:56Z</time>
      </trkpt>
      <trkpt lat="47.52754" lon="1.7169764">
        <ele>136.0</ele>
        <time>2022-03-31T08:43:57Z</time>
      </trkpt>
      <trkpt lat="47.527546" lon="1.7169588">
        <ele>135.0</ele>
        <time>2022-03-31T08:43:58Z</time>
      </trkpt>
      <trkpt lat="47.527554" lon="1.716944">
        <ele>136.0</ele>
        <time>2022-03-31T08:43:59Z</time>
      </trkpt>
      <trkpt lat="47.52756" lon="1.7169307">
        <ele>136.0</ele>
        <time>2022-03-31T08:44:00Z</time>
      </trkpt>
      <trkpt lat="47.52757" lon="1.7169144">
        <ele>136.0</ele>
        <time>2022-03-31T08:44:01Z</time>
      </trkpt>
      <trkpt lat="47.527576" lon="1.7168956">
        <ele>136.0</ele>
        <time>2022-03-31T08:44:02Z</time>
      </trkpt>
      <trkpt lat="47.527588" lon="1.7168802">
        <ele>136.0</ele>
        <time>2022-03-31T08:44:03Z</time>
      </trkpt>
      <trkpt lat="47.527596" lon="1.716865">
        <ele>136.0</ele>
        <time>2022-03-31T08:44:04Z</time>
      </trkpt>
      <trkpt lat="47.527603" lon="1.7168592">
        <ele>137.0</ele>
        <time>2022-03-31T08:44:05Z</time>
      </trkpt>
      <trkpt lat="47.527607" lon="1.7168497">
        <ele>137.0</ele>
        <time>2022-03-31T08:44:06Z</time>
      </trkpt>
      <trkpt lat="47.52761" lon="1.716836">
        <ele>137.0</ele>
        <time>2022-03-31T08:44:07Z</time>
      </trkpt>
      <trkpt lat="47.52762" lon="1.7168238">
        <ele>138.0</ele>
        <time>2022-03-31T08:44:08Z</time>
      </trkpt>
      <trkpt lat="47.527626" lon="1.7168087">
        <ele>138.0</ele>
        <time>2022-03-31T08:44:09Z</time>
      </trkpt>
      <trkpt lat="47.527637" lon="1.716793">
        <ele>138.0</ele>
        <time>2022-03-31T08:44:10Z</time>
      </trkpt>
      <trkpt lat="47.52764" lon="1.7167767">
        <ele>138.0</ele>
        <time>2022-03-31T08:44:11Z</time>
      </trkpt>
      <trkpt lat="47.527645" lon="1.7167614">
        <ele>138.0</ele>
        <time>2022-03-31T08:44:12Z</time>
      </trkpt>
      <trkpt lat="47.527657" lon="1.7167461">
        <ele>139.0</ele>
        <time>2022-03-31T08:44:13Z</time>
      </trkpt>
      <trkpt lat="47.52766" lon="1.7167331">
        <ele>139.0</ele>
        <time>2022-03-31T08:44:14Z</time>
      </trkpt>
      <trkpt lat="47.52766" lon="1.7167252">
        <ele>139.0</ele>
        <time>2022-03-31T08:44:15Z</time>
      </trkpt>
      <trkpt lat="47.527664" lon="1.7167166">
        <ele>139.0</ele>
        <time>2022-03-31T08:44:16Z</time>
      </trkpt>
      <trkpt lat="47.527664" lon="1.7167135">
        <ele>139.0</ele>
        <time>2022-03-31T08:44:17Z</time>
      </trkpt>
      <trkpt lat="47.527664" lon="1.716706">
        <ele>139.0</ele>
        <time>2022-03-31T08:44:18Z</time>
      </trkpt>
      <trkpt lat="47.527668" lon="1.7166941">
        <ele>139.0</ele>
        <time>2022-03-31T08:44:19Z</time>
      </trkpt>
      <trkpt lat="47.527676" lon="1.7166762">
        <ele>139.0</ele>
        <time>2022-03-31T08:44:20Z</time>
      </trkpt>
      <trkpt lat="47.527683" lon="1.716656">
        <ele>139.0</ele>
        <time>2022-03-31T08:44:21Z</time>
      </trkpt>
      <trkpt lat="47.527687" lon="1.7166388">
        <ele>139.0</ele>
        <time>2022-03-31T08:44:22Z</time>
      </trkpt>
      <trkpt lat="47.5277" lon="1.7166231">
        <ele>139.0</ele>
        <time>2022-03-31T08:44:23Z</time>
      </trkpt>
      <trkpt lat="47.527706" lon="1.7166028">
        <ele>140.0</ele>
        <time>2022-03-31T08:44:24Z</time>
      </trkpt>
      <trkpt lat="47.52771" lon="1.7165824">
        <ele>140.0</ele>
        <time>2022-03-31T08:44:25Z</time>
      </trkpt>
      <trkpt lat="47.527714" lon="1.7165596">
        <ele>140.0</ele>
        <time>2022-03-31T08:44:26Z</time>
      </trkpt>
      <trkpt lat="47.527718" lon="1.7165445">
        <ele>140.0</ele>
        <time>2022-03-31T08:44:27Z</time>
      </trkpt>
      <trkpt lat="47.527718" lon="1.7165321">
        <ele>140.0</ele>
        <time>2022-03-31T08:44:28Z</time>
      </trkpt>
      <trkpt lat="47.527725" lon="1.7165198">
        <ele>140.0</ele>
        <time>2022-03-31T08:44:29Z</time>
      </trkpt>
      <trkpt lat="47.52773" lon="1.7165018">
        <ele>140.0</ele>
        <time>2022-03-31T08:44:30Z</time>
      </trkpt>
      <trkpt lat="47.527737" lon="1.7164849">
        <ele>140.0</ele>
        <time>2022-03-31T08:44:31Z</time>
      </trkpt>
      <trkpt lat="47.52774" lon="1.7164698">
        <ele>140.0</ele>
        <time>2022-03-31T08:44:32Z</time>
      </trkpt>
      <trkpt lat="47.527744" lon="1.7164611">
        <ele>140.0</ele>
        <time>2022-03-31T08:44:33Z</time>
      </trkpt>
      <trkpt lat="47.52775" lon="1.7164515">
        <ele>140.0</ele>
        <time>2022-03-31T08:44:34Z</time>
      </trkpt>
      <trkpt lat="47.52775" lon="1.7164354">
        <ele>140.0</ele>
        <time>2022-03-31T08:44:35Z</time>
      </trkpt>
      <trkpt lat="47.527752" lon="1.716419">
        <ele>140.0</ele>
        <time>2022-03-31T08:44:36Z</time>
      </trkpt>
      <trkpt lat="47.527756" lon="1.7164028">
        <ele>140.0</ele>
        <time>2022-03-31T08:44:37Z</time>
      </trkpt>
      <trkpt lat="47.52776" lon="1.7163872">
        <ele>140.0</ele>
        <time>2022-03-31T08:44:38Z</time>
      </trkpt>
      <trkpt lat="47.52776" lon="1.7163695">
        <ele>140.0</ele>
        <time>2022-03-31T08:44:39Z</time>
      </trkpt>
      <trkpt lat="47.527763" lon="1.7163521">
        <ele>140.0</ele>
        <time>2022-03-31T08:44:40Z</time>
      </trkpt>
      <trkpt lat="47.52777" lon="1.716337">
        <ele>141.0</ele>
        <time>2022-03-31T08:44:41Z</time>
      </trkpt>
      <trkpt lat="47.527775" lon="1.7163218">
        <ele>141.0</ele>
        <time>2022-03-31T08:44:42Z</time>
      </trkpt>
      <trkpt lat="47.527775" lon="1.7163044">
        <ele>141.0</ele>
        <time>2022-03-31T08:44:43Z</time>
      </trkpt>
      <trkpt lat="47.52778" lon="1.7162887">
        <ele>141.0</ele>
        <time>2022-03-31T08:44:44Z</time>
      </trkpt>
      <trkpt lat="47.527786" lon="1.7162735">
        <ele>141.0</ele>
        <time>2022-03-31T08:44:45Z</time>
      </trkpt>
      <trkpt lat="47.527794" lon="1.7162592">
        <ele>141.0</ele>
        <time>2022-03-31T08:44:46Z</time>
      </trkpt>
      <trkpt lat="47.5278" lon="1.71624">
        <ele>140.0</ele>
        <time>2022-03-31T08:44:47Z</time>
      </trkpt>
      <trkpt lat="47.527805" lon="1.7162257">
        <ele>140.0</ele>
        <time>2022-03-31T08:44:48Z</time>
      </trkpt>
      <trkpt lat="47.52781" lon="1.7162102">
        <ele>140.0</ele>
        <time>2022-03-31T08:44:49Z</time>
      </trkpt>
      <trkpt lat="47.527813" lon="1.7161961">
        <ele>140.0</ele>
        <time>2022-03-31T08:44:50Z</time>
      </trkpt>
      <trkpt lat="47.52782" lon="1.7161779">
        <ele>140.0</ele>
        <time>2022-03-31T08:44:51Z</time>
      </trkpt>
      <trkpt lat="47.52782" lon="1.7161621">
        <ele>140.0</ele>
        <time>2022-03-31T08:44:52Z</time>
      </trkpt>
      <trkpt lat="47.527824" lon="1.716148">
        <ele>140.0</ele>
        <time>2022-03-31T08:44:53Z</time>
      </trkpt>
      <trkpt lat="47.52783" lon="1.7161301">
        <ele>140.0</ele>
        <time>2022-03-31T08:44:54Z</time>
      </trkpt>
      <trkpt lat="47.527832" lon="1.7161095">
        <ele>140.0</ele>
        <time>2022-03-31T08:44:55Z</time>
      </trkpt>
      <trkpt lat="47.527836" lon="1.7160906">
        <ele>139.0</ele>
        <time>2022-03-31T08:44:56Z</time>
      </trkpt>
      <trkpt lat="47.527836" lon="1.7160777">
        <ele>139.0</ele>
        <time>2022-03-31T08:44:57Z</time>
      </trkpt>
      <trkpt lat="47.527836" lon="1.7160615">
        <ele>139.0</ele>
        <time>2022-03-31T08:44:58Z</time>
      </trkpt>
      <trkpt lat="47.527836" lon="1.7160461">
        <ele>139.0</ele>
        <time>2022-03-31T08:44:59Z</time>
      </trkpt>
      <trkpt lat="47.527836" lon="1.7160335">
        <ele>138.0</ele>
        <time>2022-03-31T08:45:00Z</time>
      </trkpt>
      <trkpt lat="47.52784" lon="1.7160183">
        <ele>139.0</ele>
        <time>2022-03-31T08:45:01Z</time>
      </trkpt>
      <trkpt lat="47.527843" lon="1.716008">
        <ele>139.0</ele>
        <time>2022-03-31T08:45:02Z</time>
      </trkpt>
      <trkpt lat="47.527847" lon="1.7159908">
        <ele>139.0</ele>
        <time>2022-03-31T08:45:03Z</time>
      </trkpt>
      <trkpt lat="47.52785" lon="1.7159736">
        <ele>138.0</ele>
        <time>2022-03-31T08:45:04Z</time>
      </trkpt>
      <trkpt lat="47.527855" lon="1.7159495">
        <ele>138.0</ele>
        <time>2022-03-31T08:45:05Z</time>
      </trkpt>
      <trkpt lat="47.527863" lon="1.7159306">
        <ele>138.0</ele>
        <time>2022-03-31T08:45:06Z</time>
      </trkpt>
      <trkpt lat="47.527863" lon="1.715909">
        <ele>138.0</ele>
        <time>2022-03-31T08:45:07Z</time>
      </trkpt>
      <trkpt lat="47.527863" lon="1.7158905">
        <ele>138.0</ele>
        <time>2022-03-31T08:45:08Z</time>
      </trkpt>
      <trkpt lat="47.527866" lon="1.7158793">
        <ele>137.0</ele>
        <time>2022-03-31T08:45:09Z</time>
      </trkpt>
      <trkpt lat="47.527866" lon="1.7158626">
        <ele>137.0</ele>
        <time>2022-03-31T08:45:10Z</time>
      </trkpt>
      <trkpt lat="47.527866" lon="1.7158465">
        <ele>137.0</ele>
        <time>2022-03-31T08:45:11Z</time>
      </trkpt>
      <trkpt lat="47.52787" lon="1.7158313">
        <ele>137.0</ele>
        <time>2022-03-31T08:45:12Z</time>
      </trkpt>
      <trkpt lat="47.52787" lon="1.7158166">
        <ele>137.0</ele>
        <time>2022-03-31T08:45:13Z</time>
      </trkpt>
      <trkpt lat="47.52787" lon="1.7157975">
        <ele>138.0</ele>
        <time>2022-03-31T08:45:14Z</time>
      </trkpt>
      <trkpt lat="47.52787" lon="1.7157767">
        <ele>137.0</ele>
        <time>2022-03-31T08:45:15Z</time>
      </trkpt>
      <trkpt lat="47.52787" lon="1.7157599">
        <ele>138.0</ele>
        <time>2022-03-31T08:45:16Z</time>
      </trkpt>
      <trkpt lat="47.52787" lon="1.7157408">
        <ele>138.0</ele>
        <time>2022-03-31T08:45:17Z</time>
      </trkpt>
      <trkpt lat="47.527874" lon="1.71572">
        <ele>138.0</ele>
        <time>2022-03-31T08:45:18Z</time>
      </trkpt>
      <trkpt lat="47.527874" lon="1.7157007">
        <ele>138.0</ele>
        <time>2022-03-31T08:45:19Z</time>
      </trkpt>
      <trkpt lat="47.527874" lon="1.7156775">
        <ele>138.0</ele>
        <time>2022-03-31T08:45:20Z</time>
      </trkpt>
      <trkpt lat="47.52787" lon="1.7156563">
        <ele>138.0</ele>
        <time>2022-03-31T08:45:21Z</time>
      </trkpt>
      <trkpt lat="47.52787" lon="1.7156372">
        <ele>138.0</ele>
        <time>2022-03-31T08:45:22Z</time>
      </trkpt>
      <trkpt lat="47.52787" lon="1.7156154">
        <ele>138.0</ele>
        <time>2022-03-31T08:45:23Z</time>
      </trkpt>
      <trkpt lat="47.52787" lon="1.7155952">
        <ele>138.0</ele>
        <time>2022-03-31T08:45:24Z</time>
      </trkpt>
      <trkpt lat="47.52787" lon="1.7155743">
        <ele>137.0</ele>
        <time>2022-03-31T08:45:25Z</time>
      </trkpt>
      <trkpt lat="47.527866" lon="1.7155573">
        <ele>137.0</ele>
        <time>2022-03-31T08:45:26Z</time>
      </trkpt>
      <trkpt lat="47.527866" lon="1.7155387">
        <ele>136.0</ele>
        <time>2022-03-31T08:45:27Z</time>
      </trkpt>
      <trkpt lat="47.527863" lon="1.715517">
        <ele>136.0</ele>
        <time>2022-03-31T08:45:28Z</time>
      </trkpt>
      <trkpt lat="47.527866" lon="1.7154952">
        <ele>136.0</ele>
        <time>2022-03-31T08:45:29Z</time>
      </trkpt>
      <trkpt lat="47.527866" lon="1.715476">
        <ele>136.0</ele>
        <time>2022-03-31T08:45:30Z</time>
      </trkpt>
      <trkpt lat="47.527866" lon="1.7154584">
        <ele>137.0</ele>
        <time>2022-03-31T08:45:31Z</time>
      </trkpt>
      <trkpt lat="47.527866" lon="1.7154406">
        <ele>136.0</ele>
        <time>2022-03-31T08:45:32Z</time>
      </trkpt>
      <trkpt lat="47.527866" lon="1.7154205">
        <ele>136.0</ele>
        <time>2022-03-31T08:45:33Z</time>
      </trkpt>
      <trkpt lat="47.527866" lon="1.7153988">
        <ele>137.0</ele>
        <time>2022-03-31T08:45:34Z</time>
      </trkpt>
      <trkpt lat="47.527863" lon="1.7153786">
        <ele>136.0</ele>
        <time>2022-03-31T08:45:35Z</time>
      </trkpt>
      <trkpt lat="47.527863" lon="1.7153577">
        <ele>136.0</ele>
        <time>2022-03-31T08:45:36Z</time>
      </trkpt>
      <trkpt lat="47.527866" lon="1.7153414">
        <ele>136.0</ele>
        <time>2022-03-31T08:45:37Z</time>
      </trkpt>
      <trkpt lat="47.52787" lon="1.7153226">
        <ele>136.0</ele>
        <time>2022-03-31T08:45:38Z</time>
      </trkpt>
      <trkpt lat="47.527866" lon="1.7153071">
        <ele>136.0</ele>
        <time>2022-03-31T08:45:39Z</time>
      </trkpt>
      <trkpt lat="47.52787" lon="1.7152919">
        <ele>135.0</ele>
        <time>2022-03-31T08:45:40Z</time>
      </trkpt>
      <trkpt lat="47.52787" lon="1.7152753">
        <ele>135.0</ele>
        <time>2022-03-31T08:45:41Z</time>
      </trkpt>
      <trkpt lat="47.52787" lon="1.7152607">
        <ele>134.0</ele>
        <time>2022-03-31T08:45:42Z</time>
      </trkpt>
      <trkpt lat="47.52787" lon="1.7152431">
        <ele>134.0</ele>
        <time>2022-03-31T08:45:43Z</time>
      </trkpt>
      <trkpt lat="47.527874" lon="1.7152243">
        <ele>134.0</ele>
        <time>2022-03-31T08:45:44Z</time>
      </trkpt>
      <trkpt lat="47.527874" lon="1.7152059">
        <ele>134.0</ele>
        <time>2022-03-31T08:45:45Z</time>
      </trkpt>
      <trkpt lat="47.527874" lon="1.7151865">
        <ele>135.0</ele>
        <time>2022-03-31T08:45:46Z</time>
      </trkpt>
      <trkpt lat="47.527878" lon="1.7151655">
        <ele>135.0</ele>
        <time>2022-03-31T08:45:47Z</time>
      </trkpt>
      <trkpt lat="47.52788" lon="1.7151465">
        <ele>135.0</ele>
        <time>2022-03-31T08:45:48Z</time>
      </trkpt>
      <trkpt lat="47.527885" lon="1.715128">
        <ele>135.0</ele>
        <time>2022-03-31T08:45:49Z</time>
      </trkpt>
      <trkpt lat="47.52789" lon="1.7151076">
        <ele>135.0</ele>
        <time>2022-03-31T08:45:50Z</time>
      </trkpt>
      <trkpt lat="47.527893" lon="1.7150898">
        <ele>135.0</ele>
        <time>2022-03-31T08:45:51Z</time>
      </trkpt>
      <trkpt lat="47.527897" lon="1.7150718">
        <ele>135.0</ele>
        <time>2022-03-31T08:45:52Z</time>
      </trkpt>
      <trkpt lat="47.5279" lon="1.7150553">
        <ele>135.0</ele>
        <time>2022-03-31T08:45:53Z</time>
      </trkpt>
      <trkpt lat="47.52791" lon="1.7150353">
        <ele>135.0</ele>
        <time>2022-03-31T08:45:54Z</time>
      </trkpt>
      <trkpt lat="47.52791" lon="1.7150165">
        <ele>135.0</ele>
        <time>2022-03-31T08:45:55Z</time>
      </trkpt>
      <trkpt lat="47.527912" lon="1.714998">
        <ele>135.0</ele>
        <time>2022-03-31T08:45:56Z</time>
      </trkpt>
      <trkpt lat="47.52792" lon="1.7149823">
        <ele>135.0</ele>
        <time>2022-03-31T08:45:57Z</time>
      </trkpt>
      <trkpt lat="47.527924" lon="1.7149616">
        <ele>135.0</ele>
        <time>2022-03-31T08:45:58Z</time>
      </trkpt>
      <trkpt lat="47.527927" lon="1.7149417">
        <ele>134.0</ele>
        <time>2022-03-31T08:45:59Z</time>
      </trkpt>
      <trkpt lat="47.527935" lon="1.7149233">
        <ele>134.0</ele>
        <time>2022-03-31T08:46:00Z</time>
      </trkpt>
      <trkpt lat="47.52794" lon="1.7149069">
        <ele>134.0</ele>
        <time>2022-03-31T08:46:01Z</time>
      </trkpt>
      <trkpt lat="47.527946" lon="1.7148927">
        <ele>134.0</ele>
        <time>2022-03-31T08:46:02Z</time>
      </trkpt>
      <trkpt lat="47.527954" lon="1.7148739">
        <ele>133.0</ele>
        <time>2022-03-31T08:46:03Z</time>
      </trkpt>
      <trkpt lat="47.52796" lon="1.7148564">
        <ele>133.0</ele>
        <time>2022-03-31T08:46:04Z</time>
      </trkpt>
      <trkpt lat="47.527966" lon="1.7148383">
        <ele>133.0</ele>
        <time>2022-03-31T08:46:05Z</time>
      </trkpt>
      <trkpt lat="47.527966" lon="1.7148219">
        <ele>132.0</ele>
        <time>2022-03-31T08:46:06Z</time>
      </trkpt>
      <trkpt lat="47.52797" lon="1.7148048">
        <ele>132.0</ele>
        <time>2022-03-31T08:46:07Z</time>
      </trkpt>
      <trkpt lat="47.527977" lon="1.71479">
        <ele>132.0</ele>
        <time>2022-03-31T08:46:08Z</time>
      </trkpt>
      <trkpt lat="47.527985" lon="1.7147701">
        <ele>132.0</ele>
        <time>2022-03-31T08:46:09Z</time>
      </trkpt>
      <trkpt lat="47.52799" lon="1.7147545">
        <ele>132.0</ele>
        <time>2022-03-31T08:46:10Z</time>
      </trkpt>
      <trkpt lat="47.527992" lon="1.7147437">
        <ele>132.0</ele>
        <time>2022-03-31T08:46:11Z</time>
      </trkpt>
      <trkpt lat="47.528" lon="1.7147324">
        <ele>131.0</ele>
        <time>2022-03-31T08:46:12Z</time>
      </trkpt>
      <trkpt lat="47.528004" lon="1.7147194">
        <ele>131.0</ele>
        <time>2022-03-31T08:46:13Z</time>
      </trkpt>
      <trkpt lat="47.528008" lon="1.7147076">
        <ele>132.0</ele>
        <time>2022-03-31T08:46:14Z</time>
      </trkpt>
      <trkpt lat="47.528015" lon="1.7146956">
        <ele>131.0</ele>
        <time>2022-03-31T08:46:15Z</time>
      </trkpt>
      <trkpt lat="47.528023" lon="1.7146819">
        <ele>131.0</ele>
        <time>2022-03-31T08:46:16Z</time>
      </trkpt>
      <trkpt lat="47.52803" lon="1.7146677">
        <ele>131.0</ele>
        <time>2022-03-31T08:46:17Z</time>
      </trkpt>
      <trkpt lat="47.52803" lon="1.714653">
        <ele>131.0</ele>
        <time>2022-03-31T08:46:18Z</time>
      </trkpt>
      <trkpt lat="47.528034" lon="1.714627">
        <ele>131.0</ele>
        <time>2022-03-31T08:46:19Z</time>
      </trkpt>
      <trkpt lat="47.528038" lon="1.7146049">
        <ele>130.0</ele>
        <time>2022-03-31T08:46:20Z</time>
      </trkpt>
      <trkpt lat="47.52804" lon="1.7145857">
        <ele>130.0</ele>
        <time>2022-03-31T08:46:21Z</time>
      </trkpt>
      <trkpt lat="47.52804" lon="1.7145708">
        <ele>130.0</ele>
        <time>2022-03-31T08:46:22Z</time>
      </trkpt>
      <trkpt lat="47.528046" lon="1.714552">
        <ele>130.0</ele>
        <time>2022-03-31T08:46:23Z</time>
      </trkpt>
      <trkpt lat="47.52805" lon="1.7145324">
        <ele>130.0</ele>
        <time>2022-03-31T08:46:24Z</time>
      </trkpt>
      <trkpt lat="47.528053" lon="1.7145158">
        <ele>130.0</ele>
        <time>2022-03-31T08:46:25Z</time>
      </trkpt>
      <trkpt lat="47.528053" lon="1.7144955">
        <ele>130.0</ele>
        <time>2022-03-31T08:46:26Z</time>
      </trkpt>
      <trkpt lat="47.528053" lon="1.7144732">
        <ele>130.0</ele>
        <time>2022-03-31T08:46:27Z</time>
      </trkpt>
      <trkpt lat="47.528053" lon="1.7144512">
        <ele>129.0</ele>
        <time>2022-03-31T08:46:28Z</time>
      </trkpt>
      <trkpt lat="47.528057" lon="1.7144313">
        <ele>129.0</ele>
        <time>2022-03-31T08:46:29Z</time>
      </trkpt>
      <trkpt lat="47.52806" lon="1.7144105">
        <ele>129.0</ele>
        <time>2022-03-31T08:46:30Z</time>
      </trkpt>
      <trkpt lat="47.52807" lon="1.7143905">
        <ele>129.0</ele>
        <time>2022-03-31T08:46:31Z</time>
      </trkpt>
      <trkpt lat="47.528076" lon="1.7143718">
        <ele>128.0</ele>
        <time>2022-03-31T08:46:32Z</time>
      </trkpt>
      <trkpt lat="47.52808" lon="1.7143526">
        <ele>128.0</ele>
        <time>2022-03-31T08:46:33Z</time>
      </trkpt>
      <trkpt lat="47.52808" lon="1.7143327">
        <ele>128.0</ele>
        <time>2022-03-31T08:46:34Z</time>
      </trkpt>
      <trkpt lat="47.528084" lon="1.7143114">
        <ele>128.0</ele>
        <time>2022-03-31T08:46:35Z</time>
      </trkpt>
      <trkpt lat="47.52808" lon="1.714295">
        <ele>128.0</ele>
        <time>2022-03-31T08:46:36Z</time>
      </trkpt>
      <trkpt lat="47.52808" lon="1.714277">
        <ele>128.0</ele>
        <time>2022-03-31T08:46:37Z</time>
      </trkpt>
      <trkpt lat="47.52808" lon="1.7142566">
        <ele>128.0</ele>
        <time>2022-03-31T08:46:38Z</time>
      </trkpt>
      <trkpt lat="47.52808" lon="1.714239">
        <ele>128.0</ele>
        <time>2022-03-31T08:46:39Z</time>
      </trkpt>
      <trkpt lat="47.528076" lon="1.7142231">
        <ele>127.0</ele>
        <time>2022-03-31T08:46:40Z</time>
      </trkpt>
      <trkpt lat="47.528076" lon="1.7142076">
        <ele>127.0</ele>
        <time>2022-03-31T08:46:41Z</time>
      </trkpt>
      <trkpt lat="47.528076" lon="1.7141908">
        <ele>127.0</ele>
        <time>2022-03-31T08:46:42Z</time>
      </trkpt>
      <trkpt lat="47.528072" lon="1.7141715">
        <ele>127.0</ele>
        <time>2022-03-31T08:46:43Z</time>
      </trkpt>
      <trkpt lat="47.528072" lon="1.7141497">
        <ele>127.0</ele>
        <time>2022-03-31T08:46:44Z</time>
      </trkpt>
      <trkpt lat="47.52807" lon="1.7141324">
        <ele>127.0</ele>
        <time>2022-03-31T08:46:45Z</time>
      </trkpt>
      <trkpt lat="47.52807" lon="1.7141172">
        <ele>127.0</ele>
        <time>2022-03-31T08:46:46Z</time>
      </trkpt>
      <trkpt lat="47.52806" lon="1.7140994">
        <ele>127.0</ele>
        <time>2022-03-31T08:46:47Z</time>
      </trkpt>
      <trkpt lat="47.528065" lon="1.7140836">
        <ele>127.0</ele>
        <time>2022-03-31T08:46:48Z</time>
      </trkpt>
      <trkpt lat="47.52807" lon="1.7140658">
        <ele>127.0</ele>
        <time>2022-03-31T08:46:49Z</time>
      </trkpt>
      <trkpt lat="47.52807" lon="1.7140487">
        <ele>126.0</ele>
        <time>2022-03-31T08:46:50Z</time>
      </trkpt>
      <trkpt lat="47.528065" lon="1.7140286">
        <ele>127.0</ele>
        <time>2022-03-31T08:46:51Z</time>
      </trkpt>
      <trkpt lat="47.528065" lon="1.7140064">
        <ele>127.0</ele>
        <time>2022-03-31T08:46:52Z</time>
      </trkpt>
      <trkpt lat="47.528065" lon="1.7139854">
        <ele>127.0</ele>
        <time>2022-03-31T08:46:53Z</time>
      </trkpt>
      <trkpt lat="47.528065" lon="1.7139661">
        <ele>127.0</ele>
        <time>2022-03-31T08:46:54Z</time>
      </trkpt>
      <trkpt lat="47.52806" lon="1.7139455">
        <ele>126.0</ele>
        <time>2022-03-31T08:46:55Z</time>
      </trkpt>
      <trkpt lat="47.528057" lon="1.7139218">
        <ele>127.0</ele>
        <time>2022-03-31T08:46:56Z</time>
      </trkpt>
      <trkpt lat="47.528057" lon="1.7139012">
        <ele>127.0</ele>
        <time>2022-03-31T08:46:57Z</time>
      </trkpt>
      <trkpt lat="47.528053" lon="1.7138832">
        <ele>127.0</ele>
        <time>2022-03-31T08:46:58Z</time>
      </trkpt>
      <trkpt lat="47.52805" lon="1.7138648">
        <ele>126.0</ele>
        <time>2022-03-31T08:46:59Z</time>
      </trkpt>
      <trkpt lat="47.52805" lon="1.7138481">
        <ele>126.0</ele>
        <time>2022-03-31T08:47:00Z</time>
      </trkpt>
      <trkpt lat="47.52805" lon="1.7138304">
        <ele>126.0</ele>
        <time>2022-03-31T08:47:01Z</time>
      </trkpt>
      <trkpt lat="47.52805" lon="1.7138114">
        <ele>126.0</ele>
        <time>2022-03-31T08:47:02Z</time>
      </trkpt>
      <trkpt lat="47.52805" lon="1.7137954">
        <ele>126.0</ele>
        <time>2022-03-31T08:47:03Z</time>
      </trkpt>
      <trkpt lat="47.528053" lon="1.7137774">
        <ele>126.0</ele>
        <time>2022-03-31T08:47:04Z</time>
      </trkpt>
      <trkpt lat="47.528057" lon="1.7137555">
        <ele>125.0</ele>
        <time>2022-03-31T08:47:05Z</time>
      </trkpt>
      <trkpt lat="47.528053" lon="1.713738">
        <ele>126.0</ele>
        <time>2022-03-31T08:47:06Z</time>
      </trkpt>
      <trkpt lat="47.52805" lon="1.7137219">
        <ele>126.0</ele>
        <time>2022-03-31T08:47:07Z</time>
      </trkpt>
      <trkpt lat="47.528046" lon="1.7137033">
        <ele>126.0</ele>
        <time>2022-03-31T08:47:08Z</time>
      </trkpt>
      <trkpt lat="47.528046" lon="1.7136819">
        <ele>126.0</ele>
        <time>2022-03-31T08:47:09Z</time>
      </trkpt>
      <trkpt lat="47.528046" lon="1.7136643">
        <ele>126.0</ele>
        <time>2022-03-31T08:47:10Z</time>
      </trkpt>
      <trkpt lat="47.528046" lon="1.7136502">
        <ele>127.0</ele>
        <time>2022-03-31T08:47:11Z</time>
      </trkpt>
      <trkpt lat="47.528046" lon="1.7136321">
        <ele>127.0</ele>
        <time>2022-03-31T08:47:12Z</time>
      </trkpt>
      <trkpt lat="47.528046" lon="1.7136141">
        <ele>127.0</ele>
        <time>2022-03-31T08:47:13Z</time>
      </trkpt>
      <trkpt lat="47.52804" lon="1.7135952">
        <ele>127.0</ele>
        <time>2022-03-31T08:47:14Z</time>
      </trkpt>
      <trkpt lat="47.52804" lon="1.7135757">
        <ele>127.0</ele>
        <time>2022-03-31T08:47:15Z</time>
      </trkpt>
      <trkpt lat="47.528038" lon="1.7135514">
        <ele>127.0</ele>
        <time>2022-03-31T08:47:16Z</time>
      </trkpt>
      <trkpt lat="47.528038" lon="1.7135311">
        <ele>127.0</ele>
        <time>2022-03-31T08:47:17Z</time>
      </trkpt>
      <trkpt lat="47.528038" lon="1.7135094">
        <ele>127.0</ele>
        <time>2022-03-31T08:47:18Z</time>
      </trkpt>
      <trkpt lat="47.528038" lon="1.7134912">
        <ele>127.0</ele>
        <time>2022-03-31T08:47:19Z</time>
      </trkpt>
      <trkpt lat="47.528038" lon="1.713472">
        <ele>127.0</ele>
        <time>2022-03-31T08:47:20Z</time>
      </trkpt>
      <trkpt lat="47.528038" lon="1.7134558">
        <ele>127.0</ele>
        <time>2022-03-31T08:47:21Z</time>
      </trkpt>
      <trkpt lat="47.528038" lon="1.7134409">
        <ele>127.0</ele>
        <time>2022-03-31T08:47:22Z</time>
      </trkpt>
      <trkpt lat="47.528038" lon="1.713422">
        <ele>128.0</ele>
        <time>2022-03-31T08:47:23Z</time>
      </trkpt>
      <trkpt lat="47.528038" lon="1.7134063">
        <ele>128.0</ele>
        <time>2022-03-31T08:47:24Z</time>
      </trkpt>
      <trkpt lat="47.528038" lon="1.7133878">
        <ele>127.0</ele>
        <time>2022-03-31T08:47:25Z</time>
      </trkpt>
      <trkpt lat="47.528038" lon="1.7133749">
        <ele>127.0</ele>
        <time>2022-03-31T08:47:26Z</time>
      </trkpt>
      <trkpt lat="47.528038" lon="1.7133615">
        <ele>127.0</ele>
        <time>2022-03-31T08:47:27Z</time>
      </trkpt>
      <trkpt lat="47.528038" lon="1.71334">
        <ele>127.0</ele>
        <time>2022-03-31T08:47:28Z</time>
      </trkpt>
      <trkpt lat="47.528034" lon="1.7133218">
        <ele>127.0</ele>
        <time>2022-03-31T08:47:29Z</time>
      </trkpt>
      <trkpt lat="47.528038" lon="1.7133002">
        <ele>127.0</ele>
        <time>2022-03-31T08:47:30Z</time>
      </trkpt>
      <trkpt lat="47.528038" lon="1.713283">
        <ele>128.0</ele>
        <time>2022-03-31T08:47:31Z</time>
      </trkpt>
      <trkpt lat="47.528034" lon="1.7132648">
        <ele>128.0</ele>
        <time>2022-03-31T08:47:32Z</time>
      </trkpt>
      <trkpt lat="47.528034" lon="1.7132479">
        <ele>128.0</ele>
        <time>2022-03-31T08:47:33Z</time>
      </trkpt>
      <trkpt lat="47.528034" lon="1.7132293">
        <ele>128.0</ele>
        <time>2022-03-31T08:47:34Z</time>
      </trkpt>
      <trkpt lat="47.528038" lon="1.7132123">
        <ele>128.0</ele>
        <time>2022-03-31T08:47:35Z</time>
      </trkpt>
      <trkpt lat="47.528038" lon="1.713197">
        <ele>129.0</ele>
        <time>2022-03-31T08:47:36Z</time>
      </trkpt>
      <trkpt lat="47.528038" lon="1.7131797">
        <ele>129.0</ele>
        <time>2022-03-31T08:47:37Z</time>
      </trkpt>
      <trkpt lat="47.52804" lon="1.7131642">
        <ele>129.0</ele>
        <time>2022-03-31T08:47:38Z</time>
      </trkpt>
      <trkpt lat="47.52804" lon="1.7131518">
        <ele>129.0</ele>
        <time>2022-03-31T08:47:39Z</time>
      </trkpt>
      <trkpt lat="47.52804" lon="1.713139">
        <ele>129.0</ele>
        <time>2022-03-31T08:47:40Z</time>
      </trkpt>
      <trkpt lat="47.52804" lon="1.713124">
        <ele>129.0</ele>
        <time>2022-03-31T08:47:41Z</time>
      </trkpt>
      <trkpt lat="47.52804" lon="1.7131075">
        <ele>129.0</ele>
        <time>2022-03-31T08:47:42Z</time>
      </trkpt>
      <trkpt lat="47.52804" lon="1.7130919">
        <ele>130.0</ele>
        <time>2022-03-31T08:47:43Z</time>
      </trkpt>
      <trkpt lat="47.52804" lon="1.7130768">
        <ele>129.0</ele>
        <time>2022-03-31T08:47:44Z</time>
      </trkpt>
      <trkpt lat="47.528046" lon="1.7130585">
        <ele>129.0</ele>
        <time>2022-03-31T08:47:45Z</time>
      </trkpt>
      <trkpt lat="47.52805" lon="1.7130398">
        <ele>129.0</ele>
        <time>2022-03-31T08:47:46Z</time>
      </trkpt>
      <trkpt lat="47.528046" lon="1.713021">
        <ele>129.0</ele>
        <time>2022-03-31T08:47:47Z</time>
      </trkpt>
      <trkpt lat="47.52804" lon="1.7130016">
        <ele>129.0</ele>
        <time>2022-03-31T08:47:48Z</time>
      </trkpt>
      <trkpt lat="47.528038" lon="1.7129816">
        <ele>129.0</ele>
        <time>2022-03-31T08:47:49Z</time>
      </trkpt>
      <trkpt lat="47.52804" lon="1.7129611">
        <ele>129.0</ele>
        <time>2022-03-31T08:47:50Z</time>
      </trkpt>
      <trkpt lat="47.52804" lon="1.7129434">
        <ele>130.0</ele>
        <time>2022-03-31T08:47:51Z</time>
      </trkpt>
      <trkpt lat="47.528046" lon="1.7129245">
        <ele>130.0</ele>
        <time>2022-03-31T08:47:52Z</time>
      </trkpt>
      <trkpt lat="47.52804" lon="1.712907">
        <ele>130.0</ele>
        <time>2022-03-31T08:47:53Z</time>
      </trkpt>
      <trkpt lat="47.528046" lon="1.7128878">
        <ele>130.0</ele>
        <time>2022-03-31T08:47:54Z</time>
      </trkpt>
      <trkpt lat="47.528046" lon="1.7128696">
        <ele>130.0</ele>
        <time>2022-03-31T08:47:55Z</time>
      </trkpt>
      <trkpt lat="47.528046" lon="1.7128501">
        <ele>130.0</ele>
        <time>2022-03-31T08:47:56Z</time>
      </trkpt>
      <trkpt lat="47.528046" lon="1.7128338">
        <ele>130.0</ele>
        <time>2022-03-31T08:47:57Z</time>
      </trkpt>
      <trkpt lat="47.52805" lon="1.7128171">
        <ele>130.0</ele>
        <time>2022-03-31T08:47:58Z</time>
      </trkpt>
      <trkpt lat="47.528053" lon="1.7128023">
        <ele>130.0</ele>
        <time>2022-03-31T08:47:59Z</time>
      </trkpt>
      <trkpt lat="47.528053" lon="1.7127826">
        <ele>129.0</ele>
        <time>2022-03-31T08:48:00Z</time>
      </trkpt>
      <trkpt lat="47.52805" lon="1.7127626">
        <ele>129.0</ele>
        <time>2022-03-31T08:48:01Z</time>
      </trkpt>
      <trkpt lat="47.52805" lon="1.712743">
        <ele>129.0</ele>
        <time>2022-03-31T08:48:02Z</time>
      </trkpt>
      <trkpt lat="47.528046" lon="1.7127275">
        <ele>129.0</ele>
        <time>2022-03-31T08:48:03Z</time>
      </trkpt>
      <trkpt lat="47.52805" lon="1.712712">
        <ele>128.0</ele>
        <time>2022-03-31T08:48:04Z</time>
      </trkpt>
      <trkpt lat="47.528046" lon="1.7126949">
        <ele>128.0</ele>
        <time>2022-03-31T08:48:05Z</time>
      </trkpt>
      <trkpt lat="47.528046" lon="1.7126782">
        <ele>128.0</ele>
        <time>2022-03-31T08:48:06Z</time>
      </trkpt>
      <trkpt lat="47.528046" lon="1.7126584">
        <ele>128.0</ele>
        <time>2022-03-31T08:48:07Z</time>
      </trkpt>
      <trkpt lat="47.528046" lon="1.7126466">
        <ele>128.0</ele>
        <time>2022-03-31T08:48:08Z</time>
      </trkpt>
      <trkpt lat="47.528046" lon="1.7126262">
        <ele>128.0</ele>
        <time>2022-03-31T08:48:09Z</time>
      </trkpt>
      <trkpt lat="47.528046" lon="1.7126069">
        <ele>128.0</ele>
        <time>2022-03-31T08:48:10Z</time>
      </trkpt>
      <trkpt lat="47.52804" lon="1.7125905">
        <ele>128.0</ele>
        <time>2022-03-31T08:48:11Z</time>
      </trkpt>
      <trkpt lat="47.528046" lon="1.7125751">
        <ele>128.0</ele>
        <time>2022-03-31T08:48:12Z</time>
      </trkpt>
      <trkpt lat="47.52804" lon="1.7125587">
        <ele>128.0</ele>
        <time>2022-03-31T08:48:13Z</time>
      </trkpt>
      <trkpt lat="47.528038" lon="1.7125415">
        <ele>127.0</ele>
        <time>2022-03-31T08:48:14Z</time>
      </trkpt>
      <trkpt lat="47.52804" lon="1.7125237">
        <ele>127.0</ele>
        <time>2022-03-31T08:48:15Z</time>
      </trkpt>
      <trkpt lat="47.52804" lon="1.7125026">
        <ele>127.0</ele>
        <time>2022-03-31T08:48:16Z</time>
      </trkpt>
      <trkpt lat="47.52804" lon="1.7124814">
        <ele>127.0</ele>
        <time>2022-03-31T08:48:17Z</time>
      </trkpt>
      <trkpt lat="47.52804" lon="1.7124647">
        <ele>127.0</ele>
        <time>2022-03-31T08:48:18Z</time>
      </trkpt>
      <trkpt lat="47.52804" lon="1.7124475">
        <ele>127.0</ele>
        <time>2022-03-31T08:48:19Z</time>
      </trkpt>
      <trkpt lat="47.52804" lon="1.712429">
        <ele>127.0</ele>
        <time>2022-03-31T08:48:20Z</time>
      </trkpt>
      <trkpt lat="47.52804" lon="1.7124133">
        <ele>128.0</ele>
        <time>2022-03-31T08:48:21Z</time>
      </trkpt>
      <trkpt lat="47.52804" lon="1.7123984">
        <ele>128.0</ele>
        <time>2022-03-31T08:48:22Z</time>
      </trkpt>
      <trkpt lat="47.52804" lon="1.712379">
        <ele>128.0</ele>
        <time>2022-03-31T08:48:23Z</time>
      </trkpt>
      <trkpt lat="47.52804" lon="1.7123634">
        <ele>129.0</ele>
        <time>2022-03-31T08:48:24Z</time>
      </trkpt>
      <trkpt lat="47.528046" lon="1.7123479">
        <ele>129.0</ele>
        <time>2022-03-31T08:48:25Z</time>
      </trkpt>
      <trkpt lat="47.528046" lon="1.7123312">
        <ele>129.0</ele>
        <time>2022-03-31T08:48:26Z</time>
      </trkpt>
      <trkpt lat="47.528046" lon="1.7123138">
        <ele>129.0</ele>
        <time>2022-03-31T08:48:27Z</time>
      </trkpt>
      <trkpt lat="47.528046" lon="1.7122984">
        <ele>129.0</ele>
        <time>2022-03-31T08:48:28Z</time>
      </trkpt>
      <trkpt lat="47.528046" lon="1.7122848">
        <ele>129.0</ele>
        <time>2022-03-31T08:48:29Z</time>
      </trkpt>
      <trkpt lat="47.528046" lon="1.712267">
        <ele>129.0</ele>
        <time>2022-03-31T08:48:30Z</time>
      </trkpt>
      <trkpt lat="47.52804" lon="1.7122487">
        <ele>129.0</ele>
        <time>2022-03-31T08:48:31Z</time>
      </trkpt>
      <trkpt lat="47.528038" lon="1.7122282">
        <ele>129.0</ele>
        <time>2022-03-31T08:48:32Z</time>
      </trkpt>
      <trkpt lat="47.528038" lon="1.7122071">
        <ele>130.0</ele>
        <time>2022-03-31T08:48:33Z</time>
      </trkpt>
      <trkpt lat="47.528038" lon="1.7121927">
        <ele>129.0</ele>
        <time>2022-03-31T08:48:34Z</time>
      </trkpt>
      <trkpt lat="47.52804" lon="1.712181">
        <ele>129.0</ele>
        <time>2022-03-31T08:48:35Z</time>
      </trkpt>
      <trkpt lat="47.52804" lon="1.7121632">
        <ele>129.0</ele>
        <time>2022-03-31T08:48:36Z</time>
      </trkpt>
      <trkpt lat="47.52804" lon="1.712142">
        <ele>129.0</ele>
        <time>2022-03-31T08:48:37Z</time>
      </trkpt>
      <trkpt lat="47.52804" lon="1.7121208">
        <ele>129.0</ele>
        <time>2022-03-31T08:48:38Z</time>
      </trkpt>
      <trkpt lat="47.528038" lon="1.7121024">
        <ele>128.0</ele>
        <time>2022-03-31T08:48:39Z</time>
      </trkpt>
      <trkpt lat="47.52803" lon="1.7120824">
        <ele>128.0</ele>
        <time>2022-03-31T08:48:40Z</time>
      </trkpt>
      <trkpt lat="47.528027" lon="1.7120663">
        <ele>128.0</ele>
        <time>2022-03-31T08:48:41Z</time>
      </trkpt>
      <trkpt lat="47.528027" lon="1.7120514">
        <ele>128.0</ele>
        <time>2022-03-31T08:48:42Z</time>
      </trkpt>
      <trkpt lat="47.528027" lon="1.7120374">
        <ele>127.0</ele>
        <time>2022-03-31T08:48:43Z</time>
      </trkpt>
      <trkpt lat="47.528027" lon="1.7120217">
        <ele>127.0</ele>
        <time>2022-03-31T08:48:44Z</time>
      </trkpt>
      <trkpt lat="47.528027" lon="1.7120048">
        <ele>127.0</ele>
        <time>2022-03-31T08:48:45Z</time>
      </trkpt>
      <trkpt lat="47.528027" lon="1.7119833">
        <ele>127.0</ele>
        <time>2022-03-31T08:48:46Z</time>
      </trkpt>
      <trkpt lat="47.528027" lon="1.7119675">
        <ele>126.0</ele>
        <time>2022-03-31T08:48:47Z</time>
      </trkpt>
      <trkpt lat="47.528023" lon="1.7119484">
        <ele>126.0</ele>
        <time>2022-03-31T08:48:48Z</time>
      </trkpt>
      <trkpt lat="47.52802" lon="1.7119305">
        <ele>127.0</ele>
        <time>2022-03-31T08:48:49Z</time>
      </trkpt>
      <trkpt lat="47.52802" lon="1.7119181">
        <ele>127.0</ele>
        <time>2022-03-31T08:48:50Z</time>
      </trkpt>
      <trkpt lat="47.528015" lon="1.7119031">
        <ele>127.0</ele>
        <time>2022-03-31T08:48:51Z</time>
      </trkpt>
      <trkpt lat="47.528015" lon="1.7118856">
        <ele>127.0</ele>
        <time>2022-03-31T08:48:52Z</time>
      </trkpt>
      <trkpt lat="47.52802" lon="1.7118682">
        <ele>127.0</ele>
        <time>2022-03-31T08:48:53Z</time>
      </trkpt>
      <trkpt lat="47.528015" lon="1.7118449">
        <ele>127.0</ele>
        <time>2022-03-31T08:48:54Z</time>
      </trkpt>
      <trkpt lat="47.528015" lon="1.7118237">
        <ele>127.0</ele>
        <time>2022-03-31T08:48:55Z</time>
      </trkpt>
      <trkpt lat="47.528015" lon="1.7118006">
        <ele>127.0</ele>
        <time>2022-03-31T08:48:56Z</time>
      </trkpt>
      <trkpt lat="47.528015" lon="1.7117772">
        <ele>127.0</ele>
        <time>2022-03-31T08:48:57Z</time>
      </trkpt>
      <trkpt lat="47.528015" lon="1.7117541">
        <ele>127.0</ele>
        <time>2022-03-31T08:48:58Z</time>
      </trkpt>
      <trkpt lat="47.528015" lon="1.7117312">
        <ele>127.0</ele>
        <time>2022-03-31T08:48:59Z</time>
      </trkpt>
      <trkpt lat="47.528015" lon="1.7117088">
        <ele>127.0</ele>
        <time>2022-03-31T08:49:00Z</time>
      </trkpt>
      <trkpt lat="47.528015" lon="1.7116866">
        <ele>127.0</ele>
        <time>2022-03-31T08:49:01Z</time>
      </trkpt>
      <trkpt lat="47.52802" lon="1.7116704">
        <ele>127.0</ele>
        <time>2022-03-31T08:49:02Z</time>
      </trkpt>
      <trkpt lat="47.528023" lon="1.7116501">
        <ele>128.0</ele>
        <time>2022-03-31T08:49:03Z</time>
      </trkpt>
      <trkpt lat="47.528027" lon="1.7116363">
        <ele>127.0</ele>
        <time>2022-03-31T08:49:04Z</time>
      </trkpt>
      <trkpt lat="47.52803" lon="1.7116228">
        <ele>127.0</ele>
        <time>2022-03-31T08:49:05Z</time>
      </trkpt>
      <trkpt lat="47.52803" lon="1.7116016">
        <ele>127.0</ele>
        <time>2022-03-31T08:49:06Z</time>
      </trkpt>
      <trkpt lat="47.528034" lon="1.7115861">
        <ele>127.0</ele>
        <time>2022-03-31T08:49:07Z</time>
      </trkpt>
      <trkpt lat="47.528038" lon="1.7115686">
        <ele>127.0</ele>
        <time>2022-03-31T08:49:08Z</time>
      </trkpt>
      <trkpt lat="47.528038" lon="1.7115505">
        <ele>127.0</ele>
        <time>2022-03-31T08:49:09Z</time>
      </trkpt>
      <trkpt lat="47.52804" lon="1.7115327">
        <ele>127.0</ele>
        <time>2022-03-31T08:49:10Z</time>
      </trkpt>
      <trkpt lat="47.528046" lon="1.7115146">
        <ele>127.0</ele>
        <time>2022-03-31T08:49:11Z</time>
      </trkpt>
      <trkpt lat="47.528046" lon="1.7114987">
        <ele>128.0</ele>
        <time>2022-03-31T08:49:12Z</time>
      </trkpt>
      <trkpt lat="47.52805" lon="1.7114822">
        <ele>128.0</ele>
        <time>2022-03-31T08:49:13Z</time>
      </trkpt>
      <trkpt lat="47.528053" lon="1.7114638">
        <ele>128.0</ele>
        <time>2022-03-31T08:49:14Z</time>
      </trkpt>
      <trkpt lat="47.528057" lon="1.7114503">
        <ele>128.0</ele>
        <time>2022-03-31T08:49:15Z</time>
      </trkpt>
      <trkpt lat="47.52806" lon="1.7114329">
        <ele>128.0</ele>
        <time>2022-03-31T08:49:16Z</time>
      </trkpt>
      <trkpt lat="47.528065" lon="1.7114127">
        <ele>128.0</ele>
        <time>2022-03-31T08:49:17Z</time>
      </trkpt>
      <trkpt lat="47.52807" lon="1.711394">
        <ele>128.0</ele>
        <time>2022-03-31T08:49:18Z</time>
      </trkpt>
      <trkpt lat="47.52807" lon="1.7113794">
        <ele>128.0</ele>
        <time>2022-03-31T08:49:19Z</time>
      </trkpt>
      <trkpt lat="47.528072" lon="1.7113619">
        <ele>129.0</ele>
        <time>2022-03-31T08:49:20Z</time>
      </trkpt>
      <trkpt lat="47.528072" lon="1.7113423">
        <ele>129.0</ele>
        <time>2022-03-31T08:49:21Z</time>
      </trkpt>
      <trkpt lat="47.528076" lon="1.7113258">
        <ele>129.0</ele>
        <time>2022-03-31T08:49:22Z</time>
      </trkpt>
      <trkpt lat="47.52808" lon="1.7113066">
        <ele>128.0</ele>
        <time>2022-03-31T08:49:23Z</time>
      </trkpt>
      <trkpt lat="47.528084" lon="1.7112873">
        <ele>128.0</ele>
        <time>2022-03-31T08:49:24Z</time>
      </trkpt>
      <trkpt lat="47.52808" lon="1.7112701">
        <ele>128.0</ele>
        <time>2022-03-31T08:49:25Z</time>
      </trkpt>
      <trkpt lat="47.528084" lon="1.7112495">
        <ele>128.0</ele>
        <time>2022-03-31T08:49:26Z</time>
      </trkpt>
      <trkpt lat="47.528088" lon="1.7112302">
        <ele>128.0</ele>
        <time>2022-03-31T08:49:27Z</time>
      </trkpt>
      <trkpt lat="47.52809" lon="1.7112099">
        <ele>128.0</ele>
        <time>2022-03-31T08:49:28Z</time>
      </trkpt>
      <trkpt lat="47.528095" lon="1.7111949">
        <ele>127.0</ele>
        <time>2022-03-31T08:49:29Z</time>
      </trkpt>
      <trkpt lat="47.528095" lon="1.7111759">
        <ele>127.0</ele>
        <time>2022-03-31T08:49:30Z</time>
      </trkpt>
      <trkpt lat="47.528095" lon="1.7111541">
        <ele>128.0</ele>
        <time>2022-03-31T08:49:31Z</time>
      </trkpt>
      <trkpt lat="47.5281" lon="1.7111334">
        <ele>128.0</ele>
        <time>2022-03-31T08:49:32Z</time>
      </trkpt>
      <trkpt lat="47.528103" lon="1.7111164">
        <ele>128.0</ele>
        <time>2022-03-31T08:49:33Z</time>
      </trkpt>
      <trkpt lat="47.528107" lon="1.7111015">
        <ele>127.0</ele>
        <time>2022-03-31T08:49:34Z</time>
      </trkpt>
      <trkpt lat="47.52811" lon="1.7110817">
        <ele>127.0</ele>
        <time>2022-03-31T08:49:35Z</time>
      </trkpt>
      <trkpt lat="47.528114" lon="1.711064">
        <ele>127.0</ele>
        <time>2022-03-31T08:49:36Z</time>
      </trkpt>
      <trkpt lat="47.528114" lon="1.7110425">
        <ele>127.0</ele>
        <time>2022-03-31T08:49:37Z</time>
      </trkpt>
      <trkpt lat="47.528114" lon="1.7110194">
        <ele>127.0</ele>
        <time>2022-03-31T08:49:38Z</time>
      </trkpt>
      <trkpt lat="47.52812" lon="1.7110008">
        <ele>126.0</ele>
        <time>2022-03-31T08:49:39Z</time>
      </trkpt>
      <trkpt lat="47.52812" lon="1.7109812">
        <ele>126.0</ele>
        <time>2022-03-31T08:49:40Z</time>
      </trkpt>
      <trkpt lat="47.52812" lon="1.7109632">
        <ele>126.0</ele>
        <time>2022-03-31T08:49:41Z</time>
      </trkpt>
      <trkpt lat="47.52812" lon="1.7109449">
        <ele>126.0</ele>
        <time>2022-03-31T08:49:42Z</time>
      </trkpt>
      <trkpt lat="47.528122" lon="1.7109249">
        <ele>126.0</ele>
        <time>2022-03-31T08:49:43Z</time>
      </trkpt>
      <trkpt lat="47.528126" lon="1.7109085">
        <ele>125.0</ele>
        <time>2022-03-31T08:49:44Z</time>
      </trkpt>
      <trkpt lat="47.528122" lon="1.7108921">
        <ele>125.0</ele>
        <time>2022-03-31T08:49:45Z</time>
      </trkpt>
      <trkpt lat="47.528122" lon="1.7108763">
        <ele>125.0</ele>
        <time>2022-03-31T08:49:46Z</time>
      </trkpt>
      <trkpt lat="47.528126" lon="1.7108555">
        <ele>125.0</ele>
        <time>2022-03-31T08:49:47Z</time>
      </trkpt>
      <trkpt lat="47.52813" lon="1.710836">
        <ele>125.0</ele>
        <time>2022-03-31T08:49:48Z</time>
      </trkpt>
      <trkpt lat="47.528133" lon="1.7108138">
        <ele>125.0</ele>
        <time>2022-03-31T08:49:49Z</time>
      </trkpt>
      <trkpt lat="47.528133" lon="1.7107934">
        <ele>125.0</ele>
        <time>2022-03-31T08:49:50Z</time>
      </trkpt>
      <trkpt lat="47.52813" lon="1.7107772">
        <ele>125.0</ele>
        <time>2022-03-31T08:49:51Z</time>
      </trkpt>
      <trkpt lat="47.52813" lon="1.7107636">
        <ele>125.0</ele>
        <time>2022-03-31T08:49:52Z</time>
      </trkpt>
      <trkpt lat="47.52813" lon="1.7107497">
        <ele>125.0</ele>
        <time>2022-03-31T08:49:53Z</time>
      </trkpt>
      <trkpt lat="47.52813" lon="1.7107308">
        <ele>125.0</ele>
        <time>2022-03-31T08:49:54Z</time>
      </trkpt>
      <trkpt lat="47.52813" lon="1.7107139">
        <ele>124.0</ele>
        <time>2022-03-31T08:49:55Z</time>
      </trkpt>
      <trkpt lat="47.528126" lon="1.710699">
        <ele>124.0</ele>
        <time>2022-03-31T08:49:56Z</time>
      </trkpt>
      <trkpt lat="47.528122" lon="1.7106876">
        <ele>124.0</ele>
        <time>2022-03-31T08:49:57Z</time>
      </trkpt>
      <trkpt lat="47.528122" lon="1.7106748">
        <ele>124.0</ele>
        <time>2022-03-31T08:49:58Z</time>
      </trkpt>
      <trkpt lat="47.528122" lon="1.7106583">
        <ele>124.0</ele>
        <time>2022-03-31T08:49:59Z</time>
      </trkpt>
      <trkpt lat="47.52812" lon="1.7106466">
        <ele>124.0</ele>
        <time>2022-03-31T08:50:00Z</time>
      </trkpt>
      <trkpt lat="47.52812" lon="1.7106466">
        <ele>124.0</ele>
        <time>2022-03-31T08:50:01Z</time>
      </trkpt>
      <trkpt lat="47.52812" lon="1.7106466">
        <ele>124.0</ele>
        <time>2022-03-31T08:50:02Z</time>
      </trkpt>
      <trkpt lat="47.528114" lon="1.7106082">
        <ele>123.0</ele>
        <time>2022-03-31T08:50:03Z</time>
      </trkpt>
      <trkpt lat="47.528114" lon="1.7105956">
        <ele>123.0</ele>
        <time>2022-03-31T08:50:04Z</time>
      </trkpt>
      <trkpt lat="47.528114" lon="1.7105807">
        <ele>122.0</ele>
        <time>2022-03-31T08:50:05Z</time>
      </trkpt>
      <trkpt lat="47.528114" lon="1.7105631">
        <ele>122.0</ele>
        <time>2022-03-31T08:50:06Z</time>
      </trkpt>
      <trkpt lat="47.52812" lon="1.7105466">
        <ele>122.0</ele>
        <time>2022-03-31T08:50:07Z</time>
      </trkpt>
      <trkpt lat="47.528114" lon="1.7105337">
        <ele>122.0</ele>
        <time>2022-03-31T08:50:08Z</time>
      </trkpt>
      <trkpt lat="47.52811" lon="1.7105176">
        <ele>122.0</ele>
        <time>2022-03-31T08:50:09Z</time>
      </trkpt>
      <trkpt lat="47.528107" lon="1.7104983">
        <ele>122.0</ele>
        <time>2022-03-31T08:50:10Z</time>
      </trkpt>
      <trkpt lat="47.528103" lon="1.7104794">
        <ele>122.0</ele>
        <time>2022-03-31T08:50:11Z</time>
      </trkpt>
      <trkpt lat="47.5281" lon="1.7104634">
        <ele>121.0</ele>
        <time>2022-03-31T08:50:12Z</time>
      </trkpt>
      <trkpt lat="47.528095" lon="1.7104465">
        <ele>121.0</ele>
        <time>2022-03-31T08:50:13Z</time>
      </trkpt>
      <trkpt lat="47.52809" lon="1.710431">
        <ele>121.0</ele>
        <time>2022-03-31T08:50:14Z</time>
      </trkpt>
      <trkpt lat="47.52809" lon="1.7104107">
        <ele>120.0</ele>
        <time>2022-03-31T08:50:15Z</time>
      </trkpt>
      <trkpt lat="47.528088" lon="1.7103884">
        <ele>120.0</ele>
        <time>2022-03-31T08:50:16Z</time>
      </trkpt>
      <trkpt lat="47.528084" lon="1.710371">
        <ele>120.0</ele>
        <time>2022-03-31T08:50:17Z</time>
      </trkpt>
      <trkpt lat="47.528088" lon="1.7103544">
        <ele>119.0</ele>
        <time>2022-03-31T08:50:18Z</time>
      </trkpt>
      <trkpt lat="47.528088" lon="1.7103375">
        <ele>119.0</ele>
        <time>2022-03-31T08:50:19Z</time>
      </trkpt>
      <trkpt lat="47.52808" lon="1.7103173">
        <ele>119.0</ele>
        <time>2022-03-31T08:50:20Z</time>
      </trkpt>
      <trkpt lat="47.528072" lon="1.7102932">
        <ele>118.0</ele>
        <time>2022-03-31T08:50:21Z</time>
      </trkpt>
      <trkpt lat="47.52807" lon="1.710271">
        <ele>118.0</ele>
        <time>2022-03-31T08:50:22Z</time>
      </trkpt>
      <trkpt lat="47.52807" lon="1.7102476">
        <ele>118.0</ele>
        <time>2022-03-31T08:50:23Z</time>
      </trkpt>
      <trkpt lat="47.528065" lon="1.7102265">
        <ele>118.0</ele>
        <time>2022-03-31T08:50:24Z</time>
      </trkpt>
      <trkpt lat="47.528057" lon="1.7102069">
        <ele>118.0</ele>
        <time>2022-03-31T08:50:25Z</time>
      </trkpt>
      <trkpt lat="47.528053" lon="1.7101908">
        <ele>118.0</ele>
        <time>2022-03-31T08:50:26Z</time>
      </trkpt>
      <trkpt lat="47.52805" lon="1.7101738">
        <ele>118.0</ele>
        <time>2022-03-31T08:50:27Z</time>
      </trkpt>
      <trkpt lat="47.52805" lon="1.7101593">
        <ele>118.0</ele>
        <time>2022-03-31T08:50:28Z</time>
      </trkpt>
      <trkpt lat="47.528046" lon="1.7101415">
        <ele>117.0</ele>
        <time>2022-03-31T08:50:29Z</time>
      </trkpt>
      <trkpt lat="47.52804" lon="1.7101241">
        <ele>117.0</ele>
        <time>2022-03-31T08:50:30Z</time>
      </trkpt>
      <trkpt lat="47.528034" lon="1.7101097">
        <ele>117.0</ele>
        <time>2022-03-31T08:50:31Z</time>
      </trkpt>
      <trkpt lat="47.52803" lon="1.7100943">
        <ele>117.0</ele>
        <time>2022-03-31T08:50:32Z</time>
      </trkpt>
      <trkpt lat="47.52803" lon="1.7100782">
        <ele>117.0</ele>
        <time>2022-03-31T08:50:33Z</time>
      </trkpt>
      <trkpt lat="47.52803" lon="1.7100782">
        <ele>117.0</ele>
        <time>2022-03-31T08:50:34Z</time>
      </trkpt>
      <trkpt lat="47.52803" lon="1.7100782">
        <ele>117.0</ele>
        <time>2022-03-31T08:50:35Z</time>
      </trkpt>
      <trkpt lat="47.528034" lon="1.7100369">
        <ele>117.0</ele>
        <time>2022-03-31T08:50:36Z</time>
      </trkpt>
      <trkpt lat="47.528038" lon="1.7100195">
        <ele>117.0</ele>
        <time>2022-03-31T08:50:37Z</time>
      </trkpt>
      <trkpt lat="47.52804" lon="1.7099985">
        <ele>117.0</ele>
        <time>2022-03-31T08:50:38Z</time>
      </trkpt>
      <trkpt lat="47.528046" lon="1.7099749">
        <ele>117.0</ele>
        <time>2022-03-31T08:50:39Z</time>
      </trkpt>
      <trkpt lat="47.52804" lon="1.709951">
        <ele>117.0</ele>
        <time>2022-03-31T08:50:40Z</time>
      </trkpt>
      <trkpt lat="47.528038" lon="1.7099313">
        <ele>117.0</ele>
        <time>2022-03-31T08:50:41Z</time>
      </trkpt>
      <trkpt lat="47.528038" lon="1.7099098">
        <ele>117.0</ele>
        <time>2022-03-31T08:50:42Z</time>
      </trkpt>
      <trkpt lat="47.528038" lon="1.709892">
        <ele>117.0</ele>
        <time>2022-03-31T08:50:43Z</time>
      </trkpt>
      <trkpt lat="47.528034" lon="1.7098775">
        <ele>116.0</ele>
        <time>2022-03-31T08:50:44Z</time>
      </trkpt>
      <trkpt lat="47.528034" lon="1.7098607">
        <ele>116.0</ele>
        <time>2022-03-31T08:50:45Z</time>
      </trkpt>
      <trkpt lat="47.52803" lon="1.7098417">
        <ele>116.0</ele>
        <time>2022-03-31T08:50:46Z</time>
      </trkpt>
      <trkpt lat="47.52803" lon="1.70982">
        <ele>116.0</ele>
        <time>2022-03-31T08:50:47Z</time>
      </trkpt>
      <trkpt lat="47.528027" lon="1.7097988">
        <ele>117.0</ele>
        <time>2022-03-31T08:50:48Z</time>
      </trkpt>
      <trkpt lat="47.528023" lon="1.7097842">
        <ele>117.0</ele>
        <time>2022-03-31T08:50:49Z</time>
      </trkpt>
      <trkpt lat="47.52802" lon="1.7097666">
        <ele>117.0</ele>
        <time>2022-03-31T08:50:50Z</time>
      </trkpt>
      <trkpt lat="47.52801" lon="1.7097566">
        <ele>117.0</ele>
        <time>2022-03-31T08:50:51Z</time>
      </trkpt>
      <trkpt lat="47.52801" lon="1.7097331">
        <ele>117.0</ele>
        <time>2022-03-31T08:50:52Z</time>
      </trkpt>
      <trkpt lat="47.528008" lon="1.7097136">
        <ele>117.0</ele>
        <time>2022-03-31T08:50:53Z</time>
      </trkpt>
      <trkpt lat="47.528008" lon="1.7096975">
        <ele>117.0</ele>
        <time>2022-03-31T08:50:54Z</time>
      </trkpt>
      <trkpt lat="47.52801" lon="1.7096821">
        <ele>117.0</ele>
        <time>2022-03-31T08:50:55Z</time>
      </trkpt>
      <trkpt lat="47.528008" lon="1.7096645">
        <ele>117.0</ele>
        <time>2022-03-31T08:50:56Z</time>
      </trkpt>
      <trkpt lat="47.528004" lon="1.7096438">
        <ele>117.0</ele>
        <time>2022-03-31T08:50:57Z</time>
      </trkpt>
      <trkpt lat="47.528004" lon="1.7096249">
        <ele>117.0</ele>
        <time>2022-03-31T08:50:58Z</time>
      </trkpt>
      <trkpt lat="47.528004" lon="1.7096052">
        <ele>117.0</ele>
        <time>2022-03-31T08:50:59Z</time>
      </trkpt>
      <trkpt lat="47.528" lon="1.7095884">
        <ele>117.0</ele>
        <time>2022-03-31T08:51:00Z</time>
      </trkpt>
      <trkpt lat="47.528" lon="1.7095779">
        <ele>117.0</ele>
        <time>2022-03-31T08:51:01Z</time>
      </trkpt>
      <trkpt lat="47.528" lon="1.7095661">
        <ele>117.0</ele>
        <time>2022-03-31T08:51:02Z</time>
      </trkpt>
      <trkpt lat="47.527996" lon="1.7095491">
        <ele>117.0</ele>
        <time>2022-03-31T08:51:03Z</time>
      </trkpt>
      <trkpt lat="47.527992" lon="1.7095295">
        <ele>117.0</ele>
        <time>2022-03-31T08:51:04Z</time>
      </trkpt>
      <trkpt lat="47.527992" lon="1.7095103">
        <ele>117.0</ele>
        <time>2022-03-31T08:51:05Z</time>
      </trkpt>
      <trkpt lat="47.527992" lon="1.7094895">
        <ele>117.0</ele>
        <time>2022-03-31T08:51:06Z</time>
      </trkpt>
      <trkpt lat="47.527992" lon="1.7094694">
        <ele>117.0</ele>
        <time>2022-03-31T08:51:07Z</time>
      </trkpt>
      <trkpt lat="47.52799" lon="1.709449">
        <ele>117.0</ele>
        <time>2022-03-31T08:51:08Z</time>
      </trkpt>
      <trkpt lat="47.52799" lon="1.709428">
        <ele>117.0</ele>
        <time>2022-03-31T08:51:09Z</time>
      </trkpt>
      <trkpt lat="47.527985" lon="1.7094061">
        <ele>118.0</ele>
        <time>2022-03-31T08:51:10Z</time>
      </trkpt>
      <trkpt lat="47.527985" lon="1.7093878">
        <ele>118.0</ele>
        <time>2022-03-31T08:51:11Z</time>
      </trkpt>
      <trkpt lat="47.52798" lon="1.709368">
        <ele>118.0</ele>
        <time>2022-03-31T08:51:12Z</time>
      </trkpt>
      <trkpt lat="47.527977" lon="1.7093437">
        <ele>118.0</ele>
        <time>2022-03-31T08:51:13Z</time>
      </trkpt>
      <trkpt lat="47.527977" lon="1.7093182">
        <ele>118.0</ele>
        <time>2022-03-31T08:51:14Z</time>
      </trkpt>
      <trkpt lat="47.527977" lon="1.709298">
        <ele>118.0</ele>
        <time>2022-03-31T08:51:15Z</time>
      </trkpt>
      <trkpt lat="47.527977" lon="1.7092808">
        <ele>118.0</ele>
        <time>2022-03-31T08:51:16Z</time>
      </trkpt>
      <trkpt lat="47.527977" lon="1.7092652">
        <ele>118.0</ele>
        <time>2022-03-31T08:51:17Z</time>
      </trkpt>
      <trkpt lat="47.527977" lon="1.7092506">
        <ele>118.0</ele>
        <time>2022-03-31T08:51:18Z</time>
      </trkpt>
      <trkpt lat="47.527977" lon="1.7092317">
        <ele>119.0</ele>
        <time>2022-03-31T08:51:19Z</time>
      </trkpt>
      <trkpt lat="47.527966" lon="1.7092174">
        <ele>118.0</ele>
        <time>2022-03-31T08:51:20Z</time>
      </trkpt>
      <trkpt lat="47.52796" lon="1.7092013">
        <ele>118.0</ele>
        <time>2022-03-31T08:51:21Z</time>
      </trkpt>
      <trkpt lat="47.527958" lon="1.7091862">
        <ele>118.0</ele>
        <time>2022-03-31T08:51:22Z</time>
      </trkpt>
      <trkpt lat="47.52795" lon="1.7091703">
        <ele>118.0</ele>
        <time>2022-03-31T08:51:23Z</time>
      </trkpt>
      <trkpt lat="47.52795" lon="1.7091552">
        <ele>118.0</ele>
        <time>2022-03-31T08:51:24Z</time>
      </trkpt>
      <trkpt lat="47.527943" lon="1.7091376">
        <ele>117.0</ele>
        <time>2022-03-31T08:51:25Z</time>
      </trkpt>
      <trkpt lat="47.527943" lon="1.7091179">
        <ele>118.0</ele>
        <time>2022-03-31T08:51:26Z</time>
      </trkpt>
      <trkpt lat="47.527943" lon="1.7091">
        <ele>118.0</ele>
        <time>2022-03-31T08:51:27Z</time>
      </trkpt>
      <trkpt lat="47.527943" lon="1.7090833">
        <ele>117.0</ele>
        <time>2022-03-31T08:51:28Z</time>
      </trkpt>
      <trkpt lat="47.527946" lon="1.7090635">
        <ele>117.0</ele>
        <time>2022-03-31T08:51:29Z</time>
      </trkpt>
      <trkpt lat="47.527943" lon="1.7090453">
        <ele>117.0</ele>
        <time>2022-03-31T08:51:30Z</time>
      </trkpt>
      <trkpt lat="47.52794" lon="1.7090223">
        <ele>117.0</ele>
        <time>2022-03-31T08:51:31Z</time>
      </trkpt>
      <trkpt lat="47.527935" lon="1.7089981">
        <ele>117.0</ele>
        <time>2022-03-31T08:51:32Z</time>
      </trkpt>
      <trkpt lat="47.52793" lon="1.7089775">
        <ele>118.0</ele>
        <time>2022-03-31T08:51:33Z</time>
      </trkpt>
      <trkpt lat="47.52793" lon="1.7089574">
        <ele>118.0</ele>
        <time>2022-03-31T08:51:34Z</time>
      </trkpt>
      <trkpt lat="47.52793" lon="1.7089374">
        <ele>118.0</ele>
        <time>2022-03-31T08:51:35Z</time>
      </trkpt>
      <trkpt lat="47.52793" lon="1.7089165">
        <ele>117.0</ele>
        <time>2022-03-31T08:51:36Z</time>
      </trkpt>
      <trkpt lat="47.527927" lon="1.7088946">
        <ele>118.0</ele>
        <time>2022-03-31T08:51:37Z</time>
      </trkpt>
      <trkpt lat="47.527927" lon="1.7088747">
        <ele>118.0</ele>
        <time>2022-03-31T08:51:38Z</time>
      </trkpt>
      <trkpt lat="47.527927" lon="1.7088536">
        <ele>118.0</ele>
        <time>2022-03-31T08:51:39Z</time>
      </trkpt>
      <trkpt lat="47.527924" lon="1.7088383">
        <ele>118.0</ele>
        <time>2022-03-31T08:51:40Z</time>
      </trkpt>
      <trkpt lat="47.52792" lon="1.7088181">
        <ele>118.0</ele>
        <time>2022-03-31T08:51:41Z</time>
      </trkpt>
      <trkpt lat="47.52792" lon="1.7087973">
        <ele>118.0</ele>
        <time>2022-03-31T08:51:42Z</time>
      </trkpt>
      <trkpt lat="47.527916" lon="1.7087752">
        <ele>118.0</ele>
        <time>2022-03-31T08:51:43Z</time>
      </trkpt>
      <trkpt lat="47.527912" lon="1.708753">
        <ele>118.0</ele>
        <time>2022-03-31T08:51:44Z</time>
      </trkpt>
      <trkpt lat="47.527916" lon="1.7087307">
        <ele>119.0</ele>
        <time>2022-03-31T08:51:45Z</time>
      </trkpt>
      <trkpt lat="47.527912" lon="1.7087129">
        <ele>119.0</ele>
        <time>2022-03-31T08:51:46Z</time>
      </trkpt>
      <trkpt lat="47.52791" lon="1.7086936">
        <ele>119.0</ele>
        <time>2022-03-31T08:51:47Z</time>
      </trkpt>
      <trkpt lat="47.52791" lon="1.7086746">
        <ele>119.0</ele>
        <time>2022-03-31T08:51:48Z</time>
      </trkpt>
      <trkpt lat="47.527905" lon="1.7086556">
        <ele>119.0</ele>
        <time>2022-03-31T08:51:49Z</time>
      </trkpt>
      <trkpt lat="47.527905" lon="1.708647">
        <ele>120.0</ele>
        <time>2022-03-31T08:51:50Z</time>
      </trkpt>
      <trkpt lat="47.527897" lon="1.7086359">
        <ele>119.0</ele>
        <time>2022-03-31T08:51:51Z</time>
      </trkpt>
      <trkpt lat="47.527897" lon="1.7086186">
        <ele>119.0</ele>
        <time>2022-03-31T08:51:52Z</time>
      </trkpt>
      <trkpt lat="47.527897" lon="1.7086014">
        <ele>119.0</ele>
        <time>2022-03-31T08:51:53Z</time>
      </trkpt>
      <trkpt lat="47.527893" lon="1.7085826">
        <ele>119.0</ele>
        <time>2022-03-31T08:51:54Z</time>
      </trkpt>
      <trkpt lat="47.52789" lon="1.7085587">
        <ele>119.0</ele>
        <time>2022-03-31T08:51:55Z</time>
      </trkpt>
      <trkpt lat="47.52789" lon="1.7085382">
        <ele>119.0</ele>
        <time>2022-03-31T08:51:56Z</time>
      </trkpt>
      <trkpt lat="47.527885" lon="1.7085276">
        <ele>119.0</ele>
        <time>2022-03-31T08:51:57Z</time>
      </trkpt>
      <trkpt lat="47.52788" lon="1.7085124">
        <ele>119.0</ele>
        <time>2022-03-31T08:51:58Z</time>
      </trkpt>
      <trkpt lat="47.527878" lon="1.7084999">
        <ele>120.0</ele>
        <time>2022-03-31T08:51:59Z</time>
      </trkpt>
      <trkpt lat="47.527874" lon="1.7084826">
        <ele>120.0</ele>
        <time>2022-03-31T08:52:00Z</time>
      </trkpt>
      <trkpt lat="47.527866" lon="1.7084653">
        <ele>120.0</ele>
        <time>2022-03-31T08:52:01Z</time>
      </trkpt>
      <trkpt lat="47.527863" lon="1.7084457">
        <ele>120.0</ele>
        <time>2022-03-31T08:52:02Z</time>
      </trkpt>
      <trkpt lat="47.527863" lon="1.7084224">
        <ele>120.0</ele>
        <time>2022-03-31T08:52:03Z</time>
      </trkpt>
      <trkpt lat="47.527866" lon="1.7083989">
        <ele>120.0</ele>
        <time>2022-03-31T08:52:04Z</time>
      </trkpt>
      <trkpt lat="47.527863" lon="1.7083795">
        <ele>120.0</ele>
        <time>2022-03-31T08:52:05Z</time>
      </trkpt>
      <trkpt lat="47.52786" lon="1.7083625">
        <ele>120.0</ele>
        <time>2022-03-31T08:52:06Z</time>
      </trkpt>
      <trkpt lat="47.52786" lon="1.7083405">
        <ele>120.0</ele>
        <time>2022-03-31T08:52:07Z</time>
      </trkpt>
      <trkpt lat="47.52785" lon="1.7083256">
        <ele>121.0</ele>
        <time>2022-03-31T08:52:08Z</time>
      </trkpt>
      <trkpt lat="47.527847" lon="1.7083051">
        <ele>120.0</ele>
        <time>2022-03-31T08:52:09Z</time>
      </trkpt>
      <trkpt lat="47.52785" lon="1.7082872">
        <ele>121.0</ele>
        <time>2022-03-31T08:52:10Z</time>
      </trkpt>
      <trkpt lat="47.52785" lon="1.7082679">
        <ele>121.0</ele>
        <time>2022-03-31T08:52:11Z</time>
      </trkpt>
      <trkpt lat="47.527855" lon="1.7082509">
        <ele>121.0</ele>
        <time>2022-03-31T08:52:12Z</time>
      </trkpt>
      <trkpt lat="47.527855" lon="1.7082313">
        <ele>121.0</ele>
        <time>2022-03-31T08:52:13Z</time>
      </trkpt>
      <trkpt lat="47.527863" lon="1.7082182">
        <ele>121.0</ele>
        <time>2022-03-31T08:52:14Z</time>
      </trkpt>
      <trkpt lat="47.527866" lon="1.7082063">
        <ele>122.0</ele>
        <time>2022-03-31T08:52:15Z</time>
      </trkpt>
      <trkpt lat="47.527878" lon="1.7081915">
        <ele>122.0</ele>
        <time>2022-03-31T08:52:16Z</time>
      </trkpt>
      <trkpt lat="47.527885" lon="1.7081796">
        <ele>122.0</ele>
        <time>2022-03-31T08:52:17Z</time>
      </trkpt>
      <trkpt lat="47.527893" lon="1.7081618">
        <ele>124.0</ele>
        <time>2022-03-31T08:52:18Z</time>
      </trkpt>
      <trkpt lat="47.5279" lon="1.7081525">
        <ele>124.0</ele>
        <time>2022-03-31T08:52:19Z</time>
      </trkpt>
      <trkpt lat="47.52791" lon="1.7081475">
        <ele>125.0</ele>
        <time>2022-03-31T08:52:20Z</time>
      </trkpt>
      <trkpt lat="47.527912" lon="1.7081428">
        <ele>125.0</ele>
        <time>2022-03-31T08:52:21Z</time>
      </trkpt>
      <trkpt lat="47.527916" lon="1.7081385">
        <ele>126.0</ele>
        <time>2022-03-31T08:52:22Z</time>
      </trkpt>
      <trkpt lat="47.527924" lon="1.7081357">
        <ele>126.0</ele>
        <time>2022-03-31T08:52:23Z</time>
      </trkpt>
      <trkpt lat="47.527927" lon="1.7081296">
        <ele>127.0</ele>
        <time>2022-03-31T08:52:24Z</time>
      </trkpt>
      <trkpt lat="47.52794" lon="1.7081215">
        <ele>127.0</ele>
        <time>2022-03-31T08:52:25Z</time>
      </trkpt>
      <trkpt lat="47.527946" lon="1.7081127">
        <ele>127.0</ele>
        <time>2022-03-31T08:52:26Z</time>
      </trkpt>
      <trkpt lat="47.527954" lon="1.7081109">
        <ele>127.0</ele>
        <time>2022-03-31T08:52:27Z</time>
      </trkpt>
      <trkpt lat="47.52796" lon="1.70811">
        <ele>127.0</ele>
        <time>2022-03-31T08:52:28Z</time>
      </trkpt>
      <trkpt lat="47.527973" lon="1.708106">
        <ele>128.0</ele>
        <time>2022-03-31T08:52:29Z</time>
      </trkpt>
      <trkpt lat="47.52798" lon="1.7081038">
        <ele>128.0</ele>
        <time>2022-03-31T08:52:30Z</time>
      </trkpt>
      <trkpt lat="47.527992" lon="1.708102">
        <ele>128.0</ele>
        <time>2022-03-31T08:52:31Z</time>
      </trkpt>
      <trkpt lat="47.528" lon="1.7081037">
        <ele>128.0</ele>
        <time>2022-03-31T08:52:32Z</time>
      </trkpt>
      <trkpt lat="47.528004" lon="1.7081027">
        <ele>129.0</ele>
        <time>2022-03-31T08:52:33Z</time>
      </trkpt>
      <trkpt lat="47.528008" lon="1.7081001">
        <ele>129.0</ele>
        <time>2022-03-31T08:52:34Z</time>
      </trkpt>
      <trkpt lat="47.528008" lon="1.7081001">
        <ele>129.0</ele>
        <time>2022-03-31T08:52:35Z</time>
      </trkpt>
      <trkpt lat="47.528015" lon="1.7081065">
        <ele>129.0</ele>
        <time>2022-03-31T08:52:36Z</time>
      </trkpt>
      <trkpt lat="47.528027" lon="1.7081082">
        <ele>129.0</ele>
        <time>2022-03-31T08:52:37Z</time>
      </trkpt>
      <trkpt lat="47.528038" lon="1.7081082">
        <ele>129.0</ele>
        <time>2022-03-31T08:52:38Z</time>
      </trkpt>
      <trkpt lat="47.52805" lon="1.7081004">
        <ele>128.0</ele>
        <time>2022-03-31T08:52:39Z</time>
      </trkpt>
      <trkpt lat="47.528065" lon="1.7080966">
        <ele>128.0</ele>
        <time>2022-03-31T08:52:40Z</time>
      </trkpt>
      <trkpt lat="47.52808" lon="1.7080873">
        <ele>128.0</ele>
        <time>2022-03-31T08:52:41Z</time>
      </trkpt>
      <trkpt lat="47.52809" lon="1.7080812">
        <ele>128.0</ele>
        <time>2022-03-31T08:52:42Z</time>
      </trkpt>
      <trkpt lat="47.528103" lon="1.7080754">
        <ele>128.0</ele>
        <time>2022-03-31T08:52:43Z</time>
      </trkpt>
      <trkpt lat="47.528114" lon="1.7080731">
        <ele>128.0</ele>
        <time>2022-03-31T08:52:44Z</time>
      </trkpt>
      <trkpt lat="47.528126" lon="1.7080727">
        <ele>128.0</ele>
        <time>2022-03-31T08:52:45Z</time>
      </trkpt>
      <trkpt lat="47.528137" lon="1.7080708">
        <ele>127.0</ele>
        <time>2022-03-31T08:52:46Z</time>
      </trkpt>
      <trkpt lat="47.52815" lon="1.7080686">
        <ele>127.0</ele>
        <time>2022-03-31T08:52:47Z</time>
      </trkpt>
      <trkpt lat="47.528156" lon="1.7080675">
        <ele>127.0</ele>
        <time>2022-03-31T08:52:48Z</time>
      </trkpt>
      <trkpt lat="47.528168" lon="1.7080661">
        <ele>126.0</ele>
        <time>2022-03-31T08:52:49Z</time>
      </trkpt>
      <trkpt lat="47.528183" lon="1.7080642">
        <ele>126.0</ele>
        <time>2022-03-31T08:52:50Z</time>
      </trkpt>
      <trkpt lat="47.5282" lon="1.7080615">
        <ele>126.0</ele>
        <time>2022-03-31T08:52:51Z</time>
      </trkpt>
      <trkpt lat="47.528214" lon="1.7080607">
        <ele>126.0</ele>
        <time>2022-03-31T08:52:52Z</time>
      </trkpt>
      <trkpt lat="47.528225" lon="1.7080554">
        <ele>127.0</ele>
        <time>2022-03-31T08:52:53Z</time>
      </trkpt>
      <trkpt lat="47.528236" lon="1.7080481">
        <ele>127.0</ele>
        <time>2022-03-31T08:52:54Z</time>
      </trkpt>
      <trkpt lat="47.528244" lon="1.7080379">
        <ele>127.0</ele>
        <time>2022-03-31T08:52:55Z</time>
      </trkpt>
      <trkpt lat="47.528255" lon="1.7080327">
        <ele>127.0</ele>
        <time>2022-03-31T08:52:56Z</time>
      </trkpt>
      <trkpt lat="47.528263" lon="1.7080266">
        <ele>128.0</ele>
        <time>2022-03-31T08:52:57Z</time>
      </trkpt>
      <trkpt lat="47.52828" lon="1.7080226">
        <ele>128.0</ele>
        <time>2022-03-31T08:52:58Z</time>
      </trkpt>
      <trkpt lat="47.52829" lon="1.7080222">
        <ele>128.0</ele>
        <time>2022-03-31T08:52:59Z</time>
      </trkpt>
      <trkpt lat="47.528305" lon="1.7080175">
        <ele>128.0</ele>
        <time>2022-03-31T08:53:00Z</time>
      </trkpt>
      <trkpt lat="47.528316" lon="1.708014">
        <ele>128.0</ele>
        <time>2022-03-31T08:53:01Z</time>
      </trkpt>
      <trkpt lat="47.52833" lon="1.7080134">
        <ele>128.0</ele>
        <time>2022-03-31T08:53:02Z</time>
      </trkpt>
      <trkpt lat="47.528343" lon="1.7080098">
        <ele>128.0</ele>
        <time>2022-03-31T08:53:03Z</time>
      </trkpt>
      <trkpt lat="47.52835" lon="1.7080116">
        <ele>128.0</ele>
        <time>2022-03-31T08:53:04Z</time>
      </trkpt>
      <trkpt lat="47.52836" lon="1.7080063">
        <ele>127.0</ele>
        <time>2022-03-31T08:53:05Z</time>
      </trkpt>
      <trkpt lat="47.52837" lon="1.7080011">
        <ele>127.0</ele>
        <time>2022-03-31T08:53:06Z</time>
      </trkpt>
      <trkpt lat="47.52838" lon="1.7080026">
        <ele>127.0</ele>
        <time>2022-03-31T08:53:07Z</time>
      </trkpt>
      <trkpt lat="47.528393" lon="1.7079984">
        <ele>126.0</ele>
        <time>2022-03-31T08:53:08Z</time>
      </trkpt>
      <trkpt lat="47.5284" lon="1.7079921">
        <ele>126.0</ele>
        <time>2022-03-31T08:53:09Z</time>
      </trkpt>
      <trkpt lat="47.528408" lon="1.7079904">
        <ele>126.0</ele>
        <time>2022-03-31T08:53:10Z</time>
      </trkpt>
      <trkpt lat="47.528416" lon="1.7079884">
        <ele>127.0</ele>
        <time>2022-03-31T08:53:11Z</time>
      </trkpt>
      <trkpt lat="47.528427" lon="1.7079903">
        <ele>127.0</ele>
        <time>2022-03-31T08:53:12Z</time>
      </trkpt>
      <trkpt lat="47.528435" lon="1.707987">
        <ele>126.0</ele>
        <time>2022-03-31T08:53:13Z</time>
      </trkpt>
      <trkpt lat="47.528442" lon="1.7079868">
        <ele>127.0</ele>
        <time>2022-03-31T08:53:14Z</time>
      </trkpt>
      <trkpt lat="47.528458" lon="1.7079836">
        <ele>127.0</ele>
        <time>2022-03-31T08:53:15Z</time>
      </trkpt>
      <trkpt lat="47.528473" lon="1.7079716">
        <ele>127.0</ele>
        <time>2022-03-31T08:53:16Z</time>
      </trkpt>
      <trkpt lat="47.528484" lon="1.7079663">
        <ele>127.0</ele>
        <time>2022-03-31T08:53:17Z</time>
      </trkpt>
      <trkpt lat="47.528496" lon="1.7079685">
        <ele>127.0</ele>
        <time>2022-03-31T08:53:18Z</time>
      </trkpt>
      <trkpt lat="47.528507" lon="1.7079732">
        <ele>127.0</ele>
        <time>2022-03-31T08:53:19Z</time>
      </trkpt>
      <trkpt lat="47.528522" lon="1.7079734">
        <ele>127.0</ele>
        <time>2022-03-31T08:53:20Z</time>
      </trkpt>
      <trkpt lat="47.528534" lon="1.7079701">
        <ele>126.0</ele>
        <time>2022-03-31T08:53:21Z</time>
      </trkpt>
      <trkpt lat="47.52855" lon="1.7079659">
        <ele>126.0</ele>
        <time>2022-03-31T08:53:22Z</time>
      </trkpt>
      <trkpt lat="47.52856" lon="1.7079661">
        <ele>126.0</ele>
        <time>2022-03-31T08:53:23Z</time>
      </trkpt>
      <trkpt lat="47.528576" lon="1.7079628">
        <ele>126.0</ele>
        <time>2022-03-31T08:53:24Z</time>
      </trkpt>
      <trkpt lat="47.528587" lon="1.7079552">
        <ele>126.0</ele>
        <time>2022-03-31T08:53:25Z</time>
      </trkpt>
      <trkpt lat="47.5286" lon="1.7079518">
        <ele>126.0</ele>
        <time>2022-03-31T08:53:26Z</time>
      </trkpt>
      <trkpt lat="47.52861" lon="1.7079502">
        <ele>126.0</ele>
        <time>2022-03-31T08:53:27Z</time>
      </trkpt>
      <trkpt lat="47.52862" lon="1.7079512">
        <ele>126.0</ele>
        <time>2022-03-31T08:53:28Z</time>
      </trkpt>
      <trkpt lat="47.528637" lon="1.7079556">
        <ele>126.0</ele>
        <time>2022-03-31T08:53:29Z</time>
      </trkpt>
      <trkpt lat="47.52865" lon="1.7079582">
        <ele>126.0</ele>
        <time>2022-03-31T08:53:30Z</time>
      </trkpt>
      <trkpt lat="47.528664" lon="1.7079577">
        <ele>126.0</ele>
        <time>2022-03-31T08:53:31Z</time>
      </trkpt>
      <trkpt lat="47.52868" lon="1.7079571">
        <ele>125.0</ele>
        <time>2022-03-31T08:53:32Z</time>
      </trkpt>
      <trkpt lat="47.52869" lon="1.7079545">
        <ele>125.0</ele>
        <time>2022-03-31T08:53:33Z</time>
      </trkpt>
      <trkpt lat="47.528698" lon="1.7079502">
        <ele>125.0</ele>
        <time>2022-03-31T08:53:34Z</time>
      </trkpt>
      <trkpt lat="47.528713" lon="1.7079444">
        <ele>126.0</ele>
        <time>2022-03-31T08:53:35Z</time>
      </trkpt>
      <trkpt lat="47.52873" lon="1.7079419">
        <ele>125.0</ele>
        <time>2022-03-31T08:53:36Z</time>
      </trkpt>
      <trkpt lat="47.528744" lon="1.707936">
        <ele>125.0</ele>
        <time>2022-03-31T08:53:37Z</time>
      </trkpt>
      <trkpt lat="47.52876" lon="1.7079343">
        <ele>125.0</ele>
        <time>2022-03-31T08:53:38Z</time>
      </trkpt>
      <trkpt lat="47.52877" lon="1.7079326">
        <ele>125.0</ele>
        <time>2022-03-31T08:53:39Z</time>
      </trkpt>
      <trkpt lat="47.528786" lon="1.7079303">
        <ele>125.0</ele>
        <time>2022-03-31T08:53:40Z</time>
      </trkpt>
      <trkpt lat="47.528797" lon="1.7079272">
        <ele>125.0</ele>
        <time>2022-03-31T08:53:41Z</time>
      </trkpt>
      <trkpt lat="47.52881" lon="1.7079288">
        <ele>126.0</ele>
        <time>2022-03-31T08:53:42Z</time>
      </trkpt>
      <trkpt lat="47.52882" lon="1.707931">
        <ele>126.0</ele>
        <time>2022-03-31T08:53:43Z</time>
      </trkpt>
      <trkpt lat="47.52883" lon="1.7079326">
        <ele>125.0</ele>
        <time>2022-03-31T08:53:44Z</time>
      </trkpt>
      <trkpt lat="47.528843" lon="1.7079328">
        <ele>125.0</ele>
        <time>2022-03-31T08:53:45Z</time>
      </trkpt>
      <trkpt lat="47.52885" lon="1.7079306">
        <ele>125.0</ele>
        <time>2022-03-31T08:53:46Z</time>
      </trkpt>
      <trkpt lat="47.52887" lon="1.7079226">
        <ele>124.0</ele>
        <time>2022-03-31T08:53:47Z</time>
      </trkpt>
      <trkpt lat="47.52889" lon="1.7079121">
        <ele>124.0</ele>
        <time>2022-03-31T08:53:48Z</time>
      </trkpt>
      <trkpt lat="47.528904" lon="1.7079058">
        <ele>124.0</ele>
        <time>2022-03-31T08:53:49Z</time>
      </trkpt>
      <trkpt lat="47.52892" lon="1.7078998">
        <ele>124.0</ele>
        <time>2022-03-31T08:53:50Z</time>
      </trkpt>
      <trkpt lat="47.528934" lon="1.7078874">
        <ele>124.0</ele>
        <time>2022-03-31T08:53:51Z</time>
      </trkpt>
      <trkpt lat="47.528954" lon="1.7078761">
        <ele>124.0</ele>
        <time>2022-03-31T08:53:52Z</time>
      </trkpt>
      <trkpt lat="47.52897" lon="1.7078688">
        <ele>124.0</ele>
        <time>2022-03-31T08:53:53Z</time>
      </trkpt>
      <trkpt lat="47.528984" lon="1.7078713">
        <ele>124.0</ele>
        <time>2022-03-31T08:53:54Z</time>
      </trkpt>
      <trkpt lat="47.52899" lon="1.7078729">
        <ele>125.0</ele>
        <time>2022-03-31T08:53:55Z</time>
      </trkpt>
      <trkpt lat="47.529003" lon="1.7078743">
        <ele>125.0</ele>
        <time>2022-03-31T08:53:56Z</time>
      </trkpt>
      <trkpt lat="47.52902" lon="1.7078738">
        <ele>125.0</ele>
        <time>2022-03-31T08:53:57Z</time>
      </trkpt>
      <trkpt lat="47.52903" lon="1.7078748">
        <ele>125.0</ele>
        <time>2022-03-31T08:53:58Z</time>
      </trkpt>
      <trkpt lat="47.529045" lon="1.7078713">
        <ele>126.0</ele>
        <time>2022-03-31T08:53:59Z</time>
      </trkpt>
      <trkpt lat="47.52905" lon="1.7078718">
        <ele>126.0</ele>
        <time>2022-03-31T08:54:00Z</time>
      </trkpt>
      <trkpt lat="47.529057" lon="1.7078707">
        <ele>125.0</ele>
        <time>2022-03-31T08:54:01Z</time>
      </trkpt>
      <trkpt lat="47.529068" lon="1.7078662">
        <ele>125.0</ele>
        <time>2022-03-31T08:54:02Z</time>
      </trkpt>
      <trkpt lat="47.529083" lon="1.70786">
        <ele>125.0</ele>
        <time>2022-03-31T08:54:03Z</time>
      </trkpt>
      <trkpt lat="47.529102" lon="1.7078508">
        <ele>126.0</ele>
        <time>2022-03-31T08:54:04Z</time>
      </trkpt>
      <trkpt lat="47.529114" lon="1.7078489">
        <ele>126.0</ele>
        <time>2022-03-31T08:54:05Z</time>
      </trkpt>
      <trkpt lat="47.52912" lon="1.7078488">
        <ele>125.0</ele>
        <time>2022-03-31T08:54:06Z</time>
      </trkpt>
      <trkpt lat="47.529133" lon="1.7078476">
        <ele>125.0</ele>
        <time>2022-03-31T08:54:07Z</time>
      </trkpt>
      <trkpt lat="47.529144" lon="1.7078447">
        <ele>125.0</ele>
        <time>2022-03-31T08:54:08Z</time>
      </trkpt>
      <trkpt lat="47.529152" lon="1.7078447">
        <ele>125.0</ele>
        <time>2022-03-31T08:54:09Z</time>
      </trkpt>
      <trkpt lat="47.529163" lon="1.7078496">
        <ele>125.0</ele>
        <time>2022-03-31T08:54:10Z</time>
      </trkpt>
      <trkpt lat="47.52918" lon="1.707849">
        <ele>125.0</ele>
        <time>2022-03-31T08:54:11Z</time>
      </trkpt>
      <trkpt lat="47.529186" lon="1.707847">
        <ele>125.0</ele>
        <time>2022-03-31T08:54:12Z</time>
      </trkpt>
      <trkpt lat="47.529198" lon="1.7078469">
        <ele>124.0</ele>
        <time>2022-03-31T08:54:13Z</time>
      </trkpt>
      <trkpt lat="47.529217" lon="1.7078482">
        <ele>124.0</ele>
        <time>2022-03-31T08:54:14Z</time>
      </trkpt>
      <trkpt lat="47.529236" lon="1.7078484">
        <ele>125.0</ele>
        <time>2022-03-31T08:54:15Z</time>
      </trkpt>
      <trkpt lat="47.52925" lon="1.7078403">
        <ele>125.0</ele>
        <time>2022-03-31T08:54:16Z</time>
      </trkpt>
      <trkpt lat="47.529263" lon="1.7078339">
        <ele>124.0</ele>
        <time>2022-03-31T08:54:17Z</time>
      </trkpt>
      <trkpt lat="47.529274" lon="1.7078344">
        <ele>125.0</ele>
        <time>2022-03-31T08:54:18Z</time>
      </trkpt>
      <trkpt lat="47.529285" lon="1.7078395">
        <ele>125.0</ele>
        <time>2022-03-31T08:54:19Z</time>
      </trkpt>
      <trkpt lat="47.529293" lon="1.7078425">
        <ele>125.0</ele>
        <time>2022-03-31T08:54:20Z</time>
      </trkpt>
      <trkpt lat="47.529297" lon="1.7078458">
        <ele>125.0</ele>
        <time>2022-03-31T08:54:21Z</time>
      </trkpt>
      <trkpt lat="47.529305" lon="1.7078447">
        <ele>125.0</ele>
        <time>2022-03-31T08:54:22Z</time>
      </trkpt>
      <trkpt lat="47.529316" lon="1.7078428">
        <ele>124.0</ele>
        <time>2022-03-31T08:54:23Z</time>
      </trkpt>
      <trkpt lat="47.529324" lon="1.7078406">
        <ele>125.0</ele>
        <time>2022-03-31T08:54:24Z</time>
      </trkpt>
      <trkpt lat="47.52933" lon="1.7078378">
        <ele>125.0</ele>
        <time>2022-03-31T08:54:25Z</time>
      </trkpt>
      <trkpt lat="47.529343" lon="1.7078369">
        <ele>124.0</ele>
        <time>2022-03-31T08:54:26Z</time>
      </trkpt>
      <trkpt lat="47.529354" lon="1.7078338">
        <ele>124.0</ele>
        <time>2022-03-31T08:54:27Z</time>
      </trkpt>
      <trkpt lat="47.529366" lon="1.7078333">
        <ele>124.0</ele>
        <time>2022-03-31T08:54:28Z</time>
      </trkpt>
      <trkpt lat="47.529373" lon="1.7078317">
        <ele>124.0</ele>
        <time>2022-03-31T08:54:29Z</time>
      </trkpt>
      <trkpt lat="47.529385" lon="1.7078333">
        <ele>123.0</ele>
        <time>2022-03-31T08:54:30Z</time>
      </trkpt>
      <trkpt lat="47.529396" lon="1.7078242">
        <ele>123.0</ele>
        <time>2022-03-31T08:54:31Z</time>
      </trkpt>
      <trkpt lat="47.52941" lon="1.7078208">
        <ele>122.0</ele>
        <time>2022-03-31T08:54:32Z</time>
      </trkpt>
      <trkpt lat="47.52942" lon="1.7078199">
        <ele>122.0</ele>
        <time>2022-03-31T08:54:33Z</time>
      </trkpt>
      <trkpt lat="47.52943" lon="1.7078183">
        <ele>122.0</ele>
        <time>2022-03-31T08:54:34Z</time>
      </trkpt>
      <trkpt lat="47.52944" lon="1.7078154">
        <ele>122.0</ele>
        <time>2022-03-31T08:54:35Z</time>
      </trkpt>
      <trkpt lat="47.529453" lon="1.7078118">
        <ele>122.0</ele>
        <time>2022-03-31T08:54:36Z</time>
      </trkpt>
      <trkpt lat="47.529465" lon="1.7078121">
        <ele>121.0</ele>
        <time>2022-03-31T08:54:37Z</time>
      </trkpt>
      <trkpt lat="47.529472" lon="1.7078148">
        <ele>122.0</ele>
        <time>2022-03-31T08:54:38Z</time>
      </trkpt>
      <trkpt lat="47.529484" lon="1.7078109">
        <ele>121.0</ele>
        <time>2022-03-31T08:54:39Z</time>
      </trkpt>
      <trkpt lat="47.52949" lon="1.7078103">
        <ele>122.0</ele>
        <time>2022-03-31T08:54:40Z</time>
      </trkpt>
      <trkpt lat="47.5295" lon="1.707805">
        <ele>122.0</ele>
        <time>2022-03-31T08:54:41Z</time>
      </trkpt>
      <trkpt lat="47.52951" lon="1.7077997">
        <ele>122.0</ele>
        <time>2022-03-31T08:54:42Z</time>
      </trkpt>
      <trkpt lat="47.52952" lon="1.7077935">
        <ele>122.0</ele>
        <time>2022-03-31T08:54:43Z</time>
      </trkpt>
      <trkpt lat="47.52953" lon="1.7077893">
        <ele>122.0</ele>
        <time>2022-03-31T08:54:44Z</time>
      </trkpt>
      <trkpt lat="47.52954" lon="1.7077863">
        <ele>122.0</ele>
        <time>2022-03-31T08:54:45Z</time>
      </trkpt>
      <trkpt lat="47.529552" lon="1.7077886">
        <ele>122.0</ele>
        <time>2022-03-31T08:54:46Z</time>
      </trkpt>
      <trkpt lat="47.529568" lon="1.7077832">
        <ele>121.0</ele>
        <time>2022-03-31T08:54:47Z</time>
      </trkpt>
      <trkpt lat="47.52958" lon="1.7077805">
        <ele>121.0</ele>
        <time>2022-03-31T08:54:48Z</time>
      </trkpt>
      <trkpt lat="47.529594" lon="1.7077743">
        <ele>121.0</ele>
        <time>2022-03-31T08:54:49Z</time>
      </trkpt>
      <trkpt lat="47.52961" lon="1.7077693">
        <ele>121.0</ele>
        <time>2022-03-31T08:54:50Z</time>
      </trkpt>
      <trkpt lat="47.52962" lon="1.707764">
        <ele>121.0</ele>
        <time>2022-03-31T08:54:51Z</time>
      </trkpt>
      <trkpt lat="47.529636" lon="1.7077581">
        <ele>121.0</ele>
        <time>2022-03-31T08:54:52Z</time>
      </trkpt>
      <trkpt lat="47.529648" lon="1.7077589">
        <ele>121.0</ele>
        <time>2022-03-31T08:54:53Z</time>
      </trkpt>
      <trkpt lat="47.529667" lon="1.707768">
        <ele>120.0</ele>
        <time>2022-03-31T08:54:54Z</time>
      </trkpt>
      <trkpt lat="47.529682" lon="1.7077781">
        <ele>120.0</ele>
        <time>2022-03-31T08:54:55Z</time>
      </trkpt>
      <trkpt lat="47.529697" lon="1.70778">
        <ele>120.0</ele>
        <time>2022-03-31T08:54:56Z</time>
      </trkpt>
      <trkpt lat="47.52971" lon="1.7077802">
        <ele>120.0</ele>
        <time>2022-03-31T08:54:57Z</time>
      </trkpt>
      <trkpt lat="47.52972" lon="1.7077804">
        <ele>120.0</ele>
        <time>2022-03-31T08:54:58Z</time>
      </trkpt>
      <trkpt lat="47.52973" lon="1.7077801">
        <ele>120.0</ele>
        <time>2022-03-31T08:54:59Z</time>
      </trkpt>
      <trkpt lat="47.529743" lon="1.7077824">
        <ele>120.0</ele>
        <time>2022-03-31T08:55:00Z</time>
      </trkpt>
      <trkpt lat="47.529755" lon="1.7077849">
        <ele>121.0</ele>
        <time>2022-03-31T08:55:01Z</time>
      </trkpt>
      <trkpt lat="47.529762" lon="1.7077883">
        <ele>121.0</ele>
        <time>2022-03-31T08:55:02Z</time>
      </trkpt>
      <trkpt lat="47.52977" lon="1.7077904">
        <ele>122.0</ele>
        <time>2022-03-31T08:55:03Z</time>
      </trkpt>
      <trkpt lat="47.52978" lon="1.7077905">
        <ele>122.0</ele>
        <time>2022-03-31T08:55:04Z</time>
      </trkpt>
      <trkpt lat="47.529793" lon="1.7077872">
        <ele>122.0</ele>
        <time>2022-03-31T08:55:05Z</time>
      </trkpt>
      <trkpt lat="47.529804" lon="1.7077868">
        <ele>122.0</ele>
        <time>2022-03-31T08:55:06Z</time>
      </trkpt>
      <trkpt lat="47.529816" lon="1.707783">
        <ele>122.0</ele>
        <time>2022-03-31T08:55:07Z</time>
      </trkpt>
      <trkpt lat="47.529827" lon="1.7077838">
        <ele>122.0</ele>
        <time>2022-03-31T08:55:08Z</time>
      </trkpt>
      <trkpt lat="47.529842" lon="1.70778">
        <ele>122.0</ele>
        <time>2022-03-31T08:55:09Z</time>
      </trkpt>
      <trkpt lat="47.529858" lon="1.7077755">
        <ele>122.0</ele>
        <time>2022-03-31T08:55:10Z</time>
      </trkpt>
      <trkpt lat="47.529873" lon="1.7077701">
        <ele>123.0</ele>
        <time>2022-03-31T08:55:11Z</time>
      </trkpt>
      <trkpt lat="47.529884" lon="1.707764">
        <ele>123.0</ele>
        <time>2022-03-31T08:55:12Z</time>
      </trkpt>
      <trkpt lat="47.5299" lon="1.7077607">
        <ele>123.0</ele>
        <time>2022-03-31T08:55:13Z</time>
      </trkpt>
      <trkpt lat="47.529907" lon="1.7077527">
        <ele>123.0</ele>
        <time>2022-03-31T08:55:14Z</time>
      </trkpt>
      <trkpt lat="47.529922" lon="1.7077484">
        <ele>123.0</ele>
        <time>2022-03-31T08:55:15Z</time>
      </trkpt>
      <trkpt lat="47.529938" lon="1.7077475">
        <ele>123.0</ele>
        <time>2022-03-31T08:55:16Z</time>
      </trkpt>
      <trkpt lat="47.529953" lon="1.707745">
        <ele>123.0</ele>
        <time>2022-03-31T08:55:17Z</time>
      </trkpt>
      <trkpt lat="47.529964" lon="1.7077428">
        <ele>123.0</ele>
        <time>2022-03-31T08:55:18Z</time>
      </trkpt>
      <trkpt lat="47.529976" lon="1.7077428">
        <ele>123.0</ele>
        <time>2022-03-31T08:55:19Z</time>
      </trkpt>
      <trkpt lat="47.529995" lon="1.707744">
        <ele>123.0</ele>
        <time>2022-03-31T08:55:20Z</time>
      </trkpt>
      <trkpt lat="47.530006" lon="1.7077472">
        <ele>123.0</ele>
        <time>2022-03-31T08:55:21Z</time>
      </trkpt>
      <trkpt lat="47.53002" lon="1.7077458">
        <ele>124.0</ele>
        <time>2022-03-31T08:55:22Z</time>
      </trkpt>
      <trkpt lat="47.530033" lon="1.7077423">
        <ele>124.0</ele>
        <time>2022-03-31T08:55:23Z</time>
      </trkpt>
      <trkpt lat="47.530045" lon="1.7077368">
        <ele>124.0</ele>
        <time>2022-03-31T08:55:24Z</time>
      </trkpt>
      <trkpt lat="47.530064" lon="1.7077377">
        <ele>124.0</ele>
        <time>2022-03-31T08:55:25Z</time>
      </trkpt>
      <trkpt lat="47.530075" lon="1.7077389">
        <ele>124.0</ele>
        <time>2022-03-31T08:55:26Z</time>
      </trkpt>
      <trkpt lat="47.53009" lon="1.7077354">
        <ele>124.0</ele>
        <time>2022-03-31T08:55:27Z</time>
      </trkpt>
      <trkpt lat="47.5301" lon="1.7077405">
        <ele>124.0</ele>
        <time>2022-03-31T08:55:28Z</time>
      </trkpt>
      <trkpt lat="47.530113" lon="1.7077401">
        <ele>124.0</ele>
        <time>2022-03-31T08:55:29Z</time>
      </trkpt>
      <trkpt lat="47.53013" lon="1.7077392">
        <ele>124.0</ele>
        <time>2022-03-31T08:55:30Z</time>
      </trkpt>
      <trkpt lat="47.53014" lon="1.7077395">
        <ele>124.0</ele>
        <time>2022-03-31T08:55:31Z</time>
      </trkpt>
      <trkpt lat="47.530155" lon="1.7077415">
        <ele>124.0</ele>
        <time>2022-03-31T08:55:32Z</time>
      </trkpt>
      <trkpt lat="47.53017" lon="1.7077426">
        <ele>125.0</ele>
        <time>2022-03-31T08:55:33Z</time>
      </trkpt>
      <trkpt lat="47.53018" lon="1.7077427">
        <ele>125.0</ele>
        <time>2022-03-31T08:55:34Z</time>
      </trkpt>
      <trkpt lat="47.53019" lon="1.7077384">
        <ele>125.0</ele>
        <time>2022-03-31T08:55:35Z</time>
      </trkpt>
      <trkpt lat="47.5302" lon="1.7077389">
        <ele>125.0</ele>
        <time>2022-03-31T08:55:36Z</time>
      </trkpt>
      <trkpt lat="47.530212" lon="1.7077397">
        <ele>125.0</ele>
        <time>2022-03-31T08:55:37Z</time>
      </trkpt>
      <trkpt lat="47.530224" lon="1.7077334">
        <ele>125.0</ele>
        <time>2022-03-31T08:55:38Z</time>
      </trkpt>
      <trkpt lat="47.53024" lon="1.7077281">
        <ele>125.0</ele>
        <time>2022-03-31T08:55:39Z</time>
      </trkpt>
      <trkpt lat="47.530254" lon="1.7077221">
        <ele>125.0</ele>
        <time>2022-03-31T08:55:40Z</time>
      </trkpt>
      <trkpt lat="47.530266" lon="1.7077143">
        <ele>126.0</ele>
        <time>2022-03-31T08:55:41Z</time>
      </trkpt>
      <trkpt lat="47.53028" lon="1.7077079">
        <ele>126.0</ele>
        <time>2022-03-31T08:55:42Z</time>
      </trkpt>
      <trkpt lat="47.530293" lon="1.7077073">
        <ele>126.0</ele>
        <time>2022-03-31T08:55:43Z</time>
      </trkpt>
      <trkpt lat="47.530308" lon="1.7077047">
        <ele>126.0</ele>
        <time>2022-03-31T08:55:44Z</time>
      </trkpt>
      <trkpt lat="47.530323" lon="1.7077028">
        <ele>126.0</ele>
        <time>2022-03-31T08:55:45Z</time>
      </trkpt>
      <trkpt lat="47.530334" lon="1.7077004">
        <ele>127.0</ele>
        <time>2022-03-31T08:55:46Z</time>
      </trkpt>
      <trkpt lat="47.53035" lon="1.707703">
        <ele>126.0</ele>
        <time>2022-03-31T08:55:47Z</time>
      </trkpt>
      <trkpt lat="47.53036" lon="1.7077012">
        <ele>126.0</ele>
        <time>2022-03-31T08:55:48Z</time>
      </trkpt>
      <trkpt lat="47.530373" lon="1.7076963">
        <ele>126.0</ele>
        <time>2022-03-31T08:55:49Z</time>
      </trkpt>
      <trkpt lat="47.530388" lon="1.7076923">
        <ele>126.0</ele>
        <time>2022-03-31T08:55:50Z</time>
      </trkpt>
      <trkpt lat="47.530403" lon="1.7076892">
        <ele>126.0</ele>
        <time>2022-03-31T08:55:51Z</time>
      </trkpt>
      <trkpt lat="47.53042" lon="1.7076886">
        <ele>126.0</ele>
        <time>2022-03-31T08:55:52Z</time>
      </trkpt>
      <trkpt lat="47.53043" lon="1.7076906">
        <ele>127.0</ele>
        <time>2022-03-31T08:55:53Z</time>
      </trkpt>
      <trkpt lat="47.530437" lon="1.7076963">
        <ele>127.0</ele>
        <time>2022-03-31T08:55:54Z</time>
      </trkpt>
      <trkpt lat="47.53045" lon="1.7076972">
        <ele>127.0</ele>
        <time>2022-03-31T08:55:55Z</time>
      </trkpt>
      <trkpt lat="47.53046" lon="1.7076974">
        <ele>127.0</ele>
        <time>2022-03-31T08:55:56Z</time>
      </trkpt>
      <trkpt lat="47.530468" lon="1.707699">
        <ele>127.0</ele>
        <time>2022-03-31T08:55:57Z</time>
      </trkpt>
      <trkpt lat="47.53048" lon="1.7076987">
        <ele>127.0</ele>
        <time>2022-03-31T08:55:58Z</time>
      </trkpt>
      <trkpt lat="47.530487" lon="1.7077">
        <ele>127.0</ele>
        <time>2022-03-31T08:55:59Z</time>
      </trkpt>
      <trkpt lat="47.5305" lon="1.707699">
        <ele>127.0</ele>
        <time>2022-03-31T08:56:00Z</time>
      </trkpt>
      <trkpt lat="47.530506" lon="1.7077023">
        <ele>127.0</ele>
        <time>2022-03-31T08:56:01Z</time>
      </trkpt>
      <trkpt lat="47.530518" lon="1.7077056">
        <ele>127.0</ele>
        <time>2022-03-31T08:56:02Z</time>
      </trkpt>
      <trkpt lat="47.53053" lon="1.7077075">
        <ele>127.0</ele>
        <time>2022-03-31T08:56:03Z</time>
      </trkpt>
      <trkpt lat="47.530537" lon="1.7077092">
        <ele>127.0</ele>
        <time>2022-03-31T08:56:04Z</time>
      </trkpt>
      <trkpt lat="47.530544" lon="1.7077146">
        <ele>127.0</ele>
        <time>2022-03-31T08:56:05Z</time>
      </trkpt>
      <trkpt lat="47.530552" lon="1.7077146">
        <ele>128.0</ele>
        <time>2022-03-31T08:56:06Z</time>
      </trkpt>
      <trkpt lat="47.530567" lon="1.7077106">
        <ele>128.0</ele>
        <time>2022-03-31T08:56:07Z</time>
      </trkpt>
      <trkpt lat="47.530582" lon="1.7077084">
        <ele>127.0</ele>
        <time>2022-03-31T08:56:08Z</time>
      </trkpt>
      <trkpt lat="47.530594" lon="1.7077062">
        <ele>127.0</ele>
        <time>2022-03-31T08:56:09Z</time>
      </trkpt>
      <trkpt lat="47.53061" lon="1.7077032">
        <ele>127.0</ele>
        <time>2022-03-31T08:56:10Z</time>
      </trkpt>
      <trkpt lat="47.53062" lon="1.7076986">
        <ele>127.0</ele>
        <time>2022-03-31T08:56:11Z</time>
      </trkpt>
      <trkpt lat="47.53064" lon="1.7076939">
        <ele>127.0</ele>
        <time>2022-03-31T08:56:12Z</time>
      </trkpt>
      <trkpt lat="47.530647" lon="1.7076898">
        <ele>127.0</ele>
        <time>2022-03-31T08:56:13Z</time>
      </trkpt>
      <trkpt lat="47.53066" lon="1.7076823">
        <ele>127.0</ele>
        <time>2022-03-31T08:56:14Z</time>
      </trkpt>
      <trkpt lat="47.530666" lon="1.7076843">
        <ele>127.0</ele>
        <time>2022-03-31T08:56:15Z</time>
      </trkpt>
      <trkpt lat="47.530674" lon="1.7076879">
        <ele>127.0</ele>
        <time>2022-03-31T08:56:16Z</time>
      </trkpt>
      <trkpt lat="47.53068" lon="1.70769">
        <ele>127.0</ele>
        <time>2022-03-31T08:56:17Z</time>
      </trkpt>
      <trkpt lat="47.530693" lon="1.7076879">
        <ele>126.0</ele>
        <time>2022-03-31T08:56:18Z</time>
      </trkpt>
      <trkpt lat="47.530704" lon="1.7076854">
        <ele>126.0</ele>
        <time>2022-03-31T08:56:19Z</time>
      </trkpt>
      <trkpt lat="47.530712" lon="1.7076852">
        <ele>127.0</ele>
        <time>2022-03-31T08:56:20Z</time>
      </trkpt>
      <trkpt lat="47.530724" lon="1.7076842">
        <ele>126.0</ele>
        <time>2022-03-31T08:56:21Z</time>
      </trkpt>
      <trkpt lat="47.530735" lon="1.7076873">
        <ele>126.0</ele>
        <time>2022-03-31T08:56:22Z</time>
      </trkpt>
      <trkpt lat="47.530743" lon="1.7076869">
        <ele>126.0</ele>
        <time>2022-03-31T08:56:23Z</time>
      </trkpt>
      <trkpt lat="47.53075" lon="1.7076848">
        <ele>126.0</ele>
        <time>2022-03-31T08:56:24Z</time>
      </trkpt>
      <trkpt lat="47.530758" lon="1.7076811">
        <ele>126.0</ele>
        <time>2022-03-31T08:56:25Z</time>
      </trkpt>
      <trkpt lat="47.530766" lon="1.7076786">
        <ele>126.0</ele>
        <time>2022-03-31T08:56:26Z</time>
      </trkpt>
      <trkpt lat="47.530777" lon="1.7076781">
        <ele>126.0</ele>
        <time>2022-03-31T08:56:27Z</time>
      </trkpt>
      <trkpt lat="47.53079" lon="1.7076763">
        <ele>126.0</ele>
        <time>2022-03-31T08:56:28Z</time>
      </trkpt>
      <trkpt lat="47.530804" lon="1.7076753">
        <ele>126.0</ele>
        <time>2022-03-31T08:56:29Z</time>
      </trkpt>
      <trkpt lat="47.530815" lon="1.7076786">
        <ele>126.0</ele>
        <time>2022-03-31T08:56:30Z</time>
      </trkpt>
      <trkpt lat="47.530834" lon="1.7076789">
        <ele>125.0</ele>
        <time>2022-03-31T08:56:31Z</time>
      </trkpt>
      <trkpt lat="47.530846" lon="1.7076772">
        <ele>125.0</ele>
        <time>2022-03-31T08:56:32Z</time>
      </trkpt>
      <trkpt lat="47.53086" lon="1.7076789">
        <ele>124.0</ele>
        <time>2022-03-31T08:56:33Z</time>
      </trkpt>
      <trkpt lat="47.530876" lon="1.7076768">
        <ele>124.0</ele>
        <time>2022-03-31T08:56:34Z</time>
      </trkpt>
      <trkpt lat="47.530888" lon="1.7076739">
        <ele>123.0</ele>
        <time>2022-03-31T08:56:35Z</time>
      </trkpt>
      <trkpt lat="47.5309" lon="1.7076696">
        <ele>123.0</ele>
        <time>2022-03-31T08:56:36Z</time>
      </trkpt>
      <trkpt lat="47.53091" lon="1.7076658">
        <ele>123.0</ele>
        <time>2022-03-31T08:56:37Z</time>
      </trkpt>
      <trkpt lat="47.530926" lon="1.7076617">
        <ele>123.0</ele>
        <time>2022-03-31T08:56:38Z</time>
      </trkpt>
      <trkpt lat="47.530933" lon="1.7076533">
        <ele>123.0</ele>
        <time>2022-03-31T08:56:39Z</time>
      </trkpt>
      <trkpt lat="47.530945" lon="1.7076519">
        <ele>123.0</ele>
        <time>2022-03-31T08:56:40Z</time>
      </trkpt>
      <trkpt lat="47.53096" lon="1.7076472">
        <ele>123.0</ele>
        <time>2022-03-31T08:56:41Z</time>
      </trkpt>
      <trkpt lat="47.530983" lon="1.7076422">
        <ele>123.0</ele>
        <time>2022-03-31T08:56:42Z</time>
      </trkpt>
      <trkpt lat="47.531" lon="1.707642">
        <ele>123.0</ele>
        <time>2022-03-31T08:56:43Z</time>
      </trkpt>
      <trkpt lat="47.53101" lon="1.7076445">
        <ele>123.0</ele>
        <time>2022-03-31T08:56:44Z</time>
      </trkpt>
      <trkpt lat="47.53102" lon="1.7076427">
        <ele>123.0</ele>
        <time>2022-03-31T08:56:45Z</time>
      </trkpt>
      <trkpt lat="47.531036" lon="1.7076477">
        <ele>124.0</ele>
        <time>2022-03-31T08:56:46Z</time>
      </trkpt>
      <trkpt lat="47.53105" lon="1.7076495">
        <ele>124.0</ele>
        <time>2022-03-31T08:56:47Z</time>
      </trkpt>
      <trkpt lat="47.531063" lon="1.7076532">
        <ele>124.0</ele>
        <time>2022-03-31T08:56:48Z</time>
      </trkpt>
      <trkpt lat="47.531075" lon="1.7076514">
        <ele>124.0</ele>
        <time>2022-03-31T08:56:49Z</time>
      </trkpt>
      <trkpt lat="47.53108" lon="1.7076561">
        <ele>124.0</ele>
        <time>2022-03-31T08:56:50Z</time>
      </trkpt>
      <trkpt lat="47.531082" lon="1.7076603">
        <ele>124.0</ele>
        <time>2022-03-31T08:56:51Z</time>
      </trkpt>
      <trkpt lat="47.53109" lon="1.7076633">
        <ele>124.0</ele>
        <time>2022-03-31T08:56:52Z</time>
      </trkpt>
      <trkpt lat="47.531097" lon="1.7076646">
        <ele>124.0</ele>
        <time>2022-03-31T08:56:53Z</time>
      </trkpt>
      <trkpt lat="47.531105" lon="1.7076663">
        <ele>124.0</ele>
        <time>2022-03-31T08:56:54Z</time>
      </trkpt>
      <trkpt lat="47.531113" lon="1.7076647">
        <ele>124.0</ele>
        <time>2022-03-31T08:56:55Z</time>
      </trkpt>
      <trkpt lat="47.53112" lon="1.7076629">
        <ele>124.0</ele>
        <time>2022-03-31T08:56:56Z</time>
      </trkpt>
      <trkpt lat="47.53113" lon="1.7076588">
        <ele>124.0</ele>
        <time>2022-03-31T08:56:57Z</time>
      </trkpt>
      <trkpt lat="47.531143" lon="1.7076553">
        <ele>123.0</ele>
        <time>2022-03-31T08:56:58Z</time>
      </trkpt>
      <trkpt lat="47.531162" lon="1.7076524">
        <ele>123.0</ele>
        <time>2022-03-31T08:56:59Z</time>
      </trkpt>
      <trkpt lat="47.531174" lon="1.7076495">
        <ele>122.0</ele>
        <time>2022-03-31T08:57:00Z</time>
      </trkpt>
      <trkpt lat="47.531185" lon="1.7076467">
        <ele>122.0</ele>
        <time>2022-03-31T08:57:01Z</time>
      </trkpt>
      <trkpt lat="47.531197" lon="1.7076502">
        <ele>122.0</ele>
        <time>2022-03-31T08:57:02Z</time>
      </trkpt>
      <trkpt lat="47.531204" lon="1.7076474">
        <ele>122.0</ele>
        <time>2022-03-31T08:57:03Z</time>
      </trkpt>
      <trkpt lat="47.531216" lon="1.7076418">
        <ele>122.0</ele>
        <time>2022-03-31T08:57:04Z</time>
      </trkpt>
      <trkpt lat="47.531227" lon="1.7076364">
        <ele>122.0</ele>
        <time>2022-03-31T08:57:05Z</time>
      </trkpt>
      <trkpt lat="47.53124" lon="1.7076311">
        <ele>122.0</ele>
        <time>2022-03-31T08:57:06Z</time>
      </trkpt>
      <trkpt lat="47.53125" lon="1.7076274">
        <ele>122.0</ele>
        <time>2022-03-31T08:57:07Z</time>
      </trkpt>
      <trkpt lat="47.53126" lon="1.7076225">
        <ele>122.0</ele>
        <time>2022-03-31T08:57:08Z</time>
      </trkpt>
      <trkpt lat="47.531273" lon="1.7076232">
        <ele>122.0</ele>
        <time>2022-03-31T08:57:09Z</time>
      </trkpt>
      <trkpt lat="47.531284" lon="1.7076252">
        <ele>122.0</ele>
        <time>2022-03-31T08:57:10Z</time>
      </trkpt>
      <trkpt lat="47.531292" lon="1.7076286">
        <ele>122.0</ele>
        <time>2022-03-31T08:57:11Z</time>
      </trkpt>
      <trkpt lat="47.531303" lon="1.7076277">
        <ele>122.0</ele>
        <time>2022-03-31T08:57:12Z</time>
      </trkpt>
      <trkpt lat="47.531315" lon="1.7076237">
        <ele>122.0</ele>
        <time>2022-03-31T08:57:13Z</time>
      </trkpt>
      <trkpt lat="47.531326" lon="1.7076215">
        <ele>122.0</ele>
        <time>2022-03-31T08:57:14Z</time>
      </trkpt>
      <trkpt lat="47.531338" lon="1.7076167">
        <ele>122.0</ele>
        <time>2022-03-31T08:57:15Z</time>
      </trkpt>
      <trkpt lat="47.531353" lon="1.7076136">
        <ele>122.0</ele>
        <time>2022-03-31T08:57:16Z</time>
      </trkpt>
      <trkpt lat="47.531364" lon="1.707615">
        <ele>122.0</ele>
        <time>2022-03-31T08:57:17Z</time>
      </trkpt>
      <trkpt lat="47.531376" lon="1.7076124">
        <ele>122.0</ele>
        <time>2022-03-31T08:57:18Z</time>
      </trkpt>
      <trkpt lat="47.53139" lon="1.7076051">
        <ele>122.0</ele>
        <time>2022-03-31T08:57:19Z</time>
      </trkpt>
      <trkpt lat="47.531403" lon="1.7075971">
        <ele>122.0</ele>
        <time>2022-03-31T08:57:20Z</time>
      </trkpt>
      <trkpt lat="47.531414" lon="1.7075949">
        <ele>122.0</ele>
        <time>2022-03-31T08:57:21Z</time>
      </trkpt>
      <trkpt lat="47.531425" lon="1.7075957">
        <ele>122.0</ele>
        <time>2022-03-31T08:57:22Z</time>
      </trkpt>
      <trkpt lat="47.531437" lon="1.7075934">
        <ele>122.0</ele>
        <time>2022-03-31T08:57:23Z</time>
      </trkpt>
      <trkpt lat="47.531445" lon="1.7076008">
        <ele>122.0</ele>
        <time>2022-03-31T08:57:24Z</time>
      </trkpt>
      <trkpt lat="47.531456" lon="1.7076007">
        <ele>122.0</ele>
        <time>2022-03-31T08:57:25Z</time>
      </trkpt>
      <trkpt lat="47.531467" lon="1.7075992">
        <ele>122.0</ele>
        <time>2022-03-31T08:57:26Z</time>
      </trkpt>
      <trkpt lat="47.53148" lon="1.7075998">
        <ele>122.0</ele>
        <time>2022-03-31T08:57:27Z</time>
      </trkpt>
      <trkpt lat="47.53149" lon="1.7076012">
        <ele>122.0</ele>
        <time>2022-03-31T08:57:28Z</time>
      </trkpt>
      <trkpt lat="47.5315" lon="1.707598">
        <ele>122.0</ele>
        <time>2022-03-31T08:57:29Z</time>
      </trkpt>
      <trkpt lat="47.531513" lon="1.7075977">
        <ele>122.0</ele>
        <time>2022-03-31T08:57:30Z</time>
      </trkpt>
      <trkpt lat="47.531525" lon="1.7075971">
        <ele>122.0</ele>
        <time>2022-03-31T08:57:31Z</time>
      </trkpt>
      <trkpt lat="47.531536" lon="1.707592">
        <ele>123.0</ele>
        <time>2022-03-31T08:57:32Z</time>
      </trkpt>
      <trkpt lat="47.53155" lon="1.7075906">
        <ele>123.0</ele>
        <time>2022-03-31T08:57:33Z</time>
      </trkpt>
      <trkpt lat="47.531563" lon="1.7075917">
        <ele>123.0</ele>
        <time>2022-03-31T08:57:34Z</time>
      </trkpt>
      <trkpt lat="47.531574" lon="1.7075909">
        <ele>123.0</ele>
        <time>2022-03-31T08:57:35Z</time>
      </trkpt>
      <trkpt lat="47.531586" lon="1.7075886">
        <ele>123.0</ele>
        <time>2022-03-31T08:57:36Z</time>
      </trkpt>
      <trkpt lat="47.531597" lon="1.707589">
        <ele>124.0</ele>
        <time>2022-03-31T08:57:37Z</time>
      </trkpt>
      <trkpt lat="47.53161" lon="1.7075894">
        <ele>124.0</ele>
        <time>2022-03-31T08:57:38Z</time>
      </trkpt>
      <trkpt lat="47.53162" lon="1.7075872">
        <ele>125.0</ele>
        <time>2022-03-31T08:57:39Z</time>
      </trkpt>
      <trkpt lat="47.531635" lon="1.7075889">
        <ele>125.0</ele>
        <time>2022-03-31T08:57:40Z</time>
      </trkpt>
      <trkpt lat="47.531643" lon="1.7075907">
        <ele>126.0</ele>
        <time>2022-03-31T08:57:41Z</time>
      </trkpt>
      <trkpt lat="47.531654" lon="1.7075883">
        <ele>126.0</ele>
        <time>2022-03-31T08:57:42Z</time>
      </trkpt>
      <trkpt lat="47.531666" lon="1.7075859">
        <ele>126.0</ele>
        <time>2022-03-31T08:57:43Z</time>
      </trkpt>
      <trkpt lat="47.53168" lon="1.7075827">
        <ele>126.0</ele>
        <time>2022-03-31T08:57:44Z</time>
      </trkpt>
      <trkpt lat="47.531696" lon="1.7075795">
        <ele>126.0</ele>
        <time>2022-03-31T08:57:45Z</time>
      </trkpt>
      <trkpt lat="47.53171" lon="1.7075799">
        <ele>126.0</ele>
        <time>2022-03-31T08:57:46Z</time>
      </trkpt>
      <trkpt lat="47.531723" lon="1.707579">
        <ele>126.0</ele>
        <time>2022-03-31T08:57:47Z</time>
      </trkpt>
      <trkpt lat="47.531734" lon="1.7075812">
        <ele>126.0</ele>
        <time>2022-03-31T08:57:48Z</time>
      </trkpt>
      <trkpt lat="47.531746" lon="1.7075844">
        <ele>126.0</ele>
        <time>2022-03-31T08:57:49Z</time>
      </trkpt>
      <trkpt lat="47.53176" lon="1.707586">
        <ele>126.0</ele>
        <time>2022-03-31T08:57:50Z</time>
      </trkpt>
      <trkpt lat="47.531773" lon="1.7075868">
        <ele>125.0</ele>
        <time>2022-03-31T08:57:51Z</time>
      </trkpt>
      <trkpt lat="47.531784" lon="1.7075884">
        <ele>126.0</ele>
        <time>2022-03-31T08:57:52Z</time>
      </trkpt>
      <trkpt lat="47.5318" lon="1.7075868">
        <ele>125.0</ele>
        <time>2022-03-31T08:57:53Z</time>
      </trkpt>
      <trkpt lat="47.53181" lon="1.7075887">
        <ele>126.0</ele>
        <time>2022-03-31T08:57:54Z</time>
      </trkpt>
      <trkpt lat="47.531822" lon="1.7075871">
        <ele>126.0</ele>
        <time>2022-03-31T08:57:55Z</time>
      </trkpt>
      <trkpt lat="47.531834" lon="1.707587">
        <ele>126.0</ele>
        <time>2022-03-31T08:57:56Z</time>
      </trkpt>
      <trkpt lat="47.53185" lon="1.7075866">
        <ele>126.0</ele>
        <time>2022-03-31T08:57:57Z</time>
      </trkpt>
      <trkpt lat="47.53186" lon="1.7075833">
        <ele>126.0</ele>
        <time>2022-03-31T08:57:58Z</time>
      </trkpt>
      <trkpt lat="47.53187" lon="1.707581">
        <ele>126.0</ele>
        <time>2022-03-31T08:57:59Z</time>
      </trkpt>
      <trkpt lat="47.531883" lon="1.7075806">
        <ele>127.0</ele>
        <time>2022-03-31T08:58:00Z</time>
      </trkpt>
      <trkpt lat="47.531895" lon="1.7075822">
        <ele>127.0</ele>
        <time>2022-03-31T08:58:01Z</time>
      </trkpt>
      <trkpt lat="47.53191" lon="1.7075816">
        <ele>127.0</ele>
        <time>2022-03-31T08:58:02Z</time>
      </trkpt>
      <trkpt lat="47.53192" lon="1.7075828">
        <ele>128.0</ele>
        <time>2022-03-31T08:58:03Z</time>
      </trkpt>
      <trkpt lat="47.531933" lon="1.7075816">
        <ele>128.0</ele>
        <time>2022-03-31T08:58:04Z</time>
      </trkpt>
      <trkpt lat="47.531944" lon="1.707582">
        <ele>128.0</ele>
        <time>2022-03-31T08:58:05Z</time>
      </trkpt>
      <trkpt lat="47.531956" lon="1.7075814">
        <ele>128.0</ele>
        <time>2022-03-31T08:58:06Z</time>
      </trkpt>
      <trkpt lat="47.531967" lon="1.7075772">
        <ele>128.0</ele>
        <time>2022-03-31T08:58:07Z</time>
      </trkpt>
      <trkpt lat="47.53198" lon="1.7075772">
        <ele>128.0</ele>
        <time>2022-03-31T08:58:08Z</time>
      </trkpt>
      <trkpt lat="47.531994" lon="1.7075742">
        <ele>129.0</ele>
        <time>2022-03-31T08:58:09Z</time>
      </trkpt>
      <trkpt lat="47.532005" lon="1.707567">
        <ele>129.0</ele>
        <time>2022-03-31T08:58:10Z</time>
      </trkpt>
      <trkpt lat="47.532024" lon="1.7075647">
        <ele>130.0</ele>
        <time>2022-03-31T08:58:11Z</time>
      </trkpt>
      <trkpt lat="47.532036" lon="1.7075621">
        <ele>130.0</ele>
        <time>2022-03-31T08:58:12Z</time>
      </trkpt>
      <trkpt lat="47.532043" lon="1.7075633">
        <ele>130.0</ele>
        <time>2022-03-31T08:58:13Z</time>
      </trkpt>
      <trkpt lat="47.53206" lon="1.7075624">
        <ele>130.0</ele>
        <time>2022-03-31T08:58:14Z</time>
      </trkpt>
      <trkpt lat="47.532074" lon="1.7075633">
        <ele>130.0</ele>
        <time>2022-03-31T08:58:15Z</time>
      </trkpt>
      <trkpt lat="47.532085" lon="1.7075597">
        <ele>130.0</ele>
        <time>2022-03-31T08:58:16Z</time>
      </trkpt>
      <trkpt lat="47.532097" lon="1.7075593">
        <ele>130.0</ele>
        <time>2022-03-31T08:58:17Z</time>
      </trkpt>
      <trkpt lat="47.53211" lon="1.7075582">
        <ele>130.0</ele>
        <time>2022-03-31T08:58:18Z</time>
      </trkpt>
      <trkpt lat="47.53212" lon="1.7075548">
        <ele>130.0</ele>
        <time>2022-03-31T08:58:19Z</time>
      </trkpt>
      <trkpt lat="47.532127" lon="1.7075464">
        <ele>129.0</ele>
        <time>2022-03-31T08:58:20Z</time>
      </trkpt>
      <trkpt lat="47.53214" lon="1.707547">
        <ele>129.0</ele>
        <time>2022-03-31T08:58:21Z</time>
      </trkpt>
      <trkpt lat="47.53215" lon="1.70755">
        <ele>130.0</ele>
        <time>2022-03-31T08:58:22Z</time>
      </trkpt>
      <trkpt lat="47.532154" lon="1.7075511">
        <ele>130.0</ele>
        <time>2022-03-31T08:58:23Z</time>
      </trkpt>
      <trkpt lat="47.53217" lon="1.7075539">
        <ele>130.0</ele>
        <time>2022-03-31T08:58:24Z</time>
      </trkpt>
      <trkpt lat="47.53218" lon="1.7075548">
        <ele>130.0</ele>
        <time>2022-03-31T08:58:25Z</time>
      </trkpt>
      <trkpt lat="47.53219" lon="1.7075553">
        <ele>130.0</ele>
        <time>2022-03-31T08:58:26Z</time>
      </trkpt>
      <trkpt lat="47.5322" lon="1.7075522">
        <ele>130.0</ele>
        <time>2022-03-31T08:58:27Z</time>
      </trkpt>
      <trkpt lat="47.53221" lon="1.7075492">
        <ele>130.0</ele>
        <time>2022-03-31T08:58:28Z</time>
      </trkpt>
      <trkpt lat="47.532223" lon="1.7075459">
        <ele>130.0</ele>
        <time>2022-03-31T08:58:29Z</time>
      </trkpt>
      <trkpt lat="47.532227" lon="1.7075458">
        <ele>131.0</ele>
        <time>2022-03-31T08:58:30Z</time>
      </trkpt>
      <trkpt lat="47.532238" lon="1.7075509">
        <ele>131.0</ele>
        <time>2022-03-31T08:58:31Z</time>
      </trkpt>
      <trkpt lat="47.532246" lon="1.7075571">
        <ele>131.0</ele>
        <time>2022-03-31T08:58:32Z</time>
      </trkpt>
      <trkpt lat="47.53226" lon="1.7075565">
        <ele>131.0</ele>
        <time>2022-03-31T08:58:33Z</time>
      </trkpt>
      <trkpt lat="47.532272" lon="1.7075528">
        <ele>131.0</ele>
        <time>2022-03-31T08:58:34Z</time>
      </trkpt>
      <trkpt lat="47.532284" lon="1.7075516">
        <ele>131.0</ele>
        <time>2022-03-31T08:58:35Z</time>
      </trkpt>
      <trkpt lat="47.532295" lon="1.7075467">
        <ele>131.0</ele>
        <time>2022-03-31T08:58:36Z</time>
      </trkpt>
      <trkpt lat="47.53231" lon="1.7075429">
        <ele>131.0</ele>
        <time>2022-03-31T08:58:37Z</time>
      </trkpt>
      <trkpt lat="47.53232" lon="1.7075423">
        <ele>131.0</ele>
        <time>2022-03-31T08:58:38Z</time>
      </trkpt>
      <trkpt lat="47.532326" lon="1.7075408">
        <ele>131.0</ele>
        <time>2022-03-31T08:58:39Z</time>
      </trkpt>
      <trkpt lat="47.53234" lon="1.7075399">
        <ele>131.0</ele>
        <time>2022-03-31T08:58:40Z</time>
      </trkpt>
      <trkpt lat="47.532352" lon="1.707542">
        <ele>131.0</ele>
        <time>2022-03-31T08:58:41Z</time>
      </trkpt>
      <trkpt lat="47.532364" lon="1.7075465">
        <ele>131.0</ele>
        <time>2022-03-31T08:58:42Z</time>
      </trkpt>
      <trkpt lat="47.532375" lon="1.7075468">
        <ele>132.0</ele>
        <time>2022-03-31T08:58:43Z</time>
      </trkpt>
      <trkpt lat="47.532387" lon="1.7075461">
        <ele>132.0</ele>
        <time>2022-03-31T08:58:44Z</time>
      </trkpt>
      <trkpt lat="47.5324" lon="1.707548">
        <ele>132.0</ele>
        <time>2022-03-31T08:58:45Z</time>
      </trkpt>
      <trkpt lat="47.53241" lon="1.7075443">
        <ele>133.0</ele>
        <time>2022-03-31T08:58:46Z</time>
      </trkpt>
      <trkpt lat="47.53242" lon="1.7075377">
        <ele>133.0</ele>
        <time>2022-03-31T08:58:47Z</time>
      </trkpt>
      <trkpt lat="47.532433" lon="1.7075348">
        <ele>133.0</ele>
        <time>2022-03-31T08:58:48Z</time>
      </trkpt>
      <trkpt lat="47.532444" lon="1.7075348">
        <ele>133.0</ele>
        <time>2022-03-31T08:58:49Z</time>
      </trkpt>
      <trkpt lat="47.532455" lon="1.7075273">
        <ele>133.0</ele>
        <time>2022-03-31T08:58:50Z</time>
      </trkpt>
      <trkpt lat="47.53247" lon="1.7075247">
        <ele>133.0</ele>
        <time>2022-03-31T08:58:51Z</time>
      </trkpt>
      <trkpt lat="47.532486" lon="1.7075199">
        <ele>133.0</ele>
        <time>2022-03-31T08:58:52Z</time>
      </trkpt>
      <trkpt lat="47.532497" lon="1.707519">
        <ele>133.0</ele>
        <time>2022-03-31T08:58:53Z</time>
      </trkpt>
      <trkpt lat="47.532513" lon="1.7075241">
        <ele>133.0</ele>
        <time>2022-03-31T08:58:54Z</time>
      </trkpt>
      <trkpt lat="47.532524" lon="1.7075249">
        <ele>133.0</ele>
        <time>2022-03-31T08:58:55Z</time>
      </trkpt>
      <trkpt lat="47.532536" lon="1.7075258">
        <ele>133.0</ele>
        <time>2022-03-31T08:58:56Z</time>
      </trkpt>
      <trkpt lat="47.532543" lon="1.7075268">
        <ele>133.0</ele>
        <time>2022-03-31T08:58:57Z</time>
      </trkpt>
      <trkpt lat="47.53255" lon="1.7075258">
        <ele>133.0</ele>
        <time>2022-03-31T08:58:58Z</time>
      </trkpt>
      <trkpt lat="47.532562" lon="1.7075258">
        <ele>133.0</ele>
        <time>2022-03-31T08:58:59Z</time>
      </trkpt>
      <trkpt lat="47.53257" lon="1.7075273">
        <ele>132.0</ele>
        <time>2022-03-31T08:59:00Z</time>
      </trkpt>
      <trkpt lat="47.53258" lon="1.7075245">
        <ele>132.0</ele>
        <time>2022-03-31T08:59:01Z</time>
      </trkpt>
      <trkpt lat="47.532593" lon="1.7075176">
        <ele>131.0</ele>
        <time>2022-03-31T08:59:02Z</time>
      </trkpt>
      <trkpt lat="47.5326" lon="1.7075195">
        <ele>132.0</ele>
        <time>2022-03-31T08:59:03Z</time>
      </trkpt>
      <trkpt lat="47.532608" lon="1.7075222">
        <ele>132.0</ele>
        <time>2022-03-31T08:59:04Z</time>
      </trkpt>
      <trkpt lat="47.532616" lon="1.7075273">
        <ele>131.0</ele>
        <time>2022-03-31T08:59:05Z</time>
      </trkpt>
      <trkpt lat="47.532623" lon="1.7075307">
        <ele>131.0</ele>
        <time>2022-03-31T08:59:06Z</time>
      </trkpt>
      <trkpt lat="47.532635" lon="1.7075298">
        <ele>131.0</ele>
        <time>2022-03-31T08:59:07Z</time>
      </trkpt>
      <trkpt lat="47.532642" lon="1.7075305">
        <ele>131.0</ele>
        <time>2022-03-31T08:59:08Z</time>
      </trkpt>
      <trkpt lat="47.532654" lon="1.7075287">
        <ele>131.0</ele>
        <time>2022-03-31T08:59:09Z</time>
      </trkpt>
      <trkpt lat="47.53267" lon="1.7075286">
        <ele>131.0</ele>
        <time>2022-03-31T08:59:10Z</time>
      </trkpt>
      <trkpt lat="47.532677" lon="1.7075285">
        <ele>131.0</ele>
        <time>2022-03-31T08:59:11Z</time>
      </trkpt>
      <trkpt lat="47.53269" lon="1.7075274">
        <ele>131.0</ele>
        <time>2022-03-31T08:59:12Z</time>
      </trkpt>
      <trkpt lat="47.532696" lon="1.707526">
        <ele>132.0</ele>
        <time>2022-03-31T08:59:13Z</time>
      </trkpt>
      <trkpt lat="47.532707" lon="1.7075241">
        <ele>132.0</ele>
        <time>2022-03-31T08:59:14Z</time>
      </trkpt>
      <trkpt lat="47.532715" lon="1.7075241">
        <ele>132.0</ele>
        <time>2022-03-31T08:59:15Z</time>
      </trkpt>
      <trkpt lat="47.532738" lon="1.7075256">
        <ele>132.0</ele>
        <time>2022-03-31T08:59:16Z</time>
      </trkpt>
      <trkpt lat="47.532738" lon="1.7075256">
        <ele>132.0</ele>
        <time>2022-03-31T08:59:16Z</time>
      </trkpt>
      <trkpt lat="47.53275" lon="1.7075255">
        <ele>132.0</ele>
        <time>2022-03-31T08:59:18Z</time>
      </trkpt>
      <trkpt lat="47.53276" lon="1.7075329">
        <ele>131.0</ele>
        <time>2022-03-31T08:59:19Z</time>
      </trkpt>
      <trkpt lat="47.532776" lon="1.7075412">
        <ele>131.0</ele>
        <time>2022-03-31T08:59:20Z</time>
      </trkpt>
      <trkpt lat="47.532784" lon="1.7075428">
        <ele>131.0</ele>
        <time>2022-03-31T08:59:21Z</time>
      </trkpt>
      <trkpt lat="47.53281" lon="1.7075423">
        <ele>131.0</ele>
        <time>2022-03-31T08:59:22Z</time>
      </trkpt>
      <trkpt lat="47.53281" lon="1.7075423">
        <ele>131.0</ele>
        <time>2022-03-31T08:59:22Z</time>
      </trkpt>
      <trkpt lat="47.53282" lon="1.7075408">
        <ele>131.0</ele>
        <time>2022-03-31T08:59:24Z</time>
      </trkpt>
      <trkpt lat="47.532833" lon="1.7075478">
        <ele>132.0</ele>
        <time>2022-03-31T08:59:25Z</time>
      </trkpt>
      <trkpt lat="47.532845" lon="1.7075481">
        <ele>132.0</ele>
        <time>2022-03-31T08:59:26Z</time>
      </trkpt>
      <trkpt lat="47.532867" lon="1.7075478">
        <ele>132.0</ele>
        <time>2022-03-31T08:59:27Z</time>
      </trkpt>
      <trkpt lat="47.532883" lon="1.7075458">
        <ele>132.0</ele>
        <time>2022-03-31T08:59:28Z</time>
      </trkpt>
      <trkpt lat="47.532883" lon="1.7075458">
        <ele>132.0</ele>
        <time>2022-03-31T08:59:28Z</time>
      </trkpt>
      <trkpt lat="47.532906" lon="1.7075424">
        <ele>132.0</ele>
        <time>2022-03-31T08:59:30Z</time>
      </trkpt>
      <trkpt lat="47.53292" lon="1.7075424">
        <ele>132.0</ele>
        <time>2022-03-31T08:59:31Z</time>
      </trkpt>
      <trkpt lat="47.532932" lon="1.707539">
        <ele>131.0</ele>
        <time>2022-03-31T08:59:32Z</time>
      </trkpt>
      <trkpt lat="47.53294" lon="1.7075379">
        <ele>131.0</ele>
        <time>2022-03-31T08:59:33Z</time>
      </trkpt>
      <trkpt lat="47.53295" lon="1.7075335">
        <ele>131.0</ele>
        <time>2022-03-31T08:59:34Z</time>
      </trkpt>
      <trkpt lat="47.532963" lon="1.7075334">
        <ele>131.0</ele>
        <time>2022-03-31T08:59:35Z</time>
      </trkpt>
      <trkpt lat="47.532963" lon="1.7075334">
        <ele>131.0</ele>
        <time>2022-03-31T08:59:35Z</time>
      </trkpt>
      <trkpt lat="47.532974" lon="1.7075336">
        <ele>131.0</ele>
        <time>2022-03-31T08:59:37Z</time>
      </trkpt>
      <trkpt lat="47.532986" lon="1.7075368">
        <ele>131.0</ele>
        <time>2022-03-31T08:59:38Z</time>
      </trkpt>
      <trkpt lat="47.532997" lon="1.7075362">
        <ele>131.0</ele>
        <time>2022-03-31T08:59:39Z</time>
      </trkpt>
      <trkpt lat="47.533012" lon="1.7075362">
        <ele>131.0</ele>
        <time>2022-03-31T08:59:40Z</time>
      </trkpt>
      <trkpt lat="47.53302" lon="1.707535">
        <ele>131.0</ele>
        <time>2022-03-31T08:59:41Z</time>
      </trkpt>
      <trkpt lat="47.53303" lon="1.7075323">
        <ele>131.0</ele>
        <time>2022-03-31T08:59:42Z</time>
      </trkpt>
      <trkpt lat="47.533043" lon="1.7075286">
        <ele>131.0</ele>
        <time>2022-03-31T08:59:43Z</time>
      </trkpt>
      <trkpt lat="47.53306" lon="1.7075251">
        <ele>130.0</ele>
        <time>2022-03-31T08:59:44Z</time>
      </trkpt>
      <trkpt lat="47.53307" lon="1.7075224">
        <ele>130.0</ele>
        <time>2022-03-31T08:59:45Z</time>
      </trkpt>
      <trkpt lat="47.53308" lon="1.7075212">
        <ele>130.0</ele>
        <time>2022-03-31T08:59:46Z</time>
      </trkpt>
      <trkpt lat="47.533092" lon="1.707515">
        <ele>130.0</ele>
        <time>2022-03-31T08:59:47Z</time>
      </trkpt>
      <trkpt lat="47.533104" lon="1.7075071">
        <ele>130.0</ele>
        <time>2022-03-31T08:59:48Z</time>
      </trkpt>
      <trkpt lat="47.533115" lon="1.7075032">
        <ele>130.0</ele>
        <time>2022-03-31T08:59:49Z</time>
      </trkpt>
      <trkpt lat="47.53313" lon="1.707504">
        <ele>130.0</ele>
        <time>2022-03-31T08:59:50Z</time>
      </trkpt>
      <trkpt lat="47.533146" lon="1.7075036">
        <ele>130.0</ele>
        <time>2022-03-31T08:59:51Z</time>
      </trkpt>
      <trkpt lat="47.533154" lon="1.7075037">
        <ele>131.0</ele>
        <time>2022-03-31T08:59:52Z</time>
      </trkpt>
      <trkpt lat="47.53317" lon="1.7075037">
        <ele>131.0</ele>
        <time>2022-03-31T08:59:53Z</time>
      </trkpt>
      <trkpt lat="47.53318" lon="1.7075034">
        <ele>131.0</ele>
        <time>2022-03-31T08:59:54Z</time>
      </trkpt>
      <trkpt lat="47.533195" lon="1.7075019">
        <ele>131.0</ele>
        <time>2022-03-31T08:59:55Z</time>
      </trkpt>
      <trkpt lat="47.533207" lon="1.7075006">
        <ele>131.0</ele>
        <time>2022-03-31T08:59:56Z</time>
      </trkpt>
      <trkpt lat="47.533222" lon="1.7075049">
        <ele>131.0</ele>
        <time>2022-03-31T08:59:57Z</time>
      </trkpt>
      <trkpt lat="47.533234" lon="1.7075064">
        <ele>131.0</ele>
        <time>2022-03-31T08:59:58Z</time>
      </trkpt>
      <trkpt lat="47.533245" lon="1.7075069">
        <ele>131.0</ele>
        <time>2022-03-31T08:59:59Z</time>
      </trkpt>
      <trkpt lat="47.533268" lon="1.7075037">
        <ele>131.0</ele>
        <time>2022-03-31T09:00:00Z</time>
      </trkpt>
      <trkpt lat="47.533283" lon="1.7075036">
        <ele>131.0</ele>
        <time>2022-03-31T09:00:01Z</time>
      </trkpt>
      <trkpt lat="47.533283" lon="1.7075036">
        <ele>131.0</ele>
        <time>2022-03-31T09:00:01Z</time>
      </trkpt>
      <trkpt lat="47.533302" lon="1.7075074">
        <ele>131.0</ele>
        <time>2022-03-31T09:00:04Z</time>
      </trkpt>
      <trkpt lat="47.533314" lon="1.7075098">
        <ele>131.0</ele>
        <time>2022-03-31T09:00:05Z</time>
      </trkpt>
      <trkpt lat="47.533325" lon="1.7075111">
        <ele>131.0</ele>
        <time>2022-03-31T09:00:06Z</time>
      </trkpt>
      <trkpt lat="47.533337" lon="1.7075105">
        <ele>131.0</ele>
        <time>2022-03-31T09:00:07Z</time>
      </trkpt>
      <trkpt lat="47.533348" lon="1.7075101">
        <ele>131.0</ele>
        <time>2022-03-31T09:00:08Z</time>
      </trkpt>
      <trkpt lat="47.53336" lon="1.7075114">
        <ele>131.0</ele>
        <time>2022-03-31T09:00:09Z</time>
      </trkpt>
      <trkpt lat="47.533375" lon="1.7075136">
        <ele>132.0</ele>
        <time>2022-03-31T09:00:10Z</time>
      </trkpt>
      <trkpt lat="47.533386" lon="1.7075204">
        <ele>132.0</ele>
        <time>2022-03-31T09:00:11Z</time>
      </trkpt>
      <trkpt lat="47.533398" lon="1.7075214">
        <ele>132.0</ele>
        <time>2022-03-31T09:00:12Z</time>
      </trkpt>
      <trkpt lat="47.53341" lon="1.7075206">
        <ele>132.0</ele>
        <time>2022-03-31T09:00:13Z</time>
      </trkpt>
      <trkpt lat="47.53342" lon="1.7075241">
        <ele>132.0</ele>
        <time>2022-03-31T09:00:14Z</time>
      </trkpt>
      <trkpt lat="47.533432" lon="1.7075242">
        <ele>133.0</ele>
        <time>2022-03-31T09:00:15Z</time>
      </trkpt>
      <trkpt lat="47.533443" lon="1.7075216">
        <ele>133.0</ele>
        <time>2022-03-31T09:00:16Z</time>
      </trkpt>
      <trkpt lat="47.53346" lon="1.7075171">
        <ele>132.0</ele>
        <time>2022-03-31T09:00:17Z</time>
      </trkpt>
      <trkpt lat="47.533474" lon="1.707516">
        <ele>132.0</ele>
        <time>2022-03-31T09:00:18Z</time>
      </trkpt>
      <trkpt lat="47.53349" lon="1.7075163">
        <ele>132.0</ele>
        <time>2022-03-31T09:00:19Z</time>
      </trkpt>
      <trkpt lat="47.5335" lon="1.7075136">
        <ele>132.0</ele>
        <time>2022-03-31T09:00:20Z</time>
      </trkpt>
      <trkpt lat="47.533512" lon="1.7075148">
        <ele>132.0</ele>
        <time>2022-03-31T09:00:21Z</time>
      </trkpt>
      <trkpt lat="47.533524" lon="1.7075139">
        <ele>132.0</ele>
        <time>2022-03-31T09:00:22Z</time>
      </trkpt>
      <trkpt lat="47.53354" lon="1.7075125">
        <ele>133.0</ele>
        <time>2022-03-31T09:00:23Z</time>
      </trkpt>
      <trkpt lat="47.53355" lon="1.7075142">
        <ele>133.0</ele>
        <time>2022-03-31T09:00:24Z</time>
      </trkpt>
      <trkpt lat="47.53356" lon="1.7075135">
        <ele>132.0</ele>
        <time>2022-03-31T09:00:25Z</time>
      </trkpt>
      <trkpt lat="47.533573" lon="1.7075113">
        <ele>132.0</ele>
        <time>2022-03-31T09:00:26Z</time>
      </trkpt>
      <trkpt lat="47.53358" lon="1.7075112">
        <ele>133.0</ele>
        <time>2022-03-31T09:00:27Z</time>
      </trkpt>
      <trkpt lat="47.533592" lon="1.7075145">
        <ele>133.0</ele>
        <time>2022-03-31T09:00:28Z</time>
      </trkpt>
      <trkpt lat="47.5336" lon="1.7075175">
        <ele>132.0</ele>
        <time>2022-03-31T09:00:29Z</time>
      </trkpt>
      <trkpt lat="47.53361" lon="1.7075167">
        <ele>132.0</ele>
        <time>2022-03-31T09:00:30Z</time>
      </trkpt>
      <trkpt lat="47.533623" lon="1.7075158">
        <ele>133.0</ele>
        <time>2022-03-31T09:00:31Z</time>
      </trkpt>
      <trkpt lat="47.533634" lon="1.707515">
        <ele>133.0</ele>
        <time>2022-03-31T09:00:32Z</time>
      </trkpt>
      <trkpt lat="47.533646" lon="1.7075137">
        <ele>133.0</ele>
        <time>2022-03-31T09:00:33Z</time>
      </trkpt>
      <trkpt lat="47.533653" lon="1.7075094">
        <ele>133.0</ele>
        <time>2022-03-31T09:00:34Z</time>
      </trkpt>
      <trkpt lat="47.533665" lon="1.7075081">
        <ele>133.0</ele>
        <time>2022-03-31T09:00:35Z</time>
      </trkpt>
      <trkpt lat="47.533672" lon="1.7075064">
        <ele>133.0</ele>
        <time>2022-03-31T09:00:36Z</time>
      </trkpt>
      <trkpt lat="47.533684" lon="1.7075028">
        <ele>133.0</ele>
        <time>2022-03-31T09:00:37Z</time>
      </trkpt>
      <trkpt lat="47.533695" lon="1.7075033">
        <ele>133.0</ele>
        <time>2022-03-31T09:00:38Z</time>
      </trkpt>
      <trkpt lat="47.533707" lon="1.707499">
        <ele>134.0</ele>
        <time>2022-03-31T09:00:39Z</time>
      </trkpt>
      <trkpt lat="47.533722" lon="1.7074952">
        <ele>134.0</ele>
        <time>2022-03-31T09:00:40Z</time>
      </trkpt>
      <trkpt lat="47.533733" lon="1.7074949">
        <ele>134.0</ele>
        <time>2022-03-31T09:00:41Z</time>
      </trkpt>
      <trkpt lat="47.533745" lon="1.7074934">
        <ele>134.0</ele>
        <time>2022-03-31T09:00:42Z</time>
      </trkpt>
      <trkpt lat="47.533756" lon="1.7074894">
        <ele>134.0</ele>
        <time>2022-03-31T09:00:43Z</time>
      </trkpt>
      <trkpt lat="47.53377" lon="1.7074873">
        <ele>134.0</ele>
        <time>2022-03-31T09:00:44Z</time>
      </trkpt>
      <trkpt lat="47.533783" lon="1.7074884">
        <ele>134.0</ele>
        <time>2022-03-31T09:00:45Z</time>
      </trkpt>
      <trkpt lat="47.533794" lon="1.7074875">
        <ele>135.0</ele>
        <time>2022-03-31T09:00:46Z</time>
      </trkpt>
      <trkpt lat="47.533806" lon="1.7074851">
        <ele>134.0</ele>
        <time>2022-03-31T09:00:47Z</time>
      </trkpt>
      <trkpt lat="47.533813" lon="1.7074839">
        <ele>135.0</ele>
        <time>2022-03-31T09:00:48Z</time>
      </trkpt>
      <trkpt lat="47.533825" lon="1.7074798">
        <ele>135.0</ele>
        <time>2022-03-31T09:00:49Z</time>
      </trkpt>
      <trkpt lat="47.533836" lon="1.7074792">
        <ele>135.0</ele>
        <time>2022-03-31T09:00:50Z</time>
      </trkpt>
      <trkpt lat="47.533844" lon="1.7074786">
        <ele>135.0</ele>
        <time>2022-03-31T09:00:51Z</time>
      </trkpt>
      <trkpt lat="47.53385" lon="1.7074764">
        <ele>135.0</ele>
        <time>2022-03-31T09:00:52Z</time>
      </trkpt>
      <trkpt lat="47.533867" lon="1.7074813">
        <ele>134.0</ele>
        <time>2022-03-31T09:00:53Z</time>
      </trkpt>
      <trkpt lat="47.53388" lon="1.7074866">
        <ele>135.0</ele>
        <time>2022-03-31T09:00:54Z</time>
      </trkpt>
      <trkpt lat="47.533886" lon="1.7074876">
        <ele>135.0</ele>
        <time>2022-03-31T09:00:55Z</time>
      </trkpt>
      <trkpt lat="47.533894" lon="1.7074865">
        <ele>134.0</ele>
        <time>2022-03-31T09:00:56Z</time>
      </trkpt>
      <trkpt lat="47.533905" lon="1.7074877">
        <ele>134.0</ele>
        <time>2022-03-31T09:00:57Z</time>
      </trkpt>
      <trkpt lat="47.533916" lon="1.70749">
        <ele>134.0</ele>
        <time>2022-03-31T09:00:58Z</time>
      </trkpt>
      <trkpt lat="47.53393" lon="1.7074975">
        <ele>135.0</ele>
        <time>2022-03-31T09:00:59Z</time>
      </trkpt>
      <trkpt lat="47.533943" lon="1.7075001">
        <ele>135.0</ele>
        <time>2022-03-31T09:01:00Z</time>
      </trkpt>
      <trkpt lat="47.533955" lon="1.7074987">
        <ele>135.0</ele>
        <time>2022-03-31T09:01:01Z</time>
      </trkpt>
      <trkpt lat="47.53397" lon="1.7074962">
        <ele>134.0</ele>
        <time>2022-03-31T09:01:02Z</time>
      </trkpt>
      <trkpt lat="47.533985" lon="1.707493">
        <ele>134.0</ele>
        <time>2022-03-31T09:01:03Z</time>
      </trkpt>
      <trkpt lat="47.534" lon="1.7074869">
        <ele>134.0</ele>
        <time>2022-03-31T09:01:04Z</time>
      </trkpt>
      <trkpt lat="47.534016" lon="1.7074856">
        <ele>133.0</ele>
        <time>2022-03-31T09:01:05Z</time>
      </trkpt>
      <trkpt lat="47.53403" lon="1.7074814">
        <ele>133.0</ele>
        <time>2022-03-31T09:01:06Z</time>
      </trkpt>
      <trkpt lat="47.534042" lon="1.7074791">
        <ele>133.0</ele>
        <time>2022-03-31T09:01:07Z</time>
      </trkpt>
      <trkpt lat="47.534058" lon="1.7074729">
        <ele>132.0</ele>
        <time>2022-03-31T09:01:08Z</time>
      </trkpt>
      <trkpt lat="47.534073" lon="1.707469">
        <ele>132.0</ele>
        <time>2022-03-31T09:01:09Z</time>
      </trkpt>
      <trkpt lat="47.53408" lon="1.707467">
        <ele>132.0</ele>
        <time>2022-03-31T09:01:10Z</time>
      </trkpt>
      <trkpt lat="47.534096" lon="1.7074662">
        <ele>132.0</ele>
        <time>2022-03-31T09:01:11Z</time>
      </trkpt>
      <trkpt lat="47.534107" lon="1.7074625">
        <ele>131.0</ele>
        <time>2022-03-31T09:01:12Z</time>
      </trkpt>
      <trkpt lat="47.53412" lon="1.7074608">
        <ele>131.0</ele>
        <time>2022-03-31T09:01:13Z</time>
      </trkpt>
      <trkpt lat="47.53413" lon="1.7074605">
        <ele>131.0</ele>
        <time>2022-03-31T09:01:14Z</time>
      </trkpt>
      <trkpt lat="47.534138" lon="1.7074652">
        <ele>131.0</ele>
        <time>2022-03-31T09:01:15Z</time>
      </trkpt>
      <trkpt lat="47.53415" lon="1.7074668">
        <ele>131.0</ele>
        <time>2022-03-31T09:01:16Z</time>
      </trkpt>
      <trkpt lat="47.534157" lon="1.7074605">
        <ele>131.0</ele>
        <time>2022-03-31T09:01:17Z</time>
      </trkpt>
      <trkpt lat="47.53417" lon="1.7074558">
        <ele>131.0</ele>
        <time>2022-03-31T09:01:18Z</time>
      </trkpt>
      <trkpt lat="47.53418" lon="1.7074547">
        <ele>132.0</ele>
        <time>2022-03-31T09:01:19Z</time>
      </trkpt>
      <trkpt lat="47.534184" lon="1.7074568">
        <ele>133.0</ele>
        <time>2022-03-31T09:01:20Z</time>
      </trkpt>
      <trkpt lat="47.534187" lon="1.7074577">
        <ele>133.0</ele>
        <time>2022-03-31T09:01:21Z</time>
      </trkpt>
      <trkpt lat="47.534187" lon="1.7074577">
        <ele>133.0</ele>
        <time>2022-03-31T09:01:22Z</time>
      </trkpt>
      <trkpt lat="47.534187" lon="1.7074577">
        <ele>133.0</ele>
        <time>2022-03-31T09:01:22Z</time>
      </trkpt>
      <trkpt lat="47.534187" lon="1.7074577">
        <ele>133.0</ele>
        <time>2022-03-31T09:01:22Z</time>
      </trkpt>
      <trkpt lat="47.53423" lon="1.7074611">
        <ele>135.0</ele>
        <time>2022-03-31T09:01:32Z</time>
      </trkpt>
      <trkpt lat="47.534233" lon="1.7074645">
        <ele>136.0</ele>
        <time>2022-03-31T09:01:33Z</time>
      </trkpt>
      <trkpt lat="47.534233" lon="1.7074645">
        <ele>136.0</ele>
        <time>2022-03-31T09:01:34Z</time>
      </trkpt>
      <trkpt lat="47.534233" lon="1.7074645">
        <ele>136.0</ele>
        <time>2022-03-31T09:01:35Z</time>
      </trkpt>
      <trkpt lat="47.534233" lon="1.7074645">
        <ele>136.0</ele>
        <time>2022-03-31T09:01:35Z</time>
      </trkpt>
      <trkpt lat="47.534233" lon="1.7074645">
        <ele>136.0</ele>
        <time>2022-03-31T09:01:35Z</time>
      </trkpt>
      <trkpt lat="47.534332" lon="1.7074662">
        <ele>140.0</ele>
        <time>2022-03-31T09:02:26Z</time>
      </trkpt>
      <trkpt lat="47.534344" lon="1.7074556">
        <ele>139.0</ele>
        <time>2022-03-31T09:02:27Z</time>
      </trkpt>
      <trkpt lat="47.534355" lon="1.7074441">
        <ele>139.0</ele>
        <time>2022-03-31T09:02:28Z</time>
      </trkpt>
      <trkpt lat="47.534363" lon="1.7074357">
        <ele>139.0</ele>
        <time>2022-03-31T09:02:29Z</time>
      </trkpt>
      <trkpt lat="47.53437" lon="1.7074281">
        <ele>138.0</ele>
        <time>2022-03-31T09:02:30Z</time>
      </trkpt>
      <trkpt lat="47.53437" lon="1.7074215">
        <ele>138.0</ele>
        <time>2022-03-31T09:02:31Z</time>
      </trkpt>
      <trkpt lat="47.53437" lon="1.7074138">
        <ele>139.0</ele>
        <time>2022-03-31T09:02:32Z</time>
      </trkpt>
      <trkpt lat="47.534367" lon="1.7074035">
        <ele>138.0</ele>
        <time>2022-03-31T09:02:33Z</time>
      </trkpt>
      <trkpt lat="47.534363" lon="1.7073877">
        <ele>138.0</ele>
        <time>2022-03-31T09:02:34Z</time>
      </trkpt>
      <trkpt lat="47.534363" lon="1.7073758">
        <ele>138.0</ele>
        <time>2022-03-31T09:02:35Z</time>
      </trkpt>
      <trkpt lat="47.53436" lon="1.7073671">
        <ele>137.0</ele>
        <time>2022-03-31T09:02:36Z</time>
      </trkpt>
      <trkpt lat="47.53436" lon="1.7073611">
        <ele>137.0</ele>
        <time>2022-03-31T09:02:37Z</time>
      </trkpt>
      <trkpt lat="47.53436" lon="1.7073611">
        <ele>137.0</ele>
        <time>2022-03-31T09:02:38Z</time>
      </trkpt>
      <trkpt lat="47.534355" lon="1.7073431">
        <ele>138.0</ele>
        <time>2022-03-31T09:02:39Z</time>
      </trkpt>
      <trkpt lat="47.53435" lon="1.7073305">
        <ele>138.0</ele>
        <time>2022-03-31T09:02:40Z</time>
      </trkpt>
      <trkpt lat="47.53435" lon="1.7073171">
        <ele>138.0</ele>
        <time>2022-03-31T09:02:41Z</time>
      </trkpt>
      <trkpt lat="47.53435" lon="1.7073001">
        <ele>138.0</ele>
        <time>2022-03-31T09:02:42Z</time>
      </trkpt>
      <trkpt lat="47.534355" lon="1.7072864">
        <ele>138.0</ele>
        <time>2022-03-31T09:02:43Z</time>
      </trkpt>
      <trkpt lat="47.53436" lon="1.7072722">
        <ele>138.0</ele>
        <time>2022-03-31T09:02:44Z</time>
      </trkpt>
      <trkpt lat="47.534363" lon="1.7072542">
        <ele>138.0</ele>
        <time>2022-03-31T09:02:45Z</time>
      </trkpt>
      <trkpt lat="47.534363" lon="1.7072369">
        <ele>138.0</ele>
        <time>2022-03-31T09:02:46Z</time>
      </trkpt>
      <trkpt lat="47.534363" lon="1.707218">
        <ele>138.0</ele>
        <time>2022-03-31T09:02:47Z</time>
      </trkpt>
      <trkpt lat="47.53436" lon="1.707204">
        <ele>137.0</ele>
        <time>2022-03-31T09:02:48Z</time>
      </trkpt>
      <trkpt lat="47.53436" lon="1.7071918">
        <ele>137.0</ele>
        <time>2022-03-31T09:02:49Z</time>
      </trkpt>
      <trkpt lat="47.53436" lon="1.707177">
        <ele>136.0</ele>
        <time>2022-03-31T09:02:50Z</time>
      </trkpt>
      <trkpt lat="47.53436" lon="1.7071624">
        <ele>136.0</ele>
        <time>2022-03-31T09:02:51Z</time>
      </trkpt>
      <trkpt lat="47.534363" lon="1.7071474">
        <ele>136.0</ele>
        <time>2022-03-31T09:02:52Z</time>
      </trkpt>
      <trkpt lat="47.534363" lon="1.7071317">
        <ele>136.0</ele>
        <time>2022-03-31T09:02:53Z</time>
      </trkpt>
      <trkpt lat="47.534363" lon="1.7071162">
        <ele>136.0</ele>
        <time>2022-03-31T09:02:54Z</time>
      </trkpt>
      <trkpt lat="47.534367" lon="1.707102">
        <ele>136.0</ele>
        <time>2022-03-31T09:02:55Z</time>
      </trkpt>
      <trkpt lat="47.534367" lon="1.7070885">
        <ele>136.0</ele>
        <time>2022-03-31T09:02:56Z</time>
      </trkpt>
      <trkpt lat="47.534367" lon="1.7070768">
        <ele>136.0</ele>
        <time>2022-03-31T09:02:57Z</time>
      </trkpt>
      <trkpt lat="47.534367" lon="1.7070625">
        <ele>135.0</ele>
        <time>2022-03-31T09:02:58Z</time>
      </trkpt>
      <trkpt lat="47.534367" lon="1.7070441">
        <ele>135.0</ele>
        <time>2022-03-31T09:02:59Z</time>
      </trkpt>
      <trkpt lat="47.534367" lon="1.707026">
        <ele>136.0</ele>
        <time>2022-03-31T09:03:00Z</time>
      </trkpt>
      <trkpt lat="47.534367" lon="1.7070055">
        <ele>136.0</ele>
        <time>2022-03-31T09:03:01Z</time>
      </trkpt>
      <trkpt lat="47.534367" lon="1.7069879">
        <ele>136.0</ele>
        <time>2022-03-31T09:03:02Z</time>
      </trkpt>
      <trkpt lat="47.534367" lon="1.7069707">
        <ele>136.0</ele>
        <time>2022-03-31T09:03:03Z</time>
      </trkpt>
      <trkpt lat="47.534363" lon="1.7069546">
        <ele>136.0</ele>
        <time>2022-03-31T09:03:04Z</time>
      </trkpt>
      <trkpt lat="47.53436" lon="1.7069374">
        <ele>136.0</ele>
        <time>2022-03-31T09:03:05Z</time>
      </trkpt>
      <trkpt lat="47.53436" lon="1.70692">
        <ele>136.0</ele>
        <time>2022-03-31T09:03:06Z</time>
      </trkpt>
      <trkpt lat="47.53436" lon="1.7068998">
        <ele>136.0</ele>
        <time>2022-03-31T09:03:07Z</time>
      </trkpt>
      <trkpt lat="47.534363" lon="1.7068812">
        <ele>136.0</ele>
        <time>2022-03-31T09:03:08Z</time>
      </trkpt>
      <trkpt lat="47.53436" lon="1.7068624">
        <ele>136.0</ele>
        <time>2022-03-31T09:03:09Z</time>
      </trkpt>
      <trkpt lat="47.53436" lon="1.7068447">
        <ele>136.0</ele>
        <time>2022-03-31T09:03:10Z</time>
      </trkpt>
      <trkpt lat="47.53436" lon="1.7068267">
        <ele>136.0</ele>
        <time>2022-03-31T09:03:11Z</time>
      </trkpt>
      <trkpt lat="47.53436" lon="1.706811">
        <ele>136.0</ele>
        <time>2022-03-31T09:03:12Z</time>
      </trkpt>
      <trkpt lat="47.53436" lon="1.7067912">
        <ele>136.0</ele>
        <time>2022-03-31T09:03:13Z</time>
      </trkpt>
      <trkpt lat="47.534363" lon="1.706773">
        <ele>137.0</ele>
        <time>2022-03-31T09:03:14Z</time>
      </trkpt>
      <trkpt lat="47.534363" lon="1.7067513">
        <ele>137.0</ele>
        <time>2022-03-31T09:03:15Z</time>
      </trkpt>
      <trkpt lat="47.534363" lon="1.7067364">
        <ele>137.0</ele>
        <time>2022-03-31T09:03:16Z</time>
      </trkpt>
      <trkpt lat="47.534363" lon="1.7067242">
        <ele>137.0</ele>
        <time>2022-03-31T09:03:17Z</time>
      </trkpt>
      <trkpt lat="47.534363" lon="1.7067078">
        <ele>137.0</ele>
        <time>2022-03-31T09:03:18Z</time>
      </trkpt>
      <trkpt lat="47.534363" lon="1.706692">
        <ele>136.0</ele>
        <time>2022-03-31T09:03:19Z</time>
      </trkpt>
      <trkpt lat="47.534363" lon="1.7066739">
        <ele>137.0</ele>
        <time>2022-03-31T09:03:20Z</time>
      </trkpt>
      <trkpt lat="47.534363" lon="1.7066537">
        <ele>137.0</ele>
        <time>2022-03-31T09:03:21Z</time>
      </trkpt>
      <trkpt lat="47.534363" lon="1.7066337">
        <ele>137.0</ele>
        <time>2022-03-31T09:03:22Z</time>
      </trkpt>
      <trkpt lat="47.534363" lon="1.706614">
        <ele>136.0</ele>
        <time>2022-03-31T09:03:23Z</time>
      </trkpt>
      <trkpt lat="47.534367" lon="1.7066">
        <ele>137.0</ele>
        <time>2022-03-31T09:03:24Z</time>
      </trkpt>
      <trkpt lat="47.534367" lon="1.706582">
        <ele>137.0</ele>
        <time>2022-03-31T09:03:25Z</time>
      </trkpt>
      <trkpt lat="47.534367" lon="1.7065641">
        <ele>137.0</ele>
        <time>2022-03-31T09:03:26Z</time>
      </trkpt>
      <trkpt lat="47.534367" lon="1.7065452">
        <ele>137.0</ele>
        <time>2022-03-31T09:03:27Z</time>
      </trkpt>
      <trkpt lat="47.534367" lon="1.7065287">
        <ele>137.0</ele>
        <time>2022-03-31T09:03:28Z</time>
      </trkpt>
      <trkpt lat="47.534367" lon="1.7065121">
        <ele>137.0</ele>
        <time>2022-03-31T09:03:29Z</time>
      </trkpt>
      <trkpt lat="47.534367" lon="1.7064933">
        <ele>137.0</ele>
        <time>2022-03-31T09:03:30Z</time>
      </trkpt>
      <trkpt lat="47.534367" lon="1.706476">
        <ele>137.0</ele>
        <time>2022-03-31T09:03:31Z</time>
      </trkpt>
      <trkpt lat="47.53437" lon="1.7064589">
        <ele>137.0</ele>
        <time>2022-03-31T09:03:32Z</time>
      </trkpt>
      <trkpt lat="47.534374" lon="1.7064404">
        <ele>136.0</ele>
        <time>2022-03-31T09:03:33Z</time>
      </trkpt>
      <trkpt lat="47.534374" lon="1.7064207">
        <ele>136.0</ele>
        <time>2022-03-31T09:03:34Z</time>
      </trkpt>
      <trkpt lat="47.534378" lon="1.7064023">
        <ele>136.0</ele>
        <time>2022-03-31T09:03:35Z</time>
      </trkpt>
      <trkpt lat="47.534378" lon="1.7063843">
        <ele>137.0</ele>
        <time>2022-03-31T09:03:36Z</time>
      </trkpt>
      <trkpt lat="47.534378" lon="1.7063648">
        <ele>136.0</ele>
        <time>2022-03-31T09:03:37Z</time>
      </trkpt>
      <trkpt lat="47.534378" lon="1.7063457">
        <ele>137.0</ele>
        <time>2022-03-31T09:03:38Z</time>
      </trkpt>
      <trkpt lat="47.53438" lon="1.7063277">
        <ele>137.0</ele>
        <time>2022-03-31T09:03:39Z</time>
      </trkpt>
      <trkpt lat="47.53438" lon="1.7063117">
        <ele>137.0</ele>
        <time>2022-03-31T09:03:40Z</time>
      </trkpt>
      <trkpt lat="47.53438" lon="1.7062923">
        <ele>137.0</ele>
        <time>2022-03-31T09:03:41Z</time>
      </trkpt>
      <trkpt lat="47.53438" lon="1.7062745">
        <ele>138.0</ele>
        <time>2022-03-31T09:03:42Z</time>
      </trkpt>
      <trkpt lat="47.534386" lon="1.7062569">
        <ele>137.0</ele>
        <time>2022-03-31T09:03:43Z</time>
      </trkpt>
      <trkpt lat="47.53439" lon="1.7062416">
        <ele>137.0</ele>
        <time>2022-03-31T09:03:44Z</time>
      </trkpt>
      <trkpt lat="47.534393" lon="1.706227">
        <ele>137.0</ele>
        <time>2022-03-31T09:03:45Z</time>
      </trkpt>
      <trkpt lat="47.534393" lon="1.706213">
        <ele>137.0</ele>
        <time>2022-03-31T09:03:46Z</time>
      </trkpt>
      <trkpt lat="47.534393" lon="1.7061983">
        <ele>136.0</ele>
        <time>2022-03-31T09:03:47Z</time>
      </trkpt>
      <trkpt lat="47.534397" lon="1.7061809">
        <ele>136.0</ele>
        <time>2022-03-31T09:03:48Z</time>
      </trkpt>
      <trkpt lat="47.534397" lon="1.7061615">
        <ele>136.0</ele>
        <time>2022-03-31T09:03:49Z</time>
      </trkpt>
      <trkpt lat="47.534397" lon="1.7061422">
        <ele>136.0</ele>
        <time>2022-03-31T09:03:50Z</time>
      </trkpt>
      <trkpt lat="47.534397" lon="1.7061234">
        <ele>137.0</ele>
        <time>2022-03-31T09:03:51Z</time>
      </trkpt>
      <trkpt lat="47.5344" lon="1.7061044">
        <ele>137.0</ele>
        <time>2022-03-31T09:03:52Z</time>
      </trkpt>
      <trkpt lat="47.5344" lon="1.7060843">
        <ele>137.0</ele>
        <time>2022-03-31T09:03:53Z</time>
      </trkpt>
      <trkpt lat="47.5344" lon="1.7060659">
        <ele>137.0</ele>
        <time>2022-03-31T09:03:54Z</time>
      </trkpt>
      <trkpt lat="47.5344" lon="1.7060483">
        <ele>137.0</ele>
        <time>2022-03-31T09:03:55Z</time>
      </trkpt>
      <trkpt lat="47.5344" lon="1.7060254">
        <ele>138.0</ele>
        <time>2022-03-31T09:03:56Z</time>
      </trkpt>
      <trkpt lat="47.5344" lon="1.7060032">
        <ele>138.0</ele>
        <time>2022-03-31T09:03:57Z</time>
      </trkpt>
      <trkpt lat="47.534405" lon="1.7059805">
        <ele>138.0</ele>
        <time>2022-03-31T09:03:58Z</time>
      </trkpt>
      <trkpt lat="47.534405" lon="1.7059624">
        <ele>138.0</ele>
        <time>2022-03-31T09:03:59Z</time>
      </trkpt>
      <trkpt lat="47.534405" lon="1.705941">
        <ele>137.0</ele>
        <time>2022-03-31T09:04:00Z</time>
      </trkpt>
      <trkpt lat="47.53441" lon="1.705922">
        <ele>138.0</ele>
        <time>2022-03-31T09:04:01Z</time>
      </trkpt>
      <trkpt lat="47.534412" lon="1.7059063">
        <ele>138.0</ele>
        <time>2022-03-31T09:04:02Z</time>
      </trkpt>
      <trkpt lat="47.53441" lon="1.7058883">
        <ele>138.0</ele>
        <time>2022-03-31T09:04:03Z</time>
      </trkpt>
      <trkpt lat="47.534412" lon="1.7058692">
        <ele>138.0</ele>
        <time>2022-03-31T09:04:04Z</time>
      </trkpt>
      <trkpt lat="47.534412" lon="1.7058527">
        <ele>138.0</ele>
        <time>2022-03-31T09:04:05Z</time>
      </trkpt>
      <trkpt lat="47.534412" lon="1.7058351">
        <ele>139.0</ele>
        <time>2022-03-31T09:04:06Z</time>
      </trkpt>
      <trkpt lat="47.534416" lon="1.7058196">
        <ele>139.0</ele>
        <time>2022-03-31T09:04:07Z</time>
      </trkpt>
      <trkpt lat="47.53442" lon="1.7057995">
        <ele>139.0</ele>
        <time>2022-03-31T09:04:08Z</time>
      </trkpt>
      <trkpt lat="47.53442" lon="1.705778">
        <ele>139.0</ele>
        <time>2022-03-31T09:04:09Z</time>
      </trkpt>
      <trkpt lat="47.534424" lon="1.7057563">
        <ele>140.0</ele>
        <time>2022-03-31T09:04:10Z</time>
      </trkpt>
      <trkpt lat="47.53442" lon="1.705736">
        <ele>139.0</ele>
        <time>2022-03-31T09:04:11Z</time>
      </trkpt>
      <trkpt lat="47.53442" lon="1.7057186">
        <ele>140.0</ele>
        <time>2022-03-31T09:04:12Z</time>
      </trkpt>
      <trkpt lat="47.53442" lon="1.7056978">
        <ele>140.0</ele>
        <time>2022-03-31T09:04:13Z</time>
      </trkpt>
      <trkpt lat="47.53442" lon="1.7056805">
        <ele>140.0</ele>
        <time>2022-03-31T09:04:14Z</time>
      </trkpt>
      <trkpt lat="47.53442" lon="1.7056637">
        <ele>140.0</ele>
        <time>2022-03-31T09:04:15Z</time>
      </trkpt>
      <trkpt lat="47.53442" lon="1.7056463">
        <ele>140.0</ele>
        <time>2022-03-31T09:04:16Z</time>
      </trkpt>
      <trkpt lat="47.534424" lon="1.7056333">
        <ele>140.0</ele>
        <time>2022-03-31T09:04:17Z</time>
      </trkpt>
      <trkpt lat="47.534424" lon="1.7056237">
        <ele>140.0</ele>
        <time>2022-03-31T09:04:18Z</time>
      </trkpt>
      <trkpt lat="47.53442" lon="1.7056122">
        <ele>140.0</ele>
        <time>2022-03-31T09:04:19Z</time>
      </trkpt>
      <trkpt lat="47.53442" lon="1.7055994">
        <ele>141.0</ele>
        <time>2022-03-31T09:04:20Z</time>
      </trkpt>
      <trkpt lat="47.53442" lon="1.7055994">
        <ele>141.0</ele>
        <time>2022-03-31T09:04:21Z</time>
      </trkpt>
      <trkpt lat="47.53442" lon="1.7055788">
        <ele>141.0</ele>
        <time>2022-03-31T09:04:22Z</time>
      </trkpt>
      <trkpt lat="47.53442" lon="1.7055615">
        <ele>141.0</ele>
        <time>2022-03-31T09:04:23Z</time>
      </trkpt>
      <trkpt lat="47.53442" lon="1.7055415">
        <ele>141.0</ele>
        <time>2022-03-31T09:04:24Z</time>
      </trkpt>
      <trkpt lat="47.534416" lon="1.7055244">
        <ele>141.0</ele>
        <time>2022-03-31T09:04:25Z</time>
      </trkpt>
      <trkpt lat="47.534416" lon="1.7055011">
        <ele>141.0</ele>
        <time>2022-03-31T09:04:26Z</time>
      </trkpt>
      <trkpt lat="47.53442" lon="1.7054795">
        <ele>141.0</ele>
        <time>2022-03-31T09:04:27Z</time>
      </trkpt>
      <trkpt lat="47.534416" lon="1.7054615">
        <ele>141.0</ele>
        <time>2022-03-31T09:04:28Z</time>
      </trkpt>
      <trkpt lat="47.534416" lon="1.7054433">
        <ele>141.0</ele>
        <time>2022-03-31T09:04:29Z</time>
      </trkpt>
      <trkpt lat="47.534416" lon="1.7054247">
        <ele>141.0</ele>
        <time>2022-03-31T09:04:30Z</time>
      </trkpt>
      <trkpt lat="47.53442" lon="1.7054032">
        <ele>141.0</ele>
        <time>2022-03-31T09:04:31Z</time>
      </trkpt>
      <trkpt lat="47.53442" lon="1.7053783">
        <ele>141.0</ele>
        <time>2022-03-31T09:04:32Z</time>
      </trkpt>
      <trkpt lat="47.53442" lon="1.7053512">
        <ele>141.0</ele>
        <time>2022-03-31T09:04:33Z</time>
      </trkpt>
      <trkpt lat="47.53442" lon="1.7053255">
        <ele>141.0</ele>
        <time>2022-03-31T09:04:34Z</time>
      </trkpt>
      <trkpt lat="47.53442" lon="1.7053024">
        <ele>141.0</ele>
        <time>2022-03-31T09:04:35Z</time>
      </trkpt>
      <trkpt lat="47.53442" lon="1.7052813">
        <ele>141.0</ele>
        <time>2022-03-31T09:04:36Z</time>
      </trkpt>
      <trkpt lat="47.53442" lon="1.7052649">
        <ele>141.0</ele>
        <time>2022-03-31T09:04:37Z</time>
      </trkpt>
      <trkpt lat="47.53442" lon="1.7052493">
        <ele>141.0</ele>
        <time>2022-03-31T09:04:38Z</time>
      </trkpt>
      <trkpt lat="47.53442" lon="1.7052312">
        <ele>140.0</ele>
        <time>2022-03-31T09:04:39Z</time>
      </trkpt>
      <trkpt lat="47.53442" lon="1.7052115">
        <ele>141.0</ele>
        <time>2022-03-31T09:04:40Z</time>
      </trkpt>
      <trkpt lat="47.534424" lon="1.7051915">
        <ele>141.0</ele>
        <time>2022-03-31T09:04:41Z</time>
      </trkpt>
      <trkpt lat="47.534424" lon="1.7051715">
        <ele>141.0</ele>
        <time>2022-03-31T09:04:42Z</time>
      </trkpt>
      <trkpt lat="47.534424" lon="1.7051501">
        <ele>141.0</ele>
        <time>2022-03-31T09:04:43Z</time>
      </trkpt>
      <trkpt lat="47.534424" lon="1.7051322">
        <ele>140.0</ele>
        <time>2022-03-31T09:04:44Z</time>
      </trkpt>
      <trkpt lat="47.534424" lon="1.7051141">
        <ele>140.0</ele>
        <time>2022-03-31T09:04:45Z</time>
      </trkpt>
      <trkpt lat="47.534424" lon="1.7050977">
        <ele>140.0</ele>
        <time>2022-03-31T09:04:46Z</time>
      </trkpt>
      <trkpt lat="47.534424" lon="1.7050816">
        <ele>140.0</ele>
        <time>2022-03-31T09:04:47Z</time>
      </trkpt>
      <trkpt lat="47.534424" lon="1.7050619">
        <ele>141.0</ele>
        <time>2022-03-31T09:04:48Z</time>
      </trkpt>
      <trkpt lat="47.534424" lon="1.7050474">
        <ele>140.0</ele>
        <time>2022-03-31T09:04:49Z</time>
      </trkpt>
      <trkpt lat="47.53442" lon="1.7050271">
        <ele>140.0</ele>
        <time>2022-03-31T09:04:50Z</time>
      </trkpt>
      <trkpt lat="47.534416" lon="1.7050056">
        <ele>140.0</ele>
        <time>2022-03-31T09:04:51Z</time>
      </trkpt>
      <trkpt lat="47.534416" lon="1.7049849">
        <ele>140.0</ele>
        <time>2022-03-31T09:04:52Z</time>
      </trkpt>
      <trkpt lat="47.534416" lon="1.7049655">
        <ele>140.0</ele>
        <time>2022-03-31T09:04:53Z</time>
      </trkpt>
      <trkpt lat="47.534412" lon="1.7049518">
        <ele>140.0</ele>
        <time>2022-03-31T09:04:54Z</time>
      </trkpt>
      <trkpt lat="47.534416" lon="1.7049308">
        <ele>140.0</ele>
        <time>2022-03-31T09:04:55Z</time>
      </trkpt>
      <trkpt lat="47.534416" lon="1.7049116">
        <ele>140.0</ele>
        <time>2022-03-31T09:04:56Z</time>
      </trkpt>
      <trkpt lat="47.534416" lon="1.7048885">
        <ele>141.0</ele>
        <time>2022-03-31T09:04:57Z</time>
      </trkpt>
      <trkpt lat="47.53442" lon="1.7048703">
        <ele>141.0</ele>
        <time>2022-03-31T09:04:58Z</time>
      </trkpt>
      <trkpt lat="47.534424" lon="1.7048509">
        <ele>141.0</ele>
        <time>2022-03-31T09:04:59Z</time>
      </trkpt>
      <trkpt lat="47.534424" lon="1.7048353">
        <ele>141.0</ele>
        <time>2022-03-31T09:05:00Z</time>
      </trkpt>
      <trkpt lat="47.534428" lon="1.7048163">
        <ele>141.0</ele>
        <time>2022-03-31T09:05:01Z</time>
      </trkpt>
      <trkpt lat="47.534424" lon="1.7048014">
        <ele>141.0</ele>
        <time>2022-03-31T09:05:02Z</time>
      </trkpt>
      <trkpt lat="47.534424" lon="1.7047812">
        <ele>141.0</ele>
        <time>2022-03-31T09:05:03Z</time>
      </trkpt>
      <trkpt lat="47.53443" lon="1.7047577">
        <ele>141.0</ele>
        <time>2022-03-31T09:05:04Z</time>
      </trkpt>
      <trkpt lat="47.53444" lon="1.7047374">
        <ele>142.0</ele>
        <time>2022-03-31T09:05:05Z</time>
      </trkpt>
      <trkpt lat="47.534447" lon="1.704718">
        <ele>142.0</ele>
        <time>2022-03-31T09:05:06Z</time>
      </trkpt>
      <trkpt lat="47.534454" lon="1.7047021">
        <ele>141.0</ele>
        <time>2022-03-31T09:05:07Z</time>
      </trkpt>
      <trkpt lat="47.534462" lon="1.7046819">
        <ele>142.0</ele>
        <time>2022-03-31T09:05:08Z</time>
      </trkpt>
      <trkpt lat="47.534466" lon="1.7046634">
        <ele>142.0</ele>
        <time>2022-03-31T09:05:09Z</time>
      </trkpt>
      <trkpt lat="47.534466" lon="1.7046471">
        <ele>142.0</ele>
        <time>2022-03-31T09:05:10Z</time>
      </trkpt>
      <trkpt lat="47.53447" lon="1.704632">
        <ele>143.0</ele>
        <time>2022-03-31T09:05:11Z</time>
      </trkpt>
      <trkpt lat="47.53447" lon="1.7046138">
        <ele>143.0</ele>
        <time>2022-03-31T09:05:12Z</time>
      </trkpt>
      <trkpt lat="47.53447" lon="1.7045956">
        <ele>143.0</ele>
        <time>2022-03-31T09:05:13Z</time>
      </trkpt>
      <trkpt lat="47.53447" lon="1.7045747">
        <ele>143.0</ele>
        <time>2022-03-31T09:05:14Z</time>
      </trkpt>
      <trkpt lat="47.53447" lon="1.7045522">
        <ele>143.0</ele>
        <time>2022-03-31T09:05:15Z</time>
      </trkpt>
      <trkpt lat="47.534466" lon="1.7045324">
        <ele>143.0</ele>
        <time>2022-03-31T09:05:16Z</time>
      </trkpt>
      <trkpt lat="47.53447" lon="1.7045124">
        <ele>143.0</ele>
        <time>2022-03-31T09:05:17Z</time>
      </trkpt>
      <trkpt lat="47.534466" lon="1.7044941">
        <ele>143.0</ele>
        <time>2022-03-31T09:05:18Z</time>
      </trkpt>
      <trkpt lat="47.534466" lon="1.704472">
        <ele>143.0</ele>
        <time>2022-03-31T09:05:19Z</time>
      </trkpt>
      <trkpt lat="47.53447" lon="1.7044531">
        <ele>143.0</ele>
        <time>2022-03-31T09:05:20Z</time>
      </trkpt>
      <trkpt lat="47.534473" lon="1.7044315">
        <ele>143.0</ele>
        <time>2022-03-31T09:05:21Z</time>
      </trkpt>
      <trkpt lat="47.534473" lon="1.7044133">
        <ele>143.0</ele>
        <time>2022-03-31T09:05:22Z</time>
      </trkpt>
      <trkpt lat="47.53447" lon="1.7043962">
        <ele>144.0</ele>
        <time>2022-03-31T09:05:23Z</time>
      </trkpt>
      <trkpt lat="47.53447" lon="1.7043775">
        <ele>144.0</ele>
        <time>2022-03-31T09:05:24Z</time>
      </trkpt>
      <trkpt lat="47.53447" lon="1.7043599">
        <ele>144.0</ele>
        <time>2022-03-31T09:05:25Z</time>
      </trkpt>
      <trkpt lat="47.53447" lon="1.7043425">
        <ele>143.0</ele>
        <time>2022-03-31T09:05:26Z</time>
      </trkpt>
      <trkpt lat="47.534466" lon="1.7043256">
        <ele>143.0</ele>
        <time>2022-03-31T09:05:27Z</time>
      </trkpt>
      <trkpt lat="47.534466" lon="1.7043096">
        <ele>143.0</ele>
        <time>2022-03-31T09:05:28Z</time>
      </trkpt>
      <trkpt lat="47.534462" lon="1.7042944">
        <ele>143.0</ele>
        <time>2022-03-31T09:05:29Z</time>
      </trkpt>
      <trkpt lat="47.534466" lon="1.7042763">
        <ele>143.0</ele>
        <time>2022-03-31T09:05:30Z</time>
      </trkpt>
      <trkpt lat="47.534466" lon="1.7042571">
        <ele>144.0</ele>
        <time>2022-03-31T09:05:31Z</time>
      </trkpt>
      <trkpt lat="47.534473" lon="1.7042441">
        <ele>144.0</ele>
        <time>2022-03-31T09:05:32Z</time>
      </trkpt>
      <trkpt lat="47.534485" lon="1.7042311">
        <ele>144.0</ele>
        <time>2022-03-31T09:05:33Z</time>
      </trkpt>
      <trkpt lat="47.534492" lon="1.704223">
        <ele>143.0</ele>
        <time>2022-03-31T09:05:34Z</time>
      </trkpt>
      <trkpt lat="47.534504" lon="1.7042215">
        <ele>143.0</ele>
        <time>2022-03-31T09:05:35Z</time>
      </trkpt>
      <trkpt lat="47.53452" lon="1.7042242">
        <ele>142.0</ele>
        <time>2022-03-31T09:05:36Z</time>
      </trkpt>
      <trkpt lat="47.53453" lon="1.704226">
        <ele>142.0</ele>
        <time>2022-03-31T09:05:37Z</time>
      </trkpt>
      <trkpt lat="47.534542" lon="1.7042328">
        <ele>141.0</ele>
        <time>2022-03-31T09:05:38Z</time>
      </trkpt>
      <trkpt lat="47.534554" lon="1.7042311">
        <ele>141.0</ele>
        <time>2022-03-31T09:05:39Z</time>
      </trkpt>
      <trkpt lat="47.534565" lon="1.7042376">
        <ele>141.0</ele>
        <time>2022-03-31T09:05:40Z</time>
      </trkpt>
      <trkpt lat="47.534573" lon="1.7042441">
        <ele>140.0</ele>
        <time>2022-03-31T09:05:41Z</time>
      </trkpt>
      <trkpt lat="47.53458" lon="1.7042485">
        <ele>140.0</ele>
        <time>2022-03-31T09:05:42Z</time>
      </trkpt>
      <trkpt lat="47.53459" lon="1.7042532">
        <ele>140.0</ele>
        <time>2022-03-31T09:05:43Z</time>
      </trkpt>
      <trkpt lat="47.534603" lon="1.7042583">
        <ele>140.0</ele>
        <time>2022-03-31T09:05:44Z</time>
      </trkpt>
      <trkpt lat="47.534615" lon="1.7042636">
        <ele>140.0</ele>
        <time>2022-03-31T09:05:45Z</time>
      </trkpt>
      <trkpt lat="47.53463" lon="1.7042696">
        <ele>140.0</ele>
        <time>2022-03-31T09:05:46Z</time>
      </trkpt>
      <trkpt lat="47.53464" lon="1.704274">
        <ele>139.0</ele>
        <time>2022-03-31T09:05:47Z</time>
      </trkpt>
      <trkpt lat="47.53465" lon="1.7042806">
        <ele>139.0</ele>
        <time>2022-03-31T09:05:48Z</time>
      </trkpt>
      <trkpt lat="47.534664" lon="1.7042845">
        <ele>139.0</ele>
        <time>2022-03-31T09:05:49Z</time>
      </trkpt>
      <trkpt lat="47.53467" lon="1.70429">
        <ele>139.0</ele>
        <time>2022-03-31T09:05:50Z</time>
      </trkpt>
      <trkpt lat="47.534683" lon="1.7042972">
        <ele>140.0</ele>
        <time>2022-03-31T09:05:51Z</time>
      </trkpt>
      <trkpt lat="47.5347" lon="1.704304">
        <ele>140.0</ele>
        <time>2022-03-31T09:05:52Z</time>
      </trkpt>
      <trkpt lat="47.534714" lon="1.7043135">
        <ele>140.0</ele>
        <time>2022-03-31T09:05:53Z</time>
      </trkpt>
      <trkpt lat="47.534725" lon="1.704319">
        <ele>140.0</ele>
        <time>2022-03-31T09:05:54Z</time>
      </trkpt>
      <trkpt lat="47.534737" lon="1.7043254">
        <ele>140.0</ele>
        <time>2022-03-31T09:05:55Z</time>
      </trkpt>
      <trkpt lat="47.534748" lon="1.7043328">
        <ele>140.0</ele>
        <time>2022-03-31T09:05:56Z</time>
      </trkpt>
      <trkpt lat="47.534756" lon="1.704338">
        <ele>139.0</ele>
        <time>2022-03-31T09:05:57Z</time>
      </trkpt>
      <trkpt lat="47.534767" lon="1.704345">
        <ele>139.0</ele>
        <time>2022-03-31T09:05:58Z</time>
      </trkpt>
      <trkpt lat="47.534775" lon="1.7043494">
        <ele>139.0</ele>
        <time>2022-03-31T09:05:59Z</time>
      </trkpt>
      <trkpt lat="47.534782" lon="1.7043576">
        <ele>139.0</ele>
        <time>2022-03-31T09:06:00Z</time>
      </trkpt>
      <trkpt lat="47.534794" lon="1.7043692">
        <ele>139.0</ele>
        <time>2022-03-31T09:06:01Z</time>
      </trkpt>
      <trkpt lat="47.53481" lon="1.7043768">
        <ele>139.0</ele>
        <time>2022-03-31T09:06:02Z</time>
      </trkpt>
      <trkpt lat="47.53482" lon="1.7043855">
        <ele>138.0</ele>
        <time>2022-03-31T09:06:03Z</time>
      </trkpt>
      <trkpt lat="47.534836" lon="1.7043892">
        <ele>138.0</ele>
        <time>2022-03-31T09:06:04Z</time>
      </trkpt>
      <trkpt lat="47.534847" lon="1.7043953">
        <ele>138.0</ele>
        <time>2022-03-31T09:06:05Z</time>
      </trkpt>
      <trkpt lat="47.534863" lon="1.7044048">
        <ele>138.0</ele>
        <time>2022-03-31T09:06:06Z</time>
      </trkpt>
      <trkpt lat="47.534874" lon="1.7044107">
        <ele>138.0</ele>
        <time>2022-03-31T09:06:07Z</time>
      </trkpt>
      <trkpt lat="47.53489" lon="1.7044141">
        <ele>138.0</ele>
        <time>2022-03-31T09:06:08Z</time>
      </trkpt>
      <trkpt lat="47.534904" lon="1.7044219">
        <ele>137.0</ele>
        <time>2022-03-31T09:06:09Z</time>
      </trkpt>
      <trkpt lat="47.534916" lon="1.7044265">
        <ele>137.0</ele>
        <time>2022-03-31T09:06:10Z</time>
      </trkpt>
      <trkpt lat="47.534927" lon="1.7044317">
        <ele>137.0</ele>
        <time>2022-03-31T09:06:11Z</time>
      </trkpt>
      <trkpt lat="47.53494" lon="1.7044392">
        <ele>137.0</ele>
        <time>2022-03-31T09:06:12Z</time>
      </trkpt>
      <trkpt lat="47.534946" lon="1.7044473">
        <ele>138.0</ele>
        <time>2022-03-31T09:06:13Z</time>
      </trkpt>
      <trkpt lat="47.534954" lon="1.7044531">
        <ele>137.0</ele>
        <time>2022-03-31T09:06:14Z</time>
      </trkpt>
      <trkpt lat="47.534966" lon="1.7044544">
        <ele>137.0</ele>
        <time>2022-03-31T09:06:15Z</time>
      </trkpt>
      <trkpt lat="47.534977" lon="1.7044562">
        <ele>137.0</ele>
        <time>2022-03-31T09:06:16Z</time>
      </trkpt>
      <trkpt lat="47.53499" lon="1.7044666">
        <ele>137.0</ele>
        <time>2022-03-31T09:06:17Z</time>
      </trkpt>
      <trkpt lat="47.535" lon="1.7044792">
        <ele>138.0</ele>
        <time>2022-03-31T09:06:18Z</time>
      </trkpt>
      <trkpt lat="47.535007" lon="1.7044855">
        <ele>138.0</ele>
        <time>2022-03-31T09:06:19Z</time>
      </trkpt>
      <trkpt lat="47.53502" lon="1.704492">
        <ele>138.0</ele>
        <time>2022-03-31T09:06:20Z</time>
      </trkpt>
      <trkpt lat="47.53503" lon="1.7045008">
        <ele>138.0</ele>
        <time>2022-03-31T09:06:21Z</time>
      </trkpt>
      <trkpt lat="47.53504" lon="1.7045063">
        <ele>138.0</ele>
        <time>2022-03-31T09:06:22Z</time>
      </trkpt>
      <trkpt lat="47.53505" lon="1.7045106">
        <ele>138.0</ele>
        <time>2022-03-31T09:06:23Z</time>
      </trkpt>
      <trkpt lat="47.53506" lon="1.7045188">
        <ele>138.0</ele>
        <time>2022-03-31T09:06:24Z</time>
      </trkpt>
      <trkpt lat="47.535072" lon="1.7045228">
        <ele>138.0</ele>
        <time>2022-03-31T09:06:25Z</time>
      </trkpt>
      <trkpt lat="47.53508" lon="1.7045271">
        <ele>138.0</ele>
        <time>2022-03-31T09:06:26Z</time>
      </trkpt>
      <trkpt lat="47.53509" lon="1.7045316">
        <ele>139.0</ele>
        <time>2022-03-31T09:06:27Z</time>
      </trkpt>
      <trkpt lat="47.5351" lon="1.7045377">
        <ele>139.0</ele>
        <time>2022-03-31T09:06:28Z</time>
      </trkpt>
      <trkpt lat="47.53511" lon="1.704541">
        <ele>140.0</ele>
        <time>2022-03-31T09:06:29Z</time>
      </trkpt>
      <trkpt lat="47.53512" lon="1.7045422">
        <ele>140.0</ele>
        <time>2022-03-31T09:06:30Z</time>
      </trkpt>
      <trkpt lat="47.53513" lon="1.7045445">
        <ele>139.0</ele>
        <time>2022-03-31T09:06:31Z</time>
      </trkpt>
      <trkpt lat="47.535137" lon="1.7045467">
        <ele>139.0</ele>
        <time>2022-03-31T09:06:32Z</time>
      </trkpt>
      <trkpt lat="47.53515" lon="1.7045437">
        <ele>140.0</ele>
        <time>2022-03-31T09:06:33Z</time>
      </trkpt>
      <trkpt lat="47.535156" lon="1.7045417">
        <ele>140.0</ele>
        <time>2022-03-31T09:06:34Z</time>
      </trkpt>
      <trkpt lat="47.535168" lon="1.7045408">
        <ele>141.0</ele>
        <time>2022-03-31T09:06:35Z</time>
      </trkpt>
      <trkpt lat="47.53518" lon="1.7045456">
        <ele>141.0</ele>
        <time>2022-03-31T09:06:36Z</time>
      </trkpt>
      <trkpt lat="47.535187" lon="1.7045499">
        <ele>141.0</ele>
        <time>2022-03-31T09:06:37Z</time>
      </trkpt>
      <trkpt lat="47.5352" lon="1.7045542">
        <ele>141.0</ele>
        <time>2022-03-31T09:06:38Z</time>
      </trkpt>
      <trkpt lat="47.535213" lon="1.704557">
        <ele>141.0</ele>
        <time>2022-03-31T09:06:39Z</time>
      </trkpt>
      <trkpt lat="47.535225" lon="1.7045603">
        <ele>140.0</ele>
        <time>2022-03-31T09:06:40Z</time>
      </trkpt>
      <trkpt lat="47.53524" lon="1.7045602">
        <ele>140.0</ele>
        <time>2022-03-31T09:06:41Z</time>
      </trkpt>
      <trkpt lat="47.535255" lon="1.7045629">
        <ele>140.0</ele>
        <time>2022-03-31T09:06:42Z</time>
      </trkpt>
      <trkpt lat="47.535267" lon="1.7045652">
        <ele>141.0</ele>
        <time>2022-03-31T09:06:43Z</time>
      </trkpt>
      <trkpt lat="47.535282" lon="1.7045698">
        <ele>140.0</ele>
        <time>2022-03-31T09:06:44Z</time>
      </trkpt>
      <trkpt lat="47.535294" lon="1.7045734">
        <ele>141.0</ele>
        <time>2022-03-31T09:06:45Z</time>
      </trkpt>
      <trkpt lat="47.53531" lon="1.7045759">
        <ele>141.0</ele>
        <time>2022-03-31T09:06:46Z</time>
      </trkpt>
      <trkpt lat="47.53532" lon="1.7045819">
        <ele>141.0</ele>
        <time>2022-03-31T09:06:47Z</time>
      </trkpt>
      <trkpt lat="47.53533" lon="1.7045913">
        <ele>141.0</ele>
        <time>2022-03-31T09:06:48Z</time>
      </trkpt>
      <trkpt lat="47.535343" lon="1.704598">
        <ele>142.0</ele>
        <time>2022-03-31T09:06:49Z</time>
      </trkpt>
      <trkpt lat="47.535347" lon="1.704606">
        <ele>142.0</ele>
        <time>2022-03-31T09:06:50Z</time>
      </trkpt>
      <trkpt lat="47.535355" lon="1.7046144">
        <ele>142.0</ele>
        <time>2022-03-31T09:06:51Z</time>
      </trkpt>
      <trkpt lat="47.535362" lon="1.7046176">
        <ele>142.0</ele>
        <time>2022-03-31T09:06:52Z</time>
      </trkpt>
      <trkpt lat="47.53537" lon="1.7046204">
        <ele>142.0</ele>
        <time>2022-03-31T09:06:53Z</time>
      </trkpt>
      <trkpt lat="47.535378" lon="1.7046216">
        <ele>142.0</ele>
        <time>2022-03-31T09:06:54Z</time>
      </trkpt>
      <trkpt lat="47.53539" lon="1.7046217">
        <ele>143.0</ele>
        <time>2022-03-31T09:06:55Z</time>
      </trkpt>
      <trkpt lat="47.5354" lon="1.7046281">
        <ele>143.0</ele>
        <time>2022-03-31T09:06:56Z</time>
      </trkpt>
      <trkpt lat="47.53541" lon="1.7046314">
        <ele>143.0</ele>
        <time>2022-03-31T09:06:57Z</time>
      </trkpt>
      <trkpt lat="47.535423" lon="1.7046386">
        <ele>143.0</ele>
        <time>2022-03-31T09:06:58Z</time>
      </trkpt>
      <trkpt lat="47.53544" lon="1.7046448">
        <ele>143.0</ele>
        <time>2022-03-31T09:06:59Z</time>
      </trkpt>
      <trkpt lat="47.53545" lon="1.704649">
        <ele>142.0</ele>
        <time>2022-03-31T09:07:00Z</time>
      </trkpt>
      <trkpt lat="47.535465" lon="1.7046585">
        <ele>143.0</ele>
        <time>2022-03-31T09:07:01Z</time>
      </trkpt>
      <trkpt lat="47.535477" lon="1.7046626">
        <ele>142.0</ele>
        <time>2022-03-31T09:07:02Z</time>
      </trkpt>
      <trkpt lat="47.53549" lon="1.7046661">
        <ele>142.0</ele>
        <time>2022-03-31T09:07:03Z</time>
      </trkpt>
      <trkpt lat="47.5355" lon="1.704671">
        <ele>143.0</ele>
        <time>2022-03-31T09:07:04Z</time>
      </trkpt>
      <trkpt lat="47.53551" lon="1.7046744">
        <ele>143.0</ele>
        <time>2022-03-31T09:07:05Z</time>
      </trkpt>
      <trkpt lat="47.535522" lon="1.7046763">
        <ele>143.0</ele>
        <time>2022-03-31T09:07:06Z</time>
      </trkpt>
      <trkpt lat="47.535534" lon="1.7046833">
        <ele>142.0</ele>
        <time>2022-03-31T09:07:07Z</time>
      </trkpt>
      <trkpt lat="47.535545" lon="1.7046878">
        <ele>142.0</ele>
        <time>2022-03-31T09:07:08Z</time>
      </trkpt>
      <trkpt lat="47.535557" lon="1.7046907">
        <ele>142.0</ele>
        <time>2022-03-31T09:07:09Z</time>
      </trkpt>
      <trkpt lat="47.535572" lon="1.7046905">
        <ele>142.0</ele>
        <time>2022-03-31T09:07:10Z</time>
      </trkpt>
      <trkpt lat="47.53558" lon="1.7046944">
        <ele>142.0</ele>
        <time>2022-03-31T09:07:11Z</time>
      </trkpt>
      <trkpt lat="47.53559" lon="1.7046957">
        <ele>142.0</ele>
        <time>2022-03-31T09:07:12Z</time>
      </trkpt>
      <trkpt lat="47.535603" lon="1.7046978">
        <ele>141.0</ele>
        <time>2022-03-31T09:07:13Z</time>
      </trkpt>
      <trkpt lat="47.535614" lon="1.704702">
        <ele>142.0</ele>
        <time>2022-03-31T09:07:14Z</time>
      </trkpt>
      <trkpt lat="47.53562" lon="1.7047113">
        <ele>142.0</ele>
        <time>2022-03-31T09:07:15Z</time>
      </trkpt>
      <trkpt lat="47.53563" lon="1.7047167">
        <ele>141.0</ele>
        <time>2022-03-31T09:07:16Z</time>
      </trkpt>
      <trkpt lat="47.535637" lon="1.7047199">
        <ele>142.0</ele>
        <time>2022-03-31T09:07:17Z</time>
      </trkpt>
      <trkpt lat="47.53565" lon="1.70472">
        <ele>141.0</ele>
        <time>2022-03-31T09:07:18Z</time>
      </trkpt>
      <trkpt lat="47.53566" lon="1.704721">
        <ele>142.0</ele>
        <time>2022-03-31T09:07:19Z</time>
      </trkpt>
      <trkpt lat="47.535675" lon="1.7047241">
        <ele>141.0</ele>
        <time>2022-03-31T09:07:20Z</time>
      </trkpt>
      <trkpt lat="47.535683" lon="1.7047467">
        <ele>141.0</ele>
        <time>2022-03-31T09:07:21Z</time>
      </trkpt>
      <trkpt lat="47.53569" lon="1.7047614">
        <ele>142.0</ele>
        <time>2022-03-31T09:07:22Z</time>
      </trkpt>
      <trkpt lat="47.535706" lon="1.7047671">
        <ele>142.0</ele>
        <time>2022-03-31T09:07:23Z</time>
      </trkpt>
      <trkpt lat="47.535717" lon="1.7047734">
        <ele>142.0</ele>
        <time>2022-03-31T09:07:24Z</time>
      </trkpt>
      <trkpt lat="47.535732" lon="1.7047746">
        <ele>142.0</ele>
        <time>2022-03-31T09:07:25Z</time>
      </trkpt>
      <trkpt lat="47.53574" lon="1.7047784">
        <ele>141.0</ele>
        <time>2022-03-31T09:07:26Z</time>
      </trkpt>
      <trkpt lat="47.535736" lon="1.7047893">
        <ele>141.0</ele>
        <time>2022-03-31T09:07:27Z</time>
      </trkpt>
      <trkpt lat="47.535732" lon="1.7047915">
        <ele>141.0</ele>
        <time>2022-03-31T09:07:28Z</time>
      </trkpt>
      <trkpt lat="47.53573" lon="1.7047975">
        <ele>141.0</ele>
        <time>2022-03-31T09:07:29Z</time>
      </trkpt>
      <trkpt lat="47.53573" lon="1.7047977">
        <ele>141.0</ele>
        <time>2022-03-31T09:07:30Z</time>
      </trkpt>
      <trkpt lat="47.53573" lon="1.7047977">
        <ele>141.0</ele>
        <time>2022-03-31T09:07:30Z</time>
      </trkpt>
      <trkpt lat="47.53573" lon="1.7047977">
        <ele>141.0</ele>
        <time>2022-03-31T09:07:30Z</time>
      </trkpt>
      <trkpt lat="47.535774" lon="1.7048337">
        <ele>142.0</ele>
        <time>2022-03-31T09:07:36Z</time>
      </trkpt>
      <trkpt lat="47.535786" lon="1.7048469">
        <ele>143.0</ele>
        <time>2022-03-31T09:07:37Z</time>
      </trkpt>
      <trkpt lat="47.5358" lon="1.7048625">
        <ele>143.0</ele>
        <time>2022-03-31T09:07:38Z</time>
      </trkpt>
      <trkpt lat="47.535816" lon="1.7048717">
        <ele>143.0</ele>
        <time>2022-03-31T09:07:39Z</time>
      </trkpt>
      <trkpt lat="47.53583" lon="1.7048764">
        <ele>144.0</ele>
        <time>2022-03-31T09:07:40Z</time>
      </trkpt>
      <trkpt lat="47.535847" lon="1.7048839">
        <ele>144.0</ele>
        <time>2022-03-31T09:07:41Z</time>
      </trkpt>
      <trkpt lat="47.53586" lon="1.7048925">
        <ele>144.0</ele>
        <time>2022-03-31T09:07:42Z</time>
      </trkpt>
      <trkpt lat="47.53587" lon="1.7049011">
        <ele>143.0</ele>
        <time>2022-03-31T09:07:43Z</time>
      </trkpt>
      <trkpt lat="47.53588" lon="1.7049133">
        <ele>143.0</ele>
        <time>2022-03-31T09:07:44Z</time>
      </trkpt>
      <trkpt lat="47.535892" lon="1.7049259">
        <ele>144.0</ele>
        <time>2022-03-31T09:07:45Z</time>
      </trkpt>
      <trkpt lat="47.535908" lon="1.7049336">
        <ele>143.0</ele>
        <time>2022-03-31T09:07:46Z</time>
      </trkpt>
      <trkpt lat="47.53592" lon="1.7049414">
        <ele>143.0</ele>
        <time>2022-03-31T09:07:47Z</time>
      </trkpt>
      <trkpt lat="47.53593" lon="1.7049496">
        <ele>143.0</ele>
        <time>2022-03-31T09:07:48Z</time>
      </trkpt>
      <trkpt lat="47.535942" lon="1.7049623">
        <ele>143.0</ele>
        <time>2022-03-31T09:07:49Z</time>
      </trkpt>
      <trkpt lat="47.535954" lon="1.7049718">
        <ele>143.0</ele>
        <time>2022-03-31T09:07:50Z</time>
      </trkpt>
      <trkpt lat="47.535965" lon="1.7049817">
        <ele>143.0</ele>
        <time>2022-03-31T09:07:51Z</time>
      </trkpt>
      <trkpt lat="47.53598" lon="1.7049943">
        <ele>143.0</ele>
        <time>2022-03-31T09:07:52Z</time>
      </trkpt>
      <trkpt lat="47.53599" lon="1.7050031">
        <ele>143.0</ele>
        <time>2022-03-31T09:07:53Z</time>
      </trkpt>
      <trkpt lat="47.536007" lon="1.7050117">
        <ele>142.0</ele>
        <time>2022-03-31T09:07:54Z</time>
      </trkpt>
      <trkpt lat="47.53602" lon="1.7050229">
        <ele>142.0</ele>
        <time>2022-03-31T09:07:55Z</time>
      </trkpt>
      <trkpt lat="47.536034" lon="1.705033">
        <ele>142.0</ele>
        <time>2022-03-31T09:07:56Z</time>
      </trkpt>
      <trkpt lat="47.536053" lon="1.7050352">
        <ele>142.0</ele>
        <time>2022-03-31T09:07:57Z</time>
      </trkpt>
      <trkpt lat="47.536064" lon="1.7050378">
        <ele>143.0</ele>
        <time>2022-03-31T09:07:58Z</time>
      </trkpt>
      <trkpt lat="47.53608" lon="1.7050442">
        <ele>143.0</ele>
        <time>2022-03-31T09:07:59Z</time>
      </trkpt>
      <trkpt lat="47.53609" lon="1.7050518">
        <ele>143.0</ele>
        <time>2022-03-31T09:08:00Z</time>
      </trkpt>
      <trkpt lat="47.536102" lon="1.7050606">
        <ele>143.0</ele>
        <time>2022-03-31T09:08:01Z</time>
      </trkpt>
      <trkpt lat="47.536114" lon="1.7050653">
        <ele>143.0</ele>
        <time>2022-03-31T09:08:02Z</time>
      </trkpt>
      <trkpt lat="47.536125" lon="1.7050707">
        <ele>143.0</ele>
        <time>2022-03-31T09:08:03Z</time>
      </trkpt>
      <trkpt lat="47.53614" lon="1.7050774">
        <ele>142.0</ele>
        <time>2022-03-31T09:08:04Z</time>
      </trkpt>
      <trkpt lat="47.53615" lon="1.7050894">
        <ele>142.0</ele>
        <time>2022-03-31T09:08:05Z</time>
      </trkpt>
      <trkpt lat="47.53616" lon="1.7051061">
        <ele>142.0</ele>
        <time>2022-03-31T09:08:06Z</time>
      </trkpt>
      <trkpt lat="47.53617" lon="1.7051189">
        <ele>142.0</ele>
        <time>2022-03-31T09:08:07Z</time>
      </trkpt>
      <trkpt lat="47.536182" lon="1.7051326">
        <ele>142.0</ele>
        <time>2022-03-31T09:08:08Z</time>
      </trkpt>
      <trkpt lat="47.536198" lon="1.7051425">
        <ele>141.0</ele>
        <time>2022-03-31T09:08:09Z</time>
      </trkpt>
      <trkpt lat="47.53621" lon="1.7051507">
        <ele>141.0</ele>
        <time>2022-03-31T09:08:10Z</time>
      </trkpt>
      <trkpt lat="47.536224" lon="1.7051578">
        <ele>141.0</ele>
        <time>2022-03-31T09:08:11Z</time>
      </trkpt>
      <trkpt lat="47.536232" lon="1.7051678">
        <ele>141.0</ele>
        <time>2022-03-31T09:08:12Z</time>
      </trkpt>
      <trkpt lat="47.536243" lon="1.7051814">
        <ele>141.0</ele>
        <time>2022-03-31T09:08:13Z</time>
      </trkpt>
      <trkpt lat="47.536255" lon="1.7051897">
        <ele>141.0</ele>
        <time>2022-03-31T09:08:14Z</time>
      </trkpt>
      <trkpt lat="47.53627" lon="1.7051996">
        <ele>141.0</ele>
        <time>2022-03-31T09:08:15Z</time>
      </trkpt>
      <trkpt lat="47.536285" lon="1.7052097">
        <ele>141.0</ele>
        <time>2022-03-31T09:08:16Z</time>
      </trkpt>
      <trkpt lat="47.536297" lon="1.7052203">
        <ele>140.0</ele>
        <time>2022-03-31T09:08:17Z</time>
      </trkpt>
      <trkpt lat="47.536327" lon="1.705234">
        <ele>140.0</ele>
        <time>2022-03-31T09:08:19Z</time>
      </trkpt>
      <trkpt lat="47.536354" lon="1.705256">
        <ele>141.0</ele>
        <time>2022-03-31T09:08:21Z</time>
      </trkpt>
      <trkpt lat="47.53637" lon="1.7052631">
        <ele>141.0</ele>
        <time>2022-03-31T09:08:22Z</time>
      </trkpt>
      <trkpt lat="47.536377" lon="1.7052675">
        <ele>142.0</ele>
        <time>2022-03-31T09:08:23Z</time>
      </trkpt>
      <trkpt lat="47.536385" lon="1.7052733">
        <ele>141.0</ele>
        <time>2022-03-31T09:08:24Z</time>
      </trkpt>
      <trkpt lat="47.536392" lon="1.7052791">
        <ele>141.0</ele>
        <time>2022-03-31T09:08:25Z</time>
      </trkpt>
      <trkpt lat="47.536396" lon="1.7052872">
        <ele>142.0</ele>
        <time>2022-03-31T09:08:26Z</time>
      </trkpt>
      <trkpt lat="47.536404" lon="1.7052972">
        <ele>142.0</ele>
        <time>2022-03-31T09:08:27Z</time>
      </trkpt>
      <trkpt lat="47.53641" lon="1.7053092">
        <ele>142.0</ele>
        <time>2022-03-31T09:08:28Z</time>
      </trkpt>
      <trkpt lat="47.536423" lon="1.7053163">
        <ele>142.0</ele>
        <time>2022-03-31T09:08:29Z</time>
      </trkpt>
      <trkpt lat="47.536434" lon="1.7053291">
        <ele>142.0</ele>
        <time>2022-03-31T09:08:30Z</time>
      </trkpt>
      <trkpt lat="47.53645" lon="1.7053348">
        <ele>142.0</ele>
        <time>2022-03-31T09:08:31Z</time>
      </trkpt>
      <trkpt lat="47.536465" lon="1.705343">
        <ele>142.0</ele>
        <time>2022-03-31T09:08:32Z</time>
      </trkpt>
      <trkpt lat="47.53648" lon="1.7053552">
        <ele>142.0</ele>
        <time>2022-03-31T09:08:33Z</time>
      </trkpt>
      <trkpt lat="47.536495" lon="1.7053653">
        <ele>142.0</ele>
        <time>2022-03-31T09:08:34Z</time>
      </trkpt>
      <trkpt lat="47.536507" lon="1.7053766">
        <ele>142.0</ele>
        <time>2022-03-31T09:08:35Z</time>
      </trkpt>
      <trkpt lat="47.53652" lon="1.7053868">
        <ele>142.0</ele>
        <time>2022-03-31T09:08:36Z</time>
      </trkpt>
      <trkpt lat="47.536526" lon="1.7053975">
        <ele>142.0</ele>
        <time>2022-03-31T09:08:37Z</time>
      </trkpt>
      <trkpt lat="47.53653" lon="1.7054076">
        <ele>142.0</ele>
        <time>2022-03-31T09:08:38Z</time>
      </trkpt>
      <trkpt lat="47.536537" lon="1.7054155">
        <ele>142.0</ele>
        <time>2022-03-31T09:08:39Z</time>
      </trkpt>
      <trkpt lat="47.53655" lon="1.7054235">
        <ele>143.0</ele>
        <time>2022-03-31T09:08:40Z</time>
      </trkpt>
      <trkpt lat="47.536556" lon="1.7054305">
        <ele>143.0</ele>
        <time>2022-03-31T09:08:41Z</time>
      </trkpt>
      <trkpt lat="47.536568" lon="1.7054361">
        <ele>143.0</ele>
        <time>2022-03-31T09:08:42Z</time>
      </trkpt>
      <trkpt lat="47.536575" lon="1.7054431">
        <ele>143.0</ele>
        <time>2022-03-31T09:08:43Z</time>
      </trkpt>
      <trkpt lat="47.536587" lon="1.7054526">
        <ele>143.0</ele>
        <time>2022-03-31T09:08:44Z</time>
      </trkpt>
      <trkpt lat="47.5366" lon="1.7054611">
        <ele>143.0</ele>
        <time>2022-03-31T09:08:45Z</time>
      </trkpt>
      <trkpt lat="47.536606" lon="1.7054753">
        <ele>142.0</ele>
        <time>2022-03-31T09:08:46Z</time>
      </trkpt>
      <trkpt lat="47.536613" lon="1.7054881">
        <ele>142.0</ele>
        <time>2022-03-31T09:08:47Z</time>
      </trkpt>
      <trkpt lat="47.53662" lon="1.7054995">
        <ele>142.0</ele>
        <time>2022-03-31T09:08:48Z</time>
      </trkpt>
      <trkpt lat="47.536625" lon="1.7055112">
        <ele>143.0</ele>
        <time>2022-03-31T09:08:49Z</time>
      </trkpt>
      <trkpt lat="47.536636" lon="1.705522">
        <ele>143.0</ele>
        <time>2022-03-31T09:08:50Z</time>
      </trkpt>
      <trkpt lat="47.53665" lon="1.7055258">
        <ele>143.0</ele>
        <time>2022-03-31T09:08:51Z</time>
      </trkpt>
      <trkpt lat="47.536663" lon="1.7055318">
        <ele>143.0</ele>
        <time>2022-03-31T09:08:52Z</time>
      </trkpt>
      <trkpt lat="47.536674" lon="1.7055402">
        <ele>143.0</ele>
        <time>2022-03-31T09:08:53Z</time>
      </trkpt>
      <trkpt lat="47.536686" lon="1.705549">
        <ele>143.0</ele>
        <time>2022-03-31T09:08:54Z</time>
      </trkpt>
      <trkpt lat="47.536697" lon="1.705551">
        <ele>143.0</ele>
        <time>2022-03-31T09:08:55Z</time>
      </trkpt>
      <trkpt lat="47.536705" lon="1.705557">
        <ele>143.0</ele>
        <time>2022-03-31T09:08:56Z</time>
      </trkpt>
      <trkpt lat="47.536713" lon="1.7055635">
        <ele>142.0</ele>
        <time>2022-03-31T09:08:57Z</time>
      </trkpt>
      <trkpt lat="47.536716" lon="1.7055706">
        <ele>142.0</ele>
        <time>2022-03-31T09:08:58Z</time>
      </trkpt>
      <trkpt lat="47.53672" lon="1.7055805">
        <ele>141.0</ele>
        <time>2022-03-31T09:08:59Z</time>
      </trkpt>
      <trkpt lat="47.536716" lon="1.7055821">
        <ele>140.0</ele>
        <time>2022-03-31T09:09:00Z</time>
      </trkpt>
      <trkpt lat="47.536713" lon="1.7055824">
        <ele>140.0</ele>
        <time>2022-03-31T09:09:01Z</time>
      </trkpt>
      <trkpt lat="47.536713" lon="1.7055839">
        <ele>140.0</ele>
        <time>2022-03-31T09:09:02Z</time>
      </trkpt>
      <trkpt lat="47.536713" lon="1.7055839">
        <ele>140.0</ele>
        <time>2022-03-31T09:09:03Z</time>
      </trkpt>
      <trkpt lat="47.536713" lon="1.705586">
        <ele>140.0</ele>
        <time>2022-03-31T09:09:04Z</time>
      </trkpt>
      <trkpt lat="47.536724" lon="1.7055863">
        <ele>140.0</ele>
        <time>2022-03-31T09:09:05Z</time>
      </trkpt>
      <trkpt lat="47.536736" lon="1.7055924">
        <ele>140.0</ele>
        <time>2022-03-31T09:09:06Z</time>
      </trkpt>
      <trkpt lat="47.536743" lon="1.7056041">
        <ele>140.0</ele>
        <time>2022-03-31T09:09:07Z</time>
      </trkpt>
      <trkpt lat="47.536755" lon="1.7056129">
        <ele>140.0</ele>
        <time>2022-03-31T09:09:08Z</time>
      </trkpt>
      <trkpt lat="47.53677" lon="1.7056183">
        <ele>140.0</ele>
        <time>2022-03-31T09:09:09Z</time>
      </trkpt>
      <trkpt lat="47.53678" lon="1.705629">
        <ele>140.0</ele>
        <time>2022-03-31T09:09:10Z</time>
      </trkpt>
      <trkpt lat="47.536793" lon="1.705636">
        <ele>140.0</ele>
        <time>2022-03-31T09:09:11Z</time>
      </trkpt>
      <trkpt lat="47.5368" lon="1.7056429">
        <ele>140.0</ele>
        <time>2022-03-31T09:09:12Z</time>
      </trkpt>
      <trkpt lat="47.536808" lon="1.7056507">
        <ele>140.0</ele>
        <time>2022-03-31T09:09:13Z</time>
      </trkpt>
      <trkpt lat="47.536816" lon="1.7056614">
        <ele>140.0</ele>
        <time>2022-03-31T09:09:14Z</time>
      </trkpt>
      <trkpt lat="47.536827" lon="1.7056676">
        <ele>140.0</ele>
        <time>2022-03-31T09:09:15Z</time>
      </trkpt>
      <trkpt lat="47.536835" lon="1.7056767">
        <ele>140.0</ele>
        <time>2022-03-31T09:09:16Z</time>
      </trkpt>
      <trkpt lat="47.536842" lon="1.7056892">
        <ele>140.0</ele>
        <time>2022-03-31T09:09:17Z</time>
      </trkpt>
      <trkpt lat="47.536854" lon="1.7057015">
        <ele>140.0</ele>
        <time>2022-03-31T09:09:18Z</time>
      </trkpt>
      <trkpt lat="47.536865" lon="1.7057123">
        <ele>141.0</ele>
        <time>2022-03-31T09:09:19Z</time>
      </trkpt>
      <trkpt lat="47.536877" lon="1.7057174">
        <ele>140.0</ele>
        <time>2022-03-31T09:09:20Z</time>
      </trkpt>
      <trkpt lat="47.53689" lon="1.7057258">
        <ele>140.0</ele>
        <time>2022-03-31T09:09:21Z</time>
      </trkpt>
      <trkpt lat="47.536903" lon="1.705739">
        <ele>139.0</ele>
        <time>2022-03-31T09:09:22Z</time>
      </trkpt>
      <trkpt lat="47.536915" lon="1.705752">
        <ele>139.0</ele>
        <time>2022-03-31T09:09:23Z</time>
      </trkpt>
      <trkpt lat="47.536922" lon="1.7057632">
        <ele>139.0</ele>
        <time>2022-03-31T09:09:24Z</time>
      </trkpt>
      <trkpt lat="47.536934" lon="1.7057741">
        <ele>138.0</ele>
        <time>2022-03-31T09:09:25Z</time>
      </trkpt>
      <trkpt lat="47.536945" lon="1.705782">
        <ele>139.0</ele>
        <time>2022-03-31T09:09:26Z</time>
      </trkpt>
      <trkpt lat="47.53696" lon="1.7057908">
        <ele>139.0</ele>
        <time>2022-03-31T09:09:27Z</time>
      </trkpt>
      <trkpt lat="47.536972" lon="1.7057984">
        <ele>139.0</ele>
        <time>2022-03-31T09:09:28Z</time>
      </trkpt>
      <trkpt lat="47.536987" lon="1.7058092">
        <ele>139.0</ele>
        <time>2022-03-31T09:09:29Z</time>
      </trkpt>
      <trkpt lat="47.537" lon="1.7058176">
        <ele>139.0</ele>
        <time>2022-03-31T09:09:30Z</time>
      </trkpt>
      <trkpt lat="47.537014" lon="1.705827">
        <ele>139.0</ele>
        <time>2022-03-31T09:09:31Z</time>
      </trkpt>
      <trkpt lat="47.537025" lon="1.7058395">
        <ele>139.0</ele>
        <time>2022-03-31T09:09:32Z</time>
      </trkpt>
      <trkpt lat="47.537037" lon="1.7058505">
        <ele>139.0</ele>
        <time>2022-03-31T09:09:33Z</time>
      </trkpt>
      <trkpt lat="47.53705" lon="1.705864">
        <ele>140.0</ele>
        <time>2022-03-31T09:09:34Z</time>
      </trkpt>
      <trkpt lat="47.53706" lon="1.7058718">
        <ele>140.0</ele>
        <time>2022-03-31T09:09:35Z</time>
      </trkpt>
      <trkpt lat="47.53707" lon="1.7058817">
        <ele>140.0</ele>
        <time>2022-03-31T09:09:36Z</time>
      </trkpt>
      <trkpt lat="47.537083" lon="1.7058902">
        <ele>140.0</ele>
        <time>2022-03-31T09:09:37Z</time>
      </trkpt>
      <trkpt lat="47.537098" lon="1.705895">
        <ele>140.0</ele>
        <time>2022-03-31T09:09:38Z</time>
      </trkpt>
      <trkpt lat="47.537113" lon="1.7059034">
        <ele>140.0</ele>
        <time>2022-03-31T09:09:39Z</time>
      </trkpt>
      <trkpt lat="47.53713" lon="1.7059125">
        <ele>140.0</ele>
        <time>2022-03-31T09:09:40Z</time>
      </trkpt>
      <trkpt lat="47.537144" lon="1.7059195">
        <ele>140.0</ele>
        <time>2022-03-31T09:09:41Z</time>
      </trkpt>
      <trkpt lat="47.537155" lon="1.7059277">
        <ele>140.0</ele>
        <time>2022-03-31T09:09:42Z</time>
      </trkpt>
      <trkpt lat="47.537167" lon="1.7059373">
        <ele>140.0</ele>
        <time>2022-03-31T09:09:43Z</time>
      </trkpt>
      <trkpt lat="47.537178" lon="1.7059461">
        <ele>140.0</ele>
        <time>2022-03-31T09:09:44Z</time>
      </trkpt>
      <trkpt lat="47.53719" lon="1.7059569">
        <ele>140.0</ele>
        <time>2022-03-31T09:09:45Z</time>
      </trkpt>
      <trkpt lat="47.537197" lon="1.7059705">
        <ele>140.0</ele>
        <time>2022-03-31T09:09:46Z</time>
      </trkpt>
      <trkpt lat="47.537212" lon="1.7059808">
        <ele>140.0</ele>
        <time>2022-03-31T09:09:47Z</time>
      </trkpt>
      <trkpt lat="47.537224" lon="1.7059915">
        <ele>140.0</ele>
        <time>2022-03-31T09:09:48Z</time>
      </trkpt>
      <trkpt lat="47.53724" lon="1.7060015">
        <ele>140.0</ele>
        <time>2022-03-31T09:09:49Z</time>
      </trkpt>
      <trkpt lat="47.537247" lon="1.7060105">
        <ele>140.0</ele>
        <time>2022-03-31T09:09:50Z</time>
      </trkpt>
      <trkpt lat="47.53726" lon="1.706019">
        <ele>139.0</ele>
        <time>2022-03-31T09:09:51Z</time>
      </trkpt>
      <trkpt lat="47.537273" lon="1.7060223">
        <ele>139.0</ele>
        <time>2022-03-31T09:09:52Z</time>
      </trkpt>
      <trkpt lat="47.53728" lon="1.7060299">
        <ele>139.0</ele>
        <time>2022-03-31T09:09:53Z</time>
      </trkpt>
      <trkpt lat="47.53729" lon="1.7060385">
        <ele>140.0</ele>
        <time>2022-03-31T09:09:54Z</time>
      </trkpt>
      <trkpt lat="47.5373" lon="1.7060434">
        <ele>140.0</ele>
        <time>2022-03-31T09:09:55Z</time>
      </trkpt>
      <trkpt lat="47.53731" lon="1.7060505">
        <ele>140.0</ele>
        <time>2022-03-31T09:09:56Z</time>
      </trkpt>
      <trkpt lat="47.537327" lon="1.7060541">
        <ele>141.0</ele>
        <time>2022-03-31T09:09:57Z</time>
      </trkpt>
      <trkpt lat="47.53734" lon="1.7060579">
        <ele>141.0</ele>
        <time>2022-03-31T09:09:58Z</time>
      </trkpt>
      <trkpt lat="47.53735" lon="1.706066">
        <ele>141.0</ele>
        <time>2022-03-31T09:09:59Z</time>
      </trkpt>
      <trkpt lat="47.53736" lon="1.7060792">
        <ele>140.0</ele>
        <time>2022-03-31T09:10:00Z</time>
      </trkpt>
      <trkpt lat="47.53737" lon="1.7060909">
        <ele>140.0</ele>
        <time>2022-03-31T09:10:01Z</time>
      </trkpt>
      <trkpt lat="47.537373" lon="1.7061043">
        <ele>140.0</ele>
        <time>2022-03-31T09:10:02Z</time>
      </trkpt>
      <trkpt lat="47.537376" lon="1.7061192">
        <ele>140.0</ele>
        <time>2022-03-31T09:10:03Z</time>
      </trkpt>
      <trkpt lat="47.53738" lon="1.7061347">
        <ele>140.0</ele>
        <time>2022-03-31T09:10:04Z</time>
      </trkpt>
      <trkpt lat="47.53739" lon="1.7061434">
        <ele>139.0</ele>
        <time>2022-03-31T09:10:05Z</time>
      </trkpt>
      <trkpt lat="47.537403" lon="1.7061584">
        <ele>139.0</ele>
        <time>2022-03-31T09:10:06Z</time>
      </trkpt>
      <trkpt lat="47.53742" lon="1.7061698">
        <ele>139.0</ele>
        <time>2022-03-31T09:10:07Z</time>
      </trkpt>
      <trkpt lat="47.537434" lon="1.7061799">
        <ele>140.0</ele>
        <time>2022-03-31T09:10:08Z</time>
      </trkpt>
      <trkpt lat="47.53745" lon="1.7061858">
        <ele>140.0</ele>
        <time>2022-03-31T09:10:09Z</time>
      </trkpt>
      <trkpt lat="47.537457" lon="1.7061981">
        <ele>140.0</ele>
        <time>2022-03-31T09:10:10Z</time>
      </trkpt>
      <trkpt lat="47.537464" lon="1.70621">
        <ele>140.0</ele>
        <time>2022-03-31T09:10:11Z</time>
      </trkpt>
      <trkpt lat="47.537476" lon="1.7062207">
        <ele>140.0</ele>
        <time>2022-03-31T09:10:12Z</time>
      </trkpt>
      <trkpt lat="47.537487" lon="1.7062285">
        <ele>139.0</ele>
        <time>2022-03-31T09:10:13Z</time>
      </trkpt>
      <trkpt lat="47.537502" lon="1.7062361">
        <ele>140.0</ele>
        <time>2022-03-31T09:10:14Z</time>
      </trkpt>
      <trkpt lat="47.537514" lon="1.7062471">
        <ele>139.0</ele>
        <time>2022-03-31T09:10:15Z</time>
      </trkpt>
      <trkpt lat="47.537525" lon="1.7062613">
        <ele>140.0</ele>
        <time>2022-03-31T09:10:16Z</time>
      </trkpt>
      <trkpt lat="47.537537" lon="1.7062744">
        <ele>140.0</ele>
        <time>2022-03-31T09:10:17Z</time>
      </trkpt>
      <trkpt lat="47.537548" lon="1.7062857">
        <ele>140.0</ele>
        <time>2022-03-31T09:10:18Z</time>
      </trkpt>
      <trkpt lat="47.53756" lon="1.7062919">
        <ele>140.0</ele>
        <time>2022-03-31T09:10:19Z</time>
      </trkpt>
      <trkpt lat="47.53757" lon="1.7063005">
        <ele>140.0</ele>
        <time>2022-03-31T09:10:20Z</time>
      </trkpt>
      <trkpt lat="47.537582" lon="1.7063128">
        <ele>140.0</ele>
        <time>2022-03-31T09:10:21Z</time>
      </trkpt>
      <trkpt lat="47.537594" lon="1.7063192">
        <ele>140.0</ele>
        <time>2022-03-31T09:10:22Z</time>
      </trkpt>
      <trkpt lat="47.5376" lon="1.7063303">
        <ele>140.0</ele>
        <time>2022-03-31T09:10:23Z</time>
      </trkpt>
      <trkpt lat="47.537613" lon="1.7063378">
        <ele>140.0</ele>
        <time>2022-03-31T09:10:24Z</time>
      </trkpt>
      <trkpt lat="47.53762" lon="1.7063462">
        <ele>140.0</ele>
        <time>2022-03-31T09:10:25Z</time>
      </trkpt>
      <trkpt lat="47.53763" lon="1.7063551">
        <ele>140.0</ele>
        <time>2022-03-31T09:10:26Z</time>
      </trkpt>
      <trkpt lat="47.537636" lon="1.7063652">
        <ele>140.0</ele>
        <time>2022-03-31T09:10:27Z</time>
      </trkpt>
      <trkpt lat="47.537647" lon="1.7063732">
        <ele>140.0</ele>
        <time>2022-03-31T09:10:28Z</time>
      </trkpt>
      <trkpt lat="47.537655" lon="1.7063811">
        <ele>141.0</ele>
        <time>2022-03-31T09:10:29Z</time>
      </trkpt>
      <trkpt lat="47.537666" lon="1.7063894">
        <ele>141.0</ele>
        <time>2022-03-31T09:10:30Z</time>
      </trkpt>
      <trkpt lat="47.537678" lon="1.7063969">
        <ele>141.0</ele>
        <time>2022-03-31T09:10:31Z</time>
      </trkpt>
      <trkpt lat="47.53769" lon="1.7064061">
        <ele>140.0</ele>
        <time>2022-03-31T09:10:32Z</time>
      </trkpt>
      <trkpt lat="47.5377" lon="1.706415">
        <ele>140.0</ele>
        <time>2022-03-31T09:10:33Z</time>
      </trkpt>
      <trkpt lat="47.537712" lon="1.7064238">
        <ele>140.0</ele>
        <time>2022-03-31T09:10:34Z</time>
      </trkpt>
      <trkpt lat="47.537724" lon="1.706431">
        <ele>140.0</ele>
        <time>2022-03-31T09:10:35Z</time>
      </trkpt>
      <trkpt lat="47.537735" lon="1.7064382">
        <ele>140.0</ele>
        <time>2022-03-31T09:10:36Z</time>
      </trkpt>
      <trkpt lat="47.537743" lon="1.7064444">
        <ele>140.0</ele>
        <time>2022-03-31T09:10:37Z</time>
      </trkpt>
      <trkpt lat="47.537754" lon="1.7064514">
        <ele>140.0</ele>
        <time>2022-03-31T09:10:38Z</time>
      </trkpt>
      <trkpt lat="47.537758" lon="1.7064589">
        <ele>140.0</ele>
        <time>2022-03-31T09:10:39Z</time>
      </trkpt>
      <trkpt lat="47.53777" lon="1.7064688">
        <ele>140.0</ele>
        <time>2022-03-31T09:10:40Z</time>
      </trkpt>
      <trkpt lat="47.53778" lon="1.706478">
        <ele>140.0</ele>
        <time>2022-03-31T09:10:41Z</time>
      </trkpt>
      <trkpt lat="47.537792" lon="1.7064881">
        <ele>140.0</ele>
        <time>2022-03-31T09:10:42Z</time>
      </trkpt>
      <trkpt lat="47.5378" lon="1.7064976">
        <ele>140.0</ele>
        <time>2022-03-31T09:10:43Z</time>
      </trkpt>
      <trkpt lat="47.537807" lon="1.7065066">
        <ele>140.0</ele>
        <time>2022-03-31T09:10:44Z</time>
      </trkpt>
      <trkpt lat="47.53782" lon="1.7065129">
        <ele>140.0</ele>
        <time>2022-03-31T09:10:45Z</time>
      </trkpt>
      <trkpt lat="47.53783" lon="1.7065217">
        <ele>141.0</ele>
        <time>2022-03-31T09:10:46Z</time>
      </trkpt>
      <trkpt lat="47.537838" lon="1.7065297">
        <ele>141.0</ele>
        <time>2022-03-31T09:10:47Z</time>
      </trkpt>
      <trkpt lat="47.537846" lon="1.7065401">
        <ele>141.0</ele>
        <time>2022-03-31T09:10:48Z</time>
      </trkpt>
      <trkpt lat="47.537857" lon="1.706551">
        <ele>141.0</ele>
        <time>2022-03-31T09:10:49Z</time>
      </trkpt>
      <trkpt lat="47.53787" lon="1.7065586">
        <ele>140.0</ele>
        <time>2022-03-31T09:10:50Z</time>
      </trkpt>
      <trkpt lat="47.53788" lon="1.706563">
        <ele>140.0</ele>
        <time>2022-03-31T09:10:51Z</time>
      </trkpt>
      <trkpt lat="47.537895" lon="1.7065703">
        <ele>140.0</ele>
        <time>2022-03-31T09:10:52Z</time>
      </trkpt>
      <trkpt lat="47.53791" lon="1.7065752">
        <ele>141.0</ele>
        <time>2022-03-31T09:10:53Z</time>
      </trkpt>
      <trkpt lat="47.53792" lon="1.7065814">
        <ele>140.0</ele>
        <time>2022-03-31T09:10:54Z</time>
      </trkpt>
      <trkpt lat="47.537933" lon="1.7065898">
        <ele>140.0</ele>
        <time>2022-03-31T09:10:55Z</time>
      </trkpt>
      <trkpt lat="47.537945" lon="1.7065964">
        <ele>140.0</ele>
        <time>2022-03-31T09:10:56Z</time>
      </trkpt>
      <trkpt lat="47.537956" lon="1.7066052">
        <ele>140.0</ele>
        <time>2022-03-31T09:10:57Z</time>
      </trkpt>
      <trkpt lat="47.53797" lon="1.7066146">
        <ele>140.0</ele>
        <time>2022-03-31T09:10:58Z</time>
      </trkpt>
      <trkpt lat="47.53798" lon="1.7066294">
        <ele>140.0</ele>
        <time>2022-03-31T09:10:59Z</time>
      </trkpt>
      <trkpt lat="47.53799" lon="1.7066356">
        <ele>140.0</ele>
        <time>2022-03-31T09:11:00Z</time>
      </trkpt>
      <trkpt lat="47.538006" lon="1.7066392">
        <ele>140.0</ele>
        <time>2022-03-31T09:11:01Z</time>
      </trkpt>
      <trkpt lat="47.538013" lon="1.7066472">
        <ele>140.0</ele>
        <time>2022-03-31T09:11:02Z</time>
      </trkpt>
      <trkpt lat="47.53803" lon="1.7066559">
        <ele>140.0</ele>
        <time>2022-03-31T09:11:03Z</time>
      </trkpt>
      <trkpt lat="47.53804" lon="1.7066652">
        <ele>140.0</ele>
        <time>2022-03-31T09:11:04Z</time>
      </trkpt>
      <trkpt lat="47.53805" lon="1.706668">
        <ele>140.0</ele>
        <time>2022-03-31T09:11:05Z</time>
      </trkpt>
      <trkpt lat="47.538063" lon="1.7066758">
        <ele>140.0</ele>
        <time>2022-03-31T09:11:06Z</time>
      </trkpt>
      <trkpt lat="47.53808" lon="1.7066827">
        <ele>139.0</ele>
        <time>2022-03-31T09:11:07Z</time>
      </trkpt>
      <trkpt lat="47.538094" lon="1.7066938">
        <ele>139.0</ele>
        <time>2022-03-31T09:11:08Z</time>
      </trkpt>
      <trkpt lat="47.538105" lon="1.7067038">
        <ele>139.0</ele>
        <time>2022-03-31T09:11:09Z</time>
      </trkpt>
      <trkpt lat="47.538116" lon="1.7067142">
        <ele>140.0</ele>
        <time>2022-03-31T09:11:10Z</time>
      </trkpt>
      <trkpt lat="47.538128" lon="1.7067256">
        <ele>140.0</ele>
        <time>2022-03-31T09:11:11Z</time>
      </trkpt>
      <trkpt lat="47.53814" lon="1.7067356">
        <ele>140.0</ele>
        <time>2022-03-31T09:11:12Z</time>
      </trkpt>
      <trkpt lat="47.53815" lon="1.7067446">
        <ele>140.0</ele>
        <time>2022-03-31T09:11:13Z</time>
      </trkpt>
      <trkpt lat="47.53816" lon="1.7067565">
        <ele>140.0</ele>
        <time>2022-03-31T09:11:14Z</time>
      </trkpt>
      <trkpt lat="47.538174" lon="1.7067624">
        <ele>140.0</ele>
        <time>2022-03-31T09:11:15Z</time>
      </trkpt>
      <trkpt lat="47.538185" lon="1.7067683">
        <ele>140.0</ele>
        <time>2022-03-31T09:11:16Z</time>
      </trkpt>
      <trkpt lat="47.538197" lon="1.7067778">
        <ele>141.0</ele>
        <time>2022-03-31T09:11:17Z</time>
      </trkpt>
      <trkpt lat="47.53821" lon="1.7067839">
        <ele>141.0</ele>
        <time>2022-03-31T09:11:18Z</time>
      </trkpt>
      <trkpt lat="47.538223" lon="1.70679">
        <ele>141.0</ele>
        <time>2022-03-31T09:11:19Z</time>
      </trkpt>
      <trkpt lat="47.538235" lon="1.7068021">
        <ele>141.0</ele>
        <time>2022-03-31T09:11:20Z</time>
      </trkpt>
      <trkpt lat="47.53825" lon="1.7068135">
        <ele>141.0</ele>
        <time>2022-03-31T09:11:21Z</time>
      </trkpt>
      <trkpt lat="47.53826" lon="1.7068236">
        <ele>141.0</ele>
        <time>2022-03-31T09:11:22Z</time>
      </trkpt>
      <trkpt lat="47.538273" lon="1.7068337">
        <ele>141.0</ele>
        <time>2022-03-31T09:11:23Z</time>
      </trkpt>
      <trkpt lat="47.53829" lon="1.7068441">
        <ele>142.0</ele>
        <time>2022-03-31T09:11:24Z</time>
      </trkpt>
      <trkpt lat="47.5383" lon="1.7068526">
        <ele>142.0</ele>
        <time>2022-03-31T09:11:25Z</time>
      </trkpt>
      <trkpt lat="47.538307" lon="1.7068615">
        <ele>142.0</ele>
        <time>2022-03-31T09:11:26Z</time>
      </trkpt>
      <trkpt lat="47.53832" lon="1.7068703">
        <ele>142.0</ele>
        <time>2022-03-31T09:11:27Z</time>
      </trkpt>
      <trkpt lat="47.53833" lon="1.7068801">
        <ele>143.0</ele>
        <time>2022-03-31T09:11:28Z</time>
      </trkpt>
      <trkpt lat="47.538338" lon="1.7068936">
        <ele>143.0</ele>
        <time>2022-03-31T09:11:29Z</time>
      </trkpt>
      <trkpt lat="47.538345" lon="1.706906">
        <ele>143.0</ele>
        <time>2022-03-31T09:11:30Z</time>
      </trkpt>
      <trkpt lat="47.538357" lon="1.7069154">
        <ele>144.0</ele>
        <time>2022-03-31T09:11:31Z</time>
      </trkpt>
      <trkpt lat="47.53837" lon="1.7069223">
        <ele>144.0</ele>
        <time>2022-03-31T09:11:32Z</time>
      </trkpt>
      <trkpt lat="47.538383" lon="1.706927">
        <ele>144.0</ele>
        <time>2022-03-31T09:11:33Z</time>
      </trkpt>
      <trkpt lat="47.538395" lon="1.706935">
        <ele>144.0</ele>
        <time>2022-03-31T09:11:34Z</time>
      </trkpt>
      <trkpt lat="47.53841" lon="1.7069409">
        <ele>144.0</ele>
        <time>2022-03-31T09:11:35Z</time>
      </trkpt>
      <trkpt lat="47.53842" lon="1.7069482">
        <ele>144.0</ele>
        <time>2022-03-31T09:11:36Z</time>
      </trkpt>
      <trkpt lat="47.538433" lon="1.706954">
        <ele>144.0</ele>
        <time>2022-03-31T09:11:37Z</time>
      </trkpt>
      <trkpt lat="47.53845" lon="1.7069612">
        <ele>144.0</ele>
        <time>2022-03-31T09:11:38Z</time>
      </trkpt>
      <trkpt lat="47.53846" lon="1.7069657">
        <ele>144.0</ele>
        <time>2022-03-31T09:11:39Z</time>
      </trkpt>
      <trkpt lat="47.53847" lon="1.7069722">
        <ele>144.0</ele>
        <time>2022-03-31T09:11:40Z</time>
      </trkpt>
      <trkpt lat="47.53848" lon="1.7069868">
        <ele>144.0</ele>
        <time>2022-03-31T09:11:41Z</time>
      </trkpt>
      <trkpt lat="47.538486" lon="1.7069981">
        <ele>144.0</ele>
        <time>2022-03-31T09:11:42Z</time>
      </trkpt>
      <trkpt lat="47.538498" lon="1.7070097">
        <ele>144.0</ele>
        <time>2022-03-31T09:11:43Z</time>
      </trkpt>
      <trkpt lat="47.538513" lon="1.7070136">
        <ele>144.0</ele>
        <time>2022-03-31T09:11:44Z</time>
      </trkpt>
      <trkpt lat="47.538525" lon="1.7070223">
        <ele>143.0</ele>
        <time>2022-03-31T09:11:45Z</time>
      </trkpt>
      <trkpt lat="47.538536" lon="1.7070342">
        <ele>143.0</ele>
        <time>2022-03-31T09:11:46Z</time>
      </trkpt>
      <trkpt lat="47.538548" lon="1.7070469">
        <ele>143.0</ele>
        <time>2022-03-31T09:11:47Z</time>
      </trkpt>
      <trkpt lat="47.53856" lon="1.7070584">
        <ele>143.0</ele>
        <time>2022-03-31T09:11:48Z</time>
      </trkpt>
      <trkpt lat="47.53857" lon="1.70707">
        <ele>143.0</ele>
        <time>2022-03-31T09:11:49Z</time>
      </trkpt>
      <trkpt lat="47.53858" lon="1.7070829">
        <ele>143.0</ele>
        <time>2022-03-31T09:11:50Z</time>
      </trkpt>
      <trkpt lat="47.53859" lon="1.7070957">
        <ele>143.0</ele>
        <time>2022-03-31T09:11:51Z</time>
      </trkpt>
      <trkpt lat="47.538597" lon="1.7071095">
        <ele>143.0</ele>
        <time>2022-03-31T09:11:52Z</time>
      </trkpt>
      <trkpt lat="47.538605" lon="1.7071217">
        <ele>142.0</ele>
        <time>2022-03-31T09:11:53Z</time>
      </trkpt>
      <trkpt lat="47.538612" lon="1.7071329">
        <ele>142.0</ele>
        <time>2022-03-31T09:11:54Z</time>
      </trkpt>
      <trkpt lat="47.538624" lon="1.707143">
        <ele>142.0</ele>
        <time>2022-03-31T09:11:55Z</time>
      </trkpt>
      <trkpt lat="47.53863" lon="1.7071538">
        <ele>142.0</ele>
        <time>2022-03-31T09:11:56Z</time>
      </trkpt>
      <trkpt lat="47.538643" lon="1.7071652">
        <ele>142.0</ele>
        <time>2022-03-31T09:11:57Z</time>
      </trkpt>
      <trkpt lat="47.53865" lon="1.707177">
        <ele>142.0</ele>
        <time>2022-03-31T09:11:58Z</time>
      </trkpt>
      <trkpt lat="47.53866" lon="1.707188">
        <ele>142.0</ele>
        <time>2022-03-31T09:11:59Z</time>
      </trkpt>
      <trkpt lat="47.53867" lon="1.7071997">
        <ele>142.0</ele>
        <time>2022-03-31T09:12:00Z</time>
      </trkpt>
      <trkpt lat="47.53868" lon="1.7072043">
        <ele>142.0</ele>
        <time>2022-03-31T09:12:01Z</time>
      </trkpt>
      <trkpt lat="47.538692" lon="1.7072138">
        <ele>142.0</ele>
        <time>2022-03-31T09:12:02Z</time>
      </trkpt>
      <trkpt lat="47.538704" lon="1.7072186">
        <ele>141.0</ele>
        <time>2022-03-31T09:12:03Z</time>
      </trkpt>
      <trkpt lat="47.53872" lon="1.7072256">
        <ele>141.0</ele>
        <time>2022-03-31T09:12:04Z</time>
      </trkpt>
      <trkpt lat="47.53873" lon="1.7072345">
        <ele>141.0</ele>
        <time>2022-03-31T09:12:05Z</time>
      </trkpt>
      <trkpt lat="47.538742" lon="1.7072463">
        <ele>142.0</ele>
        <time>2022-03-31T09:12:06Z</time>
      </trkpt>
      <trkpt lat="47.538754" lon="1.7072566">
        <ele>142.0</ele>
        <time>2022-03-31T09:12:07Z</time>
      </trkpt>
      <trkpt lat="47.538765" lon="1.7072608">
        <ele>142.0</ele>
        <time>2022-03-31T09:12:08Z</time>
      </trkpt>
      <trkpt lat="47.538776" lon="1.7072694">
        <ele>142.0</ele>
        <time>2022-03-31T09:12:09Z</time>
      </trkpt>
      <trkpt lat="47.538788" lon="1.7072765">
        <ele>142.0</ele>
        <time>2022-03-31T09:12:10Z</time>
      </trkpt>
      <trkpt lat="47.538803" lon="1.7072864">
        <ele>142.0</ele>
        <time>2022-03-31T09:12:11Z</time>
      </trkpt>
      <trkpt lat="47.538815" lon="1.7072959">
        <ele>142.0</ele>
        <time>2022-03-31T09:12:12Z</time>
      </trkpt>
      <trkpt lat="47.538826" lon="1.7073009">
        <ele>142.0</ele>
        <time>2022-03-31T09:12:13Z</time>
      </trkpt>
      <trkpt lat="47.53884" lon="1.7073097">
        <ele>142.0</ele>
        <time>2022-03-31T09:12:14Z</time>
      </trkpt>
      <trkpt lat="47.538857" lon="1.707319">
        <ele>142.0</ele>
        <time>2022-03-31T09:12:15Z</time>
      </trkpt>
      <trkpt lat="47.538868" lon="1.7073284">
        <ele>142.0</ele>
        <time>2022-03-31T09:12:16Z</time>
      </trkpt>
      <trkpt lat="47.53888" lon="1.7073395">
        <ele>143.0</ele>
        <time>2022-03-31T09:12:17Z</time>
      </trkpt>
      <trkpt lat="47.53889" lon="1.7073449">
        <ele>143.0</ele>
        <time>2022-03-31T09:12:18Z</time>
      </trkpt>
      <trkpt lat="47.5389" lon="1.7073566">
        <ele>143.0</ele>
        <time>2022-03-31T09:12:19Z</time>
      </trkpt>
      <trkpt lat="47.53891" lon="1.7073708">
        <ele>143.0</ele>
        <time>2022-03-31T09:12:20Z</time>
      </trkpt>
      <trkpt lat="47.538925" lon="1.7073809">
        <ele>143.0</ele>
        <time>2022-03-31T09:12:21Z</time>
      </trkpt>
      <trkpt lat="47.53894" lon="1.7073888">
        <ele>143.0</ele>
        <time>2022-03-31T09:12:22Z</time>
      </trkpt>
      <trkpt lat="47.538948" lon="1.7074013">
        <ele>143.0</ele>
        <time>2022-03-31T09:12:23Z</time>
      </trkpt>
      <trkpt lat="47.53896" lon="1.7074116">
        <ele>144.0</ele>
        <time>2022-03-31T09:12:24Z</time>
      </trkpt>
      <trkpt lat="47.53897" lon="1.7074202">
        <ele>144.0</ele>
        <time>2022-03-31T09:12:25Z</time>
      </trkpt>
      <trkpt lat="47.538982" lon="1.7074331">
        <ele>144.0</ele>
        <time>2022-03-31T09:12:26Z</time>
      </trkpt>
      <trkpt lat="47.538994" lon="1.7074424">
        <ele>144.0</ele>
        <time>2022-03-31T09:12:27Z</time>
      </trkpt>
      <trkpt lat="47.539005" lon="1.7074462">
        <ele>144.0</ele>
        <time>2022-03-31T09:12:28Z</time>
      </trkpt>
      <trkpt lat="47.539017" lon="1.7074543">
        <ele>145.0</ele>
        <time>2022-03-31T09:12:29Z</time>
      </trkpt>
      <trkpt lat="47.539024" lon="1.7074628">
        <ele>145.0</ele>
        <time>2022-03-31T09:12:30Z</time>
      </trkpt>
      <trkpt lat="47.539036" lon="1.7074722">
        <ele>145.0</ele>
        <time>2022-03-31T09:12:31Z</time>
      </trkpt>
      <trkpt lat="47.539047" lon="1.7074838">
        <ele>145.0</ele>
        <time>2022-03-31T09:12:32Z</time>
      </trkpt>
      <trkpt lat="47.53906" lon="1.7074884">
        <ele>145.0</ele>
        <time>2022-03-31T09:12:33Z</time>
      </trkpt>
      <trkpt lat="47.539066" lon="1.7074958">
        <ele>145.0</ele>
        <time>2022-03-31T09:12:34Z</time>
      </trkpt>
      <trkpt lat="47.539078" lon="1.7075036">
        <ele>145.0</ele>
        <time>2022-03-31T09:12:35Z</time>
      </trkpt>
      <trkpt lat="47.53909" lon="1.7075118">
        <ele>145.0</ele>
        <time>2022-03-31T09:12:36Z</time>
      </trkpt>
      <trkpt lat="47.539104" lon="1.7075218">
        <ele>145.0</ele>
        <time>2022-03-31T09:12:37Z</time>
      </trkpt>
      <trkpt lat="47.539116" lon="1.7075268">
        <ele>144.0</ele>
        <time>2022-03-31T09:12:38Z</time>
      </trkpt>
      <trkpt lat="47.539127" lon="1.7075336">
        <ele>144.0</ele>
        <time>2022-03-31T09:12:39Z</time>
      </trkpt>
      <trkpt lat="47.53914" lon="1.7075408">
        <ele>144.0</ele>
        <time>2022-03-31T09:12:40Z</time>
      </trkpt>
      <trkpt lat="47.53915" lon="1.7075514">
        <ele>144.0</ele>
        <time>2022-03-31T09:12:41Z</time>
      </trkpt>
      <trkpt lat="47.53916" lon="1.7075622">
        <ele>145.0</ele>
        <time>2022-03-31T09:12:42Z</time>
      </trkpt>
      <trkpt lat="47.539173" lon="1.7075703">
        <ele>145.0</ele>
        <time>2022-03-31T09:12:43Z</time>
      </trkpt>
      <trkpt lat="47.539185" lon="1.7075791">
        <ele>145.0</ele>
        <time>2022-03-31T09:12:44Z</time>
      </trkpt>
      <trkpt lat="47.539192" lon="1.707589">
        <ele>145.0</ele>
        <time>2022-03-31T09:12:45Z</time>
      </trkpt>
      <trkpt lat="47.539204" lon="1.7075948">
        <ele>145.0</ele>
        <time>2022-03-31T09:12:46Z</time>
      </trkpt>
      <trkpt lat="47.539215" lon="1.7076011">
        <ele>145.0</ele>
        <time>2022-03-31T09:12:47Z</time>
      </trkpt>
      <trkpt lat="47.539227" lon="1.7076128">
        <ele>144.0</ele>
        <time>2022-03-31T09:12:48Z</time>
      </trkpt>
      <trkpt lat="47.539234" lon="1.7076216">
        <ele>145.0</ele>
        <time>2022-03-31T09:12:49Z</time>
      </trkpt>
      <trkpt lat="47.53925" lon="1.7076308">
        <ele>145.0</ele>
        <time>2022-03-31T09:12:50Z</time>
      </trkpt>
      <trkpt lat="47.539265" lon="1.7076392">
        <ele>145.0</ele>
        <time>2022-03-31T09:12:51Z</time>
      </trkpt>
      <trkpt lat="47.539276" lon="1.7076545">
        <ele>145.0</ele>
        <time>2022-03-31T09:12:52Z</time>
      </trkpt>
      <trkpt lat="47.539288" lon="1.7076656">
        <ele>145.0</ele>
        <time>2022-03-31T09:12:53Z</time>
      </trkpt>
      <trkpt lat="47.539295" lon="1.7076726">
        <ele>145.0</ele>
        <time>2022-03-31T09:12:54Z</time>
      </trkpt>
      <trkpt lat="47.539307" lon="1.7076811">
        <ele>144.0</ele>
        <time>2022-03-31T09:12:55Z</time>
      </trkpt>
      <trkpt lat="47.539314" lon="1.7076904">
        <ele>144.0</ele>
        <time>2022-03-31T09:12:56Z</time>
      </trkpt>
      <trkpt lat="47.539326" lon="1.7076992">
        <ele>144.0</ele>
        <time>2022-03-31T09:12:57Z</time>
      </trkpt>
      <trkpt lat="47.539337" lon="1.7077099">
        <ele>144.0</ele>
        <time>2022-03-31T09:12:58Z</time>
      </trkpt>
      <trkpt lat="47.53935" lon="1.7077175">
        <ele>144.0</ele>
        <time>2022-03-31T09:12:59Z</time>
      </trkpt>
      <trkpt lat="47.539356" lon="1.7077262">
        <ele>144.0</ele>
        <time>2022-03-31T09:13:00Z</time>
      </trkpt>
      <trkpt lat="47.539368" lon="1.7077372">
        <ele>144.0</ele>
        <time>2022-03-31T09:13:01Z</time>
      </trkpt>
      <trkpt lat="47.53938" lon="1.7077469">
        <ele>144.0</ele>
        <time>2022-03-31T09:13:02Z</time>
      </trkpt>
      <trkpt lat="47.53939" lon="1.7077525">
        <ele>143.0</ele>
        <time>2022-03-31T09:13:03Z</time>
      </trkpt>
      <trkpt lat="47.539406" lon="1.7077637">
        <ele>143.0</ele>
        <time>2022-03-31T09:13:04Z</time>
      </trkpt>
      <trkpt lat="47.539417" lon="1.7077757">
        <ele>143.0</ele>
        <time>2022-03-31T09:13:05Z</time>
      </trkpt>
      <trkpt lat="47.53943" lon="1.7077843">
        <ele>143.0</ele>
        <time>2022-03-31T09:13:06Z</time>
      </trkpt>
      <trkpt lat="47.539436" lon="1.7077917">
        <ele>143.0</ele>
        <time>2022-03-31T09:13:07Z</time>
      </trkpt>
      <trkpt lat="47.539448" lon="1.7077999">
        <ele>142.0</ele>
        <time>2022-03-31T09:13:08Z</time>
      </trkpt>
      <trkpt lat="47.53946" lon="1.707808">
        <ele>142.0</ele>
        <time>2022-03-31T09:13:09Z</time>
      </trkpt>
      <trkpt lat="47.539467" lon="1.7078165">
        <ele>142.0</ele>
        <time>2022-03-31T09:13:10Z</time>
      </trkpt>
      <trkpt lat="47.53948" lon="1.7078258">
        <ele>142.0</ele>
        <time>2022-03-31T09:13:11Z</time>
      </trkpt>
      <trkpt lat="47.53949" lon="1.7078371">
        <ele>143.0</ele>
        <time>2022-03-31T09:13:12Z</time>
      </trkpt>
      <trkpt lat="47.5395" lon="1.7078468">
        <ele>143.0</ele>
        <time>2022-03-31T09:13:13Z</time>
      </trkpt>
      <trkpt lat="47.539513" lon="1.707856">
        <ele>143.0</ele>
        <time>2022-03-31T09:13:14Z</time>
      </trkpt>
      <trkpt lat="47.539524" lon="1.7078646">
        <ele>143.0</ele>
        <time>2022-03-31T09:13:15Z</time>
      </trkpt>
      <trkpt lat="47.53954" lon="1.7078729">
        <ele>143.0</ele>
        <time>2022-03-31T09:13:16Z</time>
      </trkpt>
      <trkpt lat="47.53955" lon="1.7078825">
        <ele>143.0</ele>
        <time>2022-03-31T09:13:17Z</time>
      </trkpt>
      <trkpt lat="47.539562" lon="1.7078928">
        <ele>143.0</ele>
        <time>2022-03-31T09:13:18Z</time>
      </trkpt>
      <trkpt lat="47.539577" lon="1.7079018">
        <ele>143.0</ele>
        <time>2022-03-31T09:13:19Z</time>
      </trkpt>
      <trkpt lat="47.53958" lon="1.7079086">
        <ele>143.0</ele>
        <time>2022-03-31T09:13:20Z</time>
      </trkpt>
      <trkpt lat="47.539593" lon="1.7079153">
        <ele>143.0</ele>
        <time>2022-03-31T09:13:21Z</time>
      </trkpt>
      <trkpt lat="47.539604" lon="1.7079235">
        <ele>143.0</ele>
        <time>2022-03-31T09:13:22Z</time>
      </trkpt>
      <trkpt lat="47.539616" lon="1.7079328">
        <ele>143.0</ele>
        <time>2022-03-31T09:13:23Z</time>
      </trkpt>
      <trkpt lat="47.539627" lon="1.7079458">
        <ele>143.0</ele>
        <time>2022-03-31T09:13:24Z</time>
      </trkpt>
      <trkpt lat="47.53964" lon="1.7079593">
        <ele>143.0</ele>
        <time>2022-03-31T09:13:25Z</time>
      </trkpt>
      <trkpt lat="47.53965" lon="1.7079723">
        <ele>143.0</ele>
        <time>2022-03-31T09:13:26Z</time>
      </trkpt>
      <trkpt lat="47.539658" lon="1.7079809">
        <ele>143.0</ele>
        <time>2022-03-31T09:13:27Z</time>
      </trkpt>
      <trkpt lat="47.539665" lon="1.7079916">
        <ele>144.0</ele>
        <time>2022-03-31T09:13:28Z</time>
      </trkpt>
      <trkpt lat="47.539673" lon="1.7080003">
        <ele>144.0</ele>
        <time>2022-03-31T09:13:29Z</time>
      </trkpt>
      <trkpt lat="47.53969" lon="1.7080102">
        <ele>143.0</ele>
        <time>2022-03-31T09:13:30Z</time>
      </trkpt>
      <trkpt lat="47.5397" lon="1.7080151">
        <ele>143.0</ele>
        <time>2022-03-31T09:13:31Z</time>
      </trkpt>
      <trkpt lat="47.539707" lon="1.7080228">
        <ele>143.0</ele>
        <time>2022-03-31T09:13:32Z</time>
      </trkpt>
      <trkpt lat="47.539715" lon="1.708027">
        <ele>143.0</ele>
        <time>2022-03-31T09:13:33Z</time>
      </trkpt>
      <trkpt lat="47.539722" lon="1.7080365">
        <ele>143.0</ele>
        <time>2022-03-31T09:13:34Z</time>
      </trkpt>
      <trkpt lat="47.53973" lon="1.7080476">
        <ele>143.0</ele>
        <time>2022-03-31T09:13:35Z</time>
      </trkpt>
      <trkpt lat="47.539738" lon="1.7080573">
        <ele>142.0</ele>
        <time>2022-03-31T09:13:36Z</time>
      </trkpt>
      <trkpt lat="47.53975" lon="1.7080642">
        <ele>142.0</ele>
        <time>2022-03-31T09:13:37Z</time>
      </trkpt>
      <trkpt lat="47.53976" lon="1.7080734">
        <ele>142.0</ele>
        <time>2022-03-31T09:13:38Z</time>
      </trkpt>
      <trkpt lat="47.53977" lon="1.7080842">
        <ele>142.0</ele>
        <time>2022-03-31T09:13:39Z</time>
      </trkpt>
      <trkpt lat="47.53978" lon="1.7080973">
        <ele>142.0</ele>
        <time>2022-03-31T09:13:40Z</time>
      </trkpt>
      <trkpt lat="47.53979" lon="1.7081052">
        <ele>143.0</ele>
        <time>2022-03-31T09:13:41Z</time>
      </trkpt>
      <trkpt lat="47.5398" lon="1.7081156">
        <ele>143.0</ele>
        <time>2022-03-31T09:13:42Z</time>
      </trkpt>
      <trkpt lat="47.53981" lon="1.7081249">
        <ele>142.0</ele>
        <time>2022-03-31T09:13:43Z</time>
      </trkpt>
      <trkpt lat="47.53982" lon="1.7081338">
        <ele>142.0</ele>
        <time>2022-03-31T09:13:44Z</time>
      </trkpt>
      <trkpt lat="47.539833" lon="1.7081414">
        <ele>142.0</ele>
        <time>2022-03-31T09:13:45Z</time>
      </trkpt>
      <trkpt lat="47.53985" lon="1.7081516">
        <ele>141.0</ele>
        <time>2022-03-31T09:13:46Z</time>
      </trkpt>
      <trkpt lat="47.53986" lon="1.7081636">
        <ele>142.0</ele>
        <time>2022-03-31T09:13:47Z</time>
      </trkpt>
      <trkpt lat="47.539875" lon="1.7081753">
        <ele>142.0</ele>
        <time>2022-03-31T09:13:48Z</time>
      </trkpt>
      <trkpt lat="47.539886" lon="1.7081839">
        <ele>142.0</ele>
        <time>2022-03-31T09:13:49Z</time>
      </trkpt>
      <trkpt lat="47.539898" lon="1.7081921">
        <ele>142.0</ele>
        <time>2022-03-31T09:13:50Z</time>
      </trkpt>
      <trkpt lat="47.53991" lon="1.7082028">
        <ele>142.0</ele>
        <time>2022-03-31T09:13:51Z</time>
      </trkpt>
      <trkpt lat="47.53992" lon="1.708216">
        <ele>142.0</ele>
        <time>2022-03-31T09:13:52Z</time>
      </trkpt>
      <trkpt lat="47.539932" lon="1.7082297">
        <ele>142.0</ele>
        <time>2022-03-31T09:13:53Z</time>
      </trkpt>
      <trkpt lat="47.539944" lon="1.7082379">
        <ele>142.0</ele>
        <time>2022-03-31T09:13:54Z</time>
      </trkpt>
      <trkpt lat="47.539955" lon="1.7082446">
        <ele>142.0</ele>
        <time>2022-03-31T09:13:55Z</time>
      </trkpt>
      <trkpt lat="47.539963" lon="1.7082533">
        <ele>142.0</ele>
        <time>2022-03-31T09:13:56Z</time>
      </trkpt>
      <trkpt lat="47.539978" lon="1.7082592">
        <ele>142.0</ele>
        <time>2022-03-31T09:13:57Z</time>
      </trkpt>
      <trkpt lat="47.53999" lon="1.7082658">
        <ele>142.0</ele>
        <time>2022-03-31T09:13:58Z</time>
      </trkpt>
      <trkpt lat="47.539997" lon="1.7082707">
        <ele>143.0</ele>
        <time>2022-03-31T09:13:59Z</time>
      </trkpt>
      <trkpt lat="47.54001" lon="1.7082753">
        <ele>143.0</ele>
        <time>2022-03-31T09:14:00Z</time>
      </trkpt>
      <trkpt lat="47.54002" lon="1.7082837">
        <ele>143.0</ele>
        <time>2022-03-31T09:14:01Z</time>
      </trkpt>
      <trkpt lat="47.54003" lon="1.7082939">
        <ele>142.0</ele>
        <time>2022-03-31T09:14:02Z</time>
      </trkpt>
      <trkpt lat="47.54004" lon="1.708303">
        <ele>142.0</ele>
        <time>2022-03-31T09:14:03Z</time>
      </trkpt>
      <trkpt lat="47.540054" lon="1.7083071">
        <ele>142.0</ele>
        <time>2022-03-31T09:14:04Z</time>
      </trkpt>
      <trkpt lat="47.540066" lon="1.7083144">
        <ele>142.0</ele>
        <time>2022-03-31T09:14:05Z</time>
      </trkpt>
      <trkpt lat="47.540077" lon="1.708321">
        <ele>142.0</ele>
        <time>2022-03-31T09:14:06Z</time>
      </trkpt>
      <trkpt lat="47.540092" lon="1.7083219">
        <ele>142.0</ele>
        <time>2022-03-31T09:14:07Z</time>
      </trkpt>
      <trkpt lat="47.540108" lon="1.7083251">
        <ele>142.0</ele>
        <time>2022-03-31T09:14:08Z</time>
      </trkpt>
      <trkpt lat="47.540115" lon="1.7083293">
        <ele>142.0</ele>
        <time>2022-03-31T09:14:09Z</time>
      </trkpt>
      <trkpt lat="47.540127" lon="1.7083355">
        <ele>142.0</ele>
        <time>2022-03-31T09:14:10Z</time>
      </trkpt>
      <trkpt lat="47.54014" lon="1.7083452">
        <ele>142.0</ele>
        <time>2022-03-31T09:14:11Z</time>
      </trkpt>
      <trkpt lat="47.540154" lon="1.7083539">
        <ele>143.0</ele>
        <time>2022-03-31T09:14:12Z</time>
      </trkpt>
      <trkpt lat="47.540165" lon="1.7083638">
        <ele>143.0</ele>
        <time>2022-03-31T09:14:13Z</time>
      </trkpt>
      <trkpt lat="47.540176" lon="1.7083745">
        <ele>143.0</ele>
        <time>2022-03-31T09:14:14Z</time>
      </trkpt>
      <trkpt lat="47.540188" lon="1.7083855">
        <ele>144.0</ele>
        <time>2022-03-31T09:14:15Z</time>
      </trkpt>
      <trkpt lat="47.5402" lon="1.7083955">
        <ele>144.0</ele>
        <time>2022-03-31T09:14:16Z</time>
      </trkpt>
      <trkpt lat="47.54021" lon="1.7084072">
        <ele>143.0</ele>
        <time>2022-03-31T09:14:17Z</time>
      </trkpt>
      <trkpt lat="47.540222" lon="1.7084172">
        <ele>144.0</ele>
        <time>2022-03-31T09:14:18Z</time>
      </trkpt>
      <trkpt lat="47.540234" lon="1.7084255">
        <ele>144.0</ele>
        <time>2022-03-31T09:14:19Z</time>
      </trkpt>
      <trkpt lat="47.540245" lon="1.7084403">
        <ele>144.0</ele>
        <time>2022-03-31T09:14:20Z</time>
      </trkpt>
      <trkpt lat="47.540257" lon="1.7084523">
        <ele>144.0</ele>
        <time>2022-03-31T09:14:21Z</time>
      </trkpt>
      <trkpt lat="47.540268" lon="1.7084576">
        <ele>144.0</ele>
        <time>2022-03-31T09:14:22Z</time>
      </trkpt>
      <trkpt lat="47.540276" lon="1.7084693">
        <ele>143.0</ele>
        <time>2022-03-31T09:14:23Z</time>
      </trkpt>
      <trkpt lat="47.540287" lon="1.7084743">
        <ele>143.0</ele>
        <time>2022-03-31T09:14:24Z</time>
      </trkpt>
      <trkpt lat="47.540295" lon="1.7084827">
        <ele>143.0</ele>
        <time>2022-03-31T09:14:25Z</time>
      </trkpt>
      <trkpt lat="47.54031" lon="1.7084887">
        <ele>144.0</ele>
        <time>2022-03-31T09:14:26Z</time>
      </trkpt>
      <trkpt lat="47.54032" lon="1.7084928">
        <ele>144.0</ele>
        <time>2022-03-31T09:14:27Z</time>
      </trkpt>
      <trkpt lat="47.540333" lon="1.7084978">
        <ele>144.0</ele>
        <time>2022-03-31T09:14:28Z</time>
      </trkpt>
      <trkpt lat="47.540344" lon="1.7085036">
        <ele>144.0</ele>
        <time>2022-03-31T09:14:29Z</time>
      </trkpt>
      <trkpt lat="47.540356" lon="1.7085159">
        <ele>144.0</ele>
        <time>2022-03-31T09:14:30Z</time>
      </trkpt>
      <trkpt lat="47.54037" lon="1.708525">
        <ele>144.0</ele>
        <time>2022-03-31T09:14:31Z</time>
      </trkpt>
      <trkpt lat="47.54038" lon="1.7085344">
        <ele>144.0</ele>
        <time>2022-03-31T09:14:32Z</time>
      </trkpt>
      <trkpt lat="47.540394" lon="1.7085481">
        <ele>145.0</ele>
        <time>2022-03-31T09:14:33Z</time>
      </trkpt>
      <trkpt lat="47.540405" lon="1.7085557">
        <ele>144.0</ele>
        <time>2022-03-31T09:14:34Z</time>
      </trkpt>
      <trkpt lat="47.540413" lon="1.7085681">
        <ele>145.0</ele>
        <time>2022-03-31T09:14:35Z</time>
      </trkpt>
      <trkpt lat="47.540424" lon="1.7085773">
        <ele>145.0</ele>
        <time>2022-03-31T09:14:36Z</time>
      </trkpt>
      <trkpt lat="47.540436" lon="1.7085831">
        <ele>145.0</ele>
        <time>2022-03-31T09:14:37Z</time>
      </trkpt>
      <trkpt lat="47.54045" lon="1.7085899">
        <ele>145.0</ele>
        <time>2022-03-31T09:14:38Z</time>
      </trkpt>
      <trkpt lat="47.54046" lon="1.7085987">
        <ele>145.0</ele>
        <time>2022-03-31T09:14:39Z</time>
      </trkpt>
      <trkpt lat="47.540474" lon="1.708602">
        <ele>145.0</ele>
        <time>2022-03-31T09:14:40Z</time>
      </trkpt>
      <trkpt lat="47.54048" lon="1.7086139">
        <ele>145.0</ele>
        <time>2022-03-31T09:14:41Z</time>
      </trkpt>
      <trkpt lat="47.54049" lon="1.7086269">
        <ele>145.0</ele>
        <time>2022-03-31T09:14:42Z</time>
      </trkpt>
      <trkpt lat="47.5405" lon="1.7086383">
        <ele>145.0</ele>
        <time>2022-03-31T09:14:43Z</time>
      </trkpt>
      <trkpt lat="47.54051" lon="1.7086489">
        <ele>145.0</ele>
        <time>2022-03-31T09:14:44Z</time>
      </trkpt>
      <trkpt lat="47.54052" lon="1.7086581">
        <ele>145.0</ele>
        <time>2022-03-31T09:14:45Z</time>
      </trkpt>
      <trkpt lat="47.540527" lon="1.7086681">
        <ele>145.0</ele>
        <time>2022-03-31T09:14:46Z</time>
      </trkpt>
      <trkpt lat="47.54054" lon="1.7086722">
        <ele>145.0</ele>
        <time>2022-03-31T09:14:47Z</time>
      </trkpt>
      <trkpt lat="47.540554" lon="1.7086806">
        <ele>145.0</ele>
        <time>2022-03-31T09:14:48Z</time>
      </trkpt>
      <trkpt lat="47.540565" lon="1.7086893">
        <ele>146.0</ele>
        <time>2022-03-31T09:14:49Z</time>
      </trkpt>
      <trkpt lat="47.540577" lon="1.7086989">
        <ele>146.0</ele>
        <time>2022-03-31T09:14:50Z</time>
      </trkpt>
      <trkpt lat="47.540585" lon="1.7087071">
        <ele>146.0</ele>
        <time>2022-03-31T09:14:51Z</time>
      </trkpt>
      <trkpt lat="47.5406" lon="1.7087218">
        <ele>146.0</ele>
        <time>2022-03-31T09:14:52Z</time>
      </trkpt>
      <trkpt lat="47.54061" lon="1.7087251">
        <ele>146.0</ele>
        <time>2022-03-31T09:14:53Z</time>
      </trkpt>
      <trkpt lat="47.540623" lon="1.708733">
        <ele>146.0</ele>
        <time>2022-03-31T09:14:54Z</time>
      </trkpt>
      <trkpt lat="47.54063" lon="1.7087451">
        <ele>145.0</ele>
        <time>2022-03-31T09:14:55Z</time>
      </trkpt>
      <trkpt lat="47.540638" lon="1.7087569">
        <ele>145.0</ele>
        <time>2022-03-31T09:14:56Z</time>
      </trkpt>
      <trkpt lat="47.540653" lon="1.7087692">
        <ele>145.0</ele>
        <time>2022-03-31T09:14:57Z</time>
      </trkpt>
      <trkpt lat="47.540665" lon="1.7087778">
        <ele>145.0</ele>
        <time>2022-03-31T09:14:58Z</time>
      </trkpt>
      <trkpt lat="47.540676" lon="1.7087861">
        <ele>146.0</ele>
        <time>2022-03-31T09:14:59Z</time>
      </trkpt>
      <trkpt lat="47.540684" lon="1.7087963">
        <ele>146.0</ele>
        <time>2022-03-31T09:15:00Z</time>
      </trkpt>
      <trkpt lat="47.54069" lon="1.708809">
        <ele>146.0</ele>
        <time>2022-03-31T09:15:01Z</time>
      </trkpt>
      <trkpt lat="47.540703" lon="1.7088162">
        <ele>146.0</ele>
        <time>2022-03-31T09:15:02Z</time>
      </trkpt>
      <trkpt lat="47.540718" lon="1.7088217">
        <ele>146.0</ele>
        <time>2022-03-31T09:15:03Z</time>
      </trkpt>
      <trkpt lat="47.54073" lon="1.7088313">
        <ele>146.0</ele>
        <time>2022-03-31T09:15:04Z</time>
      </trkpt>
      <trkpt lat="47.54074" lon="1.7088455">
        <ele>146.0</ele>
        <time>2022-03-31T09:15:05Z</time>
      </trkpt>
      <trkpt lat="47.54075" lon="1.7088537">
        <ele>146.0</ele>
        <time>2022-03-31T09:15:06Z</time>
      </trkpt>
      <trkpt lat="47.54076" lon="1.7088631">
        <ele>146.0</ele>
        <time>2022-03-31T09:15:07Z</time>
      </trkpt>
      <trkpt lat="47.540768" lon="1.7088745">
        <ele>146.0</ele>
        <time>2022-03-31T09:15:08Z</time>
      </trkpt>
      <trkpt lat="47.540775" lon="1.7088823">
        <ele>146.0</ele>
        <time>2022-03-31T09:15:09Z</time>
      </trkpt>
      <trkpt lat="47.54079" lon="1.7088864">
        <ele>146.0</ele>
        <time>2022-03-31T09:15:10Z</time>
      </trkpt>
      <trkpt lat="47.540802" lon="1.7088926">
        <ele>147.0</ele>
        <time>2022-03-31T09:15:11Z</time>
      </trkpt>
      <trkpt lat="47.540817" lon="1.7088984">
        <ele>147.0</ele>
        <time>2022-03-31T09:15:12Z</time>
      </trkpt>
      <trkpt lat="47.540833" lon="1.7089064">
        <ele>147.0</ele>
        <time>2022-03-31T09:15:13Z</time>
      </trkpt>
      <trkpt lat="47.540844" lon="1.7089165">
        <ele>147.0</ele>
        <time>2022-03-31T09:15:14Z</time>
      </trkpt>
      <trkpt lat="47.540855" lon="1.7089266">
        <ele>146.0</ele>
        <time>2022-03-31T09:15:15Z</time>
      </trkpt>
      <trkpt lat="47.540867" lon="1.7089345">
        <ele>146.0</ele>
        <time>2022-03-31T09:15:16Z</time>
      </trkpt>
      <trkpt lat="47.540874" lon="1.7089436">
        <ele>146.0</ele>
        <time>2022-03-31T09:15:17Z</time>
      </trkpt>
      <trkpt lat="47.54089" lon="1.7089487">
        <ele>146.0</ele>
        <time>2022-03-31T09:15:18Z</time>
      </trkpt>
      <trkpt lat="47.540897" lon="1.7089528">
        <ele>145.0</ele>
        <time>2022-03-31T09:15:19Z</time>
      </trkpt>
      <trkpt lat="47.540905" lon="1.7089603">
        <ele>145.0</ele>
        <time>2022-03-31T09:15:20Z</time>
      </trkpt>
      <trkpt lat="47.540913" lon="1.7089685">
        <ele>145.0</ele>
        <time>2022-03-31T09:15:21Z</time>
      </trkpt>
      <trkpt lat="47.540924" lon="1.7089772">
        <ele>145.0</ele>
        <time>2022-03-31T09:15:22Z</time>
      </trkpt>
      <trkpt lat="47.540936" lon="1.7089863">
        <ele>145.0</ele>
        <time>2022-03-31T09:15:23Z</time>
      </trkpt>
      <trkpt lat="47.54095" lon="1.7089947">
        <ele>145.0</ele>
        <time>2022-03-31T09:15:24Z</time>
      </trkpt>
      <trkpt lat="47.54096" lon="1.7090018">
        <ele>145.0</ele>
        <time>2022-03-31T09:15:25Z</time>
      </trkpt>
      <trkpt lat="47.54097" lon="1.7090116">
        <ele>146.0</ele>
        <time>2022-03-31T09:15:26Z</time>
      </trkpt>
      <trkpt lat="47.54098" lon="1.7090175">
        <ele>146.0</ele>
        <time>2022-03-31T09:15:27Z</time>
      </trkpt>
      <trkpt lat="47.540993" lon="1.7090236">
        <ele>146.0</ele>
        <time>2022-03-31T09:15:28Z</time>
      </trkpt>
      <trkpt lat="47.541004" lon="1.7090291">
        <ele>146.0</ele>
        <time>2022-03-31T09:15:29Z</time>
      </trkpt>
      <trkpt lat="47.54102" lon="1.7090354">
        <ele>146.0</ele>
        <time>2022-03-31T09:15:30Z</time>
      </trkpt>
      <trkpt lat="47.541035" lon="1.7090397">
        <ele>146.0</ele>
        <time>2022-03-31T09:15:31Z</time>
      </trkpt>
      <trkpt lat="47.541046" lon="1.7090495">
        <ele>147.0</ele>
        <time>2022-03-31T09:15:32Z</time>
      </trkpt>
      <trkpt lat="47.541054" lon="1.7090641">
        <ele>148.0</ele>
        <time>2022-03-31T09:15:33Z</time>
      </trkpt>
      <trkpt lat="47.541065" lon="1.7090745">
        <ele>147.0</ele>
        <time>2022-03-31T09:15:34Z</time>
      </trkpt>
      <trkpt lat="47.541077" lon="1.7090851">
        <ele>147.0</ele>
        <time>2022-03-31T09:15:35Z</time>
      </trkpt>
      <trkpt lat="47.541084" lon="1.7090962">
        <ele>147.0</ele>
        <time>2022-03-31T09:15:36Z</time>
      </trkpt>
      <trkpt lat="47.541092" lon="1.7091099">
        <ele>147.0</ele>
        <time>2022-03-31T09:15:37Z</time>
      </trkpt>
      <trkpt lat="47.541107" lon="1.7091187">
        <ele>147.0</ele>
        <time>2022-03-31T09:15:38Z</time>
      </trkpt>
      <trkpt lat="47.54112" lon="1.7091297">
        <ele>147.0</ele>
        <time>2022-03-31T09:15:39Z</time>
      </trkpt>
      <trkpt lat="47.54113" lon="1.70914">
        <ele>147.0</ele>
        <time>2022-03-31T09:15:40Z</time>
      </trkpt>
      <trkpt lat="47.54114" lon="1.7091485">
        <ele>147.0</ele>
        <time>2022-03-31T09:15:41Z</time>
      </trkpt>
      <trkpt lat="47.541153" lon="1.7091594">
        <ele>147.0</ele>
        <time>2022-03-31T09:15:42Z</time>
      </trkpt>
      <trkpt lat="47.541164" lon="1.7091691">
        <ele>147.0</ele>
        <time>2022-03-31T09:15:43Z</time>
      </trkpt>
      <trkpt lat="47.541176" lon="1.7091793">
        <ele>147.0</ele>
        <time>2022-03-31T09:15:44Z</time>
      </trkpt>
      <trkpt lat="47.54119" lon="1.70919">
        <ele>147.0</ele>
        <time>2022-03-31T09:15:45Z</time>
      </trkpt>
      <trkpt lat="47.5412" lon="1.7092">
        <ele>147.0</ele>
        <time>2022-03-31T09:15:46Z</time>
      </trkpt>
      <trkpt lat="47.541214" lon="1.7092053">
        <ele>147.0</ele>
        <time>2022-03-31T09:15:47Z</time>
      </trkpt>
      <trkpt lat="47.541225" lon="1.7092112">
        <ele>147.0</ele>
        <time>2022-03-31T09:15:48Z</time>
      </trkpt>
      <trkpt lat="47.541237" lon="1.7092184">
        <ele>148.0</ele>
        <time>2022-03-31T09:15:49Z</time>
      </trkpt>
      <trkpt lat="47.541245" lon="1.7092278">
        <ele>148.0</ele>
        <time>2022-03-31T09:15:50Z</time>
      </trkpt>
      <trkpt lat="47.541256" lon="1.7092383">
        <ele>148.0</ele>
        <time>2022-03-31T09:15:51Z</time>
      </trkpt>
      <trkpt lat="47.541267" lon="1.7092466">
        <ele>147.0</ele>
        <time>2022-03-31T09:15:52Z</time>
      </trkpt>
      <trkpt lat="47.54128" lon="1.7092563">
        <ele>147.0</ele>
        <time>2022-03-31T09:15:53Z</time>
      </trkpt>
      <trkpt lat="47.541286" lon="1.7092662">
        <ele>147.0</ele>
        <time>2022-03-31T09:15:54Z</time>
      </trkpt>
      <trkpt lat="47.541294" lon="1.7092761">
        <ele>146.0</ele>
        <time>2022-03-31T09:15:55Z</time>
      </trkpt>
      <trkpt lat="47.5413" lon="1.7092842">
        <ele>146.0</ele>
        <time>2022-03-31T09:15:56Z</time>
      </trkpt>
      <trkpt lat="47.54131" lon="1.7092919">
        <ele>147.0</ele>
        <time>2022-03-31T09:15:57Z</time>
      </trkpt>
      <trkpt lat="47.541317" lon="1.7092992">
        <ele>147.0</ele>
        <time>2022-03-31T09:15:58Z</time>
      </trkpt>
      <trkpt lat="47.54133" lon="1.7093053">
        <ele>147.0</ele>
        <time>2022-03-31T09:15:59Z</time>
      </trkpt>
      <trkpt lat="47.54134" lon="1.7093079">
        <ele>147.0</ele>
        <time>2022-03-31T09:16:00Z</time>
      </trkpt>
      <trkpt lat="47.54135" lon="1.7093117">
        <ele>147.0</ele>
        <time>2022-03-31T09:16:01Z</time>
      </trkpt>
      <trkpt lat="47.541367" lon="1.7093229">
        <ele>146.0</ele>
        <time>2022-03-31T09:16:02Z</time>
      </trkpt>
      <trkpt lat="47.541378" lon="1.709332">
        <ele>146.0</ele>
        <time>2022-03-31T09:16:03Z</time>
      </trkpt>
      <trkpt lat="47.541393" lon="1.709336">
        <ele>146.0</ele>
        <time>2022-03-31T09:16:04Z</time>
      </trkpt>
      <trkpt lat="47.541405" lon="1.7093419">
        <ele>145.0</ele>
        <time>2022-03-31T09:16:05Z</time>
      </trkpt>
      <trkpt lat="47.541416" lon="1.709348">
        <ele>145.0</ele>
        <time>2022-03-31T09:16:06Z</time>
      </trkpt>
      <trkpt lat="47.541424" lon="1.7093568">
        <ele>145.0</ele>
        <time>2022-03-31T09:16:07Z</time>
      </trkpt>
      <trkpt lat="47.541435" lon="1.7093686">
        <ele>145.0</ele>
        <time>2022-03-31T09:16:08Z</time>
      </trkpt>
      <trkpt lat="47.541443" lon="1.7093832">
        <ele>145.0</ele>
        <time>2022-03-31T09:16:09Z</time>
      </trkpt>
      <trkpt lat="47.54146" lon="1.709396">
        <ele>145.0</ele>
        <time>2022-03-31T09:16:10Z</time>
      </trkpt>
      <trkpt lat="47.54147" lon="1.7094026">
        <ele>146.0</ele>
        <time>2022-03-31T09:16:11Z</time>
      </trkpt>
      <trkpt lat="47.54148" lon="1.7094102">
        <ele>146.0</ele>
        <time>2022-03-31T09:16:12Z</time>
      </trkpt>
      <trkpt lat="47.541496" lon="1.7094196">
        <ele>145.0</ele>
        <time>2022-03-31T09:16:13Z</time>
      </trkpt>
      <trkpt lat="47.541508" lon="1.7094303">
        <ele>145.0</ele>
        <time>2022-03-31T09:16:14Z</time>
      </trkpt>
      <trkpt lat="47.54152" lon="1.7094421">
        <ele>144.0</ele>
        <time>2022-03-31T09:16:15Z</time>
      </trkpt>
      <trkpt lat="47.54153" lon="1.7094553">
        <ele>144.0</ele>
        <time>2022-03-31T09:16:16Z</time>
      </trkpt>
      <trkpt lat="47.54154" lon="1.7094651">
        <ele>144.0</ele>
        <time>2022-03-31T09:16:17Z</time>
      </trkpt>
      <trkpt lat="47.541546" lon="1.709471">
        <ele>144.0</ele>
        <time>2022-03-31T09:16:18Z</time>
      </trkpt>
      <trkpt lat="47.541553" lon="1.7094792">
        <ele>144.0</ele>
        <time>2022-03-31T09:16:19Z</time>
      </trkpt>
      <trkpt lat="47.541565" lon="1.7094963">
        <ele>144.0</ele>
        <time>2022-03-31T09:16:20Z</time>
      </trkpt>
      <trkpt lat="47.541573" lon="1.7095091">
        <ele>144.0</ele>
        <time>2022-03-31T09:16:21Z</time>
      </trkpt>
      <trkpt lat="47.54158" lon="1.7095174">
        <ele>144.0</ele>
        <time>2022-03-31T09:16:22Z</time>
      </trkpt>
      <trkpt lat="47.54159" lon="1.7095287">
        <ele>144.0</ele>
        <time>2022-03-31T09:16:23Z</time>
      </trkpt>
      <trkpt lat="47.5416" lon="1.7095375">
        <ele>144.0</ele>
        <time>2022-03-31T09:16:24Z</time>
      </trkpt>
      <trkpt lat="47.541607" lon="1.7095467">
        <ele>143.0</ele>
        <time>2022-03-31T09:16:25Z</time>
      </trkpt>
      <trkpt lat="47.541615" lon="1.7095588">
        <ele>143.0</ele>
        <time>2022-03-31T09:16:26Z</time>
      </trkpt>
      <trkpt lat="47.541622" lon="1.7095693">
        <ele>143.0</ele>
        <time>2022-03-31T09:16:27Z</time>
      </trkpt>
      <trkpt lat="47.541634" lon="1.7095847">
        <ele>143.0</ele>
        <time>2022-03-31T09:16:28Z</time>
      </trkpt>
      <trkpt lat="47.54164" lon="1.7096014">
        <ele>143.0</ele>
        <time>2022-03-31T09:16:29Z</time>
      </trkpt>
      <trkpt lat="47.54165" lon="1.7096097">
        <ele>143.0</ele>
        <time>2022-03-31T09:16:30Z</time>
      </trkpt>
      <trkpt lat="47.54166" lon="1.7096224">
        <ele>143.0</ele>
        <time>2022-03-31T09:16:31Z</time>
      </trkpt>
      <trkpt lat="47.54167" lon="1.7096301">
        <ele>143.0</ele>
        <time>2022-03-31T09:16:32Z</time>
      </trkpt>
      <trkpt lat="47.54168" lon="1.7096379">
        <ele>143.0</ele>
        <time>2022-03-31T09:16:33Z</time>
      </trkpt>
      <trkpt lat="47.54169" lon="1.7096487">
        <ele>143.0</ele>
        <time>2022-03-31T09:16:34Z</time>
      </trkpt>
      <trkpt lat="47.5417" lon="1.7096585">
        <ele>143.0</ele>
        <time>2022-03-31T09:16:35Z</time>
      </trkpt>
      <trkpt lat="47.54171" lon="1.709667">
        <ele>143.0</ele>
        <time>2022-03-31T09:16:36Z</time>
      </trkpt>
      <trkpt lat="47.54172" lon="1.7096758">
        <ele>143.0</ele>
        <time>2022-03-31T09:16:37Z</time>
      </trkpt>
      <trkpt lat="47.541733" lon="1.7096788">
        <ele>143.0</ele>
        <time>2022-03-31T09:16:38Z</time>
      </trkpt>
      <trkpt lat="47.54174" lon="1.7096882">
        <ele>143.0</ele>
        <time>2022-03-31T09:16:39Z</time>
      </trkpt>
      <trkpt lat="47.54175" lon="1.7096953">
        <ele>143.0</ele>
        <time>2022-03-31T09:16:40Z</time>
      </trkpt>
      <trkpt lat="47.54176" lon="1.7097045">
        <ele>143.0</ele>
        <time>2022-03-31T09:16:41Z</time>
      </trkpt>
      <trkpt lat="47.54177" lon="1.7097111">
        <ele>144.0</ele>
        <time>2022-03-31T09:16:42Z</time>
      </trkpt>
      <trkpt lat="47.541782" lon="1.7097176">
        <ele>144.0</ele>
        <time>2022-03-31T09:16:43Z</time>
      </trkpt>
      <trkpt lat="47.541794" lon="1.7097251">
        <ele>144.0</ele>
        <time>2022-03-31T09:16:44Z</time>
      </trkpt>
      <trkpt lat="47.54181" lon="1.7097313">
        <ele>144.0</ele>
        <time>2022-03-31T09:16:45Z</time>
      </trkpt>
      <trkpt lat="47.54182" lon="1.7097387">
        <ele>144.0</ele>
        <time>2022-03-31T09:16:46Z</time>
      </trkpt>
      <trkpt lat="47.541832" lon="1.709748">
        <ele>144.0</ele>
        <time>2022-03-31T09:16:47Z</time>
      </trkpt>
      <trkpt lat="47.541843" lon="1.7097557">
        <ele>144.0</ele>
        <time>2022-03-31T09:16:48Z</time>
      </trkpt>
      <trkpt lat="47.54185" lon="1.7097615">
        <ele>143.0</ele>
        <time>2022-03-31T09:16:49Z</time>
      </trkpt>
      <trkpt lat="47.541862" lon="1.7097696">
        <ele>143.0</ele>
        <time>2022-03-31T09:16:50Z</time>
      </trkpt>
      <trkpt lat="47.541874" lon="1.7097799">
        <ele>144.0</ele>
        <time>2022-03-31T09:16:51Z</time>
      </trkpt>
      <trkpt lat="47.54189" lon="1.7097903">
        <ele>144.0</ele>
        <time>2022-03-31T09:16:52Z</time>
      </trkpt>
      <trkpt lat="47.5419" lon="1.709801">
        <ele>143.0</ele>
        <time>2022-03-31T09:16:53Z</time>
      </trkpt>
      <trkpt lat="47.541916" lon="1.7098056">
        <ele>143.0</ele>
        <time>2022-03-31T09:16:54Z</time>
      </trkpt>
      <trkpt lat="47.541927" lon="1.7098144">
        <ele>143.0</ele>
        <time>2022-03-31T09:16:55Z</time>
      </trkpt>
      <trkpt lat="47.54194" lon="1.7098256">
        <ele>143.0</ele>
        <time>2022-03-31T09:16:56Z</time>
      </trkpt>
      <trkpt lat="47.54195" lon="1.7098366">
        <ele>143.0</ele>
        <time>2022-03-31T09:16:57Z</time>
      </trkpt>
      <trkpt lat="47.541965" lon="1.709846">
        <ele>144.0</ele>
        <time>2022-03-31T09:16:58Z</time>
      </trkpt>
      <trkpt lat="47.541977" lon="1.7098581">
        <ele>143.0</ele>
        <time>2022-03-31T09:16:59Z</time>
      </trkpt>
      <trkpt lat="47.54199" lon="1.7098646">
        <ele>143.0</ele>
        <time>2022-03-31T09:17:00Z</time>
      </trkpt>
      <trkpt lat="47.541996" lon="1.7098774">
        <ele>143.0</ele>
        <time>2022-03-31T09:17:01Z</time>
      </trkpt>
      <trkpt lat="47.542007" lon="1.7098883">
        <ele>143.0</ele>
        <time>2022-03-31T09:17:02Z</time>
      </trkpt>
      <trkpt lat="47.54202" lon="1.7098969">
        <ele>143.0</ele>
        <time>2022-03-31T09:17:03Z</time>
      </trkpt>
      <trkpt lat="47.542027" lon="1.709904">
        <ele>143.0</ele>
        <time>2022-03-31T09:17:04Z</time>
      </trkpt>
      <trkpt lat="47.542038" lon="1.7099078">
        <ele>143.0</ele>
        <time>2022-03-31T09:17:05Z</time>
      </trkpt>
      <trkpt lat="47.54205" lon="1.7099144">
        <ele>143.0</ele>
        <time>2022-03-31T09:17:06Z</time>
      </trkpt>
      <trkpt lat="47.54206" lon="1.7099181">
        <ele>143.0</ele>
        <time>2022-03-31T09:17:07Z</time>
      </trkpt>
      <trkpt lat="47.54207" lon="1.709922">
        <ele>143.0</ele>
        <time>2022-03-31T09:17:08Z</time>
      </trkpt>
      <trkpt lat="47.54208" lon="1.7099315">
        <ele>142.0</ele>
        <time>2022-03-31T09:17:09Z</time>
      </trkpt>
      <trkpt lat="47.542088" lon="1.70994">
        <ele>143.0</ele>
        <time>2022-03-31T09:17:10Z</time>
      </trkpt>
      <trkpt lat="47.542095" lon="1.7099495">
        <ele>142.0</ele>
        <time>2022-03-31T09:17:11Z</time>
      </trkpt>
      <trkpt lat="47.542107" lon="1.7099597">
        <ele>142.0</ele>
        <time>2022-03-31T09:17:12Z</time>
      </trkpt>
      <trkpt lat="47.542114" lon="1.7099704">
        <ele>142.0</ele>
        <time>2022-03-31T09:17:13Z</time>
      </trkpt>
      <trkpt lat="47.542126" lon="1.7099789">
        <ele>142.0</ele>
        <time>2022-03-31T09:17:14Z</time>
      </trkpt>
      <trkpt lat="47.542137" lon="1.7099863">
        <ele>142.0</ele>
        <time>2022-03-31T09:17:15Z</time>
      </trkpt>
      <trkpt lat="47.54215" lon="1.7099961">
        <ele>142.0</ele>
        <time>2022-03-31T09:17:16Z</time>
      </trkpt>
      <trkpt lat="47.54216" lon="1.7100055">
        <ele>142.0</ele>
        <time>2022-03-31T09:17:17Z</time>
      </trkpt>
      <trkpt lat="47.542168" lon="1.7100117">
        <ele>142.0</ele>
        <time>2022-03-31T09:17:18Z</time>
      </trkpt>
      <trkpt lat="47.54218" lon="1.7100202">
        <ele>142.0</ele>
        <time>2022-03-31T09:17:19Z</time>
      </trkpt>
      <trkpt lat="47.542194" lon="1.7100273">
        <ele>142.0</ele>
        <time>2022-03-31T09:17:20Z</time>
      </trkpt>
      <trkpt lat="47.54221" lon="1.7100348">
        <ele>142.0</ele>
        <time>2022-03-31T09:17:21Z</time>
      </trkpt>
      <trkpt lat="47.54222" lon="1.710041">
        <ele>143.0</ele>
        <time>2022-03-31T09:17:22Z</time>
      </trkpt>
      <trkpt lat="47.54223" lon="1.71005">
        <ele>142.0</ele>
        <time>2022-03-31T09:17:23Z</time>
      </trkpt>
      <trkpt lat="47.54224" lon="1.7100579">
        <ele>142.0</ele>
        <time>2022-03-31T09:17:24Z</time>
      </trkpt>
      <trkpt lat="47.54225" lon="1.7100631">
        <ele>142.0</ele>
        <time>2022-03-31T09:17:25Z</time>
      </trkpt>
      <trkpt lat="47.54226" lon="1.7100749">
        <ele>142.0</ele>
        <time>2022-03-31T09:17:26Z</time>
      </trkpt>
      <trkpt lat="47.54227" lon="1.7100847">
        <ele>143.0</ele>
        <time>2022-03-31T09:17:27Z</time>
      </trkpt>
      <trkpt lat="47.54228" lon="1.7101016">
        <ele>143.0</ele>
        <time>2022-03-31T09:17:28Z</time>
      </trkpt>
      <trkpt lat="47.542286" lon="1.7101136">
        <ele>143.0</ele>
        <time>2022-03-31T09:17:29Z</time>
      </trkpt>
      <trkpt lat="47.5423" lon="1.7101227">
        <ele>143.0</ele>
        <time>2022-03-31T09:17:30Z</time>
      </trkpt>
      <trkpt lat="47.542313" lon="1.7101359">
        <ele>143.0</ele>
        <time>2022-03-31T09:17:31Z</time>
      </trkpt>
      <trkpt lat="47.542324" lon="1.7101475">
        <ele>143.0</ele>
        <time>2022-03-31T09:17:32Z</time>
      </trkpt>
      <trkpt lat="47.542328" lon="1.7101542">
        <ele>143.0</ele>
        <time>2022-03-31T09:17:33Z</time>
      </trkpt>
      <trkpt lat="47.542336" lon="1.7101632">
        <ele>143.0</ele>
        <time>2022-03-31T09:17:34Z</time>
      </trkpt>
      <trkpt lat="47.542343" lon="1.7101696">
        <ele>143.0</ele>
        <time>2022-03-31T09:17:35Z</time>
      </trkpt>
      <trkpt lat="47.542355" lon="1.7101749">
        <ele>143.0</ele>
        <time>2022-03-31T09:17:36Z</time>
      </trkpt>
      <trkpt lat="47.54237" lon="1.7101824">
        <ele>144.0</ele>
        <time>2022-03-31T09:17:37Z</time>
      </trkpt>
      <trkpt lat="47.54238" lon="1.7101933">
        <ele>145.0</ele>
        <time>2022-03-31T09:17:38Z</time>
      </trkpt>
      <trkpt lat="47.542397" lon="1.7102063">
        <ele>145.0</ele>
        <time>2022-03-31T09:17:39Z</time>
      </trkpt>
      <trkpt lat="47.542408" lon="1.710218">
        <ele>146.0</ele>
        <time>2022-03-31T09:17:40Z</time>
      </trkpt>
      <trkpt lat="47.54242" lon="1.7102318">
        <ele>146.0</ele>
        <time>2022-03-31T09:17:41Z</time>
      </trkpt>
      <trkpt lat="47.542435" lon="1.7102429">
        <ele>146.0</ele>
        <time>2022-03-31T09:17:42Z</time>
      </trkpt>
      <trkpt lat="47.54245" lon="1.7102486">
        <ele>146.0</ele>
        <time>2022-03-31T09:17:43Z</time>
      </trkpt>
      <trkpt lat="47.542465" lon="1.7102578">
        <ele>146.0</ele>
        <time>2022-03-31T09:17:44Z</time>
      </trkpt>
      <trkpt lat="47.542477" lon="1.7102664">
        <ele>146.0</ele>
        <time>2022-03-31T09:17:45Z</time>
      </trkpt>
      <trkpt lat="47.54249" lon="1.7102785">
        <ele>146.0</ele>
        <time>2022-03-31T09:17:46Z</time>
      </trkpt>
      <trkpt lat="47.542503" lon="1.7102865">
        <ele>146.0</ele>
        <time>2022-03-31T09:17:47Z</time>
      </trkpt>
      <trkpt lat="47.54252" lon="1.7102913">
        <ele>146.0</ele>
        <time>2022-03-31T09:17:48Z</time>
      </trkpt>
      <trkpt lat="47.54253" lon="1.710302">
        <ele>146.0</ele>
        <time>2022-03-31T09:17:49Z</time>
      </trkpt>
      <trkpt lat="47.54254" lon="1.7103093">
        <ele>146.0</ele>
        <time>2022-03-31T09:17:50Z</time>
      </trkpt>
      <trkpt lat="47.542553" lon="1.7103206">
        <ele>146.0</ele>
        <time>2022-03-31T09:17:51Z</time>
      </trkpt>
      <trkpt lat="47.54257" lon="1.7103289">
        <ele>147.0</ele>
        <time>2022-03-31T09:17:52Z</time>
      </trkpt>
      <trkpt lat="47.54258" lon="1.7103387">
        <ele>147.0</ele>
        <time>2022-03-31T09:17:53Z</time>
      </trkpt>
      <trkpt lat="47.542595" lon="1.7103497">
        <ele>147.0</ele>
        <time>2022-03-31T09:17:54Z</time>
      </trkpt>
      <trkpt lat="47.542606" lon="1.710361">
        <ele>146.0</ele>
        <time>2022-03-31T09:17:55Z</time>
      </trkpt>
      <trkpt lat="47.542618" lon="1.7103705">
        <ele>146.0</ele>
        <time>2022-03-31T09:17:56Z</time>
      </trkpt>
      <trkpt lat="47.542633" lon="1.7103778">
        <ele>146.0</ele>
        <time>2022-03-31T09:17:57Z</time>
      </trkpt>
      <trkpt lat="47.54265" lon="1.7103806">
        <ele>146.0</ele>
        <time>2022-03-31T09:17:58Z</time>
      </trkpt>
      <trkpt lat="47.542664" lon="1.7103887">
        <ele>146.0</ele>
        <time>2022-03-31T09:17:59Z</time>
      </trkpt>
      <trkpt lat="47.542675" lon="1.7103931">
        <ele>146.0</ele>
        <time>2022-03-31T09:18:00Z</time>
      </trkpt>
      <trkpt lat="47.542686" lon="1.7103993">
        <ele>146.0</ele>
        <time>2022-03-31T09:18:01Z</time>
      </trkpt>
      <trkpt lat="47.542698" lon="1.7104071">
        <ele>146.0</ele>
        <time>2022-03-31T09:18:02Z</time>
      </trkpt>
      <trkpt lat="47.542713" lon="1.7104135">
        <ele>146.0</ele>
        <time>2022-03-31T09:18:03Z</time>
      </trkpt>
      <trkpt lat="47.54273" lon="1.7104169">
        <ele>146.0</ele>
        <time>2022-03-31T09:18:04Z</time>
      </trkpt>
      <trkpt lat="47.54274" lon="1.7104268">
        <ele>146.0</ele>
        <time>2022-03-31T09:18:05Z</time>
      </trkpt>
      <trkpt lat="47.54275" lon="1.7104366">
        <ele>146.0</ele>
        <time>2022-03-31T09:18:06Z</time>
      </trkpt>
      <trkpt lat="47.542763" lon="1.7104443">
        <ele>146.0</ele>
        <time>2022-03-31T09:18:07Z</time>
      </trkpt>
      <trkpt lat="47.542774" lon="1.7104503">
        <ele>146.0</ele>
        <time>2022-03-31T09:18:08Z</time>
      </trkpt>
      <trkpt lat="47.542786" lon="1.7104589">
        <ele>146.0</ele>
        <time>2022-03-31T09:18:09Z</time>
      </trkpt>
      <trkpt lat="47.542797" lon="1.7104633">
        <ele>145.0</ele>
        <time>2022-03-31T09:18:10Z</time>
      </trkpt>
      <trkpt lat="47.54281" lon="1.7104709">
        <ele>145.0</ele>
        <time>2022-03-31T09:18:11Z</time>
      </trkpt>
      <trkpt lat="47.54282" lon="1.7104772">
        <ele>145.0</ele>
        <time>2022-03-31T09:18:12Z</time>
      </trkpt>
      <trkpt lat="47.54283" lon="1.7104852">
        <ele>146.0</ele>
        <time>2022-03-31T09:18:13Z</time>
      </trkpt>
      <trkpt lat="47.54284" lon="1.7104954">
        <ele>146.0</ele>
        <time>2022-03-31T09:18:14Z</time>
      </trkpt>
      <trkpt lat="47.54285" lon="1.7105038">
        <ele>146.0</ele>
        <time>2022-03-31T09:18:15Z</time>
      </trkpt>
      <trkpt lat="47.54286" lon="1.7105143">
        <ele>146.0</ele>
        <time>2022-03-31T09:18:16Z</time>
      </trkpt>
      <trkpt lat="47.542866" lon="1.7105149">
        <ele>146.0</ele>
        <time>2022-03-31T09:18:17Z</time>
      </trkpt>
      <trkpt lat="47.54287" lon="1.7105124">
        <ele>146.0</ele>
        <time>2022-03-31T09:18:18Z</time>
      </trkpt>
      <trkpt lat="47.542873" lon="1.710517">
        <ele>146.0</ele>
        <time>2022-03-31T09:18:19Z</time>
      </trkpt>
      <trkpt lat="47.542885" lon="1.7105234">
        <ele>146.0</ele>
        <time>2022-03-31T09:18:20Z</time>
      </trkpt>
      <trkpt lat="47.542892" lon="1.710534">
        <ele>146.0</ele>
        <time>2022-03-31T09:18:21Z</time>
      </trkpt>
      <trkpt lat="47.542892" lon="1.7105439">
        <ele>146.0</ele>
        <time>2022-03-31T09:18:22Z</time>
      </trkpt>
      <trkpt lat="47.5429" lon="1.710555">
        <ele>146.0</ele>
        <time>2022-03-31T09:18:23Z</time>
      </trkpt>
      <trkpt lat="47.54291" lon="1.7105702">
        <ele>146.0</ele>
        <time>2022-03-31T09:18:24Z</time>
      </trkpt>
      <trkpt lat="47.542927" lon="1.7105811">
        <ele>147.0</ele>
        <time>2022-03-31T09:18:25Z</time>
      </trkpt>
      <trkpt lat="47.542934" lon="1.7105912">
        <ele>147.0</ele>
        <time>2022-03-31T09:18:26Z</time>
      </trkpt>
      <trkpt lat="47.542946" lon="1.7106022">
        <ele>147.0</ele>
        <time>2022-03-31T09:18:27Z</time>
      </trkpt>
      <trkpt lat="47.542957" lon="1.710607">
        <ele>147.0</ele>
        <time>2022-03-31T09:18:28Z</time>
      </trkpt>
      <trkpt lat="47.542973" lon="1.7106168">
        <ele>147.0</ele>
        <time>2022-03-31T09:18:29Z</time>
      </trkpt>
      <trkpt lat="47.542984" lon="1.7106264">
        <ele>147.0</ele>
        <time>2022-03-31T09:18:30Z</time>
      </trkpt>
      <trkpt lat="47.54299" lon="1.7106324">
        <ele>147.0</ele>
        <time>2022-03-31T09:18:31Z</time>
      </trkpt>
      <trkpt lat="47.543" lon="1.710642">
        <ele>147.0</ele>
        <time>2022-03-31T09:18:32Z</time>
      </trkpt>
      <trkpt lat="47.543015" lon="1.7106507">
        <ele>146.0</ele>
        <time>2022-03-31T09:18:33Z</time>
      </trkpt>
      <trkpt lat="47.543026" lon="1.7106616">
        <ele>147.0</ele>
        <time>2022-03-31T09:18:34Z</time>
      </trkpt>
      <trkpt lat="47.543034" lon="1.7106668">
        <ele>148.0</ele>
        <time>2022-03-31T09:18:35Z</time>
      </trkpt>
      <trkpt lat="47.543045" lon="1.7106746">
        <ele>148.0</ele>
        <time>2022-03-31T09:18:36Z</time>
      </trkpt>
      <trkpt lat="47.543056" lon="1.7106829">
        <ele>148.0</ele>
        <time>2022-03-31T09:18:37Z</time>
      </trkpt>
      <trkpt lat="47.543068" lon="1.7106913">
        <ele>148.0</ele>
        <time>2022-03-31T09:18:38Z</time>
      </trkpt>
      <trkpt lat="47.54308" lon="1.7106973">
        <ele>148.0</ele>
        <time>2022-03-31T09:18:39Z</time>
      </trkpt>
      <trkpt lat="47.54309" lon="1.7107049">
        <ele>148.0</ele>
        <time>2022-03-31T09:18:40Z</time>
      </trkpt>
      <trkpt lat="47.543102" lon="1.710713">
        <ele>148.0</ele>
        <time>2022-03-31T09:18:41Z</time>
      </trkpt>
      <trkpt lat="47.543114" lon="1.7107227">
        <ele>147.0</ele>
        <time>2022-03-31T09:18:42Z</time>
      </trkpt>
      <trkpt lat="47.54312" lon="1.7107306">
        <ele>147.0</ele>
        <time>2022-03-31T09:18:43Z</time>
      </trkpt>
      <trkpt lat="47.54313" lon="1.7107404">
        <ele>148.0</ele>
        <time>2022-03-31T09:18:44Z</time>
      </trkpt>
      <trkpt lat="47.543137" lon="1.7107488">
        <ele>148.0</ele>
        <time>2022-03-31T09:18:45Z</time>
      </trkpt>
      <trkpt lat="47.543148" lon="1.7107582">
        <ele>148.0</ele>
        <time>2022-03-31T09:18:46Z</time>
      </trkpt>
      <trkpt lat="47.543156" lon="1.710763">
        <ele>148.0</ele>
        <time>2022-03-31T09:18:47Z</time>
      </trkpt>
      <trkpt lat="47.543167" lon="1.7107664">
        <ele>148.0</ele>
        <time>2022-03-31T09:18:48Z</time>
      </trkpt>
      <trkpt lat="47.543175" lon="1.7107732">
        <ele>148.0</ele>
        <time>2022-03-31T09:18:49Z</time>
      </trkpt>
      <trkpt lat="47.543186" lon="1.7107828">
        <ele>148.0</ele>
        <time>2022-03-31T09:18:50Z</time>
      </trkpt>
      <trkpt lat="47.543198" lon="1.7107893">
        <ele>148.0</ele>
        <time>2022-03-31T09:18:51Z</time>
      </trkpt>
      <trkpt lat="47.54321" lon="1.7107993">
        <ele>148.0</ele>
        <time>2022-03-31T09:18:52Z</time>
      </trkpt>
      <trkpt lat="47.543217" lon="1.7108116">
        <ele>148.0</ele>
        <time>2022-03-31T09:18:53Z</time>
      </trkpt>
      <trkpt lat="47.54323" lon="1.7108176">
        <ele>148.0</ele>
        <time>2022-03-31T09:18:54Z</time>
      </trkpt>
      <trkpt lat="47.543236" lon="1.7108247">
        <ele>148.0</ele>
        <time>2022-03-31T09:18:55Z</time>
      </trkpt>
      <trkpt lat="47.543247" lon="1.7108308">
        <ele>148.0</ele>
        <time>2022-03-31T09:18:56Z</time>
      </trkpt>
      <trkpt lat="47.54326" lon="1.7108411">
        <ele>148.0</ele>
        <time>2022-03-31T09:18:57Z</time>
      </trkpt>
      <trkpt lat="47.54327" lon="1.710849">
        <ele>148.0</ele>
        <time>2022-03-31T09:18:58Z</time>
      </trkpt>
      <trkpt lat="47.543285" lon="1.7108592">
        <ele>148.0</ele>
        <time>2022-03-31T09:18:59Z</time>
      </trkpt>
      <trkpt lat="47.543297" lon="1.7108694">
        <ele>148.0</ele>
        <time>2022-03-31T09:19:00Z</time>
      </trkpt>
      <trkpt lat="47.54331" lon="1.7108784">
        <ele>149.0</ele>
        <time>2022-03-31T09:19:01Z</time>
      </trkpt>
      <trkpt lat="47.54332" lon="1.7108907">
        <ele>149.0</ele>
        <time>2022-03-31T09:19:02Z</time>
      </trkpt>
      <trkpt lat="47.54333" lon="1.710903">
        <ele>149.0</ele>
        <time>2022-03-31T09:19:03Z</time>
      </trkpt>
      <trkpt lat="47.543343" lon="1.710913">
        <ele>149.0</ele>
        <time>2022-03-31T09:19:04Z</time>
      </trkpt>
      <trkpt lat="47.543358" lon="1.710922">
        <ele>149.0</ele>
        <time>2022-03-31T09:19:05Z</time>
      </trkpt>
      <trkpt lat="47.543365" lon="1.7109296">
        <ele>149.0</ele>
        <time>2022-03-31T09:19:06Z</time>
      </trkpt>
      <trkpt lat="47.543377" lon="1.7109389">
        <ele>149.0</ele>
        <time>2022-03-31T09:19:07Z</time>
      </trkpt>
      <trkpt lat="47.543385" lon="1.7109445">
        <ele>149.0</ele>
        <time>2022-03-31T09:19:08Z</time>
      </trkpt>
      <trkpt lat="47.543392" lon="1.7109524">
        <ele>149.0</ele>
        <time>2022-03-31T09:19:09Z</time>
      </trkpt>
      <trkpt lat="47.543407" lon="1.7109584">
        <ele>149.0</ele>
        <time>2022-03-31T09:19:10Z</time>
      </trkpt>
      <trkpt lat="47.543415" lon="1.7109674">
        <ele>149.0</ele>
        <time>2022-03-31T09:19:11Z</time>
      </trkpt>
      <trkpt lat="47.543427" lon="1.7109749">
        <ele>149.0</ele>
        <time>2022-03-31T09:19:12Z</time>
      </trkpt>
      <trkpt lat="47.543438" lon="1.7109823">
        <ele>149.0</ele>
        <time>2022-03-31T09:19:13Z</time>
      </trkpt>
      <trkpt lat="47.54345" lon="1.7109897">
        <ele>148.0</ele>
        <time>2022-03-31T09:19:14Z</time>
      </trkpt>
      <trkpt lat="47.543465" lon="1.710995">
        <ele>148.0</ele>
        <time>2022-03-31T09:19:15Z</time>
      </trkpt>
      <trkpt lat="47.543472" lon="1.7110019">
        <ele>148.0</ele>
        <time>2022-03-31T09:19:16Z</time>
      </trkpt>
      <trkpt lat="47.543484" lon="1.711009">
        <ele>148.0</ele>
        <time>2022-03-31T09:19:17Z</time>
      </trkpt>
      <trkpt lat="47.54349" lon="1.7110178">
        <ele>148.0</ele>
        <time>2022-03-31T09:19:18Z</time>
      </trkpt>
      <trkpt lat="47.543507" lon="1.7110257">
        <ele>148.0</ele>
        <time>2022-03-31T09:19:19Z</time>
      </trkpt>
      <trkpt lat="47.543518" lon="1.711034">
        <ele>148.0</ele>
        <time>2022-03-31T09:19:20Z</time>
      </trkpt>
      <trkpt lat="47.54353" lon="1.711045">
        <ele>148.0</ele>
        <time>2022-03-31T09:19:21Z</time>
      </trkpt>
      <trkpt lat="47.543545" lon="1.7110522">
        <ele>148.0</ele>
        <time>2022-03-31T09:19:22Z</time>
      </trkpt>
      <trkpt lat="47.543552" lon="1.7110641">
        <ele>148.0</ele>
        <time>2022-03-31T09:19:23Z</time>
      </trkpt>
      <trkpt lat="47.543564" lon="1.7110736">
        <ele>148.0</ele>
        <time>2022-03-31T09:19:24Z</time>
      </trkpt>
      <trkpt lat="47.54358" lon="1.7110834">
        <ele>148.0</ele>
        <time>2022-03-31T09:19:25Z</time>
      </trkpt>
      <trkpt lat="47.543587" lon="1.7110916">
        <ele>148.0</ele>
        <time>2022-03-31T09:19:26Z</time>
      </trkpt>
      <trkpt lat="47.5436" lon="1.711099">
        <ele>148.0</ele>
        <time>2022-03-31T09:19:27Z</time>
      </trkpt>
      <trkpt lat="47.543613" lon="1.7111063">
        <ele>147.0</ele>
        <time>2022-03-31T09:19:28Z</time>
      </trkpt>
      <trkpt lat="47.543625" lon="1.7111125">
        <ele>148.0</ele>
        <time>2022-03-31T09:19:29Z</time>
      </trkpt>
      <trkpt lat="47.543636" lon="1.7111173">
        <ele>148.0</ele>
        <time>2022-03-31T09:19:30Z</time>
      </trkpt>
      <trkpt lat="47.543648" lon="1.711124">
        <ele>148.0</ele>
        <time>2022-03-31T09:19:31Z</time>
      </trkpt>
      <trkpt lat="47.543655" lon="1.7111343">
        <ele>148.0</ele>
        <time>2022-03-31T09:19:32Z</time>
      </trkpt>
      <trkpt lat="47.543667" lon="1.7111439">
        <ele>147.0</ele>
        <time>2022-03-31T09:19:33Z</time>
      </trkpt>
      <trkpt lat="47.543682" lon="1.7111511">
        <ele>147.0</ele>
        <time>2022-03-31T09:19:34Z</time>
      </trkpt>
      <trkpt lat="47.54369" lon="1.71116">
        <ele>147.0</ele>
        <time>2022-03-31T09:19:35Z</time>
      </trkpt>
      <trkpt lat="47.5437" lon="1.7111716">
        <ele>147.0</ele>
        <time>2022-03-31T09:19:36Z</time>
      </trkpt>
      <trkpt lat="47.543713" lon="1.7111793">
        <ele>147.0</ele>
        <time>2022-03-31T09:19:37Z</time>
      </trkpt>
      <trkpt lat="47.54372" lon="1.7111883">
        <ele>147.0</ele>
        <time>2022-03-31T09:19:38Z</time>
      </trkpt>
      <trkpt lat="47.54373" lon="1.7112012">
        <ele>147.0</ele>
        <time>2022-03-31T09:19:39Z</time>
      </trkpt>
      <trkpt lat="47.54374" lon="1.7112149">
        <ele>147.0</ele>
        <time>2022-03-31T09:19:40Z</time>
      </trkpt>
      <trkpt lat="47.54375" lon="1.7112201">
        <ele>147.0</ele>
        <time>2022-03-31T09:19:41Z</time>
      </trkpt>
      <trkpt lat="47.543762" lon="1.7112262">
        <ele>147.0</ele>
        <time>2022-03-31T09:19:42Z</time>
      </trkpt>
      <trkpt lat="47.543774" lon="1.711233">
        <ele>147.0</ele>
        <time>2022-03-31T09:19:43Z</time>
      </trkpt>
      <trkpt lat="47.543785" lon="1.7112435">
        <ele>147.0</ele>
        <time>2022-03-31T09:19:44Z</time>
      </trkpt>
      <trkpt lat="47.543793" lon="1.7112497">
        <ele>146.0</ele>
        <time>2022-03-31T09:19:45Z</time>
      </trkpt>
      <trkpt lat="47.543804" lon="1.7112545">
        <ele>146.0</ele>
        <time>2022-03-31T09:19:46Z</time>
      </trkpt>
      <trkpt lat="47.54381" lon="1.7112606">
        <ele>146.0</ele>
        <time>2022-03-31T09:19:47Z</time>
      </trkpt>
      <trkpt lat="47.543827" lon="1.7112665">
        <ele>146.0</ele>
        <time>2022-03-31T09:19:48Z</time>
      </trkpt>
      <trkpt lat="47.54384" lon="1.7112746">
        <ele>146.0</ele>
        <time>2022-03-31T09:19:49Z</time>
      </trkpt>
      <trkpt lat="47.543846" lon="1.7112881">
        <ele>146.0</ele>
        <time>2022-03-31T09:19:50Z</time>
      </trkpt>
      <trkpt lat="47.543854" lon="1.7112978">
        <ele>146.0</ele>
        <time>2022-03-31T09:19:51Z</time>
      </trkpt>
      <trkpt lat="47.543865" lon="1.7113029">
        <ele>146.0</ele>
        <time>2022-03-31T09:19:52Z</time>
      </trkpt>
      <trkpt lat="47.543877" lon="1.7113099">
        <ele>146.0</ele>
        <time>2022-03-31T09:19:53Z</time>
      </trkpt>
      <trkpt lat="47.543884" lon="1.7113211">
        <ele>145.0</ele>
        <time>2022-03-31T09:19:54Z</time>
      </trkpt>
      <trkpt lat="47.543896" lon="1.7113277">
        <ele>145.0</ele>
        <time>2022-03-31T09:19:55Z</time>
      </trkpt>
      <trkpt lat="47.543903" lon="1.711332">
        <ele>144.0</ele>
        <time>2022-03-31T09:19:56Z</time>
      </trkpt>
      <trkpt lat="47.543915" lon="1.7113435">
        <ele>144.0</ele>
        <time>2022-03-31T09:19:57Z</time>
      </trkpt>
      <trkpt lat="47.543926" lon="1.7113551">
        <ele>144.0</ele>
        <time>2022-03-31T09:19:58Z</time>
      </trkpt>
      <trkpt lat="47.543934" lon="1.7113618">
        <ele>145.0</ele>
        <time>2022-03-31T09:19:59Z</time>
      </trkpt>
      <trkpt lat="47.543945" lon="1.71137">
        <ele>145.0</ele>
        <time>2022-03-31T09:20:00Z</time>
      </trkpt>
      <trkpt lat="47.543957" lon="1.7113732">
        <ele>145.0</ele>
        <time>2022-03-31T09:20:01Z</time>
      </trkpt>
      <trkpt lat="47.543972" lon="1.7113804">
        <ele>144.0</ele>
        <time>2022-03-31T09:20:02Z</time>
      </trkpt>
      <trkpt lat="47.543983" lon="1.7113887">
        <ele>144.0</ele>
        <time>2022-03-31T09:20:03Z</time>
      </trkpt>
      <trkpt lat="47.544" lon="1.7113994">
        <ele>145.0</ele>
        <time>2022-03-31T09:20:04Z</time>
      </trkpt>
      <trkpt lat="47.54401" lon="1.711411">
        <ele>144.0</ele>
        <time>2022-03-31T09:20:05Z</time>
      </trkpt>
      <trkpt lat="47.544014" lon="1.7114167">
        <ele>144.0</ele>
        <time>2022-03-31T09:20:06Z</time>
      </trkpt>
      <trkpt lat="47.544025" lon="1.7114301">
        <ele>143.0</ele>
        <time>2022-03-31T09:20:07Z</time>
      </trkpt>
      <trkpt lat="47.544033" lon="1.711443">
        <ele>143.0</ele>
        <time>2022-03-31T09:20:08Z</time>
      </trkpt>
      <trkpt lat="47.544044" lon="1.711454">
        <ele>143.0</ele>
        <time>2022-03-31T09:20:09Z</time>
      </trkpt>
      <trkpt lat="47.54406" lon="1.7114606">
        <ele>143.0</ele>
        <time>2022-03-31T09:20:10Z</time>
      </trkpt>
      <trkpt lat="47.54407" lon="1.711463">
        <ele>143.0</ele>
        <time>2022-03-31T09:20:11Z</time>
      </trkpt>
      <trkpt lat="47.544083" lon="1.7114716">
        <ele>142.0</ele>
        <time>2022-03-31T09:20:12Z</time>
      </trkpt>
      <trkpt lat="47.544094" lon="1.7114815">
        <ele>142.0</ele>
        <time>2022-03-31T09:20:13Z</time>
      </trkpt>
      <trkpt lat="47.5441" lon="1.711488">
        <ele>142.0</ele>
        <time>2022-03-31T09:20:14Z</time>
      </trkpt>
      <trkpt lat="47.54411" lon="1.7114977">
        <ele>142.0</ele>
        <time>2022-03-31T09:20:15Z</time>
      </trkpt>
      <trkpt lat="47.544132" lon="1.7115169">
        <ele>142.0</ele>
        <time>2022-03-31T09:20:16Z</time>
      </trkpt>
      <trkpt lat="47.544132" lon="1.7115169">
        <ele>142.0</ele>
        <time>2022-03-31T09:20:16Z</time>
      </trkpt>
      <trkpt lat="47.544147" lon="1.7115247">
        <ele>142.0</ele>
        <time>2022-03-31T09:20:18Z</time>
      </trkpt>
      <trkpt lat="47.54416" lon="1.7115355">
        <ele>142.0</ele>
        <time>2022-03-31T09:20:19Z</time>
      </trkpt>
      <trkpt lat="47.54417" lon="1.7115449">
        <ele>142.0</ele>
        <time>2022-03-31T09:20:20Z</time>
      </trkpt>
      <trkpt lat="47.544178" lon="1.7115564">
        <ele>142.0</ele>
        <time>2022-03-31T09:20:21Z</time>
      </trkpt>
      <trkpt lat="47.54419" lon="1.7115598">
        <ele>142.0</ele>
        <time>2022-03-31T09:20:22Z</time>
      </trkpt>
      <trkpt lat="47.5442" lon="1.7115698">
        <ele>142.0</ele>
        <time>2022-03-31T09:20:23Z</time>
      </trkpt>
      <trkpt lat="47.54421" lon="1.7115811">
        <ele>142.0</ele>
        <time>2022-03-31T09:20:24Z</time>
      </trkpt>
      <trkpt lat="47.54422" lon="1.7115877">
        <ele>142.0</ele>
        <time>2022-03-31T09:20:25Z</time>
      </trkpt>
      <trkpt lat="47.544228" lon="1.7115941">
        <ele>142.0</ele>
        <time>2022-03-31T09:20:26Z</time>
      </trkpt>
      <trkpt lat="47.54424" lon="1.711607">
        <ele>142.0</ele>
        <time>2022-03-31T09:20:27Z</time>
      </trkpt>
      <trkpt lat="47.54425" lon="1.7116164">
        <ele>142.0</ele>
        <time>2022-03-31T09:20:28Z</time>
      </trkpt>
      <trkpt lat="47.544266" lon="1.711626">
        <ele>143.0</ele>
        <time>2022-03-31T09:20:29Z</time>
      </trkpt>
      <trkpt lat="47.544277" lon="1.711637">
        <ele>143.0</ele>
        <time>2022-03-31T09:20:30Z</time>
      </trkpt>
      <trkpt lat="47.54429" lon="1.7116481">
        <ele>143.0</ele>
        <time>2022-03-31T09:20:31Z</time>
      </trkpt>
      <trkpt lat="47.5443" lon="1.7116535">
        <ele>143.0</ele>
        <time>2022-03-31T09:20:32Z</time>
      </trkpt>
      <trkpt lat="47.54431" lon="1.7116625">
        <ele>144.0</ele>
        <time>2022-03-31T09:20:33Z</time>
      </trkpt>
      <trkpt lat="47.54434" lon="1.7116709">
        <ele>143.0</ele>
        <time>2022-03-31T09:20:34Z</time>
      </trkpt>
      <trkpt lat="47.54435" lon="1.711678">
        <ele>143.0</ele>
        <time>2022-03-31T09:20:35Z</time>
      </trkpt>
      <trkpt lat="47.54436" lon="1.7116894">
        <ele>143.0</ele>
        <time>2022-03-31T09:20:36Z</time>
      </trkpt>
      <trkpt lat="47.54436" lon="1.7116894">
        <ele>143.0</ele>
        <time>2022-03-31T09:20:36Z</time>
      </trkpt>
      <trkpt lat="47.544373" lon="1.7116959">
        <ele>143.0</ele>
        <time>2022-03-31T09:20:38Z</time>
      </trkpt>
      <trkpt lat="47.544388" lon="1.7117049">
        <ele>143.0</ele>
        <time>2022-03-31T09:20:39Z</time>
      </trkpt>
      <trkpt lat="47.5444" lon="1.7117099">
        <ele>143.0</ele>
        <time>2022-03-31T09:20:40Z</time>
      </trkpt>
      <trkpt lat="47.54441" lon="1.7117223">
        <ele>143.0</ele>
        <time>2022-03-31T09:20:41Z</time>
      </trkpt>
      <trkpt lat="47.54442" lon="1.7117286">
        <ele>143.0</ele>
        <time>2022-03-31T09:20:42Z</time>
      </trkpt>
      <trkpt lat="47.544434" lon="1.711736">
        <ele>143.0</ele>
        <time>2022-03-31T09:20:43Z</time>
      </trkpt>
      <trkpt lat="47.544434" lon="1.711736">
        <ele>143.0</ele>
        <time>2022-03-31T09:20:43Z</time>
      </trkpt>
      <trkpt lat="47.544464" lon="1.7117684">
        <ele>144.0</ele>
        <time>2022-03-31T09:20:45Z</time>
      </trkpt>
      <trkpt lat="47.544464" lon="1.7117684">
        <ele>144.0</ele>
        <time>2022-03-31T09:20:45Z</time>
      </trkpt>
      <trkpt lat="47.54448" lon="1.7117915">
        <ele>144.0</ele>
        <time>2022-03-31T09:20:47Z</time>
      </trkpt>
      <trkpt lat="47.54448" lon="1.7117915">
        <ele>144.0</ele>
        <time>2022-03-31T09:20:47Z</time>
      </trkpt>
      <trkpt lat="47.54449" lon="1.7117978">
        <ele>144.0</ele>
        <time>2022-03-31T09:20:48Z</time>
      </trkpt>
      <trkpt lat="47.54449" lon="1.7117978">
        <ele>144.0</ele>
        <time>2022-03-31T09:20:48Z</time>
      </trkpt>
      <trkpt lat="47.544525" lon="1.7118227">
        <ele>145.0</ele>
        <time>2022-03-31T09:20:51Z</time>
      </trkpt>
      <trkpt lat="47.54454" lon="1.7118253">
        <ele>145.0</ele>
        <time>2022-03-31T09:20:52Z</time>
      </trkpt>
      <trkpt lat="47.54455" lon="1.7118317">
        <ele>145.0</ele>
        <time>2022-03-31T09:20:53Z</time>
      </trkpt>
      <trkpt lat="47.54455" lon="1.7118317">
        <ele>145.0</ele>
        <time>2022-03-31T09:20:53Z</time>
      </trkpt>
      <trkpt lat="47.54455" lon="1.7118317">
        <ele>145.0</ele>
        <time>2022-03-31T09:20:53Z</time>
      </trkpt>
      <trkpt lat="47.54457" lon="1.7118412">
        <ele>146.0</ele>
        <time>2022-03-31T09:20:55Z</time>
      </trkpt>
      <trkpt lat="47.544594" lon="1.7118543">
        <ele>146.0</ele>
        <time>2022-03-31T09:20:57Z</time>
      </trkpt>
      <trkpt lat="47.544605" lon="1.7118589">
        <ele>146.0</ele>
        <time>2022-03-31T09:20:58Z</time>
      </trkpt>
      <trkpt lat="47.544605" lon="1.7118589">
        <ele>146.0</ele>
        <time>2022-03-31T09:20:58Z</time>
      </trkpt>
      <trkpt lat="47.544613" lon="1.711861">
        <ele>146.0</ele>
        <time>2022-03-31T09:20:59Z</time>
      </trkpt>
      <trkpt lat="47.544636" lon="1.7118661">
        <ele>145.0</ele>
        <time>2022-03-31T09:21:01Z</time>
      </trkpt>
      <trkpt lat="47.54465" lon="1.7118614">
        <ele>145.0</ele>
        <time>2022-03-31T09:21:02Z</time>
      </trkpt>
      <trkpt lat="47.544666" lon="1.7118603">
        <ele>145.0</ele>
        <time>2022-03-31T09:21:03Z</time>
      </trkpt>
      <trkpt lat="47.544666" lon="1.7118603">
        <ele>145.0</ele>
        <time>2022-03-31T09:21:03Z</time>
      </trkpt>
      <trkpt lat="47.54468" lon="1.7118577">
        <ele>146.0</ele>
        <time>2022-03-31T09:21:04Z</time>
      </trkpt>
      <trkpt lat="47.544693" lon="1.7118589">
        <ele>146.0</ele>
        <time>2022-03-31T09:21:05Z</time>
      </trkpt>
      <trkpt lat="47.54471" lon="1.7118573">
        <ele>146.0</ele>
        <time>2022-03-31T09:21:06Z</time>
      </trkpt>
      <trkpt lat="47.544727" lon="1.7118518">
        <ele>146.0</ele>
        <time>2022-03-31T09:21:07Z</time>
      </trkpt>
      <trkpt lat="47.54474" lon="1.7118473">
        <ele>146.0</ele>
        <time>2022-03-31T09:21:08Z</time>
      </trkpt>
      <trkpt lat="47.544754" lon="1.711843">
        <ele>146.0</ele>
        <time>2022-03-31T09:21:09Z</time>
      </trkpt>
      <trkpt lat="47.544765" lon="1.7118407">
        <ele>146.0</ele>
        <time>2022-03-31T09:21:10Z</time>
      </trkpt>
      <trkpt lat="47.544777" lon="1.711839">
        <ele>146.0</ele>
        <time>2022-03-31T09:21:11Z</time>
      </trkpt>
      <trkpt lat="47.54479" lon="1.7118368">
        <ele>146.0</ele>
        <time>2022-03-31T09:21:12Z</time>
      </trkpt>
      <trkpt lat="47.5448" lon="1.7118325">
        <ele>146.0</ele>
        <time>2022-03-31T09:21:13Z</time>
      </trkpt>
      <trkpt lat="47.544815" lon="1.7118268">
        <ele>145.0</ele>
        <time>2022-03-31T09:21:14Z</time>
      </trkpt>
      <trkpt lat="47.544827" lon="1.7118231">
        <ele>145.0</ele>
        <time>2022-03-31T09:21:15Z</time>
      </trkpt>
      <trkpt lat="47.544838" lon="1.7118186">
        <ele>145.0</ele>
        <time>2022-03-31T09:21:16Z</time>
      </trkpt>
      <trkpt lat="47.544846" lon="1.7118165">
        <ele>146.0</ele>
        <time>2022-03-31T09:21:17Z</time>
      </trkpt>
      <trkpt lat="47.544846" lon="1.7118165">
        <ele>146.0</ele>
        <time>2022-03-31T09:21:17Z</time>
      </trkpt>
      <trkpt lat="47.544853" lon="1.7118143">
        <ele>145.0</ele>
        <time>2022-03-31T09:21:19Z</time>
      </trkpt>
      <trkpt lat="47.54486" lon="1.7118077">
        <ele>144.0</ele>
        <time>2022-03-31T09:21:20Z</time>
      </trkpt>
      <trkpt lat="47.544884" lon="1.7118031">
        <ele>145.0</ele>
        <time>2022-03-31T09:21:21Z</time>
      </trkpt>
      <trkpt lat="47.544895" lon="1.7118001">
        <ele>145.0</ele>
        <time>2022-03-31T09:21:22Z</time>
      </trkpt>
      <trkpt lat="47.544907" lon="1.7117994">
        <ele>145.0</ele>
        <time>2022-03-31T09:21:23Z</time>
      </trkpt>
      <trkpt lat="47.544907" lon="1.7117994">
        <ele>145.0</ele>
        <time>2022-03-31T09:21:23Z</time>
      </trkpt>
      <trkpt lat="47.544926" lon="1.7117904">
        <ele>144.0</ele>
        <time>2022-03-31T09:21:26Z</time>
      </trkpt>
      <trkpt lat="47.544937" lon="1.7117821">
        <ele>144.0</ele>
        <time>2022-03-31T09:21:27Z</time>
      </trkpt>
      <trkpt lat="47.54495" lon="1.7117754">
        <ele>144.0</ele>
        <time>2022-03-31T09:21:28Z</time>
      </trkpt>
      <trkpt lat="47.544964" lon="1.7117698">
        <ele>144.0</ele>
        <time>2022-03-31T09:21:29Z</time>
      </trkpt>
      <trkpt lat="47.544975" lon="1.711764">
        <ele>144.0</ele>
        <time>2022-03-31T09:21:30Z</time>
      </trkpt>
      <trkpt lat="47.544987" lon="1.7117561">
        <ele>144.0</ele>
        <time>2022-03-31T09:21:31Z</time>
      </trkpt>
      <trkpt lat="47.545" lon="1.7117451">
        <ele>144.0</ele>
        <time>2022-03-31T09:21:32Z</time>
      </trkpt>
      <trkpt lat="47.54501" lon="1.7117367">
        <ele>144.0</ele>
        <time>2022-03-31T09:21:33Z</time>
      </trkpt>
      <trkpt lat="47.545025" lon="1.711731">
        <ele>144.0</ele>
        <time>2022-03-31T09:21:34Z</time>
      </trkpt>
      <trkpt lat="47.545036" lon="1.7117275">
        <ele>144.0</ele>
        <time>2022-03-31T09:21:35Z</time>
      </trkpt>
      <trkpt lat="47.545044" lon="1.7117263">
        <ele>144.0</ele>
        <time>2022-03-31T09:21:36Z</time>
      </trkpt>
      <trkpt lat="47.545055" lon="1.7117213">
        <ele>144.0</ele>
        <time>2022-03-31T09:21:37Z</time>
      </trkpt>
      <trkpt lat="47.54506" lon="1.7117144">
        <ele>144.0</ele>
        <time>2022-03-31T09:21:38Z</time>
      </trkpt>
      <trkpt lat="47.54507" lon="1.7117114">
        <ele>144.0</ele>
        <time>2022-03-31T09:21:39Z</time>
      </trkpt>
      <trkpt lat="47.54508" lon="1.7117022">
        <ele>143.0</ele>
        <time>2022-03-31T09:21:40Z</time>
      </trkpt>
      <trkpt lat="47.54509" lon="1.7116965">
        <ele>143.0</ele>
        <time>2022-03-31T09:21:41Z</time>
      </trkpt>
      <trkpt lat="47.545097" lon="1.7116953">
        <ele>143.0</ele>
        <time>2022-03-31T09:21:42Z</time>
      </trkpt>
      <trkpt lat="47.545105" lon="1.7116929">
        <ele>143.0</ele>
        <time>2022-03-31T09:21:43Z</time>
      </trkpt>
      <trkpt lat="47.545113" lon="1.7116836">
        <ele>143.0</ele>
        <time>2022-03-31T09:21:44Z</time>
      </trkpt>
      <trkpt lat="47.54512" lon="1.7116781">
        <ele>143.0</ele>
        <time>2022-03-31T09:21:45Z</time>
      </trkpt>
      <trkpt lat="47.545124" lon="1.7116702">
        <ele>143.0</ele>
        <time>2022-03-31T09:21:46Z</time>
      </trkpt>
      <trkpt lat="47.54513" lon="1.71166">
        <ele>143.0</ele>
        <time>2022-03-31T09:21:47Z</time>
      </trkpt>
      <trkpt lat="47.54514" lon="1.7116556">
        <ele>143.0</ele>
        <time>2022-03-31T09:21:48Z</time>
      </trkpt>
      <trkpt lat="47.54515" lon="1.7116561">
        <ele>142.0</ele>
        <time>2022-03-31T09:21:49Z</time>
      </trkpt>
      <trkpt lat="47.545166" lon="1.7116516">
        <ele>143.0</ele>
        <time>2022-03-31T09:21:50Z</time>
      </trkpt>
      <trkpt lat="47.54518" lon="1.7116487">
        <ele>143.0</ele>
        <time>2022-03-31T09:21:51Z</time>
      </trkpt>
      <trkpt lat="47.545193" lon="1.7116431">
        <ele>143.0</ele>
        <time>2022-03-31T09:21:52Z</time>
      </trkpt>
      <trkpt lat="47.5452" lon="1.711632">
        <ele>143.0</ele>
        <time>2022-03-31T09:21:53Z</time>
      </trkpt>
      <trkpt lat="47.545208" lon="1.7116205">
        <ele>143.0</ele>
        <time>2022-03-31T09:21:54Z</time>
      </trkpt>
      <trkpt lat="47.545216" lon="1.7116094">
        <ele>142.0</ele>
        <time>2022-03-31T09:21:55Z</time>
      </trkpt>
      <trkpt lat="47.545223" lon="1.7116053">
        <ele>142.0</ele>
        <time>2022-03-31T09:21:56Z</time>
      </trkpt>
      <trkpt lat="47.545235" lon="1.7116">
        <ele>142.0</ele>
        <time>2022-03-31T09:21:57Z</time>
      </trkpt>
      <trkpt lat="47.545246" lon="1.7115917">
        <ele>141.0</ele>
        <time>2022-03-31T09:21:58Z</time>
      </trkpt>
      <trkpt lat="47.54526" lon="1.7115885">
        <ele>141.0</ele>
        <time>2022-03-31T09:21:59Z</time>
      </trkpt>
      <trkpt lat="47.54527" lon="1.7115786">
        <ele>142.0</ele>
        <time>2022-03-31T09:22:00Z</time>
      </trkpt>
      <trkpt lat="47.545277" lon="1.711564">
        <ele>142.0</ele>
        <time>2022-03-31T09:22:01Z</time>
      </trkpt>
      <trkpt lat="47.54528" lon="1.7115443">
        <ele>142.0</ele>
        <time>2022-03-31T09:22:02Z</time>
      </trkpt>
      <trkpt lat="47.54529" lon="1.7115293">
        <ele>143.0</ele>
        <time>2022-03-31T09:22:03Z</time>
      </trkpt>
      <trkpt lat="47.545303" lon="1.7115189">
        <ele>143.0</ele>
        <time>2022-03-31T09:22:04Z</time>
      </trkpt>
      <trkpt lat="47.54531" lon="1.7115119">
        <ele>142.0</ele>
        <time>2022-03-31T09:22:05Z</time>
      </trkpt>
      <trkpt lat="47.54532" lon="1.7115054">
        <ele>142.0</ele>
        <time>2022-03-31T09:22:06Z</time>
      </trkpt>
      <trkpt lat="47.545326" lon="1.7114998">
        <ele>142.0</ele>
        <time>2022-03-31T09:22:07Z</time>
      </trkpt>
      <trkpt lat="47.545338" lon="1.711492">
        <ele>142.0</ele>
        <time>2022-03-31T09:22:08Z</time>
      </trkpt>
      <trkpt lat="47.54535" lon="1.7114909">
        <ele>142.0</ele>
        <time>2022-03-31T09:22:09Z</time>
      </trkpt>
      <trkpt lat="47.54536" lon="1.7114885">
        <ele>142.0</ele>
        <time>2022-03-31T09:22:10Z</time>
      </trkpt>
      <trkpt lat="47.545376" lon="1.7114886">
        <ele>142.0</ele>
        <time>2022-03-31T09:22:11Z</time>
      </trkpt>
      <trkpt lat="47.545395" lon="1.7114844">
        <ele>141.0</ele>
        <time>2022-03-31T09:22:12Z</time>
      </trkpt>
      <trkpt lat="47.54541" lon="1.7114816">
        <ele>141.0</ele>
        <time>2022-03-31T09:22:13Z</time>
      </trkpt>
      <trkpt lat="47.545425" lon="1.7114751">
        <ele>141.0</ele>
        <time>2022-03-31T09:22:14Z</time>
      </trkpt>
      <trkpt lat="47.545433" lon="1.7114731">
        <ele>140.0</ele>
        <time>2022-03-31T09:22:15Z</time>
      </trkpt>
      <trkpt lat="47.545444" lon="1.7114701">
        <ele>140.0</ele>
        <time>2022-03-31T09:22:16Z</time>
      </trkpt>
      <trkpt lat="47.54546" lon="1.7114632">
        <ele>140.0</ele>
        <time>2022-03-31T09:22:17Z</time>
      </trkpt>
      <trkpt lat="47.54547" lon="1.7114578">
        <ele>140.0</ele>
        <time>2022-03-31T09:22:18Z</time>
      </trkpt>
      <trkpt lat="47.545486" lon="1.7114518">
        <ele>140.0</ele>
        <time>2022-03-31T09:22:19Z</time>
      </trkpt>
      <trkpt lat="47.545498" lon="1.7114457">
        <ele>140.0</ele>
        <time>2022-03-31T09:22:20Z</time>
      </trkpt>
      <trkpt lat="47.545513" lon="1.7114363">
        <ele>140.0</ele>
        <time>2022-03-31T09:22:21Z</time>
      </trkpt>
      <trkpt lat="47.545525" lon="1.7114329">
        <ele>141.0</ele>
        <time>2022-03-31T09:22:22Z</time>
      </trkpt>
      <trkpt lat="47.54554" lon="1.7114329">
        <ele>141.0</ele>
        <time>2022-03-31T09:22:23Z</time>
      </trkpt>
      <trkpt lat="47.545555" lon="1.711435">
        <ele>141.0</ele>
        <time>2022-03-31T09:22:24Z</time>
      </trkpt>
      <trkpt lat="47.545567" lon="1.71143">
        <ele>141.0</ele>
        <time>2022-03-31T09:22:25Z</time>
      </trkpt>
      <trkpt lat="47.54558" lon="1.7114322">
        <ele>141.0</ele>
        <time>2022-03-31T09:22:26Z</time>
      </trkpt>
      <trkpt lat="47.545593" lon="1.7114289">
        <ele>140.0</ele>
        <time>2022-03-31T09:22:27Z</time>
      </trkpt>
      <trkpt lat="47.545605" lon="1.7114259">
        <ele>140.0</ele>
        <time>2022-03-31T09:22:28Z</time>
      </trkpt>
      <trkpt lat="47.545612" lon="1.7114252">
        <ele>140.0</ele>
        <time>2022-03-31T09:22:29Z</time>
      </trkpt>
      <trkpt lat="47.54562" lon="1.7114228">
        <ele>139.0</ele>
        <time>2022-03-31T09:22:30Z</time>
      </trkpt>
      <trkpt lat="47.54563" lon="1.711413">
        <ele>139.0</ele>
        <time>2022-03-31T09:22:31Z</time>
      </trkpt>
      <trkpt lat="47.545643" lon="1.711405">
        <ele>139.0</ele>
        <time>2022-03-31T09:22:32Z</time>
      </trkpt>
      <trkpt lat="47.545654" lon="1.7114005">
        <ele>139.0</ele>
        <time>2022-03-31T09:22:33Z</time>
      </trkpt>
      <trkpt lat="47.545662" lon="1.7113978">
        <ele>139.0</ele>
        <time>2022-03-31T09:22:34Z</time>
      </trkpt>
      <trkpt lat="47.545673" lon="1.711388">
        <ele>138.0</ele>
        <time>2022-03-31T09:22:35Z</time>
      </trkpt>
      <trkpt lat="47.54568" lon="1.7113814">
        <ele>138.0</ele>
        <time>2022-03-31T09:22:36Z</time>
      </trkpt>
      <trkpt lat="47.545692" lon="1.7113744">
        <ele>138.0</ele>
        <time>2022-03-31T09:22:37Z</time>
      </trkpt>
      <trkpt lat="47.545708" lon="1.711371">
        <ele>138.0</ele>
        <time>2022-03-31T09:22:38Z</time>
      </trkpt>
      <trkpt lat="47.54572" lon="1.7113637">
        <ele>137.0</ele>
        <time>2022-03-31T09:22:39Z</time>
      </trkpt>
      <trkpt lat="47.54573" lon="1.7113585">
        <ele>137.0</ele>
        <time>2022-03-31T09:22:40Z</time>
      </trkpt>
      <trkpt lat="47.545742" lon="1.7113522">
        <ele>137.0</ele>
        <time>2022-03-31T09:22:41Z</time>
      </trkpt>
      <trkpt lat="47.54575" lon="1.7113444">
        <ele>137.0</ele>
        <time>2022-03-31T09:22:42Z</time>
      </trkpt>
      <trkpt lat="47.545765" lon="1.7113339">
        <ele>137.0</ele>
        <time>2022-03-31T09:22:43Z</time>
      </trkpt>
      <trkpt lat="47.545776" lon="1.711324">
        <ele>137.0</ele>
        <time>2022-03-31T09:22:44Z</time>
      </trkpt>
      <trkpt lat="47.54579" lon="1.7113105">
        <ele>136.0</ele>
        <time>2022-03-31T09:22:45Z</time>
      </trkpt>
      <trkpt lat="47.545807" lon="1.7112981">
        <ele>135.0</ele>
        <time>2022-03-31T09:22:46Z</time>
      </trkpt>
      <trkpt lat="47.545822" lon="1.7112879">
        <ele>135.0</ele>
        <time>2022-03-31T09:22:47Z</time>
      </trkpt>
      <trkpt lat="47.545834" lon="1.7112814">
        <ele>135.0</ele>
        <time>2022-03-31T09:22:48Z</time>
      </trkpt>
      <trkpt lat="47.545845" lon="1.7112758">
        <ele>136.0</ele>
        <time>2022-03-31T09:22:49Z</time>
      </trkpt>
      <trkpt lat="47.545856" lon="1.7112732">
        <ele>136.0</ele>
        <time>2022-03-31T09:22:50Z</time>
      </trkpt>
      <trkpt lat="47.54587" lon="1.7112746">
        <ele>136.0</ele>
        <time>2022-03-31T09:22:51Z</time>
      </trkpt>
      <trkpt lat="47.545883" lon="1.7112683">
        <ele>135.0</ele>
        <time>2022-03-31T09:22:52Z</time>
      </trkpt>
      <trkpt lat="47.5459" lon="1.7112598">
        <ele>135.0</ele>
        <time>2022-03-31T09:22:53Z</time>
      </trkpt>
      <trkpt lat="47.545914" lon="1.7112557">
        <ele>135.0</ele>
        <time>2022-03-31T09:22:54Z</time>
      </trkpt>
      <trkpt lat="47.54593" lon="1.7112511">
        <ele>135.0</ele>
        <time>2022-03-31T09:22:55Z</time>
      </trkpt>
      <trkpt lat="47.54594" lon="1.7112423">
        <ele>134.0</ele>
        <time>2022-03-31T09:22:56Z</time>
      </trkpt>
      <trkpt lat="47.545948" lon="1.7112442">
        <ele>134.0</ele>
        <time>2022-03-31T09:22:57Z</time>
      </trkpt>
      <trkpt lat="47.54596" lon="1.7112433">
        <ele>134.0</ele>
        <time>2022-03-31T09:22:58Z</time>
      </trkpt>
      <trkpt lat="47.545963" lon="1.711234">
        <ele>134.0</ele>
        <time>2022-03-31T09:22:59Z</time>
      </trkpt>
      <trkpt lat="47.545975" lon="1.711229">
        <ele>133.0</ele>
        <time>2022-03-31T09:23:00Z</time>
      </trkpt>
      <trkpt lat="47.545986" lon="1.7112235">
        <ele>133.0</ele>
        <time>2022-03-31T09:23:01Z</time>
      </trkpt>
      <trkpt lat="47.545998" lon="1.7112231">
        <ele>132.0</ele>
        <time>2022-03-31T09:23:02Z</time>
      </trkpt>
      <trkpt lat="47.54601" lon="1.7112211">
        <ele>132.0</ele>
        <time>2022-03-31T09:23:03Z</time>
      </trkpt>
      <trkpt lat="47.54602" lon="1.7112195">
        <ele>132.0</ele>
        <time>2022-03-31T09:23:04Z</time>
      </trkpt>
      <trkpt lat="47.546032" lon="1.7112164">
        <ele>131.0</ele>
        <time>2022-03-31T09:23:05Z</time>
      </trkpt>
      <trkpt lat="47.546043" lon="1.711214">
        <ele>131.0</ele>
        <time>2022-03-31T09:23:06Z</time>
      </trkpt>
      <trkpt lat="47.546055" lon="1.7112085">
        <ele>131.0</ele>
        <time>2022-03-31T09:23:07Z</time>
      </trkpt>
      <trkpt lat="47.546066" lon="1.7112042">
        <ele>132.0</ele>
        <time>2022-03-31T09:23:08Z</time>
      </trkpt>
      <trkpt lat="47.546078" lon="1.7111979">
        <ele>132.0</ele>
        <time>2022-03-31T09:23:09Z</time>
      </trkpt>
      <trkpt lat="47.54609" lon="1.7111886">
        <ele>132.0</ele>
        <time>2022-03-31T09:23:10Z</time>
      </trkpt>
      <trkpt lat="47.546104" lon="1.711181">
        <ele>132.0</ele>
        <time>2022-03-31T09:23:11Z</time>
      </trkpt>
      <trkpt lat="47.54612" lon="1.7111738">
        <ele>133.0</ele>
        <time>2022-03-31T09:23:12Z</time>
      </trkpt>
      <trkpt lat="47.546143" lon="1.7111634">
        <ele>132.0</ele>
        <time>2022-03-31T09:23:13Z</time>
      </trkpt>
      <trkpt lat="47.546158" lon="1.7111539">
        <ele>132.0</ele>
        <time>2022-03-31T09:23:14Z</time>
      </trkpt>
      <trkpt lat="47.54617" lon="1.7111436">
        <ele>132.0</ele>
        <time>2022-03-31T09:23:15Z</time>
      </trkpt>
      <trkpt lat="47.546185" lon="1.711135">
        <ele>132.0</ele>
        <time>2022-03-31T09:23:16Z</time>
      </trkpt>
      <trkpt lat="47.5462" lon="1.7111273">
        <ele>133.0</ele>
        <time>2022-03-31T09:23:17Z</time>
      </trkpt>
      <trkpt lat="47.54621" lon="1.7111224">
        <ele>133.0</ele>
        <time>2022-03-31T09:23:18Z</time>
      </trkpt>
      <trkpt lat="47.546227" lon="1.7111199">
        <ele>133.0</ele>
        <time>2022-03-31T09:23:19Z</time>
      </trkpt>
      <trkpt lat="47.54624" lon="1.7111102">
        <ele>133.0</ele>
        <time>2022-03-31T09:23:20Z</time>
      </trkpt>
      <trkpt lat="47.546257" lon="1.7111005">
        <ele>133.0</ele>
        <time>2022-03-31T09:23:21Z</time>
      </trkpt>
      <trkpt lat="47.54627" lon="1.7110931">
        <ele>133.0</ele>
        <time>2022-03-31T09:23:22Z</time>
      </trkpt>
      <trkpt lat="47.546284" lon="1.7110854">
        <ele>133.0</ele>
        <time>2022-03-31T09:23:23Z</time>
      </trkpt>
      <trkpt lat="47.5463" lon="1.7110788">
        <ele>133.0</ele>
        <time>2022-03-31T09:23:24Z</time>
      </trkpt>
      <trkpt lat="47.546314" lon="1.71107">
        <ele>133.0</ele>
        <time>2022-03-31T09:23:25Z</time>
      </trkpt>
      <trkpt lat="47.54633" lon="1.7110631">
        <ele>133.0</ele>
        <time>2022-03-31T09:23:26Z</time>
      </trkpt>
      <trkpt lat="47.546345" lon="1.7110568">
        <ele>133.0</ele>
        <time>2022-03-31T09:23:27Z</time>
      </trkpt>
      <trkpt lat="47.54636" lon="1.7110531">
        <ele>134.0</ele>
        <time>2022-03-31T09:23:28Z</time>
      </trkpt>
      <trkpt lat="47.546375" lon="1.7110454">
        <ele>134.0</ele>
        <time>2022-03-31T09:23:29Z</time>
      </trkpt>
      <trkpt lat="47.546387" lon="1.7110453">
        <ele>134.0</ele>
        <time>2022-03-31T09:23:30Z</time>
      </trkpt>
      <trkpt lat="47.5464" lon="1.7110448">
        <ele>135.0</ele>
        <time>2022-03-31T09:23:31Z</time>
      </trkpt>
      <trkpt lat="47.54641" lon="1.7110428">
        <ele>135.0</ele>
        <time>2022-03-31T09:23:32Z</time>
      </trkpt>
      <trkpt lat="47.54642" lon="1.7110388">
        <ele>135.0</ele>
        <time>2022-03-31T09:23:33Z</time>
      </trkpt>
      <trkpt lat="47.546436" lon="1.711036">
        <ele>135.0</ele>
        <time>2022-03-31T09:23:34Z</time>
      </trkpt>
      <trkpt lat="47.54645" lon="1.7110318">
        <ele>135.0</ele>
        <time>2022-03-31T09:23:35Z</time>
      </trkpt>
      <trkpt lat="47.54647" lon="1.711028">
        <ele>135.0</ele>
        <time>2022-03-31T09:23:36Z</time>
      </trkpt>
      <trkpt lat="47.546486" lon="1.7110225">
        <ele>135.0</ele>
        <time>2022-03-31T09:23:37Z</time>
      </trkpt>
      <trkpt lat="47.546497" lon="1.7110175">
        <ele>136.0</ele>
        <time>2022-03-31T09:23:38Z</time>
      </trkpt>
      <trkpt lat="47.546513" lon="1.7110085">
        <ele>135.0</ele>
        <time>2022-03-31T09:23:39Z</time>
      </trkpt>
      <trkpt lat="47.546528" lon="1.7110038">
        <ele>135.0</ele>
        <time>2022-03-31T09:23:40Z</time>
      </trkpt>
      <trkpt lat="47.546543" lon="1.7110015">
        <ele>135.0</ele>
        <time>2022-03-31T09:23:41Z</time>
      </trkpt>
      <trkpt lat="47.54656" lon="1.7109957">
        <ele>135.0</ele>
        <time>2022-03-31T09:23:42Z</time>
      </trkpt>
      <trkpt lat="47.546574" lon="1.7109884">
        <ele>135.0</ele>
        <time>2022-03-31T09:23:43Z</time>
      </trkpt>
      <trkpt lat="47.54658" lon="1.7109793">
        <ele>135.0</ele>
        <time>2022-03-31T09:23:44Z</time>
      </trkpt>
      <trkpt lat="47.546597" lon="1.7109714">
        <ele>135.0</ele>
        <time>2022-03-31T09:23:45Z</time>
      </trkpt>
      <trkpt lat="47.546608" lon="1.7109632">
        <ele>135.0</ele>
        <time>2022-03-31T09:23:46Z</time>
      </trkpt>
      <trkpt lat="47.546616" lon="1.7109534">
        <ele>134.0</ele>
        <time>2022-03-31T09:23:47Z</time>
      </trkpt>
      <trkpt lat="47.546623" lon="1.710946">
        <ele>135.0</ele>
        <time>2022-03-31T09:23:48Z</time>
      </trkpt>
      <trkpt lat="47.546635" lon="1.7109383">
        <ele>135.0</ele>
        <time>2022-03-31T09:23:49Z</time>
      </trkpt>
      <trkpt lat="47.54665" lon="1.7109352">
        <ele>135.0</ele>
        <time>2022-03-31T09:23:50Z</time>
      </trkpt>
      <trkpt lat="47.54666" lon="1.7109314">
        <ele>135.0</ele>
        <time>2022-03-31T09:23:51Z</time>
      </trkpt>
      <trkpt lat="47.546673" lon="1.7109257">
        <ele>136.0</ele>
        <time>2022-03-31T09:23:52Z</time>
      </trkpt>
      <trkpt lat="47.546684" lon="1.7109205">
        <ele>135.0</ele>
        <time>2022-03-31T09:23:53Z</time>
      </trkpt>
      <trkpt lat="47.54669" lon="1.7109146">
        <ele>136.0</ele>
        <time>2022-03-31T09:23:54Z</time>
      </trkpt>
      <trkpt lat="47.546703" lon="1.7109123">
        <ele>135.0</ele>
        <time>2022-03-31T09:23:55Z</time>
      </trkpt>
      <trkpt lat="47.546715" lon="1.7109079">
        <ele>136.0</ele>
        <time>2022-03-31T09:23:56Z</time>
      </trkpt>
      <trkpt lat="47.546726" lon="1.7109016">
        <ele>135.0</ele>
        <time>2022-03-31T09:23:57Z</time>
      </trkpt>
      <trkpt lat="47.54674" lon="1.7108951">
        <ele>135.0</ele>
        <time>2022-03-31T09:23:58Z</time>
      </trkpt>
      <trkpt lat="47.546757" lon="1.7108926">
        <ele>135.0</ele>
        <time>2022-03-31T09:23:59Z</time>
      </trkpt>
      <trkpt lat="47.546764" lon="1.710887">
        <ele>135.0</ele>
        <time>2022-03-31T09:24:00Z</time>
      </trkpt>
      <trkpt lat="47.546776" lon="1.7108841">
        <ele>134.0</ele>
        <time>2022-03-31T09:24:01Z</time>
      </trkpt>
      <trkpt lat="47.546787" lon="1.7108779">
        <ele>134.0</ele>
        <time>2022-03-31T09:24:02Z</time>
      </trkpt>
      <trkpt lat="47.546795" lon="1.7108715">
        <ele>134.0</ele>
        <time>2022-03-31T09:24:03Z</time>
      </trkpt>
      <trkpt lat="47.546806" lon="1.7108672">
        <ele>134.0</ele>
        <time>2022-03-31T09:24:04Z</time>
      </trkpt>
      <trkpt lat="47.546814" lon="1.7108624">
        <ele>134.0</ele>
        <time>2022-03-31T09:24:05Z</time>
      </trkpt>
      <trkpt lat="47.546825" lon="1.7108586">
        <ele>135.0</ele>
        <time>2022-03-31T09:24:06Z</time>
      </trkpt>
      <trkpt lat="47.546837" lon="1.7108564">
        <ele>135.0</ele>
        <time>2022-03-31T09:24:07Z</time>
      </trkpt>
      <trkpt lat="47.546852" lon="1.7108502">
        <ele>135.0</ele>
        <time>2022-03-31T09:24:08Z</time>
      </trkpt>
      <trkpt lat="47.546864" lon="1.7108477">
        <ele>135.0</ele>
        <time>2022-03-31T09:24:09Z</time>
      </trkpt>
      <trkpt lat="47.54688" lon="1.7108424">
        <ele>135.0</ele>
        <time>2022-03-31T09:24:10Z</time>
      </trkpt>
      <trkpt lat="47.54689" lon="1.7108362">
        <ele>135.0</ele>
        <time>2022-03-31T09:24:11Z</time>
      </trkpt>
      <trkpt lat="47.546906" lon="1.7108288">
        <ele>135.0</ele>
        <time>2022-03-31T09:24:12Z</time>
      </trkpt>
      <trkpt lat="47.546925" lon="1.710824">
        <ele>135.0</ele>
        <time>2022-03-31T09:24:13Z</time>
      </trkpt>
      <trkpt lat="47.54694" lon="1.7108228">
        <ele>135.0</ele>
        <time>2022-03-31T09:24:14Z</time>
      </trkpt>
      <trkpt lat="47.54695" lon="1.7108153">
        <ele>135.0</ele>
        <time>2022-03-31T09:24:15Z</time>
      </trkpt>
      <trkpt lat="47.546963" lon="1.710809">
        <ele>135.0</ele>
        <time>2022-03-31T09:24:16Z</time>
      </trkpt>
      <trkpt lat="47.54697" lon="1.7108059">
        <ele>134.0</ele>
        <time>2022-03-31T09:24:17Z</time>
      </trkpt>
      <trkpt lat="47.546986" lon="1.7107941">
        <ele>134.0</ele>
        <time>2022-03-31T09:24:18Z</time>
      </trkpt>
      <trkpt lat="47.546997" lon="1.710785">
        <ele>133.0</ele>
        <time>2022-03-31T09:24:19Z</time>
      </trkpt>
      <trkpt lat="47.54701" lon="1.7107788">
        <ele>133.0</ele>
        <time>2022-03-31T09:24:20Z</time>
      </trkpt>
      <trkpt lat="47.547024" lon="1.7107714">
        <ele>133.0</ele>
        <time>2022-03-31T09:24:21Z</time>
      </trkpt>
      <trkpt lat="47.547035" lon="1.7107646">
        <ele>133.0</ele>
        <time>2022-03-31T09:24:22Z</time>
      </trkpt>
      <trkpt lat="47.547047" lon="1.710758">
        <ele>133.0</ele>
        <time>2022-03-31T09:24:23Z</time>
      </trkpt>
      <trkpt lat="47.547043" lon="1.7107584">
        <ele>133.0</ele>
        <time>2022-03-31T09:24:24Z</time>
      </trkpt>
      <trkpt lat="47.547047" lon="1.7107522">
        <ele>133.0</ele>
        <time>2022-03-31T09:24:25Z</time>
      </trkpt>
      <trkpt lat="47.547062" lon="1.7107446">
        <ele>133.0</ele>
        <time>2022-03-31T09:24:26Z</time>
      </trkpt>
      <trkpt lat="47.547073" lon="1.7107397">
        <ele>132.0</ele>
        <time>2022-03-31T09:24:27Z</time>
      </trkpt>
      <trkpt lat="47.547085" lon="1.7107339">
        <ele>132.0</ele>
        <time>2022-03-31T09:24:28Z</time>
      </trkpt>
      <trkpt lat="47.547096" lon="1.7107325">
        <ele>132.0</ele>
        <time>2022-03-31T09:24:29Z</time>
      </trkpt>
      <trkpt lat="47.547108" lon="1.7107306">
        <ele>132.0</ele>
        <time>2022-03-31T09:24:30Z</time>
      </trkpt>
      <trkpt lat="47.547123" lon="1.7107235">
        <ele>132.0</ele>
        <time>2022-03-31T09:24:31Z</time>
      </trkpt>
      <trkpt lat="47.54714" lon="1.7107216">
        <ele>132.0</ele>
        <time>2022-03-31T09:24:32Z</time>
      </trkpt>
      <trkpt lat="47.54715" lon="1.710717">
        <ele>132.0</ele>
        <time>2022-03-31T09:24:33Z</time>
      </trkpt>
      <trkpt lat="47.547165" lon="1.7107103">
        <ele>132.0</ele>
        <time>2022-03-31T09:24:34Z</time>
      </trkpt>
      <trkpt lat="47.547176" lon="1.7107016">
        <ele>132.0</ele>
        <time>2022-03-31T09:24:35Z</time>
      </trkpt>
      <trkpt lat="47.54719" lon="1.7106981">
        <ele>132.0</ele>
        <time>2022-03-31T09:24:36Z</time>
      </trkpt>
      <trkpt lat="47.547203" lon="1.7106944">
        <ele>132.0</ele>
        <time>2022-03-31T09:24:37Z</time>
      </trkpt>
      <trkpt lat="47.547215" lon="1.7106873">
        <ele>132.0</ele>
        <time>2022-03-31T09:24:38Z</time>
      </trkpt>
      <trkpt lat="47.54723" lon="1.7106826">
        <ele>132.0</ele>
        <time>2022-03-31T09:24:39Z</time>
      </trkpt>
      <trkpt lat="47.547245" lon="1.7106743">
        <ele>132.0</ele>
        <time>2022-03-31T09:24:40Z</time>
      </trkpt>
      <trkpt lat="47.54726" lon="1.7106671">
        <ele>132.0</ele>
        <time>2022-03-31T09:24:41Z</time>
      </trkpt>
      <trkpt lat="47.547276" lon="1.7106628">
        <ele>132.0</ele>
        <time>2022-03-31T09:24:42Z</time>
      </trkpt>
      <trkpt lat="47.54729" lon="1.7106586">
        <ele>132.0</ele>
        <time>2022-03-31T09:24:43Z</time>
      </trkpt>
      <trkpt lat="47.547306" lon="1.7106558">
        <ele>132.0</ele>
        <time>2022-03-31T09:24:44Z</time>
      </trkpt>
      <trkpt lat="47.547318" lon="1.7106501">
        <ele>132.0</ele>
        <time>2022-03-31T09:24:45Z</time>
      </trkpt>
      <trkpt lat="47.54733" lon="1.7106464">
        <ele>133.0</ele>
        <time>2022-03-31T09:24:46Z</time>
      </trkpt>
      <trkpt lat="47.547344" lon="1.7106446">
        <ele>133.0</ele>
        <time>2022-03-31T09:24:47Z</time>
      </trkpt>
      <trkpt lat="47.547363" lon="1.7106447">
        <ele>134.0</ele>
        <time>2022-03-31T09:24:48Z</time>
      </trkpt>
      <trkpt lat="47.54738" lon="1.7106427">
        <ele>134.0</ele>
        <time>2022-03-31T09:24:49Z</time>
      </trkpt>
      <trkpt lat="47.54739" lon="1.7106358">
        <ele>134.0</ele>
        <time>2022-03-31T09:24:50Z</time>
      </trkpt>
      <trkpt lat="47.5474" lon="1.7106334">
        <ele>134.0</ele>
        <time>2022-03-31T09:24:51Z</time>
      </trkpt>
      <trkpt lat="47.54741" lon="1.7106311">
        <ele>134.0</ele>
        <time>2022-03-31T09:24:52Z</time>
      </trkpt>
      <trkpt lat="47.547417" lon="1.7106291">
        <ele>134.0</ele>
        <time>2022-03-31T09:24:53Z</time>
      </trkpt>
      <trkpt lat="47.547424" lon="1.7106284">
        <ele>134.0</ele>
        <time>2022-03-31T09:24:54Z</time>
      </trkpt>
      <trkpt lat="47.547432" lon="1.7106255">
        <ele>133.0</ele>
        <time>2022-03-31T09:24:55Z</time>
      </trkpt>
      <trkpt lat="47.547447" lon="1.7106197">
        <ele>133.0</ele>
        <time>2022-03-31T09:24:56Z</time>
      </trkpt>
      <trkpt lat="47.54746" lon="1.7106162">
        <ele>133.0</ele>
        <time>2022-03-31T09:24:57Z</time>
      </trkpt>
      <trkpt lat="47.54747" lon="1.71061">
        <ele>134.0</ele>
        <time>2022-03-31T09:24:58Z</time>
      </trkpt>
      <trkpt lat="47.547485" lon="1.7106035">
        <ele>133.0</ele>
        <time>2022-03-31T09:24:59Z</time>
      </trkpt>
      <trkpt lat="47.5475" lon="1.7105979">
        <ele>133.0</ele>
        <time>2022-03-31T09:25:00Z</time>
      </trkpt>
      <trkpt lat="47.547512" lon="1.710594">
        <ele>133.0</ele>
        <time>2022-03-31T09:25:01Z</time>
      </trkpt>
      <trkpt lat="47.547527" lon="1.7105895">
        <ele>133.0</ele>
        <time>2022-03-31T09:25:02Z</time>
      </trkpt>
      <trkpt lat="47.54754" lon="1.7105788">
        <ele>133.0</ele>
        <time>2022-03-31T09:25:03Z</time>
      </trkpt>
      <trkpt lat="47.547554" lon="1.710572">
        <ele>133.0</ele>
        <time>2022-03-31T09:25:04Z</time>
      </trkpt>
      <trkpt lat="47.54757" lon="1.710568">
        <ele>132.0</ele>
        <time>2022-03-31T09:25:05Z</time>
      </trkpt>
      <trkpt lat="47.54758" lon="1.7105603">
        <ele>132.0</ele>
        <time>2022-03-31T09:25:06Z</time>
      </trkpt>
      <trkpt lat="47.547596" lon="1.7105637">
        <ele>132.0</ele>
        <time>2022-03-31T09:25:07Z</time>
      </trkpt>
      <trkpt lat="47.547607" lon="1.7105615">
        <ele>132.0</ele>
        <time>2022-03-31T09:25:08Z</time>
      </trkpt>
      <trkpt lat="47.54762" lon="1.7105591">
        <ele>132.0</ele>
        <time>2022-03-31T09:25:09Z</time>
      </trkpt>
      <trkpt lat="47.54763" lon="1.7105564">
        <ele>132.0</ele>
        <time>2022-03-31T09:25:10Z</time>
      </trkpt>
      <trkpt lat="47.54764" lon="1.7105511">
        <ele>131.0</ele>
        <time>2022-03-31T09:25:11Z</time>
      </trkpt>
      <trkpt lat="47.547657" lon="1.7105412">
        <ele>131.0</ele>
        <time>2022-03-31T09:25:12Z</time>
      </trkpt>
      <trkpt lat="47.54767" lon="1.7105347">
        <ele>131.0</ele>
        <time>2022-03-31T09:25:13Z</time>
      </trkpt>
      <trkpt lat="47.547684" lon="1.7105306">
        <ele>131.0</ele>
        <time>2022-03-31T09:25:14Z</time>
      </trkpt>
      <trkpt lat="47.547695" lon="1.7105247">
        <ele>131.0</ele>
        <time>2022-03-31T09:25:15Z</time>
      </trkpt>
      <trkpt lat="47.547707" lon="1.7105187">
        <ele>131.0</ele>
        <time>2022-03-31T09:25:16Z</time>
      </trkpt>
      <trkpt lat="47.547718" lon="1.7105108">
        <ele>131.0</ele>
        <time>2022-03-31T09:25:17Z</time>
      </trkpt>
      <trkpt lat="47.54773" lon="1.7105031">
        <ele>131.0</ele>
        <time>2022-03-31T09:25:18Z</time>
      </trkpt>
      <trkpt lat="47.547745" lon="1.7104949">
        <ele>131.0</ele>
        <time>2022-03-31T09:25:19Z</time>
      </trkpt>
      <trkpt lat="47.547756" lon="1.7104923">
        <ele>131.0</ele>
        <time>2022-03-31T09:25:20Z</time>
      </trkpt>
      <trkpt lat="47.547768" lon="1.7104889">
        <ele>131.0</ele>
        <time>2022-03-31T09:25:21Z</time>
      </trkpt>
      <trkpt lat="47.54778" lon="1.7104824">
        <ele>131.0</ele>
        <time>2022-03-31T09:25:22Z</time>
      </trkpt>
      <trkpt lat="47.547794" lon="1.7104814">
        <ele>131.0</ele>
        <time>2022-03-31T09:25:23Z</time>
      </trkpt>
      <trkpt lat="47.547806" lon="1.7104827">
        <ele>131.0</ele>
        <time>2022-03-31T09:25:24Z</time>
      </trkpt>
      <trkpt lat="47.547817" lon="1.7104791">
        <ele>131.0</ele>
        <time>2022-03-31T09:25:25Z</time>
      </trkpt>
      <trkpt lat="47.547832" lon="1.7104744">
        <ele>131.0</ele>
        <time>2022-03-31T09:25:26Z</time>
      </trkpt>
      <trkpt lat="47.547848" lon="1.710471">
        <ele>131.0</ele>
        <time>2022-03-31T09:25:27Z</time>
      </trkpt>
      <trkpt lat="47.54786" lon="1.710471">
        <ele>131.0</ele>
        <time>2022-03-31T09:25:28Z</time>
      </trkpt>
      <trkpt lat="47.547874" lon="1.7104703">
        <ele>131.0</ele>
        <time>2022-03-31T09:25:29Z</time>
      </trkpt>
      <trkpt lat="47.54789" lon="1.7104703">
        <ele>132.0</ele>
        <time>2022-03-31T09:25:30Z</time>
      </trkpt>
      <trkpt lat="47.5479" lon="1.71047">
        <ele>132.0</ele>
        <time>2022-03-31T09:25:31Z</time>
      </trkpt>
      <trkpt lat="47.547916" lon="1.7104672">
        <ele>132.0</ele>
        <time>2022-03-31T09:25:32Z</time>
      </trkpt>
      <trkpt lat="47.547928" lon="1.7104648">
        <ele>132.0</ele>
        <time>2022-03-31T09:25:33Z</time>
      </trkpt>
      <trkpt lat="47.547943" lon="1.7104592">
        <ele>132.0</ele>
        <time>2022-03-31T09:25:34Z</time>
      </trkpt>
      <trkpt lat="47.547955" lon="1.7104578">
        <ele>132.0</ele>
        <time>2022-03-31T09:25:35Z</time>
      </trkpt>
      <trkpt lat="47.547966" lon="1.710454">
        <ele>132.0</ele>
        <time>2022-03-31T09:25:36Z</time>
      </trkpt>
      <trkpt lat="47.547977" lon="1.7104524">
        <ele>133.0</ele>
        <time>2022-03-31T09:25:37Z</time>
      </trkpt>
      <trkpt lat="47.547993" lon="1.7104534">
        <ele>132.0</ele>
        <time>2022-03-31T09:25:38Z</time>
      </trkpt>
      <trkpt lat="47.548004" lon="1.7104462">
        <ele>132.0</ele>
        <time>2022-03-31T09:25:39Z</time>
      </trkpt>
      <trkpt lat="47.54802" lon="1.71044">
        <ele>133.0</ele>
        <time>2022-03-31T09:25:40Z</time>
      </trkpt>
      <trkpt lat="47.54803" lon="1.7104355">
        <ele>133.0</ele>
        <time>2022-03-31T09:25:41Z</time>
      </trkpt>
      <trkpt lat="47.548042" lon="1.7104316">
        <ele>133.0</ele>
        <time>2022-03-31T09:25:42Z</time>
      </trkpt>
      <trkpt lat="47.548054" lon="1.7104282">
        <ele>133.0</ele>
        <time>2022-03-31T09:25:43Z</time>
      </trkpt>
      <trkpt lat="47.54807" lon="1.7104264">
        <ele>133.0</ele>
        <time>2022-03-31T09:25:44Z</time>
      </trkpt>
      <trkpt lat="47.54808" lon="1.7104238">
        <ele>133.0</ele>
        <time>2022-03-31T09:25:45Z</time>
      </trkpt>
      <trkpt lat="47.548096" lon="1.7104206">
        <ele>134.0</ele>
        <time>2022-03-31T09:25:46Z</time>
      </trkpt>
      <trkpt lat="47.548107" lon="1.7104156">
        <ele>134.0</ele>
        <time>2022-03-31T09:25:47Z</time>
      </trkpt>
      <trkpt lat="47.54812" lon="1.7104113">
        <ele>134.0</ele>
        <time>2022-03-31T09:25:48Z</time>
      </trkpt>
      <trkpt lat="47.548134" lon="1.7104063">
        <ele>133.0</ele>
        <time>2022-03-31T09:25:49Z</time>
      </trkpt>
      <trkpt lat="47.54814" lon="1.7103995">
        <ele>133.0</ele>
        <time>2022-03-31T09:25:50Z</time>
      </trkpt>
      <trkpt lat="47.548153" lon="1.7103946">
        <ele>132.0</ele>
        <time>2022-03-31T09:25:51Z</time>
      </trkpt>
      <trkpt lat="47.548164" lon="1.7103899">
        <ele>132.0</ele>
        <time>2022-03-31T09:25:52Z</time>
      </trkpt>
      <trkpt lat="47.548172" lon="1.7103847">
        <ele>132.0</ele>
        <time>2022-03-31T09:25:53Z</time>
      </trkpt>
      <trkpt lat="47.548183" lon="1.7103771">
        <ele>132.0</ele>
        <time>2022-03-31T09:25:54Z</time>
      </trkpt>
      <trkpt lat="47.548195" lon="1.7103726">
        <ele>131.0</ele>
        <time>2022-03-31T09:25:55Z</time>
      </trkpt>
      <trkpt lat="47.548206" lon="1.7103697">
        <ele>131.0</ele>
        <time>2022-03-31T09:25:56Z</time>
      </trkpt>
      <trkpt lat="47.548218" lon="1.7103665">
        <ele>131.0</ele>
        <time>2022-03-31T09:25:57Z</time>
      </trkpt>
      <trkpt lat="47.548225" lon="1.7103657">
        <ele>131.0</ele>
        <time>2022-03-31T09:25:58Z</time>
      </trkpt>
      <trkpt lat="47.548233" lon="1.7103652">
        <ele>131.0</ele>
        <time>2022-03-31T09:25:59Z</time>
      </trkpt>
      <trkpt lat="47.54824" lon="1.7103606">
        <ele>131.0</ele>
        <time>2022-03-31T09:26:00Z</time>
      </trkpt>
      <trkpt lat="47.548252" lon="1.7103556">
        <ele>131.0</ele>
        <time>2022-03-31T09:26:01Z</time>
      </trkpt>
      <trkpt lat="47.548264" lon="1.710351">
        <ele>131.0</ele>
        <time>2022-03-31T09:26:02Z</time>
      </trkpt>
      <trkpt lat="47.54827" lon="1.7103395">
        <ele>131.0</ele>
        <time>2022-03-31T09:26:03Z</time>
      </trkpt>
      <trkpt lat="47.54828" lon="1.7103288">
        <ele>131.0</ele>
        <time>2022-03-31T09:26:04Z</time>
      </trkpt>
      <trkpt lat="47.54829" lon="1.710322">
        <ele>131.0</ele>
        <time>2022-03-31T09:26:05Z</time>
      </trkpt>
      <trkpt lat="47.5483" lon="1.7103201">
        <ele>131.0</ele>
        <time>2022-03-31T09:26:06Z</time>
      </trkpt>
      <trkpt lat="47.548313" lon="1.7103138">
        <ele>131.0</ele>
        <time>2022-03-31T09:26:07Z</time>
      </trkpt>
      <trkpt lat="47.548325" lon="1.7103055">
        <ele>131.0</ele>
        <time>2022-03-31T09:26:08Z</time>
      </trkpt>
      <trkpt lat="47.548336" lon="1.7102939">
        <ele>131.0</ele>
        <time>2022-03-31T09:26:09Z</time>
      </trkpt>
      <trkpt lat="47.548355" lon="1.7102844">
        <ele>132.0</ele>
        <time>2022-03-31T09:26:10Z</time>
      </trkpt>
      <trkpt lat="47.54837" lon="1.7102752">
        <ele>131.0</ele>
        <time>2022-03-31T09:26:11Z</time>
      </trkpt>
      <trkpt lat="47.54838" lon="1.7102654">
        <ele>132.0</ele>
        <time>2022-03-31T09:26:12Z</time>
      </trkpt>
      <trkpt lat="47.548397" lon="1.7102641">
        <ele>132.0</ele>
        <time>2022-03-31T09:26:13Z</time>
      </trkpt>
      <trkpt lat="47.54841" lon="1.7102661">
        <ele>132.0</ele>
        <time>2022-03-31T09:26:14Z</time>
      </trkpt>
      <trkpt lat="47.54842" lon="1.7102616">
        <ele>132.0</ele>
        <time>2022-03-31T09:26:15Z</time>
      </trkpt>
      <trkpt lat="47.54843" lon="1.7102537">
        <ele>132.0</ele>
        <time>2022-03-31T09:26:16Z</time>
      </trkpt>
      <trkpt lat="47.54844" lon="1.7102444">
        <ele>131.0</ele>
        <time>2022-03-31T09:26:17Z</time>
      </trkpt>
      <trkpt lat="47.548454" lon="1.7102382">
        <ele>131.0</ele>
        <time>2022-03-31T09:26:18Z</time>
      </trkpt>
      <trkpt lat="47.548466" lon="1.7102392">
        <ele>131.0</ele>
        <time>2022-03-31T09:26:19Z</time>
      </trkpt>
      <trkpt lat="47.548477" lon="1.7102355">
        <ele>132.0</ele>
        <time>2022-03-31T09:26:20Z</time>
      </trkpt>
      <trkpt lat="47.548492" lon="1.7102342">
        <ele>132.0</ele>
        <time>2022-03-31T09:26:21Z</time>
      </trkpt>
      <trkpt lat="47.548504" lon="1.7102296">
        <ele>131.0</ele>
        <time>2022-03-31T09:26:22Z</time>
      </trkpt>
      <trkpt lat="47.54851" lon="1.7102215">
        <ele>131.0</ele>
        <time>2022-03-31T09:26:23Z</time>
      </trkpt>
      <trkpt lat="47.548523" lon="1.710211">
        <ele>131.0</ele>
        <time>2022-03-31T09:26:24Z</time>
      </trkpt>
      <trkpt lat="47.548534" lon="1.7102004">
        <ele>131.0</ele>
        <time>2022-03-31T09:26:25Z</time>
      </trkpt>
      <trkpt lat="47.54855" lon="1.710192">
        <ele>131.0</ele>
        <time>2022-03-31T09:26:26Z</time>
      </trkpt>
      <trkpt lat="47.54856" lon="1.7101852">
        <ele>131.0</ele>
        <time>2022-03-31T09:26:27Z</time>
      </trkpt>
      <trkpt lat="47.548576" lon="1.7101796">
        <ele>131.0</ele>
        <time>2022-03-31T09:26:28Z</time>
      </trkpt>
      <trkpt lat="47.548584" lon="1.7101725">
        <ele>131.0</ele>
        <time>2022-03-31T09:26:29Z</time>
      </trkpt>
      <trkpt lat="47.5486" lon="1.7101648">
        <ele>131.0</ele>
        <time>2022-03-31T09:26:30Z</time>
      </trkpt>
      <trkpt lat="47.54861" lon="1.7101601">
        <ele>131.0</ele>
        <time>2022-03-31T09:26:31Z</time>
      </trkpt>
      <trkpt lat="47.54862" lon="1.7101578">
        <ele>131.0</ele>
        <time>2022-03-31T09:26:32Z</time>
      </trkpt>
      <trkpt lat="47.548634" lon="1.710152">
        <ele>131.0</ele>
        <time>2022-03-31T09:26:33Z</time>
      </trkpt>
      <trkpt lat="47.548645" lon="1.7101465">
        <ele>132.0</ele>
        <time>2022-03-31T09:26:34Z</time>
      </trkpt>
      <trkpt lat="47.548656" lon="1.7101396">
        <ele>132.0</ele>
        <time>2022-03-31T09:26:35Z</time>
      </trkpt>
      <trkpt lat="47.548668" lon="1.7101376">
        <ele>132.0</ele>
        <time>2022-03-31T09:26:36Z</time>
      </trkpt>
      <trkpt lat="47.54868" lon="1.7101345">
        <ele>133.0</ele>
        <time>2022-03-31T09:26:37Z</time>
      </trkpt>
      <trkpt lat="47.54869" lon="1.7101303">
        <ele>133.0</ele>
        <time>2022-03-31T09:26:38Z</time>
      </trkpt>
      <trkpt lat="47.548702" lon="1.710126">
        <ele>133.0</ele>
        <time>2022-03-31T09:26:39Z</time>
      </trkpt>
      <trkpt lat="47.548714" lon="1.7101207">
        <ele>134.0</ele>
        <time>2022-03-31T09:26:40Z</time>
      </trkpt>
      <trkpt lat="47.548725" lon="1.7101148">
        <ele>134.0</ele>
        <time>2022-03-31T09:26:41Z</time>
      </trkpt>
      <trkpt lat="47.54874" lon="1.7101102">
        <ele>134.0</ele>
        <time>2022-03-31T09:26:42Z</time>
      </trkpt>
      <trkpt lat="47.54875" lon="1.710101">
        <ele>134.0</ele>
        <time>2022-03-31T09:26:43Z</time>
      </trkpt>
      <trkpt lat="47.548767" lon="1.7100941">
        <ele>134.0</ele>
        <time>2022-03-31T09:26:44Z</time>
      </trkpt>
      <trkpt lat="47.548782" lon="1.7100883">
        <ele>134.0</ele>
        <time>2022-03-31T09:26:45Z</time>
      </trkpt>
      <trkpt lat="47.548794" lon="1.7100829">
        <ele>134.0</ele>
        <time>2022-03-31T09:26:46Z</time>
      </trkpt>
      <trkpt lat="47.548805" lon="1.7100761">
        <ele>134.0</ele>
        <time>2022-03-31T09:26:47Z</time>
      </trkpt>
      <trkpt lat="47.54882" lon="1.710066">
        <ele>134.0</ele>
        <time>2022-03-31T09:26:48Z</time>
      </trkpt>
      <trkpt lat="47.548832" lon="1.7100587">
        <ele>134.0</ele>
        <time>2022-03-31T09:26:49Z</time>
      </trkpt>
      <trkpt lat="47.54884" lon="1.7100508">
        <ele>134.0</ele>
        <time>2022-03-31T09:26:50Z</time>
      </trkpt>
      <trkpt lat="47.54885" lon="1.7100472">
        <ele>135.0</ele>
        <time>2022-03-31T09:26:51Z</time>
      </trkpt>
      <trkpt lat="47.548862" lon="1.710044">
        <ele>135.0</ele>
        <time>2022-03-31T09:26:52Z</time>
      </trkpt>
      <trkpt lat="47.54888" lon="1.7100384">
        <ele>136.0</ele>
        <time>2022-03-31T09:26:53Z</time>
      </trkpt>
      <trkpt lat="47.548893" lon="1.7100297">
        <ele>135.0</ele>
        <time>2022-03-31T09:26:54Z</time>
      </trkpt>
      <trkpt lat="47.548904" lon="1.7100236">
        <ele>135.0</ele>
        <time>2022-03-31T09:26:55Z</time>
      </trkpt>
      <trkpt lat="47.54892" lon="1.710021">
        <ele>136.0</ele>
        <time>2022-03-31T09:26:56Z</time>
      </trkpt>
      <trkpt lat="47.54894" lon="1.7100148">
        <ele>135.0</ele>
        <time>2022-03-31T09:26:57Z</time>
      </trkpt>
      <trkpt lat="47.54895" lon="1.7100083">
        <ele>136.0</ele>
        <time>2022-03-31T09:26:58Z</time>
      </trkpt>
      <trkpt lat="47.548965" lon="1.7100028">
        <ele>136.0</ele>
        <time>2022-03-31T09:26:59Z</time>
      </trkpt>
      <trkpt lat="47.548985" lon="1.709999">
        <ele>136.0</ele>
        <time>2022-03-31T09:27:00Z</time>
      </trkpt>
      <trkpt lat="47.548996" lon="1.7099925">
        <ele>136.0</ele>
        <time>2022-03-31T09:27:01Z</time>
      </trkpt>
      <trkpt lat="47.549007" lon="1.7099848">
        <ele>136.0</ele>
        <time>2022-03-31T09:27:02Z</time>
      </trkpt>
      <trkpt lat="47.54902" lon="1.7099816">
        <ele>136.0</ele>
        <time>2022-03-31T09:27:03Z</time>
      </trkpt>
      <trkpt lat="47.549034" lon="1.7099739">
        <ele>136.0</ele>
        <time>2022-03-31T09:27:04Z</time>
      </trkpt>
      <trkpt lat="47.549046" lon="1.7099677">
        <ele>136.0</ele>
        <time>2022-03-31T09:27:05Z</time>
      </trkpt>
      <trkpt lat="47.54906" lon="1.7099625">
        <ele>136.0</ele>
        <time>2022-03-31T09:27:06Z</time>
      </trkpt>
      <trkpt lat="47.54907" lon="1.709958">
        <ele>136.0</ele>
        <time>2022-03-31T09:27:07Z</time>
      </trkpt>
      <trkpt lat="47.54908" lon="1.7099527">
        <ele>136.0</ele>
        <time>2022-03-31T09:27:08Z</time>
      </trkpt>
      <trkpt lat="47.54909" lon="1.7099469">
        <ele>136.0</ele>
        <time>2022-03-31T09:27:09Z</time>
      </trkpt>
      <trkpt lat="47.549107" lon="1.7099435">
        <ele>136.0</ele>
        <time>2022-03-31T09:27:10Z</time>
      </trkpt>
      <trkpt lat="47.54912" lon="1.7099406">
        <ele>136.0</ele>
        <time>2022-03-31T09:27:11Z</time>
      </trkpt>
      <trkpt lat="47.549133" lon="1.7099388">
        <ele>136.0</ele>
        <time>2022-03-31T09:27:12Z</time>
      </trkpt>
      <trkpt lat="47.54915" lon="1.709937">
        <ele>136.0</ele>
        <time>2022-03-31T09:27:13Z</time>
      </trkpt>
      <trkpt lat="47.549168" lon="1.7099329">
        <ele>137.0</ele>
        <time>2022-03-31T09:27:14Z</time>
      </trkpt>
      <trkpt lat="47.54918" lon="1.7099322">
        <ele>137.0</ele>
        <time>2022-03-31T09:27:15Z</time>
      </trkpt>
      <trkpt lat="47.549187" lon="1.709933">
        <ele>137.0</ele>
        <time>2022-03-31T09:27:16Z</time>
      </trkpt>
      <trkpt lat="47.549202" lon="1.7099277">
        <ele>137.0</ele>
        <time>2022-03-31T09:27:17Z</time>
      </trkpt>
      <trkpt lat="47.54921" lon="1.7099246">
        <ele>137.0</ele>
        <time>2022-03-31T09:27:18Z</time>
      </trkpt>
      <trkpt lat="47.54922" lon="1.7099218">
        <ele>137.0</ele>
        <time>2022-03-31T09:27:19Z</time>
      </trkpt>
      <trkpt lat="47.549232" lon="1.709919">
        <ele>137.0</ele>
        <time>2022-03-31T09:27:20Z</time>
      </trkpt>
      <trkpt lat="47.549248" lon="1.7099135">
        <ele>138.0</ele>
        <time>2022-03-31T09:27:21Z</time>
      </trkpt>
      <trkpt lat="47.549263" lon="1.7099054">
        <ele>138.0</ele>
        <time>2022-03-31T09:27:22Z</time>
      </trkpt>
      <trkpt lat="47.549274" lon="1.7098968">
        <ele>137.0</ele>
        <time>2022-03-31T09:27:23Z</time>
      </trkpt>
      <trkpt lat="47.549286" lon="1.709885">
        <ele>137.0</ele>
        <time>2022-03-31T09:27:24Z</time>
      </trkpt>
      <trkpt lat="47.5493" lon="1.709877">
        <ele>137.0</ele>
        <time>2022-03-31T09:27:25Z</time>
      </trkpt>
      <trkpt lat="47.549313" lon="1.709873">
        <ele>137.0</ele>
        <time>2022-03-31T09:27:26Z</time>
      </trkpt>
      <trkpt lat="47.549324" lon="1.70987">
        <ele>138.0</ele>
        <time>2022-03-31T09:27:27Z</time>
      </trkpt>
      <trkpt lat="47.549335" lon="1.7098649">
        <ele>138.0</ele>
        <time>2022-03-31T09:27:28Z</time>
      </trkpt>
      <trkpt lat="47.54935" lon="1.7098584">
        <ele>137.0</ele>
        <time>2022-03-31T09:27:29Z</time>
      </trkpt>
      <trkpt lat="47.549366" lon="1.7098521">
        <ele>137.0</ele>
        <time>2022-03-31T09:27:30Z</time>
      </trkpt>
      <trkpt lat="47.549377" lon="1.7098475">
        <ele>137.0</ele>
        <time>2022-03-31T09:27:31Z</time>
      </trkpt>
      <trkpt lat="47.54939" lon="1.7098407">
        <ele>137.0</ele>
        <time>2022-03-31T09:27:32Z</time>
      </trkpt>
      <trkpt lat="47.5494" lon="1.7098362">
        <ele>137.0</ele>
        <time>2022-03-31T09:27:33Z</time>
      </trkpt>
      <trkpt lat="47.549416" lon="1.7098322">
        <ele>136.0</ele>
        <time>2022-03-31T09:27:34Z</time>
      </trkpt>
      <trkpt lat="47.549427" lon="1.7098273">
        <ele>136.0</ele>
        <time>2022-03-31T09:27:35Z</time>
      </trkpt>
      <trkpt lat="47.549442" lon="1.7098228">
        <ele>137.0</ele>
        <time>2022-03-31T09:27:36Z</time>
      </trkpt>
      <trkpt lat="47.549458" lon="1.7098194">
        <ele>137.0</ele>
        <time>2022-03-31T09:27:37Z</time>
      </trkpt>
      <trkpt lat="47.54947" lon="1.709815">
        <ele>137.0</ele>
        <time>2022-03-31T09:27:38Z</time>
      </trkpt>
      <trkpt lat="47.549484" lon="1.7098097">
        <ele>137.0</ele>
        <time>2022-03-31T09:27:39Z</time>
      </trkpt>
      <trkpt lat="47.54949" lon="1.7098055">
        <ele>136.0</ele>
        <time>2022-03-31T09:27:40Z</time>
      </trkpt>
      <trkpt lat="47.549503" lon="1.7098023">
        <ele>136.0</ele>
        <time>2022-03-31T09:27:41Z</time>
      </trkpt>
      <trkpt lat="47.54952" lon="1.7097967">
        <ele>136.0</ele>
        <time>2022-03-31T09:27:42Z</time>
      </trkpt>
      <trkpt lat="47.54953" lon="1.7097948">
        <ele>136.0</ele>
        <time>2022-03-31T09:27:43Z</time>
      </trkpt>
      <trkpt lat="47.54954" lon="1.70979">
        <ele>136.0</ele>
        <time>2022-03-31T09:27:44Z</time>
      </trkpt>
      <trkpt lat="47.549553" lon="1.7097839">
        <ele>136.0</ele>
        <time>2022-03-31T09:27:45Z</time>
      </trkpt>
      <trkpt lat="47.549564" lon="1.7097764">
        <ele>136.0</ele>
        <time>2022-03-31T09:27:46Z</time>
      </trkpt>
      <trkpt lat="47.549576" lon="1.7097728">
        <ele>136.0</ele>
        <time>2022-03-31T09:27:47Z</time>
      </trkpt>
      <trkpt lat="47.54959" lon="1.7097683">
        <ele>135.0</ele>
        <time>2022-03-31T09:27:48Z</time>
      </trkpt>
      <trkpt lat="47.5496" lon="1.70976">
        <ele>135.0</ele>
        <time>2022-03-31T09:27:49Z</time>
      </trkpt>
      <trkpt lat="47.54961" lon="1.7097511">
        <ele>135.0</ele>
        <time>2022-03-31T09:27:50Z</time>
      </trkpt>
      <trkpt lat="47.54962" lon="1.7097447">
        <ele>135.0</ele>
        <time>2022-03-31T09:27:51Z</time>
      </trkpt>
      <trkpt lat="47.549633" lon="1.7097425">
        <ele>135.0</ele>
        <time>2022-03-31T09:27:52Z</time>
      </trkpt>
      <trkpt lat="47.54965" lon="1.7097386">
        <ele>135.0</ele>
        <time>2022-03-31T09:27:53Z</time>
      </trkpt>
      <trkpt lat="47.54966" lon="1.709734">
        <ele>135.0</ele>
        <time>2022-03-31T09:27:54Z</time>
      </trkpt>
      <trkpt lat="47.54967" lon="1.7097282">
        <ele>136.0</ele>
        <time>2022-03-31T09:27:55Z</time>
      </trkpt>
      <trkpt lat="47.549683" lon="1.7097254">
        <ele>135.0</ele>
        <time>2022-03-31T09:27:56Z</time>
      </trkpt>
      <trkpt lat="47.549694" lon="1.7097253">
        <ele>135.0</ele>
        <time>2022-03-31T09:27:57Z</time>
      </trkpt>
      <trkpt lat="47.549706" lon="1.7097219">
        <ele>135.0</ele>
        <time>2022-03-31T09:27:58Z</time>
      </trkpt>
      <trkpt lat="47.549717" lon="1.709718">
        <ele>135.0</ele>
        <time>2022-03-31T09:27:59Z</time>
      </trkpt>
      <trkpt lat="47.549732" lon="1.7097142">
        <ele>136.0</ele>
        <time>2022-03-31T09:28:00Z</time>
      </trkpt>
      <trkpt lat="47.549744" lon="1.7097082">
        <ele>135.0</ele>
        <time>2022-03-31T09:28:01Z</time>
      </trkpt>
      <trkpt lat="47.54976" lon="1.7097037">
        <ele>135.0</ele>
        <time>2022-03-31T09:28:02Z</time>
      </trkpt>
      <trkpt lat="47.54977" lon="1.7097003">
        <ele>135.0</ele>
        <time>2022-03-31T09:28:03Z</time>
      </trkpt>
      <trkpt lat="47.54978" lon="1.7097">
        <ele>135.0</ele>
        <time>2022-03-31T09:28:04Z</time>
      </trkpt>
      <trkpt lat="47.549793" lon="1.7096977">
        <ele>135.0</ele>
        <time>2022-03-31T09:28:05Z</time>
      </trkpt>
      <trkpt lat="47.549805" lon="1.7096971">
        <ele>135.0</ele>
        <time>2022-03-31T09:28:06Z</time>
      </trkpt>
      <trkpt lat="47.54982" lon="1.7096938">
        <ele>135.0</ele>
        <time>2022-03-31T09:28:07Z</time>
      </trkpt>
      <trkpt lat="47.54983" lon="1.7096888">
        <ele>136.0</ele>
        <time>2022-03-31T09:28:08Z</time>
      </trkpt>
      <trkpt lat="47.549843" lon="1.7096868">
        <ele>135.0</ele>
        <time>2022-03-31T09:28:09Z</time>
      </trkpt>
      <trkpt lat="47.549854" lon="1.7096844">
        <ele>135.0</ele>
        <time>2022-03-31T09:28:10Z</time>
      </trkpt>
      <trkpt lat="47.54987" lon="1.7096803">
        <ele>135.0</ele>
        <time>2022-03-31T09:28:11Z</time>
      </trkpt>
      <trkpt lat="47.549877" lon="1.7096717">
        <ele>135.0</ele>
        <time>2022-03-31T09:28:12Z</time>
      </trkpt>
      <trkpt lat="47.54989" lon="1.709667">
        <ele>135.0</ele>
        <time>2022-03-31T09:28:13Z</time>
      </trkpt>
      <trkpt lat="47.5499" lon="1.7096672">
        <ele>135.0</ele>
        <time>2022-03-31T09:28:14Z</time>
      </trkpt>
      <trkpt lat="47.54991" lon="1.7096713">
        <ele>135.0</ele>
        <time>2022-03-31T09:28:15Z</time>
      </trkpt>
      <trkpt lat="47.549923" lon="1.7096746">
        <ele>135.0</ele>
        <time>2022-03-31T09:28:16Z</time>
      </trkpt>
      <trkpt lat="47.549934" lon="1.7096785">
        <ele>135.0</ele>
        <time>2022-03-31T09:28:17Z</time>
      </trkpt>
      <trkpt lat="47.549942" lon="1.7096896">
        <ele>134.0</ele>
        <time>2022-03-31T09:28:18Z</time>
      </trkpt>
      <trkpt lat="47.54995" lon="1.7096944">
        <ele>134.0</ele>
        <time>2022-03-31T09:28:19Z</time>
      </trkpt>
      <trkpt lat="47.549957" lon="1.7096997">
        <ele>134.0</ele>
        <time>2022-03-31T09:28:20Z</time>
      </trkpt>
      <trkpt lat="47.54997" lon="1.7097076">
        <ele>134.0</ele>
        <time>2022-03-31T09:28:21Z</time>
      </trkpt>
      <trkpt lat="47.549973" lon="1.7097149">
        <ele>134.0</ele>
        <time>2022-03-31T09:28:22Z</time>
      </trkpt>
      <trkpt lat="47.54998" lon="1.7097269">
        <ele>134.0</ele>
        <time>2022-03-31T09:28:23Z</time>
      </trkpt>
      <trkpt lat="47.549984" lon="1.7097414">
        <ele>134.0</ele>
        <time>2022-03-31T09:28:24Z</time>
      </trkpt>
      <trkpt lat="47.549988" lon="1.7097597">
        <ele>134.0</ele>
        <time>2022-03-31T09:28:25Z</time>
      </trkpt>
      <trkpt lat="47.549988" lon="1.7097782">
        <ele>134.0</ele>
        <time>2022-03-31T09:28:26Z</time>
      </trkpt>
      <trkpt lat="47.54999" lon="1.7097943">
        <ele>134.0</ele>
        <time>2022-03-31T09:28:27Z</time>
      </trkpt>
      <trkpt lat="47.54999" lon="1.7098126">
        <ele>134.0</ele>
        <time>2022-03-31T09:28:28Z</time>
      </trkpt>
      <trkpt lat="47.549995" lon="1.7098302">
        <ele>135.0</ele>
        <time>2022-03-31T09:28:29Z</time>
      </trkpt>
      <trkpt lat="47.549995" lon="1.7098494">
        <ele>135.0</ele>
        <time>2022-03-31T09:28:30Z</time>
      </trkpt>
      <trkpt lat="47.550003" lon="1.7098684">
        <ele>134.0</ele>
        <time>2022-03-31T09:28:31Z</time>
      </trkpt>
      <trkpt lat="47.550003" lon="1.7098871">
        <ele>134.0</ele>
        <time>2022-03-31T09:28:32Z</time>
      </trkpt>
      <trkpt lat="47.550007" lon="1.7099048">
        <ele>135.0</ele>
        <time>2022-03-31T09:28:33Z</time>
      </trkpt>
      <trkpt lat="47.55001" lon="1.7099208">
        <ele>135.0</ele>
        <time>2022-03-31T09:28:34Z</time>
      </trkpt>
      <trkpt lat="47.550014" lon="1.7099353">
        <ele>134.0</ele>
        <time>2022-03-31T09:28:35Z</time>
      </trkpt>
      <trkpt lat="47.550014" lon="1.709952">
        <ele>134.0</ele>
        <time>2022-03-31T09:28:36Z</time>
      </trkpt>
      <trkpt lat="47.55002" lon="1.7099695">
        <ele>134.0</ele>
        <time>2022-03-31T09:28:37Z</time>
      </trkpt>
      <trkpt lat="47.55002" lon="1.7099844">
        <ele>134.0</ele>
        <time>2022-03-31T09:28:38Z</time>
      </trkpt>
      <trkpt lat="47.550022" lon="1.7099999">
        <ele>134.0</ele>
        <time>2022-03-31T09:28:39Z</time>
      </trkpt>
      <trkpt lat="47.550026" lon="1.7100182">
        <ele>133.0</ele>
        <time>2022-03-31T09:28:40Z</time>
      </trkpt>
      <trkpt lat="47.55003" lon="1.7100387">
        <ele>133.0</ele>
        <time>2022-03-31T09:28:41Z</time>
      </trkpt>
      <trkpt lat="47.550034" lon="1.7100569">
        <ele>133.0</ele>
        <time>2022-03-31T09:28:42Z</time>
      </trkpt>
      <trkpt lat="47.550037" lon="1.7100716">
        <ele>133.0</ele>
        <time>2022-03-31T09:28:43Z</time>
      </trkpt>
      <trkpt lat="47.55004" lon="1.7100894">
        <ele>133.0</ele>
        <time>2022-03-31T09:28:44Z</time>
      </trkpt>
      <trkpt lat="47.55005" lon="1.7101091">
        <ele>133.0</ele>
        <time>2022-03-31T09:28:45Z</time>
      </trkpt>
      <trkpt lat="47.550053" lon="1.7101256">
        <ele>133.0</ele>
        <time>2022-03-31T09:28:46Z</time>
      </trkpt>
      <trkpt lat="47.550056" lon="1.7101399">
        <ele>134.0</ele>
        <time>2022-03-31T09:28:47Z</time>
      </trkpt>
      <trkpt lat="47.55006" lon="1.710152">
        <ele>134.0</ele>
        <time>2022-03-31T09:28:48Z</time>
      </trkpt>
      <trkpt lat="47.550064" lon="1.710165">
        <ele>134.0</ele>
        <time>2022-03-31T09:28:49Z</time>
      </trkpt>
      <trkpt lat="47.550064" lon="1.7101834">
        <ele>134.0</ele>
        <time>2022-03-31T09:28:50Z</time>
      </trkpt>
      <trkpt lat="47.550064" lon="1.7102019">
        <ele>134.0</ele>
        <time>2022-03-31T09:28:51Z</time>
      </trkpt>
      <trkpt lat="47.550064" lon="1.7102201">
        <ele>134.0</ele>
        <time>2022-03-31T09:28:52Z</time>
      </trkpt>
      <trkpt lat="47.550068" lon="1.7102422">
        <ele>134.0</ele>
        <time>2022-03-31T09:28:53Z</time>
      </trkpt>
      <trkpt lat="47.55007" lon="1.7102622">
        <ele>134.0</ele>
        <time>2022-03-31T09:28:54Z</time>
      </trkpt>
      <trkpt lat="47.55008" lon="1.710276">
        <ele>134.0</ele>
        <time>2022-03-31T09:28:55Z</time>
      </trkpt>
      <trkpt lat="47.550083" lon="1.7102879">
        <ele>134.0</ele>
        <time>2022-03-31T09:28:56Z</time>
      </trkpt>
      <trkpt lat="47.550087" lon="1.7103014">
        <ele>135.0</ele>
        <time>2022-03-31T09:28:57Z</time>
      </trkpt>
      <trkpt lat="47.55009" lon="1.7103189">
        <ele>135.0</ele>
        <time>2022-03-31T09:28:58Z</time>
      </trkpt>
      <trkpt lat="47.550095" lon="1.7103342">
        <ele>135.0</ele>
        <time>2022-03-31T09:28:59Z</time>
      </trkpt>
      <trkpt lat="47.550095" lon="1.7103477">
        <ele>135.0</ele>
        <time>2022-03-31T09:29:00Z</time>
      </trkpt>
      <trkpt lat="47.5501" lon="1.7103634">
        <ele>134.0</ele>
        <time>2022-03-31T09:29:01Z</time>
      </trkpt>
      <trkpt lat="47.550102" lon="1.7103806">
        <ele>134.0</ele>
        <time>2022-03-31T09:29:02Z</time>
      </trkpt>
      <trkpt lat="47.550102" lon="1.7104027">
        <ele>134.0</ele>
        <time>2022-03-31T09:29:03Z</time>
      </trkpt>
      <trkpt lat="47.550106" lon="1.7104243">
        <ele>134.0</ele>
        <time>2022-03-31T09:29:04Z</time>
      </trkpt>
      <trkpt lat="47.55011" lon="1.7104405">
        <ele>135.0</ele>
        <time>2022-03-31T09:29:05Z</time>
      </trkpt>
      <trkpt lat="47.550114" lon="1.7104586">
        <ele>135.0</ele>
        <time>2022-03-31T09:29:06Z</time>
      </trkpt>
      <trkpt lat="47.550117" lon="1.7104782">
        <ele>135.0</ele>
        <time>2022-03-31T09:29:07Z</time>
      </trkpt>
      <trkpt lat="47.550117" lon="1.7104964">
        <ele>136.0</ele>
        <time>2022-03-31T09:29:08Z</time>
      </trkpt>
      <trkpt lat="47.550125" lon="1.7105145">
        <ele>136.0</ele>
        <time>2022-03-31T09:29:09Z</time>
      </trkpt>
      <trkpt lat="47.55013" lon="1.7105354">
        <ele>136.0</ele>
        <time>2022-03-31T09:29:10Z</time>
      </trkpt>
      <trkpt lat="47.550133" lon="1.7105533">
        <ele>136.0</ele>
        <time>2022-03-31T09:29:11Z</time>
      </trkpt>
      <trkpt lat="47.55014" lon="1.7105736">
        <ele>136.0</ele>
        <time>2022-03-31T09:29:12Z</time>
      </trkpt>
      <trkpt lat="47.550144" lon="1.7105916">
        <ele>136.0</ele>
        <time>2022-03-31T09:29:13Z</time>
      </trkpt>
      <trkpt lat="47.550144" lon="1.7106074">
        <ele>136.0</ele>
        <time>2022-03-31T09:29:14Z</time>
      </trkpt>
      <trkpt lat="47.55015" lon="1.7106277">
        <ele>137.0</ele>
        <time>2022-03-31T09:29:15Z</time>
      </trkpt>
      <trkpt lat="47.55015" lon="1.7106453">
        <ele>137.0</ele>
        <time>2022-03-31T09:29:16Z</time>
      </trkpt>
      <trkpt lat="47.550156" lon="1.710661">
        <ele>137.0</ele>
        <time>2022-03-31T09:29:17Z</time>
      </trkpt>
      <trkpt lat="47.550163" lon="1.7106802">
        <ele>137.0</ele>
        <time>2022-03-31T09:29:18Z</time>
      </trkpt>
      <trkpt lat="47.550167" lon="1.7106991">
        <ele>137.0</ele>
        <time>2022-03-31T09:29:19Z</time>
      </trkpt>
      <trkpt lat="47.550175" lon="1.7107152">
        <ele>137.0</ele>
        <time>2022-03-31T09:29:20Z</time>
      </trkpt>
      <trkpt lat="47.55018" lon="1.7107351">
        <ele>137.0</ele>
        <time>2022-03-31T09:29:21Z</time>
      </trkpt>
      <trkpt lat="47.550182" lon="1.7107536">
        <ele>137.0</ele>
        <time>2022-03-31T09:29:22Z</time>
      </trkpt>
      <trkpt lat="47.550182" lon="1.7107707">
        <ele>136.0</ele>
        <time>2022-03-31T09:29:23Z</time>
      </trkpt>
      <trkpt lat="47.550186" lon="1.7107909">
        <ele>136.0</ele>
        <time>2022-03-31T09:29:24Z</time>
      </trkpt>
      <trkpt lat="47.55019" lon="1.710812">
        <ele>137.0</ele>
        <time>2022-03-31T09:29:25Z</time>
      </trkpt>
      <trkpt lat="47.55019" lon="1.7108327">
        <ele>137.0</ele>
        <time>2022-03-31T09:29:26Z</time>
      </trkpt>
      <trkpt lat="47.550194" lon="1.7108508">
        <ele>137.0</ele>
        <time>2022-03-31T09:29:27Z</time>
      </trkpt>
      <trkpt lat="47.550198" lon="1.710868">
        <ele>137.0</ele>
        <time>2022-03-31T09:29:28Z</time>
      </trkpt>
      <trkpt lat="47.5502" lon="1.7108876">
        <ele>137.0</ele>
        <time>2022-03-31T09:29:29Z</time>
      </trkpt>
      <trkpt lat="47.55021" lon="1.7109084">
        <ele>137.0</ele>
        <time>2022-03-31T09:29:30Z</time>
      </trkpt>
      <trkpt lat="47.550213" lon="1.7109284">
        <ele>137.0</ele>
        <time>2022-03-31T09:29:31Z</time>
      </trkpt>
      <trkpt lat="47.550217" lon="1.7109456">
        <ele>137.0</ele>
        <time>2022-03-31T09:29:32Z</time>
      </trkpt>
      <trkpt lat="47.550217" lon="1.7109683">
        <ele>137.0</ele>
        <time>2022-03-31T09:29:33Z</time>
      </trkpt>
      <trkpt lat="47.550217" lon="1.7109815">
        <ele>137.0</ele>
        <time>2022-03-31T09:29:34Z</time>
      </trkpt>
      <trkpt lat="47.55022" lon="1.7110033">
        <ele>138.0</ele>
        <time>2022-03-31T09:29:35Z</time>
      </trkpt>
      <trkpt lat="47.550224" lon="1.7110221">
        <ele>138.0</ele>
        <time>2022-03-31T09:29:36Z</time>
      </trkpt>
      <trkpt lat="47.550224" lon="1.7110366">
        <ele>138.0</ele>
        <time>2022-03-31T09:29:37Z</time>
      </trkpt>
      <trkpt lat="47.55023" lon="1.711054">
        <ele>138.0</ele>
        <time>2022-03-31T09:29:38Z</time>
      </trkpt>
      <trkpt lat="47.550232" lon="1.711068">
        <ele>138.0</ele>
        <time>2022-03-31T09:29:39Z</time>
      </trkpt>
      <trkpt lat="47.550236" lon="1.7110854">
        <ele>138.0</ele>
        <time>2022-03-31T09:29:40Z</time>
      </trkpt>
      <trkpt lat="47.55024" lon="1.7110965">
        <ele>138.0</ele>
        <time>2022-03-31T09:29:41Z</time>
      </trkpt>
      <trkpt lat="47.550243" lon="1.7111121">
        <ele>138.0</ele>
        <time>2022-03-31T09:29:42Z</time>
      </trkpt>
      <trkpt lat="47.550243" lon="1.7111332">
        <ele>138.0</ele>
        <time>2022-03-31T09:29:43Z</time>
      </trkpt>
      <trkpt lat="47.550247" lon="1.7111547">
        <ele>139.0</ele>
        <time>2022-03-31T09:29:44Z</time>
      </trkpt>
      <trkpt lat="47.550247" lon="1.7111781">
        <ele>139.0</ele>
        <time>2022-03-31T09:29:45Z</time>
      </trkpt>
      <trkpt lat="47.550247" lon="1.7111995">
        <ele>139.0</ele>
        <time>2022-03-31T09:29:46Z</time>
      </trkpt>
      <trkpt lat="47.55025" lon="1.7112224">
        <ele>139.0</ele>
        <time>2022-03-31T09:29:47Z</time>
      </trkpt>
      <trkpt lat="47.550255" lon="1.711246">
        <ele>139.0</ele>
        <time>2022-03-31T09:29:48Z</time>
      </trkpt>
      <trkpt lat="47.55026" lon="1.7112656">
        <ele>138.0</ele>
        <time>2022-03-31T09:29:49Z</time>
      </trkpt>
      <trkpt lat="47.550262" lon="1.7112839">
        <ele>138.0</ele>
        <time>2022-03-31T09:29:50Z</time>
      </trkpt>
      <trkpt lat="47.550266" lon="1.7113008">
        <ele>137.0</ele>
        <time>2022-03-31T09:29:51Z</time>
      </trkpt>
      <trkpt lat="47.550266" lon="1.7113212">
        <ele>138.0</ele>
        <time>2022-03-31T09:29:52Z</time>
      </trkpt>
      <trkpt lat="47.55027" lon="1.7113465">
        <ele>137.0</ele>
        <time>2022-03-31T09:29:53Z</time>
      </trkpt>
      <trkpt lat="47.550274" lon="1.711366">
        <ele>137.0</ele>
        <time>2022-03-31T09:29:54Z</time>
      </trkpt>
      <trkpt lat="47.550278" lon="1.711387">
        <ele>137.0</ele>
        <time>2022-03-31T09:29:55Z</time>
      </trkpt>
      <trkpt lat="47.55028" lon="1.71141">
        <ele>137.0</ele>
        <time>2022-03-31T09:29:56Z</time>
      </trkpt>
      <trkpt lat="47.550285" lon="1.7114235">
        <ele>138.0</ele>
        <time>2022-03-31T09:29:57Z</time>
      </trkpt>
      <trkpt lat="47.55029" lon="1.7114413">
        <ele>138.0</ele>
        <time>2022-03-31T09:29:58Z</time>
      </trkpt>
      <trkpt lat="47.550293" lon="1.7114658">
        <ele>138.0</ele>
        <time>2022-03-31T09:29:59Z</time>
      </trkpt>
      <trkpt lat="47.550297" lon="1.7114875">
        <ele>138.0</ele>
        <time>2022-03-31T09:30:00Z</time>
      </trkpt>
      <trkpt lat="47.5503" lon="1.7115057">
        <ele>138.0</ele>
        <time>2022-03-31T09:30:01Z</time>
      </trkpt>
      <trkpt lat="47.55031" lon="1.7115293">
        <ele>138.0</ele>
        <time>2022-03-31T09:30:02Z</time>
      </trkpt>
      <trkpt lat="47.550312" lon="1.7115507">
        <ele>138.0</ele>
        <time>2022-03-31T09:30:03Z</time>
      </trkpt>
      <trkpt lat="47.550316" lon="1.7115623">
        <ele>138.0</ele>
        <time>2022-03-31T09:30:04Z</time>
      </trkpt>
      <trkpt lat="47.55032" lon="1.7115811">
        <ele>138.0</ele>
        <time>2022-03-31T09:30:05Z</time>
      </trkpt>
      <trkpt lat="47.550323" lon="1.7115937">
        <ele>138.0</ele>
        <time>2022-03-31T09:30:06Z</time>
      </trkpt>
      <trkpt lat="47.550327" lon="1.7116128">
        <ele>138.0</ele>
        <time>2022-03-31T09:30:07Z</time>
      </trkpt>
      <trkpt lat="47.55033" lon="1.7116272">
        <ele>138.0</ele>
        <time>2022-03-31T09:30:08Z</time>
      </trkpt>
      <trkpt lat="47.550335" lon="1.711645">
        <ele>138.0</ele>
        <time>2022-03-31T09:30:09Z</time>
      </trkpt>
      <trkpt lat="47.550335" lon="1.7116592">
        <ele>138.0</ele>
        <time>2022-03-31T09:30:10Z</time>
      </trkpt>
      <trkpt lat="47.55034" lon="1.7116761">
        <ele>138.0</ele>
        <time>2022-03-31T09:30:11Z</time>
      </trkpt>
      <trkpt lat="47.550343" lon="1.7116957">
        <ele>138.0</ele>
        <time>2022-03-31T09:30:12Z</time>
      </trkpt>
      <trkpt lat="47.550346" lon="1.7117122">
        <ele>138.0</ele>
        <time>2022-03-31T09:30:13Z</time>
      </trkpt>
      <trkpt lat="47.55035" lon="1.7117306">
        <ele>138.0</ele>
        <time>2022-03-31T09:30:14Z</time>
      </trkpt>
      <trkpt lat="47.550354" lon="1.711744">
        <ele>139.0</ele>
        <time>2022-03-31T09:30:15Z</time>
      </trkpt>
      <trkpt lat="47.550358" lon="1.7117566">
        <ele>138.0</ele>
        <time>2022-03-31T09:30:16Z</time>
      </trkpt>
      <trkpt lat="47.55036" lon="1.7117777">
        <ele>138.0</ele>
        <time>2022-03-31T09:30:17Z</time>
      </trkpt>
      <trkpt lat="47.55036" lon="1.7117933">
        <ele>138.0</ele>
        <time>2022-03-31T09:30:18Z</time>
      </trkpt>
      <trkpt lat="47.550365" lon="1.7118071">
        <ele>137.0</ele>
        <time>2022-03-31T09:30:19Z</time>
      </trkpt>
      <trkpt lat="47.55037" lon="1.7118257">
        <ele>137.0</ele>
        <time>2022-03-31T09:30:20Z</time>
      </trkpt>
      <trkpt lat="47.550373" lon="1.711841">
        <ele>137.0</ele>
        <time>2022-03-31T09:30:21Z</time>
      </trkpt>
      <trkpt lat="47.550377" lon="1.7118547">
        <ele>138.0</ele>
        <time>2022-03-31T09:30:22Z</time>
      </trkpt>
      <trkpt lat="47.550377" lon="1.7118742">
        <ele>138.0</ele>
        <time>2022-03-31T09:30:23Z</time>
      </trkpt>
      <trkpt lat="47.550377" lon="1.7118922">
        <ele>138.0</ele>
        <time>2022-03-31T09:30:24Z</time>
      </trkpt>
      <trkpt lat="47.55038" lon="1.7119094">
        <ele>139.0</ele>
        <time>2022-03-31T09:30:25Z</time>
      </trkpt>
      <trkpt lat="47.550385" lon="1.7119279">
        <ele>139.0</ele>
        <time>2022-03-31T09:30:26Z</time>
      </trkpt>
      <trkpt lat="47.55039" lon="1.7119458">
        <ele>140.0</ele>
        <time>2022-03-31T09:30:27Z</time>
      </trkpt>
      <trkpt lat="47.550392" lon="1.7119644">
        <ele>140.0</ele>
        <time>2022-03-31T09:30:28Z</time>
      </trkpt>
      <trkpt lat="47.550396" lon="1.7119838">
        <ele>140.0</ele>
        <time>2022-03-31T09:30:29Z</time>
      </trkpt>
      <trkpt lat="47.5504" lon="1.7119988">
        <ele>140.0</ele>
        <time>2022-03-31T09:30:30Z</time>
      </trkpt>
      <trkpt lat="47.5504" lon="1.7120143">
        <ele>139.0</ele>
        <time>2022-03-31T09:30:31Z</time>
      </trkpt>
      <trkpt lat="47.550404" lon="1.712035">
        <ele>139.0</ele>
        <time>2022-03-31T09:30:32Z</time>
      </trkpt>
      <trkpt lat="47.550407" lon="1.7120553">
        <ele>140.0</ele>
        <time>2022-03-31T09:30:33Z</time>
      </trkpt>
      <trkpt lat="47.550407" lon="1.712072">
        <ele>140.0</ele>
        <time>2022-03-31T09:30:34Z</time>
      </trkpt>
      <trkpt lat="47.55041" lon="1.7120886">
        <ele>140.0</ele>
        <time>2022-03-31T09:30:35Z</time>
      </trkpt>
      <trkpt lat="47.55041" lon="1.7121028">
        <ele>140.0</ele>
        <time>2022-03-31T09:30:36Z</time>
      </trkpt>
      <trkpt lat="47.55041" lon="1.7121177">
        <ele>140.0</ele>
        <time>2022-03-31T09:30:37Z</time>
      </trkpt>
      <trkpt lat="47.550415" lon="1.7121358">
        <ele>140.0</ele>
        <time>2022-03-31T09:30:38Z</time>
      </trkpt>
      <trkpt lat="47.55042" lon="1.7121508">
        <ele>140.0</ele>
        <time>2022-03-31T09:30:39Z</time>
      </trkpt>
      <trkpt lat="47.550423" lon="1.7121646">
        <ele>139.0</ele>
        <time>2022-03-31T09:30:40Z</time>
      </trkpt>
      <trkpt lat="47.550426" lon="1.7121822">
        <ele>139.0</ele>
        <time>2022-03-31T09:30:41Z</time>
      </trkpt>
      <trkpt lat="47.55043" lon="1.7122028">
        <ele>139.0</ele>
        <time>2022-03-31T09:30:42Z</time>
      </trkpt>
      <trkpt lat="47.55043" lon="1.7122213">
        <ele>139.0</ele>
        <time>2022-03-31T09:30:43Z</time>
      </trkpt>
      <trkpt lat="47.550434" lon="1.7122378">
        <ele>139.0</ele>
        <time>2022-03-31T09:30:44Z</time>
      </trkpt>
      <trkpt lat="47.55044" lon="1.7122575">
        <ele>139.0</ele>
        <time>2022-03-31T09:30:45Z</time>
      </trkpt>
      <trkpt lat="47.550446" lon="1.7122769">
        <ele>139.0</ele>
        <time>2022-03-31T09:30:46Z</time>
      </trkpt>
      <trkpt lat="47.550446" lon="1.7122933">
        <ele>139.0</ele>
        <time>2022-03-31T09:30:47Z</time>
      </trkpt>
      <trkpt lat="47.55045" lon="1.7123072">
        <ele>138.0</ele>
        <time>2022-03-31T09:30:48Z</time>
      </trkpt>
      <trkpt lat="47.55045" lon="1.7123232">
        <ele>138.0</ele>
        <time>2022-03-31T09:30:49Z</time>
      </trkpt>
      <trkpt lat="47.550453" lon="1.7123401">
        <ele>139.0</ele>
        <time>2022-03-31T09:30:50Z</time>
      </trkpt>
      <trkpt lat="47.550453" lon="1.7123585">
        <ele>139.0</ele>
        <time>2022-03-31T09:30:51Z</time>
      </trkpt>
      <trkpt lat="47.550457" lon="1.7123772">
        <ele>139.0</ele>
        <time>2022-03-31T09:30:52Z</time>
      </trkpt>
      <trkpt lat="47.55046" lon="1.7123965">
        <ele>139.0</ele>
        <time>2022-03-31T09:30:53Z</time>
      </trkpt>
      <trkpt lat="47.550465" lon="1.712413">
        <ele>139.0</ele>
        <time>2022-03-31T09:30:54Z</time>
      </trkpt>
      <trkpt lat="47.550472" lon="1.7124335">
        <ele>139.0</ele>
        <time>2022-03-31T09:30:55Z</time>
      </trkpt>
      <trkpt lat="47.550472" lon="1.7124556">
        <ele>139.0</ele>
        <time>2022-03-31T09:30:56Z</time>
      </trkpt>
      <trkpt lat="47.550476" lon="1.7124752">
        <ele>139.0</ele>
        <time>2022-03-31T09:30:57Z</time>
      </trkpt>
      <trkpt lat="47.550472" lon="1.7124975">
        <ele>139.0</ele>
        <time>2022-03-31T09:30:58Z</time>
      </trkpt>
      <trkpt lat="47.550476" lon="1.712516">
        <ele>139.0</ele>
        <time>2022-03-31T09:30:59Z</time>
      </trkpt>
      <trkpt lat="47.550476" lon="1.7125407">
        <ele>139.0</ele>
        <time>2022-03-31T09:31:00Z</time>
      </trkpt>
      <trkpt lat="47.55048" lon="1.7125634">
        <ele>139.0</ele>
        <time>2022-03-31T09:31:01Z</time>
      </trkpt>
      <trkpt lat="47.55048" lon="1.7125814">
        <ele>140.0</ele>
        <time>2022-03-31T09:31:02Z</time>
      </trkpt>
      <trkpt lat="47.550484" lon="1.7125956">
        <ele>139.0</ele>
        <time>2022-03-31T09:31:03Z</time>
      </trkpt>
      <trkpt lat="47.550488" lon="1.7126186">
        <ele>139.0</ele>
        <time>2022-03-31T09:31:04Z</time>
      </trkpt>
      <trkpt lat="47.550495" lon="1.7126423">
        <ele>139.0</ele>
        <time>2022-03-31T09:31:05Z</time>
      </trkpt>
      <trkpt lat="47.5505" lon="1.7126627">
        <ele>139.0</ele>
        <time>2022-03-31T09:31:06Z</time>
      </trkpt>
      <trkpt lat="47.550503" lon="1.7126809">
        <ele>139.0</ele>
        <time>2022-03-31T09:31:07Z</time>
      </trkpt>
      <trkpt lat="47.550507" lon="1.712701">
        <ele>139.0</ele>
        <time>2022-03-31T09:31:08Z</time>
      </trkpt>
      <trkpt lat="47.55051" lon="1.7127177">
        <ele>139.0</ele>
        <time>2022-03-31T09:31:09Z</time>
      </trkpt>
      <trkpt lat="47.55051" lon="1.71274">
        <ele>139.0</ele>
        <time>2022-03-31T09:31:10Z</time>
      </trkpt>
      <trkpt lat="47.550514" lon="1.7127606">
        <ele>139.0</ele>
        <time>2022-03-31T09:31:11Z</time>
      </trkpt>
      <trkpt lat="47.550514" lon="1.7127782">
        <ele>139.0</ele>
        <time>2022-03-31T09:31:12Z</time>
      </trkpt>
      <trkpt lat="47.550518" lon="1.712796">
        <ele>140.0</ele>
        <time>2022-03-31T09:31:13Z</time>
      </trkpt>
      <trkpt lat="47.550518" lon="1.712813">
        <ele>141.0</ele>
        <time>2022-03-31T09:31:14Z</time>
      </trkpt>
      <trkpt lat="47.55052" lon="1.7128314">
        <ele>141.0</ele>
        <time>2022-03-31T09:31:15Z</time>
      </trkpt>
      <trkpt lat="47.550526" lon="1.7128505">
        <ele>141.0</ele>
        <time>2022-03-31T09:31:16Z</time>
      </trkpt>
      <trkpt lat="47.55053" lon="1.7128692">
        <ele>140.0</ele>
        <time>2022-03-31T09:31:17Z</time>
      </trkpt>
      <trkpt lat="47.550533" lon="1.7128899">
        <ele>140.0</ele>
        <time>2022-03-31T09:31:18Z</time>
      </trkpt>
      <trkpt lat="47.550533" lon="1.7129116">
        <ele>140.0</ele>
        <time>2022-03-31T09:31:19Z</time>
      </trkpt>
      <trkpt lat="47.550537" lon="1.7129294">
        <ele>140.0</ele>
        <time>2022-03-31T09:31:20Z</time>
      </trkpt>
      <trkpt lat="47.550545" lon="1.7129498">
        <ele>140.0</ele>
        <time>2022-03-31T09:31:21Z</time>
      </trkpt>
      <trkpt lat="47.55055" lon="1.7129709">
        <ele>140.0</ele>
        <time>2022-03-31T09:31:22Z</time>
      </trkpt>
      <trkpt lat="47.550552" lon="1.7129905">
        <ele>140.0</ele>
        <time>2022-03-31T09:31:23Z</time>
      </trkpt>
      <trkpt lat="47.550556" lon="1.7130094">
        <ele>141.0</ele>
        <time>2022-03-31T09:31:24Z</time>
      </trkpt>
      <trkpt lat="47.55056" lon="1.7130247">
        <ele>141.0</ele>
        <time>2022-03-31T09:31:25Z</time>
      </trkpt>
      <trkpt lat="47.55056" lon="1.7130442">
        <ele>141.0</ele>
        <time>2022-03-31T09:31:26Z</time>
      </trkpt>
      <trkpt lat="47.550564" lon="1.7130647">
        <ele>141.0</ele>
        <time>2022-03-31T09:31:27Z</time>
      </trkpt>
      <trkpt lat="47.550564" lon="1.7130777">
        <ele>141.0</ele>
        <time>2022-03-31T09:31:28Z</time>
      </trkpt>
      <trkpt lat="47.550568" lon="1.7130944">
        <ele>140.0</ele>
        <time>2022-03-31T09:31:29Z</time>
      </trkpt>
      <trkpt lat="47.550568" lon="1.7131122">
        <ele>140.0</ele>
        <time>2022-03-31T09:31:30Z</time>
      </trkpt>
      <trkpt lat="47.55057" lon="1.713131">
        <ele>140.0</ele>
        <time>2022-03-31T09:31:31Z</time>
      </trkpt>
      <trkpt lat="47.550575" lon="1.7131546">
        <ele>140.0</ele>
        <time>2022-03-31T09:31:32Z</time>
      </trkpt>
      <trkpt lat="47.55058" lon="1.713176">
        <ele>140.0</ele>
        <time>2022-03-31T09:31:33Z</time>
      </trkpt>
      <trkpt lat="47.550583" lon="1.7131965">
        <ele>140.0</ele>
        <time>2022-03-31T09:31:34Z</time>
      </trkpt>
      <trkpt lat="47.550583" lon="1.713214">
        <ele>140.0</ele>
        <time>2022-03-31T09:31:35Z</time>
      </trkpt>
      <trkpt lat="47.550587" lon="1.713237">
        <ele>140.0</ele>
        <time>2022-03-31T09:31:36Z</time>
      </trkpt>
      <trkpt lat="47.55059" lon="1.7132568">
        <ele>140.0</ele>
        <time>2022-03-31T09:31:37Z</time>
      </trkpt>
      <trkpt lat="47.550594" lon="1.7132751">
        <ele>140.0</ele>
        <time>2022-03-31T09:31:38Z</time>
      </trkpt>
      <trkpt lat="47.5506" lon="1.713295">
        <ele>140.0</ele>
        <time>2022-03-31T09:31:39Z</time>
      </trkpt>
      <trkpt lat="47.550602" lon="1.7133105">
        <ele>140.0</ele>
        <time>2022-03-31T09:31:40Z</time>
      </trkpt>
      <trkpt lat="47.550606" lon="1.7133249">
        <ele>139.0</ele>
        <time>2022-03-31T09:31:41Z</time>
      </trkpt>
      <trkpt lat="47.55061" lon="1.7133408">
        <ele>140.0</ele>
        <time>2022-03-31T09:31:42Z</time>
      </trkpt>
      <trkpt lat="47.550613" lon="1.7133633">
        <ele>139.0</ele>
        <time>2022-03-31T09:31:43Z</time>
      </trkpt>
      <trkpt lat="47.550617" lon="1.7133831">
        <ele>139.0</ele>
        <time>2022-03-31T09:31:44Z</time>
      </trkpt>
      <trkpt lat="47.550617" lon="1.7134012">
        <ele>139.0</ele>
        <time>2022-03-31T09:31:45Z</time>
      </trkpt>
      <trkpt lat="47.55062" lon="1.7134194">
        <ele>140.0</ele>
        <time>2022-03-31T09:31:46Z</time>
      </trkpt>
      <trkpt lat="47.550617" lon="1.7134333">
        <ele>140.0</ele>
        <time>2022-03-31T09:31:47Z</time>
      </trkpt>
      <trkpt lat="47.550613" lon="1.7134414">
        <ele>140.0</ele>
        <time>2022-03-31T09:31:48Z</time>
      </trkpt>
      <trkpt lat="47.5506" lon="1.713445">
        <ele>140.0</ele>
        <time>2022-03-31T09:31:49Z</time>
      </trkpt>
      <trkpt lat="47.550587" lon="1.7134459">
        <ele>140.0</ele>
        <time>2022-03-31T09:31:50Z</time>
      </trkpt>
      <trkpt lat="47.55058" lon="1.713449">
        <ele>140.0</ele>
        <time>2022-03-31T09:31:51Z</time>
      </trkpt>
      <trkpt lat="47.550564" lon="1.7134563">
        <ele>139.0</ele>
        <time>2022-03-31T09:31:52Z</time>
      </trkpt>
      <trkpt lat="47.550552" lon="1.713459">
        <ele>139.0</ele>
        <time>2022-03-31T09:31:53Z</time>
      </trkpt>
      <trkpt lat="47.55054" lon="1.7134658">
        <ele>138.0</ele>
        <time>2022-03-31T09:31:54Z</time>
      </trkpt>
      <trkpt lat="47.550526" lon="1.7134731">
        <ele>138.0</ele>
        <time>2022-03-31T09:31:55Z</time>
      </trkpt>
      <trkpt lat="47.55051" lon="1.713472">
        <ele>138.0</ele>
        <time>2022-03-31T09:31:56Z</time>
      </trkpt>
      <trkpt lat="47.5505" lon="1.713473">
        <ele>138.0</ele>
        <time>2022-03-31T09:31:57Z</time>
      </trkpt>
      <trkpt lat="47.550488" lon="1.713466">
        <ele>138.0</ele>
        <time>2022-03-31T09:31:58Z</time>
      </trkpt>
      <trkpt lat="47.550484" lon="1.7134608">
        <ele>138.0</ele>
        <time>2022-03-31T09:31:59Z</time>
      </trkpt>
      <trkpt lat="47.55048" lon="1.713451">
        <ele>138.0</ele>
        <time>2022-03-31T09:32:00Z</time>
      </trkpt>
      <trkpt lat="47.550472" lon="1.7134445">
        <ele>138.0</ele>
        <time>2022-03-31T09:32:01Z</time>
      </trkpt>
      <trkpt lat="47.55047" lon="1.7134356">
        <ele>138.0</ele>
        <time>2022-03-31T09:32:02Z</time>
      </trkpt>
      <trkpt lat="47.55046" lon="1.7134328">
        <ele>138.0</ele>
        <time>2022-03-31T09:32:03Z</time>
      </trkpt>
      <trkpt lat="47.550457" lon="1.7134311">
        <ele>138.0</ele>
        <time>2022-03-31T09:32:04Z</time>
      </trkpt>
      <trkpt lat="47.55045" lon="1.7134298">
        <ele>138.0</ele>
        <time>2022-03-31T09:32:05Z</time>
      </trkpt>
      <trkpt lat="47.550446" lon="1.7134326">
        <ele>138.0</ele>
        <time>2022-03-31T09:32:06Z</time>
      </trkpt>
      <trkpt lat="47.550446" lon="1.713436">
        <ele>139.0</ele>
        <time>2022-03-31T09:32:07Z</time>
      </trkpt>
      <trkpt lat="47.550446" lon="1.7134349">
        <ele>139.0</ele>
        <time>2022-03-31T09:32:08Z</time>
      </trkpt>
      <trkpt lat="47.550446" lon="1.7134349">
        <ele>139.0</ele>
        <time>2022-03-31T09:32:09Z</time>
      </trkpt>
      <trkpt lat="47.550446" lon="1.7134349">
        <ele>139.0</ele>
        <time>2022-03-31T09:32:09Z</time>
      </trkpt>
      <trkpt lat="47.550446" lon="1.7134349">
        <ele>139.0</ele>
        <time>2022-03-31T09:32:09Z</time>
      </trkpt>
      <trkpt lat="47.550446" lon="1.713465">
        <ele>139.0</ele>
        <time>2022-03-31T09:32:59Z</time>
      </trkpt>
      <trkpt lat="47.550446" lon="1.7134651">
        <ele>139.0</ele>
        <time>2022-03-31T09:33:00Z</time>
      </trkpt>
      <trkpt lat="47.55045" lon="1.7134559">
        <ele>139.0</ele>
        <time>2022-03-31T09:33:01Z</time>
      </trkpt>
      <trkpt lat="47.550457" lon="1.7134596">
        <ele>138.0</ele>
        <time>2022-03-31T09:33:02Z</time>
      </trkpt>
      <trkpt lat="47.55046" lon="1.7134633">
        <ele>138.0</ele>
        <time>2022-03-31T09:33:03Z</time>
      </trkpt>
      <trkpt lat="47.55047" lon="1.7134647">
        <ele>139.0</ele>
        <time>2022-03-31T09:33:04Z</time>
      </trkpt>
      <trkpt lat="47.550472" lon="1.7134647">
        <ele>139.0</ele>
        <time>2022-03-31T09:33:05Z</time>
      </trkpt>
      <trkpt lat="47.55048" lon="1.7134676">
        <ele>139.0</ele>
        <time>2022-03-31T09:33:06Z</time>
      </trkpt>
      <trkpt lat="47.550484" lon="1.7134693">
        <ele>138.0</ele>
        <time>2022-03-31T09:33:07Z</time>
      </trkpt>
      <trkpt lat="47.550495" lon="1.713471">
        <ele>138.0</ele>
        <time>2022-03-31T09:33:08Z</time>
      </trkpt>
      <trkpt lat="47.550507" lon="1.7134706">
        <ele>137.0</ele>
        <time>2022-03-31T09:33:09Z</time>
      </trkpt>
      <trkpt lat="47.55052" lon="1.7134686">
        <ele>137.0</ele>
        <time>2022-03-31T09:33:10Z</time>
      </trkpt>
      <trkpt lat="47.550537" lon="1.7134715">
        <ele>137.0</ele>
        <time>2022-03-31T09:33:11Z</time>
      </trkpt>
      <trkpt lat="47.550552" lon="1.7134753">
        <ele>137.0</ele>
        <time>2022-03-31T09:33:12Z</time>
      </trkpt>
      <trkpt lat="47.550568" lon="1.7134815">
        <ele>137.0</ele>
        <time>2022-03-31T09:33:13Z</time>
      </trkpt>
      <trkpt lat="47.550583" lon="1.7134881">
        <ele>138.0</ele>
        <time>2022-03-31T09:33:14Z</time>
      </trkpt>
      <trkpt lat="47.550594" lon="1.7134994">
        <ele>138.0</ele>
        <time>2022-03-31T09:33:15Z</time>
      </trkpt>
      <trkpt lat="47.550602" lon="1.713513">
        <ele>138.0</ele>
        <time>2022-03-31T09:33:16Z</time>
      </trkpt>
      <trkpt lat="47.550606" lon="1.7135291">
        <ele>138.0</ele>
        <time>2022-03-31T09:33:17Z</time>
      </trkpt>
      <trkpt lat="47.550613" lon="1.7135438">
        <ele>138.0</ele>
        <time>2022-03-31T09:33:18Z</time>
      </trkpt>
      <trkpt lat="47.550617" lon="1.7135576">
        <ele>138.0</ele>
        <time>2022-03-31T09:33:19Z</time>
      </trkpt>
      <trkpt lat="47.550625" lon="1.713564">
        <ele>138.0</ele>
        <time>2022-03-31T09:33:20Z</time>
      </trkpt>
      <trkpt lat="47.550632" lon="1.7135706">
        <ele>138.0</ele>
        <time>2022-03-31T09:33:21Z</time>
      </trkpt>
      <trkpt lat="47.55064" lon="1.7135825">
        <ele>138.0</ele>
        <time>2022-03-31T09:33:22Z</time>
      </trkpt>
      <trkpt lat="47.550644" lon="1.7135942">
        <ele>138.0</ele>
        <time>2022-03-31T09:33:23Z</time>
      </trkpt>
      <trkpt lat="47.55065" lon="1.7136121">
        <ele>138.0</ele>
        <time>2022-03-31T09:33:24Z</time>
      </trkpt>
      <trkpt lat="47.55066" lon="1.7136283">
        <ele>138.0</ele>
        <time>2022-03-31T09:33:25Z</time>
      </trkpt>
      <trkpt lat="47.550663" lon="1.7136439">
        <ele>138.0</ele>
        <time>2022-03-31T09:33:26Z</time>
      </trkpt>
      <trkpt lat="47.550667" lon="1.7136613">
        <ele>138.0</ele>
        <time>2022-03-31T09:33:27Z</time>
      </trkpt>
      <trkpt lat="47.55067" lon="1.7136767">
        <ele>137.0</ele>
        <time>2022-03-31T09:33:28Z</time>
      </trkpt>
      <trkpt lat="47.55067" lon="1.7136942">
        <ele>137.0</ele>
        <time>2022-03-31T09:33:29Z</time>
      </trkpt>
      <trkpt lat="47.550674" lon="1.7137108">
        <ele>137.0</ele>
        <time>2022-03-31T09:33:30Z</time>
      </trkpt>
      <trkpt lat="47.55068" lon="1.7137283">
        <ele>136.0</ele>
        <time>2022-03-31T09:33:31Z</time>
      </trkpt>
      <trkpt lat="47.550682" lon="1.713738">
        <ele>136.0</ele>
        <time>2022-03-31T09:33:32Z</time>
      </trkpt>
      <trkpt lat="47.550686" lon="1.713751">
        <ele>136.0</ele>
        <time>2022-03-31T09:33:33Z</time>
      </trkpt>
      <trkpt lat="47.550686" lon="1.7137643">
        <ele>136.0</ele>
        <time>2022-03-31T09:33:34Z</time>
      </trkpt>
      <trkpt lat="47.55069" lon="1.7137765">
        <ele>135.0</ele>
        <time>2022-03-31T09:33:35Z</time>
      </trkpt>
      <trkpt lat="47.55069" lon="1.7137967">
        <ele>135.0</ele>
        <time>2022-03-31T09:33:36Z</time>
      </trkpt>
      <trkpt lat="47.55069" lon="1.7138128">
        <ele>135.0</ele>
        <time>2022-03-31T09:33:37Z</time>
      </trkpt>
      <trkpt lat="47.55069" lon="1.7138281">
        <ele>135.0</ele>
        <time>2022-03-31T09:33:38Z</time>
      </trkpt>
      <trkpt lat="47.550694" lon="1.71384">
        <ele>136.0</ele>
        <time>2022-03-31T09:33:39Z</time>
      </trkpt>
      <trkpt lat="47.550694" lon="1.7138548">
        <ele>136.0</ele>
        <time>2022-03-31T09:33:40Z</time>
      </trkpt>
      <trkpt lat="47.550697" lon="1.7138674">
        <ele>136.0</ele>
        <time>2022-03-31T09:33:41Z</time>
      </trkpt>
      <trkpt lat="47.5507" lon="1.7138826">
        <ele>136.0</ele>
        <time>2022-03-31T09:33:42Z</time>
      </trkpt>
      <trkpt lat="47.5507" lon="1.7139019">
        <ele>136.0</ele>
        <time>2022-03-31T09:33:43Z</time>
      </trkpt>
      <trkpt lat="47.5507" lon="1.7139133">
        <ele>136.0</ele>
        <time>2022-03-31T09:33:44Z</time>
      </trkpt>
      <trkpt lat="47.550705" lon="1.7139226">
        <ele>136.0</ele>
        <time>2022-03-31T09:33:45Z</time>
      </trkpt>
      <trkpt lat="47.550705" lon="1.7139362">
        <ele>136.0</ele>
        <time>2022-03-31T09:33:46Z</time>
      </trkpt>
      <trkpt lat="47.55071" lon="1.7139509">
        <ele>136.0</ele>
        <time>2022-03-31T09:33:47Z</time>
      </trkpt>
      <trkpt lat="47.55071" lon="1.713965">
        <ele>136.0</ele>
        <time>2022-03-31T09:33:48Z</time>
      </trkpt>
      <trkpt lat="47.550713" lon="1.7139775">
        <ele>136.0</ele>
        <time>2022-03-31T09:33:49Z</time>
      </trkpt>
      <trkpt lat="47.550716" lon="1.7139882">
        <ele>136.0</ele>
        <time>2022-03-31T09:33:50Z</time>
      </trkpt>
      <trkpt lat="47.55072" lon="1.7140036">
        <ele>135.0</ele>
        <time>2022-03-31T09:33:51Z</time>
      </trkpt>
      <trkpt lat="47.550724" lon="1.7140214">
        <ele>135.0</ele>
        <time>2022-03-31T09:33:52Z</time>
      </trkpt>
      <trkpt lat="47.550728" lon="1.7140359">
        <ele>135.0</ele>
        <time>2022-03-31T09:33:53Z</time>
      </trkpt>
      <trkpt lat="47.55073" lon="1.7140516">
        <ele>135.0</ele>
        <time>2022-03-31T09:33:54Z</time>
      </trkpt>
      <trkpt lat="47.550735" lon="1.7140639">
        <ele>135.0</ele>
        <time>2022-03-31T09:33:55Z</time>
      </trkpt>
      <trkpt lat="47.550735" lon="1.714078">
        <ele>135.0</ele>
        <time>2022-03-31T09:33:56Z</time>
      </trkpt>
      <trkpt lat="47.55074" lon="1.7140901">
        <ele>135.0</ele>
        <time>2022-03-31T09:33:57Z</time>
      </trkpt>
      <trkpt lat="47.55074" lon="1.714093">
        <ele>134.0</ele>
        <time>2022-03-31T09:33:58Z</time>
      </trkpt>
      <trkpt lat="47.55074" lon="1.7140958">
        <ele>135.0</ele>
        <time>2022-03-31T09:33:59Z</time>
      </trkpt>
      <trkpt lat="47.550743" lon="1.7141039">
        <ele>134.0</ele>
        <time>2022-03-31T09:34:00Z</time>
      </trkpt>
      <trkpt lat="47.550747" lon="1.7141206">
        <ele>134.0</ele>
        <time>2022-03-31T09:34:01Z</time>
      </trkpt>
      <trkpt lat="47.55075" lon="1.714135">
        <ele>134.0</ele>
        <time>2022-03-31T09:34:02Z</time>
      </trkpt>
      <trkpt lat="47.550743" lon="1.714153">
        <ele>135.0</ele>
        <time>2022-03-31T09:34:03Z</time>
      </trkpt>
      <trkpt lat="47.550743" lon="1.7141546">
        <ele>135.0</ele>
        <time>2022-03-31T09:34:04Z</time>
      </trkpt>
      <trkpt lat="47.550743" lon="1.7141632">
        <ele>135.0</ele>
        <time>2022-03-31T09:34:05Z</time>
      </trkpt>
      <trkpt lat="47.550743" lon="1.7141751">
        <ele>135.0</ele>
        <time>2022-03-31T09:34:06Z</time>
      </trkpt>
      <trkpt lat="47.550747" lon="1.7141851">
        <ele>135.0</ele>
        <time>2022-03-31T09:34:07Z</time>
      </trkpt>
      <trkpt lat="47.550747" lon="1.7141954">
        <ele>136.0</ele>
        <time>2022-03-31T09:34:08Z</time>
      </trkpt>
      <trkpt lat="47.550747" lon="1.714207">
        <ele>135.0</ele>
        <time>2022-03-31T09:34:09Z</time>
      </trkpt>
      <trkpt lat="47.55075" lon="1.7142211">
        <ele>135.0</ele>
        <time>2022-03-31T09:34:10Z</time>
      </trkpt>
      <trkpt lat="47.55075" lon="1.7142328">
        <ele>135.0</ele>
        <time>2022-03-31T09:34:11Z</time>
      </trkpt>
      <trkpt lat="47.55075" lon="1.7142471">
        <ele>134.0</ele>
        <time>2022-03-31T09:34:12Z</time>
      </trkpt>
      <trkpt lat="47.550755" lon="1.7142634">
        <ele>135.0</ele>
        <time>2022-03-31T09:34:13Z</time>
      </trkpt>
      <trkpt lat="47.550755" lon="1.7142746">
        <ele>135.0</ele>
        <time>2022-03-31T09:34:14Z</time>
      </trkpt>
      <trkpt lat="47.550766" lon="1.714288">
        <ele>135.0</ele>
        <time>2022-03-31T09:34:15Z</time>
      </trkpt>
      <trkpt lat="47.550766" lon="1.7142996">
        <ele>135.0</ele>
        <time>2022-03-31T09:34:16Z</time>
      </trkpt>
      <trkpt lat="47.55077" lon="1.7143027">
        <ele>134.0</ele>
        <time>2022-03-31T09:34:17Z</time>
      </trkpt>
      <trkpt lat="47.55077" lon="1.7143121">
        <ele>134.0</ele>
        <time>2022-03-31T09:34:18Z</time>
      </trkpt>
      <trkpt lat="47.550774" lon="1.7143295">
        <ele>134.0</ele>
        <time>2022-03-31T09:34:19Z</time>
      </trkpt>
      <trkpt lat="47.550777" lon="1.714348">
        <ele>134.0</ele>
        <time>2022-03-31T09:34:20Z</time>
      </trkpt>
      <trkpt lat="47.55078" lon="1.7143648">
        <ele>134.0</ele>
        <time>2022-03-31T09:34:21Z</time>
      </trkpt>
      <trkpt lat="47.550785" lon="1.7143763">
        <ele>135.0</ele>
        <time>2022-03-31T09:34:22Z</time>
      </trkpt>
      <trkpt lat="47.550785" lon="1.7143846">
        <ele>135.0</ele>
        <time>2022-03-31T09:34:23Z</time>
      </trkpt>
      <trkpt lat="47.550785" lon="1.7143914">
        <ele>135.0</ele>
        <time>2022-03-31T09:34:24Z</time>
      </trkpt>
      <trkpt lat="47.55078" lon="1.7143992">
        <ele>135.0</ele>
        <time>2022-03-31T09:34:25Z</time>
      </trkpt>
      <trkpt lat="47.55078" lon="1.7144113">
        <ele>135.0</ele>
        <time>2022-03-31T09:34:26Z</time>
      </trkpt>
      <trkpt lat="47.550785" lon="1.7144217">
        <ele>135.0</ele>
        <time>2022-03-31T09:34:27Z</time>
      </trkpt>
      <trkpt lat="47.550785" lon="1.7144296">
        <ele>134.0</ele>
        <time>2022-03-31T09:34:28Z</time>
      </trkpt>
      <trkpt lat="47.55079" lon="1.7144383">
        <ele>134.0</ele>
        <time>2022-03-31T09:34:29Z</time>
      </trkpt>
      <trkpt lat="47.55079" lon="1.714451">
        <ele>134.0</ele>
        <time>2022-03-31T09:34:30Z</time>
      </trkpt>
      <trkpt lat="47.550793" lon="1.7144701">
        <ele>134.0</ele>
        <time>2022-03-31T09:34:31Z</time>
      </trkpt>
      <trkpt lat="47.550793" lon="1.7144883">
        <ele>133.0</ele>
        <time>2022-03-31T09:34:32Z</time>
      </trkpt>
      <trkpt lat="47.550793" lon="1.7145069">
        <ele>133.0</ele>
        <time>2022-03-31T09:34:33Z</time>
      </trkpt>
      <trkpt lat="47.550793" lon="1.7145218">
        <ele>133.0</ele>
        <time>2022-03-31T09:34:34Z</time>
      </trkpt>
      <trkpt lat="47.550797" lon="1.7145401">
        <ele>134.0</ele>
        <time>2022-03-31T09:34:35Z</time>
      </trkpt>
      <trkpt lat="47.550797" lon="1.7145574">
        <ele>134.0</ele>
        <time>2022-03-31T09:34:36Z</time>
      </trkpt>
      <trkpt lat="47.5508" lon="1.714573">
        <ele>134.0</ele>
        <time>2022-03-31T09:34:37Z</time>
      </trkpt>
      <trkpt lat="47.550804" lon="1.7145884">
        <ele>134.0</ele>
        <time>2022-03-31T09:34:38Z</time>
      </trkpt>
      <trkpt lat="47.550808" lon="1.7146051">
        <ele>134.0</ele>
        <time>2022-03-31T09:34:39Z</time>
      </trkpt>
      <trkpt lat="47.55081" lon="1.7146231">
        <ele>134.0</ele>
        <time>2022-03-31T09:34:40Z</time>
      </trkpt>
      <trkpt lat="47.550816" lon="1.7146384">
        <ele>134.0</ele>
        <time>2022-03-31T09:34:41Z</time>
      </trkpt>
      <trkpt lat="47.55082" lon="1.7146499">
        <ele>135.0</ele>
        <time>2022-03-31T09:34:42Z</time>
      </trkpt>
      <trkpt lat="47.550823" lon="1.7146661">
        <ele>134.0</ele>
        <time>2022-03-31T09:34:43Z</time>
      </trkpt>
      <trkpt lat="47.550827" lon="1.7146773">
        <ele>134.0</ele>
        <time>2022-03-31T09:34:44Z</time>
      </trkpt>
      <trkpt lat="47.55083" lon="1.7146881">
        <ele>134.0</ele>
        <time>2022-03-31T09:34:45Z</time>
      </trkpt>
      <trkpt lat="47.550835" lon="1.7147052">
        <ele>134.0</ele>
        <time>2022-03-31T09:34:46Z</time>
      </trkpt>
      <trkpt lat="47.55084" lon="1.7147238">
        <ele>134.0</ele>
        <time>2022-03-31T09:34:47Z</time>
      </trkpt>
      <trkpt lat="47.550842" lon="1.714741">
        <ele>134.0</ele>
        <time>2022-03-31T09:34:48Z</time>
      </trkpt>
      <trkpt lat="47.550842" lon="1.7147578">
        <ele>134.0</ele>
        <time>2022-03-31T09:34:49Z</time>
      </trkpt>
      <trkpt lat="47.550842" lon="1.7147769">
        <ele>135.0</ele>
        <time>2022-03-31T09:34:50Z</time>
      </trkpt>
      <trkpt lat="47.55085" lon="1.7147974">
        <ele>135.0</ele>
        <time>2022-03-31T09:34:51Z</time>
      </trkpt>
      <trkpt lat="47.550854" lon="1.714816">
        <ele>136.0</ele>
        <time>2022-03-31T09:34:52Z</time>
      </trkpt>
      <trkpt lat="47.550854" lon="1.7148362">
        <ele>136.0</ele>
        <time>2022-03-31T09:34:53Z</time>
      </trkpt>
      <trkpt lat="47.550858" lon="1.7148546">
        <ele>136.0</ele>
        <time>2022-03-31T09:34:54Z</time>
      </trkpt>
      <trkpt lat="47.550858" lon="1.7148731">
        <ele>136.0</ele>
        <time>2022-03-31T09:34:55Z</time>
      </trkpt>
      <trkpt lat="47.55086" lon="1.714894">
        <ele>137.0</ele>
        <time>2022-03-31T09:34:56Z</time>
      </trkpt>
      <trkpt lat="47.55086" lon="1.714917">
        <ele>137.0</ele>
        <time>2022-03-31T09:34:57Z</time>
      </trkpt>
      <trkpt lat="47.55086" lon="1.7149377">
        <ele>137.0</ele>
        <time>2022-03-31T09:34:58Z</time>
      </trkpt>
      <trkpt lat="47.55086" lon="1.7149557">
        <ele>138.0</ele>
        <time>2022-03-31T09:34:59Z</time>
      </trkpt>
      <trkpt lat="47.550865" lon="1.7149752">
        <ele>138.0</ele>
        <time>2022-03-31T09:35:00Z</time>
      </trkpt>
      <trkpt lat="47.550865" lon="1.7149942">
        <ele>138.0</ele>
        <time>2022-03-31T09:35:01Z</time>
      </trkpt>
      <trkpt lat="47.55087" lon="1.7150133">
        <ele>138.0</ele>
        <time>2022-03-31T09:35:02Z</time>
      </trkpt>
      <trkpt lat="47.550873" lon="1.7150337">
        <ele>138.0</ele>
        <time>2022-03-31T09:35:03Z</time>
      </trkpt>
      <trkpt lat="47.550877" lon="1.7150514">
        <ele>139.0</ele>
        <time>2022-03-31T09:35:04Z</time>
      </trkpt>
      <trkpt lat="47.550877" lon="1.7150662">
        <ele>139.0</ele>
        <time>2022-03-31T09:35:05Z</time>
      </trkpt>
      <trkpt lat="47.55088" lon="1.7150828">
        <ele>139.0</ele>
        <time>2022-03-31T09:35:06Z</time>
      </trkpt>
      <trkpt lat="47.55088" lon="1.7150986">
        <ele>139.0</ele>
        <time>2022-03-31T09:35:07Z</time>
      </trkpt>
      <trkpt lat="47.550884" lon="1.7151179">
        <ele>139.0</ele>
        <time>2022-03-31T09:35:08Z</time>
      </trkpt>
      <trkpt lat="47.550888" lon="1.7151349">
        <ele>140.0</ele>
        <time>2022-03-31T09:35:09Z</time>
      </trkpt>
      <trkpt lat="47.550888" lon="1.7151533">
        <ele>140.0</ele>
        <time>2022-03-31T09:35:10Z</time>
      </trkpt>
      <trkpt lat="47.550888" lon="1.7151728">
        <ele>141.0</ele>
        <time>2022-03-31T09:35:11Z</time>
      </trkpt>
      <trkpt lat="47.550888" lon="1.7151921">
        <ele>141.0</ele>
        <time>2022-03-31T09:35:12Z</time>
      </trkpt>
      <trkpt lat="47.55089" lon="1.7152089">
        <ele>141.0</ele>
        <time>2022-03-31T09:35:13Z</time>
      </trkpt>
      <trkpt lat="47.550896" lon="1.7152276">
        <ele>141.0</ele>
        <time>2022-03-31T09:35:14Z</time>
      </trkpt>
      <trkpt lat="47.550896" lon="1.7152492">
        <ele>141.0</ele>
        <time>2022-03-31T09:35:15Z</time>
      </trkpt>
      <trkpt lat="47.5509" lon="1.71527">
        <ele>141.0</ele>
        <time>2022-03-31T09:35:16Z</time>
      </trkpt>
      <trkpt lat="47.5509" lon="1.7152901">
        <ele>141.0</ele>
        <time>2022-03-31T09:35:17Z</time>
      </trkpt>
      <trkpt lat="47.5509" lon="1.7153081">
        <ele>141.0</ele>
        <time>2022-03-31T09:35:18Z</time>
      </trkpt>
      <trkpt lat="47.550903" lon="1.7153262">
        <ele>141.0</ele>
        <time>2022-03-31T09:35:19Z</time>
      </trkpt>
      <trkpt lat="47.55091" lon="1.7153409">
        <ele>142.0</ele>
        <time>2022-03-31T09:35:20Z</time>
      </trkpt>
      <trkpt lat="47.55091" lon="1.7153541">
        <ele>142.0</ele>
        <time>2022-03-31T09:35:21Z</time>
      </trkpt>
      <trkpt lat="47.55091" lon="1.7153671">
        <ele>142.0</ele>
        <time>2022-03-31T09:35:22Z</time>
      </trkpt>
      <trkpt lat="47.55091" lon="1.7153785">
        <ele>142.0</ele>
        <time>2022-03-31T09:35:23Z</time>
      </trkpt>
      <trkpt lat="47.550915" lon="1.7153939">
        <ele>143.0</ele>
        <time>2022-03-31T09:35:24Z</time>
      </trkpt>
      <trkpt lat="47.55091" lon="1.7154092">
        <ele>143.0</ele>
        <time>2022-03-31T09:35:25Z</time>
      </trkpt>
      <trkpt lat="47.55091" lon="1.7154267">
        <ele>143.0</ele>
        <time>2022-03-31T09:35:26Z</time>
      </trkpt>
      <trkpt lat="47.550915" lon="1.7154428">
        <ele>143.0</ele>
        <time>2022-03-31T09:35:27Z</time>
      </trkpt>
      <trkpt lat="47.550915" lon="1.7154622">
        <ele>143.0</ele>
        <time>2022-03-31T09:35:28Z</time>
      </trkpt>
      <trkpt lat="47.550915" lon="1.7154802">
        <ele>143.0</ele>
        <time>2022-03-31T09:35:29Z</time>
      </trkpt>
      <trkpt lat="47.55092" lon="1.7154961">
        <ele>143.0</ele>
        <time>2022-03-31T09:35:30Z</time>
      </trkpt>
      <trkpt lat="47.550915" lon="1.7155136">
        <ele>143.0</ele>
        <time>2022-03-31T09:35:31Z</time>
      </trkpt>
      <trkpt lat="47.55092" lon="1.7155309">
        <ele>142.0</ele>
        <time>2022-03-31T09:35:32Z</time>
      </trkpt>
      <trkpt lat="47.55092" lon="1.7155495">
        <ele>142.0</ele>
        <time>2022-03-31T09:35:33Z</time>
      </trkpt>
      <trkpt lat="47.550922" lon="1.7155592">
        <ele>142.0</ele>
        <time>2022-03-31T09:35:34Z</time>
      </trkpt>
      <trkpt lat="47.550926" lon="1.7155701">
        <ele>142.0</ele>
        <time>2022-03-31T09:35:35Z</time>
      </trkpt>
      <trkpt lat="47.55093" lon="1.7155862">
        <ele>141.0</ele>
        <time>2022-03-31T09:35:36Z</time>
      </trkpt>
      <trkpt lat="47.55093" lon="1.7156036">
        <ele>141.0</ele>
        <time>2022-03-31T09:35:37Z</time>
      </trkpt>
      <trkpt lat="47.550934" lon="1.7156211">
        <ele>142.0</ele>
        <time>2022-03-31T09:35:38Z</time>
      </trkpt>
      <trkpt lat="47.550938" lon="1.7156353">
        <ele>142.0</ele>
        <time>2022-03-31T09:35:39Z</time>
      </trkpt>
      <trkpt lat="47.55094" lon="1.7156446">
        <ele>141.0</ele>
        <time>2022-03-31T09:35:40Z</time>
      </trkpt>
      <trkpt lat="47.55094" lon="1.7156565">
        <ele>141.0</ele>
        <time>2022-03-31T09:35:41Z</time>
      </trkpt>
      <trkpt lat="47.550945" lon="1.7156694">
        <ele>141.0</ele>
        <time>2022-03-31T09:35:42Z</time>
      </trkpt>
      <trkpt lat="47.55095" lon="1.7156851">
        <ele>141.0</ele>
        <time>2022-03-31T09:35:43Z</time>
      </trkpt>
      <trkpt lat="47.55095" lon="1.7157044">
        <ele>141.0</ele>
        <time>2022-03-31T09:35:44Z</time>
      </trkpt>
      <trkpt lat="47.550953" lon="1.7157221">
        <ele>141.0</ele>
        <time>2022-03-31T09:35:45Z</time>
      </trkpt>
      <trkpt lat="47.550957" lon="1.7157398">
        <ele>141.0</ele>
        <time>2022-03-31T09:35:46Z</time>
      </trkpt>
      <trkpt lat="47.550964" lon="1.7157556">
        <ele>142.0</ele>
        <time>2022-03-31T09:35:47Z</time>
      </trkpt>
      <trkpt lat="47.550972" lon="1.7157711">
        <ele>142.0</ele>
        <time>2022-03-31T09:35:48Z</time>
      </trkpt>
      <trkpt lat="47.550972" lon="1.7157855">
        <ele>143.0</ele>
        <time>2022-03-31T09:35:49Z</time>
      </trkpt>
      <trkpt lat="47.550976" lon="1.7158009">
        <ele>143.0</ele>
        <time>2022-03-31T09:35:50Z</time>
      </trkpt>
      <trkpt lat="47.550976" lon="1.7158185">
        <ele>143.0</ele>
        <time>2022-03-31T09:35:51Z</time>
      </trkpt>
      <trkpt lat="47.55098" lon="1.7158344">
        <ele>143.0</ele>
        <time>2022-03-31T09:35:52Z</time>
      </trkpt>
      <trkpt lat="47.55098" lon="1.715856">
        <ele>143.0</ele>
        <time>2022-03-31T09:35:53Z</time>
      </trkpt>
      <trkpt lat="47.55098" lon="1.7158746">
        <ele>142.0</ele>
        <time>2022-03-31T09:35:54Z</time>
      </trkpt>
      <trkpt lat="47.55098" lon="1.7158911">
        <ele>142.0</ele>
        <time>2022-03-31T09:35:55Z</time>
      </trkpt>
      <trkpt lat="47.550983" lon="1.7159024">
        <ele>142.0</ele>
        <time>2022-03-31T09:35:56Z</time>
      </trkpt>
      <trkpt lat="47.550983" lon="1.7159181">
        <ele>142.0</ele>
        <time>2022-03-31T09:35:57Z</time>
      </trkpt>
      <trkpt lat="47.55099" lon="1.7159375">
        <ele>141.0</ele>
        <time>2022-03-31T09:35:58Z</time>
      </trkpt>
      <trkpt lat="47.550995" lon="1.7159524">
        <ele>141.0</ele>
        <time>2022-03-31T09:35:59Z</time>
      </trkpt>
      <trkpt lat="47.55099" lon="1.7159704">
        <ele>141.0</ele>
        <time>2022-03-31T09:36:00Z</time>
      </trkpt>
      <trkpt lat="47.550995" lon="1.7159866">
        <ele>141.0</ele>
        <time>2022-03-31T09:36:01Z</time>
      </trkpt>
      <trkpt lat="47.551" lon="1.7160027">
        <ele>141.0</ele>
        <time>2022-03-31T09:36:02Z</time>
      </trkpt>
      <trkpt lat="47.551" lon="1.7160221">
        <ele>141.0</ele>
        <time>2022-03-31T09:36:03Z</time>
      </trkpt>
      <trkpt lat="47.551003" lon="1.716038">
        <ele>141.0</ele>
        <time>2022-03-31T09:36:04Z</time>
      </trkpt>
      <trkpt lat="47.551006" lon="1.7160535">
        <ele>141.0</ele>
        <time>2022-03-31T09:36:05Z</time>
      </trkpt>
      <trkpt lat="47.55101" lon="1.7160696">
        <ele>140.0</ele>
        <time>2022-03-31T09:36:06Z</time>
      </trkpt>
      <trkpt lat="47.551014" lon="1.7160857">
        <ele>140.0</ele>
        <time>2022-03-31T09:36:07Z</time>
      </trkpt>
      <trkpt lat="47.551018" lon="1.7160999">
        <ele>140.0</ele>
        <time>2022-03-31T09:36:08Z</time>
      </trkpt>
      <trkpt lat="47.551018" lon="1.7161143">
        <ele>140.0</ele>
        <time>2022-03-31T09:36:09Z</time>
      </trkpt>
      <trkpt lat="47.55102" lon="1.7161283">
        <ele>141.0</ele>
        <time>2022-03-31T09:36:10Z</time>
      </trkpt>
      <trkpt lat="47.551025" lon="1.7161424">
        <ele>141.0</ele>
        <time>2022-03-31T09:36:11Z</time>
      </trkpt>
      <trkpt lat="47.551025" lon="1.7161602">
        <ele>141.0</ele>
        <time>2022-03-31T09:36:12Z</time>
      </trkpt>
      <trkpt lat="47.551025" lon="1.7161726">
        <ele>141.0</ele>
        <time>2022-03-31T09:36:13Z</time>
      </trkpt>
      <trkpt lat="47.551025" lon="1.7161856">
        <ele>141.0</ele>
        <time>2022-03-31T09:36:14Z</time>
      </trkpt>
      <trkpt lat="47.551025" lon="1.716196">
        <ele>141.0</ele>
        <time>2022-03-31T09:36:15Z</time>
      </trkpt>
      <trkpt lat="47.55103" lon="1.7162066">
        <ele>140.0</ele>
        <time>2022-03-31T09:36:16Z</time>
      </trkpt>
      <trkpt lat="47.55103" lon="1.7162184">
        <ele>140.0</ele>
        <time>2022-03-31T09:36:17Z</time>
      </trkpt>
      <trkpt lat="47.551033" lon="1.716235">
        <ele>140.0</ele>
        <time>2022-03-31T09:36:18Z</time>
      </trkpt>
      <trkpt lat="47.551037" lon="1.7162544">
        <ele>141.0</ele>
        <time>2022-03-31T09:36:19Z</time>
      </trkpt>
      <trkpt lat="47.551037" lon="1.7162683">
        <ele>140.0</ele>
        <time>2022-03-31T09:36:20Z</time>
      </trkpt>
      <trkpt lat="47.55104" lon="1.7162802">
        <ele>140.0</ele>
        <time>2022-03-31T09:36:21Z</time>
      </trkpt>
      <trkpt lat="47.55104" lon="1.7162951">
        <ele>140.0</ele>
        <time>2022-03-31T09:36:22Z</time>
      </trkpt>
      <trkpt lat="47.55105" lon="1.7163134">
        <ele>140.0</ele>
        <time>2022-03-31T09:36:23Z</time>
      </trkpt>
      <trkpt lat="47.551052" lon="1.7163246">
        <ele>140.0</ele>
        <time>2022-03-31T09:36:24Z</time>
      </trkpt>
      <trkpt lat="47.551056" lon="1.7163417">
        <ele>140.0</ele>
        <time>2022-03-31T09:36:25Z</time>
      </trkpt>
      <trkpt lat="47.55106" lon="1.7163572">
        <ele>140.0</ele>
        <time>2022-03-31T09:36:26Z</time>
      </trkpt>
      <trkpt lat="47.551064" lon="1.7163727">
        <ele>139.0</ele>
        <time>2022-03-31T09:36:27Z</time>
      </trkpt>
      <trkpt lat="47.551067" lon="1.7163879">
        <ele>139.0</ele>
        <time>2022-03-31T09:36:28Z</time>
      </trkpt>
      <trkpt lat="47.55107" lon="1.7164067">
        <ele>139.0</ele>
        <time>2022-03-31T09:36:29Z</time>
      </trkpt>
      <trkpt lat="47.551075" lon="1.716423">
        <ele>139.0</ele>
        <time>2022-03-31T09:36:30Z</time>
      </trkpt>
      <trkpt lat="47.551083" lon="1.7164369">
        <ele>139.0</ele>
        <time>2022-03-31T09:36:31Z</time>
      </trkpt>
      <trkpt lat="47.551086" lon="1.7164501">
        <ele>139.0</ele>
        <time>2022-03-31T09:36:32Z</time>
      </trkpt>
      <trkpt lat="47.551086" lon="1.7164656">
        <ele>139.0</ele>
        <time>2022-03-31T09:36:33Z</time>
      </trkpt>
      <trkpt lat="47.551094" lon="1.7164816">
        <ele>139.0</ele>
        <time>2022-03-31T09:36:34Z</time>
      </trkpt>
      <trkpt lat="47.551098" lon="1.7164968">
        <ele>139.0</ele>
        <time>2022-03-31T09:36:35Z</time>
      </trkpt>
      <trkpt lat="47.5511" lon="1.7165157">
        <ele>139.0</ele>
        <time>2022-03-31T09:36:36Z</time>
      </trkpt>
      <trkpt lat="47.551105" lon="1.7165297">
        <ele>139.0</ele>
        <time>2022-03-31T09:36:37Z</time>
      </trkpt>
      <trkpt lat="47.55111" lon="1.7165465">
        <ele>138.0</ele>
        <time>2022-03-31T09:36:38Z</time>
      </trkpt>
      <trkpt lat="47.551113" lon="1.7165586">
        <ele>139.0</ele>
        <time>2022-03-31T09:36:39Z</time>
      </trkpt>
      <trkpt lat="47.551113" lon="1.7165722">
        <ele>138.0</ele>
        <time>2022-03-31T09:36:40Z</time>
      </trkpt>
      <trkpt lat="47.551113" lon="1.7165921">
        <ele>138.0</ele>
        <time>2022-03-31T09:36:41Z</time>
      </trkpt>
      <trkpt lat="47.551117" lon="1.7166097">
        <ele>138.0</ele>
        <time>2022-03-31T09:36:42Z</time>
      </trkpt>
      <trkpt lat="47.551117" lon="1.7166275">
        <ele>138.0</ele>
        <time>2022-03-31T09:36:43Z</time>
      </trkpt>
      <trkpt lat="47.551117" lon="1.7166452">
        <ele>138.0</ele>
        <time>2022-03-31T09:36:44Z</time>
      </trkpt>
      <trkpt lat="47.55112" lon="1.7166609">
        <ele>138.0</ele>
        <time>2022-03-31T09:36:45Z</time>
      </trkpt>
      <trkpt lat="47.55112" lon="1.7166797">
        <ele>138.0</ele>
        <time>2022-03-31T09:36:46Z</time>
      </trkpt>
      <trkpt lat="47.551125" lon="1.7166977">
        <ele>138.0</ele>
        <time>2022-03-31T09:36:47Z</time>
      </trkpt>
      <trkpt lat="47.551125" lon="1.7167187">
        <ele>139.0</ele>
        <time>2022-03-31T09:36:48Z</time>
      </trkpt>
      <trkpt lat="47.551125" lon="1.716735">
        <ele>139.0</ele>
        <time>2022-03-31T09:36:49Z</time>
      </trkpt>
      <trkpt lat="47.55113" lon="1.7167523">
        <ele>139.0</ele>
        <time>2022-03-31T09:36:50Z</time>
      </trkpt>
      <trkpt lat="47.551132" lon="1.7167677">
        <ele>139.0</ele>
        <time>2022-03-31T09:36:51Z</time>
      </trkpt>
      <trkpt lat="47.55114" lon="1.7167832">
        <ele>139.0</ele>
        <time>2022-03-31T09:36:52Z</time>
      </trkpt>
      <trkpt lat="47.551144" lon="1.7167957">
        <ele>139.0</ele>
        <time>2022-03-31T09:36:53Z</time>
      </trkpt>
      <trkpt lat="47.551144" lon="1.7168128">
        <ele>139.0</ele>
        <time>2022-03-31T09:36:54Z</time>
      </trkpt>
      <trkpt lat="47.551147" lon="1.716831">
        <ele>138.0</ele>
        <time>2022-03-31T09:36:55Z</time>
      </trkpt>
      <trkpt lat="47.55115" lon="1.7168443">
        <ele>138.0</ele>
        <time>2022-03-31T09:36:56Z</time>
      </trkpt>
      <trkpt lat="47.551155" lon="1.7168567">
        <ele>138.0</ele>
        <time>2022-03-31T09:36:57Z</time>
      </trkpt>
      <trkpt lat="47.55116" lon="1.7168669">
        <ele>138.0</ele>
        <time>2022-03-31T09:36:58Z</time>
      </trkpt>
      <trkpt lat="47.551163" lon="1.7168852">
        <ele>138.0</ele>
        <time>2022-03-31T09:36:59Z</time>
      </trkpt>
      <trkpt lat="47.551167" lon="1.7168994">
        <ele>138.0</ele>
        <time>2022-03-31T09:37:00Z</time>
      </trkpt>
      <trkpt lat="47.55117" lon="1.7169155">
        <ele>138.0</ele>
        <time>2022-03-31T09:37:01Z</time>
      </trkpt>
      <trkpt lat="47.55117" lon="1.7169319">
        <ele>139.0</ele>
        <time>2022-03-31T09:37:02Z</time>
      </trkpt>
      <trkpt lat="47.551174" lon="1.7169465">
        <ele>138.0</ele>
        <time>2022-03-31T09:37:03Z</time>
      </trkpt>
      <trkpt lat="47.551178" lon="1.7169635">
        <ele>138.0</ele>
        <time>2022-03-31T09:37:04Z</time>
      </trkpt>
      <trkpt lat="47.55118" lon="1.7169857">
        <ele>138.0</ele>
        <time>2022-03-31T09:37:05Z</time>
      </trkpt>
      <trkpt lat="47.551186" lon="1.7169987">
        <ele>138.0</ele>
        <time>2022-03-31T09:37:06Z</time>
      </trkpt>
      <trkpt lat="47.551186" lon="1.7170128">
        <ele>138.0</ele>
        <time>2022-03-31T09:37:07Z</time>
      </trkpt>
      <trkpt lat="47.55119" lon="1.7170273">
        <ele>138.0</ele>
        <time>2022-03-31T09:37:08Z</time>
      </trkpt>
      <trkpt lat="47.551193" lon="1.7170422">
        <ele>138.0</ele>
        <time>2022-03-31T09:37:09Z</time>
      </trkpt>
      <trkpt lat="47.551193" lon="1.7170589">
        <ele>138.0</ele>
        <time>2022-03-31T09:37:10Z</time>
      </trkpt>
      <trkpt lat="47.551197" lon="1.7170719">
        <ele>138.0</ele>
        <time>2022-03-31T09:37:11Z</time>
      </trkpt>
      <trkpt lat="47.5512" lon="1.7170881">
        <ele>138.0</ele>
        <time>2022-03-31T09:37:12Z</time>
      </trkpt>
      <trkpt lat="47.5512" lon="1.717105">
        <ele>138.0</ele>
        <time>2022-03-31T09:37:13Z</time>
      </trkpt>
      <trkpt lat="47.5512" lon="1.7171227">
        <ele>138.0</ele>
        <time>2022-03-31T09:37:14Z</time>
      </trkpt>
      <trkpt lat="47.551205" lon="1.7171377">
        <ele>137.0</ele>
        <time>2022-03-31T09:37:15Z</time>
      </trkpt>
      <trkpt lat="47.55121" lon="1.7171478">
        <ele>137.0</ele>
        <time>2022-03-31T09:37:16Z</time>
      </trkpt>
      <trkpt lat="47.55121" lon="1.717166">
        <ele>137.0</ele>
        <time>2022-03-31T09:37:17Z</time>
      </trkpt>
      <trkpt lat="47.551212" lon="1.7171859">
        <ele>137.0</ele>
        <time>2022-03-31T09:37:18Z</time>
      </trkpt>
      <trkpt lat="47.551212" lon="1.7172016">
        <ele>137.0</ele>
        <time>2022-03-31T09:37:19Z</time>
      </trkpt>
      <trkpt lat="47.551212" lon="1.7172178">
        <ele>137.0</ele>
        <time>2022-03-31T09:37:20Z</time>
      </trkpt>
      <trkpt lat="47.551216" lon="1.7172358">
        <ele>137.0</ele>
        <time>2022-03-31T09:37:21Z</time>
      </trkpt>
      <trkpt lat="47.55122" lon="1.7172527">
        <ele>137.0</ele>
        <time>2022-03-31T09:37:22Z</time>
      </trkpt>
      <trkpt lat="47.551216" lon="1.7172726">
        <ele>138.0</ele>
        <time>2022-03-31T09:37:23Z</time>
      </trkpt>
      <trkpt lat="47.551216" lon="1.717291">
        <ele>137.0</ele>
        <time>2022-03-31T09:37:24Z</time>
      </trkpt>
      <trkpt lat="47.551216" lon="1.7173089">
        <ele>137.0</ele>
        <time>2022-03-31T09:37:25Z</time>
      </trkpt>
      <trkpt lat="47.551224" lon="1.7173215">
        <ele>137.0</ele>
        <time>2022-03-31T09:37:26Z</time>
      </trkpt>
      <trkpt lat="47.551224" lon="1.7173346">
        <ele>137.0</ele>
        <time>2022-03-31T09:37:27Z</time>
      </trkpt>
      <trkpt lat="47.551228" lon="1.7173496">
        <ele>137.0</ele>
        <time>2022-03-31T09:37:28Z</time>
      </trkpt>
      <trkpt lat="47.55123" lon="1.7173605">
        <ele>137.0</ele>
        <time>2022-03-31T09:37:29Z</time>
      </trkpt>
      <trkpt lat="47.55123" lon="1.7173765">
        <ele>137.0</ele>
        <time>2022-03-31T09:37:30Z</time>
      </trkpt>
      <trkpt lat="47.55124" lon="1.7173944">
        <ele>137.0</ele>
        <time>2022-03-31T09:37:31Z</time>
      </trkpt>
      <trkpt lat="47.551243" lon="1.7174058">
        <ele>137.0</ele>
        <time>2022-03-31T09:37:32Z</time>
      </trkpt>
      <trkpt lat="47.551247" lon="1.7174194">
        <ele>136.0</ele>
        <time>2022-03-31T09:37:33Z</time>
      </trkpt>
      <trkpt lat="47.55125" lon="1.7174337">
        <ele>137.0</ele>
        <time>2022-03-31T09:37:34Z</time>
      </trkpt>
      <trkpt lat="47.551254" lon="1.7174532">
        <ele>137.0</ele>
        <time>2022-03-31T09:37:35Z</time>
      </trkpt>
      <trkpt lat="47.55126" lon="1.7174702">
        <ele>137.0</ele>
        <time>2022-03-31T09:37:36Z</time>
      </trkpt>
      <trkpt lat="47.551266" lon="1.7174833">
        <ele>137.0</ele>
        <time>2022-03-31T09:37:37Z</time>
      </trkpt>
      <trkpt lat="47.55127" lon="1.7175015">
        <ele>137.0</ele>
        <time>2022-03-31T09:37:38Z</time>
      </trkpt>
      <trkpt lat="47.551273" lon="1.717519">
        <ele>137.0</ele>
        <time>2022-03-31T09:37:39Z</time>
      </trkpt>
      <trkpt lat="47.551277" lon="1.7175386">
        <ele>137.0</ele>
        <time>2022-03-31T09:37:40Z</time>
      </trkpt>
      <trkpt lat="47.551277" lon="1.7175561">
        <ele>137.0</ele>
        <time>2022-03-31T09:37:41Z</time>
      </trkpt>
      <trkpt lat="47.55128" lon="1.7175752">
        <ele>137.0</ele>
        <time>2022-03-31T09:37:42Z</time>
      </trkpt>
      <trkpt lat="47.551285" lon="1.7175936">
        <ele>137.0</ele>
        <time>2022-03-31T09:37:43Z</time>
      </trkpt>
      <trkpt lat="47.551285" lon="1.717612">
        <ele>137.0</ele>
        <time>2022-03-31T09:37:44Z</time>
      </trkpt>
      <trkpt lat="47.55129" lon="1.7176261">
        <ele>137.0</ele>
        <time>2022-03-31T09:37:45Z</time>
      </trkpt>
      <trkpt lat="47.551292" lon="1.717643">
        <ele>137.0</ele>
        <time>2022-03-31T09:37:46Z</time>
      </trkpt>
      <trkpt lat="47.551296" lon="1.7176591">
        <ele>137.0</ele>
        <time>2022-03-31T09:37:47Z</time>
      </trkpt>
      <trkpt lat="47.5513" lon="1.7176733">
        <ele>138.0</ele>
        <time>2022-03-31T09:37:48Z</time>
      </trkpt>
      <trkpt lat="47.551304" lon="1.7176874">
        <ele>138.0</ele>
        <time>2022-03-31T09:37:49Z</time>
      </trkpt>
      <trkpt lat="47.551308" lon="1.717704">
        <ele>138.0</ele>
        <time>2022-03-31T09:37:50Z</time>
      </trkpt>
      <trkpt lat="47.551308" lon="1.7177224">
        <ele>138.0</ele>
        <time>2022-03-31T09:37:51Z</time>
      </trkpt>
      <trkpt lat="47.551308" lon="1.7177439">
        <ele>138.0</ele>
        <time>2022-03-31T09:37:52Z</time>
      </trkpt>
      <trkpt lat="47.551308" lon="1.7177622">
        <ele>138.0</ele>
        <time>2022-03-31T09:37:53Z</time>
      </trkpt>
      <trkpt lat="47.55131" lon="1.717778">
        <ele>138.0</ele>
        <time>2022-03-31T09:37:54Z</time>
      </trkpt>
      <trkpt lat="47.55131" lon="1.7177957">
        <ele>138.0</ele>
        <time>2022-03-31T09:37:55Z</time>
      </trkpt>
      <trkpt lat="47.55131" lon="1.7178136">
        <ele>138.0</ele>
        <time>2022-03-31T09:37:56Z</time>
      </trkpt>
      <trkpt lat="47.55131" lon="1.7178319">
        <ele>139.0</ele>
        <time>2022-03-31T09:37:57Z</time>
      </trkpt>
      <trkpt lat="47.551315" lon="1.7178516">
        <ele>139.0</ele>
        <time>2022-03-31T09:37:58Z</time>
      </trkpt>
      <trkpt lat="47.55132" lon="1.7178698">
        <ele>139.0</ele>
        <time>2022-03-31T09:37:59Z</time>
      </trkpt>
      <trkpt lat="47.55132" lon="1.7178853">
        <ele>139.0</ele>
        <time>2022-03-31T09:38:00Z</time>
      </trkpt>
      <trkpt lat="47.551323" lon="1.7179059">
        <ele>139.0</ele>
        <time>2022-03-31T09:38:01Z</time>
      </trkpt>
      <trkpt lat="47.551323" lon="1.7179219">
        <ele>139.0</ele>
        <time>2022-03-31T09:38:02Z</time>
      </trkpt>
      <trkpt lat="47.551323" lon="1.7179416">
        <ele>139.0</ele>
        <time>2022-03-31T09:38:03Z</time>
      </trkpt>
      <trkpt lat="47.55133" lon="1.7179593">
        <ele>139.0</ele>
        <time>2022-03-31T09:38:04Z</time>
      </trkpt>
      <trkpt lat="47.55133" lon="1.717977">
        <ele>139.0</ele>
        <time>2022-03-31T09:38:05Z</time>
      </trkpt>
      <trkpt lat="47.551334" lon="1.7179955">
        <ele>139.0</ele>
        <time>2022-03-31T09:38:06Z</time>
      </trkpt>
      <trkpt lat="47.55134" lon="1.7180115">
        <ele>139.0</ele>
        <time>2022-03-31T09:38:07Z</time>
      </trkpt>
      <trkpt lat="47.551342" lon="1.7180295">
        <ele>139.0</ele>
        <time>2022-03-31T09:38:08Z</time>
      </trkpt>
      <trkpt lat="47.551346" lon="1.7180496">
        <ele>139.0</ele>
        <time>2022-03-31T09:38:09Z</time>
      </trkpt>
      <trkpt lat="47.551346" lon="1.7180669">
        <ele>139.0</ele>
        <time>2022-03-31T09:38:10Z</time>
      </trkpt>
      <trkpt lat="47.55135" lon="1.7180846">
        <ele>138.0</ele>
        <time>2022-03-31T09:38:11Z</time>
      </trkpt>
      <trkpt lat="47.55135" lon="1.7181038">
        <ele>138.0</ele>
        <time>2022-03-31T09:38:12Z</time>
      </trkpt>
      <trkpt lat="47.551357" lon="1.7181189">
        <ele>139.0</ele>
        <time>2022-03-31T09:38:13Z</time>
      </trkpt>
      <trkpt lat="47.55136" lon="1.7181362">
        <ele>139.0</ele>
        <time>2022-03-31T09:38:14Z</time>
      </trkpt>
      <trkpt lat="47.551365" lon="1.7181574">
        <ele>140.0</ele>
        <time>2022-03-31T09:38:15Z</time>
      </trkpt>
      <trkpt lat="47.551365" lon="1.7181737">
        <ele>140.0</ele>
        <time>2022-03-31T09:38:16Z</time>
      </trkpt>
      <trkpt lat="47.551373" lon="1.7181885">
        <ele>139.0</ele>
        <time>2022-03-31T09:38:17Z</time>
      </trkpt>
      <trkpt lat="47.551373" lon="1.7182057">
        <ele>139.0</ele>
        <time>2022-03-31T09:38:18Z</time>
      </trkpt>
      <trkpt lat="47.551376" lon="1.7182215">
        <ele>139.0</ele>
        <time>2022-03-31T09:38:19Z</time>
      </trkpt>
      <trkpt lat="47.55138" lon="1.7182413">
        <ele>139.0</ele>
        <time>2022-03-31T09:38:20Z</time>
      </trkpt>
      <trkpt lat="47.55138" lon="1.7182556">
        <ele>139.0</ele>
        <time>2022-03-31T09:38:21Z</time>
      </trkpt>
      <trkpt lat="47.551384" lon="1.7182666">
        <ele>139.0</ele>
        <time>2022-03-31T09:38:22Z</time>
      </trkpt>
      <trkpt lat="47.551388" lon="1.7182802">
        <ele>140.0</ele>
        <time>2022-03-31T09:38:23Z</time>
      </trkpt>
      <trkpt lat="47.55139" lon="1.718295">
        <ele>140.0</ele>
        <time>2022-03-31T09:38:24Z</time>
      </trkpt>
      <trkpt lat="47.55139" lon="1.7183098">
        <ele>140.0</ele>
        <time>2022-03-31T09:38:25Z</time>
      </trkpt>
      <trkpt lat="47.551388" lon="1.7183237">
        <ele>139.0</ele>
        <time>2022-03-31T09:38:26Z</time>
      </trkpt>
      <trkpt lat="47.55139" lon="1.7183354">
        <ele>139.0</ele>
        <time>2022-03-31T09:38:27Z</time>
      </trkpt>
      <trkpt lat="47.55139" lon="1.7183523">
        <ele>139.0</ele>
        <time>2022-03-31T09:38:28Z</time>
      </trkpt>
      <trkpt lat="47.551395" lon="1.7183684">
        <ele>139.0</ele>
        <time>2022-03-31T09:38:29Z</time>
      </trkpt>
      <trkpt lat="47.5514" lon="1.7183878">
        <ele>139.0</ele>
        <time>2022-03-31T09:38:30Z</time>
      </trkpt>
      <trkpt lat="47.551403" lon="1.718407">
        <ele>139.0</ele>
        <time>2022-03-31T09:38:31Z</time>
      </trkpt>
      <trkpt lat="47.551403" lon="1.71842">
        <ele>139.0</ele>
        <time>2022-03-31T09:38:32Z</time>
      </trkpt>
      <trkpt lat="47.551407" lon="1.7184359">
        <ele>139.0</ele>
        <time>2022-03-31T09:38:33Z</time>
      </trkpt>
      <trkpt lat="47.551407" lon="1.7184529">
        <ele>139.0</ele>
        <time>2022-03-31T09:38:34Z</time>
      </trkpt>
      <trkpt lat="47.55141" lon="1.7184701">
        <ele>139.0</ele>
        <time>2022-03-31T09:38:35Z</time>
      </trkpt>
      <trkpt lat="47.551414" lon="1.7184855">
        <ele>138.0</ele>
        <time>2022-03-31T09:38:36Z</time>
      </trkpt>
      <trkpt lat="47.55142" lon="1.7185005">
        <ele>138.0</ele>
        <time>2022-03-31T09:38:37Z</time>
      </trkpt>
      <trkpt lat="47.551422" lon="1.7185181">
        <ele>138.0</ele>
        <time>2022-03-31T09:38:38Z</time>
      </trkpt>
      <trkpt lat="47.551426" lon="1.7185318">
        <ele>139.0</ele>
        <time>2022-03-31T09:38:39Z</time>
      </trkpt>
      <trkpt lat="47.55143" lon="1.718544">
        <ele>139.0</ele>
        <time>2022-03-31T09:38:40Z</time>
      </trkpt>
      <trkpt lat="47.55143" lon="1.718549">
        <ele>138.0</ele>
        <time>2022-03-31T09:38:41Z</time>
      </trkpt>
      <trkpt lat="47.551434" lon="1.7185493">
        <ele>138.0</ele>
        <time>2022-03-31T09:38:42Z</time>
      </trkpt>
      <trkpt lat="47.551437" lon="1.7185603">
        <ele>139.0</ele>
        <time>2022-03-31T09:38:43Z</time>
      </trkpt>
      <trkpt lat="47.55144" lon="1.7185698">
        <ele>139.0</ele>
        <time>2022-03-31T09:38:44Z</time>
      </trkpt>
      <trkpt lat="47.55145" lon="1.7185819">
        <ele>139.0</ele>
        <time>2022-03-31T09:38:45Z</time>
      </trkpt>
      <trkpt lat="47.551453" lon="1.7185977">
        <ele>139.0</ele>
        <time>2022-03-31T09:38:46Z</time>
      </trkpt>
      <trkpt lat="47.551453" lon="1.718611">
        <ele>139.0</ele>
        <time>2022-03-31T09:38:47Z</time>
      </trkpt>
      <trkpt lat="47.551456" lon="1.7186247">
        <ele>139.0</ele>
        <time>2022-03-31T09:38:48Z</time>
      </trkpt>
      <trkpt lat="47.551456" lon="1.718637">
        <ele>140.0</ele>
        <time>2022-03-31T09:38:49Z</time>
      </trkpt>
      <trkpt lat="47.551456" lon="1.7186528">
        <ele>140.0</ele>
        <time>2022-03-31T09:38:50Z</time>
      </trkpt>
      <trkpt lat="47.551453" lon="1.7186695">
        <ele>140.0</ele>
        <time>2022-03-31T09:38:51Z</time>
      </trkpt>
      <trkpt lat="47.551456" lon="1.7186857">
        <ele>140.0</ele>
        <time>2022-03-31T09:38:52Z</time>
      </trkpt>
      <trkpt lat="47.55146" lon="1.7187037">
        <ele>140.0</ele>
        <time>2022-03-31T09:38:53Z</time>
      </trkpt>
      <trkpt lat="47.551464" lon="1.7187222">
        <ele>140.0</ele>
        <time>2022-03-31T09:38:54Z</time>
      </trkpt>
      <trkpt lat="47.551468" lon="1.718741">
        <ele>140.0</ele>
        <time>2022-03-31T09:38:55Z</time>
      </trkpt>
      <trkpt lat="47.55147" lon="1.7187568">
        <ele>140.0</ele>
        <time>2022-03-31T09:38:56Z</time>
      </trkpt>
      <trkpt lat="47.55147" lon="1.7187666">
        <ele>140.0</ele>
        <time>2022-03-31T09:38:57Z</time>
      </trkpt>
      <trkpt lat="47.55147" lon="1.7187686">
        <ele>141.0</ele>
        <time>2022-03-31T09:38:58Z</time>
      </trkpt>
      <trkpt lat="47.55147" lon="1.7187666">
        <ele>141.0</ele>
        <time>2022-03-31T09:38:59Z</time>
      </trkpt>
      <trkpt lat="47.55147" lon="1.7187685">
        <ele>141.0</ele>
        <time>2022-03-31T09:39:00Z</time>
      </trkpt>
      <trkpt lat="47.55147" lon="1.7187685">
        <ele>141.0</ele>
        <time>2022-03-31T09:39:00Z</time>
      </trkpt>
      <trkpt lat="47.55147" lon="1.7187685">
        <ele>141.0</ele>
        <time>2022-03-31T09:39:00Z</time>
      </trkpt>
      <trkpt lat="47.55148" lon="1.7188514">
        <ele>141.0</ele>
        <time>2022-03-31T09:39:06Z</time>
      </trkpt>
      <trkpt lat="47.55148" lon="1.7188711">
        <ele>141.0</ele>
        <time>2022-03-31T09:39:07Z</time>
      </trkpt>
      <trkpt lat="47.551476" lon="1.7188919">
        <ele>141.0</ele>
        <time>2022-03-31T09:39:08Z</time>
      </trkpt>
      <trkpt lat="47.551483" lon="1.7189072">
        <ele>141.0</ele>
        <time>2022-03-31T09:39:09Z</time>
      </trkpt>
      <trkpt lat="47.551487" lon="1.7189276">
        <ele>141.0</ele>
        <time>2022-03-31T09:39:10Z</time>
      </trkpt>
      <trkpt lat="47.551487" lon="1.7189485">
        <ele>141.0</ele>
        <time>2022-03-31T09:39:11Z</time>
      </trkpt>
      <trkpt lat="47.551487" lon="1.718953">
        <ele>141.0</ele>
        <time>2022-03-31T09:39:12Z</time>
      </trkpt>
      <trkpt lat="47.551487" lon="1.7189561">
        <ele>141.0</ele>
        <time>2022-03-31T09:39:13Z</time>
      </trkpt>
      <trkpt lat="47.55149" lon="1.7189709">
        <ele>141.0</ele>
        <time>2022-03-31T09:39:14Z</time>
      </trkpt>
      <trkpt lat="47.551495" lon="1.7189896">
        <ele>140.0</ele>
        <time>2022-03-31T09:39:15Z</time>
      </trkpt>
      <trkpt lat="47.5515" lon="1.7190062">
        <ele>141.0</ele>
        <time>2022-03-31T09:39:16Z</time>
      </trkpt>
      <trkpt lat="47.551502" lon="1.7190237">
        <ele>140.0</ele>
        <time>2022-03-31T09:39:17Z</time>
      </trkpt>
      <trkpt lat="47.551502" lon="1.7190384">
        <ele>140.0</ele>
        <time>2022-03-31T09:39:18Z</time>
      </trkpt>
      <trkpt lat="47.551502" lon="1.7190524">
        <ele>140.0</ele>
        <time>2022-03-31T09:39:19Z</time>
      </trkpt>
      <trkpt lat="47.551506" lon="1.7190697">
        <ele>140.0</ele>
        <time>2022-03-31T09:39:20Z</time>
      </trkpt>
      <trkpt lat="47.55151" lon="1.7190882">
        <ele>140.0</ele>
        <time>2022-03-31T09:39:21Z</time>
      </trkpt>
      <trkpt lat="47.55151" lon="1.7191073">
        <ele>140.0</ele>
        <time>2022-03-31T09:39:22Z</time>
      </trkpt>
      <trkpt lat="47.55151" lon="1.7191261">
        <ele>140.0</ele>
        <time>2022-03-31T09:39:23Z</time>
      </trkpt>
      <trkpt lat="47.55151" lon="1.719139">
        <ele>140.0</ele>
        <time>2022-03-31T09:39:24Z</time>
      </trkpt>
      <trkpt lat="47.551514" lon="1.7191504">
        <ele>139.0</ele>
        <time>2022-03-31T09:39:25Z</time>
      </trkpt>
      <trkpt lat="47.551514" lon="1.7191643">
        <ele>139.0</ele>
        <time>2022-03-31T09:39:26Z</time>
      </trkpt>
      <trkpt lat="47.551517" lon="1.7191744">
        <ele>138.0</ele>
        <time>2022-03-31T09:39:27Z</time>
      </trkpt>
      <trkpt lat="47.55152" lon="1.7191863">
        <ele>138.0</ele>
        <time>2022-03-31T09:39:28Z</time>
      </trkpt>
      <trkpt lat="47.551525" lon="1.7192038">
        <ele>138.0</ele>
        <time>2022-03-31T09:39:29Z</time>
      </trkpt>
      <trkpt lat="47.55153" lon="1.7192223">
        <ele>138.0</ele>
        <time>2022-03-31T09:39:30Z</time>
      </trkpt>
      <trkpt lat="47.551533" lon="1.7192338">
        <ele>138.0</ele>
        <time>2022-03-31T09:39:31Z</time>
      </trkpt>
      <trkpt lat="47.551537" lon="1.7192513">
        <ele>137.0</ele>
        <time>2022-03-31T09:39:32Z</time>
      </trkpt>
      <trkpt lat="47.55154" lon="1.7192663">
        <ele>137.0</ele>
        <time>2022-03-31T09:39:33Z</time>
      </trkpt>
      <trkpt lat="47.551544" lon="1.719279">
        <ele>137.0</ele>
        <time>2022-03-31T09:39:34Z</time>
      </trkpt>
      <trkpt lat="47.551548" lon="1.7192929">
        <ele>137.0</ele>
        <time>2022-03-31T09:39:35Z</time>
      </trkpt>
      <trkpt lat="47.55155" lon="1.7193049">
        <ele>137.0</ele>
        <time>2022-03-31T09:39:36Z</time>
      </trkpt>
      <trkpt lat="47.551556" lon="1.719318">
        <ele>137.0</ele>
        <time>2022-03-31T09:39:37Z</time>
      </trkpt>
      <trkpt lat="47.55156" lon="1.7193348">
        <ele>137.0</ele>
        <time>2022-03-31T09:39:38Z</time>
      </trkpt>
      <trkpt lat="47.551563" lon="1.7193512">
        <ele>136.0</ele>
        <time>2022-03-31T09:39:39Z</time>
      </trkpt>
      <trkpt lat="47.551563" lon="1.7193669">
        <ele>136.0</ele>
        <time>2022-03-31T09:39:40Z</time>
      </trkpt>
      <trkpt lat="47.551563" lon="1.7193804">
        <ele>136.0</ele>
        <time>2022-03-31T09:39:41Z</time>
      </trkpt>
      <trkpt lat="47.55157" lon="1.7193916">
        <ele>137.0</ele>
        <time>2022-03-31T09:39:42Z</time>
      </trkpt>
      <trkpt lat="47.55157" lon="1.7194104">
        <ele>137.0</ele>
        <time>2022-03-31T09:39:43Z</time>
      </trkpt>
      <trkpt lat="47.55157" lon="1.7194283">
        <ele>137.0</ele>
        <time>2022-03-31T09:39:44Z</time>
      </trkpt>
      <trkpt lat="47.55157" lon="1.7194463">
        <ele>137.0</ele>
        <time>2022-03-31T09:39:45Z</time>
      </trkpt>
      <trkpt lat="47.551575" lon="1.7194613">
        <ele>136.0</ele>
        <time>2022-03-31T09:39:46Z</time>
      </trkpt>
      <trkpt lat="47.55158" lon="1.7194757">
        <ele>136.0</ele>
        <time>2022-03-31T09:39:47Z</time>
      </trkpt>
      <trkpt lat="47.551582" lon="1.7194954">
        <ele>137.0</ele>
        <time>2022-03-31T09:39:48Z</time>
      </trkpt>
      <trkpt lat="47.551586" lon="1.7195113">
        <ele>136.0</ele>
        <time>2022-03-31T09:39:49Z</time>
      </trkpt>
      <trkpt lat="47.55159" lon="1.719529">
        <ele>136.0</ele>
        <time>2022-03-31T09:39:50Z</time>
      </trkpt>
      <trkpt lat="47.551594" lon="1.7195435">
        <ele>137.0</ele>
        <time>2022-03-31T09:39:51Z</time>
      </trkpt>
      <trkpt lat="47.5516" lon="1.7195565">
        <ele>137.0</ele>
        <time>2022-03-31T09:39:52Z</time>
      </trkpt>
      <trkpt lat="47.551605" lon="1.7195722">
        <ele>137.0</ele>
        <time>2022-03-31T09:39:53Z</time>
      </trkpt>
      <trkpt lat="47.55161" lon="1.719587">
        <ele>137.0</ele>
        <time>2022-03-31T09:39:54Z</time>
      </trkpt>
      <trkpt lat="47.551617" lon="1.719604">
        <ele>137.0</ele>
        <time>2022-03-31T09:39:55Z</time>
      </trkpt>
      <trkpt lat="47.55162" lon="1.7196184">
        <ele>137.0</ele>
        <time>2022-03-31T09:39:56Z</time>
      </trkpt>
      <trkpt lat="47.551624" lon="1.7196342">
        <ele>137.0</ele>
        <time>2022-03-31T09:39:57Z</time>
      </trkpt>
      <trkpt lat="47.55163" lon="1.7196481">
        <ele>137.0</ele>
        <time>2022-03-31T09:39:58Z</time>
      </trkpt>
      <trkpt lat="47.551632" lon="1.7196636">
        <ele>137.0</ele>
        <time>2022-03-31T09:39:59Z</time>
      </trkpt>
      <trkpt lat="47.551636" lon="1.719676">
        <ele>137.0</ele>
        <time>2022-03-31T09:40:00Z</time>
      </trkpt>
      <trkpt lat="47.551636" lon="1.719688">
        <ele>137.0</ele>
        <time>2022-03-31T09:40:01Z</time>
      </trkpt>
      <trkpt lat="47.55164" lon="1.7196912">
        <ele>137.0</ele>
        <time>2022-03-31T09:40:02Z</time>
      </trkpt>
      <trkpt lat="47.551643" lon="1.7196934">
        <ele>138.0</ele>
        <time>2022-03-31T09:40:03Z</time>
      </trkpt>
      <trkpt lat="47.551643" lon="1.7196982">
        <ele>138.0</ele>
        <time>2022-03-31T09:40:04Z</time>
      </trkpt>
      <trkpt lat="47.551643" lon="1.7196952">
        <ele>138.0</ele>
        <time>2022-03-31T09:40:05Z</time>
      </trkpt>
      <trkpt lat="47.551647" lon="1.7196988">
        <ele>139.0</ele>
        <time>2022-03-31T09:40:06Z</time>
      </trkpt>
      <trkpt lat="47.551647" lon="1.7196988">
        <ele>139.0</ele>
        <time>2022-03-31T09:40:06Z</time>
      </trkpt>
      <trkpt lat="47.551662" lon="1.7197796">
        <ele>141.0</ele>
        <time>2022-03-31T09:40:18Z</time>
      </trkpt>
      <trkpt lat="47.551666" lon="1.7197914">
        <ele>140.0</ele>
        <time>2022-03-31T09:40:19Z</time>
      </trkpt>
      <trkpt lat="47.55167" lon="1.7198029">
        <ele>140.0</ele>
        <time>2022-03-31T09:40:20Z</time>
      </trkpt>
      <trkpt lat="47.551674" lon="1.7198097">
        <ele>140.0</ele>
        <time>2022-03-31T09:40:21Z</time>
      </trkpt>
      <trkpt lat="47.551678" lon="1.719819">
        <ele>141.0</ele>
        <time>2022-03-31T09:40:22Z</time>
      </trkpt>
      <trkpt lat="47.551685" lon="1.719832">
        <ele>141.0</ele>
        <time>2022-03-31T09:40:23Z</time>
      </trkpt>
      <trkpt lat="47.55169" lon="1.7198399">
        <ele>140.0</ele>
        <time>2022-03-31T09:40:24Z</time>
      </trkpt>
      <trkpt lat="47.5517" lon="1.7198538">
        <ele>140.0</ele>
        <time>2022-03-31T09:40:25Z</time>
      </trkpt>
      <trkpt lat="47.55171" lon="1.7198721">
        <ele>140.0</ele>
        <time>2022-03-31T09:40:26Z</time>
      </trkpt>
      <trkpt lat="47.551716" lon="1.7198869">
        <ele>140.0</ele>
        <time>2022-03-31T09:40:27Z</time>
      </trkpt>
      <trkpt lat="47.55172" lon="1.7199041">
        <ele>141.0</ele>
        <time>2022-03-31T09:40:28Z</time>
      </trkpt>
      <trkpt lat="47.551727" lon="1.7199198">
        <ele>140.0</ele>
        <time>2022-03-31T09:40:29Z</time>
      </trkpt>
      <trkpt lat="47.551735" lon="1.7199357">
        <ele>140.0</ele>
        <time>2022-03-31T09:40:30Z</time>
      </trkpt>
      <trkpt lat="47.551735" lon="1.7199504">
        <ele>140.0</ele>
        <time>2022-03-31T09:40:31Z</time>
      </trkpt>
      <trkpt lat="47.551743" lon="1.7199628">
        <ele>140.0</ele>
        <time>2022-03-31T09:40:32Z</time>
      </trkpt>
      <trkpt lat="47.551746" lon="1.7199737">
        <ele>140.0</ele>
        <time>2022-03-31T09:40:33Z</time>
      </trkpt>
      <trkpt lat="47.551754" lon="1.7199851">
        <ele>140.0</ele>
        <time>2022-03-31T09:40:34Z</time>
      </trkpt>
      <trkpt lat="47.551758" lon="1.7200022">
        <ele>141.0</ele>
        <time>2022-03-31T09:40:35Z</time>
      </trkpt>
      <trkpt lat="47.55176" lon="1.720016">
        <ele>140.0</ele>
        <time>2022-03-31T09:40:36Z</time>
      </trkpt>
      <trkpt lat="47.55177" lon="1.7200282">
        <ele>140.0</ele>
        <time>2022-03-31T09:40:37Z</time>
      </trkpt>
      <trkpt lat="47.551777" lon="1.720038">
        <ele>140.0</ele>
        <time>2022-03-31T09:40:38Z</time>
      </trkpt>
      <trkpt lat="47.551785" lon="1.7200522">
        <ele>140.0</ele>
        <time>2022-03-31T09:40:39Z</time>
      </trkpt>
      <trkpt lat="47.55179" lon="1.7200658">
        <ele>140.0</ele>
        <time>2022-03-31T09:40:40Z</time>
      </trkpt>
      <trkpt lat="47.551796" lon="1.7200782">
        <ele>139.0</ele>
        <time>2022-03-31T09:40:41Z</time>
      </trkpt>
      <trkpt lat="47.551804" lon="1.7200927">
        <ele>139.0</ele>
        <time>2022-03-31T09:40:42Z</time>
      </trkpt>
      <trkpt lat="47.551815" lon="1.720106">
        <ele>139.0</ele>
        <time>2022-03-31T09:40:43Z</time>
      </trkpt>
      <trkpt lat="47.55182" lon="1.7201201">
        <ele>139.0</ele>
        <time>2022-03-31T09:40:44Z</time>
      </trkpt>
      <trkpt lat="47.55183" lon="1.7201331">
        <ele>139.0</ele>
        <time>2022-03-31T09:40:45Z</time>
      </trkpt>
      <trkpt lat="47.551834" lon="1.7201458">
        <ele>139.0</ele>
        <time>2022-03-31T09:40:46Z</time>
      </trkpt>
      <trkpt lat="47.55184" lon="1.7201606">
        <ele>139.0</ele>
        <time>2022-03-31T09:40:47Z</time>
      </trkpt>
      <trkpt lat="47.55185" lon="1.7201706">
        <ele>139.0</ele>
        <time>2022-03-31T09:40:48Z</time>
      </trkpt>
      <trkpt lat="47.551853" lon="1.7201821">
        <ele>139.0</ele>
        <time>2022-03-31T09:40:49Z</time>
      </trkpt>
      <trkpt lat="47.55186" lon="1.7201939">
        <ele>139.0</ele>
        <time>2022-03-31T09:40:50Z</time>
      </trkpt>
      <trkpt lat="47.551865" lon="1.720208">
        <ele>140.0</ele>
        <time>2022-03-31T09:40:51Z</time>
      </trkpt>
      <trkpt lat="47.551872" lon="1.7202235">
        <ele>140.0</ele>
        <time>2022-03-31T09:40:52Z</time>
      </trkpt>
      <trkpt lat="47.55188" lon="1.7202384">
        <ele>140.0</ele>
        <time>2022-03-31T09:40:53Z</time>
      </trkpt>
      <trkpt lat="47.551888" lon="1.7202526">
        <ele>140.0</ele>
        <time>2022-03-31T09:40:54Z</time>
      </trkpt>
      <trkpt lat="47.551895" lon="1.7202674">
        <ele>139.0</ele>
        <time>2022-03-31T09:40:55Z</time>
      </trkpt>
      <trkpt lat="47.551907" lon="1.7202797">
        <ele>140.0</ele>
        <time>2022-03-31T09:40:56Z</time>
      </trkpt>
      <trkpt lat="47.55191" lon="1.7202945">
        <ele>139.0</ele>
        <time>2022-03-31T09:40:57Z</time>
      </trkpt>
      <trkpt lat="47.551918" lon="1.7203102">
        <ele>139.0</ele>
        <time>2022-03-31T09:40:58Z</time>
      </trkpt>
      <trkpt lat="47.55192" lon="1.7203206">
        <ele>139.0</ele>
        <time>2022-03-31T09:40:59Z</time>
      </trkpt>
      <trkpt lat="47.55193" lon="1.7203314">
        <ele>139.0</ele>
        <time>2022-03-31T09:41:00Z</time>
      </trkpt>
      <trkpt lat="47.551933" lon="1.720341">
        <ele>138.0</ele>
        <time>2022-03-31T09:41:01Z</time>
      </trkpt>
      <trkpt lat="47.551937" lon="1.7203498">
        <ele>138.0</ele>
        <time>2022-03-31T09:41:02Z</time>
      </trkpt>
      <trkpt lat="47.551945" lon="1.7203604">
        <ele>138.0</ele>
        <time>2022-03-31T09:41:03Z</time>
      </trkpt>
      <trkpt lat="47.551952" lon="1.7203736">
        <ele>138.0</ele>
        <time>2022-03-31T09:41:04Z</time>
      </trkpt>
      <trkpt lat="47.551964" lon="1.7203865">
        <ele>138.0</ele>
        <time>2022-03-31T09:41:05Z</time>
      </trkpt>
      <trkpt lat="47.55197" lon="1.7203925">
        <ele>138.0</ele>
        <time>2022-03-31T09:41:06Z</time>
      </trkpt>
      <trkpt lat="47.55197" lon="1.7203971">
        <ele>139.0</ele>
        <time>2022-03-31T09:41:07Z</time>
      </trkpt>
      <trkpt lat="47.55197" lon="1.7203974">
        <ele>139.0</ele>
        <time>2022-03-31T09:41:08Z</time>
      </trkpt>
      <trkpt lat="47.551975" lon="1.7204039">
        <ele>139.0</ele>
        <time>2022-03-31T09:41:09Z</time>
      </trkpt>
      <trkpt lat="47.551983" lon="1.7204114">
        <ele>139.0</ele>
        <time>2022-03-31T09:41:10Z</time>
      </trkpt>
      <trkpt lat="47.55199" lon="1.7204269">
        <ele>139.0</ele>
        <time>2022-03-31T09:41:11Z</time>
      </trkpt>
      <trkpt lat="47.552" lon="1.7204418">
        <ele>139.0</ele>
        <time>2022-03-31T09:41:12Z</time>
      </trkpt>
      <trkpt lat="47.552006" lon="1.7204558">
        <ele>140.0</ele>
        <time>2022-03-31T09:41:13Z</time>
      </trkpt>
      <trkpt lat="47.552013" lon="1.7204698">
        <ele>139.0</ele>
        <time>2022-03-31T09:41:14Z</time>
      </trkpt>
      <trkpt lat="47.55202" lon="1.7204832">
        <ele>139.0</ele>
        <time>2022-03-31T09:41:15Z</time>
      </trkpt>
      <trkpt lat="47.55203" lon="1.720495">
        <ele>139.0</ele>
        <time>2022-03-31T09:41:16Z</time>
      </trkpt>
      <trkpt lat="47.552032" lon="1.7205056">
        <ele>139.0</ele>
        <time>2022-03-31T09:41:17Z</time>
      </trkpt>
      <trkpt lat="47.55204" lon="1.7205176">
        <ele>139.0</ele>
        <time>2022-03-31T09:41:18Z</time>
      </trkpt>
      <trkpt lat="47.552044" lon="1.7205305">
        <ele>139.0</ele>
        <time>2022-03-31T09:41:19Z</time>
      </trkpt>
      <trkpt lat="47.552055" lon="1.720546">
        <ele>139.0</ele>
        <time>2022-03-31T09:41:20Z</time>
      </trkpt>
      <trkpt lat="47.55206" lon="1.7205613">
        <ele>138.0</ele>
        <time>2022-03-31T09:41:21Z</time>
      </trkpt>
      <trkpt lat="47.552063" lon="1.7205728">
        <ele>138.0</ele>
        <time>2022-03-31T09:41:22Z</time>
      </trkpt>
      <trkpt lat="47.55207" lon="1.720586">
        <ele>138.0</ele>
        <time>2022-03-31T09:41:23Z</time>
      </trkpt>
      <trkpt lat="47.55208" lon="1.7206005">
        <ele>139.0</ele>
        <time>2022-03-31T09:41:24Z</time>
      </trkpt>
      <trkpt lat="47.552086" lon="1.7206126">
        <ele>139.0</ele>
        <time>2022-03-31T09:41:25Z</time>
      </trkpt>
      <trkpt lat="47.552097" lon="1.7206215">
        <ele>139.0</ele>
        <time>2022-03-31T09:41:26Z</time>
      </trkpt>
      <trkpt lat="47.552105" lon="1.7206339">
        <ele>139.0</ele>
        <time>2022-03-31T09:41:27Z</time>
      </trkpt>
      <trkpt lat="47.552113" lon="1.7206457">
        <ele>139.0</ele>
        <time>2022-03-31T09:41:28Z</time>
      </trkpt>
      <trkpt lat="47.55212" lon="1.7206612">
        <ele>139.0</ele>
        <time>2022-03-31T09:41:29Z</time>
      </trkpt>
      <trkpt lat="47.552128" lon="1.7206745">
        <ele>139.0</ele>
        <time>2022-03-31T09:41:30Z</time>
      </trkpt>
      <trkpt lat="47.552135" lon="1.7206863">
        <ele>139.0</ele>
        <time>2022-03-31T09:41:31Z</time>
      </trkpt>
      <trkpt lat="47.552143" lon="1.7206979">
        <ele>139.0</ele>
        <time>2022-03-31T09:41:32Z</time>
      </trkpt>
      <trkpt lat="47.552155" lon="1.7207092">
        <ele>139.0</ele>
        <time>2022-03-31T09:41:33Z</time>
      </trkpt>
      <trkpt lat="47.552162" lon="1.7207227">
        <ele>138.0</ele>
        <time>2022-03-31T09:41:34Z</time>
      </trkpt>
      <trkpt lat="47.552174" lon="1.720736">
        <ele>138.0</ele>
        <time>2022-03-31T09:41:35Z</time>
      </trkpt>
      <trkpt lat="47.55218" lon="1.720751">
        <ele>138.0</ele>
        <time>2022-03-31T09:41:36Z</time>
      </trkpt>
      <trkpt lat="47.552193" lon="1.7207637">
        <ele>138.0</ele>
        <time>2022-03-31T09:41:37Z</time>
      </trkpt>
      <trkpt lat="47.5522" lon="1.7207785">
        <ele>138.0</ele>
        <time>2022-03-31T09:41:38Z</time>
      </trkpt>
      <trkpt lat="47.552208" lon="1.7207928">
        <ele>139.0</ele>
        <time>2022-03-31T09:41:39Z</time>
      </trkpt>
      <trkpt lat="47.55222" lon="1.720807">
        <ele>139.0</ele>
        <time>2022-03-31T09:41:40Z</time>
      </trkpt>
      <trkpt lat="47.552227" lon="1.7208242">
        <ele>139.0</ele>
        <time>2022-03-31T09:41:41Z</time>
      </trkpt>
      <trkpt lat="47.55223" lon="1.7208391">
        <ele>139.0</ele>
        <time>2022-03-31T09:41:42Z</time>
      </trkpt>
      <trkpt lat="47.55224" lon="1.7208519">
        <ele>139.0</ele>
        <time>2022-03-31T09:41:43Z</time>
      </trkpt>
      <trkpt lat="47.55225" lon="1.7208673">
        <ele>139.0</ele>
        <time>2022-03-31T09:41:44Z</time>
      </trkpt>
      <trkpt lat="47.552254" lon="1.7208842">
        <ele>139.0</ele>
        <time>2022-03-31T09:41:45Z</time>
      </trkpt>
      <trkpt lat="47.552258" lon="1.7209016">
        <ele>139.0</ele>
        <time>2022-03-31T09:41:46Z</time>
      </trkpt>
      <trkpt lat="47.55226" lon="1.720916">
        <ele>139.0</ele>
        <time>2022-03-31T09:41:47Z</time>
      </trkpt>
      <trkpt lat="47.55227" lon="1.7209289">
        <ele>139.0</ele>
        <time>2022-03-31T09:41:48Z</time>
      </trkpt>
      <trkpt lat="47.552277" lon="1.7209392">
        <ele>139.0</ele>
        <time>2022-03-31T09:41:49Z</time>
      </trkpt>
      <trkpt lat="47.552284" lon="1.7209518">
        <ele>139.0</ele>
        <time>2022-03-31T09:41:50Z</time>
      </trkpt>
      <trkpt lat="47.55229" lon="1.7209665">
        <ele>139.0</ele>
        <time>2022-03-31T09:41:51Z</time>
      </trkpt>
      <trkpt lat="47.5523" lon="1.7209822">
        <ele>139.0</ele>
        <time>2022-03-31T09:41:52Z</time>
      </trkpt>
      <trkpt lat="47.552303" lon="1.7209964">
        <ele>139.0</ele>
        <time>2022-03-31T09:41:53Z</time>
      </trkpt>
      <trkpt lat="47.55231" lon="1.7210073">
        <ele>138.0</ele>
        <time>2022-03-31T09:41:54Z</time>
      </trkpt>
      <trkpt lat="47.55232" lon="1.7210224">
        <ele>138.0</ele>
        <time>2022-03-31T09:41:55Z</time>
      </trkpt>
      <trkpt lat="47.552326" lon="1.7210311">
        <ele>138.0</ele>
        <time>2022-03-31T09:41:56Z</time>
      </trkpt>
      <trkpt lat="47.55233" lon="1.7210407">
        <ele>138.0</ele>
        <time>2022-03-31T09:41:57Z</time>
      </trkpt>
      <trkpt lat="47.552338" lon="1.7210572">
        <ele>138.0</ele>
        <time>2022-03-31T09:41:58Z</time>
      </trkpt>
      <trkpt lat="47.552345" lon="1.7210696">
        <ele>138.0</ele>
        <time>2022-03-31T09:41:59Z</time>
      </trkpt>
      <trkpt lat="47.552353" lon="1.7210841">
        <ele>138.0</ele>
        <time>2022-03-31T09:42:00Z</time>
      </trkpt>
      <trkpt lat="47.552353" lon="1.7210935">
        <ele>138.0</ele>
        <time>2022-03-31T09:42:01Z</time>
      </trkpt>
      <trkpt lat="47.552357" lon="1.7211045">
        <ele>138.0</ele>
        <time>2022-03-31T09:42:02Z</time>
      </trkpt>
      <trkpt lat="47.55236" lon="1.7211173">
        <ele>139.0</ele>
        <time>2022-03-31T09:42:03Z</time>
      </trkpt>
      <trkpt lat="47.552364" lon="1.7211336">
        <ele>139.0</ele>
        <time>2022-03-31T09:42:04Z</time>
      </trkpt>
      <trkpt lat="47.552372" lon="1.7211449">
        <ele>139.0</ele>
        <time>2022-03-31T09:42:05Z</time>
      </trkpt>
      <trkpt lat="47.55238" lon="1.7211592">
        <ele>138.0</ele>
        <time>2022-03-31T09:42:06Z</time>
      </trkpt>
      <trkpt lat="47.552387" lon="1.7211729">
        <ele>138.0</ele>
        <time>2022-03-31T09:42:07Z</time>
      </trkpt>
      <trkpt lat="47.5524" lon="1.7211866">
        <ele>138.0</ele>
        <time>2022-03-31T09:42:08Z</time>
      </trkpt>
      <trkpt lat="47.552406" lon="1.7212013">
        <ele>138.0</ele>
        <time>2022-03-31T09:42:09Z</time>
      </trkpt>
      <trkpt lat="47.55241" lon="1.7212198">
        <ele>138.0</ele>
        <time>2022-03-31T09:42:10Z</time>
      </trkpt>
      <trkpt lat="47.552418" lon="1.7212359">
        <ele>138.0</ele>
        <time>2022-03-31T09:42:11Z</time>
      </trkpt>
      <trkpt lat="47.552433" lon="1.7212516">
        <ele>138.0</ele>
        <time>2022-03-31T09:42:12Z</time>
      </trkpt>
      <trkpt lat="47.55244" lon="1.7212658">
        <ele>138.0</ele>
        <time>2022-03-31T09:42:13Z</time>
      </trkpt>
      <trkpt lat="47.55245" lon="1.7212812">
        <ele>138.0</ele>
        <time>2022-03-31T09:42:14Z</time>
      </trkpt>
      <trkpt lat="47.552452" lon="1.7212982">
        <ele>139.0</ele>
        <time>2022-03-31T09:42:15Z</time>
      </trkpt>
      <trkpt lat="47.552452" lon="1.72131">
        <ele>139.0</ele>
        <time>2022-03-31T09:42:16Z</time>
      </trkpt>
      <trkpt lat="47.552456" lon="1.721318">
        <ele>139.0</ele>
        <time>2022-03-31T09:42:17Z</time>
      </trkpt>
      <trkpt lat="47.55246" lon="1.7213315">
        <ele>139.0</ele>
        <time>2022-03-31T09:42:18Z</time>
      </trkpt>
      <trkpt lat="47.552467" lon="1.721343">
        <ele>139.0</ele>
        <time>2022-03-31T09:42:19Z</time>
      </trkpt>
      <trkpt lat="47.55247" lon="1.7213573">
        <ele>139.0</ele>
        <time>2022-03-31T09:42:20Z</time>
      </trkpt>
      <trkpt lat="47.552475" lon="1.7213659">
        <ele>140.0</ele>
        <time>2022-03-31T09:42:21Z</time>
      </trkpt>
      <trkpt lat="47.552483" lon="1.7213738">
        <ele>140.0</ele>
        <time>2022-03-31T09:42:22Z</time>
      </trkpt>
      <trkpt lat="47.552486" lon="1.721389">
        <ele>140.0</ele>
        <time>2022-03-31T09:42:23Z</time>
      </trkpt>
      <trkpt lat="47.55249" lon="1.7214086">
        <ele>140.0</ele>
        <time>2022-03-31T09:42:24Z</time>
      </trkpt>
      <trkpt lat="47.552498" lon="1.7214249">
        <ele>140.0</ele>
        <time>2022-03-31T09:42:25Z</time>
      </trkpt>
      <trkpt lat="47.552505" lon="1.7214348">
        <ele>140.0</ele>
        <time>2022-03-31T09:42:26Z</time>
      </trkpt>
      <trkpt lat="47.552513" lon="1.7214458">
        <ele>141.0</ele>
        <time>2022-03-31T09:42:27Z</time>
      </trkpt>
      <trkpt lat="47.55252" lon="1.7214596">
        <ele>141.0</ele>
        <time>2022-03-31T09:42:28Z</time>
      </trkpt>
      <trkpt lat="47.55253" lon="1.721473">
        <ele>142.0</ele>
        <time>2022-03-31T09:42:29Z</time>
      </trkpt>
      <trkpt lat="47.552532" lon="1.721487">
        <ele>142.0</ele>
        <time>2022-03-31T09:42:30Z</time>
      </trkpt>
      <trkpt lat="47.55254" lon="1.721497">
        <ele>142.0</ele>
        <time>2022-03-31T09:42:31Z</time>
      </trkpt>
      <trkpt lat="47.552544" lon="1.7215122">
        <ele>142.0</ele>
        <time>2022-03-31T09:42:32Z</time>
      </trkpt>
      <trkpt lat="47.55255" lon="1.7215236">
        <ele>143.0</ele>
        <time>2022-03-31T09:42:33Z</time>
      </trkpt>
      <trkpt lat="47.55256" lon="1.7215339">
        <ele>143.0</ele>
        <time>2022-03-31T09:42:34Z</time>
      </trkpt>
      <trkpt lat="47.552567" lon="1.7215468">
        <ele>143.0</ele>
        <time>2022-03-31T09:42:35Z</time>
      </trkpt>
      <trkpt lat="47.552574" lon="1.7215587">
        <ele>143.0</ele>
        <time>2022-03-31T09:42:36Z</time>
      </trkpt>
      <trkpt lat="47.552586" lon="1.7215648">
        <ele>143.0</ele>
        <time>2022-03-31T09:42:37Z</time>
      </trkpt>
      <trkpt lat="47.552593" lon="1.7215774">
        <ele>143.0</ele>
        <time>2022-03-31T09:42:38Z</time>
      </trkpt>
      <trkpt lat="47.552605" lon="1.7215902">
        <ele>144.0</ele>
        <time>2022-03-31T09:42:39Z</time>
      </trkpt>
      <trkpt lat="47.552612" lon="1.7216035">
        <ele>144.0</ele>
        <time>2022-03-31T09:42:40Z</time>
      </trkpt>
      <trkpt lat="47.55262" lon="1.7216157">
        <ele>144.0</ele>
        <time>2022-03-31T09:42:41Z</time>
      </trkpt>
      <trkpt lat="47.552628" lon="1.721629">
        <ele>144.0</ele>
        <time>2022-03-31T09:42:42Z</time>
      </trkpt>
      <trkpt lat="47.552635" lon="1.7216414">
        <ele>144.0</ele>
        <time>2022-03-31T09:42:43Z</time>
      </trkpt>
      <trkpt lat="47.552643" lon="1.7216535">
        <ele>143.0</ele>
        <time>2022-03-31T09:42:44Z</time>
      </trkpt>
      <trkpt lat="47.55265" lon="1.7216653">
        <ele>144.0</ele>
        <time>2022-03-31T09:42:45Z</time>
      </trkpt>
      <trkpt lat="47.552658" lon="1.7216784">
        <ele>144.0</ele>
        <time>2022-03-31T09:42:46Z</time>
      </trkpt>
      <trkpt lat="47.552666" lon="1.7216927">
        <ele>144.0</ele>
        <time>2022-03-31T09:42:47Z</time>
      </trkpt>
      <trkpt lat="47.552677" lon="1.721711">
        <ele>143.0</ele>
        <time>2022-03-31T09:42:48Z</time>
      </trkpt>
      <trkpt lat="47.552685" lon="1.7217274">
        <ele>143.0</ele>
        <time>2022-03-31T09:42:49Z</time>
      </trkpt>
      <trkpt lat="47.552692" lon="1.7217406">
        <ele>143.0</ele>
        <time>2022-03-31T09:42:50Z</time>
      </trkpt>
      <trkpt lat="47.5527" lon="1.721753">
        <ele>143.0</ele>
        <time>2022-03-31T09:42:51Z</time>
      </trkpt>
      <trkpt lat="47.552708" lon="1.7217642">
        <ele>143.0</ele>
        <time>2022-03-31T09:42:52Z</time>
      </trkpt>
      <trkpt lat="47.552715" lon="1.7217776">
        <ele>144.0</ele>
        <time>2022-03-31T09:42:53Z</time>
      </trkpt>
      <trkpt lat="47.552723" lon="1.7217852">
        <ele>145.0</ele>
        <time>2022-03-31T09:42:54Z</time>
      </trkpt>
      <trkpt lat="47.55273" lon="1.721792">
        <ele>146.0</ele>
        <time>2022-03-31T09:42:55Z</time>
      </trkpt>
      <trkpt lat="47.552734" lon="1.7218089">
        <ele>146.0</ele>
        <time>2022-03-31T09:42:56Z</time>
      </trkpt>
      <trkpt lat="47.55274" lon="1.7218204">
        <ele>146.0</ele>
        <time>2022-03-31T09:42:57Z</time>
      </trkpt>
      <trkpt lat="47.552742" lon="1.7218366">
        <ele>146.0</ele>
        <time>2022-03-31T09:42:58Z</time>
      </trkpt>
      <trkpt lat="47.55275" lon="1.7218539">
        <ele>146.0</ele>
        <time>2022-03-31T09:42:59Z</time>
      </trkpt>
      <trkpt lat="47.55276" lon="1.7218663">
        <ele>146.0</ele>
        <time>2022-03-31T09:43:00Z</time>
      </trkpt>
      <trkpt lat="47.552765" lon="1.7218816">
        <ele>147.0</ele>
        <time>2022-03-31T09:43:01Z</time>
      </trkpt>
      <trkpt lat="47.552773" lon="1.721895">
        <ele>147.0</ele>
        <time>2022-03-31T09:43:02Z</time>
      </trkpt>
      <trkpt lat="47.552776" lon="1.7219001">
        <ele>147.0</ele>
        <time>2022-03-31T09:43:03Z</time>
      </trkpt>
      <trkpt lat="47.552784" lon="1.7219071">
        <ele>147.0</ele>
        <time>2022-03-31T09:43:04Z</time>
      </trkpt>
      <trkpt lat="47.552788" lon="1.7219138">
        <ele>147.0</ele>
        <time>2022-03-31T09:43:05Z</time>
      </trkpt>
      <trkpt lat="47.55279" lon="1.7219262">
        <ele>147.0</ele>
        <time>2022-03-31T09:43:06Z</time>
      </trkpt>
      <trkpt lat="47.552795" lon="1.7219349">
        <ele>147.0</ele>
        <time>2022-03-31T09:43:07Z</time>
      </trkpt>
      <trkpt lat="47.5528" lon="1.7219491">
        <ele>147.0</ele>
        <time>2022-03-31T09:43:08Z</time>
      </trkpt>
      <trkpt lat="47.552807" lon="1.7219611">
        <ele>147.0</ele>
        <time>2022-03-31T09:43:09Z</time>
      </trkpt>
      <trkpt lat="47.55281" lon="1.7219696">
        <ele>148.0</ele>
        <time>2022-03-31T09:43:10Z</time>
      </trkpt>
      <trkpt lat="47.55282" lon="1.7219825">
        <ele>147.0</ele>
        <time>2022-03-31T09:43:11Z</time>
      </trkpt>
      <trkpt lat="47.552822" lon="1.7219938">
        <ele>147.0</ele>
        <time>2022-03-31T09:43:12Z</time>
      </trkpt>
      <trkpt lat="47.552826" lon="1.7220079">
        <ele>147.0</ele>
        <time>2022-03-31T09:43:13Z</time>
      </trkpt>
      <trkpt lat="47.55283" lon="1.7220229">
        <ele>147.0</ele>
        <time>2022-03-31T09:43:14Z</time>
      </trkpt>
      <trkpt lat="47.552834" lon="1.722037">
        <ele>147.0</ele>
        <time>2022-03-31T09:43:15Z</time>
      </trkpt>
      <trkpt lat="47.552837" lon="1.7220519">
        <ele>147.0</ele>
        <time>2022-03-31T09:43:16Z</time>
      </trkpt>
      <trkpt lat="47.552845" lon="1.722062">
        <ele>147.0</ele>
        <time>2022-03-31T09:43:17Z</time>
      </trkpt>
      <trkpt lat="47.552856" lon="1.7220762">
        <ele>147.0</ele>
        <time>2022-03-31T09:43:18Z</time>
      </trkpt>
      <trkpt lat="47.552876" lon="1.7220869">
        <ele>147.0</ele>
        <time>2022-03-31T09:43:19Z</time>
      </trkpt>
      <trkpt lat="47.552887" lon="1.7220963">
        <ele>148.0</ele>
        <time>2022-03-31T09:43:20Z</time>
      </trkpt>
      <trkpt lat="47.552895" lon="1.722101">
        <ele>149.0</ele>
        <time>2022-03-31T09:43:21Z</time>
      </trkpt>
      <trkpt lat="47.552906" lon="1.722115">
        <ele>149.0</ele>
        <time>2022-03-31T09:43:22Z</time>
      </trkpt>
      <trkpt lat="47.552914" lon="1.7221246">
        <ele>149.0</ele>
        <time>2022-03-31T09:43:23Z</time>
      </trkpt>
      <trkpt lat="47.552917" lon="1.7221273">
        <ele>150.0</ele>
        <time>2022-03-31T09:43:24Z</time>
      </trkpt>
      <trkpt lat="47.552917" lon="1.7221271">
        <ele>150.0</ele>
        <time>2022-03-31T09:43:25Z</time>
      </trkpt>
      <trkpt lat="47.552917" lon="1.7221271">
        <ele>150.0</ele>
        <time>2022-03-31T09:43:26Z</time>
      </trkpt>
      <trkpt lat="47.552917" lon="1.7221271">
        <ele>150.0</ele>
        <time>2022-03-31T09:43:27Z</time>
      </trkpt>
      <trkpt lat="47.552917" lon="1.7221271">
        <ele>150.0</ele>
        <time>2022-03-31T09:43:27Z</time>
      </trkpt>
      <trkpt lat="47.552917" lon="1.7221271">
        <ele>150.0</ele>
        <time>2022-03-31T09:43:27Z</time>
      </trkpt>
      <trkpt lat="47.552933" lon="1.7221415">
        <ele>148.0</ele>
        <time>2022-03-31T09:43:33Z</time>
      </trkpt>
      <trkpt lat="47.552937" lon="1.722143">
        <ele>149.0</ele>
        <time>2022-03-31T09:43:34Z</time>
      </trkpt>
      <trkpt lat="47.55294" lon="1.7221466">
        <ele>149.0</ele>
        <time>2022-03-31T09:43:35Z</time>
      </trkpt>
      <trkpt lat="47.552948" lon="1.7221568">
        <ele>149.0</ele>
        <time>2022-03-31T09:43:36Z</time>
      </trkpt>
      <trkpt lat="47.55295" lon="1.7221692">
        <ele>149.0</ele>
        <time>2022-03-31T09:43:37Z</time>
      </trkpt>
      <trkpt lat="47.55296" lon="1.7221766">
        <ele>149.0</ele>
        <time>2022-03-31T09:43:38Z</time>
      </trkpt>
      <trkpt lat="47.55296" lon="1.722182">
        <ele>149.0</ele>
        <time>2022-03-31T09:43:39Z</time>
      </trkpt>
      <trkpt lat="47.55296" lon="1.7221863">
        <ele>148.0</ele>
        <time>2022-03-31T09:43:40Z</time>
      </trkpt>
      <trkpt lat="47.55296" lon="1.7221963">
        <ele>148.0</ele>
        <time>2022-03-31T09:43:41Z</time>
      </trkpt>
      <trkpt lat="47.552963" lon="1.7222044">
        <ele>148.0</ele>
        <time>2022-03-31T09:43:42Z</time>
      </trkpt>
      <trkpt lat="47.552967" lon="1.7222124">
        <ele>147.0</ele>
        <time>2022-03-31T09:43:43Z</time>
      </trkpt>
      <trkpt lat="47.552975" lon="1.7222216">
        <ele>147.0</ele>
        <time>2022-03-31T09:43:44Z</time>
      </trkpt>
      <trkpt lat="47.552982" lon="1.7222333">
        <ele>147.0</ele>
        <time>2022-03-31T09:43:45Z</time>
      </trkpt>
      <trkpt lat="47.552986" lon="1.722244">
        <ele>147.0</ele>
        <time>2022-03-31T09:43:46Z</time>
      </trkpt>
      <trkpt lat="47.552994" lon="1.72226">
        <ele>147.0</ele>
        <time>2022-03-31T09:43:47Z</time>
      </trkpt>
      <trkpt lat="47.553" lon="1.7222726">
        <ele>147.0</ele>
        <time>2022-03-31T09:43:48Z</time>
      </trkpt>
      <trkpt lat="47.55301" lon="1.7222769">
        <ele>147.0</ele>
        <time>2022-03-31T09:43:49Z</time>
      </trkpt>
      <trkpt lat="47.55302" lon="1.7222847">
        <ele>147.0</ele>
        <time>2022-03-31T09:43:50Z</time>
      </trkpt>
      <trkpt lat="47.55303" lon="1.7222985">
        <ele>148.0</ele>
        <time>2022-03-31T09:43:51Z</time>
      </trkpt>
      <trkpt lat="47.553036" lon="1.7223188">
        <ele>148.0</ele>
        <time>2022-03-31T09:43:52Z</time>
      </trkpt>
      <trkpt lat="47.55304" lon="1.7223321">
        <ele>148.0</ele>
        <time>2022-03-31T09:43:53Z</time>
      </trkpt>
      <trkpt lat="47.553043" lon="1.7223448">
        <ele>148.0</ele>
        <time>2022-03-31T09:43:54Z</time>
      </trkpt>
      <trkpt lat="47.55305" lon="1.7223583">
        <ele>148.0</ele>
        <time>2022-03-31T09:43:55Z</time>
      </trkpt>
      <trkpt lat="47.55306" lon="1.7223725">
        <ele>148.0</ele>
        <time>2022-03-31T09:43:56Z</time>
      </trkpt>
      <trkpt lat="47.553066" lon="1.7223868">
        <ele>148.0</ele>
        <time>2022-03-31T09:43:57Z</time>
      </trkpt>
      <trkpt lat="47.55307" lon="1.7223986">
        <ele>148.0</ele>
        <time>2022-03-31T09:43:58Z</time>
      </trkpt>
      <trkpt lat="47.553078" lon="1.7224095">
        <ele>148.0</ele>
        <time>2022-03-31T09:43:59Z</time>
      </trkpt>
      <trkpt lat="47.553074" lon="1.7224172">
        <ele>148.0</ele>
        <time>2022-03-31T09:44:00Z</time>
      </trkpt>
      <trkpt lat="47.55307" lon="1.7224199">
        <ele>149.0</ele>
        <time>2022-03-31T09:44:01Z</time>
      </trkpt>
      <trkpt lat="47.55307" lon="1.7224208">
        <ele>149.0</ele>
        <time>2022-03-31T09:44:02Z</time>
      </trkpt>
      <trkpt lat="47.55307" lon="1.7224205">
        <ele>149.0</ele>
        <time>2022-03-31T09:44:03Z</time>
      </trkpt>
      <trkpt lat="47.55307" lon="1.7224212">
        <ele>149.0</ele>
        <time>2022-03-31T09:44:04Z</time>
      </trkpt>
      <trkpt lat="47.55307" lon="1.7224218">
        <ele>149.0</ele>
        <time>2022-03-31T09:44:05Z</time>
      </trkpt>
      <trkpt lat="47.55307" lon="1.7224218">
        <ele>149.0</ele>
        <time>2022-03-31T09:44:05Z</time>
      </trkpt>
      <trkpt lat="47.55307" lon="1.7224218">
        <ele>149.0</ele>
        <time>2022-03-31T09:44:05Z</time>
      </trkpt>
      <trkpt lat="47.5531" lon="1.7224566">
        <ele>151.0</ele>
        <time>2022-03-31T09:45:03Z</time>
      </trkpt>
      <trkpt lat="47.553104" lon="1.7224653">
        <ele>151.0</ele>
        <time>2022-03-31T09:45:04Z</time>
      </trkpt>
      <trkpt lat="47.55311" lon="1.7224776">
        <ele>150.0</ele>
        <time>2022-03-31T09:45:05Z</time>
      </trkpt>
      <trkpt lat="47.553116" lon="1.7224884">
        <ele>150.0</ele>
        <time>2022-03-31T09:45:06Z</time>
      </trkpt>
      <trkpt lat="47.553123" lon="1.722499">
        <ele>151.0</ele>
        <time>2022-03-31T09:45:07Z</time>
      </trkpt>
      <trkpt lat="47.553127" lon="1.7225125">
        <ele>151.0</ele>
        <time>2022-03-31T09:45:08Z</time>
      </trkpt>
      <trkpt lat="47.553135" lon="1.722524">
        <ele>151.0</ele>
        <time>2022-03-31T09:45:09Z</time>
      </trkpt>
      <trkpt lat="47.55314" lon="1.7225329">
        <ele>151.0</ele>
        <time>2022-03-31T09:45:10Z</time>
      </trkpt>
      <trkpt lat="47.553143" lon="1.722542">
        <ele>151.0</ele>
        <time>2022-03-31T09:45:11Z</time>
      </trkpt>
      <trkpt lat="47.553143" lon="1.7225386">
        <ele>150.0</ele>
        <time>2022-03-31T09:45:12Z</time>
      </trkpt>
      <trkpt lat="47.553146" lon="1.722549">
        <ele>150.0</ele>
        <time>2022-03-31T09:45:13Z</time>
      </trkpt>
      <trkpt lat="47.553154" lon="1.7225546">
        <ele>150.0</ele>
        <time>2022-03-31T09:45:14Z</time>
      </trkpt>
      <trkpt lat="47.553158" lon="1.7225565">
        <ele>150.0</ele>
        <time>2022-03-31T09:45:15Z</time>
      </trkpt>
      <trkpt lat="47.55316" lon="1.722558">
        <ele>152.0</ele>
        <time>2022-03-31T09:45:16Z</time>
      </trkpt>
      <trkpt lat="47.55316" lon="1.7225583">
        <ele>152.0</ele>
        <time>2022-03-31T09:45:17Z</time>
      </trkpt>
      <trkpt lat="47.55316" lon="1.7225581">
        <ele>152.0</ele>
        <time>2022-03-31T09:45:18Z</time>
      </trkpt>
      <trkpt lat="47.55316" lon="1.7225581">
        <ele>152.0</ele>
        <time>2022-03-31T09:45:18Z</time>
      </trkpt>
      <trkpt lat="47.55316" lon="1.7225581">
        <ele>152.0</ele>
        <time>2022-03-31T09:45:18Z</time>
      </trkpt>
      <trkpt lat="47.55319" lon="1.7226282">
        <ele>149.0</ele>
        <time>2022-03-31T09:45:37Z</time>
      </trkpt>
      <trkpt lat="47.553192" lon="1.7226382">
        <ele>149.0</ele>
        <time>2022-03-31T09:45:38Z</time>
      </trkpt>
      <trkpt lat="47.553196" lon="1.7226481">
        <ele>149.0</ele>
        <time>2022-03-31T09:45:39Z</time>
      </trkpt>
      <trkpt lat="47.5532" lon="1.7226628">
        <ele>148.0</ele>
        <time>2022-03-31T09:45:40Z</time>
      </trkpt>
      <trkpt lat="47.553207" lon="1.722674">
        <ele>148.0</ele>
        <time>2022-03-31T09:45:41Z</time>
      </trkpt>
      <trkpt lat="47.553215" lon="1.7226838">
        <ele>148.0</ele>
        <time>2022-03-31T09:45:42Z</time>
      </trkpt>
      <trkpt lat="47.553223" lon="1.722695">
        <ele>148.0</ele>
        <time>2022-03-31T09:45:43Z</time>
      </trkpt>
      <trkpt lat="47.55323" lon="1.72271">
        <ele>148.0</ele>
        <time>2022-03-31T09:45:44Z</time>
      </trkpt>
      <trkpt lat="47.553238" lon="1.722726">
        <ele>148.0</ele>
        <time>2022-03-31T09:45:45Z</time>
      </trkpt>
      <trkpt lat="47.553246" lon="1.7227392">
        <ele>148.0</ele>
        <time>2022-03-31T09:45:46Z</time>
      </trkpt>
      <trkpt lat="47.553253" lon="1.7227477">
        <ele>148.0</ele>
        <time>2022-03-31T09:45:47Z</time>
      </trkpt>
      <trkpt lat="47.55326" lon="1.7227603">
        <ele>148.0</ele>
        <time>2022-03-31T09:45:48Z</time>
      </trkpt>
      <trkpt lat="47.553265" lon="1.7227736">
        <ele>148.0</ele>
        <time>2022-03-31T09:45:49Z</time>
      </trkpt>
      <trkpt lat="47.553272" lon="1.7227894">
        <ele>148.0</ele>
        <time>2022-03-31T09:45:50Z</time>
      </trkpt>
      <trkpt lat="47.55328" lon="1.7227988">
        <ele>148.0</ele>
        <time>2022-03-31T09:45:51Z</time>
      </trkpt>
      <trkpt lat="47.553288" lon="1.7228101">
        <ele>148.0</ele>
        <time>2022-03-31T09:45:52Z</time>
      </trkpt>
      <trkpt lat="47.5533" lon="1.7228209">
        <ele>148.0</ele>
        <time>2022-03-31T09:45:53Z</time>
      </trkpt>
      <trkpt lat="47.553307" lon="1.7228279">
        <ele>147.0</ele>
        <time>2022-03-31T09:45:54Z</time>
      </trkpt>
      <trkpt lat="47.553318" lon="1.7228321">
        <ele>147.0</ele>
        <time>2022-03-31T09:45:55Z</time>
      </trkpt>
      <trkpt lat="47.553326" lon="1.7228324">
        <ele>147.0</ele>
        <time>2022-03-31T09:45:56Z</time>
      </trkpt>
      <trkpt lat="47.553333" lon="1.7228353">
        <ele>147.0</ele>
        <time>2022-03-31T09:45:57Z</time>
      </trkpt>
      <trkpt lat="47.55334" lon="1.7228333">
        <ele>146.0</ele>
        <time>2022-03-31T09:45:58Z</time>
      </trkpt>
      <trkpt lat="47.553333" lon="1.7228314">
        <ele>147.0</ele>
        <time>2022-03-31T09:45:59Z</time>
      </trkpt>
      <trkpt lat="47.553333" lon="1.7228314">
        <ele>147.0</ele>
        <time>2022-03-31T09:46:00Z</time>
      </trkpt>
      <trkpt lat="47.553333" lon="1.722831">
        <ele>147.0</ele>
        <time>2022-03-31T09:46:01Z</time>
      </trkpt>
      <trkpt lat="47.553333" lon="1.722831">
        <ele>147.0</ele>
        <time>2022-03-31T09:46:01Z</time>
      </trkpt>
      <trkpt lat="47.553333" lon="1.722831">
        <ele>147.0</ele>
        <time>2022-03-31T09:46:01Z</time>
      </trkpt>
      <trkpt lat="47.553333" lon="1.722831">
        <ele>147.0</ele>
        <time>2022-03-31T09:46:01Z</time>
      </trkpt>
    </trkseg>
  </trk>
  <exerciseinfo>
    <exercisetype>1001</exercisetype>
    <distance>11546.16</distance>
    <elevationgain>0.0</elevationgain>
    <avggradient>0.09410366189836947</avggradient>
    <duration>8626122</duration>
    <avgspeed>1.3391517</avgspeed>
  </exerciseinfo>
</gpx>